<?xml version="1.0" encoding="UTF-8" standalone="no" ?>
<gpx xmlns="http://www.topografix.com/GPX/1/1" xmlns:xsi="http://www.w3.org/2001/XMLSchema-instance" xsi:schemaLocation="http://www.topografix.com/GPX/1/1 http://www.topografix.com/GPX/1/1/gpx.xsd" version="1.1" creator="VisuGPX - https://www.visugpx.com">
  <metadata>
    <name>Boucle des Falaises plus Padirac </name>
    <desc><![CDATA[parcour sympa beau point de vue 
chemins roulant et autres techniques belle montee et decentes]]></desc>
  </metadata>
  <trk>
    <name><![CDATA[Boucle des Falaises plus Padirac ]]></name>
    <trkseg>
      <trkpt lat="44.91443" lon="1.79425">
        <ele>130.2</ele>
        <time>2022-05-24T06:23:53Z</time>
      </trkpt>
      <trkpt lat="44.91456" lon="1.79471">
        <ele>130.3</ele>
        <time>2022-05-24T06:23:54Z</time>
      </trkpt>
      <trkpt lat="44.91454" lon="1.79472">
        <ele>130.3</ele>
        <time>2022-05-24T06:23:55Z</time>
      </trkpt>
      <trkpt lat="44.91449" lon="1.79472">
        <ele>130.4</ele>
        <time>2022-05-24T06:23:56Z</time>
      </trkpt>
      <trkpt lat="44.91446" lon="1.79471">
        <ele>130.4</ele>
        <time>2022-05-24T06:23:57Z</time>
      </trkpt>
      <trkpt lat="44.91443" lon="1.7947">
        <ele>130.5</ele>
        <time>2022-05-24T06:23:58Z</time>
      </trkpt>
      <trkpt lat="44.91439" lon="1.79467">
        <ele>130.5</ele>
        <time>2022-05-24T06:23:59Z</time>
      </trkpt>
      <trkpt lat="44.91444" lon="1.79469">
        <ele>130.6</ele>
        <time>2022-05-24T06:24:00Z</time>
      </trkpt>
      <trkpt lat="44.91445" lon="1.7947">
        <ele>130.6</ele>
        <time>2022-05-24T06:24:01Z</time>
      </trkpt>
      <trkpt lat="44.91444" lon="1.79469">
        <ele>130.6</ele>
        <time>2022-05-24T06:24:02Z</time>
      </trkpt>
      <trkpt lat="44.91442" lon="1.79469">
        <ele>130.6</ele>
        <time>2022-05-24T06:24:03Z</time>
      </trkpt>
      <trkpt lat="44.91441" lon="1.79468">
        <ele>130.6</ele>
        <time>2022-05-24T06:24:04Z</time>
      </trkpt>
      <trkpt lat="44.9144" lon="1.79468">
        <ele>130.7</ele>
        <time>2022-05-24T06:24:05Z</time>
      </trkpt>
      <trkpt lat="44.91438" lon="1.79469">
        <ele>130.7</ele>
        <time>2022-05-24T06:24:06Z</time>
      </trkpt>
      <trkpt lat="44.91438" lon="1.7947">
        <ele>130.7</ele>
        <time>2022-05-24T06:24:07Z</time>
      </trkpt>
      <trkpt lat="44.91438" lon="1.79471">
        <ele>130.7</ele>
        <time>2022-05-24T06:24:08Z</time>
      </trkpt>
      <trkpt lat="44.91437" lon="1.79473">
        <ele>130.7</ele>
        <time>2022-05-24T06:24:09Z</time>
      </trkpt>
      <trkpt lat="44.91437" lon="1.79474">
        <ele>130.7</ele>
        <time>2022-05-24T06:24:10Z</time>
      </trkpt>
      <trkpt lat="44.91437" lon="1.79475">
        <ele>130.7</ele>
        <time>2022-05-24T06:24:11Z</time>
      </trkpt>
      <trkpt lat="44.91436" lon="1.79476">
        <ele>130.8</ele>
        <time>2022-05-24T06:24:12Z</time>
      </trkpt>
      <trkpt lat="44.91436" lon="1.79482">
        <ele>130.8</ele>
        <time>2022-05-24T06:24:13Z</time>
      </trkpt>
      <trkpt lat="44.91437" lon="1.79484">
        <ele>130.8</ele>
        <time>2022-05-24T06:24:14Z</time>
      </trkpt>
      <trkpt lat="44.91439" lon="1.7949">
        <ele>130.9</ele>
        <time>2022-05-24T06:24:15Z</time>
      </trkpt>
      <trkpt lat="44.9144" lon="1.79496">
        <ele>131</ele>
        <time>2022-05-24T06:24:16Z</time>
      </trkpt>
      <trkpt lat="44.91442" lon="1.79502">
        <ele>131</ele>
        <time>2022-05-24T06:24:17Z</time>
      </trkpt>
      <trkpt lat="44.91444" lon="1.79507">
        <ele>131.1</ele>
        <time>2022-05-24T06:24:18Z</time>
      </trkpt>
      <trkpt lat="44.91446" lon="1.79512">
        <ele>131.1</ele>
        <time>2022-05-24T06:24:19Z</time>
      </trkpt>
      <trkpt lat="44.91447" lon="1.79518">
        <ele>131.2</ele>
        <time>2022-05-24T06:24:20Z</time>
      </trkpt>
      <trkpt lat="44.91449" lon="1.79523">
        <ele>131.2</ele>
        <time>2022-05-24T06:24:21Z</time>
      </trkpt>
      <trkpt lat="44.91451" lon="1.79529">
        <ele>131.3</ele>
        <time>2022-05-24T06:24:22Z</time>
      </trkpt>
      <trkpt lat="44.91453" lon="1.79535">
        <ele>131.3</ele>
        <time>2022-05-24T06:24:23Z</time>
      </trkpt>
      <trkpt lat="44.91455" lon="1.7954">
        <ele>131.4</ele>
        <time>2022-05-24T06:24:24Z</time>
      </trkpt>
      <trkpt lat="44.91458" lon="1.79544">
        <ele>131.4</ele>
        <time>2022-05-24T06:24:25Z</time>
      </trkpt>
      <trkpt lat="44.9146" lon="1.7955">
        <ele>131.5</ele>
        <time>2022-05-24T06:24:26Z</time>
      </trkpt>
      <trkpt lat="44.91463" lon="1.79555">
        <ele>131.5</ele>
        <time>2022-05-24T06:24:27Z</time>
      </trkpt>
      <trkpt lat="44.91465" lon="1.79561">
        <ele>131.5</ele>
        <time>2022-05-24T06:24:28Z</time>
      </trkpt>
      <trkpt lat="44.91468" lon="1.79566">
        <ele>131.5</ele>
        <time>2022-05-24T06:24:29Z</time>
      </trkpt>
      <trkpt lat="44.91471" lon="1.79571">
        <ele>131.5</ele>
        <time>2022-05-24T06:24:30Z</time>
      </trkpt>
      <trkpt lat="44.91474" lon="1.79576">
        <ele>131.6</ele>
        <time>2022-05-24T06:24:31Z</time>
      </trkpt>
      <trkpt lat="44.91477" lon="1.79581">
        <ele>131.6</ele>
        <time>2022-05-24T06:24:32Z</time>
      </trkpt>
      <trkpt lat="44.91481" lon="1.79586">
        <ele>131.6</ele>
        <time>2022-05-24T06:24:33Z</time>
      </trkpt>
      <trkpt lat="44.91484" lon="1.7959">
        <ele>131.6</ele>
        <time>2022-05-24T06:24:34Z</time>
      </trkpt>
      <trkpt lat="44.91489" lon="1.79595">
        <ele>131.6</ele>
        <time>2022-05-24T06:24:35Z</time>
      </trkpt>
      <trkpt lat="44.91493" lon="1.796">
        <ele>131.6</ele>
        <time>2022-05-24T06:24:36Z</time>
      </trkpt>
      <trkpt lat="44.91497" lon="1.79604">
        <ele>131.5</ele>
        <time>2022-05-24T06:24:37Z</time>
      </trkpt>
      <trkpt lat="44.91501" lon="1.79609">
        <ele>131.5</ele>
        <time>2022-05-24T06:24:38Z</time>
      </trkpt>
      <trkpt lat="44.91505" lon="1.79613">
        <ele>131.4</ele>
        <time>2022-05-24T06:24:39Z</time>
      </trkpt>
      <trkpt lat="44.9151" lon="1.79618">
        <ele>131.4</ele>
        <time>2022-05-24T06:24:40Z</time>
      </trkpt>
      <trkpt lat="44.91514" lon="1.79622">
        <ele>131.3</ele>
        <time>2022-05-24T06:24:41Z</time>
      </trkpt>
      <trkpt lat="44.91519" lon="1.79627">
        <ele>131.2</ele>
        <time>2022-05-24T06:24:42Z</time>
      </trkpt>
      <trkpt lat="44.91523" lon="1.79633">
        <ele>131.1</ele>
        <time>2022-05-24T06:24:43Z</time>
      </trkpt>
      <trkpt lat="44.91525" lon="1.79641">
        <ele>130.9</ele>
        <time>2022-05-24T06:24:44Z</time>
      </trkpt>
      <trkpt lat="44.91527" lon="1.79649">
        <ele>130.8</ele>
        <time>2022-05-24T06:24:45Z</time>
      </trkpt>
      <trkpt lat="44.91527" lon="1.79657">
        <ele>130.6</ele>
        <time>2022-05-24T06:24:46Z</time>
      </trkpt>
      <trkpt lat="44.91525" lon="1.79665">
        <ele>130.4</ele>
        <time>2022-05-24T06:24:47Z</time>
      </trkpt>
      <trkpt lat="44.91523" lon="1.79673">
        <ele>130.3</ele>
        <time>2022-05-24T06:24:48Z</time>
      </trkpt>
      <trkpt lat="44.91522" lon="1.7968">
        <ele>130.3</ele>
        <time>2022-05-24T06:24:49Z</time>
      </trkpt>
      <trkpt lat="44.9152" lon="1.79688">
        <ele>130.2</ele>
        <time>2022-05-24T06:24:50Z</time>
      </trkpt>
      <trkpt lat="44.91519" lon="1.79694">
        <ele>130.2</ele>
        <time>2022-05-24T06:24:51Z</time>
      </trkpt>
      <trkpt lat="44.91516" lon="1.79698">
        <ele>130.1</ele>
        <time>2022-05-24T06:24:52Z</time>
      </trkpt>
      <trkpt lat="44.91512" lon="1.79704">
        <ele>130.1</ele>
        <time>2022-05-24T06:24:53Z</time>
      </trkpt>
      <trkpt lat="44.9151" lon="1.79707">
        <ele>130</ele>
        <time>2022-05-24T06:24:54Z</time>
      </trkpt>
      <trkpt lat="44.91506" lon="1.79712">
        <ele>130</ele>
        <time>2022-05-24T06:24:55Z</time>
      </trkpt>
      <trkpt lat="44.91501" lon="1.79713">
        <ele>130</ele>
        <time>2022-05-24T06:24:56Z</time>
      </trkpt>
      <trkpt lat="44.91493" lon="1.79707">
        <ele>130</ele>
        <time>2022-05-24T06:24:57Z</time>
      </trkpt>
      <trkpt lat="44.91486" lon="1.797">
        <ele>130</ele>
        <time>2022-05-24T06:24:58Z</time>
      </trkpt>
      <trkpt lat="44.9148" lon="1.79695">
        <ele>130.1</ele>
        <time>2022-05-24T06:24:59Z</time>
      </trkpt>
      <trkpt lat="44.91475" lon="1.79692">
        <ele>130.2</ele>
        <time>2022-05-24T06:25:00Z</time>
      </trkpt>
      <trkpt lat="44.91471" lon="1.79689">
        <ele>130.2</ele>
        <time>2022-05-24T06:25:01Z</time>
      </trkpt>
      <trkpt lat="44.91467" lon="1.79686">
        <ele>130.3</ele>
        <time>2022-05-24T06:25:02Z</time>
      </trkpt>
      <trkpt lat="44.91463" lon="1.79683">
        <ele>130.3</ele>
        <time>2022-05-24T06:25:03Z</time>
      </trkpt>
      <trkpt lat="44.91455" lon="1.79678">
        <ele>130.4</ele>
        <time>2022-05-24T06:25:04Z</time>
      </trkpt>
      <trkpt lat="44.9145" lon="1.79674">
        <ele>130.5</ele>
        <time>2022-05-24T06:25:05Z</time>
      </trkpt>
      <trkpt lat="44.91444" lon="1.79669">
        <ele>130.6</ele>
        <time>2022-05-24T06:25:06Z</time>
      </trkpt>
      <trkpt lat="44.91439" lon="1.79664">
        <ele>130.7</ele>
        <time>2022-05-24T06:25:07Z</time>
      </trkpt>
      <trkpt lat="44.91434" lon="1.7966">
        <ele>130.8</ele>
        <time>2022-05-24T06:25:08Z</time>
      </trkpt>
      <trkpt lat="44.9143" lon="1.79658">
        <ele>130.8</ele>
        <time>2022-05-24T06:25:09Z</time>
      </trkpt>
      <trkpt lat="44.91425" lon="1.79653">
        <ele>130.9</ele>
        <time>2022-05-24T06:25:10Z</time>
      </trkpt>
      <trkpt lat="44.9142" lon="1.79649">
        <ele>131</ele>
        <time>2022-05-24T06:25:11Z</time>
      </trkpt>
      <trkpt lat="44.91415" lon="1.79645">
        <ele>131.1</ele>
        <time>2022-05-24T06:25:12Z</time>
      </trkpt>
      <trkpt lat="44.9141" lon="1.79641">
        <ele>131.1</ele>
        <time>2022-05-24T06:25:13Z</time>
      </trkpt>
      <trkpt lat="44.91406" lon="1.79638">
        <ele>131.2</ele>
        <time>2022-05-24T06:25:14Z</time>
      </trkpt>
      <trkpt lat="44.91402" lon="1.79634">
        <ele>131.2</ele>
        <time>2022-05-24T06:25:15Z</time>
      </trkpt>
      <trkpt lat="44.91397" lon="1.7963">
        <ele>131.3</ele>
        <time>2022-05-24T06:25:16Z</time>
      </trkpt>
      <trkpt lat="44.91393" lon="1.79627">
        <ele>131.3</ele>
        <time>2022-05-24T06:25:17Z</time>
      </trkpt>
      <trkpt lat="44.91389" lon="1.79624">
        <ele>131.3</ele>
        <time>2022-05-24T06:25:18Z</time>
      </trkpt>
      <trkpt lat="44.91385" lon="1.79619">
        <ele>131.3</ele>
        <time>2022-05-24T06:25:19Z</time>
      </trkpt>
      <trkpt lat="44.91381" lon="1.79615">
        <ele>131.3</ele>
        <time>2022-05-24T06:25:20Z</time>
      </trkpt>
      <trkpt lat="44.91376" lon="1.79611">
        <ele>131.3</ele>
        <time>2022-05-24T06:25:21Z</time>
      </trkpt>
      <trkpt lat="44.91371" lon="1.79606">
        <ele>131.3</ele>
        <time>2022-05-24T06:25:22Z</time>
      </trkpt>
      <trkpt lat="44.91367" lon="1.79601">
        <ele>131.2</ele>
        <time>2022-05-24T06:25:23Z</time>
      </trkpt>
      <trkpt lat="44.91363" lon="1.79596">
        <ele>131.2</ele>
        <time>2022-05-24T06:25:24Z</time>
      </trkpt>
      <trkpt lat="44.91359" lon="1.79592">
        <ele>131.1</ele>
        <time>2022-05-24T06:25:25Z</time>
      </trkpt>
      <trkpt lat="44.91354" lon="1.79588">
        <ele>131.1</ele>
        <time>2022-05-24T06:25:26Z</time>
      </trkpt>
      <trkpt lat="44.91349" lon="1.79583">
        <ele>131</ele>
        <time>2022-05-24T06:25:27Z</time>
      </trkpt>
      <trkpt lat="44.91344" lon="1.79579">
        <ele>131</ele>
        <time>2022-05-24T06:25:28Z</time>
      </trkpt>
      <trkpt lat="44.91339" lon="1.79575">
        <ele>131</ele>
        <time>2022-05-24T06:25:29Z</time>
      </trkpt>
      <trkpt lat="44.91329" lon="1.79567">
        <ele>131</ele>
        <time>2022-05-24T06:25:31Z</time>
      </trkpt>
      <trkpt lat="44.91326" lon="1.79561">
        <ele>131</ele>
        <time>2022-05-24T06:25:32Z</time>
      </trkpt>
      <trkpt lat="44.91323" lon="1.79554">
        <ele>131</ele>
        <time>2022-05-24T06:25:33Z</time>
      </trkpt>
      <trkpt lat="44.91322" lon="1.79547">
        <ele>131</ele>
        <time>2022-05-24T06:25:34Z</time>
      </trkpt>
      <trkpt lat="44.91323" lon="1.79541">
        <ele>131</ele>
        <time>2022-05-24T06:25:35Z</time>
      </trkpt>
      <trkpt lat="44.91323" lon="1.79534">
        <ele>130.9</ele>
        <time>2022-05-24T06:25:36Z</time>
      </trkpt>
      <trkpt lat="44.91322" lon="1.79528">
        <ele>130.9</ele>
        <time>2022-05-24T06:25:37Z</time>
      </trkpt>
      <trkpt lat="44.91319" lon="1.79522">
        <ele>130.9</ele>
        <time>2022-05-24T06:25:38Z</time>
      </trkpt>
      <trkpt lat="44.91315" lon="1.79517">
        <ele>130.9</ele>
        <time>2022-05-24T06:25:39Z</time>
      </trkpt>
      <trkpt lat="44.91312" lon="1.79511">
        <ele>130.9</ele>
        <time>2022-05-24T06:25:40Z</time>
      </trkpt>
      <trkpt lat="44.91309" lon="1.79504">
        <ele>130.8</ele>
        <time>2022-05-24T06:25:41Z</time>
      </trkpt>
      <trkpt lat="44.91305" lon="1.79499">
        <ele>130.8</ele>
        <time>2022-05-24T06:25:42Z</time>
      </trkpt>
      <trkpt lat="44.91301" lon="1.79493">
        <ele>130.8</ele>
        <time>2022-05-24T06:25:43Z</time>
      </trkpt>
      <trkpt lat="44.91296" lon="1.79488">
        <ele>130.8</ele>
        <time>2022-05-24T06:25:44Z</time>
      </trkpt>
      <trkpt lat="44.91292" lon="1.79483">
        <ele>130.8</ele>
        <time>2022-05-24T06:25:45Z</time>
      </trkpt>
      <trkpt lat="44.91288" lon="1.79477">
        <ele>130.8</ele>
        <time>2022-05-24T06:25:46Z</time>
      </trkpt>
      <trkpt lat="44.91285" lon="1.79471">
        <ele>130.9</ele>
        <time>2022-05-24T06:25:47Z</time>
      </trkpt>
      <trkpt lat="44.91281" lon="1.79464">
        <ele>130.9</ele>
        <time>2022-05-24T06:25:48Z</time>
      </trkpt>
      <trkpt lat="44.91276" lon="1.79458">
        <ele>130.9</ele>
        <time>2022-05-24T06:25:49Z</time>
      </trkpt>
      <trkpt lat="44.91272" lon="1.79451">
        <ele>130.9</ele>
        <time>2022-05-24T06:25:50Z</time>
      </trkpt>
      <trkpt lat="44.91269" lon="1.79446">
        <ele>130.9</ele>
        <time>2022-05-24T06:25:51Z</time>
      </trkpt>
      <trkpt lat="44.91267" lon="1.7944">
        <ele>130.9</ele>
        <time>2022-05-24T06:25:52Z</time>
      </trkpt>
      <trkpt lat="44.91264" lon="1.79435">
        <ele>130.9</ele>
        <time>2022-05-24T06:25:53Z</time>
      </trkpt>
      <trkpt lat="44.91261" lon="1.7943">
        <ele>130.9</ele>
        <time>2022-05-24T06:25:54Z</time>
      </trkpt>
      <trkpt lat="44.91257" lon="1.79424">
        <ele>130.9</ele>
        <time>2022-05-24T06:25:55Z</time>
      </trkpt>
      <trkpt lat="44.91254" lon="1.79419">
        <ele>130.9</ele>
        <time>2022-05-24T06:25:56Z</time>
      </trkpt>
      <trkpt lat="44.91251" lon="1.79413">
        <ele>130.9</ele>
        <time>2022-05-24T06:25:57Z</time>
      </trkpt>
      <trkpt lat="44.91248" lon="1.79407">
        <ele>130.8</ele>
        <time>2022-05-24T06:25:58Z</time>
      </trkpt>
      <trkpt lat="44.91245" lon="1.79402">
        <ele>130.8</ele>
        <time>2022-05-24T06:25:59Z</time>
      </trkpt>
      <trkpt lat="44.91241" lon="1.79396">
        <ele>130.8</ele>
        <time>2022-05-24T06:26:00Z</time>
      </trkpt>
      <trkpt lat="44.91237" lon="1.7939">
        <ele>130.8</ele>
        <time>2022-05-24T06:26:01Z</time>
      </trkpt>
      <trkpt lat="44.91233" lon="1.79383">
        <ele>130.7</ele>
        <time>2022-05-24T06:26:02Z</time>
      </trkpt>
      <trkpt lat="44.91228" lon="1.79376">
        <ele>130.7</ele>
        <time>2022-05-24T06:26:03Z</time>
      </trkpt>
      <trkpt lat="44.91225" lon="1.79369">
        <ele>130.7</ele>
        <time>2022-05-24T06:26:04Z</time>
      </trkpt>
      <trkpt lat="44.9122" lon="1.79362">
        <ele>130.6</ele>
        <time>2022-05-24T06:26:05Z</time>
      </trkpt>
      <trkpt lat="44.91216" lon="1.79356">
        <ele>130.5</ele>
        <time>2022-05-24T06:26:06Z</time>
      </trkpt>
      <trkpt lat="44.91211" lon="1.7935">
        <ele>130.5</ele>
        <time>2022-05-24T06:26:07Z</time>
      </trkpt>
      <trkpt lat="44.91206" lon="1.79345">
        <ele>130.4</ele>
        <time>2022-05-24T06:26:08Z</time>
      </trkpt>
      <trkpt lat="44.91201" lon="1.79339">
        <ele>130.4</ele>
        <time>2022-05-24T06:26:09Z</time>
      </trkpt>
      <trkpt lat="44.91197" lon="1.79333">
        <ele>130.4</ele>
        <time>2022-05-24T06:26:10Z</time>
      </trkpt>
      <trkpt lat="44.91194" lon="1.79327">
        <ele>130.3</ele>
        <time>2022-05-24T06:26:11Z</time>
      </trkpt>
      <trkpt lat="44.9119" lon="1.79321">
        <ele>130.3</ele>
        <time>2022-05-24T06:26:12Z</time>
      </trkpt>
      <trkpt lat="44.91187" lon="1.79314">
        <ele>130.3</ele>
        <time>2022-05-24T06:26:13Z</time>
      </trkpt>
      <trkpt lat="44.91183" lon="1.79308">
        <ele>130.2</ele>
        <time>2022-05-24T06:26:14Z</time>
      </trkpt>
      <trkpt lat="44.9118" lon="1.79302">
        <ele>130.2</ele>
        <time>2022-05-24T06:26:15Z</time>
      </trkpt>
      <trkpt lat="44.91178" lon="1.79296">
        <ele>130.2</ele>
        <time>2022-05-24T06:26:16Z</time>
      </trkpt>
      <trkpt lat="44.91175" lon="1.79291">
        <ele>130.2</ele>
        <time>2022-05-24T06:26:17Z</time>
      </trkpt>
      <trkpt lat="44.91171" lon="1.79285">
        <ele>130.2</ele>
        <time>2022-05-24T06:26:18Z</time>
      </trkpt>
      <trkpt lat="44.91168" lon="1.7928">
        <ele>130.2</ele>
        <time>2022-05-24T06:26:19Z</time>
      </trkpt>
      <trkpt lat="44.91164" lon="1.79275">
        <ele>130.2</ele>
        <time>2022-05-24T06:26:20Z</time>
      </trkpt>
      <trkpt lat="44.91161" lon="1.79269">
        <ele>130.2</ele>
        <time>2022-05-24T06:26:21Z</time>
      </trkpt>
      <trkpt lat="44.91157" lon="1.79263">
        <ele>130.2</ele>
        <time>2022-05-24T06:26:22Z</time>
      </trkpt>
      <trkpt lat="44.91154" lon="1.79258">
        <ele>130.1</ele>
        <time>2022-05-24T06:26:23Z</time>
      </trkpt>
      <trkpt lat="44.9115" lon="1.79252">
        <ele>130.1</ele>
        <time>2022-05-24T06:26:24Z</time>
      </trkpt>
      <trkpt lat="44.91147" lon="1.79246">
        <ele>130</ele>
        <time>2022-05-24T06:26:25Z</time>
      </trkpt>
      <trkpt lat="44.91143" lon="1.7924">
        <ele>129.9</ele>
        <time>2022-05-24T06:26:26Z</time>
      </trkpt>
      <trkpt lat="44.91139" lon="1.79235">
        <ele>129.8</ele>
        <time>2022-05-24T06:26:27Z</time>
      </trkpt>
      <trkpt lat="44.91135" lon="1.7923">
        <ele>129.6</ele>
        <time>2022-05-24T06:26:28Z</time>
      </trkpt>
      <trkpt lat="44.9113" lon="1.79223">
        <ele>129.4</ele>
        <time>2022-05-24T06:26:29Z</time>
      </trkpt>
      <trkpt lat="44.91126" lon="1.79217">
        <ele>129.2</ele>
        <time>2022-05-24T06:26:30Z</time>
      </trkpt>
      <trkpt lat="44.91121" lon="1.79211">
        <ele>128.9</ele>
        <time>2022-05-24T06:26:31Z</time>
      </trkpt>
      <trkpt lat="44.91117" lon="1.79204">
        <ele>128.7</ele>
        <time>2022-05-24T06:26:32Z</time>
      </trkpt>
      <trkpt lat="44.91113" lon="1.79197">
        <ele>128.5</ele>
        <time>2022-05-24T06:26:33Z</time>
      </trkpt>
      <trkpt lat="44.91109" lon="1.79191">
        <ele>128.3</ele>
        <time>2022-05-24T06:26:34Z</time>
      </trkpt>
      <trkpt lat="44.91105" lon="1.79185">
        <ele>128.2</ele>
        <time>2022-05-24T06:26:35Z</time>
      </trkpt>
      <trkpt lat="44.911" lon="1.79179">
        <ele>128.1</ele>
        <time>2022-05-24T06:26:36Z</time>
      </trkpt>
      <trkpt lat="44.91096" lon="1.79173">
        <ele>128</ele>
        <time>2022-05-24T06:26:37Z</time>
      </trkpt>
      <trkpt lat="44.91092" lon="1.79166">
        <ele>127.9</ele>
        <time>2022-05-24T06:26:38Z</time>
      </trkpt>
      <trkpt lat="44.91088" lon="1.79158">
        <ele>127.9</ele>
        <time>2022-05-24T06:26:39Z</time>
      </trkpt>
      <trkpt lat="44.91085" lon="1.79151">
        <ele>127.9</ele>
        <time>2022-05-24T06:26:40Z</time>
      </trkpt>
      <trkpt lat="44.91081" lon="1.79145">
        <ele>127.9</ele>
        <time>2022-05-24T06:26:41Z</time>
      </trkpt>
      <trkpt lat="44.91078" lon="1.7914">
        <ele>127.9</ele>
        <time>2022-05-24T06:26:42Z</time>
      </trkpt>
      <trkpt lat="44.91074" lon="1.79134">
        <ele>127.9</ele>
        <time>2022-05-24T06:26:43Z</time>
      </trkpt>
      <trkpt lat="44.91071" lon="1.79127">
        <ele>127.9</ele>
        <time>2022-05-24T06:26:44Z</time>
      </trkpt>
      <trkpt lat="44.91068" lon="1.7912">
        <ele>127.9</ele>
        <time>2022-05-24T06:26:45Z</time>
      </trkpt>
      <trkpt lat="44.91065" lon="1.79113">
        <ele>127.9</ele>
        <time>2022-05-24T06:26:46Z</time>
      </trkpt>
      <trkpt lat="44.91063" lon="1.79107">
        <ele>127.9</ele>
        <time>2022-05-24T06:26:47Z</time>
      </trkpt>
      <trkpt lat="44.9106" lon="1.791">
        <ele>127.9</ele>
        <time>2022-05-24T06:26:48Z</time>
      </trkpt>
      <trkpt lat="44.91058" lon="1.79092">
        <ele>128</ele>
        <time>2022-05-24T06:26:49Z</time>
      </trkpt>
      <trkpt lat="44.91056" lon="1.79085">
        <ele>128</ele>
        <time>2022-05-24T06:26:50Z</time>
      </trkpt>
      <trkpt lat="44.91054" lon="1.79077">
        <ele>128</ele>
        <time>2022-05-24T06:26:51Z</time>
      </trkpt>
      <trkpt lat="44.91051" lon="1.7907">
        <ele>128.1</ele>
        <time>2022-05-24T06:26:52Z</time>
      </trkpt>
      <trkpt lat="44.91048" lon="1.79064">
        <ele>128.1</ele>
        <time>2022-05-24T06:26:53Z</time>
      </trkpt>
      <trkpt lat="44.91045" lon="1.79058">
        <ele>128</ele>
        <time>2022-05-24T06:26:54Z</time>
      </trkpt>
      <trkpt lat="44.91042" lon="1.79053">
        <ele>128</ele>
        <time>2022-05-24T06:26:55Z</time>
      </trkpt>
      <trkpt lat="44.9104" lon="1.79049">
        <ele>128</ele>
        <time>2022-05-24T06:26:56Z</time>
      </trkpt>
      <trkpt lat="44.91037" lon="1.79044">
        <ele>127.9</ele>
        <time>2022-05-24T06:26:57Z</time>
      </trkpt>
      <trkpt lat="44.91035" lon="1.79038">
        <ele>127.8</ele>
        <time>2022-05-24T06:26:58Z</time>
      </trkpt>
      <trkpt lat="44.91033" lon="1.7903">
        <ele>127.5</ele>
        <time>2022-05-24T06:26:59Z</time>
      </trkpt>
      <trkpt lat="44.91032" lon="1.79021">
        <ele>127.2</ele>
        <time>2022-05-24T06:27:00Z</time>
      </trkpt>
      <trkpt lat="44.9103" lon="1.79013">
        <ele>126.9</ele>
        <time>2022-05-24T06:27:01Z</time>
      </trkpt>
      <trkpt lat="44.91028" lon="1.79006">
        <ele>126.7</ele>
        <time>2022-05-24T06:27:02Z</time>
      </trkpt>
      <trkpt lat="44.91025" lon="1.79">
        <ele>126.4</ele>
        <time>2022-05-24T06:27:03Z</time>
      </trkpt>
      <trkpt lat="44.91022" lon="1.78995">
        <ele>126.2</ele>
        <time>2022-05-24T06:27:04Z</time>
      </trkpt>
      <trkpt lat="44.91018" lon="1.78991">
        <ele>126.2</ele>
        <time>2022-05-24T06:27:05Z</time>
      </trkpt>
      <trkpt lat="44.91013" lon="1.78989">
        <ele>126.2</ele>
        <time>2022-05-24T06:27:06Z</time>
      </trkpt>
      <trkpt lat="44.91009" lon="1.7899">
        <ele>126.2</ele>
        <time>2022-05-24T06:27:07Z</time>
      </trkpt>
      <trkpt lat="44.91005" lon="1.78994">
        <ele>126.3</ele>
        <time>2022-05-24T06:27:08Z</time>
      </trkpt>
      <trkpt lat="44.91001" lon="1.78999">
        <ele>126.4</ele>
        <time>2022-05-24T06:27:09Z</time>
      </trkpt>
      <trkpt lat="44.90996" lon="1.79002">
        <ele>126.4</ele>
        <time>2022-05-24T06:27:10Z</time>
      </trkpt>
      <trkpt lat="44.90991" lon="1.79005">
        <ele>126.5</ele>
        <time>2022-05-24T06:27:11Z</time>
      </trkpt>
      <trkpt lat="44.90987" lon="1.79008">
        <ele>126.6</ele>
        <time>2022-05-24T06:27:12Z</time>
      </trkpt>
      <trkpt lat="44.90983" lon="1.79012">
        <ele>126.7</ele>
        <time>2022-05-24T06:27:13Z</time>
      </trkpt>
      <trkpt lat="44.90978" lon="1.79016">
        <ele>126.8</ele>
        <time>2022-05-24T06:27:14Z</time>
      </trkpt>
      <trkpt lat="44.90974" lon="1.7902">
        <ele>126.9</ele>
        <time>2022-05-24T06:27:15Z</time>
      </trkpt>
      <trkpt lat="44.90969" lon="1.79024">
        <ele>127</ele>
        <time>2022-05-24T06:27:16Z</time>
      </trkpt>
      <trkpt lat="44.90964" lon="1.79027">
        <ele>127.1</ele>
        <time>2022-05-24T06:27:17Z</time>
      </trkpt>
      <trkpt lat="44.9096" lon="1.79031">
        <ele>127.2</ele>
        <time>2022-05-24T06:27:18Z</time>
      </trkpt>
      <trkpt lat="44.90955" lon="1.79035">
        <ele>127.3</ele>
        <time>2022-05-24T06:27:19Z</time>
      </trkpt>
      <trkpt lat="44.90951" lon="1.79039">
        <ele>127.4</ele>
        <time>2022-05-24T06:27:20Z</time>
      </trkpt>
      <trkpt lat="44.90946" lon="1.79042">
        <ele>127.4</ele>
        <time>2022-05-24T06:27:21Z</time>
      </trkpt>
      <trkpt lat="44.90942" lon="1.79045">
        <ele>127.5</ele>
        <time>2022-05-24T06:27:22Z</time>
      </trkpt>
      <trkpt lat="44.90937" lon="1.79049">
        <ele>127.6</ele>
        <time>2022-05-24T06:27:23Z</time>
      </trkpt>
      <trkpt lat="44.90933" lon="1.79052">
        <ele>127.7</ele>
        <time>2022-05-24T06:27:24Z</time>
      </trkpt>
      <trkpt lat="44.90927" lon="1.79056">
        <ele>127.8</ele>
        <time>2022-05-24T06:27:25Z</time>
      </trkpt>
      <trkpt lat="44.90922" lon="1.79058">
        <ele>127.8</ele>
        <time>2022-05-24T06:27:26Z</time>
      </trkpt>
      <trkpt lat="44.90917" lon="1.79061">
        <ele>127.9</ele>
        <time>2022-05-24T06:27:27Z</time>
      </trkpt>
      <trkpt lat="44.90912" lon="1.79064">
        <ele>127.9</ele>
        <time>2022-05-24T06:27:28Z</time>
      </trkpt>
      <trkpt lat="44.90906" lon="1.79066">
        <ele>127.9</ele>
        <time>2022-05-24T06:27:29Z</time>
      </trkpt>
      <trkpt lat="44.90901" lon="1.79068">
        <ele>127.8</ele>
        <time>2022-05-24T06:27:30Z</time>
      </trkpt>
      <trkpt lat="44.90895" lon="1.7907">
        <ele>127.8</ele>
        <time>2022-05-24T06:27:31Z</time>
      </trkpt>
      <trkpt lat="44.9089" lon="1.79068">
        <ele>127.8</ele>
        <time>2022-05-24T06:27:32Z</time>
      </trkpt>
      <trkpt lat="44.90884" lon="1.79064">
        <ele>127.7</ele>
        <time>2022-05-24T06:27:33Z</time>
      </trkpt>
      <trkpt lat="44.90878" lon="1.7906">
        <ele>127.7</ele>
        <time>2022-05-24T06:27:34Z</time>
      </trkpt>
      <trkpt lat="44.90873" lon="1.79057">
        <ele>127.6</ele>
        <time>2022-05-24T06:27:35Z</time>
      </trkpt>
      <trkpt lat="44.90867" lon="1.79054">
        <ele>127.6</ele>
        <time>2022-05-24T06:27:36Z</time>
      </trkpt>
      <trkpt lat="44.90861" lon="1.7905">
        <ele>127.5</ele>
        <time>2022-05-24T06:27:37Z</time>
      </trkpt>
      <trkpt lat="44.90855" lon="1.79047">
        <ele>127.5</ele>
        <time>2022-05-24T06:27:38Z</time>
      </trkpt>
      <trkpt lat="44.90849" lon="1.79044">
        <ele>127.5</ele>
        <time>2022-05-24T06:27:39Z</time>
      </trkpt>
      <trkpt lat="44.90843" lon="1.79042">
        <ele>127.5</ele>
        <time>2022-05-24T06:27:40Z</time>
      </trkpt>
      <trkpt lat="44.90838" lon="1.79039">
        <ele>127.4</ele>
        <time>2022-05-24T06:27:41Z</time>
      </trkpt>
      <trkpt lat="44.90832" lon="1.79035">
        <ele>127.4</ele>
        <time>2022-05-24T06:27:42Z</time>
      </trkpt>
      <trkpt lat="44.90826" lon="1.79033">
        <ele>127.3</ele>
        <time>2022-05-24T06:27:43Z</time>
      </trkpt>
      <trkpt lat="44.9082" lon="1.7903">
        <ele>127.2</ele>
        <time>2022-05-24T06:27:44Z</time>
      </trkpt>
      <trkpt lat="44.90815" lon="1.79027">
        <ele>127.1</ele>
        <time>2022-05-24T06:27:45Z</time>
      </trkpt>
      <trkpt lat="44.90809" lon="1.79025">
        <ele>127</ele>
        <time>2022-05-24T06:27:46Z</time>
      </trkpt>
      <trkpt lat="44.90803" lon="1.79022">
        <ele>126.9</ele>
        <time>2022-05-24T06:27:47Z</time>
      </trkpt>
      <trkpt lat="44.90798" lon="1.79018">
        <ele>126.9</ele>
        <time>2022-05-24T06:27:48Z</time>
      </trkpt>
      <trkpt lat="44.90792" lon="1.79015">
        <ele>126.9</ele>
        <time>2022-05-24T06:27:49Z</time>
      </trkpt>
      <trkpt lat="44.90788" lon="1.79011">
        <ele>126.9</ele>
        <time>2022-05-24T06:27:50Z</time>
      </trkpt>
      <trkpt lat="44.90782" lon="1.79007">
        <ele>126.9</ele>
        <time>2022-05-24T06:27:51Z</time>
      </trkpt>
      <trkpt lat="44.90777" lon="1.79003">
        <ele>126.9</ele>
        <time>2022-05-24T06:27:52Z</time>
      </trkpt>
      <trkpt lat="44.90772" lon="1.78998">
        <ele>126.9</ele>
        <time>2022-05-24T06:27:53Z</time>
      </trkpt>
      <trkpt lat="44.90767" lon="1.78993">
        <ele>126.9</ele>
        <time>2022-05-24T06:27:54Z</time>
      </trkpt>
      <trkpt lat="44.90762" lon="1.78987">
        <ele>127</ele>
        <time>2022-05-24T06:27:55Z</time>
      </trkpt>
      <trkpt lat="44.90757" lon="1.78981">
        <ele>127</ele>
        <time>2022-05-24T06:27:56Z</time>
      </trkpt>
      <trkpt lat="44.90752" lon="1.78976">
        <ele>127.1</ele>
        <time>2022-05-24T06:27:57Z</time>
      </trkpt>
      <trkpt lat="44.90747" lon="1.7897">
        <ele>127.1</ele>
        <time>2022-05-24T06:27:58Z</time>
      </trkpt>
      <trkpt lat="44.90742" lon="1.78967">
        <ele>127.2</ele>
        <time>2022-05-24T06:27:59Z</time>
      </trkpt>
      <trkpt lat="44.90737" lon="1.78964">
        <ele>127.3</ele>
        <time>2022-05-24T06:28:00Z</time>
      </trkpt>
      <trkpt lat="44.90731" lon="1.78962">
        <ele>127.3</ele>
        <time>2022-05-24T06:28:01Z</time>
      </trkpt>
      <trkpt lat="44.90725" lon="1.78961">
        <ele>127.4</ele>
        <time>2022-05-24T06:28:02Z</time>
      </trkpt>
      <trkpt lat="44.90714" lon="1.78962">
        <ele>127.5</ele>
        <time>2022-05-24T06:28:04Z</time>
      </trkpt>
      <trkpt lat="44.90708" lon="1.78962">
        <ele>127.6</ele>
        <time>2022-05-24T06:28:05Z</time>
      </trkpt>
      <trkpt lat="44.90703" lon="1.78963">
        <ele>127.7</ele>
        <time>2022-05-24T06:28:06Z</time>
      </trkpt>
      <trkpt lat="44.90698" lon="1.78965">
        <ele>127.7</ele>
        <time>2022-05-24T06:28:07Z</time>
      </trkpt>
      <trkpt lat="44.90692" lon="1.78965">
        <ele>127.8</ele>
        <time>2022-05-24T06:28:08Z</time>
      </trkpt>
      <trkpt lat="44.90686" lon="1.78964">
        <ele>128</ele>
        <time>2022-05-24T06:28:09Z</time>
      </trkpt>
      <trkpt lat="44.9068" lon="1.78964">
        <ele>128.1</ele>
        <time>2022-05-24T06:28:10Z</time>
      </trkpt>
      <trkpt lat="44.90675" lon="1.78965">
        <ele>128.2</ele>
        <time>2022-05-24T06:28:11Z</time>
      </trkpt>
      <trkpt lat="44.90669" lon="1.78967">
        <ele>128.4</ele>
        <time>2022-05-24T06:28:12Z</time>
      </trkpt>
      <trkpt lat="44.90663" lon="1.78968">
        <ele>128.5</ele>
        <time>2022-05-24T06:28:13Z</time>
      </trkpt>
      <trkpt lat="44.90658" lon="1.7897">
        <ele>128.6</ele>
        <time>2022-05-24T06:28:14Z</time>
      </trkpt>
      <trkpt lat="44.90652" lon="1.78971">
        <ele>128.8</ele>
        <time>2022-05-24T06:28:15Z</time>
      </trkpt>
      <trkpt lat="44.90647" lon="1.78972">
        <ele>128.9</ele>
        <time>2022-05-24T06:28:16Z</time>
      </trkpt>
      <trkpt lat="44.90641" lon="1.78973">
        <ele>129</ele>
        <time>2022-05-24T06:28:17Z</time>
      </trkpt>
      <trkpt lat="44.90636" lon="1.78974">
        <ele>129.1</ele>
        <time>2022-05-24T06:28:18Z</time>
      </trkpt>
      <trkpt lat="44.9063" lon="1.78976">
        <ele>129.2</ele>
        <time>2022-05-24T06:28:19Z</time>
      </trkpt>
      <trkpt lat="44.90625" lon="1.7898">
        <ele>129.3</ele>
        <time>2022-05-24T06:28:20Z</time>
      </trkpt>
      <trkpt lat="44.9062" lon="1.78985">
        <ele>129.4</ele>
        <time>2022-05-24T06:28:21Z</time>
      </trkpt>
      <trkpt lat="44.90615" lon="1.78991">
        <ele>129.5</ele>
        <time>2022-05-24T06:28:22Z</time>
      </trkpt>
      <trkpt lat="44.90611" lon="1.78996">
        <ele>129.6</ele>
        <time>2022-05-24T06:28:23Z</time>
      </trkpt>
      <trkpt lat="44.90607" lon="1.79001">
        <ele>129.6</ele>
        <time>2022-05-24T06:28:24Z</time>
      </trkpt>
      <trkpt lat="44.90602" lon="1.79007">
        <ele>129.6</ele>
        <time>2022-05-24T06:28:25Z</time>
      </trkpt>
      <trkpt lat="44.90598" lon="1.79015">
        <ele>129.5</ele>
        <time>2022-05-24T06:28:26Z</time>
      </trkpt>
      <trkpt lat="44.90593" lon="1.79021">
        <ele>129.4</ele>
        <time>2022-05-24T06:28:27Z</time>
      </trkpt>
      <trkpt lat="44.90588" lon="1.79025">
        <ele>129.2</ele>
        <time>2022-05-24T06:28:28Z</time>
      </trkpt>
      <trkpt lat="44.90581" lon="1.79028">
        <ele>129</ele>
        <time>2022-05-24T06:28:29Z</time>
      </trkpt>
      <trkpt lat="44.90574" lon="1.79028">
        <ele>128.8</ele>
        <time>2022-05-24T06:28:30Z</time>
      </trkpt>
      <trkpt lat="44.90568" lon="1.79027">
        <ele>128.6</ele>
        <time>2022-05-24T06:28:31Z</time>
      </trkpt>
      <trkpt lat="44.90563" lon="1.79027">
        <ele>128.5</ele>
        <time>2022-05-24T06:28:32Z</time>
      </trkpt>
      <trkpt lat="44.90558" lon="1.79028">
        <ele>128.5</ele>
        <time>2022-05-24T06:28:33Z</time>
      </trkpt>
      <trkpt lat="44.90554" lon="1.79029">
        <ele>128.6</ele>
        <time>2022-05-24T06:28:34Z</time>
      </trkpt>
      <trkpt lat="44.9055" lon="1.7903">
        <ele>128.6</ele>
        <time>2022-05-24T06:28:35Z</time>
      </trkpt>
      <trkpt lat="44.90545" lon="1.79028">
        <ele>128.7</ele>
        <time>2022-05-24T06:28:36Z</time>
      </trkpt>
      <trkpt lat="44.90541" lon="1.79024">
        <ele>128.8</ele>
        <time>2022-05-24T06:28:37Z</time>
      </trkpt>
      <trkpt lat="44.90538" lon="1.79017">
        <ele>128.7</ele>
        <time>2022-05-24T06:28:38Z</time>
      </trkpt>
      <trkpt lat="44.90538" lon="1.7901">
        <ele>128.7</ele>
        <time>2022-05-24T06:28:39Z</time>
      </trkpt>
      <trkpt lat="44.90539" lon="1.79003">
        <ele>128.6</ele>
        <time>2022-05-24T06:28:40Z</time>
      </trkpt>
      <trkpt lat="44.9054" lon="1.78996">
        <ele>128.6</ele>
        <time>2022-05-24T06:28:41Z</time>
      </trkpt>
      <trkpt lat="44.90539" lon="1.78988">
        <ele>128.7</ele>
        <time>2022-05-24T06:28:42Z</time>
      </trkpt>
      <trkpt lat="44.90539" lon="1.7898">
        <ele>128.7</ele>
        <time>2022-05-24T06:28:43Z</time>
      </trkpt>
      <trkpt lat="44.90539" lon="1.78973">
        <ele>128.7</ele>
        <time>2022-05-24T06:28:44Z</time>
      </trkpt>
      <trkpt lat="44.90538" lon="1.78964">
        <ele>128.7</ele>
        <time>2022-05-24T06:28:45Z</time>
      </trkpt>
      <trkpt lat="44.90537" lon="1.78956">
        <ele>128.7</ele>
        <time>2022-05-24T06:28:46Z</time>
      </trkpt>
      <trkpt lat="44.90536" lon="1.7895">
        <ele>128.7</ele>
        <time>2022-05-24T06:28:47Z</time>
      </trkpt>
      <trkpt lat="44.90535" lon="1.78943">
        <ele>128.7</ele>
        <time>2022-05-24T06:28:48Z</time>
      </trkpt>
      <trkpt lat="44.90533" lon="1.78936">
        <ele>128.6</ele>
        <time>2022-05-24T06:28:49Z</time>
      </trkpt>
      <trkpt lat="44.90532" lon="1.78929">
        <ele>128.6</ele>
        <time>2022-05-24T06:28:50Z</time>
      </trkpt>
      <trkpt lat="44.90531" lon="1.78923">
        <ele>128.6</ele>
        <time>2022-05-24T06:28:51Z</time>
      </trkpt>
      <trkpt lat="44.9053" lon="1.78916">
        <ele>128.5</ele>
        <time>2022-05-24T06:28:52Z</time>
      </trkpt>
      <trkpt lat="44.90528" lon="1.78911">
        <ele>128.5</ele>
        <time>2022-05-24T06:28:53Z</time>
      </trkpt>
      <trkpt lat="44.90526" lon="1.78905">
        <ele>128.5</ele>
        <time>2022-05-24T06:28:54Z</time>
      </trkpt>
      <trkpt lat="44.90524" lon="1.78897">
        <ele>128.4</ele>
        <time>2022-05-24T06:28:55Z</time>
      </trkpt>
      <trkpt lat="44.90522" lon="1.78891">
        <ele>128.4</ele>
        <time>2022-05-24T06:28:56Z</time>
      </trkpt>
      <trkpt lat="44.9052" lon="1.78884">
        <ele>128.4</ele>
        <time>2022-05-24T06:28:57Z</time>
      </trkpt>
      <trkpt lat="44.90517" lon="1.78877">
        <ele>128.4</ele>
        <time>2022-05-24T06:28:58Z</time>
      </trkpt>
      <trkpt lat="44.90515" lon="1.78872">
        <ele>128.4</ele>
        <time>2022-05-24T06:28:59Z</time>
      </trkpt>
      <trkpt lat="44.90512" lon="1.78867">
        <ele>128.4</ele>
        <time>2022-05-24T06:29:00Z</time>
      </trkpt>
      <trkpt lat="44.9051" lon="1.7886">
        <ele>128.4</ele>
        <time>2022-05-24T06:29:01Z</time>
      </trkpt>
      <trkpt lat="44.90507" lon="1.78855">
        <ele>128.3</ele>
        <time>2022-05-24T06:29:02Z</time>
      </trkpt>
      <trkpt lat="44.90503" lon="1.7885">
        <ele>128.3</ele>
        <time>2022-05-24T06:29:03Z</time>
      </trkpt>
      <trkpt lat="44.90499" lon="1.78845">
        <ele>128.3</ele>
        <time>2022-05-24T06:29:04Z</time>
      </trkpt>
      <trkpt lat="44.90495" lon="1.78839">
        <ele>128.2</ele>
        <time>2022-05-24T06:29:05Z</time>
      </trkpt>
      <trkpt lat="44.90491" lon="1.78833">
        <ele>128.2</ele>
        <time>2022-05-24T06:29:06Z</time>
      </trkpt>
      <trkpt lat="44.90488" lon="1.78827">
        <ele>128.2</ele>
        <time>2022-05-24T06:29:07Z</time>
      </trkpt>
      <trkpt lat="44.90485" lon="1.78822">
        <ele>128.2</ele>
        <time>2022-05-24T06:29:08Z</time>
      </trkpt>
      <trkpt lat="44.90481" lon="1.78817">
        <ele>128.2</ele>
        <time>2022-05-24T06:29:09Z</time>
      </trkpt>
      <trkpt lat="44.90477" lon="1.78812">
        <ele>128.2</ele>
        <time>2022-05-24T06:29:10Z</time>
      </trkpt>
      <trkpt lat="44.90473" lon="1.78808">
        <ele>128.2</ele>
        <time>2022-05-24T06:29:11Z</time>
      </trkpt>
      <trkpt lat="44.9047" lon="1.78804">
        <ele>128.2</ele>
        <time>2022-05-24T06:29:12Z</time>
      </trkpt>
      <trkpt lat="44.90466" lon="1.78801">
        <ele>128.3</ele>
        <time>2022-05-24T06:29:13Z</time>
      </trkpt>
      <trkpt lat="44.90462" lon="1.78799">
        <ele>128.3</ele>
        <time>2022-05-24T06:29:14Z</time>
      </trkpt>
      <trkpt lat="44.90458" lon="1.78793">
        <ele>128.3</ele>
        <time>2022-05-24T06:29:15Z</time>
      </trkpt>
      <trkpt lat="44.90452" lon="1.78787">
        <ele>128.3</ele>
        <time>2022-05-24T06:29:16Z</time>
      </trkpt>
      <trkpt lat="44.90449" lon="1.7878">
        <ele>128.3</ele>
        <time>2022-05-24T06:29:17Z</time>
      </trkpt>
      <trkpt lat="44.90446" lon="1.78774">
        <ele>128.2</ele>
        <time>2022-05-24T06:29:18Z</time>
      </trkpt>
      <trkpt lat="44.90444" lon="1.78767">
        <ele>128.2</ele>
        <time>2022-05-24T06:29:19Z</time>
      </trkpt>
      <trkpt lat="44.90442" lon="1.7876">
        <ele>128.1</ele>
        <time>2022-05-24T06:29:20Z</time>
      </trkpt>
      <trkpt lat="44.90439" lon="1.78753">
        <ele>128.1</ele>
        <time>2022-05-24T06:29:21Z</time>
      </trkpt>
      <trkpt lat="44.90436" lon="1.78746">
        <ele>127.9</ele>
        <time>2022-05-24T06:29:22Z</time>
      </trkpt>
      <trkpt lat="44.90434" lon="1.78739">
        <ele>127.8</ele>
        <time>2022-05-24T06:29:23Z</time>
      </trkpt>
      <trkpt lat="44.9043" lon="1.78732">
        <ele>127.7</ele>
        <time>2022-05-24T06:29:24Z</time>
      </trkpt>
      <trkpt lat="44.90427" lon="1.78725">
        <ele>127.7</ele>
        <time>2022-05-24T06:29:25Z</time>
      </trkpt>
      <trkpt lat="44.90425" lon="1.78717">
        <ele>127.6</ele>
        <time>2022-05-24T06:29:26Z</time>
      </trkpt>
      <trkpt lat="44.90422" lon="1.78709">
        <ele>127.5</ele>
        <time>2022-05-24T06:29:27Z</time>
      </trkpt>
      <trkpt lat="44.9042" lon="1.78701">
        <ele>127.5</ele>
        <time>2022-05-24T06:29:28Z</time>
      </trkpt>
      <trkpt lat="44.90417" lon="1.78694">
        <ele>127.4</ele>
        <time>2022-05-24T06:29:29Z</time>
      </trkpt>
      <trkpt lat="44.90415" lon="1.78688">
        <ele>127.3</ele>
        <time>2022-05-24T06:29:30Z</time>
      </trkpt>
      <trkpt lat="44.90413" lon="1.78682">
        <ele>127.2</ele>
        <time>2022-05-24T06:29:31Z</time>
      </trkpt>
      <trkpt lat="44.9041" lon="1.78674">
        <ele>127.2</ele>
        <time>2022-05-24T06:29:32Z</time>
      </trkpt>
      <trkpt lat="44.90409" lon="1.78666">
        <ele>127.1</ele>
        <time>2022-05-24T06:29:33Z</time>
      </trkpt>
      <trkpt lat="44.90407" lon="1.78658">
        <ele>127.1</ele>
        <time>2022-05-24T06:29:34Z</time>
      </trkpt>
      <trkpt lat="44.90406" lon="1.78651">
        <ele>127</ele>
        <time>2022-05-24T06:29:35Z</time>
      </trkpt>
      <trkpt lat="44.90403" lon="1.78644">
        <ele>127</ele>
        <time>2022-05-24T06:29:36Z</time>
      </trkpt>
      <trkpt lat="44.90401" lon="1.78638">
        <ele>127</ele>
        <time>2022-05-24T06:29:37Z</time>
      </trkpt>
      <trkpt lat="44.90399" lon="1.7863">
        <ele>126.9</ele>
        <time>2022-05-24T06:29:38Z</time>
      </trkpt>
      <trkpt lat="44.90398" lon="1.78623">
        <ele>126.9</ele>
        <time>2022-05-24T06:29:39Z</time>
      </trkpt>
      <trkpt lat="44.90398" lon="1.78615">
        <ele>126.8</ele>
        <time>2022-05-24T06:29:40Z</time>
      </trkpt>
      <trkpt lat="44.90398" lon="1.78609">
        <ele>126.8</ele>
        <time>2022-05-24T06:29:41Z</time>
      </trkpt>
      <trkpt lat="44.90398" lon="1.78603">
        <ele>126.8</ele>
        <time>2022-05-24T06:29:42Z</time>
      </trkpt>
      <trkpt lat="44.90398" lon="1.78597">
        <ele>126.8</ele>
        <time>2022-05-24T06:29:43Z</time>
      </trkpt>
      <trkpt lat="44.90398" lon="1.78591">
        <ele>126.8</ele>
        <time>2022-05-24T06:29:44Z</time>
      </trkpt>
      <trkpt lat="44.90398" lon="1.78585">
        <ele>126.8</ele>
        <time>2022-05-24T06:29:45Z</time>
      </trkpt>
      <trkpt lat="44.90398" lon="1.78579">
        <ele>126.7</ele>
        <time>2022-05-24T06:29:46Z</time>
      </trkpt>
      <trkpt lat="44.90398" lon="1.78573">
        <ele>126.7</ele>
        <time>2022-05-24T06:29:47Z</time>
      </trkpt>
      <trkpt lat="44.90398" lon="1.78566">
        <ele>126.7</ele>
        <time>2022-05-24T06:29:48Z</time>
      </trkpt>
      <trkpt lat="44.90397" lon="1.78559">
        <ele>126.6</ele>
        <time>2022-05-24T06:29:49Z</time>
      </trkpt>
      <trkpt lat="44.90397" lon="1.78552">
        <ele>126.6</ele>
        <time>2022-05-24T06:29:50Z</time>
      </trkpt>
      <trkpt lat="44.90397" lon="1.78545">
        <ele>126.5</ele>
        <time>2022-05-24T06:29:51Z</time>
      </trkpt>
      <trkpt lat="44.90398" lon="1.78537">
        <ele>126.5</ele>
        <time>2022-05-24T06:29:52Z</time>
      </trkpt>
      <trkpt lat="44.90399" lon="1.78531">
        <ele>126.4</ele>
        <time>2022-05-24T06:29:53Z</time>
      </trkpt>
      <trkpt lat="44.904" lon="1.78524">
        <ele>126.4</ele>
        <time>2022-05-24T06:29:54Z</time>
      </trkpt>
      <trkpt lat="44.90399" lon="1.78517">
        <ele>126.3</ele>
        <time>2022-05-24T06:29:55Z</time>
      </trkpt>
      <trkpt lat="44.90399" lon="1.78511">
        <ele>126.3</ele>
        <time>2022-05-24T06:29:56Z</time>
      </trkpt>
      <trkpt lat="44.904" lon="1.78505">
        <ele>126.4</ele>
        <time>2022-05-24T06:29:57Z</time>
      </trkpt>
      <trkpt lat="44.90401" lon="1.78499">
        <ele>126.4</ele>
        <time>2022-05-24T06:29:58Z</time>
      </trkpt>
      <trkpt lat="44.90402" lon="1.78493">
        <ele>126.4</ele>
        <time>2022-05-24T06:29:59Z</time>
      </trkpt>
      <trkpt lat="44.90403" lon="1.78487">
        <ele>126.4</ele>
        <time>2022-05-24T06:30:00Z</time>
      </trkpt>
      <trkpt lat="44.90403" lon="1.7848">
        <ele>126.4</ele>
        <time>2022-05-24T06:30:01Z</time>
      </trkpt>
      <trkpt lat="44.90404" lon="1.78473">
        <ele>126.3</ele>
        <time>2022-05-24T06:30:02Z</time>
      </trkpt>
      <trkpt lat="44.90405" lon="1.78466">
        <ele>126.3</ele>
        <time>2022-05-24T06:30:03Z</time>
      </trkpt>
      <trkpt lat="44.90406" lon="1.78459">
        <ele>126.3</ele>
        <time>2022-05-24T06:30:04Z</time>
      </trkpt>
      <trkpt lat="44.90407" lon="1.78453">
        <ele>126.3</ele>
        <time>2022-05-24T06:30:05Z</time>
      </trkpt>
      <trkpt lat="44.90408" lon="1.78446">
        <ele>126.3</ele>
        <time>2022-05-24T06:30:06Z</time>
      </trkpt>
      <trkpt lat="44.9041" lon="1.78439">
        <ele>126.2</ele>
        <time>2022-05-24T06:30:07Z</time>
      </trkpt>
      <trkpt lat="44.90411" lon="1.78432">
        <ele>126.2</ele>
        <time>2022-05-24T06:30:08Z</time>
      </trkpt>
      <trkpt lat="44.90413" lon="1.78425">
        <ele>126.2</ele>
        <time>2022-05-24T06:30:09Z</time>
      </trkpt>
      <trkpt lat="44.90414" lon="1.78418">
        <ele>126.2</ele>
        <time>2022-05-24T06:30:10Z</time>
      </trkpt>
      <trkpt lat="44.90414" lon="1.78411">
        <ele>126.2</ele>
        <time>2022-05-24T06:30:11Z</time>
      </trkpt>
      <trkpt lat="44.90415" lon="1.78403">
        <ele>126.2</ele>
        <time>2022-05-24T06:30:12Z</time>
      </trkpt>
      <trkpt lat="44.90416" lon="1.78396">
        <ele>126.2</ele>
        <time>2022-05-24T06:30:13Z</time>
      </trkpt>
      <trkpt lat="44.90416" lon="1.78388">
        <ele>126.2</ele>
        <time>2022-05-24T06:30:14Z</time>
      </trkpt>
      <trkpt lat="44.90417" lon="1.78381">
        <ele>126.2</ele>
        <time>2022-05-24T06:30:15Z</time>
      </trkpt>
      <trkpt lat="44.90417" lon="1.78374">
        <ele>126.3</ele>
        <time>2022-05-24T06:30:16Z</time>
      </trkpt>
      <trkpt lat="44.90418" lon="1.78366">
        <ele>126.3</ele>
        <time>2022-05-24T06:30:17Z</time>
      </trkpt>
      <trkpt lat="44.90418" lon="1.78359">
        <ele>126.4</ele>
        <time>2022-05-24T06:30:18Z</time>
      </trkpt>
      <trkpt lat="44.90419" lon="1.78351">
        <ele>126.4</ele>
        <time>2022-05-24T06:30:19Z</time>
      </trkpt>
      <trkpt lat="44.90419" lon="1.78344">
        <ele>126.5</ele>
        <time>2022-05-24T06:30:20Z</time>
      </trkpt>
      <trkpt lat="44.9042" lon="1.78338">
        <ele>126.5</ele>
        <time>2022-05-24T06:30:21Z</time>
      </trkpt>
      <trkpt lat="44.9042" lon="1.78332">
        <ele>126.6</ele>
        <time>2022-05-24T06:30:22Z</time>
      </trkpt>
      <trkpt lat="44.90421" lon="1.78325">
        <ele>126.6</ele>
        <time>2022-05-24T06:30:23Z</time>
      </trkpt>
      <trkpt lat="44.90421" lon="1.78318">
        <ele>126.6</ele>
        <time>2022-05-24T06:30:24Z</time>
      </trkpt>
      <trkpt lat="44.90421" lon="1.78312">
        <ele>126.6</ele>
        <time>2022-05-24T06:30:25Z</time>
      </trkpt>
      <trkpt lat="44.90421" lon="1.78305">
        <ele>126.6</ele>
        <time>2022-05-24T06:30:26Z</time>
      </trkpt>
      <trkpt lat="44.9042" lon="1.78299">
        <ele>126.6</ele>
        <time>2022-05-24T06:30:27Z</time>
      </trkpt>
      <trkpt lat="44.9042" lon="1.78292">
        <ele>126.5</ele>
        <time>2022-05-24T06:30:28Z</time>
      </trkpt>
      <trkpt lat="44.9042" lon="1.78285">
        <ele>126.5</ele>
        <time>2022-05-24T06:30:29Z</time>
      </trkpt>
      <trkpt lat="44.90419" lon="1.78279">
        <ele>126.5</ele>
        <time>2022-05-24T06:30:30Z</time>
      </trkpt>
      <trkpt lat="44.90419" lon="1.78272">
        <ele>126.5</ele>
        <time>2022-05-24T06:30:31Z</time>
      </trkpt>
      <trkpt lat="44.90419" lon="1.78266">
        <ele>126.5</ele>
        <time>2022-05-24T06:30:32Z</time>
      </trkpt>
      <trkpt lat="44.90419" lon="1.7826">
        <ele>126.5</ele>
        <time>2022-05-24T06:30:33Z</time>
      </trkpt>
      <trkpt lat="44.90419" lon="1.78253">
        <ele>126.5</ele>
        <time>2022-05-24T06:30:34Z</time>
      </trkpt>
      <trkpt lat="44.90419" lon="1.78247">
        <ele>126.5</ele>
        <time>2022-05-24T06:30:35Z</time>
      </trkpt>
      <trkpt lat="44.90418" lon="1.78241">
        <ele>126.5</ele>
        <time>2022-05-24T06:30:36Z</time>
      </trkpt>
      <trkpt lat="44.90418" lon="1.78235">
        <ele>126.5</ele>
        <time>2022-05-24T06:30:37Z</time>
      </trkpt>
      <trkpt lat="44.90418" lon="1.78228">
        <ele>126.6</ele>
        <time>2022-05-24T06:30:38Z</time>
      </trkpt>
      <trkpt lat="44.90418" lon="1.78222">
        <ele>126.6</ele>
        <time>2022-05-24T06:30:39Z</time>
      </trkpt>
      <trkpt lat="44.90417" lon="1.78215">
        <ele>126.6</ele>
        <time>2022-05-24T06:30:40Z</time>
      </trkpt>
      <trkpt lat="44.90417" lon="1.78208">
        <ele>126.7</ele>
        <time>2022-05-24T06:30:41Z</time>
      </trkpt>
      <trkpt lat="44.90417" lon="1.78201">
        <ele>126.7</ele>
        <time>2022-05-24T06:30:42Z</time>
      </trkpt>
      <trkpt lat="44.90417" lon="1.78195">
        <ele>126.7</ele>
        <time>2022-05-24T06:30:43Z</time>
      </trkpt>
      <trkpt lat="44.90417" lon="1.78188">
        <ele>126.8</ele>
        <time>2022-05-24T06:30:44Z</time>
      </trkpt>
      <trkpt lat="44.90417" lon="1.78182">
        <ele>126.8</ele>
        <time>2022-05-24T06:30:45Z</time>
      </trkpt>
      <trkpt lat="44.90416" lon="1.78175">
        <ele>126.8</ele>
        <time>2022-05-24T06:30:46Z</time>
      </trkpt>
      <trkpt lat="44.90417" lon="1.78169">
        <ele>126.8</ele>
        <time>2022-05-24T06:30:47Z</time>
      </trkpt>
      <trkpt lat="44.90418" lon="1.78163">
        <ele>126.8</ele>
        <time>2022-05-24T06:30:48Z</time>
      </trkpt>
      <trkpt lat="44.90418" lon="1.78156">
        <ele>126.8</ele>
        <time>2022-05-24T06:30:49Z</time>
      </trkpt>
      <trkpt lat="44.90418" lon="1.7815">
        <ele>126.8</ele>
        <time>2022-05-24T06:30:50Z</time>
      </trkpt>
      <trkpt lat="44.90419" lon="1.78144">
        <ele>126.7</ele>
        <time>2022-05-24T06:30:51Z</time>
      </trkpt>
      <trkpt lat="44.90419" lon="1.78138">
        <ele>126.7</ele>
        <time>2022-05-24T06:30:52Z</time>
      </trkpt>
      <trkpt lat="44.9042" lon="1.78132">
        <ele>126.7</ele>
        <time>2022-05-24T06:30:53Z</time>
      </trkpt>
      <trkpt lat="44.9042" lon="1.78125">
        <ele>126.7</ele>
        <time>2022-05-24T06:30:54Z</time>
      </trkpt>
      <trkpt lat="44.9042" lon="1.78118">
        <ele>126.7</ele>
        <time>2022-05-24T06:30:55Z</time>
      </trkpt>
      <trkpt lat="44.9042" lon="1.78112">
        <ele>126.7</ele>
        <time>2022-05-24T06:30:56Z</time>
      </trkpt>
      <trkpt lat="44.90421" lon="1.78104">
        <ele>126.7</ele>
        <time>2022-05-24T06:30:57Z</time>
      </trkpt>
      <trkpt lat="44.90423" lon="1.78098">
        <ele>126.7</ele>
        <time>2022-05-24T06:30:58Z</time>
      </trkpt>
      <trkpt lat="44.90425" lon="1.78091">
        <ele>126.6</ele>
        <time>2022-05-24T06:30:59Z</time>
      </trkpt>
      <trkpt lat="44.90426" lon="1.78084">
        <ele>126.6</ele>
        <time>2022-05-24T06:31:00Z</time>
      </trkpt>
      <trkpt lat="44.90425" lon="1.78077">
        <ele>126.6</ele>
        <time>2022-05-24T06:31:01Z</time>
      </trkpt>
      <trkpt lat="44.90424" lon="1.7807">
        <ele>126.5</ele>
        <time>2022-05-24T06:31:02Z</time>
      </trkpt>
      <trkpt lat="44.90424" lon="1.78062">
        <ele>126.5</ele>
        <time>2022-05-24T06:31:03Z</time>
      </trkpt>
      <trkpt lat="44.90423" lon="1.78055">
        <ele>126.5</ele>
        <time>2022-05-24T06:31:04Z</time>
      </trkpt>
      <trkpt lat="44.90422" lon="1.78048">
        <ele>126.5</ele>
        <time>2022-05-24T06:31:05Z</time>
      </trkpt>
      <trkpt lat="44.90421" lon="1.78041">
        <ele>126.5</ele>
        <time>2022-05-24T06:31:06Z</time>
      </trkpt>
      <trkpt lat="44.90419" lon="1.78034">
        <ele>126.5</ele>
        <time>2022-05-24T06:31:07Z</time>
      </trkpt>
      <trkpt lat="44.90418" lon="1.78027">
        <ele>126.4</ele>
        <time>2022-05-24T06:31:08Z</time>
      </trkpt>
      <trkpt lat="44.90416" lon="1.7802">
        <ele>126.4</ele>
        <time>2022-05-24T06:31:09Z</time>
      </trkpt>
      <trkpt lat="44.90415" lon="1.78013">
        <ele>126.4</ele>
        <time>2022-05-24T06:31:10Z</time>
      </trkpt>
      <trkpt lat="44.90414" lon="1.78006">
        <ele>126.4</ele>
        <time>2022-05-24T06:31:11Z</time>
      </trkpt>
      <trkpt lat="44.90412" lon="1.77998">
        <ele>126.3</ele>
        <time>2022-05-24T06:31:12Z</time>
      </trkpt>
      <trkpt lat="44.9041" lon="1.77991">
        <ele>126.3</ele>
        <time>2022-05-24T06:31:13Z</time>
      </trkpt>
      <trkpt lat="44.90409" lon="1.77983">
        <ele>126.3</ele>
        <time>2022-05-24T06:31:14Z</time>
      </trkpt>
      <trkpt lat="44.90408" lon="1.77975">
        <ele>126.2</ele>
        <time>2022-05-24T06:31:15Z</time>
      </trkpt>
      <trkpt lat="44.90406" lon="1.77967">
        <ele>126.2</ele>
        <time>2022-05-24T06:31:16Z</time>
      </trkpt>
      <trkpt lat="44.90405" lon="1.77961">
        <ele>126.2</ele>
        <time>2022-05-24T06:31:17Z</time>
      </trkpt>
      <trkpt lat="44.90403" lon="1.77953">
        <ele>126.2</ele>
        <time>2022-05-24T06:31:18Z</time>
      </trkpt>
      <trkpt lat="44.90401" lon="1.77946">
        <ele>126.2</ele>
        <time>2022-05-24T06:31:19Z</time>
      </trkpt>
      <trkpt lat="44.90398" lon="1.77939">
        <ele>126.2</ele>
        <time>2022-05-24T06:31:20Z</time>
      </trkpt>
      <trkpt lat="44.90396" lon="1.77932">
        <ele>126.2</ele>
        <time>2022-05-24T06:31:21Z</time>
      </trkpt>
      <trkpt lat="44.90395" lon="1.77925">
        <ele>126.2</ele>
        <time>2022-05-24T06:31:22Z</time>
      </trkpt>
      <trkpt lat="44.90392" lon="1.77918">
        <ele>126.2</ele>
        <time>2022-05-24T06:31:23Z</time>
      </trkpt>
      <trkpt lat="44.90391" lon="1.77912">
        <ele>126.1</ele>
        <time>2022-05-24T06:31:24Z</time>
      </trkpt>
      <trkpt lat="44.90389" lon="1.77903">
        <ele>126.1</ele>
        <time>2022-05-24T06:31:25Z</time>
      </trkpt>
      <trkpt lat="44.90388" lon="1.77896">
        <ele>126</ele>
        <time>2022-05-24T06:31:26Z</time>
      </trkpt>
      <trkpt lat="44.90386" lon="1.77889">
        <ele>126</ele>
        <time>2022-05-24T06:31:27Z</time>
      </trkpt>
      <trkpt lat="44.90385" lon="1.77882">
        <ele>125.9</ele>
        <time>2022-05-24T06:31:28Z</time>
      </trkpt>
      <trkpt lat="44.90384" lon="1.77876">
        <ele>125.9</ele>
        <time>2022-05-24T06:31:29Z</time>
      </trkpt>
      <trkpt lat="44.90383" lon="1.77869">
        <ele>125.9</ele>
        <time>2022-05-24T06:31:30Z</time>
      </trkpt>
      <trkpt lat="44.90383" lon="1.77863">
        <ele>125.8</ele>
        <time>2022-05-24T06:31:31Z</time>
      </trkpt>
      <trkpt lat="44.90382" lon="1.77854">
        <ele>125.8</ele>
        <time>2022-05-24T06:31:32Z</time>
      </trkpt>
      <trkpt lat="44.90382" lon="1.77845">
        <ele>125.7</ele>
        <time>2022-05-24T06:31:33Z</time>
      </trkpt>
      <trkpt lat="44.90381" lon="1.77837">
        <ele>125.8</ele>
        <time>2022-05-24T06:31:34Z</time>
      </trkpt>
      <trkpt lat="44.90381" lon="1.77827">
        <ele>125.8</ele>
        <time>2022-05-24T06:31:35Z</time>
      </trkpt>
      <trkpt lat="44.90381" lon="1.77819">
        <ele>125.9</ele>
        <time>2022-05-24T06:31:36Z</time>
      </trkpt>
      <trkpt lat="44.90379" lon="1.77811">
        <ele>126</ele>
        <time>2022-05-24T06:31:37Z</time>
      </trkpt>
      <trkpt lat="44.90378" lon="1.77804">
        <ele>126</ele>
        <time>2022-05-24T06:31:38Z</time>
      </trkpt>
      <trkpt lat="44.90377" lon="1.77796">
        <ele>126.1</ele>
        <time>2022-05-24T06:31:39Z</time>
      </trkpt>
      <trkpt lat="44.90377" lon="1.77789">
        <ele>126.1</ele>
        <time>2022-05-24T06:31:40Z</time>
      </trkpt>
      <trkpt lat="44.90375" lon="1.77782">
        <ele>126.1</ele>
        <time>2022-05-24T06:31:41Z</time>
      </trkpt>
      <trkpt lat="44.90373" lon="1.77775">
        <ele>126</ele>
        <time>2022-05-24T06:31:42Z</time>
      </trkpt>
      <trkpt lat="44.90371" lon="1.7777">
        <ele>126</ele>
        <time>2022-05-24T06:31:43Z</time>
      </trkpt>
      <trkpt lat="44.90368" lon="1.77765">
        <ele>125.9</ele>
        <time>2022-05-24T06:31:44Z</time>
      </trkpt>
      <trkpt lat="44.90365" lon="1.77762">
        <ele>125.9</ele>
        <time>2022-05-24T06:31:45Z</time>
      </trkpt>
      <trkpt lat="44.90366" lon="1.77758">
        <ele>125.8</ele>
        <time>2022-05-24T06:31:46Z</time>
      </trkpt>
      <trkpt lat="44.90367" lon="1.77756">
        <ele>125.8</ele>
        <time>2022-05-24T06:31:47Z</time>
      </trkpt>
      <trkpt lat="44.90371" lon="1.77754">
        <ele>125.8</ele>
        <time>2022-05-24T06:31:48Z</time>
      </trkpt>
      <trkpt lat="44.90374" lon="1.77749">
        <ele>125.7</ele>
        <time>2022-05-24T06:31:49Z</time>
      </trkpt>
      <trkpt lat="44.90377" lon="1.77743">
        <ele>125.7</ele>
        <time>2022-05-24T06:31:50Z</time>
      </trkpt>
      <trkpt lat="44.9038" lon="1.77737">
        <ele>125.6</ele>
        <time>2022-05-24T06:31:51Z</time>
      </trkpt>
      <trkpt lat="44.90383" lon="1.77732">
        <ele>125.5</ele>
        <time>2022-05-24T06:31:52Z</time>
      </trkpt>
      <trkpt lat="44.90385" lon="1.77727">
        <ele>125.5</ele>
        <time>2022-05-24T06:31:53Z</time>
      </trkpt>
      <trkpt lat="44.90385" lon="1.7772">
        <ele>125.4</ele>
        <time>2022-05-24T06:31:54Z</time>
      </trkpt>
      <trkpt lat="44.90385" lon="1.77714">
        <ele>125.4</ele>
        <time>2022-05-24T06:31:55Z</time>
      </trkpt>
      <trkpt lat="44.90384" lon="1.77708">
        <ele>125.4</ele>
        <time>2022-05-24T06:31:56Z</time>
      </trkpt>
      <trkpt lat="44.90383" lon="1.77702">
        <ele>125.4</ele>
        <time>2022-05-24T06:31:57Z</time>
      </trkpt>
      <trkpt lat="44.90382" lon="1.77696">
        <ele>125.4</ele>
        <time>2022-05-24T06:31:58Z</time>
      </trkpt>
      <trkpt lat="44.90381" lon="1.77689">
        <ele>125.5</ele>
        <time>2022-05-24T06:31:59Z</time>
      </trkpt>
      <trkpt lat="44.90381" lon="1.77683">
        <ele>125.5</ele>
        <time>2022-05-24T06:32:00Z</time>
      </trkpt>
      <trkpt lat="44.90381" lon="1.77677">
        <ele>125.6</ele>
        <time>2022-05-24T06:32:01Z</time>
      </trkpt>
      <trkpt lat="44.90382" lon="1.77672">
        <ele>125.6</ele>
        <time>2022-05-24T06:32:02Z</time>
      </trkpt>
      <trkpt lat="44.90384" lon="1.77666">
        <ele>125.7</ele>
        <time>2022-05-24T06:32:03Z</time>
      </trkpt>
      <trkpt lat="44.90385" lon="1.77658">
        <ele>125.7</ele>
        <time>2022-05-24T06:32:04Z</time>
      </trkpt>
      <trkpt lat="44.90387" lon="1.77653">
        <ele>125.7</ele>
        <time>2022-05-24T06:32:05Z</time>
      </trkpt>
      <trkpt lat="44.90388" lon="1.77646">
        <ele>125.6</ele>
        <time>2022-05-24T06:32:06Z</time>
      </trkpt>
      <trkpt lat="44.9039" lon="1.7764">
        <ele>125.6</ele>
        <time>2022-05-24T06:32:07Z</time>
      </trkpt>
      <trkpt lat="44.90392" lon="1.77635">
        <ele>125.6</ele>
        <time>2022-05-24T06:32:08Z</time>
      </trkpt>
      <trkpt lat="44.90395" lon="1.77631">
        <ele>125.6</ele>
        <time>2022-05-24T06:32:09Z</time>
      </trkpt>
      <trkpt lat="44.90399" lon="1.77629">
        <ele>125.5</ele>
        <time>2022-05-24T06:32:10Z</time>
      </trkpt>
      <trkpt lat="44.90403" lon="1.77628">
        <ele>125.5</ele>
        <time>2022-05-24T06:32:11Z</time>
      </trkpt>
      <trkpt lat="44.90407" lon="1.77628">
        <ele>125.5</ele>
        <time>2022-05-24T06:32:12Z</time>
      </trkpt>
      <trkpt lat="44.90411" lon="1.77629">
        <ele>125.5</ele>
        <time>2022-05-24T06:32:13Z</time>
      </trkpt>
      <trkpt lat="44.90415" lon="1.77629">
        <ele>125.4</ele>
        <time>2022-05-24T06:32:14Z</time>
      </trkpt>
      <trkpt lat="44.90419" lon="1.77628">
        <ele>125.4</ele>
        <time>2022-05-24T06:32:15Z</time>
      </trkpt>
      <trkpt lat="44.90424" lon="1.77629">
        <ele>125.4</ele>
        <time>2022-05-24T06:32:16Z</time>
      </trkpt>
      <trkpt lat="44.90429" lon="1.77628">
        <ele>125.4</ele>
        <time>2022-05-24T06:32:17Z</time>
      </trkpt>
      <trkpt lat="44.90434" lon="1.77628">
        <ele>125.4</ele>
        <time>2022-05-24T06:32:18Z</time>
      </trkpt>
      <trkpt lat="44.9044" lon="1.77629">
        <ele>125.3</ele>
        <time>2022-05-24T06:32:19Z</time>
      </trkpt>
      <trkpt lat="44.90445" lon="1.77629">
        <ele>125.3</ele>
        <time>2022-05-24T06:32:20Z</time>
      </trkpt>
      <trkpt lat="44.9045" lon="1.77627">
        <ele>125.3</ele>
        <time>2022-05-24T06:32:21Z</time>
      </trkpt>
      <trkpt lat="44.90455" lon="1.77625">
        <ele>125.3</ele>
        <time>2022-05-24T06:32:22Z</time>
      </trkpt>
      <trkpt lat="44.90461" lon="1.77624">
        <ele>125.2</ele>
        <time>2022-05-24T06:32:23Z</time>
      </trkpt>
      <trkpt lat="44.90466" lon="1.77623">
        <ele>125.2</ele>
        <time>2022-05-24T06:32:24Z</time>
      </trkpt>
      <trkpt lat="44.9047" lon="1.77622">
        <ele>125.2</ele>
        <time>2022-05-24T06:32:25Z</time>
      </trkpt>
      <trkpt lat="44.90475" lon="1.77621">
        <ele>125.2</ele>
        <time>2022-05-24T06:32:26Z</time>
      </trkpt>
      <trkpt lat="44.90479" lon="1.7762">
        <ele>125.2</ele>
        <time>2022-05-24T06:32:27Z</time>
      </trkpt>
      <trkpt lat="44.90483" lon="1.77621">
        <ele>125.1</ele>
        <time>2022-05-24T06:32:28Z</time>
      </trkpt>
      <trkpt lat="44.90487" lon="1.7762">
        <ele>125.1</ele>
        <time>2022-05-24T06:32:29Z</time>
      </trkpt>
      <trkpt lat="44.90492" lon="1.7762">
        <ele>125</ele>
        <time>2022-05-24T06:32:30Z</time>
      </trkpt>
      <trkpt lat="44.90497" lon="1.77618">
        <ele>124.9</ele>
        <time>2022-05-24T06:32:31Z</time>
      </trkpt>
      <trkpt lat="44.90502" lon="1.77617">
        <ele>125</ele>
        <time>2022-05-24T06:32:32Z</time>
      </trkpt>
      <trkpt lat="44.90507" lon="1.77616">
        <ele>125</ele>
        <time>2022-05-24T06:32:33Z</time>
      </trkpt>
      <trkpt lat="44.90512" lon="1.77614">
        <ele>125</ele>
        <time>2022-05-24T06:32:34Z</time>
      </trkpt>
      <trkpt lat="44.90516" lon="1.77612">
        <ele>125</ele>
        <time>2022-05-24T06:32:35Z</time>
      </trkpt>
      <trkpt lat="44.9052" lon="1.7761">
        <ele>125.1</ele>
        <time>2022-05-24T06:32:36Z</time>
      </trkpt>
      <trkpt lat="44.90526" lon="1.77609">
        <ele>125.1</ele>
        <time>2022-05-24T06:32:37Z</time>
      </trkpt>
      <trkpt lat="44.90531" lon="1.77608">
        <ele>125.1</ele>
        <time>2022-05-24T06:32:38Z</time>
      </trkpt>
      <trkpt lat="44.90535" lon="1.77607">
        <ele>125.2</ele>
        <time>2022-05-24T06:32:39Z</time>
      </trkpt>
      <trkpt lat="44.9054" lon="1.77606">
        <ele>125.2</ele>
        <time>2022-05-24T06:32:40Z</time>
      </trkpt>
      <trkpt lat="44.90544" lon="1.77604">
        <ele>125.3</ele>
        <time>2022-05-24T06:32:41Z</time>
      </trkpt>
      <trkpt lat="44.90549" lon="1.77603">
        <ele>125.4</ele>
        <time>2022-05-24T06:32:42Z</time>
      </trkpt>
      <trkpt lat="44.90554" lon="1.77602">
        <ele>125.5</ele>
        <time>2022-05-24T06:32:43Z</time>
      </trkpt>
      <trkpt lat="44.90558" lon="1.77602">
        <ele>125.6</ele>
        <time>2022-05-24T06:32:44Z</time>
      </trkpt>
      <trkpt lat="44.90562" lon="1.77602">
        <ele>125.7</ele>
        <time>2022-05-24T06:32:45Z</time>
      </trkpt>
      <trkpt lat="44.90565" lon="1.77599">
        <ele>125.8</ele>
        <time>2022-05-24T06:32:46Z</time>
      </trkpt>
      <trkpt lat="44.90569" lon="1.77599">
        <ele>126</ele>
        <time>2022-05-24T06:32:47Z</time>
      </trkpt>
      <trkpt lat="44.90573" lon="1.77599">
        <ele>126.2</ele>
        <time>2022-05-24T06:32:48Z</time>
      </trkpt>
      <trkpt lat="44.90577" lon="1.77598">
        <ele>126.3</ele>
        <time>2022-05-24T06:32:49Z</time>
      </trkpt>
      <trkpt lat="44.90581" lon="1.77596">
        <ele>126.5</ele>
        <time>2022-05-24T06:32:50Z</time>
      </trkpt>
      <trkpt lat="44.90585" lon="1.77594">
        <ele>126.7</ele>
        <time>2022-05-24T06:32:51Z</time>
      </trkpt>
      <trkpt lat="44.90587" lon="1.77589">
        <ele>126.8</ele>
        <time>2022-05-24T06:32:52Z</time>
      </trkpt>
      <trkpt lat="44.9059" lon="1.77583">
        <ele>127</ele>
        <time>2022-05-24T06:32:53Z</time>
      </trkpt>
      <trkpt lat="44.90593" lon="1.77579">
        <ele>127.1</ele>
        <time>2022-05-24T06:32:54Z</time>
      </trkpt>
      <trkpt lat="44.90598" lon="1.77576">
        <ele>127.2</ele>
        <time>2022-05-24T06:32:55Z</time>
      </trkpt>
      <trkpt lat="44.90602" lon="1.77571">
        <ele>127.3</ele>
        <time>2022-05-24T06:32:56Z</time>
      </trkpt>
      <trkpt lat="44.90605" lon="1.77565">
        <ele>127.3</ele>
        <time>2022-05-24T06:32:57Z</time>
      </trkpt>
      <trkpt lat="44.90609" lon="1.7756">
        <ele>127.3</ele>
        <time>2022-05-24T06:32:58Z</time>
      </trkpt>
      <trkpt lat="44.90611" lon="1.77552">
        <ele>127.4</ele>
        <time>2022-05-24T06:32:59Z</time>
      </trkpt>
      <trkpt lat="44.90614" lon="1.77544">
        <ele>127.4</ele>
        <time>2022-05-24T06:33:00Z</time>
      </trkpt>
      <trkpt lat="44.90616" lon="1.77537">
        <ele>127.4</ele>
        <time>2022-05-24T06:33:01Z</time>
      </trkpt>
      <trkpt lat="44.90619" lon="1.77531">
        <ele>127.4</ele>
        <time>2022-05-24T06:33:02Z</time>
      </trkpt>
      <trkpt lat="44.90622" lon="1.77525">
        <ele>127.4</ele>
        <time>2022-05-24T06:33:03Z</time>
      </trkpt>
      <trkpt lat="44.90625" lon="1.77519">
        <ele>127.4</ele>
        <time>2022-05-24T06:33:04Z</time>
      </trkpt>
      <trkpt lat="44.90628" lon="1.77512">
        <ele>127.5</ele>
        <time>2022-05-24T06:33:05Z</time>
      </trkpt>
      <trkpt lat="44.9063" lon="1.77506">
        <ele>127.5</ele>
        <time>2022-05-24T06:33:06Z</time>
      </trkpt>
      <trkpt lat="44.90633" lon="1.77499">
        <ele>127.5</ele>
        <time>2022-05-24T06:33:07Z</time>
      </trkpt>
      <trkpt lat="44.90635" lon="1.77494">
        <ele>127.5</ele>
        <time>2022-05-24T06:33:08Z</time>
      </trkpt>
      <trkpt lat="44.90638" lon="1.77488">
        <ele>127.5</ele>
        <time>2022-05-24T06:33:09Z</time>
      </trkpt>
      <trkpt lat="44.9064" lon="1.77483">
        <ele>127.5</ele>
        <time>2022-05-24T06:33:10Z</time>
      </trkpt>
      <trkpt lat="44.90643" lon="1.77477">
        <ele>127.5</ele>
        <time>2022-05-24T06:33:11Z</time>
      </trkpt>
      <trkpt lat="44.90644" lon="1.77471">
        <ele>127.5</ele>
        <time>2022-05-24T06:33:12Z</time>
      </trkpt>
      <trkpt lat="44.90646" lon="1.77464">
        <ele>127.5</ele>
        <time>2022-05-24T06:33:13Z</time>
      </trkpt>
      <trkpt lat="44.90649" lon="1.77458">
        <ele>127.5</ele>
        <time>2022-05-24T06:33:14Z</time>
      </trkpt>
      <trkpt lat="44.90653" lon="1.77452">
        <ele>127.5</ele>
        <time>2022-05-24T06:33:15Z</time>
      </trkpt>
      <trkpt lat="44.90656" lon="1.77446">
        <ele>127.5</ele>
        <time>2022-05-24T06:33:16Z</time>
      </trkpt>
      <trkpt lat="44.90658" lon="1.77439">
        <ele>127.4</ele>
        <time>2022-05-24T06:33:17Z</time>
      </trkpt>
      <trkpt lat="44.90661" lon="1.77431">
        <ele>127.4</ele>
        <time>2022-05-24T06:33:18Z</time>
      </trkpt>
      <trkpt lat="44.90662" lon="1.77424">
        <ele>127.4</ele>
        <time>2022-05-24T06:33:19Z</time>
      </trkpt>
      <trkpt lat="44.90664" lon="1.77417">
        <ele>127.4</ele>
        <time>2022-05-24T06:33:20Z</time>
      </trkpt>
      <trkpt lat="44.90666" lon="1.77408">
        <ele>127.4</ele>
        <time>2022-05-24T06:33:21Z</time>
      </trkpt>
      <trkpt lat="44.90668" lon="1.77401">
        <ele>127.3</ele>
        <time>2022-05-24T06:33:22Z</time>
      </trkpt>
      <trkpt lat="44.90669" lon="1.77393">
        <ele>127.3</ele>
        <time>2022-05-24T06:33:23Z</time>
      </trkpt>
      <trkpt lat="44.90671" lon="1.77386">
        <ele>127.3</ele>
        <time>2022-05-24T06:33:24Z</time>
      </trkpt>
      <trkpt lat="44.90673" lon="1.77379">
        <ele>127.2</ele>
        <time>2022-05-24T06:33:25Z</time>
      </trkpt>
      <trkpt lat="44.90673" lon="1.77371">
        <ele>127.2</ele>
        <time>2022-05-24T06:33:26Z</time>
      </trkpt>
      <trkpt lat="44.90673" lon="1.77362">
        <ele>127.2</ele>
        <time>2022-05-24T06:33:27Z</time>
      </trkpt>
      <trkpt lat="44.90675" lon="1.77355">
        <ele>127.1</ele>
        <time>2022-05-24T06:33:28Z</time>
      </trkpt>
      <trkpt lat="44.90677" lon="1.77348">
        <ele>127.1</ele>
        <time>2022-05-24T06:33:29Z</time>
      </trkpt>
      <trkpt lat="44.90678" lon="1.77341">
        <ele>127.1</ele>
        <time>2022-05-24T06:33:30Z</time>
      </trkpt>
      <trkpt lat="44.9068" lon="1.77334">
        <ele>127.1</ele>
        <time>2022-05-24T06:33:31Z</time>
      </trkpt>
      <trkpt lat="44.90682" lon="1.77326">
        <ele>127</ele>
        <time>2022-05-24T06:33:32Z</time>
      </trkpt>
      <trkpt lat="44.90684" lon="1.77319">
        <ele>127</ele>
        <time>2022-05-24T06:33:33Z</time>
      </trkpt>
      <trkpt lat="44.90685" lon="1.77312">
        <ele>127</ele>
        <time>2022-05-24T06:33:34Z</time>
      </trkpt>
      <trkpt lat="44.90687" lon="1.77304">
        <ele>127</ele>
        <time>2022-05-24T06:33:35Z</time>
      </trkpt>
      <trkpt lat="44.90688" lon="1.77297">
        <ele>127</ele>
        <time>2022-05-24T06:33:36Z</time>
      </trkpt>
      <trkpt lat="44.9069" lon="1.7729">
        <ele>127</ele>
        <time>2022-05-24T06:33:37Z</time>
      </trkpt>
      <trkpt lat="44.90694" lon="1.77284">
        <ele>127</ele>
        <time>2022-05-24T06:33:38Z</time>
      </trkpt>
      <trkpt lat="44.90696" lon="1.77279">
        <ele>127</ele>
        <time>2022-05-24T06:33:39Z</time>
      </trkpt>
      <trkpt lat="44.907" lon="1.77273">
        <ele>127</ele>
        <time>2022-05-24T06:33:40Z</time>
      </trkpt>
      <trkpt lat="44.90703" lon="1.77269">
        <ele>127</ele>
        <time>2022-05-24T06:33:41Z</time>
      </trkpt>
      <trkpt lat="44.90707" lon="1.77265">
        <ele>126.9</ele>
        <time>2022-05-24T06:33:42Z</time>
      </trkpt>
      <trkpt lat="44.90711" lon="1.7726">
        <ele>126.9</ele>
        <time>2022-05-24T06:33:43Z</time>
      </trkpt>
      <trkpt lat="44.90715" lon="1.77255">
        <ele>126.9</ele>
        <time>2022-05-24T06:33:44Z</time>
      </trkpt>
      <trkpt lat="44.90719" lon="1.7725">
        <ele>126.9</ele>
        <time>2022-05-24T06:33:45Z</time>
      </trkpt>
      <trkpt lat="44.90723" lon="1.77245">
        <ele>126.9</ele>
        <time>2022-05-24T06:33:46Z</time>
      </trkpt>
      <trkpt lat="44.90727" lon="1.77241">
        <ele>126.8</ele>
        <time>2022-05-24T06:33:47Z</time>
      </trkpt>
      <trkpt lat="44.90731" lon="1.77235">
        <ele>126.8</ele>
        <time>2022-05-24T06:33:48Z</time>
      </trkpt>
      <trkpt lat="44.90734" lon="1.77229">
        <ele>126.8</ele>
        <time>2022-05-24T06:33:49Z</time>
      </trkpt>
      <trkpt lat="44.90738" lon="1.77224">
        <ele>126.8</ele>
        <time>2022-05-24T06:33:50Z</time>
      </trkpt>
      <trkpt lat="44.90742" lon="1.77218">
        <ele>126.8</ele>
        <time>2022-05-24T06:33:51Z</time>
      </trkpt>
      <trkpt lat="44.90745" lon="1.77212">
        <ele>126.8</ele>
        <time>2022-05-24T06:33:52Z</time>
      </trkpt>
      <trkpt lat="44.90749" lon="1.77207">
        <ele>126.8</ele>
        <time>2022-05-24T06:33:53Z</time>
      </trkpt>
      <trkpt lat="44.90752" lon="1.77201">
        <ele>126.8</ele>
        <time>2022-05-24T06:33:54Z</time>
      </trkpt>
      <trkpt lat="44.90756" lon="1.77196">
        <ele>126.8</ele>
        <time>2022-05-24T06:33:55Z</time>
      </trkpt>
      <trkpt lat="44.9076" lon="1.77191">
        <ele>126.8</ele>
        <time>2022-05-24T06:33:56Z</time>
      </trkpt>
      <trkpt lat="44.90764" lon="1.77185">
        <ele>126.8</ele>
        <time>2022-05-24T06:33:57Z</time>
      </trkpt>
      <trkpt lat="44.90768" lon="1.77179">
        <ele>126.8</ele>
        <time>2022-05-24T06:33:58Z</time>
      </trkpt>
      <trkpt lat="44.90772" lon="1.77173">
        <ele>126.8</ele>
        <time>2022-05-24T06:33:59Z</time>
      </trkpt>
      <trkpt lat="44.90775" lon="1.77167">
        <ele>126.8</ele>
        <time>2022-05-24T06:34:00Z</time>
      </trkpt>
      <trkpt lat="44.90778" lon="1.77161">
        <ele>126.8</ele>
        <time>2022-05-24T06:34:01Z</time>
      </trkpt>
      <trkpt lat="44.90781" lon="1.77155">
        <ele>126.8</ele>
        <time>2022-05-24T06:34:02Z</time>
      </trkpt>
      <trkpt lat="44.90784" lon="1.77148">
        <ele>126.8</ele>
        <time>2022-05-24T06:34:03Z</time>
      </trkpt>
      <trkpt lat="44.90786" lon="1.77141">
        <ele>126.7</ele>
        <time>2022-05-24T06:34:04Z</time>
      </trkpt>
      <trkpt lat="44.90787" lon="1.77133">
        <ele>126.8</ele>
        <time>2022-05-24T06:34:05Z</time>
      </trkpt>
      <trkpt lat="44.90787" lon="1.77125">
        <ele>126.8</ele>
        <time>2022-05-24T06:34:06Z</time>
      </trkpt>
      <trkpt lat="44.90786" lon="1.77117">
        <ele>126.8</ele>
        <time>2022-05-24T06:34:07Z</time>
      </trkpt>
      <trkpt lat="44.90785" lon="1.77109">
        <ele>126.8</ele>
        <time>2022-05-24T06:34:08Z</time>
      </trkpt>
      <trkpt lat="44.90784" lon="1.77101">
        <ele>126.8</ele>
        <time>2022-05-24T06:34:09Z</time>
      </trkpt>
      <trkpt lat="44.90784" lon="1.77093">
        <ele>126.7</ele>
        <time>2022-05-24T06:34:10Z</time>
      </trkpt>
      <trkpt lat="44.90783" lon="1.77085">
        <ele>126.7</ele>
        <time>2022-05-24T06:34:11Z</time>
      </trkpt>
      <trkpt lat="44.90782" lon="1.77077">
        <ele>126.7</ele>
        <time>2022-05-24T06:34:12Z</time>
      </trkpt>
      <trkpt lat="44.90779" lon="1.77052">
        <ele>126.6</ele>
        <time>2022-05-24T06:34:17Z</time>
      </trkpt>
      <trkpt lat="44.90778" lon="1.77038">
        <ele>126.6</ele>
        <time>2022-05-24T06:34:18Z</time>
      </trkpt>
      <trkpt lat="44.90776" lon="1.77023">
        <ele>126.6</ele>
        <time>2022-05-24T06:34:19Z</time>
      </trkpt>
      <trkpt lat="44.90775" lon="1.77014">
        <ele>126.6</ele>
        <time>2022-05-24T06:34:20Z</time>
      </trkpt>
      <trkpt lat="44.90774" lon="1.77005">
        <ele>126.6</ele>
        <time>2022-05-24T06:34:21Z</time>
      </trkpt>
      <trkpt lat="44.90773" lon="1.76997">
        <ele>126.6</ele>
        <time>2022-05-24T06:34:22Z</time>
      </trkpt>
      <trkpt lat="44.90772" lon="1.76988">
        <ele>126.6</ele>
        <time>2022-05-24T06:34:23Z</time>
      </trkpt>
      <trkpt lat="44.9077" lon="1.7698">
        <ele>126.6</ele>
        <time>2022-05-24T06:34:24Z</time>
      </trkpt>
      <trkpt lat="44.90769" lon="1.76972">
        <ele>126.5</ele>
        <time>2022-05-24T06:34:25Z</time>
      </trkpt>
      <trkpt lat="44.90769" lon="1.76964">
        <ele>126.5</ele>
        <time>2022-05-24T06:34:26Z</time>
      </trkpt>
      <trkpt lat="44.90769" lon="1.76956">
        <ele>126.5</ele>
        <time>2022-05-24T06:34:27Z</time>
      </trkpt>
      <trkpt lat="44.90769" lon="1.76948">
        <ele>126.5</ele>
        <time>2022-05-24T06:34:28Z</time>
      </trkpt>
      <trkpt lat="44.90769" lon="1.76939">
        <ele>126.5</ele>
        <time>2022-05-24T06:34:29Z</time>
      </trkpt>
      <trkpt lat="44.9077" lon="1.76931">
        <ele>126.5</ele>
        <time>2022-05-24T06:34:30Z</time>
      </trkpt>
      <trkpt lat="44.9077" lon="1.76923">
        <ele>126.5</ele>
        <time>2022-05-24T06:34:31Z</time>
      </trkpt>
      <trkpt lat="44.90771" lon="1.76915">
        <ele>126.5</ele>
        <time>2022-05-24T06:34:32Z</time>
      </trkpt>
      <trkpt lat="44.90772" lon="1.76907">
        <ele>126.4</ele>
        <time>2022-05-24T06:34:33Z</time>
      </trkpt>
      <trkpt lat="44.90774" lon="1.76899">
        <ele>126.4</ele>
        <time>2022-05-24T06:34:34Z</time>
      </trkpt>
      <trkpt lat="44.90776" lon="1.76892">
        <ele>126.4</ele>
        <time>2022-05-24T06:34:35Z</time>
      </trkpt>
      <trkpt lat="44.90778" lon="1.76884">
        <ele>126.3</ele>
        <time>2022-05-24T06:34:36Z</time>
      </trkpt>
      <trkpt lat="44.9078" lon="1.76876">
        <ele>126.3</ele>
        <time>2022-05-24T06:34:37Z</time>
      </trkpt>
      <trkpt lat="44.90781" lon="1.76869">
        <ele>126.3</ele>
        <time>2022-05-24T06:34:38Z</time>
      </trkpt>
      <trkpt lat="44.90783" lon="1.76861">
        <ele>126.3</ele>
        <time>2022-05-24T06:34:39Z</time>
      </trkpt>
      <trkpt lat="44.90784" lon="1.76853">
        <ele>126.3</ele>
        <time>2022-05-24T06:34:40Z</time>
      </trkpt>
      <trkpt lat="44.90785" lon="1.76845">
        <ele>126.3</ele>
        <time>2022-05-24T06:34:41Z</time>
      </trkpt>
      <trkpt lat="44.90786" lon="1.76837">
        <ele>126.3</ele>
        <time>2022-05-24T06:34:42Z</time>
      </trkpt>
      <trkpt lat="44.90787" lon="1.76829">
        <ele>126.3</ele>
        <time>2022-05-24T06:34:43Z</time>
      </trkpt>
      <trkpt lat="44.90788" lon="1.76821">
        <ele>126.3</ele>
        <time>2022-05-24T06:34:44Z</time>
      </trkpt>
      <trkpt lat="44.90789" lon="1.76813">
        <ele>126.3</ele>
        <time>2022-05-24T06:34:45Z</time>
      </trkpt>
      <trkpt lat="44.9079" lon="1.76805">
        <ele>126.3</ele>
        <time>2022-05-24T06:34:46Z</time>
      </trkpt>
      <trkpt lat="44.9079" lon="1.76797">
        <ele>126.3</ele>
        <time>2022-05-24T06:34:47Z</time>
      </trkpt>
      <trkpt lat="44.90791" lon="1.76789">
        <ele>126.3</ele>
        <time>2022-05-24T06:34:48Z</time>
      </trkpt>
      <trkpt lat="44.90792" lon="1.76781">
        <ele>126.2</ele>
        <time>2022-05-24T06:34:49Z</time>
      </trkpt>
      <trkpt lat="44.90793" lon="1.76774">
        <ele>126.2</ele>
        <time>2022-05-24T06:34:50Z</time>
      </trkpt>
      <trkpt lat="44.90793" lon="1.76766">
        <ele>126.2</ele>
        <time>2022-05-24T06:34:51Z</time>
      </trkpt>
      <trkpt lat="44.90794" lon="1.76758">
        <ele>126.2</ele>
        <time>2022-05-24T06:34:52Z</time>
      </trkpt>
      <trkpt lat="44.90794" lon="1.76751">
        <ele>126.2</ele>
        <time>2022-05-24T06:34:53Z</time>
      </trkpt>
      <trkpt lat="44.90795" lon="1.76743">
        <ele>126.1</ele>
        <time>2022-05-24T06:34:54Z</time>
      </trkpt>
      <trkpt lat="44.90795" lon="1.76735">
        <ele>126.1</ele>
        <time>2022-05-24T06:34:55Z</time>
      </trkpt>
      <trkpt lat="44.90796" lon="1.76727">
        <ele>126.1</ele>
        <time>2022-05-24T06:34:56Z</time>
      </trkpt>
      <trkpt lat="44.90797" lon="1.76718">
        <ele>126.1</ele>
        <time>2022-05-24T06:34:57Z</time>
      </trkpt>
      <trkpt lat="44.90798" lon="1.7671">
        <ele>126.1</ele>
        <time>2022-05-24T06:34:58Z</time>
      </trkpt>
      <trkpt lat="44.90798" lon="1.76702">
        <ele>126.1</ele>
        <time>2022-05-24T06:34:59Z</time>
      </trkpt>
      <trkpt lat="44.90798" lon="1.76694">
        <ele>126</ele>
        <time>2022-05-24T06:35:00Z</time>
      </trkpt>
      <trkpt lat="44.90799" lon="1.76686">
        <ele>126</ele>
        <time>2022-05-24T06:35:01Z</time>
      </trkpt>
      <trkpt lat="44.90799" lon="1.76678">
        <ele>126</ele>
        <time>2022-05-24T06:35:02Z</time>
      </trkpt>
      <trkpt lat="44.908" lon="1.7667">
        <ele>126</ele>
        <time>2022-05-24T06:35:03Z</time>
      </trkpt>
      <trkpt lat="44.908" lon="1.76662">
        <ele>126</ele>
        <time>2022-05-24T06:35:04Z</time>
      </trkpt>
      <trkpt lat="44.908" lon="1.76655">
        <ele>126.1</ele>
        <time>2022-05-24T06:35:05Z</time>
      </trkpt>
      <trkpt lat="44.908" lon="1.76647">
        <ele>126.1</ele>
        <time>2022-05-24T06:35:06Z</time>
      </trkpt>
      <trkpt lat="44.908" lon="1.76639">
        <ele>126.1</ele>
        <time>2022-05-24T06:35:07Z</time>
      </trkpt>
      <trkpt lat="44.908" lon="1.76631">
        <ele>126.1</ele>
        <time>2022-05-24T06:35:08Z</time>
      </trkpt>
      <trkpt lat="44.90799" lon="1.76626">
        <ele>126</ele>
        <time>2022-05-24T06:35:09Z</time>
      </trkpt>
      <trkpt lat="44.90798" lon="1.76618">
        <ele>126</ele>
        <time>2022-05-24T06:35:10Z</time>
      </trkpt>
      <trkpt lat="44.90798" lon="1.76611">
        <ele>125.9</ele>
        <time>2022-05-24T06:35:11Z</time>
      </trkpt>
      <trkpt lat="44.90801" lon="1.76607">
        <ele>125.9</ele>
        <time>2022-05-24T06:35:12Z</time>
      </trkpt>
      <trkpt lat="44.90805" lon="1.76604">
        <ele>125.9</ele>
        <time>2022-05-24T06:35:13Z</time>
      </trkpt>
      <trkpt lat="44.90811" lon="1.76603">
        <ele>126</ele>
        <time>2022-05-24T06:35:14Z</time>
      </trkpt>
      <trkpt lat="44.90817" lon="1.76603">
        <ele>126.1</ele>
        <time>2022-05-24T06:35:15Z</time>
      </trkpt>
      <trkpt lat="44.90823" lon="1.76604">
        <ele>126.2</ele>
        <time>2022-05-24T06:35:16Z</time>
      </trkpt>
      <trkpt lat="44.90828" lon="1.76605">
        <ele>126.3</ele>
        <time>2022-05-24T06:35:17Z</time>
      </trkpt>
      <trkpt lat="44.90833" lon="1.76606">
        <ele>126.4</ele>
        <time>2022-05-24T06:35:18Z</time>
      </trkpt>
      <trkpt lat="44.90838" lon="1.76607">
        <ele>126.5</ele>
        <time>2022-05-24T06:35:19Z</time>
      </trkpt>
      <trkpt lat="44.90845" lon="1.76609">
        <ele>126.6</ele>
        <time>2022-05-24T06:35:20Z</time>
      </trkpt>
      <trkpt lat="44.9085" lon="1.7661">
        <ele>126.7</ele>
        <time>2022-05-24T06:35:21Z</time>
      </trkpt>
      <trkpt lat="44.90855" lon="1.7661">
        <ele>126.7</ele>
        <time>2022-05-24T06:35:22Z</time>
      </trkpt>
      <trkpt lat="44.90862" lon="1.76611">
        <ele>126.8</ele>
        <time>2022-05-24T06:35:23Z</time>
      </trkpt>
      <trkpt lat="44.90868" lon="1.76611">
        <ele>126.9</ele>
        <time>2022-05-24T06:35:24Z</time>
      </trkpt>
      <trkpt lat="44.90874" lon="1.76611">
        <ele>126.9</ele>
        <time>2022-05-24T06:35:25Z</time>
      </trkpt>
      <trkpt lat="44.9088" lon="1.76612">
        <ele>127</ele>
        <time>2022-05-24T06:35:26Z</time>
      </trkpt>
      <trkpt lat="44.90886" lon="1.76612">
        <ele>127.1</ele>
        <time>2022-05-24T06:35:27Z</time>
      </trkpt>
      <trkpt lat="44.90892" lon="1.76613">
        <ele>127.2</ele>
        <time>2022-05-24T06:35:28Z</time>
      </trkpt>
      <trkpt lat="44.90897" lon="1.76613">
        <ele>127.2</ele>
        <time>2022-05-24T06:35:29Z</time>
      </trkpt>
      <trkpt lat="44.90903" lon="1.76613">
        <ele>127.3</ele>
        <time>2022-05-24T06:35:30Z</time>
      </trkpt>
      <trkpt lat="44.90909" lon="1.76614">
        <ele>127.4</ele>
        <time>2022-05-24T06:35:31Z</time>
      </trkpt>
      <trkpt lat="44.90915" lon="1.76615">
        <ele>127.4</ele>
        <time>2022-05-24T06:35:32Z</time>
      </trkpt>
      <trkpt lat="44.9092" lon="1.76615">
        <ele>127.4</ele>
        <time>2022-05-24T06:35:33Z</time>
      </trkpt>
      <trkpt lat="44.90926" lon="1.76615">
        <ele>127.4</ele>
        <time>2022-05-24T06:35:34Z</time>
      </trkpt>
      <trkpt lat="44.90931" lon="1.76614">
        <ele>127.4</ele>
        <time>2022-05-24T06:35:35Z</time>
      </trkpt>
      <trkpt lat="44.90937" lon="1.76615">
        <ele>127.4</ele>
        <time>2022-05-24T06:35:36Z</time>
      </trkpt>
      <trkpt lat="44.90943" lon="1.76617">
        <ele>127.3</ele>
        <time>2022-05-24T06:35:37Z</time>
      </trkpt>
      <trkpt lat="44.90949" lon="1.76617">
        <ele>127.3</ele>
        <time>2022-05-24T06:35:38Z</time>
      </trkpt>
      <trkpt lat="44.90954" lon="1.76619">
        <ele>127.2</ele>
        <time>2022-05-24T06:35:39Z</time>
      </trkpt>
      <trkpt lat="44.90959" lon="1.7662">
        <ele>127.1</ele>
        <time>2022-05-24T06:35:40Z</time>
      </trkpt>
      <trkpt lat="44.90964" lon="1.76621">
        <ele>127.1</ele>
        <time>2022-05-24T06:35:41Z</time>
      </trkpt>
      <trkpt lat="44.9097" lon="1.76624">
        <ele>127.1</ele>
        <time>2022-05-24T06:35:42Z</time>
      </trkpt>
      <trkpt lat="44.90974" lon="1.76623">
        <ele>127.1</ele>
        <time>2022-05-24T06:35:43Z</time>
      </trkpt>
      <trkpt lat="44.90979" lon="1.76619">
        <ele>127.1</ele>
        <time>2022-05-24T06:35:44Z</time>
      </trkpt>
      <trkpt lat="44.90981" lon="1.76611">
        <ele>127.1</ele>
        <time>2022-05-24T06:35:45Z</time>
      </trkpt>
      <trkpt lat="44.90984" lon="1.76603">
        <ele>127.1</ele>
        <time>2022-05-24T06:35:46Z</time>
      </trkpt>
      <trkpt lat="44.90986" lon="1.76596">
        <ele>127.1</ele>
        <time>2022-05-24T06:35:47Z</time>
      </trkpt>
      <trkpt lat="44.90988" lon="1.76588">
        <ele>127.2</ele>
        <time>2022-05-24T06:35:48Z</time>
      </trkpt>
      <trkpt lat="44.90991" lon="1.7658">
        <ele>127.2</ele>
        <time>2022-05-24T06:35:49Z</time>
      </trkpt>
      <trkpt lat="44.90994" lon="1.76573">
        <ele>127.2</ele>
        <time>2022-05-24T06:35:50Z</time>
      </trkpt>
      <trkpt lat="44.91004" lon="1.7655">
        <ele>127.2</ele>
        <time>2022-05-24T06:35:55Z</time>
      </trkpt>
      <trkpt lat="44.91009" lon="1.76537">
        <ele>127.3</ele>
        <time>2022-05-24T06:35:56Z</time>
      </trkpt>
      <trkpt lat="44.91015" lon="1.76524">
        <ele>127.3</ele>
        <time>2022-05-24T06:35:57Z</time>
      </trkpt>
      <trkpt lat="44.91018" lon="1.76516">
        <ele>127.3</ele>
        <time>2022-05-24T06:35:58Z</time>
      </trkpt>
      <trkpt lat="44.91021" lon="1.76508">
        <ele>127.3</ele>
        <time>2022-05-24T06:35:59Z</time>
      </trkpt>
      <trkpt lat="44.91024" lon="1.76502">
        <ele>127.3</ele>
        <time>2022-05-24T06:36:00Z</time>
      </trkpt>
      <trkpt lat="44.91027" lon="1.76496">
        <ele>127.3</ele>
        <time>2022-05-24T06:36:01Z</time>
      </trkpt>
      <trkpt lat="44.9103" lon="1.76489">
        <ele>127.3</ele>
        <time>2022-05-24T06:36:02Z</time>
      </trkpt>
      <trkpt lat="44.91033" lon="1.76482">
        <ele>127.3</ele>
        <time>2022-05-24T06:36:03Z</time>
      </trkpt>
      <trkpt lat="44.91036" lon="1.76474">
        <ele>127.3</ele>
        <time>2022-05-24T06:36:04Z</time>
      </trkpt>
      <trkpt lat="44.91038" lon="1.76466">
        <ele>127.3</ele>
        <time>2022-05-24T06:36:05Z</time>
      </trkpt>
      <trkpt lat="44.91041" lon="1.76459">
        <ele>127.3</ele>
        <time>2022-05-24T06:36:06Z</time>
      </trkpt>
      <trkpt lat="44.91043" lon="1.76451">
        <ele>127.2</ele>
        <time>2022-05-24T06:36:07Z</time>
      </trkpt>
      <trkpt lat="44.91046" lon="1.76443">
        <ele>127.2</ele>
        <time>2022-05-24T06:36:08Z</time>
      </trkpt>
      <trkpt lat="44.91049" lon="1.76435">
        <ele>127.2</ele>
        <time>2022-05-24T06:36:09Z</time>
      </trkpt>
      <trkpt lat="44.91051" lon="1.76427">
        <ele>127.2</ele>
        <time>2022-05-24T06:36:10Z</time>
      </trkpt>
      <trkpt lat="44.91054" lon="1.7642">
        <ele>127.2</ele>
        <time>2022-05-24T06:36:11Z</time>
      </trkpt>
      <trkpt lat="44.91056" lon="1.76412">
        <ele>127.2</ele>
        <time>2022-05-24T06:36:12Z</time>
      </trkpt>
      <trkpt lat="44.91058" lon="1.76405">
        <ele>127.1</ele>
        <time>2022-05-24T06:36:13Z</time>
      </trkpt>
      <trkpt lat="44.91061" lon="1.76397">
        <ele>127.1</ele>
        <time>2022-05-24T06:36:14Z</time>
      </trkpt>
      <trkpt lat="44.91063" lon="1.76389">
        <ele>127.1</ele>
        <time>2022-05-24T06:36:15Z</time>
      </trkpt>
      <trkpt lat="44.91065" lon="1.76381">
        <ele>127</ele>
        <time>2022-05-24T06:36:16Z</time>
      </trkpt>
      <trkpt lat="44.91067" lon="1.76373">
        <ele>127</ele>
        <time>2022-05-24T06:36:17Z</time>
      </trkpt>
      <trkpt lat="44.9107" lon="1.76365">
        <ele>126.9</ele>
        <time>2022-05-24T06:36:18Z</time>
      </trkpt>
      <trkpt lat="44.91072" lon="1.76356">
        <ele>126.9</ele>
        <time>2022-05-24T06:36:19Z</time>
      </trkpt>
      <trkpt lat="44.91074" lon="1.76348">
        <ele>126.8</ele>
        <time>2022-05-24T06:36:20Z</time>
      </trkpt>
      <trkpt lat="44.91076" lon="1.7634">
        <ele>126.8</ele>
        <time>2022-05-24T06:36:21Z</time>
      </trkpt>
      <trkpt lat="44.91078" lon="1.76333">
        <ele>126.7</ele>
        <time>2022-05-24T06:36:22Z</time>
      </trkpt>
      <trkpt lat="44.9108" lon="1.76325">
        <ele>126.7</ele>
        <time>2022-05-24T06:36:23Z</time>
      </trkpt>
      <trkpt lat="44.91082" lon="1.76316">
        <ele>126.6</ele>
        <time>2022-05-24T06:36:24Z</time>
      </trkpt>
      <trkpt lat="44.91084" lon="1.76308">
        <ele>126.6</ele>
        <time>2022-05-24T06:36:25Z</time>
      </trkpt>
      <trkpt lat="44.91086" lon="1.76301">
        <ele>126.6</ele>
        <time>2022-05-24T06:36:26Z</time>
      </trkpt>
      <trkpt lat="44.91089" lon="1.76293">
        <ele>126.6</ele>
        <time>2022-05-24T06:36:27Z</time>
      </trkpt>
      <trkpt lat="44.91092" lon="1.76285">
        <ele>126.5</ele>
        <time>2022-05-24T06:36:28Z</time>
      </trkpt>
      <trkpt lat="44.91094" lon="1.76277">
        <ele>126.5</ele>
        <time>2022-05-24T06:36:29Z</time>
      </trkpt>
      <trkpt lat="44.91096" lon="1.76269">
        <ele>126.5</ele>
        <time>2022-05-24T06:36:30Z</time>
      </trkpt>
      <trkpt lat="44.91098" lon="1.7626">
        <ele>126.5</ele>
        <time>2022-05-24T06:36:31Z</time>
      </trkpt>
      <trkpt lat="44.911" lon="1.76253">
        <ele>126.4</ele>
        <time>2022-05-24T06:36:32Z</time>
      </trkpt>
      <trkpt lat="44.91102" lon="1.76245">
        <ele>126.4</ele>
        <time>2022-05-24T06:36:33Z</time>
      </trkpt>
      <trkpt lat="44.91104" lon="1.76237">
        <ele>126.4</ele>
        <time>2022-05-24T06:36:34Z</time>
      </trkpt>
      <trkpt lat="44.91106" lon="1.76229">
        <ele>126.4</ele>
        <time>2022-05-24T06:36:35Z</time>
      </trkpt>
      <trkpt lat="44.91107" lon="1.76221">
        <ele>126.4</ele>
        <time>2022-05-24T06:36:36Z</time>
      </trkpt>
      <trkpt lat="44.91109" lon="1.76212">
        <ele>126.4</ele>
        <time>2022-05-24T06:36:37Z</time>
      </trkpt>
      <trkpt lat="44.9111" lon="1.76205">
        <ele>126.3</ele>
        <time>2022-05-24T06:36:38Z</time>
      </trkpt>
      <trkpt lat="44.91112" lon="1.76197">
        <ele>126.3</ele>
        <time>2022-05-24T06:36:39Z</time>
      </trkpt>
      <trkpt lat="44.91114" lon="1.76189">
        <ele>126.3</ele>
        <time>2022-05-24T06:36:40Z</time>
      </trkpt>
      <trkpt lat="44.91115" lon="1.76181">
        <ele>126.3</ele>
        <time>2022-05-24T06:36:41Z</time>
      </trkpt>
      <trkpt lat="44.91117" lon="1.76173">
        <ele>126.3</ele>
        <time>2022-05-24T06:36:42Z</time>
      </trkpt>
      <trkpt lat="44.91119" lon="1.76166">
        <ele>126.3</ele>
        <time>2022-05-24T06:36:43Z</time>
      </trkpt>
      <trkpt lat="44.91121" lon="1.76157">
        <ele>126.3</ele>
        <time>2022-05-24T06:36:44Z</time>
      </trkpt>
      <trkpt lat="44.91122" lon="1.76149">
        <ele>126.3</ele>
        <time>2022-05-24T06:36:45Z</time>
      </trkpt>
      <trkpt lat="44.91124" lon="1.7614">
        <ele>126.2</ele>
        <time>2022-05-24T06:36:46Z</time>
      </trkpt>
      <trkpt lat="44.91125" lon="1.76132">
        <ele>126.2</ele>
        <time>2022-05-24T06:36:47Z</time>
      </trkpt>
      <trkpt lat="44.91127" lon="1.76124">
        <ele>126.2</ele>
        <time>2022-05-24T06:36:48Z</time>
      </trkpt>
      <trkpt lat="44.91128" lon="1.76116">
        <ele>126.2</ele>
        <time>2022-05-24T06:36:49Z</time>
      </trkpt>
      <trkpt lat="44.9113" lon="1.76107">
        <ele>126.2</ele>
        <time>2022-05-24T06:36:50Z</time>
      </trkpt>
      <trkpt lat="44.91131" lon="1.76099">
        <ele>126.2</ele>
        <time>2022-05-24T06:36:51Z</time>
      </trkpt>
      <trkpt lat="44.91133" lon="1.76091">
        <ele>126.2</ele>
        <time>2022-05-24T06:36:52Z</time>
      </trkpt>
      <trkpt lat="44.91134" lon="1.76083">
        <ele>126.2</ele>
        <time>2022-05-24T06:36:53Z</time>
      </trkpt>
      <trkpt lat="44.91135" lon="1.76073">
        <ele>126.1</ele>
        <time>2022-05-24T06:36:54Z</time>
      </trkpt>
      <trkpt lat="44.91135" lon="1.76064">
        <ele>126.1</ele>
        <time>2022-05-24T06:36:55Z</time>
      </trkpt>
      <trkpt lat="44.91136" lon="1.76055">
        <ele>126.1</ele>
        <time>2022-05-24T06:36:56Z</time>
      </trkpt>
      <trkpt lat="44.91138" lon="1.76047">
        <ele>126.1</ele>
        <time>2022-05-24T06:36:57Z</time>
      </trkpt>
      <trkpt lat="44.91138" lon="1.76039">
        <ele>126</ele>
        <time>2022-05-24T06:36:58Z</time>
      </trkpt>
      <trkpt lat="44.91139" lon="1.7603">
        <ele>126</ele>
        <time>2022-05-24T06:36:59Z</time>
      </trkpt>
      <trkpt lat="44.91139" lon="1.76021">
        <ele>125.9</ele>
        <time>2022-05-24T06:37:00Z</time>
      </trkpt>
      <trkpt lat="44.9114" lon="1.76012">
        <ele>125.9</ele>
        <time>2022-05-24T06:37:01Z</time>
      </trkpt>
      <trkpt lat="44.91141" lon="1.76003">
        <ele>125.8</ele>
        <time>2022-05-24T06:37:02Z</time>
      </trkpt>
      <trkpt lat="44.91141" lon="1.75994">
        <ele>125.8</ele>
        <time>2022-05-24T06:37:03Z</time>
      </trkpt>
      <trkpt lat="44.91142" lon="1.75985">
        <ele>125.8</ele>
        <time>2022-05-24T06:37:04Z</time>
      </trkpt>
      <trkpt lat="44.91144" lon="1.75976">
        <ele>125.7</ele>
        <time>2022-05-24T06:37:05Z</time>
      </trkpt>
      <trkpt lat="44.91145" lon="1.75967">
        <ele>125.7</ele>
        <time>2022-05-24T06:37:06Z</time>
      </trkpt>
      <trkpt lat="44.91147" lon="1.75958">
        <ele>125.7</ele>
        <time>2022-05-24T06:37:07Z</time>
      </trkpt>
      <trkpt lat="44.91149" lon="1.75949">
        <ele>125.6</ele>
        <time>2022-05-24T06:37:08Z</time>
      </trkpt>
      <trkpt lat="44.91151" lon="1.7594">
        <ele>125.6</ele>
        <time>2022-05-24T06:37:09Z</time>
      </trkpt>
      <trkpt lat="44.91152" lon="1.75932">
        <ele>125.6</ele>
        <time>2022-05-24T06:37:10Z</time>
      </trkpt>
      <trkpt lat="44.91154" lon="1.75924">
        <ele>125.5</ele>
        <time>2022-05-24T06:37:11Z</time>
      </trkpt>
      <trkpt lat="44.91157" lon="1.75914">
        <ele>125.5</ele>
        <time>2022-05-24T06:37:12Z</time>
      </trkpt>
      <trkpt lat="44.91159" lon="1.75906">
        <ele>125.5</ele>
        <time>2022-05-24T06:37:13Z</time>
      </trkpt>
      <trkpt lat="44.91161" lon="1.75898">
        <ele>125.5</ele>
        <time>2022-05-24T06:37:14Z</time>
      </trkpt>
      <trkpt lat="44.91163" lon="1.7589">
        <ele>125.4</ele>
        <time>2022-05-24T06:37:15Z</time>
      </trkpt>
      <trkpt lat="44.91165" lon="1.75882">
        <ele>125.4</ele>
        <time>2022-05-24T06:37:16Z</time>
      </trkpt>
      <trkpt lat="44.91167" lon="1.75875">
        <ele>125.4</ele>
        <time>2022-05-24T06:37:17Z</time>
      </trkpt>
      <trkpt lat="44.9117" lon="1.75867">
        <ele>125.5</ele>
        <time>2022-05-24T06:37:18Z</time>
      </trkpt>
      <trkpt lat="44.91173" lon="1.75859">
        <ele>125.5</ele>
        <time>2022-05-24T06:37:19Z</time>
      </trkpt>
      <trkpt lat="44.91176" lon="1.75851">
        <ele>125.5</ele>
        <time>2022-05-24T06:37:20Z</time>
      </trkpt>
      <trkpt lat="44.91179" lon="1.75845">
        <ele>125.5</ele>
        <time>2022-05-24T06:37:21Z</time>
      </trkpt>
      <trkpt lat="44.91182" lon="1.75838">
        <ele>125.6</ele>
        <time>2022-05-24T06:37:22Z</time>
      </trkpt>
      <trkpt lat="44.91185" lon="1.75831">
        <ele>125.6</ele>
        <time>2022-05-24T06:37:23Z</time>
      </trkpt>
      <trkpt lat="44.91188" lon="1.75824">
        <ele>125.6</ele>
        <time>2022-05-24T06:37:24Z</time>
      </trkpt>
      <trkpt lat="44.91191" lon="1.75816">
        <ele>125.6</ele>
        <time>2022-05-24T06:37:25Z</time>
      </trkpt>
      <trkpt lat="44.91194" lon="1.7581">
        <ele>125.6</ele>
        <time>2022-05-24T06:37:26Z</time>
      </trkpt>
      <trkpt lat="44.91198" lon="1.75803">
        <ele>125.6</ele>
        <time>2022-05-24T06:37:27Z</time>
      </trkpt>
      <trkpt lat="44.91202" lon="1.75797">
        <ele>125.6</ele>
        <time>2022-05-24T06:37:28Z</time>
      </trkpt>
      <trkpt lat="44.91205" lon="1.7579">
        <ele>125.6</ele>
        <time>2022-05-24T06:37:29Z</time>
      </trkpt>
      <trkpt lat="44.91209" lon="1.75783">
        <ele>125.7</ele>
        <time>2022-05-24T06:37:30Z</time>
      </trkpt>
      <trkpt lat="44.91213" lon="1.75777">
        <ele>125.7</ele>
        <time>2022-05-24T06:37:31Z</time>
      </trkpt>
      <trkpt lat="44.91217" lon="1.75771">
        <ele>125.7</ele>
        <time>2022-05-24T06:37:32Z</time>
      </trkpt>
      <trkpt lat="44.91221" lon="1.75764">
        <ele>125.7</ele>
        <time>2022-05-24T06:37:33Z</time>
      </trkpt>
      <trkpt lat="44.91225" lon="1.75758">
        <ele>125.7</ele>
        <time>2022-05-24T06:37:34Z</time>
      </trkpt>
      <trkpt lat="44.91229" lon="1.75752">
        <ele>125.8</ele>
        <time>2022-05-24T06:37:35Z</time>
      </trkpt>
      <trkpt lat="44.91233" lon="1.75745">
        <ele>125.8</ele>
        <time>2022-05-24T06:37:36Z</time>
      </trkpt>
      <trkpt lat="44.91237" lon="1.75739">
        <ele>125.8</ele>
        <time>2022-05-24T06:37:37Z</time>
      </trkpt>
      <trkpt lat="44.9124" lon="1.75733">
        <ele>125.8</ele>
        <time>2022-05-24T06:37:38Z</time>
      </trkpt>
      <trkpt lat="44.91244" lon="1.75727">
        <ele>125.8</ele>
        <time>2022-05-24T06:37:39Z</time>
      </trkpt>
      <trkpt lat="44.91248" lon="1.75721">
        <ele>125.8</ele>
        <time>2022-05-24T06:37:40Z</time>
      </trkpt>
      <trkpt lat="44.91252" lon="1.75714">
        <ele>125.7</ele>
        <time>2022-05-24T06:37:41Z</time>
      </trkpt>
      <trkpt lat="44.91255" lon="1.75707">
        <ele>125.7</ele>
        <time>2022-05-24T06:37:42Z</time>
      </trkpt>
      <trkpt lat="44.91259" lon="1.757">
        <ele>125.7</ele>
        <time>2022-05-24T06:37:43Z</time>
      </trkpt>
      <trkpt lat="44.91263" lon="1.75693">
        <ele>125.7</ele>
        <time>2022-05-24T06:37:44Z</time>
      </trkpt>
      <trkpt lat="44.91266" lon="1.75685">
        <ele>125.7</ele>
        <time>2022-05-24T06:37:45Z</time>
      </trkpt>
      <trkpt lat="44.91269" lon="1.75677">
        <ele>125.7</ele>
        <time>2022-05-24T06:37:46Z</time>
      </trkpt>
      <trkpt lat="44.91272" lon="1.75668">
        <ele>125.7</ele>
        <time>2022-05-24T06:37:47Z</time>
      </trkpt>
      <trkpt lat="44.91275" lon="1.75661">
        <ele>125.7</ele>
        <time>2022-05-24T06:37:48Z</time>
      </trkpt>
      <trkpt lat="44.91278" lon="1.75653">
        <ele>125.6</ele>
        <time>2022-05-24T06:37:49Z</time>
      </trkpt>
      <trkpt lat="44.9128" lon="1.75645">
        <ele>125.6</ele>
        <time>2022-05-24T06:37:50Z</time>
      </trkpt>
      <trkpt lat="44.91283" lon="1.75638">
        <ele>125.6</ele>
        <time>2022-05-24T06:37:51Z</time>
      </trkpt>
      <trkpt lat="44.91285" lon="1.7563">
        <ele>125.6</ele>
        <time>2022-05-24T06:37:52Z</time>
      </trkpt>
      <trkpt lat="44.91287" lon="1.75621">
        <ele>125.6</ele>
        <time>2022-05-24T06:37:53Z</time>
      </trkpt>
      <trkpt lat="44.9129" lon="1.75613">
        <ele>125.5</ele>
        <time>2022-05-24T06:37:54Z</time>
      </trkpt>
      <trkpt lat="44.91291" lon="1.75604">
        <ele>125.5</ele>
        <time>2022-05-24T06:37:55Z</time>
      </trkpt>
      <trkpt lat="44.91293" lon="1.75596">
        <ele>125.5</ele>
        <time>2022-05-24T06:37:56Z</time>
      </trkpt>
      <trkpt lat="44.91295" lon="1.75588">
        <ele>125.5</ele>
        <time>2022-05-24T06:37:57Z</time>
      </trkpt>
      <trkpt lat="44.91297" lon="1.75579">
        <ele>125.5</ele>
        <time>2022-05-24T06:37:58Z</time>
      </trkpt>
      <trkpt lat="44.913" lon="1.7557">
        <ele>125.5</ele>
        <time>2022-05-24T06:37:59Z</time>
      </trkpt>
      <trkpt lat="44.91301" lon="1.75562">
        <ele>125.5</ele>
        <time>2022-05-24T06:38:00Z</time>
      </trkpt>
      <trkpt lat="44.91303" lon="1.75553">
        <ele>125.4</ele>
        <time>2022-05-24T06:38:01Z</time>
      </trkpt>
      <trkpt lat="44.91305" lon="1.75544">
        <ele>125.4</ele>
        <time>2022-05-24T06:38:02Z</time>
      </trkpt>
      <trkpt lat="44.91307" lon="1.75535">
        <ele>125.4</ele>
        <time>2022-05-24T06:38:03Z</time>
      </trkpt>
      <trkpt lat="44.91309" lon="1.75527">
        <ele>125.4</ele>
        <time>2022-05-24T06:38:04Z</time>
      </trkpt>
      <trkpt lat="44.91311" lon="1.75518">
        <ele>125.4</ele>
        <time>2022-05-24T06:38:05Z</time>
      </trkpt>
      <trkpt lat="44.91313" lon="1.75509">
        <ele>125.4</ele>
        <time>2022-05-24T06:38:06Z</time>
      </trkpt>
      <trkpt lat="44.91314" lon="1.75501">
        <ele>125.4</ele>
        <time>2022-05-24T06:38:07Z</time>
      </trkpt>
      <trkpt lat="44.91316" lon="1.75493">
        <ele>125.4</ele>
        <time>2022-05-24T06:38:08Z</time>
      </trkpt>
      <trkpt lat="44.91318" lon="1.75484">
        <ele>125.4</ele>
        <time>2022-05-24T06:38:09Z</time>
      </trkpt>
      <trkpt lat="44.9132" lon="1.75476">
        <ele>125.4</ele>
        <time>2022-05-24T06:38:10Z</time>
      </trkpt>
      <trkpt lat="44.91322" lon="1.75467">
        <ele>125.4</ele>
        <time>2022-05-24T06:38:11Z</time>
      </trkpt>
      <trkpt lat="44.91323" lon="1.75459">
        <ele>125.4</ele>
        <time>2022-05-24T06:38:12Z</time>
      </trkpt>
      <trkpt lat="44.91324" lon="1.75451">
        <ele>125.4</ele>
        <time>2022-05-24T06:38:13Z</time>
      </trkpt>
      <trkpt lat="44.91326" lon="1.75443">
        <ele>125.4</ele>
        <time>2022-05-24T06:38:14Z</time>
      </trkpt>
      <trkpt lat="44.91328" lon="1.75434">
        <ele>125.4</ele>
        <time>2022-05-24T06:38:15Z</time>
      </trkpt>
      <trkpt lat="44.91329" lon="1.75426">
        <ele>125.4</ele>
        <time>2022-05-24T06:38:16Z</time>
      </trkpt>
      <trkpt lat="44.91331" lon="1.75417">
        <ele>125.4</ele>
        <time>2022-05-24T06:38:17Z</time>
      </trkpt>
      <trkpt lat="44.91333" lon="1.75409">
        <ele>125.4</ele>
        <time>2022-05-24T06:38:18Z</time>
      </trkpt>
      <trkpt lat="44.91334" lon="1.754">
        <ele>125.4</ele>
        <time>2022-05-24T06:38:19Z</time>
      </trkpt>
      <trkpt lat="44.91336" lon="1.75392">
        <ele>125.4</ele>
        <time>2022-05-24T06:38:20Z</time>
      </trkpt>
      <trkpt lat="44.91337" lon="1.75383">
        <ele>125.4</ele>
        <time>2022-05-24T06:38:21Z</time>
      </trkpt>
      <trkpt lat="44.91339" lon="1.75375">
        <ele>125.4</ele>
        <time>2022-05-24T06:38:22Z</time>
      </trkpt>
      <trkpt lat="44.9134" lon="1.75367">
        <ele>125.4</ele>
        <time>2022-05-24T06:38:23Z</time>
      </trkpt>
      <trkpt lat="44.91341" lon="1.75359">
        <ele>125.4</ele>
        <time>2022-05-24T06:38:24Z</time>
      </trkpt>
      <trkpt lat="44.91343" lon="1.7535">
        <ele>125.4</ele>
        <time>2022-05-24T06:38:25Z</time>
      </trkpt>
      <trkpt lat="44.91344" lon="1.75342">
        <ele>125.4</ele>
        <time>2022-05-24T06:38:26Z</time>
      </trkpt>
      <trkpt lat="44.91345" lon="1.75333">
        <ele>125.5</ele>
        <time>2022-05-24T06:38:27Z</time>
      </trkpt>
      <trkpt lat="44.91346" lon="1.75324">
        <ele>125.5</ele>
        <time>2022-05-24T06:38:28Z</time>
      </trkpt>
      <trkpt lat="44.91346" lon="1.75316">
        <ele>125.5</ele>
        <time>2022-05-24T06:38:29Z</time>
      </trkpt>
      <trkpt lat="44.91347" lon="1.75308">
        <ele>125.6</ele>
        <time>2022-05-24T06:38:30Z</time>
      </trkpt>
      <trkpt lat="44.91348" lon="1.753">
        <ele>125.6</ele>
        <time>2022-05-24T06:38:31Z</time>
      </trkpt>
      <trkpt lat="44.91349" lon="1.75291">
        <ele>125.6</ele>
        <time>2022-05-24T06:38:32Z</time>
      </trkpt>
      <trkpt lat="44.91348" lon="1.75283">
        <ele>125.5</ele>
        <time>2022-05-24T06:38:33Z</time>
      </trkpt>
      <trkpt lat="44.91349" lon="1.75275">
        <ele>125.5</ele>
        <time>2022-05-24T06:38:34Z</time>
      </trkpt>
      <trkpt lat="44.91349" lon="1.75266">
        <ele>125.5</ele>
        <time>2022-05-24T06:38:35Z</time>
      </trkpt>
      <trkpt lat="44.9135" lon="1.75258">
        <ele>125.4</ele>
        <time>2022-05-24T06:38:36Z</time>
      </trkpt>
      <trkpt lat="44.91351" lon="1.75249">
        <ele>125.4</ele>
        <time>2022-05-24T06:38:37Z</time>
      </trkpt>
      <trkpt lat="44.91352" lon="1.7524">
        <ele>125.4</ele>
        <time>2022-05-24T06:38:38Z</time>
      </trkpt>
      <trkpt lat="44.91352" lon="1.75232">
        <ele>125.4</ele>
        <time>2022-05-24T06:38:39Z</time>
      </trkpt>
      <trkpt lat="44.91353" lon="1.75222">
        <ele>125.4</ele>
        <time>2022-05-24T06:38:40Z</time>
      </trkpt>
      <trkpt lat="44.91354" lon="1.75214">
        <ele>125.4</ele>
        <time>2022-05-24T06:38:41Z</time>
      </trkpt>
      <trkpt lat="44.91354" lon="1.75205">
        <ele>125.4</ele>
        <time>2022-05-24T06:38:42Z</time>
      </trkpt>
      <trkpt lat="44.91356" lon="1.75196">
        <ele>125.4</ele>
        <time>2022-05-24T06:38:43Z</time>
      </trkpt>
      <trkpt lat="44.91358" lon="1.75187">
        <ele>125.4</ele>
        <time>2022-05-24T06:38:44Z</time>
      </trkpt>
      <trkpt lat="44.9136" lon="1.75178">
        <ele>125.4</ele>
        <time>2022-05-24T06:38:45Z</time>
      </trkpt>
      <trkpt lat="44.91361" lon="1.75169">
        <ele>125.4</ele>
        <time>2022-05-24T06:38:46Z</time>
      </trkpt>
      <trkpt lat="44.91364" lon="1.75161">
        <ele>125.4</ele>
        <time>2022-05-24T06:38:47Z</time>
      </trkpt>
      <trkpt lat="44.91366" lon="1.75153">
        <ele>125.3</ele>
        <time>2022-05-24T06:38:48Z</time>
      </trkpt>
      <trkpt lat="44.91369" lon="1.75145">
        <ele>125.3</ele>
        <time>2022-05-24T06:38:49Z</time>
      </trkpt>
      <trkpt lat="44.91372" lon="1.75137">
        <ele>125.3</ele>
        <time>2022-05-24T06:38:50Z</time>
      </trkpt>
      <trkpt lat="44.91375" lon="1.75129">
        <ele>125.3</ele>
        <time>2022-05-24T06:38:51Z</time>
      </trkpt>
      <trkpt lat="44.91377" lon="1.75121">
        <ele>125.2</ele>
        <time>2022-05-24T06:38:52Z</time>
      </trkpt>
      <trkpt lat="44.9138" lon="1.75113">
        <ele>125.2</ele>
        <time>2022-05-24T06:38:53Z</time>
      </trkpt>
      <trkpt lat="44.91382" lon="1.75105">
        <ele>125.2</ele>
        <time>2022-05-24T06:38:54Z</time>
      </trkpt>
      <trkpt lat="44.91386" lon="1.75097">
        <ele>125.2</ele>
        <time>2022-05-24T06:38:55Z</time>
      </trkpt>
      <trkpt lat="44.91389" lon="1.75089">
        <ele>125.1</ele>
        <time>2022-05-24T06:38:56Z</time>
      </trkpt>
      <trkpt lat="44.91392" lon="1.75081">
        <ele>125.1</ele>
        <time>2022-05-24T06:38:57Z</time>
      </trkpt>
      <trkpt lat="44.91394" lon="1.75073">
        <ele>125.1</ele>
        <time>2022-05-24T06:38:58Z</time>
      </trkpt>
      <trkpt lat="44.91398" lon="1.75066">
        <ele>125</ele>
        <time>2022-05-24T06:38:59Z</time>
      </trkpt>
      <trkpt lat="44.91401" lon="1.75058">
        <ele>125</ele>
        <time>2022-05-24T06:39:00Z</time>
      </trkpt>
      <trkpt lat="44.91404" lon="1.75051">
        <ele>124.9</ele>
        <time>2022-05-24T06:39:01Z</time>
      </trkpt>
      <trkpt lat="44.91408" lon="1.75043">
        <ele>124.9</ele>
        <time>2022-05-24T06:39:02Z</time>
      </trkpt>
      <trkpt lat="44.91411" lon="1.75035">
        <ele>124.9</ele>
        <time>2022-05-24T06:39:03Z</time>
      </trkpt>
      <trkpt lat="44.91414" lon="1.75028">
        <ele>124.8</ele>
        <time>2022-05-24T06:39:04Z</time>
      </trkpt>
      <trkpt lat="44.91417" lon="1.7502">
        <ele>124.8</ele>
        <time>2022-05-24T06:39:05Z</time>
      </trkpt>
      <trkpt lat="44.91421" lon="1.75012">
        <ele>124.7</ele>
        <time>2022-05-24T06:39:06Z</time>
      </trkpt>
      <trkpt lat="44.91424" lon="1.75004">
        <ele>124.7</ele>
        <time>2022-05-24T06:39:07Z</time>
      </trkpt>
      <trkpt lat="44.91427" lon="1.74996">
        <ele>124.7</ele>
        <time>2022-05-24T06:39:08Z</time>
      </trkpt>
      <trkpt lat="44.9143" lon="1.74989">
        <ele>124.7</ele>
        <time>2022-05-24T06:39:09Z</time>
      </trkpt>
      <trkpt lat="44.91433" lon="1.74981">
        <ele>124.7</ele>
        <time>2022-05-24T06:39:10Z</time>
      </trkpt>
      <trkpt lat="44.91436" lon="1.74974">
        <ele>124.7</ele>
        <time>2022-05-24T06:39:11Z</time>
      </trkpt>
      <trkpt lat="44.91439" lon="1.74966">
        <ele>124.7</ele>
        <time>2022-05-24T06:39:12Z</time>
      </trkpt>
      <trkpt lat="44.91443" lon="1.74958">
        <ele>124.7</ele>
        <time>2022-05-24T06:39:13Z</time>
      </trkpt>
      <trkpt lat="44.91446" lon="1.74951">
        <ele>124.8</ele>
        <time>2022-05-24T06:39:14Z</time>
      </trkpt>
      <trkpt lat="44.91449" lon="1.74943">
        <ele>124.8</ele>
        <time>2022-05-24T06:39:15Z</time>
      </trkpt>
      <trkpt lat="44.91452" lon="1.74936">
        <ele>124.8</ele>
        <time>2022-05-24T06:39:16Z</time>
      </trkpt>
      <trkpt lat="44.91456" lon="1.74929">
        <ele>124.9</ele>
        <time>2022-05-24T06:39:17Z</time>
      </trkpt>
      <trkpt lat="44.9146" lon="1.74921">
        <ele>124.9</ele>
        <time>2022-05-24T06:39:18Z</time>
      </trkpt>
      <trkpt lat="44.91463" lon="1.74914">
        <ele>124.9</ele>
        <time>2022-05-24T06:39:19Z</time>
      </trkpt>
      <trkpt lat="44.91467" lon="1.74907">
        <ele>124.9</ele>
        <time>2022-05-24T06:39:20Z</time>
      </trkpt>
      <trkpt lat="44.9147" lon="1.749">
        <ele>124.8</ele>
        <time>2022-05-24T06:39:21Z</time>
      </trkpt>
      <trkpt lat="44.91473" lon="1.74892">
        <ele>124.8</ele>
        <time>2022-05-24T06:39:22Z</time>
      </trkpt>
      <trkpt lat="44.91477" lon="1.74885">
        <ele>124.8</ele>
        <time>2022-05-24T06:39:23Z</time>
      </trkpt>
      <trkpt lat="44.9148" lon="1.74878">
        <ele>124.8</ele>
        <time>2022-05-24T06:39:24Z</time>
      </trkpt>
      <trkpt lat="44.91483" lon="1.7487">
        <ele>124.8</ele>
        <time>2022-05-24T06:39:25Z</time>
      </trkpt>
      <trkpt lat="44.91486" lon="1.74862">
        <ele>124.8</ele>
        <time>2022-05-24T06:39:26Z</time>
      </trkpt>
      <trkpt lat="44.91489" lon="1.74854">
        <ele>124.8</ele>
        <time>2022-05-24T06:39:27Z</time>
      </trkpt>
      <trkpt lat="44.91492" lon="1.74847">
        <ele>124.8</ele>
        <time>2022-05-24T06:39:28Z</time>
      </trkpt>
      <trkpt lat="44.91495" lon="1.7484">
        <ele>124.9</ele>
        <time>2022-05-24T06:39:29Z</time>
      </trkpt>
      <trkpt lat="44.91499" lon="1.74833">
        <ele>124.9</ele>
        <time>2022-05-24T06:39:30Z</time>
      </trkpt>
      <trkpt lat="44.91502" lon="1.74826">
        <ele>124.9</ele>
        <time>2022-05-24T06:39:31Z</time>
      </trkpt>
      <trkpt lat="44.91506" lon="1.74818">
        <ele>125</ele>
        <time>2022-05-24T06:39:32Z</time>
      </trkpt>
      <trkpt lat="44.91509" lon="1.74811">
        <ele>125</ele>
        <time>2022-05-24T06:39:33Z</time>
      </trkpt>
      <trkpt lat="44.91512" lon="1.74804">
        <ele>125</ele>
        <time>2022-05-24T06:39:34Z</time>
      </trkpt>
      <trkpt lat="44.91516" lon="1.74797">
        <ele>125</ele>
        <time>2022-05-24T06:39:35Z</time>
      </trkpt>
      <trkpt lat="44.9152" lon="1.74791">
        <ele>125.1</ele>
        <time>2022-05-24T06:39:36Z</time>
      </trkpt>
      <trkpt lat="44.91523" lon="1.74784">
        <ele>125.1</ele>
        <time>2022-05-24T06:39:37Z</time>
      </trkpt>
      <trkpt lat="44.91527" lon="1.74777">
        <ele>125.1</ele>
        <time>2022-05-24T06:39:38Z</time>
      </trkpt>
      <trkpt lat="44.91531" lon="1.7477">
        <ele>125.1</ele>
        <time>2022-05-24T06:39:39Z</time>
      </trkpt>
      <trkpt lat="44.91535" lon="1.74764">
        <ele>125.1</ele>
        <time>2022-05-24T06:39:40Z</time>
      </trkpt>
      <trkpt lat="44.91538" lon="1.74756">
        <ele>125.1</ele>
        <time>2022-05-24T06:39:41Z</time>
      </trkpt>
      <trkpt lat="44.91543" lon="1.74749">
        <ele>125.1</ele>
        <time>2022-05-24T06:39:42Z</time>
      </trkpt>
      <trkpt lat="44.91546" lon="1.74743">
        <ele>125.1</ele>
        <time>2022-05-24T06:39:43Z</time>
      </trkpt>
      <trkpt lat="44.91551" lon="1.74736">
        <ele>125</ele>
        <time>2022-05-24T06:39:44Z</time>
      </trkpt>
      <trkpt lat="44.91555" lon="1.74729">
        <ele>125</ele>
        <time>2022-05-24T06:39:45Z</time>
      </trkpt>
      <trkpt lat="44.91558" lon="1.74723">
        <ele>125</ele>
        <time>2022-05-24T06:39:46Z</time>
      </trkpt>
      <trkpt lat="44.91563" lon="1.74716">
        <ele>125</ele>
        <time>2022-05-24T06:39:47Z</time>
      </trkpt>
      <trkpt lat="44.91566" lon="1.74708">
        <ele>125</ele>
        <time>2022-05-24T06:39:48Z</time>
      </trkpt>
      <trkpt lat="44.9157" lon="1.74701">
        <ele>125</ele>
        <time>2022-05-24T06:39:49Z</time>
      </trkpt>
      <trkpt lat="44.91574" lon="1.74694">
        <ele>124.9</ele>
        <time>2022-05-24T06:39:50Z</time>
      </trkpt>
      <trkpt lat="44.91577" lon="1.74687">
        <ele>124.9</ele>
        <time>2022-05-24T06:39:51Z</time>
      </trkpt>
      <trkpt lat="44.9158" lon="1.74679">
        <ele>124.9</ele>
        <time>2022-05-24T06:39:52Z</time>
      </trkpt>
      <trkpt lat="44.91582" lon="1.74671">
        <ele>124.9</ele>
        <time>2022-05-24T06:39:53Z</time>
      </trkpt>
      <trkpt lat="44.91584" lon="1.74663">
        <ele>124.9</ele>
        <time>2022-05-24T06:39:54Z</time>
      </trkpt>
      <trkpt lat="44.91585" lon="1.74655">
        <ele>124.9</ele>
        <time>2022-05-24T06:39:55Z</time>
      </trkpt>
      <trkpt lat="44.91586" lon="1.74646">
        <ele>124.9</ele>
        <time>2022-05-24T06:39:56Z</time>
      </trkpt>
      <trkpt lat="44.91585" lon="1.74638">
        <ele>125</ele>
        <time>2022-05-24T06:39:57Z</time>
      </trkpt>
      <trkpt lat="44.91583" lon="1.74629">
        <ele>125</ele>
        <time>2022-05-24T06:39:58Z</time>
      </trkpt>
      <trkpt lat="44.91582" lon="1.74621">
        <ele>125.1</ele>
        <time>2022-05-24T06:39:59Z</time>
      </trkpt>
      <trkpt lat="44.9158" lon="1.74613">
        <ele>125.1</ele>
        <time>2022-05-24T06:40:00Z</time>
      </trkpt>
      <trkpt lat="44.9158" lon="1.74605">
        <ele>125.1</ele>
        <time>2022-05-24T06:40:01Z</time>
      </trkpt>
      <trkpt lat="44.91581" lon="1.74594">
        <ele>125.2</ele>
        <time>2022-05-24T06:40:02Z</time>
      </trkpt>
      <trkpt lat="44.91582" lon="1.74585">
        <ele>125.2</ele>
        <time>2022-05-24T06:40:03Z</time>
      </trkpt>
      <trkpt lat="44.91584" lon="1.74577">
        <ele>125.2</ele>
        <time>2022-05-24T06:40:04Z</time>
      </trkpt>
      <trkpt lat="44.91585" lon="1.74569">
        <ele>125.3</ele>
        <time>2022-05-24T06:40:05Z</time>
      </trkpt>
      <trkpt lat="44.91585" lon="1.74562">
        <ele>125.3</ele>
        <time>2022-05-24T06:40:06Z</time>
      </trkpt>
      <trkpt lat="44.91584" lon="1.74555">
        <ele>125.3</ele>
        <time>2022-05-24T06:40:07Z</time>
      </trkpt>
      <trkpt lat="44.91581" lon="1.74549">
        <ele>125.4</ele>
        <time>2022-05-24T06:40:08Z</time>
      </trkpt>
      <trkpt lat="44.91576" lon="1.74544">
        <ele>125.5</ele>
        <time>2022-05-24T06:40:09Z</time>
      </trkpt>
      <trkpt lat="44.91571" lon="1.74539">
        <ele>125.6</ele>
        <time>2022-05-24T06:40:10Z</time>
      </trkpt>
      <trkpt lat="44.91567" lon="1.74534">
        <ele>125.6</ele>
        <time>2022-05-24T06:40:11Z</time>
      </trkpt>
      <trkpt lat="44.91563" lon="1.74528">
        <ele>125.7</ele>
        <time>2022-05-24T06:40:12Z</time>
      </trkpt>
      <trkpt lat="44.91559" lon="1.74522">
        <ele>125.8</ele>
        <time>2022-05-24T06:40:13Z</time>
      </trkpt>
      <trkpt lat="44.91556" lon="1.74515">
        <ele>125.9</ele>
        <time>2022-05-24T06:40:14Z</time>
      </trkpt>
      <trkpt lat="44.91553" lon="1.74509">
        <ele>126</ele>
        <time>2022-05-24T06:40:15Z</time>
      </trkpt>
      <trkpt lat="44.91551" lon="1.74502">
        <ele>126.1</ele>
        <time>2022-05-24T06:40:16Z</time>
      </trkpt>
      <trkpt lat="44.91549" lon="1.74495">
        <ele>126.2</ele>
        <time>2022-05-24T06:40:17Z</time>
      </trkpt>
      <trkpt lat="44.91547" lon="1.74487">
        <ele>126.3</ele>
        <time>2022-05-24T06:40:18Z</time>
      </trkpt>
      <trkpt lat="44.91545" lon="1.7448">
        <ele>126.3</ele>
        <time>2022-05-24T06:40:19Z</time>
      </trkpt>
      <trkpt lat="44.91543" lon="1.74473">
        <ele>126.3</ele>
        <time>2022-05-24T06:40:20Z</time>
      </trkpt>
      <trkpt lat="44.9154" lon="1.74466">
        <ele>126.4</ele>
        <time>2022-05-24T06:40:21Z</time>
      </trkpt>
      <trkpt lat="44.91538" lon="1.74458">
        <ele>126.4</ele>
        <time>2022-05-24T06:40:22Z</time>
      </trkpt>
      <trkpt lat="44.91536" lon="1.74452">
        <ele>126.5</ele>
        <time>2022-05-24T06:40:23Z</time>
      </trkpt>
      <trkpt lat="44.91533" lon="1.74445">
        <ele>126.5</ele>
        <time>2022-05-24T06:40:24Z</time>
      </trkpt>
      <trkpt lat="44.91531" lon="1.74438">
        <ele>126.6</ele>
        <time>2022-05-24T06:40:25Z</time>
      </trkpt>
      <trkpt lat="44.91529" lon="1.7443">
        <ele>126.6</ele>
        <time>2022-05-24T06:40:26Z</time>
      </trkpt>
      <trkpt lat="44.91526" lon="1.74422">
        <ele>126.7</ele>
        <time>2022-05-24T06:40:27Z</time>
      </trkpt>
      <trkpt lat="44.91524" lon="1.74415">
        <ele>126.7</ele>
        <time>2022-05-24T06:40:28Z</time>
      </trkpt>
      <trkpt lat="44.91522" lon="1.74407">
        <ele>126.8</ele>
        <time>2022-05-24T06:40:29Z</time>
      </trkpt>
      <trkpt lat="44.9152" lon="1.744">
        <ele>126.8</ele>
        <time>2022-05-24T06:40:30Z</time>
      </trkpt>
      <trkpt lat="44.91518" lon="1.74392">
        <ele>126.8</ele>
        <time>2022-05-24T06:40:31Z</time>
      </trkpt>
      <trkpt lat="44.91516" lon="1.74384">
        <ele>126.8</ele>
        <time>2022-05-24T06:40:32Z</time>
      </trkpt>
      <trkpt lat="44.91514" lon="1.74376">
        <ele>126.8</ele>
        <time>2022-05-24T06:40:33Z</time>
      </trkpt>
      <trkpt lat="44.91511" lon="1.74368">
        <ele>126.8</ele>
        <time>2022-05-24T06:40:34Z</time>
      </trkpt>
      <trkpt lat="44.91509" lon="1.7436">
        <ele>126.8</ele>
        <time>2022-05-24T06:40:35Z</time>
      </trkpt>
      <trkpt lat="44.91506" lon="1.74352">
        <ele>126.8</ele>
        <time>2022-05-24T06:40:36Z</time>
      </trkpt>
      <trkpt lat="44.91504" lon="1.74344">
        <ele>126.8</ele>
        <time>2022-05-24T06:40:37Z</time>
      </trkpt>
      <trkpt lat="44.91502" lon="1.74336">
        <ele>126.8</ele>
        <time>2022-05-24T06:40:38Z</time>
      </trkpt>
      <trkpt lat="44.915" lon="1.74327">
        <ele>126.7</ele>
        <time>2022-05-24T06:40:39Z</time>
      </trkpt>
      <trkpt lat="44.91498" lon="1.74319">
        <ele>126.7</ele>
        <time>2022-05-24T06:40:40Z</time>
      </trkpt>
      <trkpt lat="44.91496" lon="1.74311">
        <ele>126.6</ele>
        <time>2022-05-24T06:40:41Z</time>
      </trkpt>
      <trkpt lat="44.91494" lon="1.74302">
        <ele>126.6</ele>
        <time>2022-05-24T06:40:42Z</time>
      </trkpt>
      <trkpt lat="44.91491" lon="1.74295">
        <ele>126.4</ele>
        <time>2022-05-24T06:40:43Z</time>
      </trkpt>
      <trkpt lat="44.91489" lon="1.74287">
        <ele>126.3</ele>
        <time>2022-05-24T06:40:44Z</time>
      </trkpt>
      <trkpt lat="44.91486" lon="1.74279">
        <ele>126.2</ele>
        <time>2022-05-24T06:40:45Z</time>
      </trkpt>
      <trkpt lat="44.91483" lon="1.7427">
        <ele>126</ele>
        <time>2022-05-24T06:40:46Z</time>
      </trkpt>
      <trkpt lat="44.91481" lon="1.74261">
        <ele>125.8</ele>
        <time>2022-05-24T06:40:47Z</time>
      </trkpt>
      <trkpt lat="44.91479" lon="1.74252">
        <ele>125.6</ele>
        <time>2022-05-24T06:40:48Z</time>
      </trkpt>
      <trkpt lat="44.91476" lon="1.74243">
        <ele>125.5</ele>
        <time>2022-05-24T06:40:49Z</time>
      </trkpt>
      <trkpt lat="44.91473" lon="1.74234">
        <ele>125.4</ele>
        <time>2022-05-24T06:40:50Z</time>
      </trkpt>
      <trkpt lat="44.91469" lon="1.74224">
        <ele>125.3</ele>
        <time>2022-05-24T06:40:51Z</time>
      </trkpt>
      <trkpt lat="44.91466" lon="1.74216">
        <ele>125.1</ele>
        <time>2022-05-24T06:40:52Z</time>
      </trkpt>
      <trkpt lat="44.91463" lon="1.74208">
        <ele>125</ele>
        <time>2022-05-24T06:40:53Z</time>
      </trkpt>
      <trkpt lat="44.91461" lon="1.742">
        <ele>124.9</ele>
        <time>2022-05-24T06:40:54Z</time>
      </trkpt>
      <trkpt lat="44.9146" lon="1.74192">
        <ele>124.8</ele>
        <time>2022-05-24T06:40:55Z</time>
      </trkpt>
      <trkpt lat="44.91457" lon="1.74182">
        <ele>124.6</ele>
        <time>2022-05-24T06:40:56Z</time>
      </trkpt>
      <trkpt lat="44.91454" lon="1.74175">
        <ele>124.4</ele>
        <time>2022-05-24T06:40:57Z</time>
      </trkpt>
      <trkpt lat="44.91452" lon="1.74168">
        <ele>124.2</ele>
        <time>2022-05-24T06:40:58Z</time>
      </trkpt>
      <trkpt lat="44.91449" lon="1.74158">
        <ele>124</ele>
        <time>2022-05-24T06:40:59Z</time>
      </trkpt>
      <trkpt lat="44.91447" lon="1.74146">
        <ele>123.8</ele>
        <time>2022-05-24T06:41:00Z</time>
      </trkpt>
      <trkpt lat="44.91444" lon="1.74133">
        <ele>123.5</ele>
        <time>2022-05-24T06:41:01Z</time>
      </trkpt>
      <trkpt lat="44.91442" lon="1.74123">
        <ele>123.3</ele>
        <time>2022-05-24T06:41:02Z</time>
      </trkpt>
      <trkpt lat="44.91439" lon="1.74112">
        <ele>123.2</ele>
        <time>2022-05-24T06:41:03Z</time>
      </trkpt>
      <trkpt lat="44.91437" lon="1.74101">
        <ele>123.1</ele>
        <time>2022-05-24T06:41:04Z</time>
      </trkpt>
      <trkpt lat="44.91434" lon="1.74091">
        <ele>122.9</ele>
        <time>2022-05-24T06:41:05Z</time>
      </trkpt>
      <trkpt lat="44.91432" lon="1.74082">
        <ele>122.8</ele>
        <time>2022-05-24T06:41:06Z</time>
      </trkpt>
      <trkpt lat="44.91429" lon="1.74072">
        <ele>122.7</ele>
        <time>2022-05-24T06:41:07Z</time>
      </trkpt>
      <trkpt lat="44.91426" lon="1.74063">
        <ele>122.7</ele>
        <time>2022-05-24T06:41:08Z</time>
      </trkpt>
      <trkpt lat="44.91424" lon="1.74054">
        <ele>122.7</ele>
        <time>2022-05-24T06:41:09Z</time>
      </trkpt>
      <trkpt lat="44.91421" lon="1.74045">
        <ele>122.7</ele>
        <time>2022-05-24T06:41:10Z</time>
      </trkpt>
      <trkpt lat="44.91419" lon="1.74036">
        <ele>122.7</ele>
        <time>2022-05-24T06:41:11Z</time>
      </trkpt>
      <trkpt lat="44.91417" lon="1.74028">
        <ele>122.7</ele>
        <time>2022-05-24T06:41:12Z</time>
      </trkpt>
      <trkpt lat="44.91415" lon="1.74019">
        <ele>122.7</ele>
        <time>2022-05-24T06:41:13Z</time>
      </trkpt>
      <trkpt lat="44.91412" lon="1.7401">
        <ele>122.7</ele>
        <time>2022-05-24T06:41:14Z</time>
      </trkpt>
      <trkpt lat="44.9141" lon="1.74002">
        <ele>122.7</ele>
        <time>2022-05-24T06:41:15Z</time>
      </trkpt>
      <trkpt lat="44.91408" lon="1.73993">
        <ele>122.7</ele>
        <time>2022-05-24T06:41:16Z</time>
      </trkpt>
      <trkpt lat="44.91406" lon="1.73984">
        <ele>122.7</ele>
        <time>2022-05-24T06:41:17Z</time>
      </trkpt>
      <trkpt lat="44.91404" lon="1.73975">
        <ele>122.8</ele>
        <time>2022-05-24T06:41:18Z</time>
      </trkpt>
      <trkpt lat="44.91402" lon="1.73967">
        <ele>122.8</ele>
        <time>2022-05-24T06:41:19Z</time>
      </trkpt>
      <trkpt lat="44.914" lon="1.73958">
        <ele>122.9</ele>
        <time>2022-05-24T06:41:20Z</time>
      </trkpt>
      <trkpt lat="44.91398" lon="1.7395">
        <ele>122.9</ele>
        <time>2022-05-24T06:41:21Z</time>
      </trkpt>
      <trkpt lat="44.91396" lon="1.73942">
        <ele>123</ele>
        <time>2022-05-24T06:41:22Z</time>
      </trkpt>
      <trkpt lat="44.91394" lon="1.73934">
        <ele>123.1</ele>
        <time>2022-05-24T06:41:23Z</time>
      </trkpt>
      <trkpt lat="44.91392" lon="1.73925">
        <ele>123.2</ele>
        <time>2022-05-24T06:41:24Z</time>
      </trkpt>
      <trkpt lat="44.9139" lon="1.73917">
        <ele>123.3</ele>
        <time>2022-05-24T06:41:25Z</time>
      </trkpt>
      <trkpt lat="44.91388" lon="1.73909">
        <ele>123.4</ele>
        <time>2022-05-24T06:41:26Z</time>
      </trkpt>
      <trkpt lat="44.91385" lon="1.73902">
        <ele>123.5</ele>
        <time>2022-05-24T06:41:27Z</time>
      </trkpt>
      <trkpt lat="44.91383" lon="1.73894">
        <ele>123.6</ele>
        <time>2022-05-24T06:41:28Z</time>
      </trkpt>
      <trkpt lat="44.91379" lon="1.73888">
        <ele>123.7</ele>
        <time>2022-05-24T06:41:29Z</time>
      </trkpt>
      <trkpt lat="44.91375" lon="1.73882">
        <ele>123.8</ele>
        <time>2022-05-24T06:41:30Z</time>
      </trkpt>
      <trkpt lat="44.91371" lon="1.73875">
        <ele>123.9</ele>
        <time>2022-05-24T06:41:31Z</time>
      </trkpt>
      <trkpt lat="44.91367" lon="1.7387">
        <ele>124</ele>
        <time>2022-05-24T06:41:32Z</time>
      </trkpt>
      <trkpt lat="44.91363" lon="1.73864">
        <ele>124.1</ele>
        <time>2022-05-24T06:41:33Z</time>
      </trkpt>
      <trkpt lat="44.91359" lon="1.73858">
        <ele>124.2</ele>
        <time>2022-05-24T06:41:34Z</time>
      </trkpt>
      <trkpt lat="44.91355" lon="1.73852">
        <ele>124.4</ele>
        <time>2022-05-24T06:41:35Z</time>
      </trkpt>
      <trkpt lat="44.91352" lon="1.73846">
        <ele>124.5</ele>
        <time>2022-05-24T06:41:36Z</time>
      </trkpt>
      <trkpt lat="44.91351" lon="1.7384">
        <ele>124.7</ele>
        <time>2022-05-24T06:41:37Z</time>
      </trkpt>
      <trkpt lat="44.91352" lon="1.73833">
        <ele>125.1</ele>
        <time>2022-05-24T06:41:38Z</time>
      </trkpt>
      <trkpt lat="44.91356" lon="1.73827">
        <ele>125.1</ele>
        <time>2022-05-24T06:41:39Z</time>
      </trkpt>
      <trkpt lat="44.9136" lon="1.73823">
        <ele>125.2</ele>
        <time>2022-05-24T06:41:40Z</time>
      </trkpt>
      <trkpt lat="44.91364" lon="1.7382">
        <ele>125.2</ele>
        <time>2022-05-24T06:41:41Z</time>
      </trkpt>
      <trkpt lat="44.91368" lon="1.73818">
        <ele>125.3</ele>
        <time>2022-05-24T06:41:42Z</time>
      </trkpt>
      <trkpt lat="44.91374" lon="1.73815">
        <ele>125.3</ele>
        <time>2022-05-24T06:41:43Z</time>
      </trkpt>
      <trkpt lat="44.91378" lon="1.73813">
        <ele>125.4</ele>
        <time>2022-05-24T06:41:44Z</time>
      </trkpt>
      <trkpt lat="44.91384" lon="1.73812">
        <ele>125.5</ele>
        <time>2022-05-24T06:41:45Z</time>
      </trkpt>
      <trkpt lat="44.91389" lon="1.7381">
        <ele>125.5</ele>
        <time>2022-05-24T06:41:46Z</time>
      </trkpt>
      <trkpt lat="44.91394" lon="1.73806">
        <ele>125.6</ele>
        <time>2022-05-24T06:41:47Z</time>
      </trkpt>
      <trkpt lat="44.91398" lon="1.73803">
        <ele>125.7</ele>
        <time>2022-05-24T06:41:48Z</time>
      </trkpt>
      <trkpt lat="44.91402" lon="1.738">
        <ele>125.8</ele>
        <time>2022-05-24T06:41:49Z</time>
      </trkpt>
      <trkpt lat="44.91406" lon="1.73798">
        <ele>125.9</ele>
        <time>2022-05-24T06:41:50Z</time>
      </trkpt>
      <trkpt lat="44.91411" lon="1.73796">
        <ele>126</ele>
        <time>2022-05-24T06:41:51Z</time>
      </trkpt>
      <trkpt lat="44.91416" lon="1.73794">
        <ele>126.1</ele>
        <time>2022-05-24T06:41:52Z</time>
      </trkpt>
      <trkpt lat="44.91421" lon="1.73792">
        <ele>126.2</ele>
        <time>2022-05-24T06:41:53Z</time>
      </trkpt>
      <trkpt lat="44.91427" lon="1.73787">
        <ele>126.3</ele>
        <time>2022-05-24T06:41:54Z</time>
      </trkpt>
      <trkpt lat="44.91432" lon="1.73784">
        <ele>126.4</ele>
        <time>2022-05-24T06:41:55Z</time>
      </trkpt>
      <trkpt lat="44.91438" lon="1.73781">
        <ele>126.6</ele>
        <time>2022-05-24T06:41:56Z</time>
      </trkpt>
      <trkpt lat="44.91444" lon="1.7378">
        <ele>126.7</ele>
        <time>2022-05-24T06:41:57Z</time>
      </trkpt>
      <trkpt lat="44.91449" lon="1.7378">
        <ele>126.9</ele>
        <time>2022-05-24T06:41:58Z</time>
      </trkpt>
      <trkpt lat="44.91454" lon="1.73778">
        <ele>127</ele>
        <time>2022-05-24T06:41:59Z</time>
      </trkpt>
      <trkpt lat="44.91459" lon="1.73777">
        <ele>127.2</ele>
        <time>2022-05-24T06:42:00Z</time>
      </trkpt>
      <trkpt lat="44.91464" lon="1.73776">
        <ele>127.4</ele>
        <time>2022-05-24T06:42:01Z</time>
      </trkpt>
      <trkpt lat="44.9147" lon="1.73774">
        <ele>127.6</ele>
        <time>2022-05-24T06:42:02Z</time>
      </trkpt>
      <trkpt lat="44.91481" lon="1.73773">
        <ele>128</ele>
        <time>2022-05-24T06:42:04Z</time>
      </trkpt>
      <trkpt lat="44.91486" lon="1.73771">
        <ele>128.2</ele>
        <time>2022-05-24T06:42:05Z</time>
      </trkpt>
      <trkpt lat="44.91491" lon="1.73769">
        <ele>128.4</ele>
        <time>2022-05-24T06:42:06Z</time>
      </trkpt>
      <trkpt lat="44.91496" lon="1.73767">
        <ele>128.6</ele>
        <time>2022-05-24T06:42:07Z</time>
      </trkpt>
      <trkpt lat="44.91501" lon="1.73764">
        <ele>128.8</ele>
        <time>2022-05-24T06:42:08Z</time>
      </trkpt>
      <trkpt lat="44.91505" lon="1.73761">
        <ele>129</ele>
        <time>2022-05-24T06:42:09Z</time>
      </trkpt>
      <trkpt lat="44.91511" lon="1.73759">
        <ele>129.2</ele>
        <time>2022-05-24T06:42:10Z</time>
      </trkpt>
      <trkpt lat="44.91516" lon="1.73756">
        <ele>129.4</ele>
        <time>2022-05-24T06:42:11Z</time>
      </trkpt>
      <trkpt lat="44.91521" lon="1.73754">
        <ele>129.7</ele>
        <time>2022-05-24T06:42:12Z</time>
      </trkpt>
      <trkpt lat="44.91526" lon="1.7375">
        <ele>129.8</ele>
        <time>2022-05-24T06:42:13Z</time>
      </trkpt>
      <trkpt lat="44.9153" lon="1.73747">
        <ele>130</ele>
        <time>2022-05-24T06:42:14Z</time>
      </trkpt>
      <trkpt lat="44.91532" lon="1.73742">
        <ele>130.2</ele>
        <time>2022-05-24T06:42:15Z</time>
      </trkpt>
      <trkpt lat="44.91535" lon="1.73737">
        <ele>130.3</ele>
        <time>2022-05-24T06:42:16Z</time>
      </trkpt>
      <trkpt lat="44.9154" lon="1.73733">
        <ele>130.5</ele>
        <time>2022-05-24T06:42:17Z</time>
      </trkpt>
      <trkpt lat="44.91545" lon="1.7373">
        <ele>130.7</ele>
        <time>2022-05-24T06:42:18Z</time>
      </trkpt>
      <trkpt lat="44.9155" lon="1.73726">
        <ele>130.8</ele>
        <time>2022-05-24T06:42:19Z</time>
      </trkpt>
      <trkpt lat="44.91554" lon="1.73721">
        <ele>131</ele>
        <time>2022-05-24T06:42:20Z</time>
      </trkpt>
      <trkpt lat="44.91558" lon="1.73717">
        <ele>131.2</ele>
        <time>2022-05-24T06:42:21Z</time>
      </trkpt>
      <trkpt lat="44.91562" lon="1.73713">
        <ele>131.4</ele>
        <time>2022-05-24T06:42:22Z</time>
      </trkpt>
      <trkpt lat="44.91565" lon="1.73708">
        <ele>131.6</ele>
        <time>2022-05-24T06:42:23Z</time>
      </trkpt>
      <trkpt lat="44.9157" lon="1.73705">
        <ele>131.9</ele>
        <time>2022-05-24T06:42:24Z</time>
      </trkpt>
      <trkpt lat="44.91576" lon="1.73702">
        <ele>132.1</ele>
        <time>2022-05-24T06:42:25Z</time>
      </trkpt>
      <trkpt lat="44.9158" lon="1.73698">
        <ele>132.3</ele>
        <time>2022-05-24T06:42:26Z</time>
      </trkpt>
      <trkpt lat="44.91585" lon="1.73694">
        <ele>132.5</ele>
        <time>2022-05-24T06:42:27Z</time>
      </trkpt>
      <trkpt lat="44.91589" lon="1.73691">
        <ele>132.7</ele>
        <time>2022-05-24T06:42:28Z</time>
      </trkpt>
      <trkpt lat="44.91594" lon="1.73688">
        <ele>132.9</ele>
        <time>2022-05-24T06:42:29Z</time>
      </trkpt>
      <trkpt lat="44.91599" lon="1.73686">
        <ele>133.1</ele>
        <time>2022-05-24T06:42:30Z</time>
      </trkpt>
      <trkpt lat="44.91603" lon="1.73683">
        <ele>133.2</ele>
        <time>2022-05-24T06:42:31Z</time>
      </trkpt>
      <trkpt lat="44.91606" lon="1.73678">
        <ele>133.4</ele>
        <time>2022-05-24T06:42:32Z</time>
      </trkpt>
      <trkpt lat="44.91611" lon="1.73674">
        <ele>133.6</ele>
        <time>2022-05-24T06:42:33Z</time>
      </trkpt>
      <trkpt lat="44.91617" lon="1.73672">
        <ele>133.8</ele>
        <time>2022-05-24T06:42:34Z</time>
      </trkpt>
      <trkpt lat="44.9162" lon="1.73669">
        <ele>133.9</ele>
        <time>2022-05-24T06:42:35Z</time>
      </trkpt>
      <trkpt lat="44.91624" lon="1.73665">
        <ele>134.1</ele>
        <time>2022-05-24T06:42:36Z</time>
      </trkpt>
      <trkpt lat="44.91629" lon="1.73662">
        <ele>134.2</ele>
        <time>2022-05-24T06:42:37Z</time>
      </trkpt>
      <trkpt lat="44.91633" lon="1.73658">
        <ele>134.4</ele>
        <time>2022-05-24T06:42:38Z</time>
      </trkpt>
      <trkpt lat="44.91636" lon="1.73654">
        <ele>134.5</ele>
        <time>2022-05-24T06:42:39Z</time>
      </trkpt>
      <trkpt lat="44.9164" lon="1.7365">
        <ele>134.7</ele>
        <time>2022-05-24T06:42:40Z</time>
      </trkpt>
      <trkpt lat="44.91645" lon="1.73646">
        <ele>134.8</ele>
        <time>2022-05-24T06:42:41Z</time>
      </trkpt>
      <trkpt lat="44.91649" lon="1.73643">
        <ele>135</ele>
        <time>2022-05-24T06:42:42Z</time>
      </trkpt>
      <trkpt lat="44.91653" lon="1.73639">
        <ele>135.1</ele>
        <time>2022-05-24T06:42:43Z</time>
      </trkpt>
      <trkpt lat="44.91656" lon="1.73635">
        <ele>135.3</ele>
        <time>2022-05-24T06:42:44Z</time>
      </trkpt>
      <trkpt lat="44.9166" lon="1.73629">
        <ele>135.4</ele>
        <time>2022-05-24T06:42:45Z</time>
      </trkpt>
      <trkpt lat="44.91663" lon="1.73625">
        <ele>135.6</ele>
        <time>2022-05-24T06:42:46Z</time>
      </trkpt>
      <trkpt lat="44.91668" lon="1.7362">
        <ele>135.7</ele>
        <time>2022-05-24T06:42:47Z</time>
      </trkpt>
      <trkpt lat="44.91672" lon="1.73616">
        <ele>135.9</ele>
        <time>2022-05-24T06:42:48Z</time>
      </trkpt>
      <trkpt lat="44.91676" lon="1.73612">
        <ele>136.1</ele>
        <time>2022-05-24T06:42:49Z</time>
      </trkpt>
      <trkpt lat="44.9168" lon="1.73607">
        <ele>136.3</ele>
        <time>2022-05-24T06:42:50Z</time>
      </trkpt>
      <trkpt lat="44.91683" lon="1.73602">
        <ele>136.4</ele>
        <time>2022-05-24T06:42:51Z</time>
      </trkpt>
      <trkpt lat="44.91687" lon="1.73598">
        <ele>136.6</ele>
        <time>2022-05-24T06:42:52Z</time>
      </trkpt>
      <trkpt lat="44.9169" lon="1.73594">
        <ele>136.7</ele>
        <time>2022-05-24T06:42:53Z</time>
      </trkpt>
      <trkpt lat="44.91693" lon="1.7359">
        <ele>136.9</ele>
        <time>2022-05-24T06:42:54Z</time>
      </trkpt>
      <trkpt lat="44.91697" lon="1.73586">
        <ele>137</ele>
        <time>2022-05-24T06:42:55Z</time>
      </trkpt>
      <trkpt lat="44.917" lon="1.7358">
        <ele>137.2</ele>
        <time>2022-05-24T06:42:56Z</time>
      </trkpt>
      <trkpt lat="44.91703" lon="1.73575">
        <ele>137.3</ele>
        <time>2022-05-24T06:42:57Z</time>
      </trkpt>
      <trkpt lat="44.91706" lon="1.7357">
        <ele>137.5</ele>
        <time>2022-05-24T06:42:58Z</time>
      </trkpt>
      <trkpt lat="44.91708" lon="1.73563">
        <ele>137.6</ele>
        <time>2022-05-24T06:42:59Z</time>
      </trkpt>
      <trkpt lat="44.91709" lon="1.73556">
        <ele>137.8</ele>
        <time>2022-05-24T06:43:00Z</time>
      </trkpt>
      <trkpt lat="44.9171" lon="1.73551">
        <ele>137.9</ele>
        <time>2022-05-24T06:43:01Z</time>
      </trkpt>
      <trkpt lat="44.91712" lon="1.73546">
        <ele>138</ele>
        <time>2022-05-24T06:43:02Z</time>
      </trkpt>
      <trkpt lat="44.91713" lon="1.73539">
        <ele>138.1</ele>
        <time>2022-05-24T06:43:03Z</time>
      </trkpt>
      <trkpt lat="44.91713" lon="1.73532">
        <ele>138.2</ele>
        <time>2022-05-24T06:43:04Z</time>
      </trkpt>
      <trkpt lat="44.91713" lon="1.73524">
        <ele>138.3</ele>
        <time>2022-05-24T06:43:05Z</time>
      </trkpt>
      <trkpt lat="44.91712" lon="1.73517">
        <ele>138.4</ele>
        <time>2022-05-24T06:43:06Z</time>
      </trkpt>
      <trkpt lat="44.91712" lon="1.73511">
        <ele>138.5</ele>
        <time>2022-05-24T06:43:07Z</time>
      </trkpt>
      <trkpt lat="44.91711" lon="1.73503">
        <ele>138.6</ele>
        <time>2022-05-24T06:43:08Z</time>
      </trkpt>
      <trkpt lat="44.91711" lon="1.73496">
        <ele>138.7</ele>
        <time>2022-05-24T06:43:09Z</time>
      </trkpt>
      <trkpt lat="44.91711" lon="1.73489">
        <ele>138.8</ele>
        <time>2022-05-24T06:43:10Z</time>
      </trkpt>
      <trkpt lat="44.91711" lon="1.73482">
        <ele>138.9</ele>
        <time>2022-05-24T06:43:11Z</time>
      </trkpt>
      <trkpt lat="44.9171" lon="1.73475">
        <ele>139</ele>
        <time>2022-05-24T06:43:12Z</time>
      </trkpt>
      <trkpt lat="44.9171" lon="1.73468">
        <ele>139.1</ele>
        <time>2022-05-24T06:43:13Z</time>
      </trkpt>
      <trkpt lat="44.91711" lon="1.73462">
        <ele>139.2</ele>
        <time>2022-05-24T06:43:14Z</time>
      </trkpt>
      <trkpt lat="44.91711" lon="1.73455">
        <ele>139.2</ele>
        <time>2022-05-24T06:43:15Z</time>
      </trkpt>
      <trkpt lat="44.91713" lon="1.73449">
        <ele>139.4</ele>
        <time>2022-05-24T06:43:16Z</time>
      </trkpt>
      <trkpt lat="44.91715" lon="1.73441">
        <ele>139.8</ele>
        <time>2022-05-24T06:43:17Z</time>
      </trkpt>
      <trkpt lat="44.91717" lon="1.73435">
        <ele>140.1</ele>
        <time>2022-05-24T06:43:18Z</time>
      </trkpt>
      <trkpt lat="44.91719" lon="1.73428">
        <ele>140.5</ele>
        <time>2022-05-24T06:43:19Z</time>
      </trkpt>
      <trkpt lat="44.91722" lon="1.73423">
        <ele>140.8</ele>
        <time>2022-05-24T06:43:20Z</time>
      </trkpt>
      <trkpt lat="44.91724" lon="1.73418">
        <ele>141</ele>
        <time>2022-05-24T06:43:21Z</time>
      </trkpt>
      <trkpt lat="44.91726" lon="1.73412">
        <ele>141.1</ele>
        <time>2022-05-24T06:43:22Z</time>
      </trkpt>
      <trkpt lat="44.91728" lon="1.73406">
        <ele>141.2</ele>
        <time>2022-05-24T06:43:23Z</time>
      </trkpt>
      <trkpt lat="44.91729" lon="1.73399">
        <ele>141.4</ele>
        <time>2022-05-24T06:43:24Z</time>
      </trkpt>
      <trkpt lat="44.91731" lon="1.73394">
        <ele>141.5</ele>
        <time>2022-05-24T06:43:25Z</time>
      </trkpt>
      <trkpt lat="44.91732" lon="1.73388">
        <ele>141.6</ele>
        <time>2022-05-24T06:43:26Z</time>
      </trkpt>
      <trkpt lat="44.91734" lon="1.73382">
        <ele>141.7</ele>
        <time>2022-05-24T06:43:27Z</time>
      </trkpt>
      <trkpt lat="44.91735" lon="1.73376">
        <ele>141.8</ele>
        <time>2022-05-24T06:43:28Z</time>
      </trkpt>
      <trkpt lat="44.91736" lon="1.7337">
        <ele>141.9</ele>
        <time>2022-05-24T06:43:29Z</time>
      </trkpt>
      <trkpt lat="44.91738" lon="1.73349">
        <ele>142.2</ele>
        <time>2022-05-24T06:43:33Z</time>
      </trkpt>
      <trkpt lat="44.91738" lon="1.73338">
        <ele>142.3</ele>
        <time>2022-05-24T06:43:35Z</time>
      </trkpt>
      <trkpt lat="44.91738" lon="1.73326">
        <ele>142.4</ele>
        <time>2022-05-24T06:43:36Z</time>
      </trkpt>
      <trkpt lat="44.91738" lon="1.73318">
        <ele>142.5</ele>
        <time>2022-05-24T06:43:37Z</time>
      </trkpt>
      <trkpt lat="44.91738" lon="1.73312">
        <ele>142.5</ele>
        <time>2022-05-24T06:43:38Z</time>
      </trkpt>
      <trkpt lat="44.91737" lon="1.73305">
        <ele>142.6</ele>
        <time>2022-05-24T06:43:39Z</time>
      </trkpt>
      <trkpt lat="44.91737" lon="1.73299">
        <ele>142.6</ele>
        <time>2022-05-24T06:43:40Z</time>
      </trkpt>
      <trkpt lat="44.91736" lon="1.73292">
        <ele>142.7</ele>
        <time>2022-05-24T06:43:41Z</time>
      </trkpt>
      <trkpt lat="44.91735" lon="1.73286">
        <ele>142.7</ele>
        <time>2022-05-24T06:43:42Z</time>
      </trkpt>
      <trkpt lat="44.91735" lon="1.73278">
        <ele>142.8</ele>
        <time>2022-05-24T06:43:43Z</time>
      </trkpt>
      <trkpt lat="44.91734" lon="1.73271">
        <ele>142.9</ele>
        <time>2022-05-24T06:43:44Z</time>
      </trkpt>
      <trkpt lat="44.91734" lon="1.73263">
        <ele>142.9</ele>
        <time>2022-05-24T06:43:45Z</time>
      </trkpt>
      <trkpt lat="44.91733" lon="1.73256">
        <ele>142.9</ele>
        <time>2022-05-24T06:43:46Z</time>
      </trkpt>
      <trkpt lat="44.91732" lon="1.73249">
        <ele>143</ele>
        <time>2022-05-24T06:43:47Z</time>
      </trkpt>
      <trkpt lat="44.91732" lon="1.73241">
        <ele>143</ele>
        <time>2022-05-24T06:43:48Z</time>
      </trkpt>
      <trkpt lat="44.91732" lon="1.73234">
        <ele>143</ele>
        <time>2022-05-24T06:43:49Z</time>
      </trkpt>
      <trkpt lat="44.91733" lon="1.73227">
        <ele>143</ele>
        <time>2022-05-24T06:43:50Z</time>
      </trkpt>
      <trkpt lat="44.91732" lon="1.7322">
        <ele>143</ele>
        <time>2022-05-24T06:43:51Z</time>
      </trkpt>
      <trkpt lat="44.91732" lon="1.73213">
        <ele>143</ele>
        <time>2022-05-24T06:43:52Z</time>
      </trkpt>
      <trkpt lat="44.91732" lon="1.73206">
        <ele>143</ele>
        <time>2022-05-24T06:43:53Z</time>
      </trkpt>
      <trkpt lat="44.91731" lon="1.73199">
        <ele>143</ele>
        <time>2022-05-24T06:43:54Z</time>
      </trkpt>
      <trkpt lat="44.91731" lon="1.73192">
        <ele>142.9</ele>
        <time>2022-05-24T06:43:55Z</time>
      </trkpt>
      <trkpt lat="44.9173" lon="1.73186">
        <ele>142.9</ele>
        <time>2022-05-24T06:43:56Z</time>
      </trkpt>
      <trkpt lat="44.91729" lon="1.73179">
        <ele>142.9</ele>
        <time>2022-05-24T06:43:57Z</time>
      </trkpt>
      <trkpt lat="44.91728" lon="1.73172">
        <ele>142.9</ele>
        <time>2022-05-24T06:43:58Z</time>
      </trkpt>
      <trkpt lat="44.91728" lon="1.73164">
        <ele>142.9</ele>
        <time>2022-05-24T06:43:59Z</time>
      </trkpt>
      <trkpt lat="44.91728" lon="1.73157">
        <ele>142.8</ele>
        <time>2022-05-24T06:44:00Z</time>
      </trkpt>
      <trkpt lat="44.91728" lon="1.73149">
        <ele>142.8</ele>
        <time>2022-05-24T06:44:01Z</time>
      </trkpt>
      <trkpt lat="44.91728" lon="1.73143">
        <ele>142.8</ele>
        <time>2022-05-24T06:44:02Z</time>
      </trkpt>
      <trkpt lat="44.91728" lon="1.73137">
        <ele>142.8</ele>
        <time>2022-05-24T06:44:03Z</time>
      </trkpt>
      <trkpt lat="44.91728" lon="1.73132">
        <ele>142.8</ele>
        <time>2022-05-24T06:44:04Z</time>
      </trkpt>
      <trkpt lat="44.91729" lon="1.73129">
        <ele>142.8</ele>
        <time>2022-05-24T06:44:05Z</time>
      </trkpt>
      <trkpt lat="44.9173" lon="1.73128">
        <ele>141.5</ele>
        <time>2022-05-24T06:44:06Z</time>
      </trkpt>
      <trkpt lat="44.91731" lon="1.73127">
        <ele>141.4</ele>
        <time>2022-05-24T06:44:07Z</time>
      </trkpt>
      <trkpt lat="44.91731" lon="1.73126">
        <ele>141.3</ele>
        <time>2022-05-24T06:44:08Z</time>
      </trkpt>
      <trkpt lat="44.91733" lon="1.73128">
        <ele>141.1</ele>
        <time>2022-05-24T06:44:09Z</time>
      </trkpt>
      <trkpt lat="44.91735" lon="1.73132">
        <ele>141</ele>
        <time>2022-05-24T06:44:10Z</time>
      </trkpt>
      <trkpt lat="44.91736" lon="1.73134">
        <ele>140.8</ele>
        <time>2022-05-24T06:44:11Z</time>
      </trkpt>
      <trkpt lat="44.91738" lon="1.73136">
        <ele>140.7</ele>
        <time>2022-05-24T06:44:12Z</time>
      </trkpt>
      <trkpt lat="44.91742" lon="1.73138">
        <ele>140.2</ele>
        <time>2022-05-24T06:44:13Z</time>
      </trkpt>
      <trkpt lat="44.91745" lon="1.7314">
        <ele>140</ele>
        <time>2022-05-24T06:44:14Z</time>
      </trkpt>
      <trkpt lat="44.91748" lon="1.73142">
        <ele>139.9</ele>
        <time>2022-05-24T06:44:15Z</time>
      </trkpt>
      <trkpt lat="44.91751" lon="1.73143">
        <ele>139.7</ele>
        <time>2022-05-24T06:44:16Z</time>
      </trkpt>
      <trkpt lat="44.91753" lon="1.73145">
        <ele>138.9</ele>
        <time>2022-05-24T06:44:17Z</time>
      </trkpt>
      <trkpt lat="44.91756" lon="1.73147">
        <ele>138.8</ele>
        <time>2022-05-24T06:44:18Z</time>
      </trkpt>
      <trkpt lat="44.91759" lon="1.73149">
        <ele>138.6</ele>
        <time>2022-05-24T06:44:19Z</time>
      </trkpt>
      <trkpt lat="44.91763" lon="1.7315">
        <ele>138.5</ele>
        <time>2022-05-24T06:44:20Z</time>
      </trkpt>
      <trkpt lat="44.91765" lon="1.73151">
        <ele>138.3</ele>
        <time>2022-05-24T06:44:21Z</time>
      </trkpt>
      <trkpt lat="44.91766" lon="1.73151">
        <ele>137.8</ele>
        <time>2022-05-24T06:44:22Z</time>
      </trkpt>
      <trkpt lat="44.91767" lon="1.73149">
        <ele>137.5</ele>
        <time>2022-05-24T06:44:23Z</time>
      </trkpt>
      <trkpt lat="44.91769" lon="1.73146">
        <ele>137.2</ele>
        <time>2022-05-24T06:44:24Z</time>
      </trkpt>
      <trkpt lat="44.9177" lon="1.73144">
        <ele>137</ele>
        <time>2022-05-24T06:44:25Z</time>
      </trkpt>
      <trkpt lat="44.91772" lon="1.73135">
        <ele>136.3</ele>
        <time>2022-05-24T06:44:26Z</time>
      </trkpt>
      <trkpt lat="44.91775" lon="1.73128">
        <ele>135.8</ele>
        <time>2022-05-24T06:44:27Z</time>
      </trkpt>
      <trkpt lat="44.91778" lon="1.73121">
        <ele>135.4</ele>
        <time>2022-05-24T06:44:28Z</time>
      </trkpt>
      <trkpt lat="44.91783" lon="1.73115">
        <ele>135.2</ele>
        <time>2022-05-24T06:44:29Z</time>
      </trkpt>
      <trkpt lat="44.91787" lon="1.7311">
        <ele>135.2</ele>
        <time>2022-05-24T06:44:30Z</time>
      </trkpt>
      <trkpt lat="44.9179" lon="1.73104">
        <ele>135.2</ele>
        <time>2022-05-24T06:44:31Z</time>
      </trkpt>
      <trkpt lat="44.91794" lon="1.73097">
        <ele>135.4</ele>
        <time>2022-05-24T06:44:32Z</time>
      </trkpt>
      <trkpt lat="44.91797" lon="1.73091">
        <ele>135.7</ele>
        <time>2022-05-24T06:44:33Z</time>
      </trkpt>
      <trkpt lat="44.91801" lon="1.73085">
        <ele>136.1</ele>
        <time>2022-05-24T06:44:34Z</time>
      </trkpt>
      <trkpt lat="44.91804" lon="1.73079">
        <ele>136.5</ele>
        <time>2022-05-24T06:44:35Z</time>
      </trkpt>
      <trkpt lat="44.91806" lon="1.73073">
        <ele>136.8</ele>
        <time>2022-05-24T06:44:36Z</time>
      </trkpt>
      <trkpt lat="44.91807" lon="1.73068">
        <ele>137.1</ele>
        <time>2022-05-24T06:44:37Z</time>
      </trkpt>
      <trkpt lat="44.91808" lon="1.73064">
        <ele>137.3</ele>
        <time>2022-05-24T06:44:38Z</time>
      </trkpt>
      <trkpt lat="44.9181" lon="1.73061">
        <ele>137.5</ele>
        <time>2022-05-24T06:44:39Z</time>
      </trkpt>
      <trkpt lat="44.91811" lon="1.73056">
        <ele>138.7</ele>
        <time>2022-05-24T06:44:40Z</time>
      </trkpt>
      <trkpt lat="44.91811" lon="1.73054">
        <ele>139.2</ele>
        <time>2022-05-24T06:44:41Z</time>
      </trkpt>
      <trkpt lat="44.91811" lon="1.7305">
        <ele>140.1</ele>
        <time>2022-05-24T06:44:42Z</time>
      </trkpt>
      <trkpt lat="44.9181" lon="1.73046">
        <ele>141</ele>
        <time>2022-05-24T06:44:43Z</time>
      </trkpt>
      <trkpt lat="44.91809" lon="1.73042">
        <ele>141.9</ele>
        <time>2022-05-24T06:44:44Z</time>
      </trkpt>
      <trkpt lat="44.91809" lon="1.73038">
        <ele>142.8</ele>
        <time>2022-05-24T06:44:45Z</time>
      </trkpt>
      <trkpt lat="44.91809" lon="1.73033">
        <ele>144.1</ele>
        <time>2022-05-24T06:44:46Z</time>
      </trkpt>
      <trkpt lat="44.91809" lon="1.73031">
        <ele>144.5</ele>
        <time>2022-05-24T06:44:47Z</time>
      </trkpt>
      <trkpt lat="44.91809" lon="1.73027">
        <ele>145.6</ele>
        <time>2022-05-24T06:44:48Z</time>
      </trkpt>
      <trkpt lat="44.91809" lon="1.73025">
        <ele>146</ele>
        <time>2022-05-24T06:44:49Z</time>
      </trkpt>
      <trkpt lat="44.9181" lon="1.7302">
        <ele>147.2</ele>
        <time>2022-05-24T06:44:50Z</time>
      </trkpt>
      <trkpt lat="44.9181" lon="1.73018">
        <ele>147.6</ele>
        <time>2022-05-24T06:44:51Z</time>
      </trkpt>
      <trkpt lat="44.91812" lon="1.73014">
        <ele>148.7</ele>
        <time>2022-05-24T06:44:52Z</time>
      </trkpt>
      <trkpt lat="44.91812" lon="1.73012">
        <ele>149</ele>
        <time>2022-05-24T06:44:53Z</time>
      </trkpt>
      <trkpt lat="44.91813" lon="1.73008">
        <ele>150.1</ele>
        <time>2022-05-24T06:44:54Z</time>
      </trkpt>
      <trkpt lat="44.91813" lon="1.73007">
        <ele>150.4</ele>
        <time>2022-05-24T06:44:55Z</time>
      </trkpt>
      <trkpt lat="44.91814" lon="1.73004">
        <ele>151</ele>
        <time>2022-05-24T06:44:56Z</time>
      </trkpt>
      <trkpt lat="44.91814" lon="1.73002">
        <ele>151.6</ele>
        <time>2022-05-24T06:44:57Z</time>
      </trkpt>
      <trkpt lat="44.91813" lon="1.72998">
        <ele>152.6</ele>
        <time>2022-05-24T06:44:58Z</time>
      </trkpt>
      <trkpt lat="44.91812" lon="1.72997">
        <ele>153</ele>
        <time>2022-05-24T06:44:59Z</time>
      </trkpt>
      <trkpt lat="44.91811" lon="1.72992">
        <ele>154.2</ele>
        <time>2022-05-24T06:45:00Z</time>
      </trkpt>
      <trkpt lat="44.9181" lon="1.72991">
        <ele>154.6</ele>
        <time>2022-05-24T06:45:01Z</time>
      </trkpt>
      <trkpt lat="44.91809" lon="1.72986">
        <ele>155.2</ele>
        <time>2022-05-24T06:45:02Z</time>
      </trkpt>
      <trkpt lat="44.91809" lon="1.72985">
        <ele>155.4</ele>
        <time>2022-05-24T06:45:03Z</time>
      </trkpt>
      <trkpt lat="44.91808" lon="1.7298">
        <ele>155.9</ele>
        <time>2022-05-24T06:45:04Z</time>
      </trkpt>
      <trkpt lat="44.91808" lon="1.72978">
        <ele>156.1</ele>
        <time>2022-05-24T06:45:05Z</time>
      </trkpt>
      <trkpt lat="44.91807" lon="1.72973">
        <ele>156.7</ele>
        <time>2022-05-24T06:45:06Z</time>
      </trkpt>
      <trkpt lat="44.91807" lon="1.72972">
        <ele>156.9</ele>
        <time>2022-05-24T06:45:07Z</time>
      </trkpt>
      <trkpt lat="44.91806" lon="1.72969">
        <ele>157.1</ele>
        <time>2022-05-24T06:45:08Z</time>
      </trkpt>
      <trkpt lat="44.91806" lon="1.72967">
        <ele>157.4</ele>
        <time>2022-05-24T06:45:09Z</time>
      </trkpt>
      <trkpt lat="44.91806" lon="1.72965">
        <ele>157.6</ele>
        <time>2022-05-24T06:45:10Z</time>
      </trkpt>
      <trkpt lat="44.91806" lon="1.72963">
        <ele>157.8</ele>
        <time>2022-05-24T06:45:11Z</time>
      </trkpt>
      <trkpt lat="44.91806" lon="1.7296">
        <ele>158</ele>
        <time>2022-05-24T06:45:12Z</time>
      </trkpt>
      <trkpt lat="44.91806" lon="1.72958">
        <ele>158.3</ele>
        <time>2022-05-24T06:45:13Z</time>
      </trkpt>
      <trkpt lat="44.91806" lon="1.72956">
        <ele>158.6</ele>
        <time>2022-05-24T06:45:14Z</time>
      </trkpt>
      <trkpt lat="44.91806" lon="1.72953">
        <ele>158.8</ele>
        <time>2022-05-24T06:45:15Z</time>
      </trkpt>
      <trkpt lat="44.91805" lon="1.7295">
        <ele>159.2</ele>
        <time>2022-05-24T06:45:16Z</time>
      </trkpt>
      <trkpt lat="44.91805" lon="1.72949">
        <ele>159.3</ele>
        <time>2022-05-24T06:45:17Z</time>
      </trkpt>
      <trkpt lat="44.91805" lon="1.72948">
        <ele>159.4</ele>
        <time>2022-05-24T06:45:18Z</time>
      </trkpt>
      <trkpt lat="44.91804" lon="1.72946">
        <ele>159.7</ele>
        <time>2022-05-24T06:45:19Z</time>
      </trkpt>
      <trkpt lat="44.91804" lon="1.72944">
        <ele>159.8</ele>
        <time>2022-05-24T06:45:20Z</time>
      </trkpt>
      <trkpt lat="44.91804" lon="1.72944">
        <ele>159.9</ele>
        <time>2022-05-24T06:45:21Z</time>
      </trkpt>
      <trkpt lat="44.91803" lon="1.72943">
        <ele>160</ele>
        <time>2022-05-24T06:45:22Z</time>
      </trkpt>
      <trkpt lat="44.91803" lon="1.72942">
        <ele>160.1</ele>
        <time>2022-05-24T06:45:23Z</time>
      </trkpt>
      <trkpt lat="44.91802" lon="1.72939">
        <ele>160.4</ele>
        <time>2022-05-24T06:45:24Z</time>
      </trkpt>
      <trkpt lat="44.91801" lon="1.72935">
        <ele>161</ele>
        <time>2022-05-24T06:45:25Z</time>
      </trkpt>
      <trkpt lat="44.918" lon="1.72934">
        <ele>161.1</ele>
        <time>2022-05-24T06:45:26Z</time>
      </trkpt>
      <trkpt lat="44.91799" lon="1.72931">
        <ele>161.6</ele>
        <time>2022-05-24T06:45:27Z</time>
      </trkpt>
      <trkpt lat="44.91798" lon="1.7293">
        <ele>161.7</ele>
        <time>2022-05-24T06:45:28Z</time>
      </trkpt>
      <trkpt lat="44.91796" lon="1.72927">
        <ele>162.2</ele>
        <time>2022-05-24T06:45:29Z</time>
      </trkpt>
      <trkpt lat="44.91796" lon="1.72926">
        <ele>162.4</ele>
        <time>2022-05-24T06:45:30Z</time>
      </trkpt>
      <trkpt lat="44.91795" lon="1.72925">
        <ele>162.6</ele>
        <time>2022-05-24T06:45:31Z</time>
      </trkpt>
      <trkpt lat="44.91793" lon="1.72924">
        <ele>162.8</ele>
        <time>2022-05-24T06:45:32Z</time>
      </trkpt>
      <trkpt lat="44.91792" lon="1.72923">
        <ele>163.1</ele>
        <time>2022-05-24T06:45:33Z</time>
      </trkpt>
      <trkpt lat="44.91791" lon="1.72921">
        <ele>163.3</ele>
        <time>2022-05-24T06:45:34Z</time>
      </trkpt>
      <trkpt lat="44.91789" lon="1.72919">
        <ele>163.7</ele>
        <time>2022-05-24T06:45:35Z</time>
      </trkpt>
      <trkpt lat="44.91789" lon="1.72919">
        <ele>163.9</ele>
        <time>2022-05-24T06:45:36Z</time>
      </trkpt>
      <trkpt lat="44.91788" lon="1.72918">
        <ele>164.1</ele>
        <time>2022-05-24T06:45:37Z</time>
      </trkpt>
      <trkpt lat="44.91786" lon="1.72917">
        <ele>164.5</ele>
        <time>2022-05-24T06:45:38Z</time>
      </trkpt>
      <trkpt lat="44.91786" lon="1.72916">
        <ele>164.6</ele>
        <time>2022-05-24T06:45:39Z</time>
      </trkpt>
      <trkpt lat="44.91785" lon="1.72916">
        <ele>164.7</ele>
        <time>2022-05-24T06:45:40Z</time>
      </trkpt>
      <trkpt lat="44.91784" lon="1.72915">
        <ele>164.9</ele>
        <time>2022-05-24T06:45:41Z</time>
      </trkpt>
      <trkpt lat="44.91783" lon="1.72914">
        <ele>165.1</ele>
        <time>2022-05-24T06:45:42Z</time>
      </trkpt>
      <trkpt lat="44.91783" lon="1.72913">
        <ele>165.3</ele>
        <time>2022-05-24T06:45:43Z</time>
      </trkpt>
      <trkpt lat="44.91781" lon="1.72909">
        <ele>165.9</ele>
        <time>2022-05-24T06:45:44Z</time>
      </trkpt>
      <trkpt lat="44.91781" lon="1.72908">
        <ele>166.1</ele>
        <time>2022-05-24T06:45:45Z</time>
      </trkpt>
      <trkpt lat="44.91779" lon="1.72904">
        <ele>166.6</ele>
        <time>2022-05-24T06:45:46Z</time>
      </trkpt>
      <trkpt lat="44.91779" lon="1.72903">
        <ele>166.8</ele>
        <time>2022-05-24T06:45:47Z</time>
      </trkpt>
      <trkpt lat="44.91777" lon="1.72901">
        <ele>167.2</ele>
        <time>2022-05-24T06:45:48Z</time>
      </trkpt>
      <trkpt lat="44.91777" lon="1.729">
        <ele>167.3</ele>
        <time>2022-05-24T06:45:49Z</time>
      </trkpt>
      <trkpt lat="44.91776" lon="1.72899">
        <ele>167.5</ele>
        <time>2022-05-24T06:45:50Z</time>
      </trkpt>
      <trkpt lat="44.91774" lon="1.72896">
        <ele>168</ele>
        <time>2022-05-24T06:45:51Z</time>
      </trkpt>
      <trkpt lat="44.91773" lon="1.72895">
        <ele>168.2</ele>
        <time>2022-05-24T06:45:52Z</time>
      </trkpt>
      <trkpt lat="44.91772" lon="1.72894">
        <ele>168.5</ele>
        <time>2022-05-24T06:45:53Z</time>
      </trkpt>
      <trkpt lat="44.91771" lon="1.72892">
        <ele>168.8</ele>
        <time>2022-05-24T06:45:54Z</time>
      </trkpt>
      <trkpt lat="44.9177" lon="1.72891">
        <ele>169</ele>
        <time>2022-05-24T06:45:55Z</time>
      </trkpt>
      <trkpt lat="44.91769" lon="1.72889">
        <ele>169.2</ele>
        <time>2022-05-24T06:45:56Z</time>
      </trkpt>
      <trkpt lat="44.91768" lon="1.72887">
        <ele>169.5</ele>
        <time>2022-05-24T06:45:57Z</time>
      </trkpt>
      <trkpt lat="44.91768" lon="1.72886">
        <ele>169.6</ele>
        <time>2022-05-24T06:45:58Z</time>
      </trkpt>
      <trkpt lat="44.91767" lon="1.72884">
        <ele>169.9</ele>
        <time>2022-05-24T06:45:59Z</time>
      </trkpt>
      <trkpt lat="44.91766" lon="1.72883">
        <ele>170.1</ele>
        <time>2022-05-24T06:46:00Z</time>
      </trkpt>
      <trkpt lat="44.91765" lon="1.72882">
        <ele>170.2</ele>
        <time>2022-05-24T06:46:01Z</time>
      </trkpt>
      <trkpt lat="44.91764" lon="1.72881">
        <ele>170.3</ele>
        <time>2022-05-24T06:46:02Z</time>
      </trkpt>
      <trkpt lat="44.91764" lon="1.72879">
        <ele>170.5</ele>
        <time>2022-05-24T06:46:03Z</time>
      </trkpt>
      <trkpt lat="44.91763" lon="1.72877">
        <ele>170.6</ele>
        <time>2022-05-24T06:46:04Z</time>
      </trkpt>
      <trkpt lat="44.91763" lon="1.72875">
        <ele>170.8</ele>
        <time>2022-05-24T06:46:05Z</time>
      </trkpt>
      <trkpt lat="44.91763" lon="1.72873">
        <ele>171.1</ele>
        <time>2022-05-24T06:46:06Z</time>
      </trkpt>
      <trkpt lat="44.91763" lon="1.7287">
        <ele>171.3</ele>
        <time>2022-05-24T06:46:07Z</time>
      </trkpt>
      <trkpt lat="44.91763" lon="1.72868">
        <ele>171.5</ele>
        <time>2022-05-24T06:46:08Z</time>
      </trkpt>
      <trkpt lat="44.91763" lon="1.72866">
        <ele>171.7</ele>
        <time>2022-05-24T06:46:09Z</time>
      </trkpt>
      <trkpt lat="44.91762" lon="1.72865">
        <ele>171.8</ele>
        <time>2022-05-24T06:46:10Z</time>
      </trkpt>
      <trkpt lat="44.91762" lon="1.72864">
        <ele>171.9</ele>
        <time>2022-05-24T06:46:11Z</time>
      </trkpt>
      <trkpt lat="44.91761" lon="1.72862">
        <ele>172.1</ele>
        <time>2022-05-24T06:46:12Z</time>
      </trkpt>
      <trkpt lat="44.9176" lon="1.72861">
        <ele>172.3</ele>
        <time>2022-05-24T06:46:13Z</time>
      </trkpt>
      <trkpt lat="44.91759" lon="1.7286">
        <ele>172.5</ele>
        <time>2022-05-24T06:46:14Z</time>
      </trkpt>
      <trkpt lat="44.91758" lon="1.7286">
        <ele>172.7</ele>
        <time>2022-05-24T06:46:15Z</time>
      </trkpt>
      <trkpt lat="44.91756" lon="1.72859">
        <ele>173</ele>
        <time>2022-05-24T06:46:16Z</time>
      </trkpt>
      <trkpt lat="44.91754" lon="1.72858">
        <ele>173.3</ele>
        <time>2022-05-24T06:46:17Z</time>
      </trkpt>
      <trkpt lat="44.91753" lon="1.72856">
        <ele>173.7</ele>
        <time>2022-05-24T06:46:18Z</time>
      </trkpt>
      <trkpt lat="44.91752" lon="1.72855">
        <ele>173.9</ele>
        <time>2022-05-24T06:46:19Z</time>
      </trkpt>
      <trkpt lat="44.91751" lon="1.72854">
        <ele>174</ele>
        <time>2022-05-24T06:46:20Z</time>
      </trkpt>
      <trkpt lat="44.9175" lon="1.72853">
        <ele>174.3</ele>
        <time>2022-05-24T06:46:21Z</time>
      </trkpt>
      <trkpt lat="44.91749" lon="1.72853">
        <ele>174.4</ele>
        <time>2022-05-24T06:46:22Z</time>
      </trkpt>
      <trkpt lat="44.91749" lon="1.72851">
        <ele>174.7</ele>
        <time>2022-05-24T06:46:23Z</time>
      </trkpt>
      <trkpt lat="44.91747" lon="1.7285">
        <ele>174.9</ele>
        <time>2022-05-24T06:46:24Z</time>
      </trkpt>
      <trkpt lat="44.91746" lon="1.72849">
        <ele>175.2</ele>
        <time>2022-05-24T06:46:25Z</time>
      </trkpt>
      <trkpt lat="44.91745" lon="1.72847">
        <ele>175.5</ele>
        <time>2022-05-24T06:46:26Z</time>
      </trkpt>
      <trkpt lat="44.91744" lon="1.72846">
        <ele>175.7</ele>
        <time>2022-05-24T06:46:27Z</time>
      </trkpt>
      <trkpt lat="44.91744" lon="1.72845">
        <ele>175.8</ele>
        <time>2022-05-24T06:46:28Z</time>
      </trkpt>
      <trkpt lat="44.91743" lon="1.72843">
        <ele>176.1</ele>
        <time>2022-05-24T06:46:29Z</time>
      </trkpt>
      <trkpt lat="44.91742" lon="1.72842">
        <ele>176.3</ele>
        <time>2022-05-24T06:46:30Z</time>
      </trkpt>
      <trkpt lat="44.9174" lon="1.7284">
        <ele>176.5</ele>
        <time>2022-05-24T06:46:31Z</time>
      </trkpt>
      <trkpt lat="44.91739" lon="1.72839">
        <ele>176.7</ele>
        <time>2022-05-24T06:46:32Z</time>
      </trkpt>
      <trkpt lat="44.91738" lon="1.72838">
        <ele>177</ele>
        <time>2022-05-24T06:46:33Z</time>
      </trkpt>
      <trkpt lat="44.91737" lon="1.72836">
        <ele>177.2</ele>
        <time>2022-05-24T06:46:34Z</time>
      </trkpt>
      <trkpt lat="44.91735" lon="1.72834">
        <ele>177.5</ele>
        <time>2022-05-24T06:46:35Z</time>
      </trkpt>
      <trkpt lat="44.91734" lon="1.72833">
        <ele>177.6</ele>
        <time>2022-05-24T06:46:36Z</time>
      </trkpt>
      <trkpt lat="44.91733" lon="1.72831">
        <ele>177.8</ele>
        <time>2022-05-24T06:46:37Z</time>
      </trkpt>
      <trkpt lat="44.91732" lon="1.72829">
        <ele>178</ele>
        <time>2022-05-24T06:46:38Z</time>
      </trkpt>
      <trkpt lat="44.91731" lon="1.72828">
        <ele>178.1</ele>
        <time>2022-05-24T06:46:39Z</time>
      </trkpt>
      <trkpt lat="44.9173" lon="1.72826">
        <ele>178.3</ele>
        <time>2022-05-24T06:46:40Z</time>
      </trkpt>
      <trkpt lat="44.91729" lon="1.72824">
        <ele>178.5</ele>
        <time>2022-05-24T06:46:41Z</time>
      </trkpt>
      <trkpt lat="44.91728" lon="1.72822">
        <ele>178.7</ele>
        <time>2022-05-24T06:46:42Z</time>
      </trkpt>
      <trkpt lat="44.91728" lon="1.72821">
        <ele>178.8</ele>
        <time>2022-05-24T06:46:43Z</time>
      </trkpt>
      <trkpt lat="44.91727" lon="1.7282">
        <ele>178.9</ele>
        <time>2022-05-24T06:46:44Z</time>
      </trkpt>
      <trkpt lat="44.91726" lon="1.72819">
        <ele>179</ele>
        <time>2022-05-24T06:46:45Z</time>
      </trkpt>
      <trkpt lat="44.91725" lon="1.72817">
        <ele>179.2</ele>
        <time>2022-05-24T06:46:46Z</time>
      </trkpt>
      <trkpt lat="44.91724" lon="1.72815">
        <ele>179.4</ele>
        <time>2022-05-24T06:46:47Z</time>
      </trkpt>
      <trkpt lat="44.91723" lon="1.72814">
        <ele>179.6</ele>
        <time>2022-05-24T06:46:48Z</time>
      </trkpt>
      <trkpt lat="44.91722" lon="1.72812">
        <ele>179.8</ele>
        <time>2022-05-24T06:46:49Z</time>
      </trkpt>
      <trkpt lat="44.9172" lon="1.7281">
        <ele>180.1</ele>
        <time>2022-05-24T06:46:50Z</time>
      </trkpt>
      <trkpt lat="44.91719" lon="1.72809">
        <ele>180.2</ele>
        <time>2022-05-24T06:46:51Z</time>
      </trkpt>
      <trkpt lat="44.91718" lon="1.72808">
        <ele>180.3</ele>
        <time>2022-05-24T06:46:52Z</time>
      </trkpt>
      <trkpt lat="44.91718" lon="1.72806">
        <ele>180.5</ele>
        <time>2022-05-24T06:46:53Z</time>
      </trkpt>
      <trkpt lat="44.91717" lon="1.72804">
        <ele>180.7</ele>
        <time>2022-05-24T06:46:54Z</time>
      </trkpt>
      <trkpt lat="44.91716" lon="1.72803">
        <ele>180.9</ele>
        <time>2022-05-24T06:46:55Z</time>
      </trkpt>
      <trkpt lat="44.91714" lon="1.72802">
        <ele>181.1</ele>
        <time>2022-05-24T06:46:56Z</time>
      </trkpt>
      <trkpt lat="44.91713" lon="1.728">
        <ele>181.3</ele>
        <time>2022-05-24T06:46:57Z</time>
      </trkpt>
      <trkpt lat="44.91712" lon="1.72799">
        <ele>181.5</ele>
        <time>2022-05-24T06:46:58Z</time>
      </trkpt>
      <trkpt lat="44.91712" lon="1.72797">
        <ele>181.7</ele>
        <time>2022-05-24T06:46:59Z</time>
      </trkpt>
      <trkpt lat="44.91711" lon="1.72795">
        <ele>182</ele>
        <time>2022-05-24T06:47:00Z</time>
      </trkpt>
      <trkpt lat="44.9171" lon="1.72791">
        <ele>182.3</ele>
        <time>2022-05-24T06:47:01Z</time>
      </trkpt>
      <trkpt lat="44.91709" lon="1.7279">
        <ele>182.4</ele>
        <time>2022-05-24T06:47:02Z</time>
      </trkpt>
      <trkpt lat="44.91708" lon="1.72788">
        <ele>182.6</ele>
        <time>2022-05-24T06:47:03Z</time>
      </trkpt>
      <trkpt lat="44.91708" lon="1.72785">
        <ele>182.8</ele>
        <time>2022-05-24T06:47:04Z</time>
      </trkpt>
      <trkpt lat="44.91707" lon="1.72784">
        <ele>182.9</ele>
        <time>2022-05-24T06:47:05Z</time>
      </trkpt>
      <trkpt lat="44.91707" lon="1.72782">
        <ele>183.1</ele>
        <time>2022-05-24T06:47:06Z</time>
      </trkpt>
      <trkpt lat="44.91707" lon="1.72779">
        <ele>183.2</ele>
        <time>2022-05-24T06:47:07Z</time>
      </trkpt>
      <trkpt lat="44.91706" lon="1.72777">
        <ele>183.4</ele>
        <time>2022-05-24T06:47:08Z</time>
      </trkpt>
      <trkpt lat="44.91705" lon="1.72775">
        <ele>183.5</ele>
        <time>2022-05-24T06:47:09Z</time>
      </trkpt>
      <trkpt lat="44.91703" lon="1.72774">
        <ele>183.7</ele>
        <time>2022-05-24T06:47:10Z</time>
      </trkpt>
      <trkpt lat="44.91702" lon="1.72773">
        <ele>183.8</ele>
        <time>2022-05-24T06:47:11Z</time>
      </trkpt>
      <trkpt lat="44.91701" lon="1.72771">
        <ele>184</ele>
        <time>2022-05-24T06:47:12Z</time>
      </trkpt>
      <trkpt lat="44.91699" lon="1.7277">
        <ele>184.1</ele>
        <time>2022-05-24T06:47:13Z</time>
      </trkpt>
      <trkpt lat="44.91698" lon="1.72769">
        <ele>184.2</ele>
        <time>2022-05-24T06:47:14Z</time>
      </trkpt>
      <trkpt lat="44.91697" lon="1.72767">
        <ele>184.4</ele>
        <time>2022-05-24T06:47:15Z</time>
      </trkpt>
      <trkpt lat="44.91696" lon="1.72765">
        <ele>184.5</ele>
        <time>2022-05-24T06:47:16Z</time>
      </trkpt>
      <trkpt lat="44.91695" lon="1.72764">
        <ele>184.6</ele>
        <time>2022-05-24T06:47:17Z</time>
      </trkpt>
      <trkpt lat="44.91694" lon="1.72763">
        <ele>184.8</ele>
        <time>2022-05-24T06:47:18Z</time>
      </trkpt>
      <trkpt lat="44.91692" lon="1.72762">
        <ele>184.9</ele>
        <time>2022-05-24T06:47:19Z</time>
      </trkpt>
      <trkpt lat="44.91691" lon="1.72762">
        <ele>185</ele>
        <time>2022-05-24T06:47:20Z</time>
      </trkpt>
      <trkpt lat="44.91689" lon="1.7276">
        <ele>185.2</ele>
        <time>2022-05-24T06:47:21Z</time>
      </trkpt>
      <trkpt lat="44.91688" lon="1.72759">
        <ele>185.3</ele>
        <time>2022-05-24T06:47:22Z</time>
      </trkpt>
      <trkpt lat="44.91687" lon="1.72757">
        <ele>185.4</ele>
        <time>2022-05-24T06:47:23Z</time>
      </trkpt>
      <trkpt lat="44.91686" lon="1.72756">
        <ele>185.5</ele>
        <time>2022-05-24T06:47:24Z</time>
      </trkpt>
      <trkpt lat="44.91685" lon="1.72754">
        <ele>185.6</ele>
        <time>2022-05-24T06:47:25Z</time>
      </trkpt>
      <trkpt lat="44.91684" lon="1.72753">
        <ele>185.7</ele>
        <time>2022-05-24T06:47:26Z</time>
      </trkpt>
      <trkpt lat="44.91683" lon="1.72751">
        <ele>185.9</ele>
        <time>2022-05-24T06:47:27Z</time>
      </trkpt>
      <trkpt lat="44.91682" lon="1.7275">
        <ele>186</ele>
        <time>2022-05-24T06:47:28Z</time>
      </trkpt>
      <trkpt lat="44.91681" lon="1.72749">
        <ele>186.1</ele>
        <time>2022-05-24T06:47:29Z</time>
      </trkpt>
      <trkpt lat="44.9168" lon="1.72747">
        <ele>186.2</ele>
        <time>2022-05-24T06:47:30Z</time>
      </trkpt>
      <trkpt lat="44.91678" lon="1.72746">
        <ele>186.3</ele>
        <time>2022-05-24T06:47:31Z</time>
      </trkpt>
      <trkpt lat="44.91677" lon="1.72745">
        <ele>186.4</ele>
        <time>2022-05-24T06:47:32Z</time>
      </trkpt>
      <trkpt lat="44.91676" lon="1.72744">
        <ele>186.6</ele>
        <time>2022-05-24T06:47:33Z</time>
      </trkpt>
      <trkpt lat="44.91674" lon="1.72742">
        <ele>186.8</ele>
        <time>2022-05-24T06:47:34Z</time>
      </trkpt>
      <trkpt lat="44.91673" lon="1.7274">
        <ele>186.9</ele>
        <time>2022-05-24T06:47:35Z</time>
      </trkpt>
      <trkpt lat="44.91672" lon="1.72739">
        <ele>187.1</ele>
        <time>2022-05-24T06:47:36Z</time>
      </trkpt>
      <trkpt lat="44.9167" lon="1.72737">
        <ele>187.2</ele>
        <time>2022-05-24T06:47:37Z</time>
      </trkpt>
      <trkpt lat="44.91668" lon="1.72734">
        <ele>187.5</ele>
        <time>2022-05-24T06:47:38Z</time>
      </trkpt>
      <trkpt lat="44.91667" lon="1.72733">
        <ele>187.6</ele>
        <time>2022-05-24T06:47:39Z</time>
      </trkpt>
      <trkpt lat="44.91666" lon="1.72731">
        <ele>187.7</ele>
        <time>2022-05-24T06:47:40Z</time>
      </trkpt>
      <trkpt lat="44.91665" lon="1.7273">
        <ele>187.8</ele>
        <time>2022-05-24T06:47:41Z</time>
      </trkpt>
      <trkpt lat="44.91664" lon="1.72729">
        <ele>187.9</ele>
        <time>2022-05-24T06:47:42Z</time>
      </trkpt>
      <trkpt lat="44.91663" lon="1.72728">
        <ele>188</ele>
        <time>2022-05-24T06:47:43Z</time>
      </trkpt>
      <trkpt lat="44.91662" lon="1.72726">
        <ele>188.1</ele>
        <time>2022-05-24T06:47:44Z</time>
      </trkpt>
      <trkpt lat="44.91661" lon="1.72724">
        <ele>188.2</ele>
        <time>2022-05-24T06:47:45Z</time>
      </trkpt>
      <trkpt lat="44.9166" lon="1.72723">
        <ele>188.3</ele>
        <time>2022-05-24T06:47:46Z</time>
      </trkpt>
      <trkpt lat="44.91659" lon="1.72722">
        <ele>188.3</ele>
        <time>2022-05-24T06:47:47Z</time>
      </trkpt>
      <trkpt lat="44.91658" lon="1.72721">
        <ele>188.4</ele>
        <time>2022-05-24T06:47:48Z</time>
      </trkpt>
      <trkpt lat="44.91658" lon="1.72721">
        <ele>188.4</ele>
        <time>2022-05-24T06:47:49Z</time>
      </trkpt>
      <trkpt lat="44.91657" lon="1.7272">
        <ele>188.5</ele>
        <time>2022-05-24T06:47:50Z</time>
      </trkpt>
      <trkpt lat="44.91656" lon="1.72719">
        <ele>188.6</ele>
        <time>2022-05-24T06:47:51Z</time>
      </trkpt>
      <trkpt lat="44.91655" lon="1.72716">
        <ele>188.7</ele>
        <time>2022-05-24T06:47:52Z</time>
      </trkpt>
      <trkpt lat="44.91654" lon="1.72714">
        <ele>188.7</ele>
        <time>2022-05-24T06:47:53Z</time>
      </trkpt>
      <trkpt lat="44.91654" lon="1.72713">
        <ele>188.8</ele>
        <time>2022-05-24T06:47:54Z</time>
      </trkpt>
      <trkpt lat="44.91652" lon="1.72709">
        <ele>188.9</ele>
        <time>2022-05-24T06:47:55Z</time>
      </trkpt>
      <trkpt lat="44.91652" lon="1.72708">
        <ele>188.9</ele>
        <time>2022-05-24T06:47:56Z</time>
      </trkpt>
      <trkpt lat="44.91651" lon="1.72706">
        <ele>189</ele>
        <time>2022-05-24T06:47:57Z</time>
      </trkpt>
      <trkpt lat="44.9165" lon="1.72704">
        <ele>189.1</ele>
        <time>2022-05-24T06:47:58Z</time>
      </trkpt>
      <trkpt lat="44.91648" lon="1.72701">
        <ele>189.2</ele>
        <time>2022-05-24T06:47:59Z</time>
      </trkpt>
      <trkpt lat="44.91647" lon="1.727">
        <ele>189.2</ele>
        <time>2022-05-24T06:48:00Z</time>
      </trkpt>
      <trkpt lat="44.91645" lon="1.72697">
        <ele>189.3</ele>
        <time>2022-05-24T06:48:01Z</time>
      </trkpt>
      <trkpt lat="44.91643" lon="1.72693">
        <ele>189.4</ele>
        <time>2022-05-24T06:48:02Z</time>
      </trkpt>
      <trkpt lat="44.91642" lon="1.72691">
        <ele>189.5</ele>
        <time>2022-05-24T06:48:03Z</time>
      </trkpt>
      <trkpt lat="44.9164" lon="1.72687">
        <ele>189.6</ele>
        <time>2022-05-24T06:48:04Z</time>
      </trkpt>
      <trkpt lat="44.91639" lon="1.72685">
        <ele>189.6</ele>
        <time>2022-05-24T06:48:05Z</time>
      </trkpt>
      <trkpt lat="44.91638" lon="1.72681">
        <ele>189.7</ele>
        <time>2022-05-24T06:48:06Z</time>
      </trkpt>
      <trkpt lat="44.91637" lon="1.72677">
        <ele>189.8</ele>
        <time>2022-05-24T06:48:07Z</time>
      </trkpt>
      <trkpt lat="44.91636" lon="1.72673">
        <ele>190</ele>
        <time>2022-05-24T06:48:08Z</time>
      </trkpt>
      <trkpt lat="44.91635" lon="1.7267">
        <ele>190.1</ele>
        <time>2022-05-24T06:48:09Z</time>
      </trkpt>
      <trkpt lat="44.91634" lon="1.72666">
        <ele>190.2</ele>
        <time>2022-05-24T06:48:10Z</time>
      </trkpt>
      <trkpt lat="44.91632" lon="1.72662">
        <ele>190.4</ele>
        <time>2022-05-24T06:48:11Z</time>
      </trkpt>
      <trkpt lat="44.91631" lon="1.72657">
        <ele>190.6</ele>
        <time>2022-05-24T06:48:12Z</time>
      </trkpt>
      <trkpt lat="44.9163" lon="1.72653">
        <ele>190.7</ele>
        <time>2022-05-24T06:48:13Z</time>
      </trkpt>
      <trkpt lat="44.91629" lon="1.72649">
        <ele>191</ele>
        <time>2022-05-24T06:48:14Z</time>
      </trkpt>
      <trkpt lat="44.91627" lon="1.72645">
        <ele>191.2</ele>
        <time>2022-05-24T06:48:15Z</time>
      </trkpt>
      <trkpt lat="44.91627" lon="1.72643">
        <ele>191.3</ele>
        <time>2022-05-24T06:48:16Z</time>
      </trkpt>
      <trkpt lat="44.91626" lon="1.72639">
        <ele>191.5</ele>
        <time>2022-05-24T06:48:17Z</time>
      </trkpt>
      <trkpt lat="44.91626" lon="1.72638">
        <ele>191.6</ele>
        <time>2022-05-24T06:48:18Z</time>
      </trkpt>
      <trkpt lat="44.91626" lon="1.72634">
        <ele>191.8</ele>
        <time>2022-05-24T06:48:19Z</time>
      </trkpt>
      <trkpt lat="44.91626" lon="1.7263">
        <ele>191.9</ele>
        <time>2022-05-24T06:48:20Z</time>
      </trkpt>
      <trkpt lat="44.91627" lon="1.72624">
        <ele>192.2</ele>
        <time>2022-05-24T06:48:21Z</time>
      </trkpt>
      <trkpt lat="44.91627" lon="1.72623">
        <ele>192.3</ele>
        <time>2022-05-24T06:48:22Z</time>
      </trkpt>
      <trkpt lat="44.91627" lon="1.72618">
        <ele>192.5</ele>
        <time>2022-05-24T06:48:23Z</time>
      </trkpt>
      <trkpt lat="44.91627" lon="1.72617">
        <ele>192.6</ele>
        <time>2022-05-24T06:48:24Z</time>
      </trkpt>
      <trkpt lat="44.91627" lon="1.72615">
        <ele>192.7</ele>
        <time>2022-05-24T06:48:25Z</time>
      </trkpt>
      <trkpt lat="44.91627" lon="1.72612">
        <ele>192.8</ele>
        <time>2022-05-24T06:48:26Z</time>
      </trkpt>
      <trkpt lat="44.91627" lon="1.7261">
        <ele>192.9</ele>
        <time>2022-05-24T06:48:27Z</time>
      </trkpt>
      <trkpt lat="44.91627" lon="1.72608">
        <ele>193</ele>
        <time>2022-05-24T06:48:28Z</time>
      </trkpt>
      <trkpt lat="44.91627" lon="1.72606">
        <ele>193.1</ele>
        <time>2022-05-24T06:48:29Z</time>
      </trkpt>
      <trkpt lat="44.91627" lon="1.72604">
        <ele>193.2</ele>
        <time>2022-05-24T06:48:30Z</time>
      </trkpt>
      <trkpt lat="44.91627" lon="1.726">
        <ele>193.4</ele>
        <time>2022-05-24T06:48:31Z</time>
      </trkpt>
      <trkpt lat="44.91627" lon="1.72596">
        <ele>193.5</ele>
        <time>2022-05-24T06:48:32Z</time>
      </trkpt>
      <trkpt lat="44.91627" lon="1.7259">
        <ele>193.7</ele>
        <time>2022-05-24T06:48:33Z</time>
      </trkpt>
      <trkpt lat="44.91627" lon="1.72589">
        <ele>193.8</ele>
        <time>2022-05-24T06:48:34Z</time>
      </trkpt>
      <trkpt lat="44.91627" lon="1.72583">
        <ele>194</ele>
        <time>2022-05-24T06:48:35Z</time>
      </trkpt>
      <trkpt lat="44.91627" lon="1.72581">
        <ele>194.1</ele>
        <time>2022-05-24T06:48:36Z</time>
      </trkpt>
      <trkpt lat="44.91628" lon="1.72576">
        <ele>194.2</ele>
        <time>2022-05-24T06:48:37Z</time>
      </trkpt>
      <trkpt lat="44.91628" lon="1.72575">
        <ele>194.3</ele>
        <time>2022-05-24T06:48:38Z</time>
      </trkpt>
      <trkpt lat="44.91628" lon="1.7257">
        <ele>194.5</ele>
        <time>2022-05-24T06:48:39Z</time>
      </trkpt>
      <trkpt lat="44.91627" lon="1.72569">
        <ele>194.5</ele>
        <time>2022-05-24T06:48:40Z</time>
      </trkpt>
      <trkpt lat="44.91627" lon="1.72564">
        <ele>194.7</ele>
        <time>2022-05-24T06:48:41Z</time>
      </trkpt>
      <trkpt lat="44.91627" lon="1.72562">
        <ele>194.8</ele>
        <time>2022-05-24T06:48:42Z</time>
      </trkpt>
      <trkpt lat="44.91626" lon="1.72557">
        <ele>195</ele>
        <time>2022-05-24T06:48:43Z</time>
      </trkpt>
      <trkpt lat="44.91626" lon="1.72555">
        <ele>195</ele>
        <time>2022-05-24T06:48:44Z</time>
      </trkpt>
      <trkpt lat="44.91626" lon="1.72549">
        <ele>195.2</ele>
        <time>2022-05-24T06:48:45Z</time>
      </trkpt>
      <trkpt lat="44.91626" lon="1.72548">
        <ele>195.3</ele>
        <time>2022-05-24T06:48:46Z</time>
      </trkpt>
      <trkpt lat="44.91625" lon="1.72542">
        <ele>195.5</ele>
        <time>2022-05-24T06:48:47Z</time>
      </trkpt>
      <trkpt lat="44.91625" lon="1.72541">
        <ele>195.6</ele>
        <time>2022-05-24T06:48:48Z</time>
      </trkpt>
      <trkpt lat="44.91624" lon="1.72535">
        <ele>195.8</ele>
        <time>2022-05-24T06:48:49Z</time>
      </trkpt>
      <trkpt lat="44.91624" lon="1.72533">
        <ele>195.8</ele>
        <time>2022-05-24T06:48:50Z</time>
      </trkpt>
      <trkpt lat="44.91623" lon="1.72529">
        <ele>196</ele>
        <time>2022-05-24T06:48:51Z</time>
      </trkpt>
      <trkpt lat="44.91622" lon="1.72525">
        <ele>196.1</ele>
        <time>2022-05-24T06:48:52Z</time>
      </trkpt>
      <trkpt lat="44.91622" lon="1.72521">
        <ele>196.3</ele>
        <time>2022-05-24T06:48:53Z</time>
      </trkpt>
      <trkpt lat="44.91621" lon="1.72517">
        <ele>196.4</ele>
        <time>2022-05-24T06:48:54Z</time>
      </trkpt>
      <trkpt lat="44.9162" lon="1.72513">
        <ele>196.6</ele>
        <time>2022-05-24T06:48:55Z</time>
      </trkpt>
      <trkpt lat="44.91619" lon="1.72509">
        <ele>196.8</ele>
        <time>2022-05-24T06:48:56Z</time>
      </trkpt>
      <trkpt lat="44.91619" lon="1.72505">
        <ele>196.9</ele>
        <time>2022-05-24T06:48:57Z</time>
      </trkpt>
      <trkpt lat="44.91618" lon="1.72501">
        <ele>197.1</ele>
        <time>2022-05-24T06:48:58Z</time>
      </trkpt>
      <trkpt lat="44.91617" lon="1.72497">
        <ele>197.3</ele>
        <time>2022-05-24T06:48:59Z</time>
      </trkpt>
      <trkpt lat="44.91617" lon="1.72494">
        <ele>197.4</ele>
        <time>2022-05-24T06:49:00Z</time>
      </trkpt>
      <trkpt lat="44.91616" lon="1.7249">
        <ele>197.6</ele>
        <time>2022-05-24T06:49:01Z</time>
      </trkpt>
      <trkpt lat="44.91615" lon="1.72486">
        <ele>197.8</ele>
        <time>2022-05-24T06:49:02Z</time>
      </trkpt>
      <trkpt lat="44.91614" lon="1.72482">
        <ele>198</ele>
        <time>2022-05-24T06:49:03Z</time>
      </trkpt>
      <trkpt lat="44.91613" lon="1.72478">
        <ele>198.2</ele>
        <time>2022-05-24T06:49:04Z</time>
      </trkpt>
      <trkpt lat="44.91612" lon="1.72475">
        <ele>198.3</ele>
        <time>2022-05-24T06:49:05Z</time>
      </trkpt>
      <trkpt lat="44.91611" lon="1.72471">
        <ele>198.5</ele>
        <time>2022-05-24T06:49:06Z</time>
      </trkpt>
      <trkpt lat="44.9161" lon="1.72467">
        <ele>198.7</ele>
        <time>2022-05-24T06:49:07Z</time>
      </trkpt>
      <trkpt lat="44.91609" lon="1.72463">
        <ele>198.9</ele>
        <time>2022-05-24T06:49:08Z</time>
      </trkpt>
      <trkpt lat="44.91609" lon="1.72459">
        <ele>199.1</ele>
        <time>2022-05-24T06:49:09Z</time>
      </trkpt>
      <trkpt lat="44.91608" lon="1.72455">
        <ele>199.3</ele>
        <time>2022-05-24T06:49:10Z</time>
      </trkpt>
      <trkpt lat="44.91608" lon="1.72451">
        <ele>199.5</ele>
        <time>2022-05-24T06:49:11Z</time>
      </trkpt>
      <trkpt lat="44.91607" lon="1.72447">
        <ele>199.7</ele>
        <time>2022-05-24T06:49:12Z</time>
      </trkpt>
      <trkpt lat="44.91607" lon="1.72443">
        <ele>199.9</ele>
        <time>2022-05-24T06:49:13Z</time>
      </trkpt>
      <trkpt lat="44.91606" lon="1.72438">
        <ele>200</ele>
        <time>2022-05-24T06:49:14Z</time>
      </trkpt>
      <trkpt lat="44.91606" lon="1.72434">
        <ele>200.2</ele>
        <time>2022-05-24T06:49:15Z</time>
      </trkpt>
      <trkpt lat="44.91606" lon="1.7243">
        <ele>200.4</ele>
        <time>2022-05-24T06:49:16Z</time>
      </trkpt>
      <trkpt lat="44.91605" lon="1.72425">
        <ele>200.6</ele>
        <time>2022-05-24T06:49:17Z</time>
      </trkpt>
      <trkpt lat="44.91605" lon="1.72421">
        <ele>200.8</ele>
        <time>2022-05-24T06:49:18Z</time>
      </trkpt>
      <trkpt lat="44.91605" lon="1.72417">
        <ele>201</ele>
        <time>2022-05-24T06:49:19Z</time>
      </trkpt>
      <trkpt lat="44.91604" lon="1.72412">
        <ele>201.2</ele>
        <time>2022-05-24T06:49:20Z</time>
      </trkpt>
      <trkpt lat="44.91604" lon="1.72408">
        <ele>201.4</ele>
        <time>2022-05-24T06:49:21Z</time>
      </trkpt>
      <trkpt lat="44.91604" lon="1.72404">
        <ele>201.6</ele>
        <time>2022-05-24T06:49:22Z</time>
      </trkpt>
      <trkpt lat="44.91604" lon="1.72399">
        <ele>201.8</ele>
        <time>2022-05-24T06:49:23Z</time>
      </trkpt>
      <trkpt lat="44.91604" lon="1.72395">
        <ele>202</ele>
        <time>2022-05-24T06:49:24Z</time>
      </trkpt>
      <trkpt lat="44.91603" lon="1.7239">
        <ele>202.2</ele>
        <time>2022-05-24T06:49:25Z</time>
      </trkpt>
      <trkpt lat="44.91603" lon="1.72386">
        <ele>202.4</ele>
        <time>2022-05-24T06:49:26Z</time>
      </trkpt>
      <trkpt lat="44.91603" lon="1.72382">
        <ele>202.5</ele>
        <time>2022-05-24T06:49:27Z</time>
      </trkpt>
      <trkpt lat="44.91603" lon="1.72377">
        <ele>202.7</ele>
        <time>2022-05-24T06:49:28Z</time>
      </trkpt>
      <trkpt lat="44.91604" lon="1.72373">
        <ele>202.9</ele>
        <time>2022-05-24T06:49:29Z</time>
      </trkpt>
      <trkpt lat="44.91604" lon="1.72368">
        <ele>203.1</ele>
        <time>2022-05-24T06:49:30Z</time>
      </trkpt>
      <trkpt lat="44.91605" lon="1.72364">
        <ele>203.3</ele>
        <time>2022-05-24T06:49:31Z</time>
      </trkpt>
      <trkpt lat="44.91606" lon="1.72359">
        <ele>203.5</ele>
        <time>2022-05-24T06:49:32Z</time>
      </trkpt>
      <trkpt lat="44.91607" lon="1.72355">
        <ele>203.7</ele>
        <time>2022-05-24T06:49:33Z</time>
      </trkpt>
      <trkpt lat="44.91608" lon="1.7235">
        <ele>203.9</ele>
        <time>2022-05-24T06:49:34Z</time>
      </trkpt>
      <trkpt lat="44.9161" lon="1.72346">
        <ele>204.1</ele>
        <time>2022-05-24T06:49:35Z</time>
      </trkpt>
      <trkpt lat="44.91611" lon="1.72341">
        <ele>204.3</ele>
        <time>2022-05-24T06:49:36Z</time>
      </trkpt>
      <trkpt lat="44.91611" lon="1.72337">
        <ele>204.5</ele>
        <time>2022-05-24T06:49:37Z</time>
      </trkpt>
      <trkpt lat="44.91612" lon="1.72332">
        <ele>204.7</ele>
        <time>2022-05-24T06:49:38Z</time>
      </trkpt>
      <trkpt lat="44.91612" lon="1.72328">
        <ele>204.9</ele>
        <time>2022-05-24T06:49:39Z</time>
      </trkpt>
      <trkpt lat="44.91612" lon="1.72323">
        <ele>205</ele>
        <time>2022-05-24T06:49:40Z</time>
      </trkpt>
      <trkpt lat="44.91612" lon="1.72319">
        <ele>205.2</ele>
        <time>2022-05-24T06:49:41Z</time>
      </trkpt>
      <trkpt lat="44.91612" lon="1.72314">
        <ele>205.4</ele>
        <time>2022-05-24T06:49:42Z</time>
      </trkpt>
      <trkpt lat="44.91611" lon="1.7231">
        <ele>205.6</ele>
        <time>2022-05-24T06:49:43Z</time>
      </trkpt>
      <trkpt lat="44.9161" lon="1.72306">
        <ele>205.8</ele>
        <time>2022-05-24T06:49:44Z</time>
      </trkpt>
      <trkpt lat="44.91609" lon="1.72302">
        <ele>206</ele>
        <time>2022-05-24T06:49:45Z</time>
      </trkpt>
      <trkpt lat="44.91608" lon="1.72298">
        <ele>206.2</ele>
        <time>2022-05-24T06:49:46Z</time>
      </trkpt>
      <trkpt lat="44.91607" lon="1.72294">
        <ele>206.4</ele>
        <time>2022-05-24T06:49:47Z</time>
      </trkpt>
      <trkpt lat="44.91605" lon="1.72291">
        <ele>206.6</ele>
        <time>2022-05-24T06:49:48Z</time>
      </trkpt>
      <trkpt lat="44.91604" lon="1.72287">
        <ele>206.8</ele>
        <time>2022-05-24T06:49:49Z</time>
      </trkpt>
      <trkpt lat="44.91602" lon="1.72283">
        <ele>207</ele>
        <time>2022-05-24T06:49:50Z</time>
      </trkpt>
      <trkpt lat="44.91601" lon="1.7228">
        <ele>207.2</ele>
        <time>2022-05-24T06:49:51Z</time>
      </trkpt>
      <trkpt lat="44.916" lon="1.72276">
        <ele>207.5</ele>
        <time>2022-05-24T06:49:52Z</time>
      </trkpt>
      <trkpt lat="44.91598" lon="1.72273">
        <ele>207.7</ele>
        <time>2022-05-24T06:49:53Z</time>
      </trkpt>
      <trkpt lat="44.91597" lon="1.7227">
        <ele>207.9</ele>
        <time>2022-05-24T06:49:54Z</time>
      </trkpt>
      <trkpt lat="44.91596" lon="1.72266">
        <ele>208.1</ele>
        <time>2022-05-24T06:49:55Z</time>
      </trkpt>
      <trkpt lat="44.91594" lon="1.72262">
        <ele>208.7</ele>
        <time>2022-05-24T06:49:56Z</time>
      </trkpt>
      <trkpt lat="44.91592" lon="1.72257">
        <ele>209</ele>
        <time>2022-05-24T06:49:57Z</time>
      </trkpt>
      <trkpt lat="44.91592" lon="1.72256">
        <ele>209.1</ele>
        <time>2022-05-24T06:49:58Z</time>
      </trkpt>
      <trkpt lat="44.9159" lon="1.72252">
        <ele>209.4</ele>
        <time>2022-05-24T06:49:59Z</time>
      </trkpt>
      <trkpt lat="44.91589" lon="1.72249">
        <ele>209.7</ele>
        <time>2022-05-24T06:50:00Z</time>
      </trkpt>
      <trkpt lat="44.91588" lon="1.72245">
        <ele>210</ele>
        <time>2022-05-24T06:50:01Z</time>
      </trkpt>
      <trkpt lat="44.91586" lon="1.72241">
        <ele>210.3</ele>
        <time>2022-05-24T06:50:02Z</time>
      </trkpt>
      <trkpt lat="44.91585" lon="1.72238">
        <ele>210.6</ele>
        <time>2022-05-24T06:50:03Z</time>
      </trkpt>
      <trkpt lat="44.91583" lon="1.72234">
        <ele>210.9</ele>
        <time>2022-05-24T06:50:04Z</time>
      </trkpt>
      <trkpt lat="44.91581" lon="1.72231">
        <ele>211.3</ele>
        <time>2022-05-24T06:50:05Z</time>
      </trkpt>
      <trkpt lat="44.9158" lon="1.72227">
        <ele>211.6</ele>
        <time>2022-05-24T06:50:06Z</time>
      </trkpt>
      <trkpt lat="44.91578" lon="1.72224">
        <ele>211.9</ele>
        <time>2022-05-24T06:50:07Z</time>
      </trkpt>
      <trkpt lat="44.91576" lon="1.72222">
        <ele>212.2</ele>
        <time>2022-05-24T06:50:08Z</time>
      </trkpt>
      <trkpt lat="44.91574" lon="1.72219">
        <ele>212.5</ele>
        <time>2022-05-24T06:50:09Z</time>
      </trkpt>
      <trkpt lat="44.91571" lon="1.72217">
        <ele>212.8</ele>
        <time>2022-05-24T06:50:10Z</time>
      </trkpt>
      <trkpt lat="44.91569" lon="1.72215">
        <ele>213.1</ele>
        <time>2022-05-24T06:50:11Z</time>
      </trkpt>
      <trkpt lat="44.91566" lon="1.72213">
        <ele>213.4</ele>
        <time>2022-05-24T06:50:12Z</time>
      </trkpt>
      <trkpt lat="44.91564" lon="1.72212">
        <ele>213.8</ele>
        <time>2022-05-24T06:50:13Z</time>
      </trkpt>
      <trkpt lat="44.91561" lon="1.72211">
        <ele>214.1</ele>
        <time>2022-05-24T06:50:14Z</time>
      </trkpt>
      <trkpt lat="44.91558" lon="1.72211">
        <ele>214.4</ele>
        <time>2022-05-24T06:50:15Z</time>
      </trkpt>
      <trkpt lat="44.91555" lon="1.7221">
        <ele>214.7</ele>
        <time>2022-05-24T06:50:16Z</time>
      </trkpt>
      <trkpt lat="44.91552" lon="1.7221">
        <ele>215</ele>
        <time>2022-05-24T06:50:17Z</time>
      </trkpt>
      <trkpt lat="44.91549" lon="1.7221">
        <ele>215.3</ele>
        <time>2022-05-24T06:50:18Z</time>
      </trkpt>
      <trkpt lat="44.91547" lon="1.7221">
        <ele>215.6</ele>
        <time>2022-05-24T06:50:19Z</time>
      </trkpt>
      <trkpt lat="44.91543" lon="1.72209">
        <ele>216</ele>
        <time>2022-05-24T06:50:20Z</time>
      </trkpt>
      <trkpt lat="44.91541" lon="1.72208">
        <ele>216.1</ele>
        <time>2022-05-24T06:50:21Z</time>
      </trkpt>
      <trkpt lat="44.91537" lon="1.72208">
        <ele>216.4</ele>
        <time>2022-05-24T06:50:22Z</time>
      </trkpt>
      <trkpt lat="44.91536" lon="1.72208">
        <ele>216.5</ele>
        <time>2022-05-24T06:50:23Z</time>
      </trkpt>
      <trkpt lat="44.91533" lon="1.72208">
        <ele>216.8</ele>
        <time>2022-05-24T06:50:24Z</time>
      </trkpt>
      <trkpt lat="44.91531" lon="1.72208">
        <ele>217</ele>
        <time>2022-05-24T06:50:25Z</time>
      </trkpt>
      <trkpt lat="44.91528" lon="1.72208">
        <ele>217.2</ele>
        <time>2022-05-24T06:50:26Z</time>
      </trkpt>
      <trkpt lat="44.91525" lon="1.72208">
        <ele>217.4</ele>
        <time>2022-05-24T06:50:27Z</time>
      </trkpt>
      <trkpt lat="44.91521" lon="1.72208">
        <ele>217.7</ele>
        <time>2022-05-24T06:50:28Z</time>
      </trkpt>
      <trkpt lat="44.9152" lon="1.72208">
        <ele>217.9</ele>
        <time>2022-05-24T06:50:29Z</time>
      </trkpt>
      <trkpt lat="44.91516" lon="1.72208">
        <ele>218.2</ele>
        <time>2022-05-24T06:50:30Z</time>
      </trkpt>
      <trkpt lat="44.91515" lon="1.72209">
        <ele>218.3</ele>
        <time>2022-05-24T06:50:31Z</time>
      </trkpt>
      <trkpt lat="44.91512" lon="1.72209">
        <ele>218.6</ele>
        <time>2022-05-24T06:50:32Z</time>
      </trkpt>
      <trkpt lat="44.91509" lon="1.7221">
        <ele>218.9</ele>
        <time>2022-05-24T06:50:33Z</time>
      </trkpt>
      <trkpt lat="44.91505" lon="1.7221">
        <ele>219.3</ele>
        <time>2022-05-24T06:50:34Z</time>
      </trkpt>
      <trkpt lat="44.91504" lon="1.72211">
        <ele>219.4</ele>
        <time>2022-05-24T06:50:35Z</time>
      </trkpt>
      <trkpt lat="44.91501" lon="1.72211">
        <ele>219.7</ele>
        <time>2022-05-24T06:50:36Z</time>
      </trkpt>
      <trkpt lat="44.91498" lon="1.72212">
        <ele>220</ele>
        <time>2022-05-24T06:50:37Z</time>
      </trkpt>
      <trkpt lat="44.91495" lon="1.72212">
        <ele>220.4</ele>
        <time>2022-05-24T06:50:38Z</time>
      </trkpt>
      <trkpt lat="44.91492" lon="1.72212">
        <ele>220.6</ele>
        <time>2022-05-24T06:50:39Z</time>
      </trkpt>
      <trkpt lat="44.91489" lon="1.72212">
        <ele>220.9</ele>
        <time>2022-05-24T06:50:40Z</time>
      </trkpt>
      <trkpt lat="44.91486" lon="1.72212">
        <ele>221.2</ele>
        <time>2022-05-24T06:50:41Z</time>
      </trkpt>
      <trkpt lat="44.91484" lon="1.72212">
        <ele>221.5</ele>
        <time>2022-05-24T06:50:42Z</time>
      </trkpt>
      <trkpt lat="44.91481" lon="1.72212">
        <ele>221.7</ele>
        <time>2022-05-24T06:50:43Z</time>
      </trkpt>
      <trkpt lat="44.91477" lon="1.72212">
        <ele>222.1</ele>
        <time>2022-05-24T06:50:44Z</time>
      </trkpt>
      <trkpt lat="44.91476" lon="1.72212">
        <ele>222.2</ele>
        <time>2022-05-24T06:50:45Z</time>
      </trkpt>
      <trkpt lat="44.91471" lon="1.72213">
        <ele>222.7</ele>
        <time>2022-05-24T06:50:47Z</time>
      </trkpt>
      <trkpt lat="44.91467" lon="1.72213">
        <ele>223.1</ele>
        <time>2022-05-24T06:50:48Z</time>
      </trkpt>
      <trkpt lat="44.91466" lon="1.72213">
        <ele>223.2</ele>
        <time>2022-05-24T06:50:49Z</time>
      </trkpt>
      <trkpt lat="44.91462" lon="1.72213">
        <ele>223.6</ele>
        <time>2022-05-24T06:50:50Z</time>
      </trkpt>
      <trkpt lat="44.91461" lon="1.72214">
        <ele>223.7</ele>
        <time>2022-05-24T06:50:51Z</time>
      </trkpt>
      <trkpt lat="44.91458" lon="1.72214">
        <ele>224</ele>
        <time>2022-05-24T06:50:52Z</time>
      </trkpt>
      <trkpt lat="44.91455" lon="1.72214">
        <ele>224.4</ele>
        <time>2022-05-24T06:50:53Z</time>
      </trkpt>
      <trkpt lat="44.91453" lon="1.72214">
        <ele>224.5</ele>
        <time>2022-05-24T06:50:54Z</time>
      </trkpt>
      <trkpt lat="44.9145" lon="1.72214">
        <ele>224.9</ele>
        <time>2022-05-24T06:50:55Z</time>
      </trkpt>
      <trkpt lat="44.91449" lon="1.72214">
        <ele>225</ele>
        <time>2022-05-24T06:50:56Z</time>
      </trkpt>
      <trkpt lat="44.91445" lon="1.72214">
        <ele>225.4</ele>
        <time>2022-05-24T06:50:57Z</time>
      </trkpt>
      <trkpt lat="44.91444" lon="1.72214">
        <ele>225.5</ele>
        <time>2022-05-24T06:50:58Z</time>
      </trkpt>
      <trkpt lat="44.91441" lon="1.72214">
        <ele>225.9</ele>
        <time>2022-05-24T06:50:59Z</time>
      </trkpt>
      <trkpt lat="44.91438" lon="1.72214">
        <ele>226.3</ele>
        <time>2022-05-24T06:51:00Z</time>
      </trkpt>
      <trkpt lat="44.91435" lon="1.72214">
        <ele>226.7</ele>
        <time>2022-05-24T06:51:01Z</time>
      </trkpt>
      <trkpt lat="44.91431" lon="1.72213">
        <ele>227.2</ele>
        <time>2022-05-24T06:51:02Z</time>
      </trkpt>
      <trkpt lat="44.9143" lon="1.72213">
        <ele>227.4</ele>
        <time>2022-05-24T06:51:03Z</time>
      </trkpt>
      <trkpt lat="44.91427" lon="1.72212">
        <ele>227.7</ele>
        <time>2022-05-24T06:51:04Z</time>
      </trkpt>
      <trkpt lat="44.91425" lon="1.7221">
        <ele>228.1</ele>
        <time>2022-05-24T06:51:05Z</time>
      </trkpt>
      <trkpt lat="44.91422" lon="1.72206">
        <ele>228.4</ele>
        <time>2022-05-24T06:51:06Z</time>
      </trkpt>
      <trkpt lat="44.91421" lon="1.72205">
        <ele>228.6</ele>
        <time>2022-05-24T06:51:07Z</time>
      </trkpt>
      <trkpt lat="44.9142" lon="1.72202">
        <ele>228.8</ele>
        <time>2022-05-24T06:51:08Z</time>
      </trkpt>
      <trkpt lat="44.91419" lon="1.72197">
        <ele>229.2</ele>
        <time>2022-05-24T06:51:09Z</time>
      </trkpt>
      <trkpt lat="44.91419" lon="1.72195">
        <ele>229.3</ele>
        <time>2022-05-24T06:51:10Z</time>
      </trkpt>
      <trkpt lat="44.91419" lon="1.7219">
        <ele>229.7</ele>
        <time>2022-05-24T06:51:11Z</time>
      </trkpt>
      <trkpt lat="44.91419" lon="1.72188">
        <ele>229.8</ele>
        <time>2022-05-24T06:51:12Z</time>
      </trkpt>
      <trkpt lat="44.9142" lon="1.72184">
        <ele>230</ele>
        <time>2022-05-24T06:51:13Z</time>
      </trkpt>
      <trkpt lat="44.91422" lon="1.72179">
        <ele>230.3</ele>
        <time>2022-05-24T06:51:14Z</time>
      </trkpt>
      <trkpt lat="44.91422" lon="1.72177">
        <ele>230.4</ele>
        <time>2022-05-24T06:51:15Z</time>
      </trkpt>
      <trkpt lat="44.91424" lon="1.72173">
        <ele>230.6</ele>
        <time>2022-05-24T06:51:16Z</time>
      </trkpt>
      <trkpt lat="44.91426" lon="1.7217">
        <ele>230.8</ele>
        <time>2022-05-24T06:51:17Z</time>
      </trkpt>
      <trkpt lat="44.91428" lon="1.72167">
        <ele>231</ele>
        <time>2022-05-24T06:51:18Z</time>
      </trkpt>
      <trkpt lat="44.9143" lon="1.72165">
        <ele>231.1</ele>
        <time>2022-05-24T06:51:19Z</time>
      </trkpt>
      <trkpt lat="44.91433" lon="1.72163">
        <ele>231.3</ele>
        <time>2022-05-24T06:51:20Z</time>
      </trkpt>
      <trkpt lat="44.91435" lon="1.72161">
        <ele>231.5</ele>
        <time>2022-05-24T06:51:21Z</time>
      </trkpt>
      <trkpt lat="44.91438" lon="1.72158">
        <ele>231.7</ele>
        <time>2022-05-24T06:51:22Z</time>
      </trkpt>
      <trkpt lat="44.91439" lon="1.72158">
        <ele>231.8</ele>
        <time>2022-05-24T06:51:23Z</time>
      </trkpt>
      <trkpt lat="44.91442" lon="1.72155">
        <ele>232</ele>
        <time>2022-05-24T06:51:24Z</time>
      </trkpt>
      <trkpt lat="44.91445" lon="1.72153">
        <ele>232.2</ele>
        <time>2022-05-24T06:51:25Z</time>
      </trkpt>
      <trkpt lat="44.91448" lon="1.72151">
        <ele>232.4</ele>
        <time>2022-05-24T06:51:26Z</time>
      </trkpt>
      <trkpt lat="44.9145" lon="1.72149">
        <ele>232.6</ele>
        <time>2022-05-24T06:51:27Z</time>
      </trkpt>
      <trkpt lat="44.91453" lon="1.72147">
        <ele>232.8</ele>
        <time>2022-05-24T06:51:28Z</time>
      </trkpt>
      <trkpt lat="44.91455" lon="1.72145">
        <ele>233</ele>
        <time>2022-05-24T06:51:29Z</time>
      </trkpt>
      <trkpt lat="44.91458" lon="1.72143">
        <ele>233.3</ele>
        <time>2022-05-24T06:51:30Z</time>
      </trkpt>
      <trkpt lat="44.9146" lon="1.7214">
        <ele>233.5</ele>
        <time>2022-05-24T06:51:31Z</time>
      </trkpt>
      <trkpt lat="44.91463" lon="1.72138">
        <ele>233.8</ele>
        <time>2022-05-24T06:51:32Z</time>
      </trkpt>
      <trkpt lat="44.91466" lon="1.72136">
        <ele>234</ele>
        <time>2022-05-24T06:51:33Z</time>
      </trkpt>
      <trkpt lat="44.91468" lon="1.72133">
        <ele>234.3</ele>
        <time>2022-05-24T06:51:34Z</time>
      </trkpt>
      <trkpt lat="44.9147" lon="1.72131">
        <ele>234.5</ele>
        <time>2022-05-24T06:51:35Z</time>
      </trkpt>
      <trkpt lat="44.91473" lon="1.72127">
        <ele>234.8</ele>
        <time>2022-05-24T06:51:36Z</time>
      </trkpt>
      <trkpt lat="44.91473" lon="1.72125">
        <ele>234.9</ele>
        <time>2022-05-24T06:51:37Z</time>
      </trkpt>
      <trkpt lat="44.91475" lon="1.7212">
        <ele>235.3</ele>
        <time>2022-05-24T06:51:38Z</time>
      </trkpt>
      <trkpt lat="44.91476" lon="1.72119">
        <ele>235.4</ele>
        <time>2022-05-24T06:51:39Z</time>
      </trkpt>
      <trkpt lat="44.91477" lon="1.72115">
        <ele>235.7</ele>
        <time>2022-05-24T06:51:40Z</time>
      </trkpt>
      <trkpt lat="44.91478" lon="1.7211">
        <ele>236.1</ele>
        <time>2022-05-24T06:51:41Z</time>
      </trkpt>
      <trkpt lat="44.91478" lon="1.72106">
        <ele>236.4</ele>
        <time>2022-05-24T06:51:42Z</time>
      </trkpt>
      <trkpt lat="44.91477" lon="1.72102">
        <ele>236.7</ele>
        <time>2022-05-24T06:51:43Z</time>
      </trkpt>
      <trkpt lat="44.91477" lon="1.72098">
        <ele>237</ele>
        <time>2022-05-24T06:51:44Z</time>
      </trkpt>
      <trkpt lat="44.91476" lon="1.72094">
        <ele>237.4</ele>
        <time>2022-05-24T06:51:45Z</time>
      </trkpt>
      <trkpt lat="44.91476" lon="1.7209">
        <ele>237.7</ele>
        <time>2022-05-24T06:51:46Z</time>
      </trkpt>
      <trkpt lat="44.91475" lon="1.72086">
        <ele>238</ele>
        <time>2022-05-24T06:51:47Z</time>
      </trkpt>
      <trkpt lat="44.91474" lon="1.72082">
        <ele>238.2</ele>
        <time>2022-05-24T06:51:48Z</time>
      </trkpt>
      <trkpt lat="44.91473" lon="1.72078">
        <ele>238.5</ele>
        <time>2022-05-24T06:51:49Z</time>
      </trkpt>
      <trkpt lat="44.91472" lon="1.72074">
        <ele>238.7</ele>
        <time>2022-05-24T06:51:50Z</time>
      </trkpt>
      <trkpt lat="44.91471" lon="1.7207">
        <ele>239</ele>
        <time>2022-05-24T06:51:51Z</time>
      </trkpt>
      <trkpt lat="44.9147" lon="1.72066">
        <ele>239.2</ele>
        <time>2022-05-24T06:51:52Z</time>
      </trkpt>
      <trkpt lat="44.91468" lon="1.72061">
        <ele>239.4</ele>
        <time>2022-05-24T06:51:53Z</time>
      </trkpt>
      <trkpt lat="44.91467" lon="1.7206">
        <ele>239.5</ele>
        <time>2022-05-24T06:51:54Z</time>
      </trkpt>
      <trkpt lat="44.91466" lon="1.72056">
        <ele>239.7</ele>
        <time>2022-05-24T06:51:55Z</time>
      </trkpt>
      <trkpt lat="44.91463" lon="1.72052">
        <ele>239.9</ele>
        <time>2022-05-24T06:51:56Z</time>
      </trkpt>
      <trkpt lat="44.91463" lon="1.7205">
        <ele>240</ele>
        <time>2022-05-24T06:51:57Z</time>
      </trkpt>
      <trkpt lat="44.91461" lon="1.72046">
        <ele>240.2</ele>
        <time>2022-05-24T06:51:58Z</time>
      </trkpt>
      <trkpt lat="44.9146" lon="1.72045">
        <ele>240.3</ele>
        <time>2022-05-24T06:51:59Z</time>
      </trkpt>
      <trkpt lat="44.91459" lon="1.72041">
        <ele>240.4</ele>
        <time>2022-05-24T06:52:00Z</time>
      </trkpt>
      <trkpt lat="44.91457" lon="1.72038">
        <ele>240.6</ele>
        <time>2022-05-24T06:52:01Z</time>
      </trkpt>
      <trkpt lat="44.91456" lon="1.72034">
        <ele>240.8</ele>
        <time>2022-05-24T06:52:02Z</time>
      </trkpt>
      <trkpt lat="44.91455" lon="1.7203">
        <ele>241</ele>
        <time>2022-05-24T06:52:03Z</time>
      </trkpt>
      <trkpt lat="44.91455" lon="1.72025">
        <ele>241.2</ele>
        <time>2022-05-24T06:52:04Z</time>
      </trkpt>
      <trkpt lat="44.91454" lon="1.72021">
        <ele>241.4</ele>
        <time>2022-05-24T06:52:05Z</time>
      </trkpt>
      <trkpt lat="44.91454" lon="1.72017">
        <ele>241.6</ele>
        <time>2022-05-24T06:52:06Z</time>
      </trkpt>
      <trkpt lat="44.91453" lon="1.72012">
        <ele>241.9</ele>
        <time>2022-05-24T06:52:07Z</time>
      </trkpt>
      <trkpt lat="44.91451" lon="1.72008">
        <ele>242.2</ele>
        <time>2022-05-24T06:52:08Z</time>
      </trkpt>
      <trkpt lat="44.91451" lon="1.72006">
        <ele>242.3</ele>
        <time>2022-05-24T06:52:09Z</time>
      </trkpt>
      <trkpt lat="44.9145" lon="1.72002">
        <ele>242.6</ele>
        <time>2022-05-24T06:52:10Z</time>
      </trkpt>
      <trkpt lat="44.9145" lon="1.72">
        <ele>242.7</ele>
        <time>2022-05-24T06:52:11Z</time>
      </trkpt>
      <trkpt lat="44.91449" lon="1.71995">
        <ele>243</ele>
        <time>2022-05-24T06:52:12Z</time>
      </trkpt>
      <trkpt lat="44.91449" lon="1.71993">
        <ele>243.2</ele>
        <time>2022-05-24T06:52:13Z</time>
      </trkpt>
      <trkpt lat="44.91448" lon="1.71987">
        <ele>243.5</ele>
        <time>2022-05-24T06:52:14Z</time>
      </trkpt>
      <trkpt lat="44.91447" lon="1.71985">
        <ele>243.6</ele>
        <time>2022-05-24T06:52:15Z</time>
      </trkpt>
      <trkpt lat="44.91446" lon="1.71981">
        <ele>243.9</ele>
        <time>2022-05-24T06:52:16Z</time>
      </trkpt>
      <trkpt lat="44.91446" lon="1.71977">
        <ele>244.1</ele>
        <time>2022-05-24T06:52:17Z</time>
      </trkpt>
      <trkpt lat="44.91444" lon="1.71973">
        <ele>244.4</ele>
        <time>2022-05-24T06:52:18Z</time>
      </trkpt>
      <trkpt lat="44.91443" lon="1.71969">
        <ele>244.7</ele>
        <time>2022-05-24T06:52:19Z</time>
      </trkpt>
      <trkpt lat="44.91442" lon="1.71965">
        <ele>244.9</ele>
        <time>2022-05-24T06:52:20Z</time>
      </trkpt>
      <trkpt lat="44.91441" lon="1.71962">
        <ele>245.1</ele>
        <time>2022-05-24T06:52:21Z</time>
      </trkpt>
      <trkpt lat="44.91439" lon="1.71958">
        <ele>245.4</ele>
        <time>2022-05-24T06:52:22Z</time>
      </trkpt>
      <trkpt lat="44.91437" lon="1.71954">
        <ele>245.6</ele>
        <time>2022-05-24T06:52:23Z</time>
      </trkpt>
      <trkpt lat="44.91436" lon="1.7195">
        <ele>245.9</ele>
        <time>2022-05-24T06:52:24Z</time>
      </trkpt>
      <trkpt lat="44.91434" lon="1.71946">
        <ele>246.2</ele>
        <time>2022-05-24T06:52:25Z</time>
      </trkpt>
      <trkpt lat="44.91434" lon="1.71942">
        <ele>246.4</ele>
        <time>2022-05-24T06:52:26Z</time>
      </trkpt>
      <trkpt lat="44.91433" lon="1.71938">
        <ele>246.7</ele>
        <time>2022-05-24T06:52:27Z</time>
      </trkpt>
      <trkpt lat="44.91433" lon="1.71934">
        <ele>246.9</ele>
        <time>2022-05-24T06:52:28Z</time>
      </trkpt>
      <trkpt lat="44.91432" lon="1.7193">
        <ele>247.1</ele>
        <time>2022-05-24T06:52:29Z</time>
      </trkpt>
      <trkpt lat="44.9143" lon="1.71925">
        <ele>247.4</ele>
        <time>2022-05-24T06:52:30Z</time>
      </trkpt>
      <trkpt lat="44.9143" lon="1.71923">
        <ele>247.5</ele>
        <time>2022-05-24T06:52:31Z</time>
      </trkpt>
      <trkpt lat="44.91429" lon="1.71919">
        <ele>247.6</ele>
        <time>2022-05-24T06:52:32Z</time>
      </trkpt>
      <trkpt lat="44.91428" lon="1.71915">
        <ele>247.8</ele>
        <time>2022-05-24T06:52:33Z</time>
      </trkpt>
      <trkpt lat="44.91427" lon="1.71911">
        <ele>248</ele>
        <time>2022-05-24T06:52:34Z</time>
      </trkpt>
      <trkpt lat="44.91427" lon="1.71907">
        <ele>248.3</ele>
        <time>2022-05-24T06:52:35Z</time>
      </trkpt>
      <trkpt lat="44.91427" lon="1.71903">
        <ele>248.5</ele>
        <time>2022-05-24T06:52:36Z</time>
      </trkpt>
      <trkpt lat="44.91427" lon="1.71897">
        <ele>248.7</ele>
        <time>2022-05-24T06:52:37Z</time>
      </trkpt>
      <trkpt lat="44.91427" lon="1.71895">
        <ele>248.8</ele>
        <time>2022-05-24T06:52:38Z</time>
      </trkpt>
      <trkpt lat="44.91428" lon="1.7189">
        <ele>249.1</ele>
        <time>2022-05-24T06:52:39Z</time>
      </trkpt>
      <trkpt lat="44.91428" lon="1.71888">
        <ele>249.2</ele>
        <time>2022-05-24T06:52:40Z</time>
      </trkpt>
      <trkpt lat="44.91428" lon="1.71883">
        <ele>249.5</ele>
        <time>2022-05-24T06:52:41Z</time>
      </trkpt>
      <trkpt lat="44.91428" lon="1.71881">
        <ele>249.7</ele>
        <time>2022-05-24T06:52:42Z</time>
      </trkpt>
      <trkpt lat="44.91427" lon="1.71875">
        <ele>250</ele>
        <time>2022-05-24T06:52:43Z</time>
      </trkpt>
      <trkpt lat="44.91427" lon="1.71873">
        <ele>250.1</ele>
        <time>2022-05-24T06:52:44Z</time>
      </trkpt>
      <trkpt lat="44.91426" lon="1.71869">
        <ele>250.4</ele>
        <time>2022-05-24T06:52:45Z</time>
      </trkpt>
      <trkpt lat="44.91426" lon="1.71863">
        <ele>250.7</ele>
        <time>2022-05-24T06:52:46Z</time>
      </trkpt>
      <trkpt lat="44.91426" lon="1.71861">
        <ele>250.8</ele>
        <time>2022-05-24T06:52:47Z</time>
      </trkpt>
      <trkpt lat="44.91426" lon="1.71857">
        <ele>251.1</ele>
        <time>2022-05-24T06:52:48Z</time>
      </trkpt>
      <trkpt lat="44.91425" lon="1.71852">
        <ele>251.3</ele>
        <time>2022-05-24T06:52:49Z</time>
      </trkpt>
      <trkpt lat="44.91425" lon="1.71847">
        <ele>251.5</ele>
        <time>2022-05-24T06:52:50Z</time>
      </trkpt>
      <trkpt lat="44.91425" lon="1.71842">
        <ele>251.7</ele>
        <time>2022-05-24T06:52:51Z</time>
      </trkpt>
      <trkpt lat="44.91424" lon="1.71838">
        <ele>251.9</ele>
        <time>2022-05-24T06:52:52Z</time>
      </trkpt>
      <trkpt lat="44.91424" lon="1.71833">
        <ele>252.1</ele>
        <time>2022-05-24T06:52:53Z</time>
      </trkpt>
      <trkpt lat="44.91424" lon="1.71829">
        <ele>252.2</ele>
        <time>2022-05-24T06:52:54Z</time>
      </trkpt>
      <trkpt lat="44.91425" lon="1.71824">
        <ele>252.4</ele>
        <time>2022-05-24T06:52:55Z</time>
      </trkpt>
      <trkpt lat="44.91425" lon="1.7182">
        <ele>252.6</ele>
        <time>2022-05-24T06:52:56Z</time>
      </trkpt>
      <trkpt lat="44.91426" lon="1.71815">
        <ele>252.8</ele>
        <time>2022-05-24T06:52:57Z</time>
      </trkpt>
      <trkpt lat="44.91426" lon="1.71811">
        <ele>253</ele>
        <time>2022-05-24T06:52:58Z</time>
      </trkpt>
      <trkpt lat="44.91427" lon="1.71807">
        <ele>253.2</ele>
        <time>2022-05-24T06:52:59Z</time>
      </trkpt>
      <trkpt lat="44.91428" lon="1.71802">
        <ele>253.4</ele>
        <time>2022-05-24T06:53:00Z</time>
      </trkpt>
      <trkpt lat="44.91429" lon="1.718">
        <ele>253.5</ele>
        <time>2022-05-24T06:53:01Z</time>
      </trkpt>
      <trkpt lat="44.9143" lon="1.71795">
        <ele>253.7</ele>
        <time>2022-05-24T06:53:02Z</time>
      </trkpt>
      <trkpt lat="44.9143" lon="1.71793">
        <ele>253.7</ele>
        <time>2022-05-24T06:53:03Z</time>
      </trkpt>
      <trkpt lat="44.9143" lon="1.71789">
        <ele>253.9</ele>
        <time>2022-05-24T06:53:04Z</time>
      </trkpt>
      <trkpt lat="44.91431" lon="1.71785">
        <ele>254</ele>
        <time>2022-05-24T06:53:05Z</time>
      </trkpt>
      <trkpt lat="44.91431" lon="1.71781">
        <ele>254.2</ele>
        <time>2022-05-24T06:53:06Z</time>
      </trkpt>
      <trkpt lat="44.91431" lon="1.71777">
        <ele>254.3</ele>
        <time>2022-05-24T06:53:07Z</time>
      </trkpt>
      <trkpt lat="44.91432" lon="1.71773">
        <ele>254.5</ele>
        <time>2022-05-24T06:53:08Z</time>
      </trkpt>
      <trkpt lat="44.91433" lon="1.71769">
        <ele>254.7</ele>
        <time>2022-05-24T06:53:09Z</time>
      </trkpt>
      <trkpt lat="44.91434" lon="1.71765">
        <ele>254.9</ele>
        <time>2022-05-24T06:53:10Z</time>
      </trkpt>
      <trkpt lat="44.91436" lon="1.71761">
        <ele>255.1</ele>
        <time>2022-05-24T06:53:11Z</time>
      </trkpt>
      <trkpt lat="44.91437" lon="1.71757">
        <ele>255.3</ele>
        <time>2022-05-24T06:53:12Z</time>
      </trkpt>
      <trkpt lat="44.9144" lon="1.71753">
        <ele>255.5</ele>
        <time>2022-05-24T06:53:13Z</time>
      </trkpt>
      <trkpt lat="44.91442" lon="1.71749">
        <ele>255.8</ele>
        <time>2022-05-24T06:53:14Z</time>
      </trkpt>
      <trkpt lat="44.91444" lon="1.71745">
        <ele>256</ele>
        <time>2022-05-24T06:53:15Z</time>
      </trkpt>
      <trkpt lat="44.91445" lon="1.71741">
        <ele>256.2</ele>
        <time>2022-05-24T06:53:16Z</time>
      </trkpt>
      <trkpt lat="44.91447" lon="1.71736">
        <ele>256.5</ele>
        <time>2022-05-24T06:53:17Z</time>
      </trkpt>
      <trkpt lat="44.91448" lon="1.71732">
        <ele>256.7</ele>
        <time>2022-05-24T06:53:18Z</time>
      </trkpt>
      <trkpt lat="44.9145" lon="1.71728">
        <ele>257</ele>
        <time>2022-05-24T06:53:19Z</time>
      </trkpt>
      <trkpt lat="44.91452" lon="1.71725">
        <ele>257.3</ele>
        <time>2022-05-24T06:53:20Z</time>
      </trkpt>
      <trkpt lat="44.91454" lon="1.71721">
        <ele>257.5</ele>
        <time>2022-05-24T06:53:21Z</time>
      </trkpt>
      <trkpt lat="44.91456" lon="1.71717">
        <ele>257.8</ele>
        <time>2022-05-24T06:53:22Z</time>
      </trkpt>
      <trkpt lat="44.91458" lon="1.71713">
        <ele>258.1</ele>
        <time>2022-05-24T06:53:23Z</time>
      </trkpt>
      <trkpt lat="44.91459" lon="1.71709">
        <ele>258.4</ele>
        <time>2022-05-24T06:53:24Z</time>
      </trkpt>
      <trkpt lat="44.91461" lon="1.71705">
        <ele>258.6</ele>
        <time>2022-05-24T06:53:25Z</time>
      </trkpt>
      <trkpt lat="44.91463" lon="1.71702">
        <ele>258.8</ele>
        <time>2022-05-24T06:53:26Z</time>
      </trkpt>
      <trkpt lat="44.91464" lon="1.71698">
        <ele>259</ele>
        <time>2022-05-24T06:53:27Z</time>
      </trkpt>
      <trkpt lat="44.91466" lon="1.71694">
        <ele>259.3</ele>
        <time>2022-05-24T06:53:28Z</time>
      </trkpt>
      <trkpt lat="44.91468" lon="1.7169">
        <ele>259.4</ele>
        <time>2022-05-24T06:53:29Z</time>
      </trkpt>
      <trkpt lat="44.9147" lon="1.71686">
        <ele>259.7</ele>
        <time>2022-05-24T06:53:30Z</time>
      </trkpt>
      <trkpt lat="44.91471" lon="1.71682">
        <ele>259.9</ele>
        <time>2022-05-24T06:53:31Z</time>
      </trkpt>
      <trkpt lat="44.91473" lon="1.71678">
        <ele>260.1</ele>
        <time>2022-05-24T06:53:32Z</time>
      </trkpt>
      <trkpt lat="44.91475" lon="1.71675">
        <ele>260.3</ele>
        <time>2022-05-24T06:53:33Z</time>
      </trkpt>
      <trkpt lat="44.91477" lon="1.71671">
        <ele>260.6</ele>
        <time>2022-05-24T06:53:34Z</time>
      </trkpt>
      <trkpt lat="44.91479" lon="1.71667">
        <ele>260.8</ele>
        <time>2022-05-24T06:53:35Z</time>
      </trkpt>
      <trkpt lat="44.9148" lon="1.71663">
        <ele>261</ele>
        <time>2022-05-24T06:53:36Z</time>
      </trkpt>
      <trkpt lat="44.91481" lon="1.71659">
        <ele>261.3</ele>
        <time>2022-05-24T06:53:37Z</time>
      </trkpt>
      <trkpt lat="44.91482" lon="1.71655">
        <ele>261.5</ele>
        <time>2022-05-24T06:53:38Z</time>
      </trkpt>
      <trkpt lat="44.91484" lon="1.71651">
        <ele>261.8</ele>
        <time>2022-05-24T06:53:39Z</time>
      </trkpt>
      <trkpt lat="44.91486" lon="1.71647">
        <ele>262</ele>
        <time>2022-05-24T06:53:40Z</time>
      </trkpt>
      <trkpt lat="44.91487" lon="1.71644">
        <ele>262.2</ele>
        <time>2022-05-24T06:53:41Z</time>
      </trkpt>
      <trkpt lat="44.91489" lon="1.7164">
        <ele>262.5</ele>
        <time>2022-05-24T06:53:42Z</time>
      </trkpt>
      <trkpt lat="44.9149" lon="1.71636">
        <ele>262.7</ele>
        <time>2022-05-24T06:53:43Z</time>
      </trkpt>
      <trkpt lat="44.91491" lon="1.71632">
        <ele>263</ele>
        <time>2022-05-24T06:53:44Z</time>
      </trkpt>
      <trkpt lat="44.91492" lon="1.71628">
        <ele>263.3</ele>
        <time>2022-05-24T06:53:45Z</time>
      </trkpt>
      <trkpt lat="44.91492" lon="1.71624">
        <ele>263.5</ele>
        <time>2022-05-24T06:53:46Z</time>
      </trkpt>
      <trkpt lat="44.91493" lon="1.7162">
        <ele>263.8</ele>
        <time>2022-05-24T06:53:47Z</time>
      </trkpt>
      <trkpt lat="44.91492" lon="1.71616">
        <ele>264.1</ele>
        <time>2022-05-24T06:53:48Z</time>
      </trkpt>
      <trkpt lat="44.91491" lon="1.71612">
        <ele>264.4</ele>
        <time>2022-05-24T06:53:49Z</time>
      </trkpt>
      <trkpt lat="44.91489" lon="1.71609">
        <ele>264.7</ele>
        <time>2022-05-24T06:53:50Z</time>
      </trkpt>
      <trkpt lat="44.91488" lon="1.71606">
        <ele>265</ele>
        <time>2022-05-24T06:53:51Z</time>
      </trkpt>
      <trkpt lat="44.91486" lon="1.71603">
        <ele>265.3</ele>
        <time>2022-05-24T06:53:52Z</time>
      </trkpt>
      <trkpt lat="44.91483" lon="1.716">
        <ele>265.6</ele>
        <time>2022-05-24T06:53:53Z</time>
      </trkpt>
      <trkpt lat="44.91481" lon="1.71597">
        <ele>265.9</ele>
        <time>2022-05-24T06:53:54Z</time>
      </trkpt>
      <trkpt lat="44.91478" lon="1.71593">
        <ele>266.3</ele>
        <time>2022-05-24T06:53:55Z</time>
      </trkpt>
      <trkpt lat="44.91477" lon="1.71592">
        <ele>266.4</ele>
        <time>2022-05-24T06:53:56Z</time>
      </trkpt>
      <trkpt lat="44.91475" lon="1.7159">
        <ele>266.7</ele>
        <time>2022-05-24T06:53:57Z</time>
      </trkpt>
      <trkpt lat="44.91472" lon="1.71589">
        <ele>267</ele>
        <time>2022-05-24T06:53:58Z</time>
      </trkpt>
      <trkpt lat="44.9147" lon="1.71587">
        <ele>267.3</ele>
        <time>2022-05-24T06:53:59Z</time>
      </trkpt>
      <trkpt lat="44.91467" lon="1.71586">
        <ele>267.5</ele>
        <time>2022-05-24T06:54:00Z</time>
      </trkpt>
      <trkpt lat="44.91464" lon="1.71584">
        <ele>267.8</ele>
        <time>2022-05-24T06:54:01Z</time>
      </trkpt>
      <trkpt lat="44.91462" lon="1.71584">
        <ele>268</ele>
        <time>2022-05-24T06:54:02Z</time>
      </trkpt>
      <trkpt lat="44.91459" lon="1.71584">
        <ele>268.2</ele>
        <time>2022-05-24T06:54:03Z</time>
      </trkpt>
      <trkpt lat="44.91456" lon="1.71584">
        <ele>268.5</ele>
        <time>2022-05-24T06:54:04Z</time>
      </trkpt>
      <trkpt lat="44.91453" lon="1.71585">
        <ele>268.7</ele>
        <time>2022-05-24T06:54:05Z</time>
      </trkpt>
      <trkpt lat="44.9145" lon="1.71587">
        <ele>269</ele>
        <time>2022-05-24T06:54:06Z</time>
      </trkpt>
      <trkpt lat="44.91449" lon="1.71588">
        <ele>269.1</ele>
        <time>2022-05-24T06:54:07Z</time>
      </trkpt>
      <trkpt lat="44.91446" lon="1.71591">
        <ele>269.4</ele>
        <time>2022-05-24T06:54:08Z</time>
      </trkpt>
      <trkpt lat="44.91444" lon="1.71595">
        <ele>269.7</ele>
        <time>2022-05-24T06:54:09Z</time>
      </trkpt>
      <trkpt lat="44.91442" lon="1.71598">
        <ele>269.9</ele>
        <time>2022-05-24T06:54:10Z</time>
      </trkpt>
      <trkpt lat="44.9144" lon="1.71601">
        <ele>270.1</ele>
        <time>2022-05-24T06:54:11Z</time>
      </trkpt>
      <trkpt lat="44.91439" lon="1.71606">
        <ele>270.4</ele>
        <time>2022-05-24T06:54:12Z</time>
      </trkpt>
      <trkpt lat="44.91437" lon="1.7161">
        <ele>270.6</ele>
        <time>2022-05-24T06:54:13Z</time>
      </trkpt>
      <trkpt lat="44.91436" lon="1.71614">
        <ele>270.8</ele>
        <time>2022-05-24T06:54:14Z</time>
      </trkpt>
      <trkpt lat="44.91435" lon="1.71619">
        <ele>271</ele>
        <time>2022-05-24T06:54:15Z</time>
      </trkpt>
      <trkpt lat="44.91434" lon="1.71623">
        <ele>271.2</ele>
        <time>2022-05-24T06:54:16Z</time>
      </trkpt>
      <trkpt lat="44.91434" lon="1.71628">
        <ele>271.4</ele>
        <time>2022-05-24T06:54:17Z</time>
      </trkpt>
      <trkpt lat="44.91433" lon="1.71632">
        <ele>271.6</ele>
        <time>2022-05-24T06:54:18Z</time>
      </trkpt>
      <trkpt lat="44.91433" lon="1.71636">
        <ele>271.7</ele>
        <time>2022-05-24T06:54:19Z</time>
      </trkpt>
      <trkpt lat="44.91432" lon="1.7164">
        <ele>271.9</ele>
        <time>2022-05-24T06:54:20Z</time>
      </trkpt>
      <trkpt lat="44.91431" lon="1.71644">
        <ele>272.1</ele>
        <time>2022-05-24T06:54:21Z</time>
      </trkpt>
      <trkpt lat="44.9143" lon="1.71648">
        <ele>272.3</ele>
        <time>2022-05-24T06:54:22Z</time>
      </trkpt>
      <trkpt lat="44.91429" lon="1.71652">
        <ele>272.5</ele>
        <time>2022-05-24T06:54:23Z</time>
      </trkpt>
      <trkpt lat="44.91428" lon="1.71656">
        <ele>272.6</ele>
        <time>2022-05-24T06:54:24Z</time>
      </trkpt>
      <trkpt lat="44.91426" lon="1.7166">
        <ele>272.8</ele>
        <time>2022-05-24T06:54:25Z</time>
      </trkpt>
      <trkpt lat="44.91424" lon="1.71665">
        <ele>273</ele>
        <time>2022-05-24T06:54:26Z</time>
      </trkpt>
      <trkpt lat="44.91424" lon="1.71667">
        <ele>273.1</ele>
        <time>2022-05-24T06:54:27Z</time>
      </trkpt>
      <trkpt lat="44.91422" lon="1.7167">
        <ele>273.3</ele>
        <time>2022-05-24T06:54:28Z</time>
      </trkpt>
      <trkpt lat="44.91419" lon="1.71673">
        <ele>273.5</ele>
        <time>2022-05-24T06:54:29Z</time>
      </trkpt>
      <trkpt lat="44.91417" lon="1.71675">
        <ele>273.7</ele>
        <time>2022-05-24T06:54:30Z</time>
      </trkpt>
      <trkpt lat="44.91413" lon="1.71678">
        <ele>273.9</ele>
        <time>2022-05-24T06:54:31Z</time>
      </trkpt>
      <trkpt lat="44.91412" lon="1.71679">
        <ele>274</ele>
        <time>2022-05-24T06:54:32Z</time>
      </trkpt>
      <trkpt lat="44.91408" lon="1.7168">
        <ele>274.2</ele>
        <time>2022-05-24T06:54:33Z</time>
      </trkpt>
      <trkpt lat="44.91407" lon="1.7168">
        <ele>274.3</ele>
        <time>2022-05-24T06:54:34Z</time>
      </trkpt>
      <trkpt lat="44.91404" lon="1.71679">
        <ele>274.4</ele>
        <time>2022-05-24T06:54:35Z</time>
      </trkpt>
      <trkpt lat="44.91401" lon="1.71679">
        <ele>274.6</ele>
        <time>2022-05-24T06:54:36Z</time>
      </trkpt>
      <trkpt lat="44.91397" lon="1.71678">
        <ele>274.8</ele>
        <time>2022-05-24T06:54:37Z</time>
      </trkpt>
      <trkpt lat="44.91394" lon="1.71676">
        <ele>275</ele>
        <time>2022-05-24T06:54:38Z</time>
      </trkpt>
      <trkpt lat="44.91391" lon="1.71674">
        <ele>275.2</ele>
        <time>2022-05-24T06:54:39Z</time>
      </trkpt>
      <trkpt lat="44.91389" lon="1.71672">
        <ele>275.4</ele>
        <time>2022-05-24T06:54:40Z</time>
      </trkpt>
      <trkpt lat="44.91386" lon="1.71669">
        <ele>275.7</ele>
        <time>2022-05-24T06:54:41Z</time>
      </trkpt>
      <trkpt lat="44.91384" lon="1.71668">
        <ele>275.8</ele>
        <time>2022-05-24T06:54:42Z</time>
      </trkpt>
      <trkpt lat="44.91382" lon="1.71665">
        <ele>276</ele>
        <time>2022-05-24T06:54:43Z</time>
      </trkpt>
      <trkpt lat="44.9138" lon="1.71663">
        <ele>276.2</ele>
        <time>2022-05-24T06:54:44Z</time>
      </trkpt>
      <trkpt lat="44.91378" lon="1.7166">
        <ele>276.4</ele>
        <time>2022-05-24T06:54:45Z</time>
      </trkpt>
      <trkpt lat="44.91376" lon="1.71657">
        <ele>276.6</ele>
        <time>2022-05-24T06:54:46Z</time>
      </trkpt>
      <trkpt lat="44.91373" lon="1.71655">
        <ele>276.8</ele>
        <time>2022-05-24T06:54:47Z</time>
      </trkpt>
      <trkpt lat="44.91371" lon="1.71652">
        <ele>277</ele>
        <time>2022-05-24T06:54:48Z</time>
      </trkpt>
      <trkpt lat="44.91368" lon="1.71649">
        <ele>277.3</ele>
        <time>2022-05-24T06:54:49Z</time>
      </trkpt>
      <trkpt lat="44.91367" lon="1.71647">
        <ele>277.4</ele>
        <time>2022-05-24T06:54:50Z</time>
      </trkpt>
      <trkpt lat="44.91365" lon="1.71643">
        <ele>277.6</ele>
        <time>2022-05-24T06:54:51Z</time>
      </trkpt>
      <trkpt lat="44.91364" lon="1.71642">
        <ele>277.7</ele>
        <time>2022-05-24T06:54:52Z</time>
      </trkpt>
      <trkpt lat="44.91362" lon="1.71637">
        <ele>278</ele>
        <time>2022-05-24T06:54:53Z</time>
      </trkpt>
      <trkpt lat="44.91362" lon="1.71635">
        <ele>278.1</ele>
        <time>2022-05-24T06:54:54Z</time>
      </trkpt>
      <trkpt lat="44.91361" lon="1.71631">
        <ele>278.3</ele>
        <time>2022-05-24T06:54:55Z</time>
      </trkpt>
      <trkpt lat="44.9136" lon="1.71627">
        <ele>278.7</ele>
        <time>2022-05-24T06:54:56Z</time>
      </trkpt>
      <trkpt lat="44.9136" lon="1.71623">
        <ele>278.8</ele>
        <time>2022-05-24T06:54:57Z</time>
      </trkpt>
      <trkpt lat="44.9136" lon="1.7162">
        <ele>279</ele>
        <time>2022-05-24T06:54:58Z</time>
      </trkpt>
      <trkpt lat="44.9136" lon="1.71616">
        <ele>279.3</ele>
        <time>2022-05-24T06:54:59Z</time>
      </trkpt>
      <trkpt lat="44.91361" lon="1.71612">
        <ele>279.6</ele>
        <time>2022-05-24T06:55:00Z</time>
      </trkpt>
      <trkpt lat="44.91362" lon="1.71608">
        <ele>280</ele>
        <time>2022-05-24T06:55:01Z</time>
      </trkpt>
      <trkpt lat="44.91364" lon="1.71604">
        <ele>280.5</ele>
        <time>2022-05-24T06:55:02Z</time>
      </trkpt>
      <trkpt lat="44.91365" lon="1.71602">
        <ele>280.6</ele>
        <time>2022-05-24T06:55:03Z</time>
      </trkpt>
      <trkpt lat="44.91367" lon="1.71599">
        <ele>281</ele>
        <time>2022-05-24T06:55:04Z</time>
      </trkpt>
      <trkpt lat="44.91369" lon="1.71596">
        <ele>281.3</ele>
        <time>2022-05-24T06:55:05Z</time>
      </trkpt>
      <trkpt lat="44.9137" lon="1.71593">
        <ele>281.6</ele>
        <time>2022-05-24T06:55:06Z</time>
      </trkpt>
      <trkpt lat="44.91372" lon="1.7159">
        <ele>281.9</ele>
        <time>2022-05-24T06:55:07Z</time>
      </trkpt>
      <trkpt lat="44.91374" lon="1.71587">
        <ele>282.3</ele>
        <time>2022-05-24T06:55:08Z</time>
      </trkpt>
      <trkpt lat="44.91375" lon="1.71584">
        <ele>282.6</ele>
        <time>2022-05-24T06:55:09Z</time>
      </trkpt>
      <trkpt lat="44.91377" lon="1.7158">
        <ele>283</ele>
        <time>2022-05-24T06:55:10Z</time>
      </trkpt>
      <trkpt lat="44.91379" lon="1.71577">
        <ele>283.4</ele>
        <time>2022-05-24T06:55:11Z</time>
      </trkpt>
      <trkpt lat="44.9138" lon="1.71573">
        <ele>283.7</ele>
        <time>2022-05-24T06:55:12Z</time>
      </trkpt>
      <trkpt lat="44.91382" lon="1.7157">
        <ele>284.1</ele>
        <time>2022-05-24T06:55:13Z</time>
      </trkpt>
      <trkpt lat="44.91383" lon="1.71566">
        <ele>284.5</ele>
        <time>2022-05-24T06:55:14Z</time>
      </trkpt>
      <trkpt lat="44.91384" lon="1.71562">
        <ele>284.8</ele>
        <time>2022-05-24T06:55:15Z</time>
      </trkpt>
      <trkpt lat="44.91386" lon="1.71559">
        <ele>285.2</ele>
        <time>2022-05-24T06:55:16Z</time>
      </trkpt>
      <trkpt lat="44.91387" lon="1.71556">
        <ele>285.5</ele>
        <time>2022-05-24T06:55:17Z</time>
      </trkpt>
      <trkpt lat="44.91389" lon="1.71552">
        <ele>285.9</ele>
        <time>2022-05-24T06:55:18Z</time>
      </trkpt>
      <trkpt lat="44.9139" lon="1.71549">
        <ele>286.2</ele>
        <time>2022-05-24T06:55:19Z</time>
      </trkpt>
      <trkpt lat="44.91391" lon="1.71545">
        <ele>286.6</ele>
        <time>2022-05-24T06:55:20Z</time>
      </trkpt>
      <trkpt lat="44.91392" lon="1.71542">
        <ele>286.9</ele>
        <time>2022-05-24T06:55:21Z</time>
      </trkpt>
      <trkpt lat="44.91394" lon="1.71537">
        <ele>287.3</ele>
        <time>2022-05-24T06:55:22Z</time>
      </trkpt>
      <trkpt lat="44.91395" lon="1.71535">
        <ele>287.5</ele>
        <time>2022-05-24T06:55:23Z</time>
      </trkpt>
      <trkpt lat="44.91396" lon="1.71531">
        <ele>287.8</ele>
        <time>2022-05-24T06:55:24Z</time>
      </trkpt>
      <trkpt lat="44.91397" lon="1.71527">
        <ele>288.1</ele>
        <time>2022-05-24T06:55:25Z</time>
      </trkpt>
      <trkpt lat="44.91398" lon="1.71523">
        <ele>288.4</ele>
        <time>2022-05-24T06:55:26Z</time>
      </trkpt>
      <trkpt lat="44.91398" lon="1.71519">
        <ele>288.6</ele>
        <time>2022-05-24T06:55:27Z</time>
      </trkpt>
      <trkpt lat="44.91399" lon="1.71515">
        <ele>288.9</ele>
        <time>2022-05-24T06:55:28Z</time>
      </trkpt>
      <trkpt lat="44.91399" lon="1.71511">
        <ele>289.1</ele>
        <time>2022-05-24T06:55:29Z</time>
      </trkpt>
      <trkpt lat="44.91399" lon="1.71506">
        <ele>289.5</ele>
        <time>2022-05-24T06:55:30Z</time>
      </trkpt>
      <trkpt lat="44.91399" lon="1.71504">
        <ele>289.6</ele>
        <time>2022-05-24T06:55:31Z</time>
      </trkpt>
      <trkpt lat="44.91398" lon="1.715">
        <ele>289.8</ele>
        <time>2022-05-24T06:55:32Z</time>
      </trkpt>
      <trkpt lat="44.91398" lon="1.71494">
        <ele>290.1</ele>
        <time>2022-05-24T06:55:33Z</time>
      </trkpt>
      <trkpt lat="44.91398" lon="1.71492">
        <ele>290.2</ele>
        <time>2022-05-24T06:55:34Z</time>
      </trkpt>
      <trkpt lat="44.91398" lon="1.71488">
        <ele>290.4</ele>
        <time>2022-05-24T06:55:35Z</time>
      </trkpt>
      <trkpt lat="44.91398" lon="1.71484">
        <ele>290.5</ele>
        <time>2022-05-24T06:55:36Z</time>
      </trkpt>
      <trkpt lat="44.91397" lon="1.7148">
        <ele>290.7</ele>
        <time>2022-05-24T06:55:37Z</time>
      </trkpt>
      <trkpt lat="44.91397" lon="1.71476">
        <ele>290.9</ele>
        <time>2022-05-24T06:55:38Z</time>
      </trkpt>
      <trkpt lat="44.91398" lon="1.71471">
        <ele>291.1</ele>
        <time>2022-05-24T06:55:39Z</time>
      </trkpt>
      <trkpt lat="44.91398" lon="1.71467">
        <ele>291.3</ele>
        <time>2022-05-24T06:55:40Z</time>
      </trkpt>
      <trkpt lat="44.91398" lon="1.71463">
        <ele>291.5</ele>
        <time>2022-05-24T06:55:41Z</time>
      </trkpt>
      <trkpt lat="44.91398" lon="1.71458">
        <ele>291.6</ele>
        <time>2022-05-24T06:55:42Z</time>
      </trkpt>
      <trkpt lat="44.91399" lon="1.71454">
        <ele>291.8</ele>
        <time>2022-05-24T06:55:43Z</time>
      </trkpt>
      <trkpt lat="44.91399" lon="1.7145">
        <ele>292</ele>
        <time>2022-05-24T06:55:44Z</time>
      </trkpt>
      <trkpt lat="44.91399" lon="1.71445">
        <ele>292.2</ele>
        <time>2022-05-24T06:55:45Z</time>
      </trkpt>
      <trkpt lat="44.91399" lon="1.71441">
        <ele>292.4</ele>
        <time>2022-05-24T06:55:46Z</time>
      </trkpt>
      <trkpt lat="44.91399" lon="1.71436">
        <ele>292.6</ele>
        <time>2022-05-24T06:55:47Z</time>
      </trkpt>
      <trkpt lat="44.91399" lon="1.71432">
        <ele>292.7</ele>
        <time>2022-05-24T06:55:48Z</time>
      </trkpt>
      <trkpt lat="44.91398" lon="1.71427">
        <ele>292.9</ele>
        <time>2022-05-24T06:55:49Z</time>
      </trkpt>
      <trkpt lat="44.91398" lon="1.71422">
        <ele>293.1</ele>
        <time>2022-05-24T06:55:50Z</time>
      </trkpt>
      <trkpt lat="44.91397" lon="1.71418">
        <ele>293.2</ele>
        <time>2022-05-24T06:55:51Z</time>
      </trkpt>
      <trkpt lat="44.91397" lon="1.71413">
        <ele>293.4</ele>
        <time>2022-05-24T06:55:52Z</time>
      </trkpt>
      <trkpt lat="44.91396" lon="1.71408">
        <ele>293.6</ele>
        <time>2022-05-24T06:55:53Z</time>
      </trkpt>
      <trkpt lat="44.91395" lon="1.71403">
        <ele>293.8</ele>
        <time>2022-05-24T06:55:54Z</time>
      </trkpt>
      <trkpt lat="44.91394" lon="1.71398">
        <ele>294</ele>
        <time>2022-05-24T06:55:55Z</time>
      </trkpt>
      <trkpt lat="44.91394" lon="1.71394">
        <ele>294.2</ele>
        <time>2022-05-24T06:55:56Z</time>
      </trkpt>
      <trkpt lat="44.91393" lon="1.7139">
        <ele>294.3</ele>
        <time>2022-05-24T06:55:57Z</time>
      </trkpt>
      <trkpt lat="44.91392" lon="1.71386">
        <ele>294.5</ele>
        <time>2022-05-24T06:55:58Z</time>
      </trkpt>
      <trkpt lat="44.91391" lon="1.71381">
        <ele>294.7</ele>
        <time>2022-05-24T06:55:59Z</time>
      </trkpt>
      <trkpt lat="44.91391" lon="1.7138">
        <ele>294.7</ele>
        <time>2022-05-24T06:56:00Z</time>
      </trkpt>
      <trkpt lat="44.91391" lon="1.71374">
        <ele>294.9</ele>
        <time>2022-05-24T06:56:01Z</time>
      </trkpt>
      <trkpt lat="44.91391" lon="1.71371">
        <ele>294.9</ele>
        <time>2022-05-24T06:56:02Z</time>
      </trkpt>
      <trkpt lat="44.91391" lon="1.71366">
        <ele>295.1</ele>
        <time>2022-05-24T06:56:03Z</time>
      </trkpt>
      <trkpt lat="44.91392" lon="1.7136">
        <ele>295.2</ele>
        <time>2022-05-24T06:56:04Z</time>
      </trkpt>
      <trkpt lat="44.91392" lon="1.71355">
        <ele>295.3</ele>
        <time>2022-05-24T06:56:05Z</time>
      </trkpt>
      <trkpt lat="44.91392" lon="1.71351">
        <ele>295.4</ele>
        <time>2022-05-24T06:56:06Z</time>
      </trkpt>
      <trkpt lat="44.91392" lon="1.71346">
        <ele>295.4</ele>
        <time>2022-05-24T06:56:07Z</time>
      </trkpt>
      <trkpt lat="44.91391" lon="1.7134">
        <ele>295.4</ele>
        <time>2022-05-24T06:56:08Z</time>
      </trkpt>
      <trkpt lat="44.91391" lon="1.71335">
        <ele>295.4</ele>
        <time>2022-05-24T06:56:09Z</time>
      </trkpt>
      <trkpt lat="44.91391" lon="1.71329">
        <ele>295.4</ele>
        <time>2022-05-24T06:56:10Z</time>
      </trkpt>
      <trkpt lat="44.91391" lon="1.71324">
        <ele>295.4</ele>
        <time>2022-05-24T06:56:11Z</time>
      </trkpt>
      <trkpt lat="44.91392" lon="1.7132">
        <ele>295.4</ele>
        <time>2022-05-24T06:56:12Z</time>
      </trkpt>
      <trkpt lat="44.91392" lon="1.71315">
        <ele>295.3</ele>
        <time>2022-05-24T06:56:13Z</time>
      </trkpt>
      <trkpt lat="44.91393" lon="1.71309">
        <ele>295.2</ele>
        <time>2022-05-24T06:56:14Z</time>
      </trkpt>
      <trkpt lat="44.91393" lon="1.71302">
        <ele>295.2</ele>
        <time>2022-05-24T06:56:15Z</time>
      </trkpt>
      <trkpt lat="44.91393" lon="1.71295">
        <ele>295.1</ele>
        <time>2022-05-24T06:56:16Z</time>
      </trkpt>
      <trkpt lat="44.91393" lon="1.71288">
        <ele>295</ele>
        <time>2022-05-24T06:56:17Z</time>
      </trkpt>
      <trkpt lat="44.91393" lon="1.71281">
        <ele>294.9</ele>
        <time>2022-05-24T06:56:18Z</time>
      </trkpt>
      <trkpt lat="44.91394" lon="1.71273">
        <ele>294.9</ele>
        <time>2022-05-24T06:56:19Z</time>
      </trkpt>
      <trkpt lat="44.91394" lon="1.71265">
        <ele>294.7</ele>
        <time>2022-05-24T06:56:20Z</time>
      </trkpt>
      <trkpt lat="44.91394" lon="1.71259">
        <ele>294.7</ele>
        <time>2022-05-24T06:56:21Z</time>
      </trkpt>
      <trkpt lat="44.91393" lon="1.71252">
        <ele>294.5</ele>
        <time>2022-05-24T06:56:22Z</time>
      </trkpt>
      <trkpt lat="44.91391" lon="1.71245">
        <ele>294.4</ele>
        <time>2022-05-24T06:56:23Z</time>
      </trkpt>
      <trkpt lat="44.91389" lon="1.7124">
        <ele>294.2</ele>
        <time>2022-05-24T06:56:24Z</time>
      </trkpt>
      <trkpt lat="44.91387" lon="1.71233">
        <ele>293.9</ele>
        <time>2022-05-24T06:56:25Z</time>
      </trkpt>
      <trkpt lat="44.91384" lon="1.71225">
        <ele>293.6</ele>
        <time>2022-05-24T06:56:26Z</time>
      </trkpt>
      <trkpt lat="44.91383" lon="1.71217">
        <ele>293.3</ele>
        <time>2022-05-24T06:56:27Z</time>
      </trkpt>
      <trkpt lat="44.9138" lon="1.71208">
        <ele>293</ele>
        <time>2022-05-24T06:56:28Z</time>
      </trkpt>
      <trkpt lat="44.91379" lon="1.712">
        <ele>292.8</ele>
        <time>2022-05-24T06:56:29Z</time>
      </trkpt>
      <trkpt lat="44.91376" lon="1.7119">
        <ele>292.6</ele>
        <time>2022-05-24T06:56:30Z</time>
      </trkpt>
      <trkpt lat="44.91374" lon="1.71181">
        <ele>292.4</ele>
        <time>2022-05-24T06:56:31Z</time>
      </trkpt>
      <trkpt lat="44.91373" lon="1.71171">
        <ele>292.3</ele>
        <time>2022-05-24T06:56:32Z</time>
      </trkpt>
      <trkpt lat="44.91371" lon="1.71162">
        <ele>292.1</ele>
        <time>2022-05-24T06:56:33Z</time>
      </trkpt>
      <trkpt lat="44.9137" lon="1.71153">
        <ele>291.9</ele>
        <time>2022-05-24T06:56:34Z</time>
      </trkpt>
      <trkpt lat="44.91371" lon="1.71144">
        <ele>291.6</ele>
        <time>2022-05-24T06:56:35Z</time>
      </trkpt>
      <trkpt lat="44.91372" lon="1.71136">
        <ele>291.4</ele>
        <time>2022-05-24T06:56:36Z</time>
      </trkpt>
      <trkpt lat="44.91374" lon="1.71129">
        <ele>291.2</ele>
        <time>2022-05-24T06:56:37Z</time>
      </trkpt>
      <trkpt lat="44.91375" lon="1.71121">
        <ele>290.9</ele>
        <time>2022-05-24T06:56:38Z</time>
      </trkpt>
      <trkpt lat="44.91376" lon="1.71114">
        <ele>290.7</ele>
        <time>2022-05-24T06:56:39Z</time>
      </trkpt>
      <trkpt lat="44.91378" lon="1.71106">
        <ele>290.5</ele>
        <time>2022-05-24T06:56:40Z</time>
      </trkpt>
      <trkpt lat="44.9138" lon="1.71098">
        <ele>290.3</ele>
        <time>2022-05-24T06:56:41Z</time>
      </trkpt>
      <trkpt lat="44.91382" lon="1.7109">
        <ele>290.2</ele>
        <time>2022-05-24T06:56:42Z</time>
      </trkpt>
      <trkpt lat="44.91383" lon="1.71082">
        <ele>290</ele>
        <time>2022-05-24T06:56:43Z</time>
      </trkpt>
      <trkpt lat="44.91386" lon="1.71074">
        <ele>289.8</ele>
        <time>2022-05-24T06:56:44Z</time>
      </trkpt>
      <trkpt lat="44.91388" lon="1.71067">
        <ele>289.6</ele>
        <time>2022-05-24T06:56:45Z</time>
      </trkpt>
      <trkpt lat="44.9139" lon="1.7106">
        <ele>289.4</ele>
        <time>2022-05-24T06:56:46Z</time>
      </trkpt>
      <trkpt lat="44.91392" lon="1.71052">
        <ele>289.2</ele>
        <time>2022-05-24T06:56:47Z</time>
      </trkpt>
      <trkpt lat="44.91394" lon="1.71044">
        <ele>289</ele>
        <time>2022-05-24T06:56:48Z</time>
      </trkpt>
      <trkpt lat="44.91397" lon="1.71036">
        <ele>288.8</ele>
        <time>2022-05-24T06:56:49Z</time>
      </trkpt>
      <trkpt lat="44.914" lon="1.71028">
        <ele>288.6</ele>
        <time>2022-05-24T06:56:50Z</time>
      </trkpt>
      <trkpt lat="44.91403" lon="1.71021">
        <ele>288.3</ele>
        <time>2022-05-24T06:56:51Z</time>
      </trkpt>
      <trkpt lat="44.91405" lon="1.71014">
        <ele>288</ele>
        <time>2022-05-24T06:56:52Z</time>
      </trkpt>
      <trkpt lat="44.91407" lon="1.71006">
        <ele>287.8</ele>
        <time>2022-05-24T06:56:53Z</time>
      </trkpt>
      <trkpt lat="44.9141" lon="1.70998">
        <ele>287.7</ele>
        <time>2022-05-24T06:56:54Z</time>
      </trkpt>
      <trkpt lat="44.91412" lon="1.7099">
        <ele>287.5</ele>
        <time>2022-05-24T06:56:55Z</time>
      </trkpt>
      <trkpt lat="44.91415" lon="1.70983">
        <ele>287.4</ele>
        <time>2022-05-24T06:56:56Z</time>
      </trkpt>
      <trkpt lat="44.91418" lon="1.70975">
        <ele>287.2</ele>
        <time>2022-05-24T06:56:57Z</time>
      </trkpt>
      <trkpt lat="44.91421" lon="1.70967">
        <ele>286.9</ele>
        <time>2022-05-24T06:56:58Z</time>
      </trkpt>
      <trkpt lat="44.91425" lon="1.70959">
        <ele>286.6</ele>
        <time>2022-05-24T06:56:59Z</time>
      </trkpt>
      <trkpt lat="44.9143" lon="1.70952">
        <ele>286.3</ele>
        <time>2022-05-24T06:57:00Z</time>
      </trkpt>
      <trkpt lat="44.91435" lon="1.70944">
        <ele>286</ele>
        <time>2022-05-24T06:57:01Z</time>
      </trkpt>
      <trkpt lat="44.91441" lon="1.70936">
        <ele>285.6</ele>
        <time>2022-05-24T06:57:02Z</time>
      </trkpt>
      <trkpt lat="44.91446" lon="1.70927">
        <ele>285.3</ele>
        <time>2022-05-24T06:57:03Z</time>
      </trkpt>
      <trkpt lat="44.91451" lon="1.70918">
        <ele>285</ele>
        <time>2022-05-24T06:57:04Z</time>
      </trkpt>
      <trkpt lat="44.91456" lon="1.70908">
        <ele>284.7</ele>
        <time>2022-05-24T06:57:05Z</time>
      </trkpt>
      <trkpt lat="44.91461" lon="1.70899">
        <ele>284.6</ele>
        <time>2022-05-24T06:57:06Z</time>
      </trkpt>
      <trkpt lat="44.91465" lon="1.7089">
        <ele>284.5</ele>
        <time>2022-05-24T06:57:07Z</time>
      </trkpt>
      <trkpt lat="44.91469" lon="1.7088">
        <ele>284.4</ele>
        <time>2022-05-24T06:57:08Z</time>
      </trkpt>
      <trkpt lat="44.91474" lon="1.70871">
        <ele>284.3</ele>
        <time>2022-05-24T06:57:09Z</time>
      </trkpt>
      <trkpt lat="44.91478" lon="1.70862">
        <ele>284.3</ele>
        <time>2022-05-24T06:57:10Z</time>
      </trkpt>
      <trkpt lat="44.91482" lon="1.70854">
        <ele>284.4</ele>
        <time>2022-05-24T06:57:11Z</time>
      </trkpt>
      <trkpt lat="44.91486" lon="1.70846">
        <ele>284.6</ele>
        <time>2022-05-24T06:57:12Z</time>
      </trkpt>
      <trkpt lat="44.9149" lon="1.70838">
        <ele>284.9</ele>
        <time>2022-05-24T06:57:13Z</time>
      </trkpt>
      <trkpt lat="44.91493" lon="1.70831">
        <ele>285.3</ele>
        <time>2022-05-24T06:57:14Z</time>
      </trkpt>
      <trkpt lat="44.91498" lon="1.70827">
        <ele>285.7</ele>
        <time>2022-05-24T06:57:15Z</time>
      </trkpt>
      <trkpt lat="44.91501" lon="1.7082">
        <ele>286.1</ele>
        <time>2022-05-24T06:57:16Z</time>
      </trkpt>
      <trkpt lat="44.91503" lon="1.70812">
        <ele>286.5</ele>
        <time>2022-05-24T06:57:17Z</time>
      </trkpt>
      <trkpt lat="44.91505" lon="1.70806">
        <ele>286.8</ele>
        <time>2022-05-24T06:57:18Z</time>
      </trkpt>
      <trkpt lat="44.91508" lon="1.708">
        <ele>287.1</ele>
        <time>2022-05-24T06:57:19Z</time>
      </trkpt>
      <trkpt lat="44.9151" lon="1.70794">
        <ele>287.5</ele>
        <time>2022-05-24T06:57:20Z</time>
      </trkpt>
      <trkpt lat="44.91512" lon="1.70788">
        <ele>287.8</ele>
        <time>2022-05-24T06:57:21Z</time>
      </trkpt>
      <trkpt lat="44.91514" lon="1.70782">
        <ele>288.1</ele>
        <time>2022-05-24T06:57:22Z</time>
      </trkpt>
      <trkpt lat="44.91516" lon="1.70776">
        <ele>288.5</ele>
        <time>2022-05-24T06:57:23Z</time>
      </trkpt>
      <trkpt lat="44.91518" lon="1.70771">
        <ele>288.9</ele>
        <time>2022-05-24T06:57:24Z</time>
      </trkpt>
      <trkpt lat="44.91522" lon="1.70761">
        <ele>289.6</ele>
        <time>2022-05-24T06:57:26Z</time>
      </trkpt>
      <trkpt lat="44.91524" lon="1.70755">
        <ele>289.9</ele>
        <time>2022-05-24T06:57:27Z</time>
      </trkpt>
      <trkpt lat="44.91526" lon="1.7075">
        <ele>290.3</ele>
        <time>2022-05-24T06:57:28Z</time>
      </trkpt>
      <trkpt lat="44.91528" lon="1.70746">
        <ele>290.5</ele>
        <time>2022-05-24T06:57:29Z</time>
      </trkpt>
      <trkpt lat="44.91529" lon="1.70742">
        <ele>290.7</ele>
        <time>2022-05-24T06:57:30Z</time>
      </trkpt>
      <trkpt lat="44.9153" lon="1.70737">
        <ele>290.9</ele>
        <time>2022-05-24T06:57:31Z</time>
      </trkpt>
      <trkpt lat="44.9153" lon="1.70731">
        <ele>291.2</ele>
        <time>2022-05-24T06:57:32Z</time>
      </trkpt>
      <trkpt lat="44.91531" lon="1.70725">
        <ele>291.4</ele>
        <time>2022-05-24T06:57:33Z</time>
      </trkpt>
      <trkpt lat="44.91532" lon="1.70719">
        <ele>291.6</ele>
        <time>2022-05-24T06:57:34Z</time>
      </trkpt>
      <trkpt lat="44.91533" lon="1.70713">
        <ele>291.7</ele>
        <time>2022-05-24T06:57:35Z</time>
      </trkpt>
      <trkpt lat="44.91535" lon="1.70707">
        <ele>291.8</ele>
        <time>2022-05-24T06:57:36Z</time>
      </trkpt>
      <trkpt lat="44.91535" lon="1.70699">
        <ele>292</ele>
        <time>2022-05-24T06:57:37Z</time>
      </trkpt>
      <trkpt lat="44.91536" lon="1.70692">
        <ele>292.1</ele>
        <time>2022-05-24T06:57:38Z</time>
      </trkpt>
      <trkpt lat="44.91537" lon="1.70685">
        <ele>292.2</ele>
        <time>2022-05-24T06:57:39Z</time>
      </trkpt>
      <trkpt lat="44.91539" lon="1.70679">
        <ele>292.3</ele>
        <time>2022-05-24T06:57:40Z</time>
      </trkpt>
      <trkpt lat="44.91541" lon="1.70674">
        <ele>292.4</ele>
        <time>2022-05-24T06:57:41Z</time>
      </trkpt>
      <trkpt lat="44.91544" lon="1.70669">
        <ele>292.5</ele>
        <time>2022-05-24T06:57:42Z</time>
      </trkpt>
      <trkpt lat="44.91546" lon="1.70664">
        <ele>292.6</ele>
        <time>2022-05-24T06:57:43Z</time>
      </trkpt>
      <trkpt lat="44.91548" lon="1.70658">
        <ele>292.6</ele>
        <time>2022-05-24T06:57:44Z</time>
      </trkpt>
      <trkpt lat="44.9155" lon="1.70653">
        <ele>292.6</ele>
        <time>2022-05-24T06:57:45Z</time>
      </trkpt>
      <trkpt lat="44.91552" lon="1.70647">
        <ele>292.6</ele>
        <time>2022-05-24T06:57:46Z</time>
      </trkpt>
      <trkpt lat="44.91554" lon="1.70642">
        <ele>292.6</ele>
        <time>2022-05-24T06:57:47Z</time>
      </trkpt>
      <trkpt lat="44.91556" lon="1.70635">
        <ele>292.5</ele>
        <time>2022-05-24T06:57:48Z</time>
      </trkpt>
      <trkpt lat="44.91557" lon="1.70627">
        <ele>292.4</ele>
        <time>2022-05-24T06:57:49Z</time>
      </trkpt>
      <trkpt lat="44.91556" lon="1.70619">
        <ele>292.2</ele>
        <time>2022-05-24T06:57:50Z</time>
      </trkpt>
      <trkpt lat="44.91553" lon="1.70612">
        <ele>292.1</ele>
        <time>2022-05-24T06:57:51Z</time>
      </trkpt>
      <trkpt lat="44.9155" lon="1.70605">
        <ele>291.9</ele>
        <time>2022-05-24T06:57:52Z</time>
      </trkpt>
      <trkpt lat="44.91547" lon="1.70596">
        <ele>291.6</ele>
        <time>2022-05-24T06:57:53Z</time>
      </trkpt>
      <trkpt lat="44.91544" lon="1.70587">
        <ele>291.3</ele>
        <time>2022-05-24T06:57:54Z</time>
      </trkpt>
      <trkpt lat="44.91543" lon="1.70575">
        <ele>291</ele>
        <time>2022-05-24T06:57:55Z</time>
      </trkpt>
      <trkpt lat="44.91542" lon="1.70565">
        <ele>290.6</ele>
        <time>2022-05-24T06:57:56Z</time>
      </trkpt>
      <trkpt lat="44.9154" lon="1.70554">
        <ele>290.2</ele>
        <time>2022-05-24T06:57:57Z</time>
      </trkpt>
      <trkpt lat="44.91539" lon="1.70545">
        <ele>289.9</ele>
        <time>2022-05-24T06:57:58Z</time>
      </trkpt>
      <trkpt lat="44.91538" lon="1.70536">
        <ele>289.5</ele>
        <time>2022-05-24T06:57:59Z</time>
      </trkpt>
      <trkpt lat="44.91541" lon="1.70526">
        <ele>289.1</ele>
        <time>2022-05-24T06:58:00Z</time>
      </trkpt>
      <trkpt lat="44.91543" lon="1.70518">
        <ele>288.7</ele>
        <time>2022-05-24T06:58:01Z</time>
      </trkpt>
      <trkpt lat="44.91545" lon="1.70508">
        <ele>288.4</ele>
        <time>2022-05-24T06:58:02Z</time>
      </trkpt>
      <trkpt lat="44.91548" lon="1.70499">
        <ele>288.1</ele>
        <time>2022-05-24T06:58:03Z</time>
      </trkpt>
      <trkpt lat="44.91551" lon="1.7049">
        <ele>287.8</ele>
        <time>2022-05-24T06:58:04Z</time>
      </trkpt>
      <trkpt lat="44.91553" lon="1.70483">
        <ele>287.7</ele>
        <time>2022-05-24T06:58:05Z</time>
      </trkpt>
      <trkpt lat="44.91557" lon="1.70477">
        <ele>287.5</ele>
        <time>2022-05-24T06:58:06Z</time>
      </trkpt>
      <trkpt lat="44.91561" lon="1.70473">
        <ele>287.3</ele>
        <time>2022-05-24T06:58:07Z</time>
      </trkpt>
      <trkpt lat="44.91566" lon="1.70467">
        <ele>287.1</ele>
        <time>2022-05-24T06:58:08Z</time>
      </trkpt>
      <trkpt lat="44.91572" lon="1.7046">
        <ele>286.9</ele>
        <time>2022-05-24T06:58:09Z</time>
      </trkpt>
      <trkpt lat="44.91576" lon="1.70452">
        <ele>286.8</ele>
        <time>2022-05-24T06:58:10Z</time>
      </trkpt>
      <trkpt lat="44.9158" lon="1.70445">
        <ele>286.7</ele>
        <time>2022-05-24T06:58:11Z</time>
      </trkpt>
      <trkpt lat="44.91583" lon="1.70436">
        <ele>286.6</ele>
        <time>2022-05-24T06:58:12Z</time>
      </trkpt>
      <trkpt lat="44.91586" lon="1.70427">
        <ele>286.6</ele>
        <time>2022-05-24T06:58:13Z</time>
      </trkpt>
      <trkpt lat="44.91589" lon="1.70419">
        <ele>286.6</ele>
        <time>2022-05-24T06:58:14Z</time>
      </trkpt>
      <trkpt lat="44.91592" lon="1.70413">
        <ele>286.6</ele>
        <time>2022-05-24T06:58:15Z</time>
      </trkpt>
      <trkpt lat="44.91595" lon="1.70407">
        <ele>286.7</ele>
        <time>2022-05-24T06:58:16Z</time>
      </trkpt>
      <trkpt lat="44.91598" lon="1.70401">
        <ele>286.7</ele>
        <time>2022-05-24T06:58:17Z</time>
      </trkpt>
      <trkpt lat="44.91601" lon="1.70396">
        <ele>286.8</ele>
        <time>2022-05-24T06:58:18Z</time>
      </trkpt>
      <trkpt lat="44.91603" lon="1.70392">
        <ele>286.8</ele>
        <time>2022-05-24T06:58:19Z</time>
      </trkpt>
      <trkpt lat="44.91606" lon="1.70387">
        <ele>286.9</ele>
        <time>2022-05-24T06:58:20Z</time>
      </trkpt>
      <trkpt lat="44.91608" lon="1.70383">
        <ele>286.9</ele>
        <time>2022-05-24T06:58:21Z</time>
      </trkpt>
      <trkpt lat="44.91609" lon="1.70379">
        <ele>286.9</ele>
        <time>2022-05-24T06:58:22Z</time>
      </trkpt>
      <trkpt lat="44.91611" lon="1.70375">
        <ele>287</ele>
        <time>2022-05-24T06:58:23Z</time>
      </trkpt>
      <trkpt lat="44.91612" lon="1.7037">
        <ele>287</ele>
        <time>2022-05-24T06:58:24Z</time>
      </trkpt>
      <trkpt lat="44.91613" lon="1.70364">
        <ele>287.2</ele>
        <time>2022-05-24T06:58:25Z</time>
      </trkpt>
      <trkpt lat="44.91613" lon="1.70358">
        <ele>287.4</ele>
        <time>2022-05-24T06:58:26Z</time>
      </trkpt>
      <trkpt lat="44.91614" lon="1.70352">
        <ele>287.6</ele>
        <time>2022-05-24T06:58:27Z</time>
      </trkpt>
      <trkpt lat="44.91615" lon="1.70347">
        <ele>287.9</ele>
        <time>2022-05-24T06:58:28Z</time>
      </trkpt>
      <trkpt lat="44.91616" lon="1.7034">
        <ele>288.2</ele>
        <time>2022-05-24T06:58:29Z</time>
      </trkpt>
      <trkpt lat="44.91617" lon="1.70333">
        <ele>288.6</ele>
        <time>2022-05-24T06:58:30Z</time>
      </trkpt>
      <trkpt lat="44.9162" lon="1.70327">
        <ele>288.9</ele>
        <time>2022-05-24T06:58:31Z</time>
      </trkpt>
      <trkpt lat="44.91623" lon="1.70321">
        <ele>289.2</ele>
        <time>2022-05-24T06:58:32Z</time>
      </trkpt>
      <trkpt lat="44.91625" lon="1.70315">
        <ele>289.5</ele>
        <time>2022-05-24T06:58:33Z</time>
      </trkpt>
      <trkpt lat="44.91626" lon="1.70309">
        <ele>289.8</ele>
        <time>2022-05-24T06:58:34Z</time>
      </trkpt>
      <trkpt lat="44.91627" lon="1.70302">
        <ele>290.1</ele>
        <time>2022-05-24T06:58:35Z</time>
      </trkpt>
      <trkpt lat="44.91629" lon="1.70295">
        <ele>290.4</ele>
        <time>2022-05-24T06:58:36Z</time>
      </trkpt>
      <trkpt lat="44.9163" lon="1.70288">
        <ele>290.6</ele>
        <time>2022-05-24T06:58:37Z</time>
      </trkpt>
      <trkpt lat="44.91632" lon="1.70281">
        <ele>290.9</ele>
        <time>2022-05-24T06:58:38Z</time>
      </trkpt>
      <trkpt lat="44.91633" lon="1.70274">
        <ele>291.1</ele>
        <time>2022-05-24T06:58:39Z</time>
      </trkpt>
      <trkpt lat="44.91633" lon="1.70267">
        <ele>291.3</ele>
        <time>2022-05-24T06:58:40Z</time>
      </trkpt>
      <trkpt lat="44.91636" lon="1.70262">
        <ele>291.5</ele>
        <time>2022-05-24T06:58:41Z</time>
      </trkpt>
      <trkpt lat="44.91639" lon="1.70258">
        <ele>291.7</ele>
        <time>2022-05-24T06:58:42Z</time>
      </trkpt>
      <trkpt lat="44.91649" lon="1.70257">
        <ele>292.2</ele>
        <time>2022-05-24T06:58:43Z</time>
      </trkpt>
      <trkpt lat="44.91663" lon="1.7025">
        <ele>292.7</ele>
        <time>2022-05-24T06:58:48Z</time>
      </trkpt>
      <trkpt lat="44.91671" lon="1.70245">
        <ele>292.9</ele>
        <time>2022-05-24T06:58:49Z</time>
      </trkpt>
      <trkpt lat="44.91679" lon="1.70239">
        <ele>293.2</ele>
        <time>2022-05-24T06:58:50Z</time>
      </trkpt>
      <trkpt lat="44.91683" lon="1.70236">
        <ele>293.4</ele>
        <time>2022-05-24T06:58:51Z</time>
      </trkpt>
      <trkpt lat="44.91687" lon="1.70232">
        <ele>293.5</ele>
        <time>2022-05-24T06:58:52Z</time>
      </trkpt>
      <trkpt lat="44.91691" lon="1.70227">
        <ele>293.7</ele>
        <time>2022-05-24T06:58:53Z</time>
      </trkpt>
      <trkpt lat="44.91694" lon="1.70222">
        <ele>293.9</ele>
        <time>2022-05-24T06:58:54Z</time>
      </trkpt>
      <trkpt lat="44.91696" lon="1.70216">
        <ele>294</ele>
        <time>2022-05-24T06:58:55Z</time>
      </trkpt>
      <trkpt lat="44.91698" lon="1.70212">
        <ele>294.1</ele>
        <time>2022-05-24T06:58:56Z</time>
      </trkpt>
      <trkpt lat="44.91701" lon="1.70208">
        <ele>294.2</ele>
        <time>2022-05-24T06:58:57Z</time>
      </trkpt>
      <trkpt lat="44.91704" lon="1.70203">
        <ele>294.3</ele>
        <time>2022-05-24T06:58:58Z</time>
      </trkpt>
      <trkpt lat="44.91708" lon="1.70199">
        <ele>294.3</ele>
        <time>2022-05-24T06:58:59Z</time>
      </trkpt>
      <trkpt lat="44.91712" lon="1.70195">
        <ele>294.4</ele>
        <time>2022-05-24T06:59:00Z</time>
      </trkpt>
      <trkpt lat="44.91716" lon="1.70191">
        <ele>294.6</ele>
        <time>2022-05-24T06:59:01Z</time>
      </trkpt>
      <trkpt lat="44.9172" lon="1.70188">
        <ele>294.8</ele>
        <time>2022-05-24T06:59:02Z</time>
      </trkpt>
      <trkpt lat="44.91724" lon="1.70184">
        <ele>295</ele>
        <time>2022-05-24T06:59:03Z</time>
      </trkpt>
      <trkpt lat="44.91728" lon="1.7018">
        <ele>295.2</ele>
        <time>2022-05-24T06:59:04Z</time>
      </trkpt>
      <trkpt lat="44.91732" lon="1.70175">
        <ele>295.5</ele>
        <time>2022-05-24T06:59:05Z</time>
      </trkpt>
      <trkpt lat="44.91736" lon="1.7017">
        <ele>295.7</ele>
        <time>2022-05-24T06:59:06Z</time>
      </trkpt>
      <trkpt lat="44.91741" lon="1.70166">
        <ele>295.9</ele>
        <time>2022-05-24T06:59:07Z</time>
      </trkpt>
      <trkpt lat="44.91745" lon="1.70162">
        <ele>296.1</ele>
        <time>2022-05-24T06:59:08Z</time>
      </trkpt>
      <trkpt lat="44.91748" lon="1.70157">
        <ele>296.2</ele>
        <time>2022-05-24T06:59:09Z</time>
      </trkpt>
      <trkpt lat="44.91752" lon="1.70152">
        <ele>296.4</ele>
        <time>2022-05-24T06:59:10Z</time>
      </trkpt>
      <trkpt lat="44.91756" lon="1.70148">
        <ele>296.6</ele>
        <time>2022-05-24T06:59:11Z</time>
      </trkpt>
      <trkpt lat="44.91761" lon="1.70145">
        <ele>296.8</ele>
        <time>2022-05-24T06:59:12Z</time>
      </trkpt>
      <trkpt lat="44.91765" lon="1.70141">
        <ele>297.1</ele>
        <time>2022-05-24T06:59:13Z</time>
      </trkpt>
      <trkpt lat="44.91769" lon="1.70136">
        <ele>297.3</ele>
        <time>2022-05-24T06:59:14Z</time>
      </trkpt>
      <trkpt lat="44.91773" lon="1.70131">
        <ele>297.4</ele>
        <time>2022-05-24T06:59:15Z</time>
      </trkpt>
      <trkpt lat="44.91777" lon="1.70126">
        <ele>297.6</ele>
        <time>2022-05-24T06:59:16Z</time>
      </trkpt>
      <trkpt lat="44.91782" lon="1.70122">
        <ele>297.7</ele>
        <time>2022-05-24T06:59:17Z</time>
      </trkpt>
      <trkpt lat="44.91786" lon="1.70118">
        <ele>297.8</ele>
        <time>2022-05-24T06:59:18Z</time>
      </trkpt>
      <trkpt lat="44.91789" lon="1.70112">
        <ele>297.9</ele>
        <time>2022-05-24T06:59:19Z</time>
      </trkpt>
      <trkpt lat="44.91792" lon="1.70105">
        <ele>298</ele>
        <time>2022-05-24T06:59:20Z</time>
      </trkpt>
      <trkpt lat="44.91796" lon="1.701">
        <ele>298.1</ele>
        <time>2022-05-24T06:59:21Z</time>
      </trkpt>
      <trkpt lat="44.918" lon="1.70095">
        <ele>298.3</ele>
        <time>2022-05-24T06:59:22Z</time>
      </trkpt>
      <trkpt lat="44.91805" lon="1.70091">
        <ele>298.4</ele>
        <time>2022-05-24T06:59:23Z</time>
      </trkpt>
      <trkpt lat="44.91809" lon="1.70087">
        <ele>298.5</ele>
        <time>2022-05-24T06:59:24Z</time>
      </trkpt>
      <trkpt lat="44.91813" lon="1.70082">
        <ele>298.6</ele>
        <time>2022-05-24T06:59:25Z</time>
      </trkpt>
      <trkpt lat="44.91817" lon="1.70077">
        <ele>298.7</ele>
        <time>2022-05-24T06:59:26Z</time>
      </trkpt>
      <trkpt lat="44.91822" lon="1.70072">
        <ele>298.7</ele>
        <time>2022-05-24T06:59:27Z</time>
      </trkpt>
      <trkpt lat="44.91827" lon="1.70069">
        <ele>298.8</ele>
        <time>2022-05-24T06:59:28Z</time>
      </trkpt>
      <trkpt lat="44.91833" lon="1.70066">
        <ele>298.8</ele>
        <time>2022-05-24T06:59:29Z</time>
      </trkpt>
      <trkpt lat="44.91838" lon="1.70063">
        <ele>298.9</ele>
        <time>2022-05-24T06:59:30Z</time>
      </trkpt>
      <trkpt lat="44.91843" lon="1.7006">
        <ele>299</ele>
        <time>2022-05-24T06:59:31Z</time>
      </trkpt>
      <trkpt lat="44.91848" lon="1.70059">
        <ele>299</ele>
        <time>2022-05-24T06:59:32Z</time>
      </trkpt>
      <trkpt lat="44.91852" lon="1.70055">
        <ele>299.1</ele>
        <time>2022-05-24T06:59:33Z</time>
      </trkpt>
      <trkpt lat="44.91856" lon="1.7005">
        <ele>299.1</ele>
        <time>2022-05-24T06:59:34Z</time>
      </trkpt>
      <trkpt lat="44.91859" lon="1.70046">
        <ele>299.1</ele>
        <time>2022-05-24T06:59:35Z</time>
      </trkpt>
      <trkpt lat="44.91862" lon="1.70041">
        <ele>299.1</ele>
        <time>2022-05-24T06:59:36Z</time>
      </trkpt>
      <trkpt lat="44.91865" lon="1.70035">
        <ele>299.1</ele>
        <time>2022-05-24T06:59:37Z</time>
      </trkpt>
      <trkpt lat="44.91869" lon="1.70028">
        <ele>298.5</ele>
        <time>2022-05-24T06:59:38Z</time>
      </trkpt>
      <trkpt lat="44.91873" lon="1.70023">
        <ele>298.5</ele>
        <time>2022-05-24T06:59:39Z</time>
      </trkpt>
      <trkpt lat="44.91878" lon="1.70019">
        <ele>298.5</ele>
        <time>2022-05-24T06:59:40Z</time>
      </trkpt>
      <trkpt lat="44.91883" lon="1.70018">
        <ele>298.5</ele>
        <time>2022-05-24T06:59:41Z</time>
      </trkpt>
      <trkpt lat="44.91888" lon="1.70015">
        <ele>298.4</ele>
        <time>2022-05-24T06:59:42Z</time>
      </trkpt>
      <trkpt lat="44.91892" lon="1.70012">
        <ele>297.4</ele>
        <time>2022-05-24T06:59:43Z</time>
      </trkpt>
      <trkpt lat="44.91897" lon="1.7001">
        <ele>297.4</ele>
        <time>2022-05-24T06:59:44Z</time>
      </trkpt>
      <trkpt lat="44.91903" lon="1.70009">
        <ele>297.4</ele>
        <time>2022-05-24T06:59:45Z</time>
      </trkpt>
      <trkpt lat="44.91909" lon="1.70009">
        <ele>297.4</ele>
        <time>2022-05-24T06:59:46Z</time>
      </trkpt>
      <trkpt lat="44.91914" lon="1.70008">
        <ele>297.6</ele>
        <time>2022-05-24T06:59:47Z</time>
      </trkpt>
      <trkpt lat="44.91921" lon="1.70007">
        <ele>297.6</ele>
        <time>2022-05-24T06:59:48Z</time>
      </trkpt>
      <trkpt lat="44.91926" lon="1.70005">
        <ele>297.9</ele>
        <time>2022-05-24T06:59:49Z</time>
      </trkpt>
      <trkpt lat="44.91932" lon="1.70005">
        <ele>297.8</ele>
        <time>2022-05-24T06:59:50Z</time>
      </trkpt>
      <trkpt lat="44.91937" lon="1.70002">
        <ele>298.2</ele>
        <time>2022-05-24T06:59:51Z</time>
      </trkpt>
      <trkpt lat="44.91942" lon="1.69998">
        <ele>298.1</ele>
        <time>2022-05-24T06:59:52Z</time>
      </trkpt>
      <trkpt lat="44.91948" lon="1.69994">
        <ele>296.6</ele>
        <time>2022-05-24T06:59:53Z</time>
      </trkpt>
      <trkpt lat="44.91953" lon="1.69989">
        <ele>296.9</ele>
        <time>2022-05-24T06:59:54Z</time>
      </trkpt>
      <trkpt lat="44.91958" lon="1.69985">
        <ele>296.8</ele>
        <time>2022-05-24T06:59:55Z</time>
      </trkpt>
      <trkpt lat="44.91963" lon="1.69982">
        <ele>297.1</ele>
        <time>2022-05-24T06:59:56Z</time>
      </trkpt>
      <trkpt lat="44.91968" lon="1.69978">
        <ele>294.4</ele>
        <time>2022-05-24T06:59:57Z</time>
      </trkpt>
      <trkpt lat="44.91973" lon="1.69974">
        <ele>294.9</ele>
        <time>2022-05-24T06:59:58Z</time>
      </trkpt>
      <trkpt lat="44.91979" lon="1.69972">
        <ele>294.9</ele>
        <time>2022-05-24T06:59:59Z</time>
      </trkpt>
      <trkpt lat="44.91985" lon="1.69969">
        <ele>295.7</ele>
        <time>2022-05-24T07:00:00Z</time>
      </trkpt>
      <trkpt lat="44.9199" lon="1.69967">
        <ele>295.7</ele>
        <time>2022-05-24T07:00:01Z</time>
      </trkpt>
      <trkpt lat="44.91995" lon="1.69964">
        <ele>295.7</ele>
        <time>2022-05-24T07:00:02Z</time>
      </trkpt>
      <trkpt lat="44.92" lon="1.69962">
        <ele>294</ele>
        <time>2022-05-24T07:00:03Z</time>
      </trkpt>
      <trkpt lat="44.92006" lon="1.6996">
        <ele>294</ele>
        <time>2022-05-24T07:00:04Z</time>
      </trkpt>
      <trkpt lat="44.92011" lon="1.69958">
        <ele>295.4</ele>
        <time>2022-05-24T07:00:05Z</time>
      </trkpt>
      <trkpt lat="44.92016" lon="1.69955">
        <ele>295.4</ele>
        <time>2022-05-24T07:00:06Z</time>
      </trkpt>
      <trkpt lat="44.9202" lon="1.69953">
        <ele>295.4</ele>
        <time>2022-05-24T07:00:07Z</time>
      </trkpt>
      <trkpt lat="44.92024" lon="1.69949">
        <ele>295.1</ele>
        <time>2022-05-24T07:00:08Z</time>
      </trkpt>
      <trkpt lat="44.92029" lon="1.69946">
        <ele>294.8</ele>
        <time>2022-05-24T07:00:09Z</time>
      </trkpt>
      <trkpt lat="44.92033" lon="1.69942">
        <ele>294.4</ele>
        <time>2022-05-24T07:00:10Z</time>
      </trkpt>
      <trkpt lat="44.92038" lon="1.69937">
        <ele>294</ele>
        <time>2022-05-24T07:00:11Z</time>
      </trkpt>
      <trkpt lat="44.92043" lon="1.69931">
        <ele>293.7</ele>
        <time>2022-05-24T07:00:12Z</time>
      </trkpt>
      <trkpt lat="44.92048" lon="1.69926">
        <ele>293.3</ele>
        <time>2022-05-24T07:00:13Z</time>
      </trkpt>
      <trkpt lat="44.92053" lon="1.69924">
        <ele>293.1</ele>
        <time>2022-05-24T07:00:14Z</time>
      </trkpt>
      <trkpt lat="44.92058" lon="1.69922">
        <ele>292.8</ele>
        <time>2022-05-24T07:00:15Z</time>
      </trkpt>
      <trkpt lat="44.92062" lon="1.69918">
        <ele>292.5</ele>
        <time>2022-05-24T07:00:16Z</time>
      </trkpt>
      <trkpt lat="44.92066" lon="1.69914">
        <ele>292.2</ele>
        <time>2022-05-24T07:00:17Z</time>
      </trkpt>
      <trkpt lat="44.9207" lon="1.6991">
        <ele>291.9</ele>
        <time>2022-05-24T07:00:18Z</time>
      </trkpt>
      <trkpt lat="44.92074" lon="1.69905">
        <ele>291.6</ele>
        <time>2022-05-24T07:00:19Z</time>
      </trkpt>
      <trkpt lat="44.92077" lon="1.699">
        <ele>291.4</ele>
        <time>2022-05-24T07:00:20Z</time>
      </trkpt>
      <trkpt lat="44.92081" lon="1.69895">
        <ele>291.2</ele>
        <time>2022-05-24T07:00:21Z</time>
      </trkpt>
      <trkpt lat="44.92084" lon="1.69889">
        <ele>291</ele>
        <time>2022-05-24T07:00:22Z</time>
      </trkpt>
      <trkpt lat="44.92088" lon="1.69884">
        <ele>290.8</ele>
        <time>2022-05-24T07:00:23Z</time>
      </trkpt>
      <trkpt lat="44.92092" lon="1.69879">
        <ele>290.7</ele>
        <time>2022-05-24T07:00:24Z</time>
      </trkpt>
      <trkpt lat="44.92096" lon="1.69874">
        <ele>290.6</ele>
        <time>2022-05-24T07:00:25Z</time>
      </trkpt>
      <trkpt lat="44.92099" lon="1.69868">
        <ele>290.5</ele>
        <time>2022-05-24T07:00:26Z</time>
      </trkpt>
      <trkpt lat="44.92103" lon="1.69864">
        <ele>290.4</ele>
        <time>2022-05-24T07:00:27Z</time>
      </trkpt>
      <trkpt lat="44.92106" lon="1.69859">
        <ele>290.4</ele>
        <time>2022-05-24T07:00:28Z</time>
      </trkpt>
      <trkpt lat="44.92109" lon="1.69855">
        <ele>290.4</ele>
        <time>2022-05-24T07:00:29Z</time>
      </trkpt>
      <trkpt lat="44.92113" lon="1.69852">
        <ele>290.4</ele>
        <time>2022-05-24T07:00:30Z</time>
      </trkpt>
      <trkpt lat="44.92117" lon="1.69849">
        <ele>290.4</ele>
        <time>2022-05-24T07:00:31Z</time>
      </trkpt>
      <trkpt lat="44.92121" lon="1.69847">
        <ele>290.4</ele>
        <time>2022-05-24T07:00:32Z</time>
      </trkpt>
      <trkpt lat="44.92125" lon="1.69845">
        <ele>290.4</ele>
        <time>2022-05-24T07:00:33Z</time>
      </trkpt>
      <trkpt lat="44.92129" lon="1.69844">
        <ele>290.4</ele>
        <time>2022-05-24T07:00:34Z</time>
      </trkpt>
      <trkpt lat="44.92133" lon="1.69842">
        <ele>290.3</ele>
        <time>2022-05-24T07:00:35Z</time>
      </trkpt>
      <trkpt lat="44.92135" lon="1.69838">
        <ele>290.3</ele>
        <time>2022-05-24T07:00:36Z</time>
      </trkpt>
      <trkpt lat="44.92136" lon="1.69833">
        <ele>290.3</ele>
        <time>2022-05-24T07:00:37Z</time>
      </trkpt>
      <trkpt lat="44.92137" lon="1.69827">
        <ele>290.4</ele>
        <time>2022-05-24T07:00:38Z</time>
      </trkpt>
      <trkpt lat="44.92137" lon="1.69821">
        <ele>290.5</ele>
        <time>2022-05-24T07:00:39Z</time>
      </trkpt>
      <trkpt lat="44.92137" lon="1.69815">
        <ele>290.5</ele>
        <time>2022-05-24T07:00:40Z</time>
      </trkpt>
      <trkpt lat="44.92138" lon="1.69809">
        <ele>290.6</ele>
        <time>2022-05-24T07:00:41Z</time>
      </trkpt>
      <trkpt lat="44.92139" lon="1.69804">
        <ele>290.7</ele>
        <time>2022-05-24T07:00:42Z</time>
      </trkpt>
      <trkpt lat="44.9214" lon="1.69799">
        <ele>290.8</ele>
        <time>2022-05-24T07:00:43Z</time>
      </trkpt>
      <trkpt lat="44.92141" lon="1.69793">
        <ele>290.9</ele>
        <time>2022-05-24T07:00:44Z</time>
      </trkpt>
      <trkpt lat="44.92141" lon="1.69787">
        <ele>291</ele>
        <time>2022-05-24T07:00:45Z</time>
      </trkpt>
      <trkpt lat="44.92141" lon="1.69781">
        <ele>291.1</ele>
        <time>2022-05-24T07:00:46Z</time>
      </trkpt>
      <trkpt lat="44.92142" lon="1.69775">
        <ele>291.2</ele>
        <time>2022-05-24T07:00:47Z</time>
      </trkpt>
      <trkpt lat="44.92143" lon="1.69769">
        <ele>291.3</ele>
        <time>2022-05-24T07:00:48Z</time>
      </trkpt>
      <trkpt lat="44.92145" lon="1.69764">
        <ele>291.4</ele>
        <time>2022-05-24T07:00:49Z</time>
      </trkpt>
      <trkpt lat="44.92146" lon="1.69759">
        <ele>291.5</ele>
        <time>2022-05-24T07:00:50Z</time>
      </trkpt>
      <trkpt lat="44.92148" lon="1.69754">
        <ele>291.5</ele>
        <time>2022-05-24T07:00:51Z</time>
      </trkpt>
      <trkpt lat="44.9215" lon="1.69749">
        <ele>291.6</ele>
        <time>2022-05-24T07:00:52Z</time>
      </trkpt>
      <trkpt lat="44.92151" lon="1.69744">
        <ele>291.7</ele>
        <time>2022-05-24T07:00:53Z</time>
      </trkpt>
      <trkpt lat="44.92153" lon="1.69739">
        <ele>291.7</ele>
        <time>2022-05-24T07:00:54Z</time>
      </trkpt>
      <trkpt lat="44.92155" lon="1.69736">
        <ele>291.7</ele>
        <time>2022-05-24T07:00:55Z</time>
      </trkpt>
      <trkpt lat="44.92158" lon="1.69734">
        <ele>291.7</ele>
        <time>2022-05-24T07:00:56Z</time>
      </trkpt>
      <trkpt lat="44.92161" lon="1.69735">
        <ele>291.6</ele>
        <time>2022-05-24T07:00:57Z</time>
      </trkpt>
      <trkpt lat="44.92164" lon="1.69738">
        <ele>291.5</ele>
        <time>2022-05-24T07:00:58Z</time>
      </trkpt>
      <trkpt lat="44.92167" lon="1.69742">
        <ele>291.3</ele>
        <time>2022-05-24T07:00:59Z</time>
      </trkpt>
      <trkpt lat="44.9217" lon="1.69747">
        <ele>291.1</ele>
        <time>2022-05-24T07:01:00Z</time>
      </trkpt>
      <trkpt lat="44.92173" lon="1.69752">
        <ele>290.9</ele>
        <time>2022-05-24T07:01:01Z</time>
      </trkpt>
      <trkpt lat="44.92177" lon="1.69756">
        <ele>290.7</ele>
        <time>2022-05-24T07:01:02Z</time>
      </trkpt>
      <trkpt lat="44.92181" lon="1.69759">
        <ele>290.5</ele>
        <time>2022-05-24T07:01:03Z</time>
      </trkpt>
      <trkpt lat="44.92185" lon="1.69761">
        <ele>290.4</ele>
        <time>2022-05-24T07:01:04Z</time>
      </trkpt>
      <trkpt lat="44.92189" lon="1.69762">
        <ele>290.2</ele>
        <time>2022-05-24T07:01:05Z</time>
      </trkpt>
      <trkpt lat="44.92194" lon="1.69763">
        <ele>290</ele>
        <time>2022-05-24T07:01:06Z</time>
      </trkpt>
      <trkpt lat="44.92199" lon="1.69765">
        <ele>289.7</ele>
        <time>2022-05-24T07:01:07Z</time>
      </trkpt>
      <trkpt lat="44.92204" lon="1.69768">
        <ele>289.5</ele>
        <time>2022-05-24T07:01:08Z</time>
      </trkpt>
      <trkpt lat="44.92209" lon="1.69771">
        <ele>289.3</ele>
        <time>2022-05-24T07:01:09Z</time>
      </trkpt>
      <trkpt lat="44.92215" lon="1.69775">
        <ele>289.1</ele>
        <time>2022-05-24T07:01:10Z</time>
      </trkpt>
      <trkpt lat="44.92221" lon="1.69777">
        <ele>289</ele>
        <time>2022-05-24T07:01:11Z</time>
      </trkpt>
      <trkpt lat="44.92227" lon="1.69779">
        <ele>289</ele>
        <time>2022-05-24T07:01:12Z</time>
      </trkpt>
      <trkpt lat="44.92232" lon="1.69781">
        <ele>289.1</ele>
        <time>2022-05-24T07:01:13Z</time>
      </trkpt>
      <trkpt lat="44.92237" lon="1.69783">
        <ele>289.1</ele>
        <time>2022-05-24T07:01:14Z</time>
      </trkpt>
      <trkpt lat="44.92242" lon="1.69786">
        <ele>289.2</ele>
        <time>2022-05-24T07:01:15Z</time>
      </trkpt>
      <trkpt lat="44.92247" lon="1.69789">
        <ele>289.3</ele>
        <time>2022-05-24T07:01:16Z</time>
      </trkpt>
      <trkpt lat="44.92253" lon="1.69792">
        <ele>289.4</ele>
        <time>2022-05-24T07:01:17Z</time>
      </trkpt>
      <trkpt lat="44.92258" lon="1.69794">
        <ele>289.5</ele>
        <time>2022-05-24T07:01:18Z</time>
      </trkpt>
      <trkpt lat="44.92263" lon="1.69795">
        <ele>289.6</ele>
        <time>2022-05-24T07:01:19Z</time>
      </trkpt>
      <trkpt lat="44.92268" lon="1.69795">
        <ele>289.8</ele>
        <time>2022-05-24T07:01:20Z</time>
      </trkpt>
      <trkpt lat="44.92273" lon="1.69795">
        <ele>289.9</ele>
        <time>2022-05-24T07:01:21Z</time>
      </trkpt>
      <trkpt lat="44.92278" lon="1.69795">
        <ele>290.2</ele>
        <time>2022-05-24T07:01:22Z</time>
      </trkpt>
      <trkpt lat="44.92282" lon="1.69794">
        <ele>290.4</ele>
        <time>2022-05-24T07:01:23Z</time>
      </trkpt>
      <trkpt lat="44.92286" lon="1.69793">
        <ele>290.6</ele>
        <time>2022-05-24T07:01:24Z</time>
      </trkpt>
      <trkpt lat="44.9229" lon="1.69793">
        <ele>291</ele>
        <time>2022-05-24T07:01:25Z</time>
      </trkpt>
      <trkpt lat="44.92295" lon="1.69794">
        <ele>291.3</ele>
        <time>2022-05-24T07:01:26Z</time>
      </trkpt>
      <trkpt lat="44.92299" lon="1.69797">
        <ele>291.7</ele>
        <time>2022-05-24T07:01:27Z</time>
      </trkpt>
      <trkpt lat="44.92302" lon="1.698">
        <ele>292</ele>
        <time>2022-05-24T07:01:28Z</time>
      </trkpt>
      <trkpt lat="44.92306" lon="1.69803">
        <ele>292.3</ele>
        <time>2022-05-24T07:01:29Z</time>
      </trkpt>
      <trkpt lat="44.92309" lon="1.69805">
        <ele>292.5</ele>
        <time>2022-05-24T07:01:30Z</time>
      </trkpt>
      <trkpt lat="44.92311" lon="1.6981">
        <ele>292.8</ele>
        <time>2022-05-24T07:01:31Z</time>
      </trkpt>
      <trkpt lat="44.92312" lon="1.69812">
        <ele>292.9</ele>
        <time>2022-05-24T07:01:32Z</time>
      </trkpt>
      <trkpt lat="44.92316" lon="1.69816">
        <ele>293.2</ele>
        <time>2022-05-24T07:01:33Z</time>
      </trkpt>
      <trkpt lat="44.92319" lon="1.6982">
        <ele>293.6</ele>
        <time>2022-05-24T07:01:34Z</time>
      </trkpt>
      <trkpt lat="44.92321" lon="1.69824">
        <ele>293.9</ele>
        <time>2022-05-24T07:01:35Z</time>
      </trkpt>
      <trkpt lat="44.92324" lon="1.69826">
        <ele>294.3</ele>
        <time>2022-05-24T07:01:36Z</time>
      </trkpt>
      <trkpt lat="44.92328" lon="1.69825">
        <ele>294.8</ele>
        <time>2022-05-24T07:01:37Z</time>
      </trkpt>
      <trkpt lat="44.92333" lon="1.69825">
        <ele>295.3</ele>
        <time>2022-05-24T07:01:38Z</time>
      </trkpt>
      <trkpt lat="44.92337" lon="1.69827">
        <ele>295.7</ele>
        <time>2022-05-24T07:01:39Z</time>
      </trkpt>
      <trkpt lat="44.92341" lon="1.69828">
        <ele>296.2</ele>
        <time>2022-05-24T07:01:40Z</time>
      </trkpt>
      <trkpt lat="44.92344" lon="1.69829">
        <ele>296.5</ele>
        <time>2022-05-24T07:01:41Z</time>
      </trkpt>
      <trkpt lat="44.92347" lon="1.6983">
        <ele>296.7</ele>
        <time>2022-05-24T07:01:42Z</time>
      </trkpt>
      <trkpt lat="44.9235" lon="1.69831">
        <ele>296.9</ele>
        <time>2022-05-24T07:01:43Z</time>
      </trkpt>
      <trkpt lat="44.92354" lon="1.69831">
        <ele>297.1</ele>
        <time>2022-05-24T07:01:44Z</time>
      </trkpt>
      <trkpt lat="44.92358" lon="1.69831">
        <ele>297.3</ele>
        <time>2022-05-24T07:01:45Z</time>
      </trkpt>
      <trkpt lat="44.92361" lon="1.69831">
        <ele>297.4</ele>
        <time>2022-05-24T07:01:46Z</time>
      </trkpt>
      <trkpt lat="44.92364" lon="1.69831">
        <ele>297.5</ele>
        <time>2022-05-24T07:01:47Z</time>
      </trkpt>
      <trkpt lat="44.92367" lon="1.69831">
        <ele>297.6</ele>
        <time>2022-05-24T07:01:48Z</time>
      </trkpt>
      <trkpt lat="44.9237" lon="1.69832">
        <ele>297.7</ele>
        <time>2022-05-24T07:01:49Z</time>
      </trkpt>
      <trkpt lat="44.92373" lon="1.69832">
        <ele>297.8</ele>
        <time>2022-05-24T07:01:50Z</time>
      </trkpt>
      <trkpt lat="44.92377" lon="1.69832">
        <ele>297.9</ele>
        <time>2022-05-24T07:01:51Z</time>
      </trkpt>
      <trkpt lat="44.9238" lon="1.69832">
        <ele>298</ele>
        <time>2022-05-24T07:01:52Z</time>
      </trkpt>
      <trkpt lat="44.92384" lon="1.69833">
        <ele>298.1</ele>
        <time>2022-05-24T07:01:53Z</time>
      </trkpt>
      <trkpt lat="44.92387" lon="1.69833">
        <ele>298.2</ele>
        <time>2022-05-24T07:01:54Z</time>
      </trkpt>
      <trkpt lat="44.9239" lon="1.69833">
        <ele>298.3</ele>
        <time>2022-05-24T07:01:55Z</time>
      </trkpt>
      <trkpt lat="44.92393" lon="1.69833">
        <ele>298.4</ele>
        <time>2022-05-24T07:01:56Z</time>
      </trkpt>
      <trkpt lat="44.92397" lon="1.69833">
        <ele>298.6</ele>
        <time>2022-05-24T07:01:57Z</time>
      </trkpt>
      <trkpt lat="44.924" lon="1.69832">
        <ele>298.7</ele>
        <time>2022-05-24T07:01:58Z</time>
      </trkpt>
      <trkpt lat="44.92404" lon="1.69832">
        <ele>298.9</ele>
        <time>2022-05-24T07:01:59Z</time>
      </trkpt>
      <trkpt lat="44.92408" lon="1.69832">
        <ele>299</ele>
        <time>2022-05-24T07:02:00Z</time>
      </trkpt>
      <trkpt lat="44.92412" lon="1.69831">
        <ele>299.2</ele>
        <time>2022-05-24T07:02:01Z</time>
      </trkpt>
      <trkpt lat="44.92415" lon="1.69831">
        <ele>299.4</ele>
        <time>2022-05-24T07:02:02Z</time>
      </trkpt>
      <trkpt lat="44.92419" lon="1.69831">
        <ele>299.6</ele>
        <time>2022-05-24T07:02:03Z</time>
      </trkpt>
      <trkpt lat="44.92423" lon="1.69831">
        <ele>299.7</ele>
        <time>2022-05-24T07:02:04Z</time>
      </trkpt>
      <trkpt lat="44.92427" lon="1.69831">
        <ele>299.9</ele>
        <time>2022-05-24T07:02:05Z</time>
      </trkpt>
      <trkpt lat="44.92431" lon="1.69831">
        <ele>300</ele>
        <time>2022-05-24T07:02:06Z</time>
      </trkpt>
      <trkpt lat="44.92435" lon="1.69831">
        <ele>300.2</ele>
        <time>2022-05-24T07:02:07Z</time>
      </trkpt>
      <trkpt lat="44.92438" lon="1.69832">
        <ele>300.3</ele>
        <time>2022-05-24T07:02:08Z</time>
      </trkpt>
      <trkpt lat="44.92442" lon="1.69832">
        <ele>300.4</ele>
        <time>2022-05-24T07:02:09Z</time>
      </trkpt>
      <trkpt lat="44.92446" lon="1.69832">
        <ele>300.6</ele>
        <time>2022-05-24T07:02:10Z</time>
      </trkpt>
      <trkpt lat="44.9245" lon="1.69833">
        <ele>300.7</ele>
        <time>2022-05-24T07:02:11Z</time>
      </trkpt>
      <trkpt lat="44.92454" lon="1.69834">
        <ele>300.8</ele>
        <time>2022-05-24T07:02:12Z</time>
      </trkpt>
      <trkpt lat="44.92458" lon="1.69834">
        <ele>300.8</ele>
        <time>2022-05-24T07:02:13Z</time>
      </trkpt>
      <trkpt lat="44.92462" lon="1.69834">
        <ele>300.9</ele>
        <time>2022-05-24T07:02:14Z</time>
      </trkpt>
      <trkpt lat="44.92466" lon="1.69834">
        <ele>300.9</ele>
        <time>2022-05-24T07:02:15Z</time>
      </trkpt>
      <trkpt lat="44.9247" lon="1.69834">
        <ele>300.9</ele>
        <time>2022-05-24T07:02:16Z</time>
      </trkpt>
      <trkpt lat="44.92475" lon="1.69834">
        <ele>300.9</ele>
        <time>2022-05-24T07:02:17Z</time>
      </trkpt>
      <trkpt lat="44.92479" lon="1.69833">
        <ele>300.9</ele>
        <time>2022-05-24T07:02:18Z</time>
      </trkpt>
      <trkpt lat="44.92484" lon="1.69834">
        <ele>300.9</ele>
        <time>2022-05-24T07:02:19Z</time>
      </trkpt>
      <trkpt lat="44.92488" lon="1.69834">
        <ele>301</ele>
        <time>2022-05-24T07:02:20Z</time>
      </trkpt>
      <trkpt lat="44.92493" lon="1.69834">
        <ele>301</ele>
        <time>2022-05-24T07:02:21Z</time>
      </trkpt>
      <trkpt lat="44.92497" lon="1.69834">
        <ele>301</ele>
        <time>2022-05-24T07:02:22Z</time>
      </trkpt>
      <trkpt lat="44.92502" lon="1.69834">
        <ele>301.1</ele>
        <time>2022-05-24T07:02:23Z</time>
      </trkpt>
      <trkpt lat="44.92508" lon="1.69837">
        <ele>301.2</ele>
        <time>2022-05-24T07:02:24Z</time>
      </trkpt>
      <trkpt lat="44.92512" lon="1.6984">
        <ele>301.3</ele>
        <time>2022-05-24T07:02:25Z</time>
      </trkpt>
      <trkpt lat="44.92516" lon="1.69842">
        <ele>301.4</ele>
        <time>2022-05-24T07:02:26Z</time>
      </trkpt>
      <trkpt lat="44.92521" lon="1.69843">
        <ele>301.4</ele>
        <time>2022-05-24T07:02:27Z</time>
      </trkpt>
      <trkpt lat="44.92525" lon="1.69844">
        <ele>301.5</ele>
        <time>2022-05-24T07:02:28Z</time>
      </trkpt>
      <trkpt lat="44.92529" lon="1.69846">
        <ele>301.5</ele>
        <time>2022-05-24T07:02:29Z</time>
      </trkpt>
      <trkpt lat="44.92534" lon="1.69848">
        <ele>301.4</ele>
        <time>2022-05-24T07:02:30Z</time>
      </trkpt>
      <trkpt lat="44.92537" lon="1.6985">
        <ele>301.4</ele>
        <time>2022-05-24T07:02:31Z</time>
      </trkpt>
      <trkpt lat="44.92541" lon="1.69852">
        <ele>301.4</ele>
        <time>2022-05-24T07:02:32Z</time>
      </trkpt>
      <trkpt lat="44.92545" lon="1.69854">
        <ele>301.4</ele>
        <time>2022-05-24T07:02:33Z</time>
      </trkpt>
      <trkpt lat="44.92549" lon="1.69856">
        <ele>301.4</ele>
        <time>2022-05-24T07:02:34Z</time>
      </trkpt>
      <trkpt lat="44.92552" lon="1.69858">
        <ele>301.4</ele>
        <time>2022-05-24T07:02:35Z</time>
      </trkpt>
      <trkpt lat="44.92556" lon="1.69863">
        <ele>301.4</ele>
        <time>2022-05-24T07:02:36Z</time>
      </trkpt>
      <trkpt lat="44.92559" lon="1.69865">
        <ele>301.4</ele>
        <time>2022-05-24T07:02:37Z</time>
      </trkpt>
      <trkpt lat="44.92562" lon="1.69868">
        <ele>301.4</ele>
        <time>2022-05-24T07:02:38Z</time>
      </trkpt>
      <trkpt lat="44.92566" lon="1.6987">
        <ele>301.4</ele>
        <time>2022-05-24T07:02:39Z</time>
      </trkpt>
      <trkpt lat="44.9257" lon="1.69869">
        <ele>301.4</ele>
        <time>2022-05-24T07:02:40Z</time>
      </trkpt>
      <trkpt lat="44.92574" lon="1.69866">
        <ele>301.3</ele>
        <time>2022-05-24T07:02:41Z</time>
      </trkpt>
      <trkpt lat="44.92579" lon="1.69864">
        <ele>301.3</ele>
        <time>2022-05-24T07:02:42Z</time>
      </trkpt>
      <trkpt lat="44.92584" lon="1.69864">
        <ele>301.3</ele>
        <time>2022-05-24T07:02:43Z</time>
      </trkpt>
      <trkpt lat="44.92589" lon="1.69866">
        <ele>301.3</ele>
        <time>2022-05-24T07:02:44Z</time>
      </trkpt>
      <trkpt lat="44.92592" lon="1.69867">
        <ele>301.3</ele>
        <time>2022-05-24T07:02:45Z</time>
      </trkpt>
      <trkpt lat="44.92596" lon="1.69868">
        <ele>301.3</ele>
        <time>2022-05-24T07:02:46Z</time>
      </trkpt>
      <trkpt lat="44.926" lon="1.69868">
        <ele>301.3</ele>
        <time>2022-05-24T07:02:47Z</time>
      </trkpt>
      <trkpt lat="44.92604" lon="1.69869">
        <ele>301.3</ele>
        <time>2022-05-24T07:02:48Z</time>
      </trkpt>
      <trkpt lat="44.92608" lon="1.69871">
        <ele>301.3</ele>
        <time>2022-05-24T07:02:49Z</time>
      </trkpt>
      <trkpt lat="44.92612" lon="1.69873">
        <ele>301.3</ele>
        <time>2022-05-24T07:02:50Z</time>
      </trkpt>
      <trkpt lat="44.92617" lon="1.69874">
        <ele>301.2</ele>
        <time>2022-05-24T07:02:51Z</time>
      </trkpt>
      <trkpt lat="44.92622" lon="1.69875">
        <ele>301.2</ele>
        <time>2022-05-24T07:02:52Z</time>
      </trkpt>
      <trkpt lat="44.92626" lon="1.69877">
        <ele>301.2</ele>
        <time>2022-05-24T07:02:53Z</time>
      </trkpt>
      <trkpt lat="44.9263" lon="1.69877">
        <ele>301.1</ele>
        <time>2022-05-24T07:02:54Z</time>
      </trkpt>
      <trkpt lat="44.92634" lon="1.69879">
        <ele>301.1</ele>
        <time>2022-05-24T07:02:55Z</time>
      </trkpt>
      <trkpt lat="44.92639" lon="1.6988">
        <ele>301</ele>
        <time>2022-05-24T07:02:56Z</time>
      </trkpt>
      <trkpt lat="44.92643" lon="1.69882">
        <ele>300.9</ele>
        <time>2022-05-24T07:02:57Z</time>
      </trkpt>
      <trkpt lat="44.92648" lon="1.69883">
        <ele>300.8</ele>
        <time>2022-05-24T07:02:58Z</time>
      </trkpt>
      <trkpt lat="44.92654" lon="1.69885">
        <ele>300.7</ele>
        <time>2022-05-24T07:02:59Z</time>
      </trkpt>
      <trkpt lat="44.92659" lon="1.69888">
        <ele>300.5</ele>
        <time>2022-05-24T07:03:00Z</time>
      </trkpt>
      <trkpt lat="44.92664" lon="1.6989">
        <ele>300.3</ele>
        <time>2022-05-24T07:03:01Z</time>
      </trkpt>
      <trkpt lat="44.9267" lon="1.69892">
        <ele>300.1</ele>
        <time>2022-05-24T07:03:02Z</time>
      </trkpt>
      <trkpt lat="44.92675" lon="1.69893">
        <ele>299.8</ele>
        <time>2022-05-24T07:03:03Z</time>
      </trkpt>
      <trkpt lat="44.9268" lon="1.69892">
        <ele>299.4</ele>
        <time>2022-05-24T07:03:04Z</time>
      </trkpt>
      <trkpt lat="44.92685" lon="1.69891">
        <ele>299</ele>
        <time>2022-05-24T07:03:05Z</time>
      </trkpt>
      <trkpt lat="44.92691" lon="1.69891">
        <ele>298.5</ele>
        <time>2022-05-24T07:03:06Z</time>
      </trkpt>
      <trkpt lat="44.92697" lon="1.69891">
        <ele>298</ele>
        <time>2022-05-24T07:03:07Z</time>
      </trkpt>
      <trkpt lat="44.92705" lon="1.69892">
        <ele>297.1</ele>
        <time>2022-05-24T07:03:08Z</time>
      </trkpt>
      <trkpt lat="44.92712" lon="1.69893">
        <ele>296.3</ele>
        <time>2022-05-24T07:03:09Z</time>
      </trkpt>
      <trkpt lat="44.9272" lon="1.69894">
        <ele>295.8</ele>
        <time>2022-05-24T07:03:10Z</time>
      </trkpt>
      <trkpt lat="44.92727" lon="1.69897">
        <ele>295.4</ele>
        <time>2022-05-24T07:03:11Z</time>
      </trkpt>
      <trkpt lat="44.92735" lon="1.69899">
        <ele>295.1</ele>
        <time>2022-05-24T07:03:12Z</time>
      </trkpt>
      <trkpt lat="44.92743" lon="1.699">
        <ele>294.8</ele>
        <time>2022-05-24T07:03:13Z</time>
      </trkpt>
      <trkpt lat="44.92751" lon="1.69901">
        <ele>294.7</ele>
        <time>2022-05-24T07:03:14Z</time>
      </trkpt>
      <trkpt lat="44.92758" lon="1.69901">
        <ele>294.5</ele>
        <time>2022-05-24T07:03:15Z</time>
      </trkpt>
      <trkpt lat="44.92766" lon="1.69902">
        <ele>294.4</ele>
        <time>2022-05-24T07:03:16Z</time>
      </trkpt>
      <trkpt lat="44.92773" lon="1.69903">
        <ele>294.3</ele>
        <time>2022-05-24T07:03:17Z</time>
      </trkpt>
      <trkpt lat="44.92781" lon="1.699">
        <ele>294.2</ele>
        <time>2022-05-24T07:03:18Z</time>
      </trkpt>
      <trkpt lat="44.92787" lon="1.69896">
        <ele>294.1</ele>
        <time>2022-05-24T07:03:19Z</time>
      </trkpt>
      <trkpt lat="44.92792" lon="1.69891">
        <ele>294</ele>
        <time>2022-05-24T07:03:20Z</time>
      </trkpt>
      <trkpt lat="44.92795" lon="1.69882">
        <ele>293.9</ele>
        <time>2022-05-24T07:03:21Z</time>
      </trkpt>
      <trkpt lat="44.92798" lon="1.69874">
        <ele>293.7</ele>
        <time>2022-05-24T07:03:22Z</time>
      </trkpt>
      <trkpt lat="44.928" lon="1.69866">
        <ele>293.6</ele>
        <time>2022-05-24T07:03:23Z</time>
      </trkpt>
      <trkpt lat="44.92803" lon="1.69857">
        <ele>293.4</ele>
        <time>2022-05-24T07:03:24Z</time>
      </trkpt>
      <trkpt lat="44.92805" lon="1.69849">
        <ele>293.3</ele>
        <time>2022-05-24T07:03:25Z</time>
      </trkpt>
      <trkpt lat="44.92806" lon="1.6984">
        <ele>293.1</ele>
        <time>2022-05-24T07:03:26Z</time>
      </trkpt>
      <trkpt lat="44.92808" lon="1.69831">
        <ele>292.9</ele>
        <time>2022-05-24T07:03:27Z</time>
      </trkpt>
      <trkpt lat="44.92808" lon="1.69822">
        <ele>292.7</ele>
        <time>2022-05-24T07:03:28Z</time>
      </trkpt>
      <trkpt lat="44.92809" lon="1.69814">
        <ele>292.6</ele>
        <time>2022-05-24T07:03:29Z</time>
      </trkpt>
      <trkpt lat="44.9281" lon="1.69805">
        <ele>292.4</ele>
        <time>2022-05-24T07:03:30Z</time>
      </trkpt>
      <trkpt lat="44.92812" lon="1.69796">
        <ele>292.2</ele>
        <time>2022-05-24T07:03:31Z</time>
      </trkpt>
      <trkpt lat="44.92813" lon="1.69789">
        <ele>292.1</ele>
        <time>2022-05-24T07:03:32Z</time>
      </trkpt>
      <trkpt lat="44.92816" lon="1.69782">
        <ele>291.9</ele>
        <time>2022-05-24T07:03:33Z</time>
      </trkpt>
      <trkpt lat="44.9282" lon="1.69774">
        <ele>291.7</ele>
        <time>2022-05-24T07:03:34Z</time>
      </trkpt>
      <trkpt lat="44.92824" lon="1.69767">
        <ele>291.4</ele>
        <time>2022-05-24T07:03:35Z</time>
      </trkpt>
      <trkpt lat="44.9283" lon="1.69762">
        <ele>291.2</ele>
        <time>2022-05-24T07:03:36Z</time>
      </trkpt>
      <trkpt lat="44.92836" lon="1.69758">
        <ele>291</ele>
        <time>2022-05-24T07:03:37Z</time>
      </trkpt>
      <trkpt lat="44.92842" lon="1.69755">
        <ele>290.9</ele>
        <time>2022-05-24T07:03:38Z</time>
      </trkpt>
      <trkpt lat="44.92848" lon="1.6975">
        <ele>290.8</ele>
        <time>2022-05-24T07:03:39Z</time>
      </trkpt>
      <trkpt lat="44.92853" lon="1.69743">
        <ele>290.6</ele>
        <time>2022-05-24T07:03:40Z</time>
      </trkpt>
      <trkpt lat="44.92856" lon="1.69735">
        <ele>290.5</ele>
        <time>2022-05-24T07:03:41Z</time>
      </trkpt>
      <trkpt lat="44.92858" lon="1.69726">
        <ele>290.4</ele>
        <time>2022-05-24T07:03:42Z</time>
      </trkpt>
      <trkpt lat="44.92859" lon="1.69718">
        <ele>290.3</ele>
        <time>2022-05-24T07:03:43Z</time>
      </trkpt>
      <trkpt lat="44.92859" lon="1.69708">
        <ele>290.1</ele>
        <time>2022-05-24T07:03:44Z</time>
      </trkpt>
      <trkpt lat="44.9286" lon="1.69698">
        <ele>290</ele>
        <time>2022-05-24T07:03:45Z</time>
      </trkpt>
      <trkpt lat="44.92861" lon="1.6969">
        <ele>289.8</ele>
        <time>2022-05-24T07:03:46Z</time>
      </trkpt>
      <trkpt lat="44.92862" lon="1.69682">
        <ele>289.7</ele>
        <time>2022-05-24T07:03:47Z</time>
      </trkpt>
      <trkpt lat="44.92862" lon="1.69673">
        <ele>289.6</ele>
        <time>2022-05-24T07:03:48Z</time>
      </trkpt>
      <trkpt lat="44.92862" lon="1.69664">
        <ele>289.5</ele>
        <time>2022-05-24T07:03:49Z</time>
      </trkpt>
      <trkpt lat="44.92861" lon="1.69655">
        <ele>289.4</ele>
        <time>2022-05-24T07:03:50Z</time>
      </trkpt>
      <trkpt lat="44.92859" lon="1.69647">
        <ele>289.3</ele>
        <time>2022-05-24T07:03:51Z</time>
      </trkpt>
      <trkpt lat="44.92859" lon="1.69638">
        <ele>289.2</ele>
        <time>2022-05-24T07:03:52Z</time>
      </trkpt>
      <trkpt lat="44.92857" lon="1.69629">
        <ele>289</ele>
        <time>2022-05-24T07:03:53Z</time>
      </trkpt>
      <trkpt lat="44.92856" lon="1.6962">
        <ele>288.9</ele>
        <time>2022-05-24T07:03:54Z</time>
      </trkpt>
      <trkpt lat="44.92855" lon="1.69611">
        <ele>288.8</ele>
        <time>2022-05-24T07:03:55Z</time>
      </trkpt>
      <trkpt lat="44.92854" lon="1.69603">
        <ele>288.6</ele>
        <time>2022-05-24T07:03:56Z</time>
      </trkpt>
      <trkpt lat="44.92853" lon="1.69594">
        <ele>288.5</ele>
        <time>2022-05-24T07:03:57Z</time>
      </trkpt>
      <trkpt lat="44.92853" lon="1.69585">
        <ele>288.4</ele>
        <time>2022-05-24T07:03:58Z</time>
      </trkpt>
      <trkpt lat="44.92853" lon="1.69577">
        <ele>288.2</ele>
        <time>2022-05-24T07:03:59Z</time>
      </trkpt>
      <trkpt lat="44.92851" lon="1.69569">
        <ele>288.1</ele>
        <time>2022-05-24T07:04:00Z</time>
      </trkpt>
      <trkpt lat="44.92848" lon="1.69561">
        <ele>287.9</ele>
        <time>2022-05-24T07:04:01Z</time>
      </trkpt>
      <trkpt lat="44.92845" lon="1.69554">
        <ele>287.8</ele>
        <time>2022-05-24T07:04:02Z</time>
      </trkpt>
      <trkpt lat="44.92842" lon="1.69547">
        <ele>287.6</ele>
        <time>2022-05-24T07:04:03Z</time>
      </trkpt>
      <trkpt lat="44.92839" lon="1.6954">
        <ele>287.4</ele>
        <time>2022-05-24T07:04:04Z</time>
      </trkpt>
      <trkpt lat="44.92836" lon="1.69533">
        <ele>287.1</ele>
        <time>2022-05-24T07:04:05Z</time>
      </trkpt>
      <trkpt lat="44.92832" lon="1.69522">
        <ele>286.7</ele>
        <time>2022-05-24T07:04:09Z</time>
      </trkpt>
      <trkpt lat="44.92823" lon="1.69484">
        <ele>285.5</ele>
        <time>2022-05-24T07:04:11Z</time>
      </trkpt>
      <trkpt lat="44.9282" lon="1.69473">
        <ele>285.2</ele>
        <time>2022-05-24T07:04:12Z</time>
      </trkpt>
      <trkpt lat="44.92817" lon="1.69465">
        <ele>285</ele>
        <time>2022-05-24T07:04:13Z</time>
      </trkpt>
      <trkpt lat="44.92812" lon="1.69458">
        <ele>284.9</ele>
        <time>2022-05-24T07:04:14Z</time>
      </trkpt>
      <trkpt lat="44.92807" lon="1.69452">
        <ele>284.8</ele>
        <time>2022-05-24T07:04:15Z</time>
      </trkpt>
      <trkpt lat="44.92802" lon="1.69447">
        <ele>284.8</ele>
        <time>2022-05-24T07:04:16Z</time>
      </trkpt>
      <trkpt lat="44.92799" lon="1.69442">
        <ele>284.7</ele>
        <time>2022-05-24T07:04:17Z</time>
      </trkpt>
      <trkpt lat="44.92794" lon="1.69437">
        <ele>284.7</ele>
        <time>2022-05-24T07:04:18Z</time>
      </trkpt>
      <trkpt lat="44.92789" lon="1.69432">
        <ele>284.6</ele>
        <time>2022-05-24T07:04:19Z</time>
      </trkpt>
      <trkpt lat="44.92784" lon="1.69428">
        <ele>284.6</ele>
        <time>2022-05-24T07:04:20Z</time>
      </trkpt>
      <trkpt lat="44.92779" lon="1.69424">
        <ele>284.5</ele>
        <time>2022-05-24T07:04:21Z</time>
      </trkpt>
      <trkpt lat="44.92774" lon="1.69419">
        <ele>284.5</ele>
        <time>2022-05-24T07:04:22Z</time>
      </trkpt>
      <trkpt lat="44.92769" lon="1.69415">
        <ele>284.4</ele>
        <time>2022-05-24T07:04:23Z</time>
      </trkpt>
      <trkpt lat="44.92764" lon="1.6941">
        <ele>284.4</ele>
        <time>2022-05-24T07:04:24Z</time>
      </trkpt>
      <trkpt lat="44.92759" lon="1.69405">
        <ele>284.4</ele>
        <time>2022-05-24T07:04:25Z</time>
      </trkpt>
      <trkpt lat="44.92754" lon="1.69399">
        <ele>284.5</ele>
        <time>2022-05-24T07:04:26Z</time>
      </trkpt>
      <trkpt lat="44.9275" lon="1.69394">
        <ele>284.5</ele>
        <time>2022-05-24T07:04:27Z</time>
      </trkpt>
      <trkpt lat="44.92745" lon="1.69389">
        <ele>284.5</ele>
        <time>2022-05-24T07:04:28Z</time>
      </trkpt>
      <trkpt lat="44.92742" lon="1.69383">
        <ele>284.6</ele>
        <time>2022-05-24T07:04:29Z</time>
      </trkpt>
      <trkpt lat="44.92738" lon="1.69375">
        <ele>284.7</ele>
        <time>2022-05-24T07:04:30Z</time>
      </trkpt>
      <trkpt lat="44.92735" lon="1.69368">
        <ele>284.8</ele>
        <time>2022-05-24T07:04:31Z</time>
      </trkpt>
      <trkpt lat="44.92733" lon="1.69361">
        <ele>284.9</ele>
        <time>2022-05-24T07:04:32Z</time>
      </trkpt>
      <trkpt lat="44.9273" lon="1.69355">
        <ele>285</ele>
        <time>2022-05-24T07:04:33Z</time>
      </trkpt>
      <trkpt lat="44.92729" lon="1.69348">
        <ele>285.1</ele>
        <time>2022-05-24T07:04:34Z</time>
      </trkpt>
      <trkpt lat="44.92727" lon="1.69341">
        <ele>285.2</ele>
        <time>2022-05-24T07:04:35Z</time>
      </trkpt>
      <trkpt lat="44.92726" lon="1.69334">
        <ele>285.3</ele>
        <time>2022-05-24T07:04:36Z</time>
      </trkpt>
      <trkpt lat="44.92725" lon="1.69326">
        <ele>285.5</ele>
        <time>2022-05-24T07:04:37Z</time>
      </trkpt>
      <trkpt lat="44.92723" lon="1.6932">
        <ele>285.6</ele>
        <time>2022-05-24T07:04:38Z</time>
      </trkpt>
      <trkpt lat="44.92721" lon="1.69313">
        <ele>285.7</ele>
        <time>2022-05-24T07:04:39Z</time>
      </trkpt>
      <trkpt lat="44.9272" lon="1.69305">
        <ele>285.9</ele>
        <time>2022-05-24T07:04:40Z</time>
      </trkpt>
      <trkpt lat="44.92718" lon="1.69299">
        <ele>286</ele>
        <time>2022-05-24T07:04:41Z</time>
      </trkpt>
      <trkpt lat="44.92716" lon="1.69293">
        <ele>286.1</ele>
        <time>2022-05-24T07:04:42Z</time>
      </trkpt>
      <trkpt lat="44.92712" lon="1.69287">
        <ele>286.3</ele>
        <time>2022-05-24T07:04:43Z</time>
      </trkpt>
      <trkpt lat="44.92709" lon="1.69283">
        <ele>286.4</ele>
        <time>2022-05-24T07:04:44Z</time>
      </trkpt>
      <trkpt lat="44.92706" lon="1.69277">
        <ele>286.6</ele>
        <time>2022-05-24T07:04:45Z</time>
      </trkpt>
      <trkpt lat="44.92703" lon="1.6927">
        <ele>286.7</ele>
        <time>2022-05-24T07:04:46Z</time>
      </trkpt>
      <trkpt lat="44.92699" lon="1.69266">
        <ele>286.9</ele>
        <time>2022-05-24T07:04:47Z</time>
      </trkpt>
      <trkpt lat="44.92695" lon="1.69261">
        <ele>287</ele>
        <time>2022-05-24T07:04:48Z</time>
      </trkpt>
      <trkpt lat="44.9269" lon="1.69257">
        <ele>287.2</ele>
        <time>2022-05-24T07:04:49Z</time>
      </trkpt>
      <trkpt lat="44.92686" lon="1.69254">
        <ele>287.4</ele>
        <time>2022-05-24T07:04:50Z</time>
      </trkpt>
      <trkpt lat="44.92682" lon="1.69252">
        <ele>287.5</ele>
        <time>2022-05-24T07:04:51Z</time>
      </trkpt>
      <trkpt lat="44.92677" lon="1.6925">
        <ele>287.7</ele>
        <time>2022-05-24T07:04:52Z</time>
      </trkpt>
      <trkpt lat="44.92673" lon="1.69249">
        <ele>287.8</ele>
        <time>2022-05-24T07:04:53Z</time>
      </trkpt>
      <trkpt lat="44.92668" lon="1.6925">
        <ele>288</ele>
        <time>2022-05-24T07:04:54Z</time>
      </trkpt>
      <trkpt lat="44.92662" lon="1.6925">
        <ele>288.2</ele>
        <time>2022-05-24T07:04:55Z</time>
      </trkpt>
      <trkpt lat="44.92657" lon="1.6925">
        <ele>288.3</ele>
        <time>2022-05-24T07:04:56Z</time>
      </trkpt>
      <trkpt lat="44.92652" lon="1.69249">
        <ele>288.4</ele>
        <time>2022-05-24T07:04:57Z</time>
      </trkpt>
      <trkpt lat="44.92647" lon="1.69249">
        <ele>288.4</ele>
        <time>2022-05-24T07:04:58Z</time>
      </trkpt>
      <trkpt lat="44.92643" lon="1.69248">
        <ele>288.4</ele>
        <time>2022-05-24T07:04:59Z</time>
      </trkpt>
      <trkpt lat="44.92638" lon="1.69247">
        <ele>288.3</ele>
        <time>2022-05-24T07:05:00Z</time>
      </trkpt>
      <trkpt lat="44.92634" lon="1.69246">
        <ele>288.3</ele>
        <time>2022-05-24T07:05:01Z</time>
      </trkpt>
      <trkpt lat="44.92629" lon="1.69245">
        <ele>288.1</ele>
        <time>2022-05-24T07:05:02Z</time>
      </trkpt>
      <trkpt lat="44.92625" lon="1.69242">
        <ele>287.9</ele>
        <time>2022-05-24T07:05:03Z</time>
      </trkpt>
      <trkpt lat="44.9262" lon="1.69239">
        <ele>287.7</ele>
        <time>2022-05-24T07:05:04Z</time>
      </trkpt>
      <trkpt lat="44.92615" lon="1.69235">
        <ele>287.4</ele>
        <time>2022-05-24T07:05:05Z</time>
      </trkpt>
      <trkpt lat="44.92609" lon="1.6923">
        <ele>287</ele>
        <time>2022-05-24T07:05:06Z</time>
      </trkpt>
      <trkpt lat="44.92603" lon="1.69227">
        <ele>286.6</ele>
        <time>2022-05-24T07:05:07Z</time>
      </trkpt>
      <trkpt lat="44.92597" lon="1.69222">
        <ele>286.2</ele>
        <time>2022-05-24T07:05:08Z</time>
      </trkpt>
      <trkpt lat="44.92592" lon="1.69217">
        <ele>285.8</ele>
        <time>2022-05-24T07:05:09Z</time>
      </trkpt>
      <trkpt lat="44.92586" lon="1.69213">
        <ele>285.4</ele>
        <time>2022-05-24T07:05:10Z</time>
      </trkpt>
      <trkpt lat="44.9258" lon="1.6921">
        <ele>284.9</ele>
        <time>2022-05-24T07:05:11Z</time>
      </trkpt>
      <trkpt lat="44.92574" lon="1.69207">
        <ele>284.4</ele>
        <time>2022-05-24T07:05:12Z</time>
      </trkpt>
      <trkpt lat="44.92566" lon="1.69203">
        <ele>283.8</ele>
        <time>2022-05-24T07:05:13Z</time>
      </trkpt>
      <trkpt lat="44.9256" lon="1.69199">
        <ele>283.2</ele>
        <time>2022-05-24T07:05:14Z</time>
      </trkpt>
      <trkpt lat="44.92553" lon="1.69195">
        <ele>282.6</ele>
        <time>2022-05-24T07:05:15Z</time>
      </trkpt>
      <trkpt lat="44.92547" lon="1.6919">
        <ele>282.1</ele>
        <time>2022-05-24T07:05:16Z</time>
      </trkpt>
      <trkpt lat="44.9254" lon="1.69187">
        <ele>281.5</ele>
        <time>2022-05-24T07:05:17Z</time>
      </trkpt>
      <trkpt lat="44.92532" lon="1.69182">
        <ele>280.9</ele>
        <time>2022-05-24T07:05:18Z</time>
      </trkpt>
      <trkpt lat="44.92525" lon="1.69178">
        <ele>280.4</ele>
        <time>2022-05-24T07:05:19Z</time>
      </trkpt>
      <trkpt lat="44.92519" lon="1.69175">
        <ele>280</ele>
        <time>2022-05-24T07:05:20Z</time>
      </trkpt>
      <trkpt lat="44.92513" lon="1.69171">
        <ele>279.5</ele>
        <time>2022-05-24T07:05:21Z</time>
      </trkpt>
      <trkpt lat="44.92506" lon="1.69168">
        <ele>279</ele>
        <time>2022-05-24T07:05:22Z</time>
      </trkpt>
      <trkpt lat="44.92498" lon="1.69166">
        <ele>278.4</ele>
        <time>2022-05-24T07:05:23Z</time>
      </trkpt>
      <trkpt lat="44.9249" lon="1.69165">
        <ele>277.9</ele>
        <time>2022-05-24T07:05:24Z</time>
      </trkpt>
      <trkpt lat="44.92482" lon="1.69164">
        <ele>277.3</ele>
        <time>2022-05-24T07:05:25Z</time>
      </trkpt>
      <trkpt lat="44.92475" lon="1.69162">
        <ele>276.7</ele>
        <time>2022-05-24T07:05:26Z</time>
      </trkpt>
      <trkpt lat="44.92468" lon="1.69159">
        <ele>276</ele>
        <time>2022-05-24T07:05:27Z</time>
      </trkpt>
      <trkpt lat="44.9246" lon="1.69156">
        <ele>275.2</ele>
        <time>2022-05-24T07:05:28Z</time>
      </trkpt>
      <trkpt lat="44.92452" lon="1.69151">
        <ele>274.4</ele>
        <time>2022-05-24T07:05:29Z</time>
      </trkpt>
      <trkpt lat="44.92445" lon="1.69145">
        <ele>273.4</ele>
        <time>2022-05-24T07:05:30Z</time>
      </trkpt>
      <trkpt lat="44.92438" lon="1.69139">
        <ele>272.6</ele>
        <time>2022-05-24T07:05:31Z</time>
      </trkpt>
      <trkpt lat="44.92431" lon="1.69132">
        <ele>272.1</ele>
        <time>2022-05-24T07:05:32Z</time>
      </trkpt>
      <trkpt lat="44.92426" lon="1.69126">
        <ele>271.7</ele>
        <time>2022-05-24T07:05:33Z</time>
      </trkpt>
      <trkpt lat="44.92422" lon="1.6912">
        <ele>271.3</ele>
        <time>2022-05-24T07:05:34Z</time>
      </trkpt>
      <trkpt lat="44.9242" lon="1.69116">
        <ele>271</ele>
        <time>2022-05-24T07:05:35Z</time>
      </trkpt>
      <trkpt lat="44.92419" lon="1.6911">
        <ele>270.6</ele>
        <time>2022-05-24T07:05:36Z</time>
      </trkpt>
      <trkpt lat="44.92419" lon="1.69104">
        <ele>270.4</ele>
        <time>2022-05-24T07:05:37Z</time>
      </trkpt>
      <trkpt lat="44.92422" lon="1.691">
        <ele>270.1</ele>
        <time>2022-05-24T07:05:38Z</time>
      </trkpt>
      <trkpt lat="44.92425" lon="1.69095">
        <ele>269.9</ele>
        <time>2022-05-24T07:05:39Z</time>
      </trkpt>
      <trkpt lat="44.92426" lon="1.6909">
        <ele>269.8</ele>
        <time>2022-05-24T07:05:40Z</time>
      </trkpt>
      <trkpt lat="44.92425" lon="1.69085">
        <ele>269.6</ele>
        <time>2022-05-24T07:05:41Z</time>
      </trkpt>
      <trkpt lat="44.92421" lon="1.69082">
        <ele>269.4</ele>
        <time>2022-05-24T07:05:42Z</time>
      </trkpt>
      <trkpt lat="44.92417" lon="1.6908">
        <ele>269.3</ele>
        <time>2022-05-24T07:05:43Z</time>
      </trkpt>
      <trkpt lat="44.92412" lon="1.6908">
        <ele>269.2</ele>
        <time>2022-05-24T07:05:44Z</time>
      </trkpt>
      <trkpt lat="44.92407" lon="1.69081">
        <ele>269.1</ele>
        <time>2022-05-24T07:05:45Z</time>
      </trkpt>
      <trkpt lat="44.92401" lon="1.69081">
        <ele>269.1</ele>
        <time>2022-05-24T07:05:46Z</time>
      </trkpt>
      <trkpt lat="44.92396" lon="1.69082">
        <ele>269.2</ele>
        <time>2022-05-24T07:05:47Z</time>
      </trkpt>
      <trkpt lat="44.92392" lon="1.69083">
        <ele>269.2</ele>
        <time>2022-05-24T07:05:48Z</time>
      </trkpt>
      <trkpt lat="44.92387" lon="1.69084">
        <ele>269.3</ele>
        <time>2022-05-24T07:05:49Z</time>
      </trkpt>
      <trkpt lat="44.92382" lon="1.69086">
        <ele>269.4</ele>
        <time>2022-05-24T07:05:50Z</time>
      </trkpt>
      <trkpt lat="44.92377" lon="1.69086">
        <ele>269.5</ele>
        <time>2022-05-24T07:05:51Z</time>
      </trkpt>
      <trkpt lat="44.92372" lon="1.69087">
        <ele>269.6</ele>
        <time>2022-05-24T07:05:52Z</time>
      </trkpt>
      <trkpt lat="44.92366" lon="1.69086">
        <ele>269.7</ele>
        <time>2022-05-24T07:05:53Z</time>
      </trkpt>
      <trkpt lat="44.92361" lon="1.69084">
        <ele>269.8</ele>
        <time>2022-05-24T07:05:54Z</time>
      </trkpt>
      <trkpt lat="44.92357" lon="1.69081">
        <ele>269.9</ele>
        <time>2022-05-24T07:05:55Z</time>
      </trkpt>
      <trkpt lat="44.92353" lon="1.69077">
        <ele>270</ele>
        <time>2022-05-24T07:05:56Z</time>
      </trkpt>
      <trkpt lat="44.9235" lon="1.69071">
        <ele>270.1</ele>
        <time>2022-05-24T07:05:57Z</time>
      </trkpt>
      <trkpt lat="44.92348" lon="1.69066">
        <ele>270.3</ele>
        <time>2022-05-24T07:05:58Z</time>
      </trkpt>
      <trkpt lat="44.92346" lon="1.69059">
        <ele>270.5</ele>
        <time>2022-05-24T07:05:59Z</time>
      </trkpt>
      <trkpt lat="44.92343" lon="1.69052">
        <ele>270.8</ele>
        <time>2022-05-24T07:06:00Z</time>
      </trkpt>
      <trkpt lat="44.92342" lon="1.69046">
        <ele>271</ele>
        <time>2022-05-24T07:06:01Z</time>
      </trkpt>
      <trkpt lat="44.9234" lon="1.6904">
        <ele>271.3</ele>
        <time>2022-05-24T07:06:02Z</time>
      </trkpt>
      <trkpt lat="44.92338" lon="1.69037">
        <ele>271.7</ele>
        <time>2022-05-24T07:06:03Z</time>
      </trkpt>
      <trkpt lat="44.92335" lon="1.69036">
        <ele>272</ele>
        <time>2022-05-24T07:06:04Z</time>
      </trkpt>
      <trkpt lat="44.92332" lon="1.69037">
        <ele>272.3</ele>
        <time>2022-05-24T07:06:05Z</time>
      </trkpt>
      <trkpt lat="44.92328" lon="1.69038">
        <ele>272.7</ele>
        <time>2022-05-24T07:06:06Z</time>
      </trkpt>
      <trkpt lat="44.92324" lon="1.69042">
        <ele>273.3</ele>
        <time>2022-05-24T07:06:07Z</time>
      </trkpt>
      <trkpt lat="44.92322" lon="1.69044">
        <ele>273.6</ele>
        <time>2022-05-24T07:06:08Z</time>
      </trkpt>
      <trkpt lat="44.92319" lon="1.69046">
        <ele>274.1</ele>
        <time>2022-05-24T07:06:09Z</time>
      </trkpt>
      <trkpt lat="44.92316" lon="1.69048">
        <ele>274.5</ele>
        <time>2022-05-24T07:06:10Z</time>
      </trkpt>
      <trkpt lat="44.92314" lon="1.69049">
        <ele>274.6</ele>
        <time>2022-05-24T07:06:11Z</time>
      </trkpt>
      <trkpt lat="44.92311" lon="1.69051">
        <ele>275.1</ele>
        <time>2022-05-24T07:06:12Z</time>
      </trkpt>
      <trkpt lat="44.9231" lon="1.69051">
        <ele>275.2</ele>
        <time>2022-05-24T07:06:13Z</time>
      </trkpt>
      <trkpt lat="44.92306" lon="1.69053">
        <ele>275.7</ele>
        <time>2022-05-24T07:06:14Z</time>
      </trkpt>
      <trkpt lat="44.92305" lon="1.69053">
        <ele>275.8</ele>
        <time>2022-05-24T07:06:15Z</time>
      </trkpt>
      <trkpt lat="44.92302" lon="1.69056">
        <ele>276.2</ele>
        <time>2022-05-24T07:06:16Z</time>
      </trkpt>
      <trkpt lat="44.92301" lon="1.69057">
        <ele>276.3</ele>
        <time>2022-05-24T07:06:17Z</time>
      </trkpt>
      <trkpt lat="44.92299" lon="1.6906">
        <ele>276.7</ele>
        <time>2022-05-24T07:06:18Z</time>
      </trkpt>
      <trkpt lat="44.92298" lon="1.6906">
        <ele>276.8</ele>
        <time>2022-05-24T07:06:19Z</time>
      </trkpt>
      <trkpt lat="44.92297" lon="1.69062">
        <ele>277</ele>
        <time>2022-05-24T07:06:20Z</time>
      </trkpt>
      <trkpt lat="44.92296" lon="1.69064">
        <ele>277.2</ele>
        <time>2022-05-24T07:06:21Z</time>
      </trkpt>
      <trkpt lat="44.92293" lon="1.69065">
        <ele>277.6</ele>
        <time>2022-05-24T07:06:22Z</time>
      </trkpt>
      <trkpt lat="44.92292" lon="1.69066">
        <ele>277.8</ele>
        <time>2022-05-24T07:06:23Z</time>
      </trkpt>
      <trkpt lat="44.9229" lon="1.69067">
        <ele>278</ele>
        <time>2022-05-24T07:06:24Z</time>
      </trkpt>
      <trkpt lat="44.92289" lon="1.69069">
        <ele>278.2</ele>
        <time>2022-05-24T07:06:25Z</time>
      </trkpt>
      <trkpt lat="44.92286" lon="1.69071">
        <ele>278.5</ele>
        <time>2022-05-24T07:06:26Z</time>
      </trkpt>
      <trkpt lat="44.92285" lon="1.69073">
        <ele>278.7</ele>
        <time>2022-05-24T07:06:27Z</time>
      </trkpt>
      <trkpt lat="44.92283" lon="1.69075">
        <ele>279</ele>
        <time>2022-05-24T07:06:28Z</time>
      </trkpt>
      <trkpt lat="44.9228" lon="1.69078">
        <ele>279.3</ele>
        <time>2022-05-24T07:06:29Z</time>
      </trkpt>
      <trkpt lat="44.92277" lon="1.69081">
        <ele>279.7</ele>
        <time>2022-05-24T07:06:30Z</time>
      </trkpt>
      <trkpt lat="44.92276" lon="1.69081">
        <ele>279.8</ele>
        <time>2022-05-24T07:06:31Z</time>
      </trkpt>
      <trkpt lat="44.92273" lon="1.69084">
        <ele>280.2</ele>
        <time>2022-05-24T07:06:32Z</time>
      </trkpt>
      <trkpt lat="44.92273" lon="1.69084">
        <ele>280.3</ele>
        <time>2022-05-24T07:06:33Z</time>
      </trkpt>
      <trkpt lat="44.9227" lon="1.69087">
        <ele>280.6</ele>
        <time>2022-05-24T07:06:34Z</time>
      </trkpt>
      <trkpt lat="44.92269" lon="1.69088">
        <ele>280.7</ele>
        <time>2022-05-24T07:06:35Z</time>
      </trkpt>
      <trkpt lat="44.92268" lon="1.6909">
        <ele>280.9</ele>
        <time>2022-05-24T07:06:36Z</time>
      </trkpt>
      <trkpt lat="44.92267" lon="1.69091">
        <ele>281.1</ele>
        <time>2022-05-24T07:06:37Z</time>
      </trkpt>
      <trkpt lat="44.92264" lon="1.69094">
        <ele>281.4</ele>
        <time>2022-05-24T07:06:38Z</time>
      </trkpt>
      <trkpt lat="44.92263" lon="1.69095">
        <ele>281.6</ele>
        <time>2022-05-24T07:06:39Z</time>
      </trkpt>
      <trkpt lat="44.92261" lon="1.69098">
        <ele>282</ele>
        <time>2022-05-24T07:06:40Z</time>
      </trkpt>
      <trkpt lat="44.9226" lon="1.69099">
        <ele>282.1</ele>
        <time>2022-05-24T07:06:41Z</time>
      </trkpt>
      <trkpt lat="44.92257" lon="1.69102">
        <ele>282.4</ele>
        <time>2022-05-24T07:06:42Z</time>
      </trkpt>
      <trkpt lat="44.92256" lon="1.69103">
        <ele>282.5</ele>
        <time>2022-05-24T07:06:43Z</time>
      </trkpt>
      <trkpt lat="44.92254" lon="1.69105">
        <ele>282.8</ele>
        <time>2022-05-24T07:06:44Z</time>
      </trkpt>
      <trkpt lat="44.92253" lon="1.69106">
        <ele>282.9</ele>
        <time>2022-05-24T07:06:45Z</time>
      </trkpt>
      <trkpt lat="44.9225" lon="1.69108">
        <ele>283.2</ele>
        <time>2022-05-24T07:06:46Z</time>
      </trkpt>
      <trkpt lat="44.92249" lon="1.69108">
        <ele>283.2</ele>
        <time>2022-05-24T07:06:47Z</time>
      </trkpt>
      <trkpt lat="44.92246" lon="1.6911">
        <ele>283.5</ele>
        <time>2022-05-24T07:06:48Z</time>
      </trkpt>
      <trkpt lat="44.92245" lon="1.69111">
        <ele>283.6</ele>
        <time>2022-05-24T07:06:49Z</time>
      </trkpt>
      <trkpt lat="44.92243" lon="1.69113">
        <ele>283.8</ele>
        <time>2022-05-24T07:06:50Z</time>
      </trkpt>
      <trkpt lat="44.92242" lon="1.69114">
        <ele>283.9</ele>
        <time>2022-05-24T07:06:51Z</time>
      </trkpt>
      <trkpt lat="44.9224" lon="1.69117">
        <ele>284.1</ele>
        <time>2022-05-24T07:06:52Z</time>
      </trkpt>
      <trkpt lat="44.92239" lon="1.69118">
        <ele>284.2</ele>
        <time>2022-05-24T07:06:53Z</time>
      </trkpt>
      <trkpt lat="44.92237" lon="1.6912">
        <ele>284.3</ele>
        <time>2022-05-24T07:06:54Z</time>
      </trkpt>
      <trkpt lat="44.92236" lon="1.69122">
        <ele>284.4</ele>
        <time>2022-05-24T07:06:55Z</time>
      </trkpt>
      <trkpt lat="44.92233" lon="1.69125">
        <ele>284.6</ele>
        <time>2022-05-24T07:06:56Z</time>
      </trkpt>
      <trkpt lat="44.92231" lon="1.69126">
        <ele>284.7</ele>
        <time>2022-05-24T07:06:57Z</time>
      </trkpt>
      <trkpt lat="44.92228" lon="1.69128">
        <ele>284.9</ele>
        <time>2022-05-24T07:06:58Z</time>
      </trkpt>
      <trkpt lat="44.92225" lon="1.6913">
        <ele>285.1</ele>
        <time>2022-05-24T07:06:59Z</time>
      </trkpt>
      <trkpt lat="44.92221" lon="1.69132">
        <ele>285.3</ele>
        <time>2022-05-24T07:07:00Z</time>
      </trkpt>
      <trkpt lat="44.92218" lon="1.69134">
        <ele>285.5</ele>
        <time>2022-05-24T07:07:01Z</time>
      </trkpt>
      <trkpt lat="44.92216" lon="1.69136">
        <ele>285.7</ele>
        <time>2022-05-24T07:07:02Z</time>
      </trkpt>
      <trkpt lat="44.92212" lon="1.6914">
        <ele>285.9</ele>
        <time>2022-05-24T07:07:03Z</time>
      </trkpt>
      <trkpt lat="44.92211" lon="1.69141">
        <ele>286</ele>
        <time>2022-05-24T07:07:04Z</time>
      </trkpt>
      <trkpt lat="44.92209" lon="1.69143">
        <ele>286.1</ele>
        <time>2022-05-24T07:07:05Z</time>
      </trkpt>
      <trkpt lat="44.92206" lon="1.69145">
        <ele>286.3</ele>
        <time>2022-05-24T07:07:06Z</time>
      </trkpt>
      <trkpt lat="44.92204" lon="1.69148">
        <ele>286.5</ele>
        <time>2022-05-24T07:07:07Z</time>
      </trkpt>
      <trkpt lat="44.92201" lon="1.69151">
        <ele>286.6</ele>
        <time>2022-05-24T07:07:08Z</time>
      </trkpt>
      <trkpt lat="44.92199" lon="1.69153">
        <ele>286.8</ele>
        <time>2022-05-24T07:07:09Z</time>
      </trkpt>
      <trkpt lat="44.92196" lon="1.69156">
        <ele>287</ele>
        <time>2022-05-24T07:07:10Z</time>
      </trkpt>
      <trkpt lat="44.92194" lon="1.69157">
        <ele>287.2</ele>
        <time>2022-05-24T07:07:11Z</time>
      </trkpt>
      <trkpt lat="44.92191" lon="1.69159">
        <ele>287.4</ele>
        <time>2022-05-24T07:07:12Z</time>
      </trkpt>
      <trkpt lat="44.92188" lon="1.69161">
        <ele>287.6</ele>
        <time>2022-05-24T07:07:13Z</time>
      </trkpt>
      <trkpt lat="44.92185" lon="1.69163">
        <ele>287.8</ele>
        <time>2022-05-24T07:07:14Z</time>
      </trkpt>
      <trkpt lat="44.92182" lon="1.69164">
        <ele>288.1</ele>
        <time>2022-05-24T07:07:15Z</time>
      </trkpt>
      <trkpt lat="44.92179" lon="1.69166">
        <ele>288.4</ele>
        <time>2022-05-24T07:07:16Z</time>
      </trkpt>
      <trkpt lat="44.92175" lon="1.69167">
        <ele>288.7</ele>
        <time>2022-05-24T07:07:17Z</time>
      </trkpt>
      <trkpt lat="44.92173" lon="1.69168">
        <ele>288.8</ele>
        <time>2022-05-24T07:07:18Z</time>
      </trkpt>
      <trkpt lat="44.92171" lon="1.69168">
        <ele>289.1</ele>
        <time>2022-05-24T07:07:19Z</time>
      </trkpt>
      <trkpt lat="44.92167" lon="1.69168">
        <ele>289.5</ele>
        <time>2022-05-24T07:07:20Z</time>
      </trkpt>
      <trkpt lat="44.92165" lon="1.69168">
        <ele>289.7</ele>
        <time>2022-05-24T07:07:21Z</time>
      </trkpt>
      <trkpt lat="44.92162" lon="1.69169">
        <ele>290.1</ele>
        <time>2022-05-24T07:07:22Z</time>
      </trkpt>
      <trkpt lat="44.9216" lon="1.69169">
        <ele>290.2</ele>
        <time>2022-05-24T07:07:23Z</time>
      </trkpt>
      <trkpt lat="44.92157" lon="1.6917">
        <ele>290.6</ele>
        <time>2022-05-24T07:07:24Z</time>
      </trkpt>
      <trkpt lat="44.92156" lon="1.6917">
        <ele>290.7</ele>
        <time>2022-05-24T07:07:25Z</time>
      </trkpt>
      <trkpt lat="44.92153" lon="1.6917">
        <ele>291.1</ele>
        <time>2022-05-24T07:07:26Z</time>
      </trkpt>
      <trkpt lat="44.92151" lon="1.6917">
        <ele>291.3</ele>
        <time>2022-05-24T07:07:27Z</time>
      </trkpt>
      <trkpt lat="44.92148" lon="1.69171">
        <ele>291.7</ele>
        <time>2022-05-24T07:07:28Z</time>
      </trkpt>
      <trkpt lat="44.92147" lon="1.69171">
        <ele>291.8</ele>
        <time>2022-05-24T07:07:29Z</time>
      </trkpt>
      <trkpt lat="44.92144" lon="1.69172">
        <ele>292.2</ele>
        <time>2022-05-24T07:07:30Z</time>
      </trkpt>
      <trkpt lat="44.92143" lon="1.69172">
        <ele>292.3</ele>
        <time>2022-05-24T07:07:31Z</time>
      </trkpt>
      <trkpt lat="44.92142" lon="1.69173">
        <ele>292.4</ele>
        <time>2022-05-24T07:07:32Z</time>
      </trkpt>
      <trkpt lat="44.9214" lon="1.69174">
        <ele>292.6</ele>
        <time>2022-05-24T07:07:33Z</time>
      </trkpt>
      <trkpt lat="44.92138" lon="1.69175">
        <ele>292.9</ele>
        <time>2022-05-24T07:07:34Z</time>
      </trkpt>
      <trkpt lat="44.92137" lon="1.69176">
        <ele>293.1</ele>
        <time>2022-05-24T07:07:35Z</time>
      </trkpt>
      <trkpt lat="44.92134" lon="1.69177">
        <ele>293.4</ele>
        <time>2022-05-24T07:07:36Z</time>
      </trkpt>
      <trkpt lat="44.92133" lon="1.69177">
        <ele>293.6</ele>
        <time>2022-05-24T07:07:37Z</time>
      </trkpt>
      <trkpt lat="44.92129" lon="1.69178">
        <ele>294</ele>
        <time>2022-05-24T07:07:38Z</time>
      </trkpt>
      <trkpt lat="44.92128" lon="1.69178">
        <ele>294.1</ele>
        <time>2022-05-24T07:07:39Z</time>
      </trkpt>
      <trkpt lat="44.92125" lon="1.69178">
        <ele>294.4</ele>
        <time>2022-05-24T07:07:40Z</time>
      </trkpt>
      <trkpt lat="44.92124" lon="1.69178">
        <ele>294.5</ele>
        <time>2022-05-24T07:07:41Z</time>
      </trkpt>
      <trkpt lat="44.92121" lon="1.69179">
        <ele>294.8</ele>
        <time>2022-05-24T07:07:42Z</time>
      </trkpt>
      <trkpt lat="44.92118" lon="1.6918">
        <ele>295</ele>
        <time>2022-05-24T07:07:43Z</time>
      </trkpt>
      <trkpt lat="44.92115" lon="1.69181">
        <ele>295.3</ele>
        <time>2022-05-24T07:07:44Z</time>
      </trkpt>
      <trkpt lat="44.92113" lon="1.69181">
        <ele>295.4</ele>
        <time>2022-05-24T07:07:45Z</time>
      </trkpt>
      <trkpt lat="44.9211" lon="1.69183">
        <ele>295.6</ele>
        <time>2022-05-24T07:07:46Z</time>
      </trkpt>
      <trkpt lat="44.92109" lon="1.69183">
        <ele>295.7</ele>
        <time>2022-05-24T07:07:47Z</time>
      </trkpt>
      <trkpt lat="44.92106" lon="1.69185">
        <ele>295.8</ele>
        <time>2022-05-24T07:07:48Z</time>
      </trkpt>
      <trkpt lat="44.92105" lon="1.69186">
        <ele>295.9</ele>
        <time>2022-05-24T07:07:49Z</time>
      </trkpt>
      <trkpt lat="44.92103" lon="1.69186">
        <ele>295.9</ele>
        <time>2022-05-24T07:07:50Z</time>
      </trkpt>
      <trkpt lat="44.92101" lon="1.69187">
        <ele>296</ele>
        <time>2022-05-24T07:07:51Z</time>
      </trkpt>
      <trkpt lat="44.92098" lon="1.69189">
        <ele>296.1</ele>
        <time>2022-05-24T07:07:52Z</time>
      </trkpt>
      <trkpt lat="44.92097" lon="1.69189">
        <ele>296.2</ele>
        <time>2022-05-24T07:07:53Z</time>
      </trkpt>
      <trkpt lat="44.92094" lon="1.69191">
        <ele>296.4</ele>
        <time>2022-05-24T07:07:54Z</time>
      </trkpt>
      <trkpt lat="44.92092" lon="1.69191">
        <ele>296.4</ele>
        <time>2022-05-24T07:07:55Z</time>
      </trkpt>
      <trkpt lat="44.92089" lon="1.69192">
        <ele>296.6</ele>
        <time>2022-05-24T07:07:56Z</time>
      </trkpt>
      <trkpt lat="44.92088" lon="1.69192">
        <ele>296.7</ele>
        <time>2022-05-24T07:07:57Z</time>
      </trkpt>
      <trkpt lat="44.92084" lon="1.69193">
        <ele>296.9</ele>
        <time>2022-05-24T07:07:58Z</time>
      </trkpt>
      <trkpt lat="44.92083" lon="1.69193">
        <ele>297</ele>
        <time>2022-05-24T07:07:59Z</time>
      </trkpt>
      <trkpt lat="44.92079" lon="1.69194">
        <ele>297.3</ele>
        <time>2022-05-24T07:08:00Z</time>
      </trkpt>
      <trkpt lat="44.92077" lon="1.69195">
        <ele>297.4</ele>
        <time>2022-05-24T07:08:01Z</time>
      </trkpt>
      <trkpt lat="44.92073" lon="1.69196">
        <ele>297.6</ele>
        <time>2022-05-24T07:08:02Z</time>
      </trkpt>
      <trkpt lat="44.92072" lon="1.69196">
        <ele>297.7</ele>
        <time>2022-05-24T07:08:03Z</time>
      </trkpt>
      <trkpt lat="44.92069" lon="1.69196">
        <ele>297.9</ele>
        <time>2022-05-24T07:08:04Z</time>
      </trkpt>
      <trkpt lat="44.92067" lon="1.69196">
        <ele>298.1</ele>
        <time>2022-05-24T07:08:05Z</time>
      </trkpt>
      <trkpt lat="44.92064" lon="1.69196">
        <ele>298.3</ele>
        <time>2022-05-24T07:08:06Z</time>
      </trkpt>
      <trkpt lat="44.92061" lon="1.69196">
        <ele>298.5</ele>
        <time>2022-05-24T07:08:07Z</time>
      </trkpt>
      <trkpt lat="44.92058" lon="1.69197">
        <ele>298.7</ele>
        <time>2022-05-24T07:08:08Z</time>
      </trkpt>
      <trkpt lat="44.92054" lon="1.69197">
        <ele>299</ele>
        <time>2022-05-24T07:08:09Z</time>
      </trkpt>
      <trkpt lat="44.92053" lon="1.69197">
        <ele>299.1</ele>
        <time>2022-05-24T07:08:10Z</time>
      </trkpt>
      <trkpt lat="44.9205" lon="1.69198">
        <ele>299.3</ele>
        <time>2022-05-24T07:08:11Z</time>
      </trkpt>
      <trkpt lat="44.92047" lon="1.69199">
        <ele>299.5</ele>
        <time>2022-05-24T07:08:12Z</time>
      </trkpt>
      <trkpt lat="44.92044" lon="1.69199">
        <ele>299.6</ele>
        <time>2022-05-24T07:08:13Z</time>
      </trkpt>
      <trkpt lat="44.92041" lon="1.692">
        <ele>299.8</ele>
        <time>2022-05-24T07:08:14Z</time>
      </trkpt>
      <trkpt lat="44.92038" lon="1.692">
        <ele>300</ele>
        <time>2022-05-24T07:08:15Z</time>
      </trkpt>
      <trkpt lat="44.92035" lon="1.692">
        <ele>300.3</ele>
        <time>2022-05-24T07:08:16Z</time>
      </trkpt>
      <trkpt lat="44.92032" lon="1.69201">
        <ele>300.5</ele>
        <time>2022-05-24T07:08:17Z</time>
      </trkpt>
      <trkpt lat="44.92029" lon="1.69201">
        <ele>300.7</ele>
        <time>2022-05-24T07:08:18Z</time>
      </trkpt>
      <trkpt lat="44.92026" lon="1.69202">
        <ele>300.9</ele>
        <time>2022-05-24T07:08:19Z</time>
      </trkpt>
      <trkpt lat="44.92023" lon="1.69202">
        <ele>301.1</ele>
        <time>2022-05-24T07:08:20Z</time>
      </trkpt>
      <trkpt lat="44.9202" lon="1.69202">
        <ele>301.3</ele>
        <time>2022-05-24T07:08:21Z</time>
      </trkpt>
      <trkpt lat="44.92017" lon="1.69201">
        <ele>301.6</ele>
        <time>2022-05-24T07:08:22Z</time>
      </trkpt>
      <trkpt lat="44.92014" lon="1.69201">
        <ele>301.8</ele>
        <time>2022-05-24T07:08:23Z</time>
      </trkpt>
      <trkpt lat="44.9201" lon="1.692">
        <ele>302.1</ele>
        <time>2022-05-24T07:08:24Z</time>
      </trkpt>
      <trkpt lat="44.92008" lon="1.69199">
        <ele>302.4</ele>
        <time>2022-05-24T07:08:25Z</time>
      </trkpt>
      <trkpt lat="44.92005" lon="1.69198">
        <ele>302.6</ele>
        <time>2022-05-24T07:08:26Z</time>
      </trkpt>
      <trkpt lat="44.92001" lon="1.69197">
        <ele>303</ele>
        <time>2022-05-24T07:08:27Z</time>
      </trkpt>
      <trkpt lat="44.92" lon="1.69197">
        <ele>303.2</ele>
        <time>2022-05-24T07:08:28Z</time>
      </trkpt>
      <trkpt lat="44.91997" lon="1.69196">
        <ele>303.4</ele>
        <time>2022-05-24T07:08:29Z</time>
      </trkpt>
      <trkpt lat="44.91995" lon="1.69195">
        <ele>303.7</ele>
        <time>2022-05-24T07:08:30Z</time>
      </trkpt>
      <trkpt lat="44.91991" lon="1.69194">
        <ele>304.1</ele>
        <time>2022-05-24T07:08:31Z</time>
      </trkpt>
      <trkpt lat="44.9199" lon="1.69194">
        <ele>304.2</ele>
        <time>2022-05-24T07:08:32Z</time>
      </trkpt>
      <trkpt lat="44.91986" lon="1.69193">
        <ele>304.6</ele>
        <time>2022-05-24T07:08:33Z</time>
      </trkpt>
      <trkpt lat="44.91985" lon="1.69193">
        <ele>304.8</ele>
        <time>2022-05-24T07:08:34Z</time>
      </trkpt>
      <trkpt lat="44.91981" lon="1.69192">
        <ele>305.1</ele>
        <time>2022-05-24T07:08:35Z</time>
      </trkpt>
      <trkpt lat="44.91979" lon="1.69191">
        <ele>305.3</ele>
        <time>2022-05-24T07:08:36Z</time>
      </trkpt>
      <trkpt lat="44.91976" lon="1.69189">
        <ele>305.6</ele>
        <time>2022-05-24T07:08:37Z</time>
      </trkpt>
      <trkpt lat="44.91974" lon="1.69189">
        <ele>305.7</ele>
        <time>2022-05-24T07:08:38Z</time>
      </trkpt>
      <trkpt lat="44.91972" lon="1.69187">
        <ele>305.9</ele>
        <time>2022-05-24T07:08:39Z</time>
      </trkpt>
      <trkpt lat="44.91969" lon="1.69187">
        <ele>306.1</ele>
        <time>2022-05-24T07:08:40Z</time>
      </trkpt>
      <trkpt lat="44.91966" lon="1.69186">
        <ele>306.3</ele>
        <time>2022-05-24T07:08:41Z</time>
      </trkpt>
      <trkpt lat="44.91963" lon="1.69185">
        <ele>306.5</ele>
        <time>2022-05-24T07:08:42Z</time>
      </trkpt>
      <trkpt lat="44.91961" lon="1.69184">
        <ele>306.7</ele>
        <time>2022-05-24T07:08:43Z</time>
      </trkpt>
      <trkpt lat="44.91957" lon="1.69181">
        <ele>306.9</ele>
        <time>2022-05-24T07:08:44Z</time>
      </trkpt>
      <trkpt lat="44.91956" lon="1.69181">
        <ele>306.9</ele>
        <time>2022-05-24T07:08:45Z</time>
      </trkpt>
      <trkpt lat="44.91953" lon="1.69178">
        <ele>307.1</ele>
        <time>2022-05-24T07:08:46Z</time>
      </trkpt>
      <trkpt lat="44.91951" lon="1.69177">
        <ele>307.1</ele>
        <time>2022-05-24T07:08:47Z</time>
      </trkpt>
      <trkpt lat="44.91948" lon="1.69176">
        <ele>307.2</ele>
        <time>2022-05-24T07:08:48Z</time>
      </trkpt>
      <trkpt lat="44.91945" lon="1.69174">
        <ele>307.2</ele>
        <time>2022-05-24T07:08:49Z</time>
      </trkpt>
      <trkpt lat="44.91942" lon="1.69173">
        <ele>307.3</ele>
        <time>2022-05-24T07:08:50Z</time>
      </trkpt>
      <trkpt lat="44.91938" lon="1.69172">
        <ele>307.2</ele>
        <time>2022-05-24T07:08:51Z</time>
      </trkpt>
      <trkpt lat="44.91935" lon="1.69171">
        <ele>307.2</ele>
        <time>2022-05-24T07:08:52Z</time>
      </trkpt>
      <trkpt lat="44.91931" lon="1.69171">
        <ele>307.2</ele>
        <time>2022-05-24T07:08:54Z</time>
      </trkpt>
      <trkpt lat="44.91927" lon="1.6917">
        <ele>307.1</ele>
        <time>2022-05-24T07:08:55Z</time>
      </trkpt>
      <trkpt lat="44.91923" lon="1.6917">
        <ele>307</ele>
        <time>2022-05-24T07:08:56Z</time>
      </trkpt>
      <trkpt lat="44.91918" lon="1.69169">
        <ele>307</ele>
        <time>2022-05-24T07:08:57Z</time>
      </trkpt>
      <trkpt lat="44.91914" lon="1.69169">
        <ele>306.9</ele>
        <time>2022-05-24T07:08:58Z</time>
      </trkpt>
      <trkpt lat="44.91909" lon="1.69168">
        <ele>306.8</ele>
        <time>2022-05-24T07:08:59Z</time>
      </trkpt>
      <trkpt lat="44.91905" lon="1.69167">
        <ele>306.8</ele>
        <time>2022-05-24T07:09:00Z</time>
      </trkpt>
      <trkpt lat="44.919" lon="1.69166">
        <ele>306.7</ele>
        <time>2022-05-24T07:09:01Z</time>
      </trkpt>
      <trkpt lat="44.91895" lon="1.69165">
        <ele>306.7</ele>
        <time>2022-05-24T07:09:02Z</time>
      </trkpt>
      <trkpt lat="44.91891" lon="1.69165">
        <ele>306.7</ele>
        <time>2022-05-24T07:09:03Z</time>
      </trkpt>
      <trkpt lat="44.91887" lon="1.69165">
        <ele>306.7</ele>
        <time>2022-05-24T07:09:04Z</time>
      </trkpt>
      <trkpt lat="44.91883" lon="1.69164">
        <ele>306.8</ele>
        <time>2022-05-24T07:09:05Z</time>
      </trkpt>
      <trkpt lat="44.91879" lon="1.69164">
        <ele>306.8</ele>
        <time>2022-05-24T07:09:06Z</time>
      </trkpt>
      <trkpt lat="44.91875" lon="1.69164">
        <ele>306.8</ele>
        <time>2022-05-24T07:09:07Z</time>
      </trkpt>
      <trkpt lat="44.91871" lon="1.69162">
        <ele>306.8</ele>
        <time>2022-05-24T07:09:08Z</time>
      </trkpt>
      <trkpt lat="44.91867" lon="1.6916">
        <ele>306.8</ele>
        <time>2022-05-24T07:09:09Z</time>
      </trkpt>
      <trkpt lat="44.91863" lon="1.69159">
        <ele>306.9</ele>
        <time>2022-05-24T07:09:10Z</time>
      </trkpt>
      <trkpt lat="44.9186" lon="1.69157">
        <ele>306.9</ele>
        <time>2022-05-24T07:09:11Z</time>
      </trkpt>
      <trkpt lat="44.91856" lon="1.69155">
        <ele>307</ele>
        <time>2022-05-24T07:09:12Z</time>
      </trkpt>
      <trkpt lat="44.91853" lon="1.69152">
        <ele>307</ele>
        <time>2022-05-24T07:09:13Z</time>
      </trkpt>
      <trkpt lat="44.91849" lon="1.69151">
        <ele>307.1</ele>
        <time>2022-05-24T07:09:14Z</time>
      </trkpt>
      <trkpt lat="44.91845" lon="1.69152">
        <ele>307.2</ele>
        <time>2022-05-24T07:09:15Z</time>
      </trkpt>
      <trkpt lat="44.91842" lon="1.69154">
        <ele>307.3</ele>
        <time>2022-05-24T07:09:16Z</time>
      </trkpt>
      <trkpt lat="44.9184" lon="1.69156">
        <ele>307.3</ele>
        <time>2022-05-24T07:09:17Z</time>
      </trkpt>
      <trkpt lat="44.91837" lon="1.6916">
        <ele>307.4</ele>
        <time>2022-05-24T07:09:18Z</time>
      </trkpt>
      <trkpt lat="44.91834" lon="1.69164">
        <ele>307.5</ele>
        <time>2022-05-24T07:09:19Z</time>
      </trkpt>
      <trkpt lat="44.91831" lon="1.69167">
        <ele>307.6</ele>
        <time>2022-05-24T07:09:20Z</time>
      </trkpt>
      <trkpt lat="44.91828" lon="1.6917">
        <ele>307.6</ele>
        <time>2022-05-24T07:09:21Z</time>
      </trkpt>
      <trkpt lat="44.91826" lon="1.69172">
        <ele>307.7</ele>
        <time>2022-05-24T07:09:22Z</time>
      </trkpt>
      <trkpt lat="44.91822" lon="1.69173">
        <ele>307.7</ele>
        <time>2022-05-24T07:09:23Z</time>
      </trkpt>
      <trkpt lat="44.91819" lon="1.69173">
        <ele>307.7</ele>
        <time>2022-05-24T07:09:24Z</time>
      </trkpt>
      <trkpt lat="44.91815" lon="1.69172">
        <ele>307.7</ele>
        <time>2022-05-24T07:09:25Z</time>
      </trkpt>
      <trkpt lat="44.9181" lon="1.69172">
        <ele>307.7</ele>
        <time>2022-05-24T07:09:26Z</time>
      </trkpt>
      <trkpt lat="44.91806" lon="1.69171">
        <ele>307.6</ele>
        <time>2022-05-24T07:09:27Z</time>
      </trkpt>
      <trkpt lat="44.91801" lon="1.6917">
        <ele>307.6</ele>
        <time>2022-05-24T07:09:28Z</time>
      </trkpt>
      <trkpt lat="44.91798" lon="1.69169">
        <ele>307.5</ele>
        <time>2022-05-24T07:09:29Z</time>
      </trkpt>
      <trkpt lat="44.91795" lon="1.69167">
        <ele>307.4</ele>
        <time>2022-05-24T07:09:30Z</time>
      </trkpt>
      <trkpt lat="44.91791" lon="1.69165">
        <ele>307.3</ele>
        <time>2022-05-24T07:09:31Z</time>
      </trkpt>
      <trkpt lat="44.91787" lon="1.69164">
        <ele>307.2</ele>
        <time>2022-05-24T07:09:32Z</time>
      </trkpt>
      <trkpt lat="44.91783" lon="1.69164">
        <ele>307.1</ele>
        <time>2022-05-24T07:09:33Z</time>
      </trkpt>
      <trkpt lat="44.91779" lon="1.69163">
        <ele>307</ele>
        <time>2022-05-24T07:09:34Z</time>
      </trkpt>
      <trkpt lat="44.91775" lon="1.69163">
        <ele>306.8</ele>
        <time>2022-05-24T07:09:35Z</time>
      </trkpt>
      <trkpt lat="44.91771" lon="1.69162">
        <ele>306.6</ele>
        <time>2022-05-24T07:09:36Z</time>
      </trkpt>
      <trkpt lat="44.91767" lon="1.69161">
        <ele>306.4</ele>
        <time>2022-05-24T07:09:37Z</time>
      </trkpt>
      <trkpt lat="44.91763" lon="1.69161">
        <ele>306.2</ele>
        <time>2022-05-24T07:09:38Z</time>
      </trkpt>
      <trkpt lat="44.91759" lon="1.6916">
        <ele>305.9</ele>
        <time>2022-05-24T07:09:39Z</time>
      </trkpt>
      <trkpt lat="44.91755" lon="1.69159">
        <ele>305.6</ele>
        <time>2022-05-24T07:09:40Z</time>
      </trkpt>
      <trkpt lat="44.91751" lon="1.69158">
        <ele>305.3</ele>
        <time>2022-05-24T07:09:41Z</time>
      </trkpt>
      <trkpt lat="44.91747" lon="1.69157">
        <ele>305.1</ele>
        <time>2022-05-24T07:09:42Z</time>
      </trkpt>
      <trkpt lat="44.91742" lon="1.69157">
        <ele>304.8</ele>
        <time>2022-05-24T07:09:43Z</time>
      </trkpt>
      <trkpt lat="44.91738" lon="1.69156">
        <ele>304.5</ele>
        <time>2022-05-24T07:09:44Z</time>
      </trkpt>
      <trkpt lat="44.91731" lon="1.69155">
        <ele>304</ele>
        <time>2022-05-24T07:09:45Z</time>
      </trkpt>
      <trkpt lat="44.91727" lon="1.69154">
        <ele>303.6</ele>
        <time>2022-05-24T07:09:46Z</time>
      </trkpt>
      <trkpt lat="44.91723" lon="1.69152">
        <ele>303.3</ele>
        <time>2022-05-24T07:09:47Z</time>
      </trkpt>
      <trkpt lat="44.91719" lon="1.6915">
        <ele>302.9</ele>
        <time>2022-05-24T07:09:48Z</time>
      </trkpt>
      <trkpt lat="44.91714" lon="1.69148">
        <ele>302.6</ele>
        <time>2022-05-24T07:09:49Z</time>
      </trkpt>
      <trkpt lat="44.91708" lon="1.69148">
        <ele>302.2</ele>
        <time>2022-05-24T07:09:50Z</time>
      </trkpt>
      <trkpt lat="44.91703" lon="1.69147">
        <ele>301.9</ele>
        <time>2022-05-24T07:09:51Z</time>
      </trkpt>
      <trkpt lat="44.91698" lon="1.69146">
        <ele>301.6</ele>
        <time>2022-05-24T07:09:52Z</time>
      </trkpt>
      <trkpt lat="44.91693" lon="1.69144">
        <ele>301.2</ele>
        <time>2022-05-24T07:09:53Z</time>
      </trkpt>
      <trkpt lat="44.91689" lon="1.69143">
        <ele>300.9</ele>
        <time>2022-05-24T07:09:54Z</time>
      </trkpt>
      <trkpt lat="44.91686" lon="1.69143">
        <ele>300.7</ele>
        <time>2022-05-24T07:09:55Z</time>
      </trkpt>
      <trkpt lat="44.91682" lon="1.69143">
        <ele>300.5</ele>
        <time>2022-05-24T07:09:56Z</time>
      </trkpt>
      <trkpt lat="44.91678" lon="1.69141">
        <ele>300.3</ele>
        <time>2022-05-24T07:09:57Z</time>
      </trkpt>
      <trkpt lat="44.91674" lon="1.6914">
        <ele>300.1</ele>
        <time>2022-05-24T07:09:58Z</time>
      </trkpt>
      <trkpt lat="44.91671" lon="1.6914">
        <ele>299.9</ele>
        <time>2022-05-24T07:09:59Z</time>
      </trkpt>
      <trkpt lat="44.91667" lon="1.69141">
        <ele>299.8</ele>
        <time>2022-05-24T07:10:00Z</time>
      </trkpt>
      <trkpt lat="44.91663" lon="1.69142">
        <ele>299.6</ele>
        <time>2022-05-24T07:10:01Z</time>
      </trkpt>
      <trkpt lat="44.9166" lon="1.69143">
        <ele>299.5</ele>
        <time>2022-05-24T07:10:02Z</time>
      </trkpt>
      <trkpt lat="44.91658" lon="1.69147">
        <ele>299.3</ele>
        <time>2022-05-24T07:10:03Z</time>
      </trkpt>
      <trkpt lat="44.91656" lon="1.69153">
        <ele>299.1</ele>
        <time>2022-05-24T07:10:04Z</time>
      </trkpt>
      <trkpt lat="44.91655" lon="1.69157">
        <ele>299</ele>
        <time>2022-05-24T07:10:05Z</time>
      </trkpt>
      <trkpt lat="44.91652" lon="1.69161">
        <ele>298.9</ele>
        <time>2022-05-24T07:10:06Z</time>
      </trkpt>
      <trkpt lat="44.91651" lon="1.69162">
        <ele>298.8</ele>
        <time>2022-05-24T07:10:07Z</time>
      </trkpt>
      <trkpt lat="44.91648" lon="1.69165">
        <ele>298.7</ele>
        <time>2022-05-24T07:10:08Z</time>
      </trkpt>
      <trkpt lat="44.91647" lon="1.69166">
        <ele>298.7</ele>
        <time>2022-05-24T07:10:09Z</time>
      </trkpt>
      <trkpt lat="44.91644" lon="1.69168">
        <ele>298.6</ele>
        <time>2022-05-24T07:10:10Z</time>
      </trkpt>
      <trkpt lat="44.91641" lon="1.69171">
        <ele>298.5</ele>
        <time>2022-05-24T07:10:11Z</time>
      </trkpt>
      <trkpt lat="44.91636" lon="1.69174">
        <ele>298.4</ele>
        <time>2022-05-24T07:10:12Z</time>
      </trkpt>
      <trkpt lat="44.91632" lon="1.69178">
        <ele>298.4</ele>
        <time>2022-05-24T07:10:13Z</time>
      </trkpt>
      <trkpt lat="44.91628" lon="1.69182">
        <ele>298.4</ele>
        <time>2022-05-24T07:10:14Z</time>
      </trkpt>
      <trkpt lat="44.91624" lon="1.69185">
        <ele>298.5</ele>
        <time>2022-05-24T07:10:15Z</time>
      </trkpt>
      <trkpt lat="44.91621" lon="1.69189">
        <ele>298.6</ele>
        <time>2022-05-24T07:10:16Z</time>
      </trkpt>
      <trkpt lat="44.91617" lon="1.69191">
        <ele>298.7</ele>
        <time>2022-05-24T07:10:17Z</time>
      </trkpt>
      <trkpt lat="44.91612" lon="1.69194">
        <ele>298.8</ele>
        <time>2022-05-24T07:10:18Z</time>
      </trkpt>
      <trkpt lat="44.91608" lon="1.69195">
        <ele>298.9</ele>
        <time>2022-05-24T07:10:19Z</time>
      </trkpt>
      <trkpt lat="44.91604" lon="1.69196">
        <ele>299.1</ele>
        <time>2022-05-24T07:10:20Z</time>
      </trkpt>
      <trkpt lat="44.91599" lon="1.69198">
        <ele>299.2</ele>
        <time>2022-05-24T07:10:21Z</time>
      </trkpt>
      <trkpt lat="44.91594" lon="1.69199">
        <ele>299.4</ele>
        <time>2022-05-24T07:10:22Z</time>
      </trkpt>
      <trkpt lat="44.9159" lon="1.69201">
        <ele>299.6</ele>
        <time>2022-05-24T07:10:23Z</time>
      </trkpt>
      <trkpt lat="44.91586" lon="1.69202">
        <ele>299.7</ele>
        <time>2022-05-24T07:10:24Z</time>
      </trkpt>
      <trkpt lat="44.91582" lon="1.69203">
        <ele>299.8</ele>
        <time>2022-05-24T07:10:25Z</time>
      </trkpt>
      <trkpt lat="44.91578" lon="1.69204">
        <ele>299.9</ele>
        <time>2022-05-24T07:10:26Z</time>
      </trkpt>
      <trkpt lat="44.91574" lon="1.69206">
        <ele>300</ele>
        <time>2022-05-24T07:10:27Z</time>
      </trkpt>
      <trkpt lat="44.9157" lon="1.69207">
        <ele>300.1</ele>
        <time>2022-05-24T07:10:28Z</time>
      </trkpt>
      <trkpt lat="44.91566" lon="1.69208">
        <ele>300.2</ele>
        <time>2022-05-24T07:10:29Z</time>
      </trkpt>
      <trkpt lat="44.91562" lon="1.69209">
        <ele>300.3</ele>
        <time>2022-05-24T07:10:30Z</time>
      </trkpt>
      <trkpt lat="44.91558" lon="1.69211">
        <ele>300.5</ele>
        <time>2022-05-24T07:10:31Z</time>
      </trkpt>
      <trkpt lat="44.91554" lon="1.69212">
        <ele>300.7</ele>
        <time>2022-05-24T07:10:32Z</time>
      </trkpt>
      <trkpt lat="44.9155" lon="1.69214">
        <ele>300.9</ele>
        <time>2022-05-24T07:10:33Z</time>
      </trkpt>
      <trkpt lat="44.91546" lon="1.69216">
        <ele>301.2</ele>
        <time>2022-05-24T07:10:34Z</time>
      </trkpt>
      <trkpt lat="44.91542" lon="1.69217">
        <ele>301.5</ele>
        <time>2022-05-24T07:10:35Z</time>
      </trkpt>
      <trkpt lat="44.91539" lon="1.69218">
        <ele>301.8</ele>
        <time>2022-05-24T07:10:36Z</time>
      </trkpt>
      <trkpt lat="44.91535" lon="1.6922">
        <ele>302</ele>
        <time>2022-05-24T07:10:37Z</time>
      </trkpt>
      <trkpt lat="44.91532" lon="1.6922">
        <ele>302.3</ele>
        <time>2022-05-24T07:10:38Z</time>
      </trkpt>
      <trkpt lat="44.91528" lon="1.6922">
        <ele>302.4</ele>
        <time>2022-05-24T07:10:39Z</time>
      </trkpt>
      <trkpt lat="44.91525" lon="1.69218">
        <ele>302.6</ele>
        <time>2022-05-24T07:10:40Z</time>
      </trkpt>
      <trkpt lat="44.91521" lon="1.69215">
        <ele>302.8</ele>
        <time>2022-05-24T07:10:41Z</time>
      </trkpt>
      <trkpt lat="44.91517" lon="1.69212">
        <ele>302.9</ele>
        <time>2022-05-24T07:10:42Z</time>
      </trkpt>
      <trkpt lat="44.91513" lon="1.69208">
        <ele>303.1</ele>
        <time>2022-05-24T07:10:43Z</time>
      </trkpt>
      <trkpt lat="44.91509" lon="1.69204">
        <ele>303.2</ele>
        <time>2022-05-24T07:10:44Z</time>
      </trkpt>
      <trkpt lat="44.91505" lon="1.692">
        <ele>303.4</ele>
        <time>2022-05-24T07:10:45Z</time>
      </trkpt>
      <trkpt lat="44.91501" lon="1.69198">
        <ele>303.6</ele>
        <time>2022-05-24T07:10:46Z</time>
      </trkpt>
      <trkpt lat="44.91496" lon="1.69195">
        <ele>303.8</ele>
        <time>2022-05-24T07:10:47Z</time>
      </trkpt>
      <trkpt lat="44.91493" lon="1.69192">
        <ele>304</ele>
        <time>2022-05-24T07:10:48Z</time>
      </trkpt>
      <trkpt lat="44.9149" lon="1.69189">
        <ele>304.2</ele>
        <time>2022-05-24T07:10:49Z</time>
      </trkpt>
      <trkpt lat="44.91486" lon="1.69187">
        <ele>304.4</ele>
        <time>2022-05-24T07:10:50Z</time>
      </trkpt>
      <trkpt lat="44.91483" lon="1.69185">
        <ele>304.6</ele>
        <time>2022-05-24T07:10:51Z</time>
      </trkpt>
      <trkpt lat="44.9148" lon="1.69183">
        <ele>304.8</ele>
        <time>2022-05-24T07:10:52Z</time>
      </trkpt>
      <trkpt lat="44.91476" lon="1.6918">
        <ele>305</ele>
        <time>2022-05-24T07:10:53Z</time>
      </trkpt>
      <trkpt lat="44.91464" lon="1.69171">
        <ele>305.9</ele>
        <time>2022-05-24T07:10:57Z</time>
      </trkpt>
      <trkpt lat="44.91456" lon="1.69164">
        <ele>306.4</ele>
        <time>2022-05-24T07:10:59Z</time>
      </trkpt>
      <trkpt lat="44.91452" lon="1.6916">
        <ele>306.6</ele>
        <time>2022-05-24T07:11:00Z</time>
      </trkpt>
      <trkpt lat="44.91448" lon="1.69157">
        <ele>306.9</ele>
        <time>2022-05-24T07:11:01Z</time>
      </trkpt>
      <trkpt lat="44.91445" lon="1.69155">
        <ele>307.1</ele>
        <time>2022-05-24T07:11:02Z</time>
      </trkpt>
      <trkpt lat="44.91442" lon="1.69154">
        <ele>307.3</ele>
        <time>2022-05-24T07:11:03Z</time>
      </trkpt>
      <trkpt lat="44.91439" lon="1.69153">
        <ele>307.5</ele>
        <time>2022-05-24T07:11:04Z</time>
      </trkpt>
      <trkpt lat="44.91436" lon="1.69152">
        <ele>307.7</ele>
        <time>2022-05-24T07:11:05Z</time>
      </trkpt>
      <trkpt lat="44.91433" lon="1.69151">
        <ele>307.9</ele>
        <time>2022-05-24T07:11:06Z</time>
      </trkpt>
      <trkpt lat="44.91429" lon="1.69149">
        <ele>308.2</ele>
        <time>2022-05-24T07:11:07Z</time>
      </trkpt>
      <trkpt lat="44.91426" lon="1.69147">
        <ele>308.3</ele>
        <time>2022-05-24T07:11:08Z</time>
      </trkpt>
      <trkpt lat="44.91423" lon="1.69144">
        <ele>308.5</ele>
        <time>2022-05-24T07:11:09Z</time>
      </trkpt>
      <trkpt lat="44.91419" lon="1.69142">
        <ele>308.6</ele>
        <time>2022-05-24T07:11:10Z</time>
      </trkpt>
      <trkpt lat="44.91416" lon="1.6914">
        <ele>308.6</ele>
        <time>2022-05-24T07:11:11Z</time>
      </trkpt>
      <trkpt lat="44.91412" lon="1.69138">
        <ele>308.6</ele>
        <time>2022-05-24T07:11:12Z</time>
      </trkpt>
      <trkpt lat="44.91408" lon="1.69135">
        <ele>308.5</ele>
        <time>2022-05-24T07:11:13Z</time>
      </trkpt>
      <trkpt lat="44.91405" lon="1.69133">
        <ele>308.4</ele>
        <time>2022-05-24T07:11:14Z</time>
      </trkpt>
      <trkpt lat="44.91404" lon="1.6913">
        <ele>308.3</ele>
        <time>2022-05-24T07:11:15Z</time>
      </trkpt>
      <trkpt lat="44.91403" lon="1.69124">
        <ele>308.1</ele>
        <time>2022-05-24T07:11:16Z</time>
      </trkpt>
      <trkpt lat="44.91407" lon="1.69116">
        <ele>307.5</ele>
        <time>2022-05-24T07:11:17Z</time>
      </trkpt>
      <trkpt lat="44.9141" lon="1.69108">
        <ele>306.8</ele>
        <time>2022-05-24T07:11:18Z</time>
      </trkpt>
      <trkpt lat="44.91412" lon="1.69101">
        <ele>306.2</ele>
        <time>2022-05-24T07:11:19Z</time>
      </trkpt>
      <trkpt lat="44.91414" lon="1.69093">
        <ele>305.4</ele>
        <time>2022-05-24T07:11:20Z</time>
      </trkpt>
      <trkpt lat="44.91416" lon="1.69084">
        <ele>304.7</ele>
        <time>2022-05-24T07:11:21Z</time>
      </trkpt>
      <trkpt lat="44.91419" lon="1.69077">
        <ele>304.1</ele>
        <time>2022-05-24T07:11:22Z</time>
      </trkpt>
      <trkpt lat="44.91419" lon="1.69072">
        <ele>303.7</ele>
        <time>2022-05-24T07:11:23Z</time>
      </trkpt>
      <trkpt lat="44.91419" lon="1.69067">
        <ele>303.3</ele>
        <time>2022-05-24T07:11:24Z</time>
      </trkpt>
      <trkpt lat="44.91416" lon="1.69063">
        <ele>303</ele>
        <time>2022-05-24T07:11:25Z</time>
      </trkpt>
      <trkpt lat="44.91413" lon="1.69061">
        <ele>302.7</ele>
        <time>2022-05-24T07:11:26Z</time>
      </trkpt>
      <trkpt lat="44.91409" lon="1.6906">
        <ele>302.5</ele>
        <time>2022-05-24T07:11:27Z</time>
      </trkpt>
      <trkpt lat="44.91405" lon="1.69058">
        <ele>302.3</ele>
        <time>2022-05-24T07:11:28Z</time>
      </trkpt>
      <trkpt lat="44.91401" lon="1.69056">
        <ele>302.2</ele>
        <time>2022-05-24T07:11:29Z</time>
      </trkpt>
      <trkpt lat="44.91396" lon="1.69053">
        <ele>302.1</ele>
        <time>2022-05-24T07:11:30Z</time>
      </trkpt>
      <trkpt lat="44.91392" lon="1.69052">
        <ele>302.1</ele>
        <time>2022-05-24T07:11:31Z</time>
      </trkpt>
      <trkpt lat="44.91388" lon="1.69051">
        <ele>302.1</ele>
        <time>2022-05-24T07:11:32Z</time>
      </trkpt>
      <trkpt lat="44.91384" lon="1.69049">
        <ele>302.1</ele>
        <time>2022-05-24T07:11:33Z</time>
      </trkpt>
      <trkpt lat="44.9138" lon="1.69048">
        <ele>302</ele>
        <time>2022-05-24T07:11:34Z</time>
      </trkpt>
      <trkpt lat="44.91375" lon="1.69047">
        <ele>302</ele>
        <time>2022-05-24T07:11:35Z</time>
      </trkpt>
      <trkpt lat="44.9137" lon="1.69046">
        <ele>301.9</ele>
        <time>2022-05-24T07:11:36Z</time>
      </trkpt>
      <trkpt lat="44.91364" lon="1.69045">
        <ele>301.8</ele>
        <time>2022-05-24T07:11:37Z</time>
      </trkpt>
      <trkpt lat="44.91359" lon="1.69045">
        <ele>301.6</ele>
        <time>2022-05-24T07:11:38Z</time>
      </trkpt>
      <trkpt lat="44.91353" lon="1.69043">
        <ele>301.5</ele>
        <time>2022-05-24T07:11:39Z</time>
      </trkpt>
      <trkpt lat="44.91348" lon="1.69042">
        <ele>301.4</ele>
        <time>2022-05-24T07:11:40Z</time>
      </trkpt>
      <trkpt lat="44.91343" lon="1.69041">
        <ele>301.3</ele>
        <time>2022-05-24T07:11:41Z</time>
      </trkpt>
      <trkpt lat="44.9134" lon="1.69039">
        <ele>301.2</ele>
        <time>2022-05-24T07:11:42Z</time>
      </trkpt>
      <trkpt lat="44.91337" lon="1.69036">
        <ele>301.1</ele>
        <time>2022-05-24T07:11:43Z</time>
      </trkpt>
      <trkpt lat="44.91336" lon="1.6903">
        <ele>300.8</ele>
        <time>2022-05-24T07:11:44Z</time>
      </trkpt>
      <trkpt lat="44.91337" lon="1.69024">
        <ele>300.7</ele>
        <time>2022-05-24T07:11:45Z</time>
      </trkpt>
      <trkpt lat="44.91339" lon="1.69019">
        <ele>300.7</ele>
        <time>2022-05-24T07:11:46Z</time>
      </trkpt>
      <trkpt lat="44.91341" lon="1.69013">
        <ele>300.7</ele>
        <time>2022-05-24T07:11:47Z</time>
      </trkpt>
      <trkpt lat="44.91343" lon="1.69007">
        <ele>300.7</ele>
        <time>2022-05-24T07:11:48Z</time>
      </trkpt>
      <trkpt lat="44.91344" lon="1.69001">
        <ele>300.7</ele>
        <time>2022-05-24T07:11:49Z</time>
      </trkpt>
      <trkpt lat="44.91344" lon="1.68994">
        <ele>300.7</ele>
        <time>2022-05-24T07:11:50Z</time>
      </trkpt>
      <trkpt lat="44.91344" lon="1.68987">
        <ele>300.8</ele>
        <time>2022-05-24T07:11:51Z</time>
      </trkpt>
      <trkpt lat="44.91343" lon="1.6898">
        <ele>300.8</ele>
        <time>2022-05-24T07:11:52Z</time>
      </trkpt>
      <trkpt lat="44.91342" lon="1.68973">
        <ele>300.9</ele>
        <time>2022-05-24T07:11:53Z</time>
      </trkpt>
      <trkpt lat="44.91341" lon="1.68966">
        <ele>301</ele>
        <time>2022-05-24T07:11:54Z</time>
      </trkpt>
      <trkpt lat="44.9134" lon="1.6896">
        <ele>301.2</ele>
        <time>2022-05-24T07:11:55Z</time>
      </trkpt>
      <trkpt lat="44.91339" lon="1.68952">
        <ele>301.4</ele>
        <time>2022-05-24T07:11:56Z</time>
      </trkpt>
      <trkpt lat="44.91338" lon="1.68945">
        <ele>301.5</ele>
        <time>2022-05-24T07:11:57Z</time>
      </trkpt>
      <trkpt lat="44.91336" lon="1.68938">
        <ele>301.7</ele>
        <time>2022-05-24T07:11:58Z</time>
      </trkpt>
      <trkpt lat="44.91335" lon="1.68932">
        <ele>301.8</ele>
        <time>2022-05-24T07:11:59Z</time>
      </trkpt>
      <trkpt lat="44.91333" lon="1.68926">
        <ele>302</ele>
        <time>2022-05-24T07:12:00Z</time>
      </trkpt>
      <trkpt lat="44.91331" lon="1.68919">
        <ele>302.2</ele>
        <time>2022-05-24T07:12:01Z</time>
      </trkpt>
      <trkpt lat="44.9133" lon="1.68913">
        <ele>302.4</ele>
        <time>2022-05-24T07:12:02Z</time>
      </trkpt>
      <trkpt lat="44.91329" lon="1.68906">
        <ele>302.5</ele>
        <time>2022-05-24T07:12:03Z</time>
      </trkpt>
      <trkpt lat="44.91328" lon="1.68899">
        <ele>302.7</ele>
        <time>2022-05-24T07:12:04Z</time>
      </trkpt>
      <trkpt lat="44.91327" lon="1.68893">
        <ele>302.9</ele>
        <time>2022-05-24T07:12:05Z</time>
      </trkpt>
      <trkpt lat="44.91325" lon="1.68887">
        <ele>303</ele>
        <time>2022-05-24T07:12:06Z</time>
      </trkpt>
      <trkpt lat="44.91324" lon="1.68882">
        <ele>303</ele>
        <time>2022-05-24T07:12:07Z</time>
      </trkpt>
      <trkpt lat="44.91324" lon="1.68876">
        <ele>303.1</ele>
        <time>2022-05-24T07:12:08Z</time>
      </trkpt>
      <trkpt lat="44.91323" lon="1.68869">
        <ele>303.1</ele>
        <time>2022-05-24T07:12:09Z</time>
      </trkpt>
      <trkpt lat="44.91323" lon="1.68862">
        <ele>303.1</ele>
        <time>2022-05-24T07:12:10Z</time>
      </trkpt>
      <trkpt lat="44.91322" lon="1.68855">
        <ele>303.1</ele>
        <time>2022-05-24T07:12:11Z</time>
      </trkpt>
      <trkpt lat="44.91321" lon="1.68847">
        <ele>303.1</ele>
        <time>2022-05-24T07:12:12Z</time>
      </trkpt>
      <trkpt lat="44.9132" lon="1.68841">
        <ele>303</ele>
        <time>2022-05-24T07:12:13Z</time>
      </trkpt>
      <trkpt lat="44.9132" lon="1.68834">
        <ele>302.8</ele>
        <time>2022-05-24T07:12:14Z</time>
      </trkpt>
      <trkpt lat="44.91319" lon="1.68826">
        <ele>302.7</ele>
        <time>2022-05-24T07:12:15Z</time>
      </trkpt>
      <trkpt lat="44.91318" lon="1.68819">
        <ele>302.6</ele>
        <time>2022-05-24T07:12:16Z</time>
      </trkpt>
      <trkpt lat="44.91318" lon="1.68812">
        <ele>302.4</ele>
        <time>2022-05-24T07:12:17Z</time>
      </trkpt>
      <trkpt lat="44.91317" lon="1.68805">
        <ele>302.2</ele>
        <time>2022-05-24T07:12:18Z</time>
      </trkpt>
      <trkpt lat="44.91316" lon="1.68799">
        <ele>301.9</ele>
        <time>2022-05-24T07:12:19Z</time>
      </trkpt>
      <trkpt lat="44.91316" lon="1.68793">
        <ele>301.7</ele>
        <time>2022-05-24T07:12:20Z</time>
      </trkpt>
      <trkpt lat="44.91316" lon="1.68786">
        <ele>301.4</ele>
        <time>2022-05-24T07:12:21Z</time>
      </trkpt>
      <trkpt lat="44.91317" lon="1.6878">
        <ele>301.1</ele>
        <time>2022-05-24T07:12:22Z</time>
      </trkpt>
      <trkpt lat="44.91318" lon="1.68772">
        <ele>300.8</ele>
        <time>2022-05-24T07:12:23Z</time>
      </trkpt>
      <trkpt lat="44.91319" lon="1.68764">
        <ele>300.4</ele>
        <time>2022-05-24T07:12:24Z</time>
      </trkpt>
      <trkpt lat="44.91319" lon="1.68755">
        <ele>300</ele>
        <time>2022-05-24T07:12:25Z</time>
      </trkpt>
      <trkpt lat="44.91319" lon="1.68748">
        <ele>299.6</ele>
        <time>2022-05-24T07:12:26Z</time>
      </trkpt>
      <trkpt lat="44.91318" lon="1.6874">
        <ele>299.1</ele>
        <time>2022-05-24T07:12:27Z</time>
      </trkpt>
      <trkpt lat="44.91316" lon="1.68732">
        <ele>298.6</ele>
        <time>2022-05-24T07:12:28Z</time>
      </trkpt>
      <trkpt lat="44.91316" lon="1.68723">
        <ele>298.1</ele>
        <time>2022-05-24T07:12:29Z</time>
      </trkpt>
      <trkpt lat="44.91317" lon="1.68714">
        <ele>297.6</ele>
        <time>2022-05-24T07:12:30Z</time>
      </trkpt>
      <trkpt lat="44.91317" lon="1.68703">
        <ele>297.2</ele>
        <time>2022-05-24T07:12:31Z</time>
      </trkpt>
      <trkpt lat="44.91317" lon="1.68693">
        <ele>296.8</ele>
        <time>2022-05-24T07:12:32Z</time>
      </trkpt>
      <trkpt lat="44.91317" lon="1.68682">
        <ele>296.4</ele>
        <time>2022-05-24T07:12:33Z</time>
      </trkpt>
      <trkpt lat="44.91317" lon="1.68671">
        <ele>296</ele>
        <time>2022-05-24T07:12:34Z</time>
      </trkpt>
      <trkpt lat="44.91316" lon="1.68661">
        <ele>295.7</ele>
        <time>2022-05-24T07:12:35Z</time>
      </trkpt>
      <trkpt lat="44.91316" lon="1.6865">
        <ele>295.3</ele>
        <time>2022-05-24T07:12:36Z</time>
      </trkpt>
      <trkpt lat="44.91317" lon="1.68641">
        <ele>295</ele>
        <time>2022-05-24T07:12:37Z</time>
      </trkpt>
      <trkpt lat="44.91317" lon="1.68632">
        <ele>294.7</ele>
        <time>2022-05-24T07:12:38Z</time>
      </trkpt>
      <trkpt lat="44.91316" lon="1.68623">
        <ele>294.5</ele>
        <time>2022-05-24T07:12:39Z</time>
      </trkpt>
      <trkpt lat="44.91316" lon="1.68614">
        <ele>294.2</ele>
        <time>2022-05-24T07:12:40Z</time>
      </trkpt>
      <trkpt lat="44.91315" lon="1.68605">
        <ele>293.9</ele>
        <time>2022-05-24T07:12:41Z</time>
      </trkpt>
      <trkpt lat="44.91313" lon="1.68596">
        <ele>293.7</ele>
        <time>2022-05-24T07:12:42Z</time>
      </trkpt>
      <trkpt lat="44.91311" lon="1.68587">
        <ele>293.4</ele>
        <time>2022-05-24T07:12:43Z</time>
      </trkpt>
      <trkpt lat="44.91308" lon="1.6858">
        <ele>293.1</ele>
        <time>2022-05-24T07:12:44Z</time>
      </trkpt>
      <trkpt lat="44.91305" lon="1.68572">
        <ele>292.8</ele>
        <time>2022-05-24T07:12:45Z</time>
      </trkpt>
      <trkpt lat="44.91301" lon="1.68565">
        <ele>292.4</ele>
        <time>2022-05-24T07:12:46Z</time>
      </trkpt>
      <trkpt lat="44.91299" lon="1.68558">
        <ele>292.1</ele>
        <time>2022-05-24T07:12:47Z</time>
      </trkpt>
      <trkpt lat="44.91299" lon="1.68549">
        <ele>291.8</ele>
        <time>2022-05-24T07:12:48Z</time>
      </trkpt>
      <trkpt lat="44.91299" lon="1.6854">
        <ele>291.4</ele>
        <time>2022-05-24T07:12:49Z</time>
      </trkpt>
      <trkpt lat="44.913" lon="1.68531">
        <ele>291</ele>
        <time>2022-05-24T07:12:50Z</time>
      </trkpt>
      <trkpt lat="44.913" lon="1.68522">
        <ele>290.6</ele>
        <time>2022-05-24T07:12:51Z</time>
      </trkpt>
      <trkpt lat="44.913" lon="1.68512">
        <ele>290.2</ele>
        <time>2022-05-24T07:12:52Z</time>
      </trkpt>
      <trkpt lat="44.913" lon="1.68503">
        <ele>289.8</ele>
        <time>2022-05-24T07:12:53Z</time>
      </trkpt>
      <trkpt lat="44.91299" lon="1.68493">
        <ele>289.5</ele>
        <time>2022-05-24T07:12:54Z</time>
      </trkpt>
      <trkpt lat="44.91298" lon="1.68483">
        <ele>289.2</ele>
        <time>2022-05-24T07:12:55Z</time>
      </trkpt>
      <trkpt lat="44.91298" lon="1.68474">
        <ele>288.8</ele>
        <time>2022-05-24T07:12:56Z</time>
      </trkpt>
      <trkpt lat="44.91297" lon="1.68464">
        <ele>288.5</ele>
        <time>2022-05-24T07:12:57Z</time>
      </trkpt>
      <trkpt lat="44.91297" lon="1.68454">
        <ele>288.1</ele>
        <time>2022-05-24T07:12:58Z</time>
      </trkpt>
      <trkpt lat="44.91296" lon="1.68445">
        <ele>287.7</ele>
        <time>2022-05-24T07:12:59Z</time>
      </trkpt>
      <trkpt lat="44.91296" lon="1.68435">
        <ele>287.4</ele>
        <time>2022-05-24T07:13:00Z</time>
      </trkpt>
      <trkpt lat="44.91296" lon="1.68425">
        <ele>287</ele>
        <time>2022-05-24T07:13:01Z</time>
      </trkpt>
      <trkpt lat="44.91296" lon="1.68415">
        <ele>286.7</ele>
        <time>2022-05-24T07:13:02Z</time>
      </trkpt>
      <trkpt lat="44.91296" lon="1.68405">
        <ele>286.3</ele>
        <time>2022-05-24T07:13:03Z</time>
      </trkpt>
      <trkpt lat="44.91295" lon="1.68395">
        <ele>286</ele>
        <time>2022-05-24T07:13:04Z</time>
      </trkpt>
      <trkpt lat="44.91294" lon="1.68385">
        <ele>285.7</ele>
        <time>2022-05-24T07:13:05Z</time>
      </trkpt>
      <trkpt lat="44.91294" lon="1.68376">
        <ele>285.4</ele>
        <time>2022-05-24T07:13:06Z</time>
      </trkpt>
      <trkpt lat="44.91294" lon="1.68366">
        <ele>285.2</ele>
        <time>2022-05-24T07:13:07Z</time>
      </trkpt>
      <trkpt lat="44.91294" lon="1.68357">
        <ele>285</ele>
        <time>2022-05-24T07:13:08Z</time>
      </trkpt>
      <trkpt lat="44.91293" lon="1.68348">
        <ele>284.9</ele>
        <time>2022-05-24T07:13:09Z</time>
      </trkpt>
      <trkpt lat="44.91293" lon="1.68339">
        <ele>284.8</ele>
        <time>2022-05-24T07:13:10Z</time>
      </trkpt>
      <trkpt lat="44.91294" lon="1.6833">
        <ele>284.7</ele>
        <time>2022-05-24T07:13:11Z</time>
      </trkpt>
      <trkpt lat="44.91293" lon="1.68322">
        <ele>284.6</ele>
        <time>2022-05-24T07:13:12Z</time>
      </trkpt>
      <trkpt lat="44.91294" lon="1.68312">
        <ele>284.6</ele>
        <time>2022-05-24T07:13:13Z</time>
      </trkpt>
      <trkpt lat="44.91295" lon="1.68304">
        <ele>284.6</ele>
        <time>2022-05-24T07:13:14Z</time>
      </trkpt>
      <trkpt lat="44.91296" lon="1.68297">
        <ele>284.6</ele>
        <time>2022-05-24T07:13:15Z</time>
      </trkpt>
      <trkpt lat="44.91297" lon="1.6829">
        <ele>284.5</ele>
        <time>2022-05-24T07:13:16Z</time>
      </trkpt>
      <trkpt lat="44.91298" lon="1.68283">
        <ele>284.5</ele>
        <time>2022-05-24T07:13:17Z</time>
      </trkpt>
      <trkpt lat="44.91298" lon="1.68276">
        <ele>284.5</ele>
        <time>2022-05-24T07:13:18Z</time>
      </trkpt>
      <trkpt lat="44.91299" lon="1.6827">
        <ele>284.4</ele>
        <time>2022-05-24T07:13:19Z</time>
      </trkpt>
      <trkpt lat="44.913" lon="1.68263">
        <ele>284.4</ele>
        <time>2022-05-24T07:13:20Z</time>
      </trkpt>
      <trkpt lat="44.913" lon="1.68256">
        <ele>284.3</ele>
        <time>2022-05-24T07:13:21Z</time>
      </trkpt>
      <trkpt lat="44.91299" lon="1.68251">
        <ele>284.3</ele>
        <time>2022-05-24T07:13:22Z</time>
      </trkpt>
      <trkpt lat="44.913" lon="1.68244">
        <ele>284.3</ele>
        <time>2022-05-24T07:13:23Z</time>
      </trkpt>
      <trkpt lat="44.913" lon="1.68239">
        <ele>284.2</ele>
        <time>2022-05-24T07:13:24Z</time>
      </trkpt>
      <trkpt lat="44.913" lon="1.68233">
        <ele>284.2</ele>
        <time>2022-05-24T07:13:25Z</time>
      </trkpt>
      <trkpt lat="44.913" lon="1.68227">
        <ele>284.1</ele>
        <time>2022-05-24T07:13:26Z</time>
      </trkpt>
      <trkpt lat="44.913" lon="1.68221">
        <ele>284</ele>
        <time>2022-05-24T07:13:27Z</time>
      </trkpt>
      <trkpt lat="44.913" lon="1.68215">
        <ele>283.9</ele>
        <time>2022-05-24T07:13:28Z</time>
      </trkpt>
      <trkpt lat="44.913" lon="1.68209">
        <ele>283.8</ele>
        <time>2022-05-24T07:13:29Z</time>
      </trkpt>
      <trkpt lat="44.91299" lon="1.68202">
        <ele>283.7</ele>
        <time>2022-05-24T07:13:30Z</time>
      </trkpt>
      <trkpt lat="44.91299" lon="1.68195">
        <ele>283.6</ele>
        <time>2022-05-24T07:13:31Z</time>
      </trkpt>
      <trkpt lat="44.91299" lon="1.68186">
        <ele>283.3</ele>
        <time>2022-05-24T07:13:32Z</time>
      </trkpt>
      <trkpt lat="44.91299" lon="1.68178">
        <ele>283.1</ele>
        <time>2022-05-24T07:13:33Z</time>
      </trkpt>
      <trkpt lat="44.913" lon="1.6817">
        <ele>282.8</ele>
        <time>2022-05-24T07:13:34Z</time>
      </trkpt>
      <trkpt lat="44.913" lon="1.68162">
        <ele>282.5</ele>
        <time>2022-05-24T07:13:35Z</time>
      </trkpt>
      <trkpt lat="44.91301" lon="1.68153">
        <ele>282.1</ele>
        <time>2022-05-24T07:13:36Z</time>
      </trkpt>
      <trkpt lat="44.91301" lon="1.68144">
        <ele>281.6</ele>
        <time>2022-05-24T07:13:37Z</time>
      </trkpt>
      <trkpt lat="44.91301" lon="1.68135">
        <ele>281.1</ele>
        <time>2022-05-24T07:13:38Z</time>
      </trkpt>
      <trkpt lat="44.91302" lon="1.68125">
        <ele>280.7</ele>
        <time>2022-05-24T07:13:39Z</time>
      </trkpt>
      <trkpt lat="44.91302" lon="1.68116">
        <ele>280.2</ele>
        <time>2022-05-24T07:13:40Z</time>
      </trkpt>
      <trkpt lat="44.91302" lon="1.68107">
        <ele>279.8</ele>
        <time>2022-05-24T07:13:41Z</time>
      </trkpt>
      <trkpt lat="44.91302" lon="1.68099">
        <ele>279.4</ele>
        <time>2022-05-24T07:13:42Z</time>
      </trkpt>
      <trkpt lat="44.91302" lon="1.6809">
        <ele>279</ele>
        <time>2022-05-24T07:13:43Z</time>
      </trkpt>
      <trkpt lat="44.91303" lon="1.68081">
        <ele>278.6</ele>
        <time>2022-05-24T07:13:44Z</time>
      </trkpt>
      <trkpt lat="44.91304" lon="1.68072">
        <ele>278.2</ele>
        <time>2022-05-24T07:13:45Z</time>
      </trkpt>
      <trkpt lat="44.91305" lon="1.68063">
        <ele>277.8</ele>
        <time>2022-05-24T07:13:46Z</time>
      </trkpt>
      <trkpt lat="44.91305" lon="1.68056">
        <ele>277.4</ele>
        <time>2022-05-24T07:13:47Z</time>
      </trkpt>
      <trkpt lat="44.91306" lon="1.68048">
        <ele>277</ele>
        <time>2022-05-24T07:13:48Z</time>
      </trkpt>
      <trkpt lat="44.91307" lon="1.6804">
        <ele>276.7</ele>
        <time>2022-05-24T07:13:49Z</time>
      </trkpt>
      <trkpt lat="44.91308" lon="1.68032">
        <ele>276.3</ele>
        <time>2022-05-24T07:13:50Z</time>
      </trkpt>
      <trkpt lat="44.91309" lon="1.68024">
        <ele>276</ele>
        <time>2022-05-24T07:13:51Z</time>
      </trkpt>
      <trkpt lat="44.91309" lon="1.68017">
        <ele>275.7</ele>
        <time>2022-05-24T07:13:52Z</time>
      </trkpt>
      <trkpt lat="44.91308" lon="1.68009">
        <ele>275.3</ele>
        <time>2022-05-24T07:13:53Z</time>
      </trkpt>
      <trkpt lat="44.91305" lon="1.68001">
        <ele>274.7</ele>
        <time>2022-05-24T07:13:54Z</time>
      </trkpt>
      <trkpt lat="44.91302" lon="1.67993">
        <ele>274.2</ele>
        <time>2022-05-24T07:13:55Z</time>
      </trkpt>
      <trkpt lat="44.91299" lon="1.67984">
        <ele>273.6</ele>
        <time>2022-05-24T07:13:56Z</time>
      </trkpt>
      <trkpt lat="44.91296" lon="1.67974">
        <ele>273</ele>
        <time>2022-05-24T07:13:57Z</time>
      </trkpt>
      <trkpt lat="44.91293" lon="1.67964">
        <ele>272.5</ele>
        <time>2022-05-24T07:13:58Z</time>
      </trkpt>
      <trkpt lat="44.9129" lon="1.67954">
        <ele>272</ele>
        <time>2022-05-24T07:13:59Z</time>
      </trkpt>
      <trkpt lat="44.91287" lon="1.67944">
        <ele>271.4</ele>
        <time>2022-05-24T07:14:00Z</time>
      </trkpt>
      <trkpt lat="44.91284" lon="1.67933">
        <ele>270.8</ele>
        <time>2022-05-24T07:14:01Z</time>
      </trkpt>
      <trkpt lat="44.9128" lon="1.67923">
        <ele>270.3</ele>
        <time>2022-05-24T07:14:02Z</time>
      </trkpt>
      <trkpt lat="44.91277" lon="1.67913">
        <ele>269.7</ele>
        <time>2022-05-24T07:14:03Z</time>
      </trkpt>
      <trkpt lat="44.91274" lon="1.67902">
        <ele>269.2</ele>
        <time>2022-05-24T07:14:04Z</time>
      </trkpt>
      <trkpt lat="44.91271" lon="1.67891">
        <ele>268.7</ele>
        <time>2022-05-24T07:14:05Z</time>
      </trkpt>
      <trkpt lat="44.91267" lon="1.67882">
        <ele>268.2</ele>
        <time>2022-05-24T07:14:06Z</time>
      </trkpt>
      <trkpt lat="44.91262" lon="1.67875">
        <ele>267.9</ele>
        <time>2022-05-24T07:14:07Z</time>
      </trkpt>
      <trkpt lat="44.91256" lon="1.67869">
        <ele>267.5</ele>
        <time>2022-05-24T07:14:08Z</time>
      </trkpt>
      <trkpt lat="44.91249" lon="1.67866">
        <ele>267.2</ele>
        <time>2022-05-24T07:14:09Z</time>
      </trkpt>
      <trkpt lat="44.91242" lon="1.67863">
        <ele>266.9</ele>
        <time>2022-05-24T07:14:10Z</time>
      </trkpt>
      <trkpt lat="44.91235" lon="1.67859">
        <ele>266.6</ele>
        <time>2022-05-24T07:14:11Z</time>
      </trkpt>
      <trkpt lat="44.91228" lon="1.67855">
        <ele>266.3</ele>
        <time>2022-05-24T07:14:12Z</time>
      </trkpt>
      <trkpt lat="44.91221" lon="1.67849">
        <ele>266</ele>
        <time>2022-05-24T07:14:13Z</time>
      </trkpt>
      <trkpt lat="44.91215" lon="1.67843">
        <ele>265.6</ele>
        <time>2022-05-24T07:14:14Z</time>
      </trkpt>
      <trkpt lat="44.91209" lon="1.67836">
        <ele>265.2</ele>
        <time>2022-05-24T07:14:15Z</time>
      </trkpt>
      <trkpt lat="44.91205" lon="1.67827">
        <ele>264.8</ele>
        <time>2022-05-24T07:14:16Z</time>
      </trkpt>
      <trkpt lat="44.91202" lon="1.67816">
        <ele>264.4</ele>
        <time>2022-05-24T07:14:17Z</time>
      </trkpt>
      <trkpt lat="44.91199" lon="1.67805">
        <ele>264</ele>
        <time>2022-05-24T07:14:18Z</time>
      </trkpt>
      <trkpt lat="44.91196" lon="1.67794">
        <ele>263.6</ele>
        <time>2022-05-24T07:14:19Z</time>
      </trkpt>
      <trkpt lat="44.91193" lon="1.67784">
        <ele>263.1</ele>
        <time>2022-05-24T07:14:20Z</time>
      </trkpt>
      <trkpt lat="44.91188" lon="1.67776">
        <ele>262.8</ele>
        <time>2022-05-24T07:14:21Z</time>
      </trkpt>
      <trkpt lat="44.91184" lon="1.6777">
        <ele>262.4</ele>
        <time>2022-05-24T07:14:22Z</time>
      </trkpt>
      <trkpt lat="44.91181" lon="1.67764">
        <ele>262.1</ele>
        <time>2022-05-24T07:14:23Z</time>
      </trkpt>
      <trkpt lat="44.9118" lon="1.67758">
        <ele>261.9</ele>
        <time>2022-05-24T07:14:24Z</time>
      </trkpt>
      <trkpt lat="44.91182" lon="1.67753">
        <ele>261.6</ele>
        <time>2022-05-24T07:14:25Z</time>
      </trkpt>
      <trkpt lat="44.91185" lon="1.67749">
        <ele>261.4</ele>
        <time>2022-05-24T07:14:26Z</time>
      </trkpt>
      <trkpt lat="44.91189" lon="1.67745">
        <ele>261.2</ele>
        <time>2022-05-24T07:14:27Z</time>
      </trkpt>
      <trkpt lat="44.91195" lon="1.67743">
        <ele>260.9</ele>
        <time>2022-05-24T07:14:28Z</time>
      </trkpt>
      <trkpt lat="44.912" lon="1.67741">
        <ele>260.7</ele>
        <time>2022-05-24T07:14:29Z</time>
      </trkpt>
      <trkpt lat="44.91206" lon="1.67739">
        <ele>260.4</ele>
        <time>2022-05-24T07:14:30Z</time>
      </trkpt>
      <trkpt lat="44.91212" lon="1.67738">
        <ele>260.2</ele>
        <time>2022-05-24T07:14:31Z</time>
      </trkpt>
      <trkpt lat="44.91217" lon="1.67737">
        <ele>260</ele>
        <time>2022-05-24T07:14:32Z</time>
      </trkpt>
      <trkpt lat="44.91222" lon="1.67734">
        <ele>259.8</ele>
        <time>2022-05-24T07:14:33Z</time>
      </trkpt>
      <trkpt lat="44.91227" lon="1.67731">
        <ele>259.7</ele>
        <time>2022-05-24T07:14:34Z</time>
      </trkpt>
      <trkpt lat="44.91233" lon="1.67728">
        <ele>259.5</ele>
        <time>2022-05-24T07:14:35Z</time>
      </trkpt>
      <trkpt lat="44.91239" lon="1.67727">
        <ele>259.4</ele>
        <time>2022-05-24T07:14:36Z</time>
      </trkpt>
      <trkpt lat="44.91245" lon="1.67726">
        <ele>259.3</ele>
        <time>2022-05-24T07:14:37Z</time>
      </trkpt>
      <trkpt lat="44.91251" lon="1.67725">
        <ele>259.3</ele>
        <time>2022-05-24T07:14:38Z</time>
      </trkpt>
      <trkpt lat="44.91257" lon="1.67724">
        <ele>259.3</ele>
        <time>2022-05-24T07:14:39Z</time>
      </trkpt>
      <trkpt lat="44.91264" lon="1.67722">
        <ele>259.2</ele>
        <time>2022-05-24T07:14:40Z</time>
      </trkpt>
      <trkpt lat="44.91269" lon="1.6772">
        <ele>259.1</ele>
        <time>2022-05-24T07:14:41Z</time>
      </trkpt>
      <trkpt lat="44.91273" lon="1.67715">
        <ele>258.9</ele>
        <time>2022-05-24T07:14:42Z</time>
      </trkpt>
      <trkpt lat="44.91273" lon="1.67709">
        <ele>258.7</ele>
        <time>2022-05-24T07:14:43Z</time>
      </trkpt>
      <trkpt lat="44.91271" lon="1.67702">
        <ele>258.5</ele>
        <time>2022-05-24T07:14:44Z</time>
      </trkpt>
      <trkpt lat="44.91269" lon="1.67695">
        <ele>258.2</ele>
        <time>2022-05-24T07:14:45Z</time>
      </trkpt>
      <trkpt lat="44.91267" lon="1.67688">
        <ele>258</ele>
        <time>2022-05-24T07:14:46Z</time>
      </trkpt>
      <trkpt lat="44.91266" lon="1.67679">
        <ele>257.7</ele>
        <time>2022-05-24T07:14:47Z</time>
      </trkpt>
      <trkpt lat="44.91266" lon="1.6767">
        <ele>257.5</ele>
        <time>2022-05-24T07:14:48Z</time>
      </trkpt>
      <trkpt lat="44.91266" lon="1.6766">
        <ele>257.2</ele>
        <time>2022-05-24T07:14:49Z</time>
      </trkpt>
      <trkpt lat="44.91267" lon="1.67652">
        <ele>257</ele>
        <time>2022-05-24T07:14:50Z</time>
      </trkpt>
      <trkpt lat="44.9127" lon="1.67643">
        <ele>256.7</ele>
        <time>2022-05-24T07:14:51Z</time>
      </trkpt>
      <trkpt lat="44.91273" lon="1.67635">
        <ele>256.4</ele>
        <time>2022-05-24T07:14:52Z</time>
      </trkpt>
      <trkpt lat="44.91276" lon="1.67626">
        <ele>256</ele>
        <time>2022-05-24T07:14:53Z</time>
      </trkpt>
      <trkpt lat="44.91279" lon="1.67617">
        <ele>255.6</ele>
        <time>2022-05-24T07:14:54Z</time>
      </trkpt>
      <trkpt lat="44.91281" lon="1.67608">
        <ele>255.1</ele>
        <time>2022-05-24T07:14:55Z</time>
      </trkpt>
      <trkpt lat="44.91284" lon="1.67598">
        <ele>254.6</ele>
        <time>2022-05-24T07:14:56Z</time>
      </trkpt>
      <trkpt lat="44.91287" lon="1.67589">
        <ele>254.2</ele>
        <time>2022-05-24T07:14:57Z</time>
      </trkpt>
      <trkpt lat="44.9129" lon="1.6758">
        <ele>253.9</ele>
        <time>2022-05-24T07:14:58Z</time>
      </trkpt>
      <trkpt lat="44.91293" lon="1.67571">
        <ele>253.5</ele>
        <time>2022-05-24T07:14:59Z</time>
      </trkpt>
      <trkpt lat="44.91297" lon="1.67562">
        <ele>253.2</ele>
        <time>2022-05-24T07:15:00Z</time>
      </trkpt>
      <trkpt lat="44.91302" lon="1.67556">
        <ele>252.9</ele>
        <time>2022-05-24T07:15:01Z</time>
      </trkpt>
      <trkpt lat="44.91306" lon="1.67549">
        <ele>252.5</ele>
        <time>2022-05-24T07:15:02Z</time>
      </trkpt>
      <trkpt lat="44.91311" lon="1.67542">
        <ele>252</ele>
        <time>2022-05-24T07:15:03Z</time>
      </trkpt>
      <trkpt lat="44.91317" lon="1.67534">
        <ele>251.4</ele>
        <time>2022-05-24T07:15:04Z</time>
      </trkpt>
      <trkpt lat="44.91322" lon="1.67526">
        <ele>250.8</ele>
        <time>2022-05-24T07:15:05Z</time>
      </trkpt>
      <trkpt lat="44.91326" lon="1.6752">
        <ele>250.2</ele>
        <time>2022-05-24T07:15:06Z</time>
      </trkpt>
      <trkpt lat="44.9133" lon="1.67513">
        <ele>249.6</ele>
        <time>2022-05-24T07:15:07Z</time>
      </trkpt>
      <trkpt lat="44.91335" lon="1.67507">
        <ele>249</ele>
        <time>2022-05-24T07:15:08Z</time>
      </trkpt>
      <trkpt lat="44.91339" lon="1.675">
        <ele>248.4</ele>
        <time>2022-05-24T07:15:09Z</time>
      </trkpt>
      <trkpt lat="44.91344" lon="1.67493">
        <ele>247.7</ele>
        <time>2022-05-24T07:15:10Z</time>
      </trkpt>
      <trkpt lat="44.91347" lon="1.67486">
        <ele>247</ele>
        <time>2022-05-24T07:15:11Z</time>
      </trkpt>
      <trkpt lat="44.91351" lon="1.67478">
        <ele>246.1</ele>
        <time>2022-05-24T07:15:12Z</time>
      </trkpt>
      <trkpt lat="44.91354" lon="1.67471">
        <ele>245.2</ele>
        <time>2022-05-24T07:15:13Z</time>
      </trkpt>
      <trkpt lat="44.91357" lon="1.67463">
        <ele>244.4</ele>
        <time>2022-05-24T07:15:14Z</time>
      </trkpt>
      <trkpt lat="44.9136" lon="1.67457">
        <ele>243.7</ele>
        <time>2022-05-24T07:15:15Z</time>
      </trkpt>
      <trkpt lat="44.91365" lon="1.6745">
        <ele>242.8</ele>
        <time>2022-05-24T07:15:16Z</time>
      </trkpt>
      <trkpt lat="44.9137" lon="1.67445">
        <ele>241.8</ele>
        <time>2022-05-24T07:15:17Z</time>
      </trkpt>
      <trkpt lat="44.91376" lon="1.6744">
        <ele>240.8</ele>
        <time>2022-05-24T07:15:18Z</time>
      </trkpt>
      <trkpt lat="44.91381" lon="1.67435">
        <ele>239.9</ele>
        <time>2022-05-24T07:15:19Z</time>
      </trkpt>
      <trkpt lat="44.91387" lon="1.6743">
        <ele>238.9</ele>
        <time>2022-05-24T07:15:20Z</time>
      </trkpt>
      <trkpt lat="44.91392" lon="1.67425">
        <ele>238</ele>
        <time>2022-05-24T07:15:21Z</time>
      </trkpt>
      <trkpt lat="44.91397" lon="1.6742">
        <ele>237.2</ele>
        <time>2022-05-24T07:15:22Z</time>
      </trkpt>
      <trkpt lat="44.91401" lon="1.67415">
        <ele>236.5</ele>
        <time>2022-05-24T07:15:23Z</time>
      </trkpt>
      <trkpt lat="44.91405" lon="1.67409">
        <ele>235.7</ele>
        <time>2022-05-24T07:15:24Z</time>
      </trkpt>
      <trkpt lat="44.91409" lon="1.67403">
        <ele>235</ele>
        <time>2022-05-24T07:15:25Z</time>
      </trkpt>
      <trkpt lat="44.91414" lon="1.67399">
        <ele>234.2</ele>
        <time>2022-05-24T07:15:26Z</time>
      </trkpt>
      <trkpt lat="44.91418" lon="1.67394">
        <ele>233.5</ele>
        <time>2022-05-24T07:15:27Z</time>
      </trkpt>
      <trkpt lat="44.91422" lon="1.67389">
        <ele>232.7</ele>
        <time>2022-05-24T07:15:28Z</time>
      </trkpt>
      <trkpt lat="44.91426" lon="1.67383">
        <ele>231.9</ele>
        <time>2022-05-24T07:15:29Z</time>
      </trkpt>
      <trkpt lat="44.91431" lon="1.67378">
        <ele>231.1</ele>
        <time>2022-05-24T07:15:30Z</time>
      </trkpt>
      <trkpt lat="44.91436" lon="1.67375">
        <ele>230.3</ele>
        <time>2022-05-24T07:15:31Z</time>
      </trkpt>
      <trkpt lat="44.9144" lon="1.67371">
        <ele>229.6</ele>
        <time>2022-05-24T07:15:32Z</time>
      </trkpt>
      <trkpt lat="44.91445" lon="1.67366">
        <ele>228.8</ele>
        <time>2022-05-24T07:15:33Z</time>
      </trkpt>
      <trkpt lat="44.91449" lon="1.67361">
        <ele>228</ele>
        <time>2022-05-24T07:15:34Z</time>
      </trkpt>
      <trkpt lat="44.91454" lon="1.67356">
        <ele>227.1</ele>
        <time>2022-05-24T07:15:35Z</time>
      </trkpt>
      <trkpt lat="44.91458" lon="1.67351">
        <ele>226.4</ele>
        <time>2022-05-24T07:15:36Z</time>
      </trkpt>
      <trkpt lat="44.91462" lon="1.67347">
        <ele>225.7</ele>
        <time>2022-05-24T07:15:37Z</time>
      </trkpt>
      <trkpt lat="44.91467" lon="1.67342">
        <ele>224.9</ele>
        <time>2022-05-24T07:15:38Z</time>
      </trkpt>
      <trkpt lat="44.91472" lon="1.67337">
        <ele>224.1</ele>
        <time>2022-05-24T07:15:39Z</time>
      </trkpt>
      <trkpt lat="44.91478" lon="1.67332">
        <ele>223.2</ele>
        <time>2022-05-24T07:15:40Z</time>
      </trkpt>
      <trkpt lat="44.91482" lon="1.67328">
        <ele>222.4</ele>
        <time>2022-05-24T07:15:41Z</time>
      </trkpt>
      <trkpt lat="44.91486" lon="1.67325">
        <ele>221.8</ele>
        <time>2022-05-24T07:15:42Z</time>
      </trkpt>
      <trkpt lat="44.9149" lon="1.67321">
        <ele>221.3</ele>
        <time>2022-05-24T07:15:43Z</time>
      </trkpt>
      <trkpt lat="44.91494" lon="1.67317">
        <ele>220.5</ele>
        <time>2022-05-24T07:15:44Z</time>
      </trkpt>
      <trkpt lat="44.91498" lon="1.67313">
        <ele>219.9</ele>
        <time>2022-05-24T07:15:45Z</time>
      </trkpt>
      <trkpt lat="44.91502" lon="1.67308">
        <ele>219.3</ele>
        <time>2022-05-24T07:15:46Z</time>
      </trkpt>
      <trkpt lat="44.91505" lon="1.67301">
        <ele>218.5</ele>
        <time>2022-05-24T07:15:47Z</time>
      </trkpt>
      <trkpt lat="44.91509" lon="1.67295">
        <ele>217.9</ele>
        <time>2022-05-24T07:15:48Z</time>
      </trkpt>
      <trkpt lat="44.91513" lon="1.6729">
        <ele>217.2</ele>
        <time>2022-05-24T07:15:49Z</time>
      </trkpt>
      <trkpt lat="44.91516" lon="1.67284">
        <ele>216.6</ele>
        <time>2022-05-24T07:15:50Z</time>
      </trkpt>
      <trkpt lat="44.91519" lon="1.67277">
        <ele>215.9</ele>
        <time>2022-05-24T07:15:51Z</time>
      </trkpt>
      <trkpt lat="44.91522" lon="1.67269">
        <ele>215</ele>
        <time>2022-05-24T07:15:52Z</time>
      </trkpt>
      <trkpt lat="44.91525" lon="1.67263">
        <ele>214.3</ele>
        <time>2022-05-24T07:15:53Z</time>
      </trkpt>
      <trkpt lat="44.91528" lon="1.67257">
        <ele>213.7</ele>
        <time>2022-05-24T07:15:54Z</time>
      </trkpt>
      <trkpt lat="44.9153" lon="1.67251">
        <ele>213</ele>
        <time>2022-05-24T07:15:55Z</time>
      </trkpt>
      <trkpt lat="44.91533" lon="1.67246">
        <ele>212.4</ele>
        <time>2022-05-24T07:15:56Z</time>
      </trkpt>
      <trkpt lat="44.91536" lon="1.6724">
        <ele>211.8</ele>
        <time>2022-05-24T07:15:57Z</time>
      </trkpt>
      <trkpt lat="44.91539" lon="1.67234">
        <ele>211.1</ele>
        <time>2022-05-24T07:15:58Z</time>
      </trkpt>
      <trkpt lat="44.91543" lon="1.67226">
        <ele>210.4</ele>
        <time>2022-05-24T07:15:59Z</time>
      </trkpt>
      <trkpt lat="44.91548" lon="1.67219">
        <ele>209.7</ele>
        <time>2022-05-24T07:16:00Z</time>
      </trkpt>
      <trkpt lat="44.91552" lon="1.67212">
        <ele>209</ele>
        <time>2022-05-24T07:16:01Z</time>
      </trkpt>
      <trkpt lat="44.91556" lon="1.67205">
        <ele>208.2</ele>
        <time>2022-05-24T07:16:02Z</time>
      </trkpt>
      <trkpt lat="44.91561" lon="1.67198">
        <ele>207.4</ele>
        <time>2022-05-24T07:16:03Z</time>
      </trkpt>
      <trkpt lat="44.91566" lon="1.67191">
        <ele>206.6</ele>
        <time>2022-05-24T07:16:04Z</time>
      </trkpt>
      <trkpt lat="44.91571" lon="1.67184">
        <ele>205.8</ele>
        <time>2022-05-24T07:16:05Z</time>
      </trkpt>
      <trkpt lat="44.91575" lon="1.67177">
        <ele>204.9</ele>
        <time>2022-05-24T07:16:06Z</time>
      </trkpt>
      <trkpt lat="44.91581" lon="1.67171">
        <ele>204.1</ele>
        <time>2022-05-24T07:16:07Z</time>
      </trkpt>
      <trkpt lat="44.91586" lon="1.67164">
        <ele>203.2</ele>
        <time>2022-05-24T07:16:08Z</time>
      </trkpt>
      <trkpt lat="44.9159" lon="1.67157">
        <ele>202.4</ele>
        <time>2022-05-24T07:16:09Z</time>
      </trkpt>
      <trkpt lat="44.91595" lon="1.67149">
        <ele>201.6</ele>
        <time>2022-05-24T07:16:10Z</time>
      </trkpt>
      <trkpt lat="44.916" lon="1.67143">
        <ele>200.7</ele>
        <time>2022-05-24T07:16:11Z</time>
      </trkpt>
      <trkpt lat="44.91605" lon="1.67136">
        <ele>200</ele>
        <time>2022-05-24T07:16:12Z</time>
      </trkpt>
      <trkpt lat="44.9161" lon="1.6713">
        <ele>199.3</ele>
        <time>2022-05-24T07:16:13Z</time>
      </trkpt>
      <trkpt lat="44.91615" lon="1.67123">
        <ele>198.6</ele>
        <time>2022-05-24T07:16:14Z</time>
      </trkpt>
      <trkpt lat="44.91621" lon="1.67117">
        <ele>197.9</ele>
        <time>2022-05-24T07:16:15Z</time>
      </trkpt>
      <trkpt lat="44.91627" lon="1.6711">
        <ele>197.3</ele>
        <time>2022-05-24T07:16:16Z</time>
      </trkpt>
      <trkpt lat="44.91633" lon="1.67102">
        <ele>196.8</ele>
        <time>2022-05-24T07:16:17Z</time>
      </trkpt>
      <trkpt lat="44.9164" lon="1.67095">
        <ele>196.5</ele>
        <time>2022-05-24T07:16:18Z</time>
      </trkpt>
      <trkpt lat="44.91647" lon="1.67089">
        <ele>196.4</ele>
        <time>2022-05-24T07:16:19Z</time>
      </trkpt>
      <trkpt lat="44.91653" lon="1.67083">
        <ele>196.4</ele>
        <time>2022-05-24T07:16:20Z</time>
      </trkpt>
      <trkpt lat="44.91658" lon="1.67077">
        <ele>196.3</ele>
        <time>2022-05-24T07:16:21Z</time>
      </trkpt>
      <trkpt lat="44.91661" lon="1.6707">
        <ele>196.1</ele>
        <time>2022-05-24T07:16:22Z</time>
      </trkpt>
      <trkpt lat="44.91662" lon="1.67064">
        <ele>196</ele>
        <time>2022-05-24T07:16:23Z</time>
      </trkpt>
      <trkpt lat="44.91663" lon="1.67057">
        <ele>195.8</ele>
        <time>2022-05-24T07:16:24Z</time>
      </trkpt>
      <trkpt lat="44.91661" lon="1.67051">
        <ele>195.5</ele>
        <time>2022-05-24T07:16:25Z</time>
      </trkpt>
      <trkpt lat="44.91659" lon="1.67045">
        <ele>195.2</ele>
        <time>2022-05-24T07:16:26Z</time>
      </trkpt>
      <trkpt lat="44.91659" lon="1.67037">
        <ele>194.7</ele>
        <time>2022-05-24T07:16:27Z</time>
      </trkpt>
      <trkpt lat="44.91657" lon="1.6703">
        <ele>194.1</ele>
        <time>2022-05-24T07:16:28Z</time>
      </trkpt>
      <trkpt lat="44.91656" lon="1.67022">
        <ele>193.5</ele>
        <time>2022-05-24T07:16:29Z</time>
      </trkpt>
      <trkpt lat="44.91654" lon="1.67013">
        <ele>192.7</ele>
        <time>2022-05-24T07:16:30Z</time>
      </trkpt>
      <trkpt lat="44.91652" lon="1.67003">
        <ele>191.8</ele>
        <time>2022-05-24T07:16:31Z</time>
      </trkpt>
      <trkpt lat="44.9165" lon="1.66993">
        <ele>190.7</ele>
        <time>2022-05-24T07:16:32Z</time>
      </trkpt>
      <trkpt lat="44.91648" lon="1.66983">
        <ele>189.7</ele>
        <time>2022-05-24T07:16:33Z</time>
      </trkpt>
      <trkpt lat="44.91646" lon="1.66973">
        <ele>188.7</ele>
        <time>2022-05-24T07:16:34Z</time>
      </trkpt>
      <trkpt lat="44.91644" lon="1.66964">
        <ele>187.8</ele>
        <time>2022-05-24T07:16:35Z</time>
      </trkpt>
      <trkpt lat="44.91643" lon="1.66956">
        <ele>187</ele>
        <time>2022-05-24T07:16:36Z</time>
      </trkpt>
      <trkpt lat="44.91641" lon="1.66949">
        <ele>186.3</ele>
        <time>2022-05-24T07:16:37Z</time>
      </trkpt>
      <trkpt lat="44.9164" lon="1.66941">
        <ele>185.5</ele>
        <time>2022-05-24T07:16:38Z</time>
      </trkpt>
      <trkpt lat="44.91639" lon="1.66932">
        <ele>184.7</ele>
        <time>2022-05-24T07:16:39Z</time>
      </trkpt>
      <trkpt lat="44.91638" lon="1.66923">
        <ele>183.9</ele>
        <time>2022-05-24T07:16:40Z</time>
      </trkpt>
      <trkpt lat="44.91638" lon="1.66915">
        <ele>183.1</ele>
        <time>2022-05-24T07:16:41Z</time>
      </trkpt>
      <trkpt lat="44.91637" lon="1.66905">
        <ele>182.2</ele>
        <time>2022-05-24T07:16:42Z</time>
      </trkpt>
      <trkpt lat="44.91637" lon="1.66895">
        <ele>181.2</ele>
        <time>2022-05-24T07:16:43Z</time>
      </trkpt>
      <trkpt lat="44.91637" lon="1.66887">
        <ele>180.4</ele>
        <time>2022-05-24T07:16:44Z</time>
      </trkpt>
      <trkpt lat="44.91636" lon="1.66877">
        <ele>179.4</ele>
        <time>2022-05-24T07:16:45Z</time>
      </trkpt>
      <trkpt lat="44.91637" lon="1.66866">
        <ele>178.4</ele>
        <time>2022-05-24T07:16:46Z</time>
      </trkpt>
      <trkpt lat="44.91638" lon="1.66855">
        <ele>177.4</ele>
        <time>2022-05-24T07:16:47Z</time>
      </trkpt>
      <trkpt lat="44.91638" lon="1.66845">
        <ele>176.5</ele>
        <time>2022-05-24T07:16:48Z</time>
      </trkpt>
      <trkpt lat="44.9164" lon="1.66835">
        <ele>175.5</ele>
        <time>2022-05-24T07:16:49Z</time>
      </trkpt>
      <trkpt lat="44.91641" lon="1.66827">
        <ele>174.6</ele>
        <time>2022-05-24T07:16:50Z</time>
      </trkpt>
      <trkpt lat="44.91643" lon="1.66818">
        <ele>173.7</ele>
        <time>2022-05-24T07:16:51Z</time>
      </trkpt>
      <trkpt lat="44.91644" lon="1.66809">
        <ele>172.8</ele>
        <time>2022-05-24T07:16:52Z</time>
      </trkpt>
      <trkpt lat="44.91644" lon="1.66802">
        <ele>172.1</ele>
        <time>2022-05-24T07:16:53Z</time>
      </trkpt>
      <trkpt lat="44.91645" lon="1.66795">
        <ele>171.4</ele>
        <time>2022-05-24T07:16:54Z</time>
      </trkpt>
      <trkpt lat="44.91644" lon="1.66788">
        <ele>170.8</ele>
        <time>2022-05-24T07:16:55Z</time>
      </trkpt>
      <trkpt lat="44.91643" lon="1.66781">
        <ele>170.1</ele>
        <time>2022-05-24T07:16:56Z</time>
      </trkpt>
      <trkpt lat="44.91642" lon="1.66774">
        <ele>169.5</ele>
        <time>2022-05-24T07:16:57Z</time>
      </trkpt>
      <trkpt lat="44.91642" lon="1.66766">
        <ele>168.9</ele>
        <time>2022-05-24T07:16:58Z</time>
      </trkpt>
      <trkpt lat="44.91643" lon="1.66759">
        <ele>168.2</ele>
        <time>2022-05-24T07:16:59Z</time>
      </trkpt>
      <trkpt lat="44.91644" lon="1.6675">
        <ele>167.5</ele>
        <time>2022-05-24T07:17:00Z</time>
      </trkpt>
      <trkpt lat="44.91644" lon="1.66741">
        <ele>166.7</ele>
        <time>2022-05-24T07:17:01Z</time>
      </trkpt>
      <trkpt lat="44.91645" lon="1.66731">
        <ele>165.9</ele>
        <time>2022-05-24T07:17:02Z</time>
      </trkpt>
      <trkpt lat="44.91648" lon="1.66723">
        <ele>165.1</ele>
        <time>2022-05-24T07:17:03Z</time>
      </trkpt>
      <trkpt lat="44.91652" lon="1.66715">
        <ele>164.7</ele>
        <time>2022-05-24T07:17:04Z</time>
      </trkpt>
      <trkpt lat="44.91656" lon="1.66707">
        <ele>166</ele>
        <time>2022-05-24T07:17:05Z</time>
      </trkpt>
      <trkpt lat="44.9166" lon="1.66699">
        <ele>167.4</ele>
        <time>2022-05-24T07:17:06Z</time>
      </trkpt>
      <trkpt lat="44.91663" lon="1.66691">
        <ele>168.6</ele>
        <time>2022-05-24T07:17:07Z</time>
      </trkpt>
      <trkpt lat="44.91664" lon="1.66684">
        <ele>169.6</ele>
        <time>2022-05-24T07:17:08Z</time>
      </trkpt>
      <trkpt lat="44.91666" lon="1.66676">
        <ele>170.7</ele>
        <time>2022-05-24T07:17:09Z</time>
      </trkpt>
      <trkpt lat="44.91668" lon="1.6667">
        <ele>171.7</ele>
        <time>2022-05-24T07:17:10Z</time>
      </trkpt>
      <trkpt lat="44.91671" lon="1.66663">
        <ele>172.7</ele>
        <time>2022-05-24T07:17:11Z</time>
      </trkpt>
      <trkpt lat="44.91676" lon="1.66657">
        <ele>173</ele>
        <time>2022-05-24T07:17:12Z</time>
      </trkpt>
      <trkpt lat="44.91682" lon="1.66651">
        <ele>172.1</ele>
        <time>2022-05-24T07:17:13Z</time>
      </trkpt>
      <trkpt lat="44.91688" lon="1.66645">
        <ele>171.3</ele>
        <time>2022-05-24T07:17:14Z</time>
      </trkpt>
      <trkpt lat="44.91693" lon="1.6664">
        <ele>170.5</ele>
        <time>2022-05-24T07:17:15Z</time>
      </trkpt>
      <trkpt lat="44.91697" lon="1.66632">
        <ele>169.9</ele>
        <time>2022-05-24T07:17:16Z</time>
      </trkpt>
      <trkpt lat="44.91701" lon="1.66622">
        <ele>169.2</ele>
        <time>2022-05-24T07:17:17Z</time>
      </trkpt>
      <trkpt lat="44.91704" lon="1.66614">
        <ele>168.6</ele>
        <time>2022-05-24T07:17:18Z</time>
      </trkpt>
      <trkpt lat="44.91706" lon="1.66606">
        <ele>168.1</ele>
        <time>2022-05-24T07:17:19Z</time>
      </trkpt>
      <trkpt lat="44.91709" lon="1.66598">
        <ele>167.3</ele>
        <time>2022-05-24T07:17:20Z</time>
      </trkpt>
      <trkpt lat="44.91713" lon="1.66589">
        <ele>166.5</ele>
        <time>2022-05-24T07:17:21Z</time>
      </trkpt>
      <trkpt lat="44.91713" lon="1.66584">
        <ele>166</ele>
        <time>2022-05-24T07:17:22Z</time>
      </trkpt>
      <trkpt lat="44.91715" lon="1.66579">
        <ele>165.5</ele>
        <time>2022-05-24T07:17:23Z</time>
      </trkpt>
      <trkpt lat="44.91718" lon="1.66573">
        <ele>164.9</ele>
        <time>2022-05-24T07:17:24Z</time>
      </trkpt>
      <trkpt lat="44.91725" lon="1.66567">
        <ele>163.8</ele>
        <time>2022-05-24T07:17:25Z</time>
      </trkpt>
      <trkpt lat="44.91732" lon="1.6656">
        <ele>162.5</ele>
        <time>2022-05-24T07:17:26Z</time>
      </trkpt>
      <trkpt lat="44.91739" lon="1.66556">
        <ele>161.4</ele>
        <time>2022-05-24T07:17:27Z</time>
      </trkpt>
      <trkpt lat="44.91742" lon="1.66552">
        <ele>160.9</ele>
        <time>2022-05-24T07:17:28Z</time>
      </trkpt>
      <trkpt lat="44.91743" lon="1.66551">
        <ele>160.7</ele>
        <time>2022-05-24T07:17:29Z</time>
      </trkpt>
      <trkpt lat="44.91744" lon="1.6655">
        <ele>160.5</ele>
        <time>2022-05-24T07:17:30Z</time>
      </trkpt>
      <trkpt lat="44.91744" lon="1.66551">
        <ele>160.5</ele>
        <time>2022-05-24T07:17:31Z</time>
      </trkpt>
      <trkpt lat="44.91744" lon="1.66549">
        <ele>160.3</ele>
        <time>2022-05-24T07:17:32Z</time>
      </trkpt>
      <trkpt lat="44.91746" lon="1.66547">
        <ele>160.1</ele>
        <time>2022-05-24T07:17:33Z</time>
      </trkpt>
      <trkpt lat="44.91747" lon="1.66546">
        <ele>160</ele>
        <time>2022-05-24T07:17:34Z</time>
      </trkpt>
      <trkpt lat="44.91748" lon="1.66544">
        <ele>159.8</ele>
        <time>2022-05-24T07:17:35Z</time>
      </trkpt>
      <trkpt lat="44.91748" lon="1.66542">
        <ele>159.7</ele>
        <time>2022-05-24T07:17:36Z</time>
      </trkpt>
      <trkpt lat="44.91752" lon="1.66541">
        <ele>159.5</ele>
        <time>2022-05-24T07:17:37Z</time>
      </trkpt>
      <trkpt lat="44.91753" lon="1.6654">
        <ele>159.4</ele>
        <time>2022-05-24T07:17:38Z</time>
      </trkpt>
      <trkpt lat="44.91754" lon="1.66538">
        <ele>159.3</ele>
        <time>2022-05-24T07:17:39Z</time>
      </trkpt>
      <trkpt lat="44.91755" lon="1.66537">
        <ele>159.2</ele>
        <time>2022-05-24T07:17:40Z</time>
      </trkpt>
      <trkpt lat="44.91756" lon="1.66533">
        <ele>159</ele>
        <time>2022-05-24T07:17:41Z</time>
      </trkpt>
      <trkpt lat="44.91757" lon="1.66532">
        <ele>158.9</ele>
        <time>2022-05-24T07:17:42Z</time>
      </trkpt>
      <trkpt lat="44.91759" lon="1.66527">
        <ele>158.6</ele>
        <time>2022-05-24T07:17:43Z</time>
      </trkpt>
      <trkpt lat="44.91759" lon="1.66526">
        <ele>158.5</ele>
        <time>2022-05-24T07:17:44Z</time>
      </trkpt>
      <trkpt lat="44.91761" lon="1.66523">
        <ele>158.3</ele>
        <time>2022-05-24T07:17:45Z</time>
      </trkpt>
      <trkpt lat="44.91763" lon="1.6652">
        <ele>158.1</ele>
        <time>2022-05-24T07:17:46Z</time>
      </trkpt>
      <trkpt lat="44.91766" lon="1.66517">
        <ele>157.8</ele>
        <time>2022-05-24T07:17:47Z</time>
      </trkpt>
      <trkpt lat="44.91768" lon="1.66513">
        <ele>157.5</ele>
        <time>2022-05-24T07:17:48Z</time>
      </trkpt>
      <trkpt lat="44.9177" lon="1.66509">
        <ele>157.2</ele>
        <time>2022-05-24T07:17:49Z</time>
      </trkpt>
      <trkpt lat="44.9177" lon="1.66508">
        <ele>157.1</ele>
        <time>2022-05-24T07:17:50Z</time>
      </trkpt>
      <trkpt lat="44.9177" lon="1.66507">
        <ele>157</ele>
        <time>2022-05-24T07:17:51Z</time>
      </trkpt>
      <trkpt lat="44.91771" lon="1.66506">
        <ele>157</ele>
        <time>2022-05-24T07:17:52Z</time>
      </trkpt>
      <trkpt lat="44.91771" lon="1.66506">
        <ele>157</ele>
        <time>2022-05-24T07:17:53Z</time>
      </trkpt>
      <trkpt lat="44.91771" lon="1.66506">
        <ele>157</ele>
        <time>2022-05-24T07:17:54Z</time>
      </trkpt>
      <trkpt lat="44.91771" lon="1.66505">
        <ele>156.9</ele>
        <time>2022-05-24T07:17:55Z</time>
      </trkpt>
      <trkpt lat="44.9177" lon="1.66504">
        <ele>156.9</ele>
        <time>2022-05-24T07:17:56Z</time>
      </trkpt>
      <trkpt lat="44.9177" lon="1.66503">
        <ele>156.8</ele>
        <time>2022-05-24T07:17:57Z</time>
      </trkpt>
      <trkpt lat="44.91769" lon="1.66502">
        <ele>156.7</ele>
        <time>2022-05-24T07:17:58Z</time>
      </trkpt>
      <trkpt lat="44.91765" lon="1.66499">
        <ele>156.4</ele>
        <time>2022-05-24T07:17:59Z</time>
      </trkpt>
      <trkpt lat="44.91764" lon="1.66498">
        <ele>156.3</ele>
        <time>2022-05-24T07:18:00Z</time>
      </trkpt>
      <trkpt lat="44.91763" lon="1.66495">
        <ele>156.1</ele>
        <time>2022-05-24T07:18:01Z</time>
      </trkpt>
      <trkpt lat="44.91762" lon="1.66492">
        <ele>156</ele>
        <time>2022-05-24T07:18:02Z</time>
      </trkpt>
      <trkpt lat="44.91763" lon="1.6649">
        <ele>155.9</ele>
        <time>2022-05-24T07:18:03Z</time>
      </trkpt>
      <trkpt lat="44.91763" lon="1.66489">
        <ele>155.8</ele>
        <time>2022-05-24T07:18:04Z</time>
      </trkpt>
      <trkpt lat="44.91765" lon="1.66488">
        <ele>155.7</ele>
        <time>2022-05-24T07:18:05Z</time>
      </trkpt>
      <trkpt lat="44.91768" lon="1.66486">
        <ele>155.5</ele>
        <time>2022-05-24T07:18:06Z</time>
      </trkpt>
      <trkpt lat="44.9177" lon="1.66485">
        <ele>155.4</ele>
        <time>2022-05-24T07:18:07Z</time>
      </trkpt>
      <trkpt lat="44.91772" lon="1.66482">
        <ele>155.3</ele>
        <time>2022-05-24T07:18:08Z</time>
      </trkpt>
      <trkpt lat="44.91775" lon="1.66479">
        <ele>155.1</ele>
        <time>2022-05-24T07:18:09Z</time>
      </trkpt>
      <trkpt lat="44.91778" lon="1.66475">
        <ele>155</ele>
        <time>2022-05-24T07:18:10Z</time>
      </trkpt>
      <trkpt lat="44.91781" lon="1.66471">
        <ele>154.9</ele>
        <time>2022-05-24T07:18:11Z</time>
      </trkpt>
      <trkpt lat="44.91784" lon="1.66468">
        <ele>154.7</ele>
        <time>2022-05-24T07:18:12Z</time>
      </trkpt>
      <trkpt lat="44.91788" lon="1.66464">
        <ele>154.6</ele>
        <time>2022-05-24T07:18:13Z</time>
      </trkpt>
      <trkpt lat="44.91794" lon="1.66458">
        <ele>154.3</ele>
        <time>2022-05-24T07:18:14Z</time>
      </trkpt>
      <trkpt lat="44.91799" lon="1.66454">
        <ele>153.9</ele>
        <time>2022-05-24T07:18:15Z</time>
      </trkpt>
      <trkpt lat="44.91801" lon="1.6645">
        <ele>153.7</ele>
        <time>2022-05-24T07:18:16Z</time>
      </trkpt>
      <trkpt lat="44.91801" lon="1.66448">
        <ele>153.6</ele>
        <time>2022-05-24T07:18:17Z</time>
      </trkpt>
      <trkpt lat="44.918" lon="1.66446">
        <ele>153.5</ele>
        <time>2022-05-24T07:18:18Z</time>
      </trkpt>
      <trkpt lat="44.91801" lon="1.66441">
        <ele>153.3</ele>
        <time>2022-05-24T07:18:19Z</time>
      </trkpt>
      <trkpt lat="44.91801" lon="1.6644">
        <ele>153.2</ele>
        <time>2022-05-24T07:18:20Z</time>
      </trkpt>
      <trkpt lat="44.91801" lon="1.66435">
        <ele>153</ele>
        <time>2022-05-24T07:18:21Z</time>
      </trkpt>
      <trkpt lat="44.91801" lon="1.66433">
        <ele>153</ele>
        <time>2022-05-24T07:18:22Z</time>
      </trkpt>
      <trkpt lat="44.918" lon="1.66431">
        <ele>152.9</ele>
        <time>2022-05-24T07:18:23Z</time>
      </trkpt>
      <trkpt lat="44.91801" lon="1.66429">
        <ele>152.8</ele>
        <time>2022-05-24T07:18:24Z</time>
      </trkpt>
      <trkpt lat="44.91802" lon="1.66425">
        <ele>152.7</ele>
        <time>2022-05-24T07:18:25Z</time>
      </trkpt>
      <trkpt lat="44.91803" lon="1.66423">
        <ele>152.6</ele>
        <time>2022-05-24T07:18:26Z</time>
      </trkpt>
      <trkpt lat="44.91805" lon="1.66417">
        <ele>152.5</ele>
        <time>2022-05-24T07:18:27Z</time>
      </trkpt>
      <trkpt lat="44.91807" lon="1.66411">
        <ele>152.3</ele>
        <time>2022-05-24T07:18:28Z</time>
      </trkpt>
      <trkpt lat="44.91808" lon="1.66406">
        <ele>152.3</ele>
        <time>2022-05-24T07:18:29Z</time>
      </trkpt>
      <trkpt lat="44.9181" lon="1.664">
        <ele>152.3</ele>
        <time>2022-05-24T07:18:30Z</time>
      </trkpt>
      <trkpt lat="44.91811" lon="1.66395">
        <ele>152.3</ele>
        <time>2022-05-24T07:18:31Z</time>
      </trkpt>
      <trkpt lat="44.91812" lon="1.66389">
        <ele>152.4</ele>
        <time>2022-05-24T07:18:32Z</time>
      </trkpt>
      <trkpt lat="44.91814" lon="1.66383">
        <ele>152.6</ele>
        <time>2022-05-24T07:18:33Z</time>
      </trkpt>
      <trkpt lat="44.91816" lon="1.66378">
        <ele>152.9</ele>
        <time>2022-05-24T07:18:34Z</time>
      </trkpt>
      <trkpt lat="44.91816" lon="1.66373">
        <ele>153.1</ele>
        <time>2022-05-24T07:18:35Z</time>
      </trkpt>
      <trkpt lat="44.91817" lon="1.66368">
        <ele>153.3</ele>
        <time>2022-05-24T07:18:36Z</time>
      </trkpt>
      <trkpt lat="44.91817" lon="1.66364">
        <ele>153.6</ele>
        <time>2022-05-24T07:18:37Z</time>
      </trkpt>
      <trkpt lat="44.91818" lon="1.6636">
        <ele>153.8</ele>
        <time>2022-05-24T07:18:38Z</time>
      </trkpt>
      <trkpt lat="44.91819" lon="1.66356">
        <ele>154</ele>
        <time>2022-05-24T07:18:39Z</time>
      </trkpt>
      <trkpt lat="44.91819" lon="1.66355">
        <ele>154.1</ele>
        <time>2022-05-24T07:18:40Z</time>
      </trkpt>
      <trkpt lat="44.91819" lon="1.6635">
        <ele>154.4</ele>
        <time>2022-05-24T07:18:41Z</time>
      </trkpt>
      <trkpt lat="44.91819" lon="1.66348">
        <ele>154.5</ele>
        <time>2022-05-24T07:18:42Z</time>
      </trkpt>
      <trkpt lat="44.91818" lon="1.66343">
        <ele>154.8</ele>
        <time>2022-05-24T07:18:43Z</time>
      </trkpt>
      <trkpt lat="44.91818" lon="1.66341">
        <ele>154.9</ele>
        <time>2022-05-24T07:18:44Z</time>
      </trkpt>
      <trkpt lat="44.91818" lon="1.66337">
        <ele>155.3</ele>
        <time>2022-05-24T07:18:45Z</time>
      </trkpt>
      <trkpt lat="44.91818" lon="1.66335">
        <ele>155.4</ele>
        <time>2022-05-24T07:18:46Z</time>
      </trkpt>
      <trkpt lat="44.91819" lon="1.6633">
        <ele>155.9</ele>
        <time>2022-05-24T07:18:47Z</time>
      </trkpt>
      <trkpt lat="44.9182" lon="1.66328">
        <ele>156.1</ele>
        <time>2022-05-24T07:18:48Z</time>
      </trkpt>
      <trkpt lat="44.91821" lon="1.66325">
        <ele>156.4</ele>
        <time>2022-05-24T07:18:49Z</time>
      </trkpt>
      <trkpt lat="44.91821" lon="1.66323">
        <ele>156.6</ele>
        <time>2022-05-24T07:18:50Z</time>
      </trkpt>
      <trkpt lat="44.91821" lon="1.66321">
        <ele>156.8</ele>
        <time>2022-05-24T07:18:51Z</time>
      </trkpt>
      <trkpt lat="44.91822" lon="1.66319">
        <ele>157.1</ele>
        <time>2022-05-24T07:18:52Z</time>
      </trkpt>
      <trkpt lat="44.91822" lon="1.66313">
        <ele>157.6</ele>
        <time>2022-05-24T07:18:53Z</time>
      </trkpt>
      <trkpt lat="44.91823" lon="1.66312">
        <ele>157.8</ele>
        <time>2022-05-24T07:18:54Z</time>
      </trkpt>
      <trkpt lat="44.91824" lon="1.66306">
        <ele>158.4</ele>
        <time>2022-05-24T07:18:55Z</time>
      </trkpt>
      <trkpt lat="44.91824" lon="1.66304">
        <ele>158.7</ele>
        <time>2022-05-24T07:18:56Z</time>
      </trkpt>
      <trkpt lat="44.91825" lon="1.663">
        <ele>159.3</ele>
        <time>2022-05-24T07:18:57Z</time>
      </trkpt>
      <trkpt lat="44.91825" lon="1.66298">
        <ele>159.5</ele>
        <time>2022-05-24T07:18:58Z</time>
      </trkpt>
      <trkpt lat="44.91826" lon="1.66293">
        <ele>160.2</ele>
        <time>2022-05-24T07:18:59Z</time>
      </trkpt>
      <trkpt lat="44.91827" lon="1.66291">
        <ele>160.5</ele>
        <time>2022-05-24T07:19:00Z</time>
      </trkpt>
      <trkpt lat="44.91828" lon="1.66287">
        <ele>161.1</ele>
        <time>2022-05-24T07:19:01Z</time>
      </trkpt>
      <trkpt lat="44.91828" lon="1.66286">
        <ele>161.3</ele>
        <time>2022-05-24T07:19:02Z</time>
      </trkpt>
      <trkpt lat="44.91829" lon="1.66283">
        <ele>161.9</ele>
        <time>2022-05-24T07:19:03Z</time>
      </trkpt>
      <trkpt lat="44.9183" lon="1.66281">
        <ele>162.2</ele>
        <time>2022-05-24T07:19:04Z</time>
      </trkpt>
      <trkpt lat="44.91832" lon="1.66277">
        <ele>162.9</ele>
        <time>2022-05-24T07:19:05Z</time>
      </trkpt>
      <trkpt lat="44.91832" lon="1.66276">
        <ele>163.1</ele>
        <time>2022-05-24T07:19:06Z</time>
      </trkpt>
      <trkpt lat="44.91834" lon="1.66272">
        <ele>163.6</ele>
        <time>2022-05-24T07:19:07Z</time>
      </trkpt>
      <trkpt lat="44.91834" lon="1.6627">
        <ele>163.8</ele>
        <time>2022-05-24T07:19:08Z</time>
      </trkpt>
      <trkpt lat="44.91835" lon="1.66266">
        <ele>164.3</ele>
        <time>2022-05-24T07:19:09Z</time>
      </trkpt>
      <trkpt lat="44.91836" lon="1.66265">
        <ele>164.4</ele>
        <time>2022-05-24T07:19:10Z</time>
      </trkpt>
      <trkpt lat="44.91836" lon="1.66261">
        <ele>164.8</ele>
        <time>2022-05-24T07:19:11Z</time>
      </trkpt>
      <trkpt lat="44.91836" lon="1.66259">
        <ele>165</ele>
        <time>2022-05-24T07:19:12Z</time>
      </trkpt>
      <trkpt lat="44.91837" lon="1.66255">
        <ele>165.4</ele>
        <time>2022-05-24T07:19:13Z</time>
      </trkpt>
      <trkpt lat="44.91837" lon="1.66253">
        <ele>165.5</ele>
        <time>2022-05-24T07:19:14Z</time>
      </trkpt>
      <trkpt lat="44.91838" lon="1.66248">
        <ele>165.9</ele>
        <time>2022-05-24T07:19:15Z</time>
      </trkpt>
      <trkpt lat="44.91838" lon="1.66247">
        <ele>166</ele>
        <time>2022-05-24T07:19:16Z</time>
      </trkpt>
      <trkpt lat="44.91838" lon="1.66245">
        <ele>166.2</ele>
        <time>2022-05-24T07:19:17Z</time>
      </trkpt>
      <trkpt lat="44.91839" lon="1.66243">
        <ele>166.3</ele>
        <time>2022-05-24T07:19:18Z</time>
      </trkpt>
      <trkpt lat="44.91838" lon="1.6624">
        <ele>166.4</ele>
        <time>2022-05-24T07:19:19Z</time>
      </trkpt>
      <trkpt lat="44.91838" lon="1.66238">
        <ele>166.6</ele>
        <time>2022-05-24T07:19:20Z</time>
      </trkpt>
      <trkpt lat="44.91837" lon="1.66235">
        <ele>166.7</ele>
        <time>2022-05-24T07:19:21Z</time>
      </trkpt>
      <trkpt lat="44.91837" lon="1.66234">
        <ele>166.8</ele>
        <time>2022-05-24T07:19:22Z</time>
      </trkpt>
      <trkpt lat="44.91836" lon="1.66232">
        <ele>166.9</ele>
        <time>2022-05-24T07:19:23Z</time>
      </trkpt>
      <trkpt lat="44.91834" lon="1.66231">
        <ele>167</ele>
        <time>2022-05-24T07:19:24Z</time>
      </trkpt>
      <trkpt lat="44.91832" lon="1.66228">
        <ele>167.1</ele>
        <time>2022-05-24T07:19:25Z</time>
      </trkpt>
      <trkpt lat="44.91831" lon="1.66228">
        <ele>167.2</ele>
        <time>2022-05-24T07:19:26Z</time>
      </trkpt>
      <trkpt lat="44.91828" lon="1.66226">
        <ele>167.3</ele>
        <time>2022-05-24T07:19:27Z</time>
      </trkpt>
      <trkpt lat="44.91827" lon="1.66225">
        <ele>167.3</ele>
        <time>2022-05-24T07:19:28Z</time>
      </trkpt>
      <trkpt lat="44.91826" lon="1.66225">
        <ele>167.3</ele>
        <time>2022-05-24T07:19:29Z</time>
      </trkpt>
      <trkpt lat="44.91825" lon="1.66225">
        <ele>167.4</ele>
        <time>2022-05-24T07:19:30Z</time>
      </trkpt>
      <trkpt lat="44.91822" lon="1.66225">
        <ele>167.4</ele>
        <time>2022-05-24T07:19:31Z</time>
      </trkpt>
      <trkpt lat="44.91821" lon="1.66225">
        <ele>167.4</ele>
        <time>2022-05-24T07:19:32Z</time>
      </trkpt>
      <trkpt lat="44.91818" lon="1.66224">
        <ele>167.4</ele>
        <time>2022-05-24T07:19:33Z</time>
      </trkpt>
      <trkpt lat="44.91815" lon="1.66224">
        <ele>167.4</ele>
        <time>2022-05-24T07:19:34Z</time>
      </trkpt>
      <trkpt lat="44.91812" lon="1.66222">
        <ele>167.3</ele>
        <time>2022-05-24T07:19:35Z</time>
      </trkpt>
      <trkpt lat="44.91809" lon="1.66221">
        <ele>167.2</ele>
        <time>2022-05-24T07:19:36Z</time>
      </trkpt>
      <trkpt lat="44.91806" lon="1.6622">
        <ele>167.1</ele>
        <time>2022-05-24T07:19:37Z</time>
      </trkpt>
      <trkpt lat="44.91803" lon="1.66218">
        <ele>166.9</ele>
        <time>2022-05-24T07:19:38Z</time>
      </trkpt>
      <trkpt lat="44.91799" lon="1.66217">
        <ele>166.7</ele>
        <time>2022-05-24T07:19:39Z</time>
      </trkpt>
      <trkpt lat="44.91795" lon="1.66215">
        <ele>166.5</ele>
        <time>2022-05-24T07:19:40Z</time>
      </trkpt>
      <trkpt lat="44.91791" lon="1.66213">
        <ele>166.2</ele>
        <time>2022-05-24T07:19:41Z</time>
      </trkpt>
      <trkpt lat="44.91786" lon="1.66211">
        <ele>165.8</ele>
        <time>2022-05-24T07:19:42Z</time>
      </trkpt>
      <trkpt lat="44.91782" lon="1.6621">
        <ele>165.5</ele>
        <time>2022-05-24T07:19:43Z</time>
      </trkpt>
      <trkpt lat="44.91776" lon="1.66207">
        <ele>165</ele>
        <time>2022-05-24T07:19:44Z</time>
      </trkpt>
      <trkpt lat="44.91767" lon="1.66201">
        <ele>164.4</ele>
        <time>2022-05-24T07:19:46Z</time>
      </trkpt>
      <trkpt lat="44.91763" lon="1.66198">
        <ele>164</ele>
        <time>2022-05-24T07:19:47Z</time>
      </trkpt>
      <trkpt lat="44.91759" lon="1.66193">
        <ele>163.6</ele>
        <time>2022-05-24T07:19:48Z</time>
      </trkpt>
      <trkpt lat="44.91757" lon="1.66188">
        <ele>163.2</ele>
        <time>2022-05-24T07:19:49Z</time>
      </trkpt>
      <trkpt lat="44.91754" lon="1.66182">
        <ele>162.8</ele>
        <time>2022-05-24T07:19:50Z</time>
      </trkpt>
      <trkpt lat="44.91751" lon="1.66177">
        <ele>162.4</ele>
        <time>2022-05-24T07:19:51Z</time>
      </trkpt>
      <trkpt lat="44.91749" lon="1.66171">
        <ele>162.1</ele>
        <time>2022-05-24T07:19:52Z</time>
      </trkpt>
      <trkpt lat="44.91747" lon="1.66166">
        <ele>161.8</ele>
        <time>2022-05-24T07:19:53Z</time>
      </trkpt>
      <trkpt lat="44.91745" lon="1.66162">
        <ele>161.4</ele>
        <time>2022-05-24T07:19:54Z</time>
      </trkpt>
      <trkpt lat="44.91742" lon="1.66158">
        <ele>161.1</ele>
        <time>2022-05-24T07:19:55Z</time>
      </trkpt>
      <trkpt lat="44.91739" lon="1.66153">
        <ele>160.7</ele>
        <time>2022-05-24T07:19:56Z</time>
      </trkpt>
      <trkpt lat="44.91736" lon="1.66148">
        <ele>160.2</ele>
        <time>2022-05-24T07:19:57Z</time>
      </trkpt>
      <trkpt lat="44.91733" lon="1.66143">
        <ele>159.7</ele>
        <time>2022-05-24T07:19:58Z</time>
      </trkpt>
      <trkpt lat="44.91729" lon="1.66137">
        <ele>159.2</ele>
        <time>2022-05-24T07:19:59Z</time>
      </trkpt>
      <trkpt lat="44.91727" lon="1.66131">
        <ele>158.8</ele>
        <time>2022-05-24T07:20:00Z</time>
      </trkpt>
      <trkpt lat="44.91726" lon="1.66125">
        <ele>158.4</ele>
        <time>2022-05-24T07:20:01Z</time>
      </trkpt>
      <trkpt lat="44.91723" lon="1.6612">
        <ele>158</ele>
        <time>2022-05-24T07:20:02Z</time>
      </trkpt>
      <trkpt lat="44.91721" lon="1.66114">
        <ele>157.6</ele>
        <time>2022-05-24T07:20:03Z</time>
      </trkpt>
      <trkpt lat="44.91719" lon="1.66109">
        <ele>157.2</ele>
        <time>2022-05-24T07:20:04Z</time>
      </trkpt>
      <trkpt lat="44.91717" lon="1.66103">
        <ele>156.8</ele>
        <time>2022-05-24T07:20:05Z</time>
      </trkpt>
      <trkpt lat="44.91714" lon="1.66098">
        <ele>156.4</ele>
        <time>2022-05-24T07:20:06Z</time>
      </trkpt>
      <trkpt lat="44.91712" lon="1.66092">
        <ele>156</ele>
        <time>2022-05-24T07:20:07Z</time>
      </trkpt>
      <trkpt lat="44.9171" lon="1.66087">
        <ele>155.6</ele>
        <time>2022-05-24T07:20:08Z</time>
      </trkpt>
      <trkpt lat="44.91708" lon="1.66083">
        <ele>155.5</ele>
        <time>2022-05-24T07:20:09Z</time>
      </trkpt>
      <trkpt lat="44.91705" lon="1.66079">
        <ele>155.4</ele>
        <time>2022-05-24T07:20:10Z</time>
      </trkpt>
      <trkpt lat="44.91701" lon="1.66076">
        <ele>155.3</ele>
        <time>2022-05-24T07:20:11Z</time>
      </trkpt>
      <trkpt lat="44.91698" lon="1.66073">
        <ele>155.2</ele>
        <time>2022-05-24T07:20:12Z</time>
      </trkpt>
      <trkpt lat="44.91694" lon="1.66069">
        <ele>155.2</ele>
        <time>2022-05-24T07:20:13Z</time>
      </trkpt>
      <trkpt lat="44.91691" lon="1.66064">
        <ele>155.2</ele>
        <time>2022-05-24T07:20:14Z</time>
      </trkpt>
      <trkpt lat="44.91688" lon="1.66058">
        <ele>155.2</ele>
        <time>2022-05-24T07:20:15Z</time>
      </trkpt>
      <trkpt lat="44.91685" lon="1.66052">
        <ele>155.2</ele>
        <time>2022-05-24T07:20:16Z</time>
      </trkpt>
      <trkpt lat="44.91683" lon="1.66046">
        <ele>155.3</ele>
        <time>2022-05-24T07:20:17Z</time>
      </trkpt>
      <trkpt lat="44.9168" lon="1.66039">
        <ele>155.4</ele>
        <time>2022-05-24T07:20:18Z</time>
      </trkpt>
      <trkpt lat="44.91678" lon="1.66033">
        <ele>155.6</ele>
        <time>2022-05-24T07:20:19Z</time>
      </trkpt>
      <trkpt lat="44.91676" lon="1.66026">
        <ele>155.8</ele>
        <time>2022-05-24T07:20:20Z</time>
      </trkpt>
      <trkpt lat="44.91674" lon="1.6602">
        <ele>156.1</ele>
        <time>2022-05-24T07:20:21Z</time>
      </trkpt>
      <trkpt lat="44.91672" lon="1.66015">
        <ele>156.4</ele>
        <time>2022-05-24T07:20:22Z</time>
      </trkpt>
      <trkpt lat="44.9167" lon="1.6601">
        <ele>156.7</ele>
        <time>2022-05-24T07:20:23Z</time>
      </trkpt>
      <trkpt lat="44.91668" lon="1.66005">
        <ele>157.1</ele>
        <time>2022-05-24T07:20:24Z</time>
      </trkpt>
      <trkpt lat="44.91666" lon="1.66">
        <ele>157.5</ele>
        <time>2022-05-24T07:20:25Z</time>
      </trkpt>
      <trkpt lat="44.91666" lon="1.65993">
        <ele>158</ele>
        <time>2022-05-24T07:20:26Z</time>
      </trkpt>
      <trkpt lat="44.91665" lon="1.65988">
        <ele>158.5</ele>
        <time>2022-05-24T07:20:27Z</time>
      </trkpt>
      <trkpt lat="44.91665" lon="1.65983">
        <ele>158.9</ele>
        <time>2022-05-24T07:20:28Z</time>
      </trkpt>
      <trkpt lat="44.91665" lon="1.65979">
        <ele>159.3</ele>
        <time>2022-05-24T07:20:29Z</time>
      </trkpt>
      <trkpt lat="44.91664" lon="1.65975">
        <ele>159.7</ele>
        <time>2022-05-24T07:20:30Z</time>
      </trkpt>
      <trkpt lat="44.91663" lon="1.6597">
        <ele>160.2</ele>
        <time>2022-05-24T07:20:31Z</time>
      </trkpt>
      <trkpt lat="44.91662" lon="1.65969">
        <ele>160.2</ele>
        <time>2022-05-24T07:20:32Z</time>
      </trkpt>
      <trkpt lat="44.91658" lon="1.65967">
        <ele>160.6</ele>
        <time>2022-05-24T07:20:33Z</time>
      </trkpt>
      <trkpt lat="44.91657" lon="1.65967">
        <ele>160.7</ele>
        <time>2022-05-24T07:20:34Z</time>
      </trkpt>
      <trkpt lat="44.91655" lon="1.65969">
        <ele>161</ele>
        <time>2022-05-24T07:20:35Z</time>
      </trkpt>
      <trkpt lat="44.91652" lon="1.65972">
        <ele>161.4</ele>
        <time>2022-05-24T07:20:36Z</time>
      </trkpt>
      <trkpt lat="44.91651" lon="1.65977">
        <ele>161.7</ele>
        <time>2022-05-24T07:20:37Z</time>
      </trkpt>
      <trkpt lat="44.91649" lon="1.65982">
        <ele>162.1</ele>
        <time>2022-05-24T07:20:38Z</time>
      </trkpt>
      <trkpt lat="44.91647" lon="1.65986">
        <ele>162.4</ele>
        <time>2022-05-24T07:20:39Z</time>
      </trkpt>
      <trkpt lat="44.91646" lon="1.6599">
        <ele>162.8</ele>
        <time>2022-05-24T07:20:40Z</time>
      </trkpt>
      <trkpt lat="44.91644" lon="1.65995">
        <ele>163.1</ele>
        <time>2022-05-24T07:20:41Z</time>
      </trkpt>
      <trkpt lat="44.91642" lon="1.65999">
        <ele>163.4</ele>
        <time>2022-05-24T07:20:42Z</time>
      </trkpt>
      <trkpt lat="44.91641" lon="1.66004">
        <ele>163.6</ele>
        <time>2022-05-24T07:20:43Z</time>
      </trkpt>
      <trkpt lat="44.91639" lon="1.66008">
        <ele>163.9</ele>
        <time>2022-05-24T07:20:44Z</time>
      </trkpt>
      <trkpt lat="44.91637" lon="1.66012">
        <ele>164.2</ele>
        <time>2022-05-24T07:20:45Z</time>
      </trkpt>
      <trkpt lat="44.91635" lon="1.66016">
        <ele>164.5</ele>
        <time>2022-05-24T07:20:46Z</time>
      </trkpt>
      <trkpt lat="44.91633" lon="1.6602">
        <ele>164.8</ele>
        <time>2022-05-24T07:20:47Z</time>
      </trkpt>
      <trkpt lat="44.91632" lon="1.66023">
        <ele>165.1</ele>
        <time>2022-05-24T07:20:48Z</time>
      </trkpt>
      <trkpt lat="44.9163" lon="1.66027">
        <ele>165.4</ele>
        <time>2022-05-24T07:20:49Z</time>
      </trkpt>
      <trkpt lat="44.91628" lon="1.6603">
        <ele>165.7</ele>
        <time>2022-05-24T07:20:50Z</time>
      </trkpt>
      <trkpt lat="44.91626" lon="1.66034">
        <ele>166</ele>
        <time>2022-05-24T07:20:51Z</time>
      </trkpt>
      <trkpt lat="44.91625" lon="1.66037">
        <ele>166.3</ele>
        <time>2022-05-24T07:20:52Z</time>
      </trkpt>
      <trkpt lat="44.91622" lon="1.66042">
        <ele>166.7</ele>
        <time>2022-05-24T07:20:53Z</time>
      </trkpt>
      <trkpt lat="44.91622" lon="1.66043">
        <ele>166.9</ele>
        <time>2022-05-24T07:20:54Z</time>
      </trkpt>
      <trkpt lat="44.9162" lon="1.66047">
        <ele>167.3</ele>
        <time>2022-05-24T07:20:55Z</time>
      </trkpt>
      <trkpt lat="44.91619" lon="1.66049">
        <ele>167.5</ele>
        <time>2022-05-24T07:20:56Z</time>
      </trkpt>
      <trkpt lat="44.91617" lon="1.66052">
        <ele>167.8</ele>
        <time>2022-05-24T07:20:57Z</time>
      </trkpt>
      <trkpt lat="44.91615" lon="1.66055">
        <ele>168.3</ele>
        <time>2022-05-24T07:20:58Z</time>
      </trkpt>
      <trkpt lat="44.91614" lon="1.66056">
        <ele>168.4</ele>
        <time>2022-05-24T07:20:59Z</time>
      </trkpt>
      <trkpt lat="44.91612" lon="1.66059">
        <ele>168.8</ele>
        <time>2022-05-24T07:21:00Z</time>
      </trkpt>
      <trkpt lat="44.91611" lon="1.6606">
        <ele>168.9</ele>
        <time>2022-05-24T07:21:01Z</time>
      </trkpt>
      <trkpt lat="44.9161" lon="1.66064">
        <ele>169.3</ele>
        <time>2022-05-24T07:21:02Z</time>
      </trkpt>
      <trkpt lat="44.91609" lon="1.66065">
        <ele>169.4</ele>
        <time>2022-05-24T07:21:03Z</time>
      </trkpt>
      <trkpt lat="44.91608" lon="1.66069">
        <ele>169.8</ele>
        <time>2022-05-24T07:21:04Z</time>
      </trkpt>
      <trkpt lat="44.91607" lon="1.6607">
        <ele>169.9</ele>
        <time>2022-05-24T07:21:05Z</time>
      </trkpt>
      <trkpt lat="44.91606" lon="1.66075">
        <ele>170.2</ele>
        <time>2022-05-24T07:21:06Z</time>
      </trkpt>
      <trkpt lat="44.91606" lon="1.66077">
        <ele>170.3</ele>
        <time>2022-05-24T07:21:07Z</time>
      </trkpt>
      <trkpt lat="44.91606" lon="1.66082">
        <ele>170.6</ele>
        <time>2022-05-24T07:21:08Z</time>
      </trkpt>
      <trkpt lat="44.91605" lon="1.66084">
        <ele>170.7</ele>
        <time>2022-05-24T07:21:09Z</time>
      </trkpt>
      <trkpt lat="44.91604" lon="1.66089">
        <ele>170.7</ele>
        <time>2022-05-24T07:21:10Z</time>
      </trkpt>
      <trkpt lat="44.91604" lon="1.66091">
        <ele>170.6</ele>
        <time>2022-05-24T07:21:11Z</time>
      </trkpt>
      <trkpt lat="44.91604" lon="1.66095">
        <ele>170.6</ele>
        <time>2022-05-24T07:21:12Z</time>
      </trkpt>
      <trkpt lat="44.91603" lon="1.66097">
        <ele>170.6</ele>
        <time>2022-05-24T07:21:13Z</time>
      </trkpt>
      <trkpt lat="44.91603" lon="1.66102">
        <ele>171.7</ele>
        <time>2022-05-24T07:21:14Z</time>
      </trkpt>
      <trkpt lat="44.91603" lon="1.66104">
        <ele>171.7</ele>
        <time>2022-05-24T07:21:15Z</time>
      </trkpt>
      <trkpt lat="44.91602" lon="1.66109">
        <ele>171.7</ele>
        <time>2022-05-24T07:21:16Z</time>
      </trkpt>
      <trkpt lat="44.91601" lon="1.6611">
        <ele>171.7</ele>
        <time>2022-05-24T07:21:17Z</time>
      </trkpt>
      <trkpt lat="44.916" lon="1.66115">
        <ele>171.7</ele>
        <time>2022-05-24T07:21:18Z</time>
      </trkpt>
      <trkpt lat="44.916" lon="1.66116">
        <ele>171.7</ele>
        <time>2022-05-24T07:21:19Z</time>
      </trkpt>
      <trkpt lat="44.91599" lon="1.6612">
        <ele>172.6</ele>
        <time>2022-05-24T07:21:20Z</time>
      </trkpt>
      <trkpt lat="44.91598" lon="1.66121">
        <ele>172.6</ele>
        <time>2022-05-24T07:21:21Z</time>
      </trkpt>
      <trkpt lat="44.91597" lon="1.66125">
        <ele>172.6</ele>
        <time>2022-05-24T07:21:22Z</time>
      </trkpt>
      <trkpt lat="44.91596" lon="1.66126">
        <ele>172.6</ele>
        <time>2022-05-24T07:21:23Z</time>
      </trkpt>
      <trkpt lat="44.91594" lon="1.66129">
        <ele>173.5</ele>
        <time>2022-05-24T07:21:24Z</time>
      </trkpt>
      <trkpt lat="44.91593" lon="1.6613">
        <ele>173.5</ele>
        <time>2022-05-24T07:21:25Z</time>
      </trkpt>
      <trkpt lat="44.91592" lon="1.66131">
        <ele>173.5</ele>
        <time>2022-05-24T07:21:26Z</time>
      </trkpt>
      <trkpt lat="44.91591" lon="1.66133">
        <ele>173.5</ele>
        <time>2022-05-24T07:21:27Z</time>
      </trkpt>
      <trkpt lat="44.9159" lon="1.66135">
        <ele>174.3</ele>
        <time>2022-05-24T07:21:28Z</time>
      </trkpt>
      <trkpt lat="44.91589" lon="1.66136">
        <ele>174.3</ele>
        <time>2022-05-24T07:21:29Z</time>
      </trkpt>
      <trkpt lat="44.91589" lon="1.66138">
        <ele>174.3</ele>
        <time>2022-05-24T07:21:30Z</time>
      </trkpt>
      <trkpt lat="44.91588" lon="1.6614">
        <ele>174.3</ele>
        <time>2022-05-24T07:21:31Z</time>
      </trkpt>
      <trkpt lat="44.91588" lon="1.66142">
        <ele>174.2</ele>
        <time>2022-05-24T07:21:32Z</time>
      </trkpt>
      <trkpt lat="44.91587" lon="1.66143">
        <ele>174.2</ele>
        <time>2022-05-24T07:21:33Z</time>
      </trkpt>
      <trkpt lat="44.91587" lon="1.66145">
        <ele>174.2</ele>
        <time>2022-05-24T07:21:34Z</time>
      </trkpt>
      <trkpt lat="44.91586" lon="1.66147">
        <ele>174.2</ele>
        <time>2022-05-24T07:21:35Z</time>
      </trkpt>
      <trkpt lat="44.91585" lon="1.66149">
        <ele>174.2</ele>
        <time>2022-05-24T07:21:36Z</time>
      </trkpt>
      <trkpt lat="44.91585" lon="1.66151">
        <ele>174.2</ele>
        <time>2022-05-24T07:21:37Z</time>
      </trkpt>
      <trkpt lat="44.91584" lon="1.66153">
        <ele>175</ele>
        <time>2022-05-24T07:21:38Z</time>
      </trkpt>
      <trkpt lat="44.91584" lon="1.66155">
        <ele>175</ele>
        <time>2022-05-24T07:21:39Z</time>
      </trkpt>
      <trkpt lat="44.91584" lon="1.66156">
        <ele>175</ele>
        <time>2022-05-24T07:21:40Z</time>
      </trkpt>
      <trkpt lat="44.91584" lon="1.66159">
        <ele>175</ele>
        <time>2022-05-24T07:21:41Z</time>
      </trkpt>
      <trkpt lat="44.91584" lon="1.66161">
        <ele>175</ele>
        <time>2022-05-24T07:21:42Z</time>
      </trkpt>
      <trkpt lat="44.91585" lon="1.66163">
        <ele>174.9</ele>
        <time>2022-05-24T07:21:43Z</time>
      </trkpt>
      <trkpt lat="44.91585" lon="1.66164">
        <ele>174.9</ele>
        <time>2022-05-24T07:21:44Z</time>
      </trkpt>
      <trkpt lat="44.91585" lon="1.66166">
        <ele>174.9</ele>
        <time>2022-05-24T07:21:45Z</time>
      </trkpt>
      <trkpt lat="44.91586" lon="1.66168">
        <ele>174.9</ele>
        <time>2022-05-24T07:21:46Z</time>
      </trkpt>
      <trkpt lat="44.91586" lon="1.66169">
        <ele>176.2</ele>
        <time>2022-05-24T07:21:47Z</time>
      </trkpt>
      <trkpt lat="44.91587" lon="1.66172">
        <ele>176.2</ele>
        <time>2022-05-24T07:21:48Z</time>
      </trkpt>
      <trkpt lat="44.91588" lon="1.66173">
        <ele>176.2</ele>
        <time>2022-05-24T07:21:49Z</time>
      </trkpt>
      <trkpt lat="44.91588" lon="1.66175">
        <ele>176.2</ele>
        <time>2022-05-24T07:21:50Z</time>
      </trkpt>
      <trkpt lat="44.91589" lon="1.66178">
        <ele>176.2</ele>
        <time>2022-05-24T07:21:51Z</time>
      </trkpt>
      <trkpt lat="44.91589" lon="1.66179">
        <ele>176.2</ele>
        <time>2022-05-24T07:21:52Z</time>
      </trkpt>
      <trkpt lat="44.9159" lon="1.6618">
        <ele>176.1</ele>
        <time>2022-05-24T07:21:53Z</time>
      </trkpt>
      <trkpt lat="44.9159" lon="1.66181">
        <ele>176.1</ele>
        <time>2022-05-24T07:21:54Z</time>
      </trkpt>
      <trkpt lat="44.9159" lon="1.66183">
        <ele>176.1</ele>
        <time>2022-05-24T07:21:55Z</time>
      </trkpt>
      <trkpt lat="44.9159" lon="1.66185">
        <ele>176.1</ele>
        <time>2022-05-24T07:21:56Z</time>
      </trkpt>
      <trkpt lat="44.9159" lon="1.66186">
        <ele>177.7</ele>
        <time>2022-05-24T07:21:57Z</time>
      </trkpt>
      <trkpt lat="44.9159" lon="1.66188">
        <ele>177.7</ele>
        <time>2022-05-24T07:21:58Z</time>
      </trkpt>
      <trkpt lat="44.9159" lon="1.66189">
        <ele>177.7</ele>
        <time>2022-05-24T07:21:59Z</time>
      </trkpt>
      <trkpt lat="44.9159" lon="1.66191">
        <ele>177.7</ele>
        <time>2022-05-24T07:22:00Z</time>
      </trkpt>
      <trkpt lat="44.91591" lon="1.66193">
        <ele>177.7</ele>
        <time>2022-05-24T07:22:01Z</time>
      </trkpt>
      <trkpt lat="44.91591" lon="1.66195">
        <ele>177.7</ele>
        <time>2022-05-24T07:22:02Z</time>
      </trkpt>
      <trkpt lat="44.91591" lon="1.66197">
        <ele>177.6</ele>
        <time>2022-05-24T07:22:03Z</time>
      </trkpt>
      <trkpt lat="44.91591" lon="1.66199">
        <ele>177.6</ele>
        <time>2022-05-24T07:22:04Z</time>
      </trkpt>
      <trkpt lat="44.91591" lon="1.66201">
        <ele>177.6</ele>
        <time>2022-05-24T07:22:05Z</time>
      </trkpt>
      <trkpt lat="44.91591" lon="1.66203">
        <ele>179.6</ele>
        <time>2022-05-24T07:22:06Z</time>
      </trkpt>
      <trkpt lat="44.9159" lon="1.66205">
        <ele>179.6</ele>
        <time>2022-05-24T07:22:07Z</time>
      </trkpt>
      <trkpt lat="44.9159" lon="1.66207">
        <ele>179.5</ele>
        <time>2022-05-24T07:22:08Z</time>
      </trkpt>
      <trkpt lat="44.9159" lon="1.66209">
        <ele>179.5</ele>
        <time>2022-05-24T07:22:09Z</time>
      </trkpt>
      <trkpt lat="44.9159" lon="1.66211">
        <ele>179.5</ele>
        <time>2022-05-24T07:22:10Z</time>
      </trkpt>
      <trkpt lat="44.91589" lon="1.66213">
        <ele>179.5</ele>
        <time>2022-05-24T07:22:11Z</time>
      </trkpt>
      <trkpt lat="44.91588" lon="1.66215">
        <ele>179.5</ele>
        <time>2022-05-24T07:22:12Z</time>
      </trkpt>
      <trkpt lat="44.91587" lon="1.66216">
        <ele>179.5</ele>
        <time>2022-05-24T07:22:13Z</time>
      </trkpt>
      <trkpt lat="44.91586" lon="1.66218">
        <ele>179.5</ele>
        <time>2022-05-24T07:22:14Z</time>
      </trkpt>
      <trkpt lat="44.91586" lon="1.6622">
        <ele>181.7</ele>
        <time>2022-05-24T07:22:15Z</time>
      </trkpt>
      <trkpt lat="44.91585" lon="1.66224">
        <ele>181.7</ele>
        <time>2022-05-24T07:22:16Z</time>
      </trkpt>
      <trkpt lat="44.91584" lon="1.66225">
        <ele>181.7</ele>
        <time>2022-05-24T07:22:17Z</time>
      </trkpt>
      <trkpt lat="44.91584" lon="1.66231">
        <ele>181.7</ele>
        <time>2022-05-24T07:22:22Z</time>
      </trkpt>
      <trkpt lat="44.91583" lon="1.66234">
        <ele>181.6</ele>
        <time>2022-05-24T07:22:23Z</time>
      </trkpt>
      <trkpt lat="44.91583" lon="1.66236">
        <ele>181.6</ele>
        <time>2022-05-24T07:22:24Z</time>
      </trkpt>
      <trkpt lat="44.91583" lon="1.66239">
        <ele>183.8</ele>
        <time>2022-05-24T07:22:25Z</time>
      </trkpt>
      <trkpt lat="44.91583" lon="1.66241">
        <ele>183.8</ele>
        <time>2022-05-24T07:22:26Z</time>
      </trkpt>
      <trkpt lat="44.91583" lon="1.66243">
        <ele>183.8</ele>
        <time>2022-05-24T07:22:27Z</time>
      </trkpt>
      <trkpt lat="44.91583" lon="1.66245">
        <ele>183.8</ele>
        <time>2022-05-24T07:22:28Z</time>
      </trkpt>
      <trkpt lat="44.91583" lon="1.66246">
        <ele>183.8</ele>
        <time>2022-05-24T07:22:29Z</time>
      </trkpt>
      <trkpt lat="44.91583" lon="1.66249">
        <ele>183.8</ele>
        <time>2022-05-24T07:22:31Z</time>
      </trkpt>
      <trkpt lat="44.91583" lon="1.66251">
        <ele>185.9</ele>
        <time>2022-05-24T07:22:32Z</time>
      </trkpt>
      <trkpt lat="44.91582" lon="1.66253">
        <ele>185.9</ele>
        <time>2022-05-24T07:22:33Z</time>
      </trkpt>
      <trkpt lat="44.91582" lon="1.66255">
        <ele>188.5</ele>
        <time>2022-05-24T07:22:34Z</time>
      </trkpt>
      <trkpt lat="44.91582" lon="1.66257">
        <ele>188.5</ele>
        <time>2022-05-24T07:22:35Z</time>
      </trkpt>
      <trkpt lat="44.91582" lon="1.66258">
        <ele>188.5</ele>
        <time>2022-05-24T07:22:36Z</time>
      </trkpt>
      <trkpt lat="44.91581" lon="1.6626">
        <ele>188.5</ele>
        <time>2022-05-24T07:22:37Z</time>
      </trkpt>
      <trkpt lat="44.91581" lon="1.66262">
        <ele>188.5</ele>
        <time>2022-05-24T07:22:38Z</time>
      </trkpt>
      <trkpt lat="44.9158" lon="1.66264">
        <ele>188.4</ele>
        <time>2022-05-24T07:22:39Z</time>
      </trkpt>
      <trkpt lat="44.9158" lon="1.66265">
        <ele>188.4</ele>
        <time>2022-05-24T07:22:40Z</time>
      </trkpt>
      <trkpt lat="44.91579" lon="1.66266">
        <ele>188.4</ele>
        <time>2022-05-24T07:22:41Z</time>
      </trkpt>
      <trkpt lat="44.91578" lon="1.6627">
        <ele>188.4</ele>
        <time>2022-05-24T07:22:42Z</time>
      </trkpt>
      <trkpt lat="44.91578" lon="1.66272">
        <ele>190.9</ele>
        <time>2022-05-24T07:22:44Z</time>
      </trkpt>
      <trkpt lat="44.91577" lon="1.66273">
        <ele>190.8</ele>
        <time>2022-05-24T07:22:45Z</time>
      </trkpt>
      <trkpt lat="44.91577" lon="1.66275">
        <ele>190.8</ele>
        <time>2022-05-24T07:22:46Z</time>
      </trkpt>
      <trkpt lat="44.91576" lon="1.66278">
        <ele>190.8</ele>
        <time>2022-05-24T07:22:47Z</time>
      </trkpt>
      <trkpt lat="44.91575" lon="1.66279">
        <ele>190.8</ele>
        <time>2022-05-24T07:22:48Z</time>
      </trkpt>
      <trkpt lat="44.91575" lon="1.6628">
        <ele>190.8</ele>
        <time>2022-05-24T07:22:49Z</time>
      </trkpt>
      <trkpt lat="44.91574" lon="1.66281">
        <ele>190.8</ele>
        <time>2022-05-24T07:22:50Z</time>
      </trkpt>
      <trkpt lat="44.91573" lon="1.66283">
        <ele>190.8</ele>
        <time>2022-05-24T07:22:51Z</time>
      </trkpt>
      <trkpt lat="44.91572" lon="1.66285">
        <ele>190.8</ele>
        <time>2022-05-24T07:22:52Z</time>
      </trkpt>
      <trkpt lat="44.91571" lon="1.66287">
        <ele>192.1</ele>
        <time>2022-05-24T07:22:53Z</time>
      </trkpt>
      <trkpt lat="44.91568" lon="1.66289">
        <ele>194.8</ele>
        <time>2022-05-24T07:22:54Z</time>
      </trkpt>
      <trkpt lat="44.91567" lon="1.6629">
        <ele>194.8</ele>
        <time>2022-05-24T07:22:55Z</time>
      </trkpt>
      <trkpt lat="44.91566" lon="1.66291">
        <ele>194.8</ele>
        <time>2022-05-24T07:22:56Z</time>
      </trkpt>
      <trkpt lat="44.91565" lon="1.66293">
        <ele>194.8</ele>
        <time>2022-05-24T07:22:57Z</time>
      </trkpt>
      <trkpt lat="44.91564" lon="1.66295">
        <ele>194.8</ele>
        <time>2022-05-24T07:22:58Z</time>
      </trkpt>
      <trkpt lat="44.91563" lon="1.66296">
        <ele>194.7</ele>
        <time>2022-05-24T07:22:59Z</time>
      </trkpt>
      <trkpt lat="44.91563" lon="1.66297">
        <ele>194.7</ele>
        <time>2022-05-24T07:23:00Z</time>
      </trkpt>
      <trkpt lat="44.91562" lon="1.66298">
        <ele>194.7</ele>
        <time>2022-05-24T07:23:01Z</time>
      </trkpt>
      <trkpt lat="44.91561" lon="1.663">
        <ele>194.7</ele>
        <time>2022-05-24T07:23:02Z</time>
      </trkpt>
      <trkpt lat="44.9156" lon="1.66301">
        <ele>194.7</ele>
        <time>2022-05-24T07:23:03Z</time>
      </trkpt>
      <trkpt lat="44.91559" lon="1.66303">
        <ele>194.7</ele>
        <time>2022-05-24T07:23:04Z</time>
      </trkpt>
      <trkpt lat="44.91558" lon="1.66305">
        <ele>195.9</ele>
        <time>2022-05-24T07:23:05Z</time>
      </trkpt>
      <trkpt lat="44.91557" lon="1.66306">
        <ele>199.3</ele>
        <time>2022-05-24T07:23:06Z</time>
      </trkpt>
      <trkpt lat="44.91555" lon="1.6631">
        <ele>199.3</ele>
        <time>2022-05-24T07:23:08Z</time>
      </trkpt>
      <trkpt lat="44.91555" lon="1.66311">
        <ele>199.3</ele>
        <time>2022-05-24T07:23:09Z</time>
      </trkpt>
      <trkpt lat="44.91554" lon="1.66314">
        <ele>199.2</ele>
        <time>2022-05-24T07:23:10Z</time>
      </trkpt>
      <trkpt lat="44.91554" lon="1.66315">
        <ele>199.2</ele>
        <time>2022-05-24T07:23:11Z</time>
      </trkpt>
      <trkpt lat="44.91553" lon="1.66316">
        <ele>199.2</ele>
        <time>2022-05-24T07:23:12Z</time>
      </trkpt>
      <trkpt lat="44.91553" lon="1.66318">
        <ele>199.2</ele>
        <time>2022-05-24T07:23:13Z</time>
      </trkpt>
      <trkpt lat="44.91553" lon="1.6632">
        <ele>199.2</ele>
        <time>2022-05-24T07:23:14Z</time>
      </trkpt>
      <trkpt lat="44.91552" lon="1.66321">
        <ele>199.2</ele>
        <time>2022-05-24T07:23:15Z</time>
      </trkpt>
      <trkpt lat="44.91552" lon="1.66324">
        <ele>202</ele>
        <time>2022-05-24T07:23:16Z</time>
      </trkpt>
      <trkpt lat="44.91551" lon="1.66325">
        <ele>202</ele>
        <time>2022-05-24T07:23:17Z</time>
      </trkpt>
      <trkpt lat="44.91551" lon="1.66326">
        <ele>202</ele>
        <time>2022-05-24T07:23:18Z</time>
      </trkpt>
      <trkpt lat="44.9155" lon="1.66328">
        <ele>202</ele>
        <time>2022-05-24T07:23:19Z</time>
      </trkpt>
      <trkpt lat="44.9155" lon="1.6633">
        <ele>202</ele>
        <time>2022-05-24T07:23:20Z</time>
      </trkpt>
      <trkpt lat="44.91549" lon="1.66332">
        <ele>202</ele>
        <time>2022-05-24T07:23:21Z</time>
      </trkpt>
      <trkpt lat="44.91549" lon="1.66333">
        <ele>201.9</ele>
        <time>2022-05-24T07:23:22Z</time>
      </trkpt>
      <trkpt lat="44.91548" lon="1.66334">
        <ele>201.9</ele>
        <time>2022-05-24T07:23:23Z</time>
      </trkpt>
      <trkpt lat="44.91547" lon="1.66337">
        <ele>201.9</ele>
        <time>2022-05-24T07:23:24Z</time>
      </trkpt>
      <trkpt lat="44.91547" lon="1.66338">
        <ele>201.9</ele>
        <time>2022-05-24T07:23:25Z</time>
      </trkpt>
      <trkpt lat="44.91547" lon="1.6634">
        <ele>201.9</ele>
        <time>2022-05-24T07:23:26Z</time>
      </trkpt>
      <trkpt lat="44.91546" lon="1.66342">
        <ele>205.7</ele>
        <time>2022-05-24T07:23:27Z</time>
      </trkpt>
      <trkpt lat="44.91546" lon="1.66343">
        <ele>205.7</ele>
        <time>2022-05-24T07:23:28Z</time>
      </trkpt>
      <trkpt lat="44.91545" lon="1.66345">
        <ele>205.7</ele>
        <time>2022-05-24T07:23:29Z</time>
      </trkpt>
      <trkpt lat="44.91544" lon="1.66347">
        <ele>205.7</ele>
        <time>2022-05-24T07:23:30Z</time>
      </trkpt>
      <trkpt lat="44.91544" lon="1.66349">
        <ele>205.7</ele>
        <time>2022-05-24T07:23:31Z</time>
      </trkpt>
      <trkpt lat="44.91543" lon="1.66352">
        <ele>205.7</ele>
        <time>2022-05-24T07:23:32Z</time>
      </trkpt>
      <trkpt lat="44.91543" lon="1.66353">
        <ele>205.6</ele>
        <time>2022-05-24T07:23:33Z</time>
      </trkpt>
      <trkpt lat="44.91544" lon="1.66354">
        <ele>205.6</ele>
        <time>2022-05-24T07:23:34Z</time>
      </trkpt>
      <trkpt lat="44.91544" lon="1.66356">
        <ele>205.6</ele>
        <time>2022-05-24T07:23:35Z</time>
      </trkpt>
      <trkpt lat="44.91545" lon="1.66357">
        <ele>205.6</ele>
        <time>2022-05-24T07:23:36Z</time>
      </trkpt>
      <trkpt lat="44.91545" lon="1.66358">
        <ele>208.8</ele>
        <time>2022-05-24T07:23:37Z</time>
      </trkpt>
      <trkpt lat="44.91546" lon="1.66359">
        <ele>208.8</ele>
        <time>2022-05-24T07:23:38Z</time>
      </trkpt>
      <trkpt lat="44.91547" lon="1.6636">
        <ele>207.7</ele>
        <time>2022-05-24T07:23:39Z</time>
      </trkpt>
      <trkpt lat="44.91547" lon="1.6636">
        <ele>207.7</ele>
        <time>2022-05-24T07:23:40Z</time>
      </trkpt>
      <trkpt lat="44.91548" lon="1.6636">
        <ele>207.7</ele>
        <time>2022-05-24T07:23:41Z</time>
      </trkpt>
      <trkpt lat="44.91548" lon="1.66359">
        <ele>207.6</ele>
        <time>2022-05-24T07:23:42Z</time>
      </trkpt>
      <trkpt lat="44.91547" lon="1.66359">
        <ele>207.6</ele>
        <time>2022-05-24T07:23:43Z</time>
      </trkpt>
      <trkpt lat="44.91547" lon="1.66358">
        <ele>207.6</ele>
        <time>2022-05-24T07:23:44Z</time>
      </trkpt>
      <trkpt lat="44.91547" lon="1.66358">
        <ele>207.6</ele>
        <time>2022-05-24T07:23:45Z</time>
      </trkpt>
      <trkpt lat="44.91547" lon="1.66358">
        <ele>207.6</ele>
        <time>2022-05-24T07:23:46Z</time>
      </trkpt>
      <trkpt lat="44.91547" lon="1.66358">
        <ele>207.6</ele>
        <time>2022-05-24T07:23:47Z</time>
      </trkpt>
      <trkpt lat="44.91547" lon="1.66358">
        <ele>208.7</ele>
        <time>2022-05-24T07:23:48Z</time>
      </trkpt>
      <trkpt lat="44.91546" lon="1.66358">
        <ele>208.7</ele>
        <time>2022-05-24T07:23:49Z</time>
      </trkpt>
      <trkpt lat="44.91547" lon="1.66358">
        <ele>208.7</ele>
        <time>2022-05-24T07:23:50Z</time>
      </trkpt>
      <trkpt lat="44.91547" lon="1.66358">
        <ele>207.5</ele>
        <time>2022-05-24T07:23:51Z</time>
      </trkpt>
      <trkpt lat="44.91547" lon="1.66358">
        <ele>207.5</ele>
        <time>2022-05-24T07:23:52Z</time>
      </trkpt>
      <trkpt lat="44.9155" lon="1.66358">
        <ele>207.5</ele>
        <time>2022-05-24T07:24:15Z</time>
      </trkpt>
      <trkpt lat="44.91551" lon="1.66357">
        <ele>207.5</ele>
        <time>2022-05-24T07:24:16Z</time>
      </trkpt>
      <trkpt lat="44.91552" lon="1.66357">
        <ele>204.4</ele>
        <time>2022-05-24T07:24:17Z</time>
      </trkpt>
      <trkpt lat="44.91553" lon="1.66357">
        <ele>204.4</ele>
        <time>2022-05-24T07:24:18Z</time>
      </trkpt>
      <trkpt lat="44.91554" lon="1.66357">
        <ele>207.5</ele>
        <time>2022-05-24T07:24:19Z</time>
      </trkpt>
      <trkpt lat="44.91555" lon="1.66357">
        <ele>207.4</ele>
        <time>2022-05-24T07:24:20Z</time>
      </trkpt>
      <trkpt lat="44.91555" lon="1.66357">
        <ele>207.4</ele>
        <time>2022-05-24T07:24:21Z</time>
      </trkpt>
      <trkpt lat="44.91556" lon="1.66358">
        <ele>207.4</ele>
        <time>2022-05-24T07:24:22Z</time>
      </trkpt>
      <trkpt lat="44.91558" lon="1.66359">
        <ele>207.4</ele>
        <time>2022-05-24T07:24:23Z</time>
      </trkpt>
      <trkpt lat="44.91559" lon="1.66359">
        <ele>205.7</ele>
        <time>2022-05-24T07:24:24Z</time>
      </trkpt>
      <trkpt lat="44.91562" lon="1.6636">
        <ele>205.7</ele>
        <time>2022-05-24T07:24:25Z</time>
      </trkpt>
      <trkpt lat="44.91563" lon="1.6636">
        <ele>205.7</ele>
        <time>2022-05-24T07:24:26Z</time>
      </trkpt>
      <trkpt lat="44.91567" lon="1.66361">
        <ele>205.7</ele>
        <time>2022-05-24T07:24:27Z</time>
      </trkpt>
      <trkpt lat="44.91568" lon="1.66361">
        <ele>205.6</ele>
        <time>2022-05-24T07:24:28Z</time>
      </trkpt>
      <trkpt lat="44.91569" lon="1.66362">
        <ele>205.6</ele>
        <time>2022-05-24T07:24:29Z</time>
      </trkpt>
      <trkpt lat="44.91571" lon="1.66363">
        <ele>205.6</ele>
        <time>2022-05-24T07:24:30Z</time>
      </trkpt>
      <trkpt lat="44.91572" lon="1.66365">
        <ele>203.6</ele>
        <time>2022-05-24T07:24:31Z</time>
      </trkpt>
      <trkpt lat="44.91573" lon="1.66366">
        <ele>203.6</ele>
        <time>2022-05-24T07:24:32Z</time>
      </trkpt>
      <trkpt lat="44.91575" lon="1.6637">
        <ele>203.6</ele>
        <time>2022-05-24T07:24:33Z</time>
      </trkpt>
      <trkpt lat="44.91575" lon="1.66371">
        <ele>203.6</ele>
        <time>2022-05-24T07:24:34Z</time>
      </trkpt>
      <trkpt lat="44.91576" lon="1.66373">
        <ele>203.6</ele>
        <time>2022-05-24T07:24:35Z</time>
      </trkpt>
      <trkpt lat="44.91576" lon="1.66375">
        <ele>206</ele>
        <time>2022-05-24T07:24:36Z</time>
      </trkpt>
      <trkpt lat="44.91576" lon="1.66378">
        <ele>206</ele>
        <time>2022-05-24T07:24:37Z</time>
      </trkpt>
      <trkpt lat="44.91575" lon="1.66379">
        <ele>206</ele>
        <time>2022-05-24T07:24:38Z</time>
      </trkpt>
      <trkpt lat="44.91575" lon="1.6638">
        <ele>206</ele>
        <time>2022-05-24T07:24:39Z</time>
      </trkpt>
      <trkpt lat="44.91573" lon="1.66381">
        <ele>206</ele>
        <time>2022-05-24T07:24:40Z</time>
      </trkpt>
      <trkpt lat="44.91572" lon="1.66382">
        <ele>206</ele>
        <time>2022-05-24T07:24:41Z</time>
      </trkpt>
      <trkpt lat="44.91572" lon="1.66384">
        <ele>206</ele>
        <time>2022-05-24T07:24:42Z</time>
      </trkpt>
      <trkpt lat="44.9157" lon="1.66385">
        <ele>208.1</ele>
        <time>2022-05-24T07:24:43Z</time>
      </trkpt>
      <trkpt lat="44.91569" lon="1.66387">
        <ele>208.1</ele>
        <time>2022-05-24T07:24:44Z</time>
      </trkpt>
      <trkpt lat="44.91568" lon="1.66388">
        <ele>208.1</ele>
        <time>2022-05-24T07:24:45Z</time>
      </trkpt>
      <trkpt lat="44.91566" lon="1.66391">
        <ele>208.1</ele>
        <time>2022-05-24T07:24:46Z</time>
      </trkpt>
      <trkpt lat="44.91565" lon="1.66391">
        <ele>208</ele>
        <time>2022-05-24T07:24:47Z</time>
      </trkpt>
      <trkpt lat="44.91564" lon="1.66393">
        <ele>210.5</ele>
        <time>2022-05-24T07:24:48Z</time>
      </trkpt>
      <trkpt lat="44.91563" lon="1.66395">
        <ele>210.5</ele>
        <time>2022-05-24T07:24:49Z</time>
      </trkpt>
      <trkpt lat="44.91562" lon="1.66396">
        <ele>210.5</ele>
        <time>2022-05-24T07:24:50Z</time>
      </trkpt>
      <trkpt lat="44.9156" lon="1.66398">
        <ele>210.5</ele>
        <time>2022-05-24T07:24:51Z</time>
      </trkpt>
      <trkpt lat="44.91559" lon="1.664">
        <ele>210.5</ele>
        <time>2022-05-24T07:24:52Z</time>
      </trkpt>
      <trkpt lat="44.91558" lon="1.66401">
        <ele>212.7</ele>
        <time>2022-05-24T07:24:53Z</time>
      </trkpt>
      <trkpt lat="44.91556" lon="1.66403">
        <ele>212.7</ele>
        <time>2022-05-24T07:24:54Z</time>
      </trkpt>
      <trkpt lat="44.91555" lon="1.66404">
        <ele>212.7</ele>
        <time>2022-05-24T07:24:55Z</time>
      </trkpt>
      <trkpt lat="44.91554" lon="1.66406">
        <ele>212.7</ele>
        <time>2022-05-24T07:24:56Z</time>
      </trkpt>
      <trkpt lat="44.91553" lon="1.66407">
        <ele>212.7</ele>
        <time>2022-05-24T07:24:57Z</time>
      </trkpt>
      <trkpt lat="44.91552" lon="1.66409">
        <ele>215.1</ele>
        <time>2022-05-24T07:24:58Z</time>
      </trkpt>
      <trkpt lat="44.91551" lon="1.66411">
        <ele>215.1</ele>
        <time>2022-05-24T07:24:59Z</time>
      </trkpt>
      <trkpt lat="44.9155" lon="1.66413">
        <ele>215.1</ele>
        <time>2022-05-24T07:25:00Z</time>
      </trkpt>
      <trkpt lat="44.91549" lon="1.66415">
        <ele>215.1</ele>
        <time>2022-05-24T07:25:01Z</time>
      </trkpt>
      <trkpt lat="44.91548" lon="1.66416">
        <ele>215.1</ele>
        <time>2022-05-24T07:25:02Z</time>
      </trkpt>
      <trkpt lat="44.91547" lon="1.66418">
        <ele>215.1</ele>
        <time>2022-05-24T07:25:03Z</time>
      </trkpt>
      <trkpt lat="44.91546" lon="1.66419">
        <ele>217.2</ele>
        <time>2022-05-24T07:25:04Z</time>
      </trkpt>
      <trkpt lat="44.91545" lon="1.66421">
        <ele>217.2</ele>
        <time>2022-05-24T07:25:05Z</time>
      </trkpt>
      <trkpt lat="44.91545" lon="1.66423">
        <ele>217.1</ele>
        <time>2022-05-24T07:25:06Z</time>
      </trkpt>
      <trkpt lat="44.91544" lon="1.66425">
        <ele>217.1</ele>
        <time>2022-05-24T07:25:07Z</time>
      </trkpt>
      <trkpt lat="44.91543" lon="1.66427">
        <ele>219.5</ele>
        <time>2022-05-24T07:25:08Z</time>
      </trkpt>
      <trkpt lat="44.91542" lon="1.66429">
        <ele>219.5</ele>
        <time>2022-05-24T07:25:09Z</time>
      </trkpt>
      <trkpt lat="44.91541" lon="1.66431">
        <ele>219.5</ele>
        <time>2022-05-24T07:25:10Z</time>
      </trkpt>
      <trkpt lat="44.9154" lon="1.66433">
        <ele>219.5</ele>
        <time>2022-05-24T07:25:11Z</time>
      </trkpt>
      <trkpt lat="44.91537" lon="1.66435">
        <ele>219.5</ele>
        <time>2022-05-24T07:25:12Z</time>
      </trkpt>
      <trkpt lat="44.91537" lon="1.66436">
        <ele>219.4</ele>
        <time>2022-05-24T07:25:13Z</time>
      </trkpt>
      <trkpt lat="44.91533" lon="1.66439">
        <ele>221.3</ele>
        <time>2022-05-24T07:25:15Z</time>
      </trkpt>
      <trkpt lat="44.91531" lon="1.66441">
        <ele>221.3</ele>
        <time>2022-05-24T07:25:16Z</time>
      </trkpt>
      <trkpt lat="44.9153" lon="1.66442">
        <ele>221.3</ele>
        <time>2022-05-24T07:25:17Z</time>
      </trkpt>
      <trkpt lat="44.91528" lon="1.66444">
        <ele>223.2</ele>
        <time>2022-05-24T07:25:18Z</time>
      </trkpt>
      <trkpt lat="44.91527" lon="1.66445">
        <ele>223.2</ele>
        <time>2022-05-24T07:25:19Z</time>
      </trkpt>
      <trkpt lat="44.91526" lon="1.66447">
        <ele>223.2</ele>
        <time>2022-05-24T07:25:20Z</time>
      </trkpt>
      <trkpt lat="44.91525" lon="1.66448">
        <ele>223.2</ele>
        <time>2022-05-24T07:25:21Z</time>
      </trkpt>
      <trkpt lat="44.91522" lon="1.6645">
        <ele>223.2</ele>
        <time>2022-05-24T07:25:22Z</time>
      </trkpt>
      <trkpt lat="44.91522" lon="1.66451">
        <ele>224.8</ele>
        <time>2022-05-24T07:25:23Z</time>
      </trkpt>
      <trkpt lat="44.91519" lon="1.66454">
        <ele>224.8</ele>
        <time>2022-05-24T07:25:24Z</time>
      </trkpt>
      <trkpt lat="44.91518" lon="1.66454">
        <ele>224.8</ele>
        <time>2022-05-24T07:25:25Z</time>
      </trkpt>
      <trkpt lat="44.91516" lon="1.66456">
        <ele>224.8</ele>
        <time>2022-05-24T07:25:26Z</time>
      </trkpt>
      <trkpt lat="44.91515" lon="1.66457">
        <ele>224.8</ele>
        <time>2022-05-24T07:25:27Z</time>
      </trkpt>
      <trkpt lat="44.91514" lon="1.66458">
        <ele>224.8</ele>
        <time>2022-05-24T07:25:28Z</time>
      </trkpt>
      <trkpt lat="44.91512" lon="1.66459">
        <ele>224.8</ele>
        <time>2022-05-24T07:25:29Z</time>
      </trkpt>
      <trkpt lat="44.91511" lon="1.66461">
        <ele>226.4</ele>
        <time>2022-05-24T07:25:30Z</time>
      </trkpt>
      <trkpt lat="44.9151" lon="1.66461">
        <ele>228.1</ele>
        <time>2022-05-24T07:25:31Z</time>
      </trkpt>
      <trkpt lat="44.91508" lon="1.66462">
        <ele>228.1</ele>
        <time>2022-05-24T07:25:32Z</time>
      </trkpt>
      <trkpt lat="44.91507" lon="1.66463">
        <ele>228</ele>
        <time>2022-05-24T07:25:33Z</time>
      </trkpt>
      <trkpt lat="44.91504" lon="1.66464">
        <ele>228</ele>
        <time>2022-05-24T07:25:34Z</time>
      </trkpt>
      <trkpt lat="44.91503" lon="1.66464">
        <ele>228</ele>
        <time>2022-05-24T07:25:35Z</time>
      </trkpt>
      <trkpt lat="44.915" lon="1.66464">
        <ele>228</ele>
        <time>2022-05-24T07:25:36Z</time>
      </trkpt>
      <trkpt lat="44.91499" lon="1.66464">
        <ele>228</ele>
        <time>2022-05-24T07:25:37Z</time>
      </trkpt>
      <trkpt lat="44.91498" lon="1.66464">
        <ele>228</ele>
        <time>2022-05-24T07:25:38Z</time>
      </trkpt>
      <trkpt lat="44.91495" lon="1.66465">
        <ele>229.7</ele>
        <time>2022-05-24T07:25:39Z</time>
      </trkpt>
      <trkpt lat="44.91494" lon="1.66465">
        <ele>229.7</ele>
        <time>2022-05-24T07:25:40Z</time>
      </trkpt>
      <trkpt lat="44.91492" lon="1.66467">
        <ele>229.7</ele>
        <time>2022-05-24T07:25:41Z</time>
      </trkpt>
      <trkpt lat="44.91491" lon="1.66467">
        <ele>229.7</ele>
        <time>2022-05-24T07:25:42Z</time>
      </trkpt>
      <trkpt lat="44.91489" lon="1.66469">
        <ele>229.7</ele>
        <time>2022-05-24T07:25:43Z</time>
      </trkpt>
      <trkpt lat="44.91488" lon="1.6647">
        <ele>229.7</ele>
        <time>2022-05-24T07:25:44Z</time>
      </trkpt>
      <trkpt lat="44.91486" lon="1.66471">
        <ele>229.7</ele>
        <time>2022-05-24T07:25:45Z</time>
      </trkpt>
      <trkpt lat="44.91485" lon="1.66472">
        <ele>230.8</ele>
        <time>2022-05-24T07:25:46Z</time>
      </trkpt>
      <trkpt lat="44.91484" lon="1.66473">
        <ele>230.8</ele>
        <time>2022-05-24T07:25:47Z</time>
      </trkpt>
      <trkpt lat="44.91483" lon="1.66474">
        <ele>230.8</ele>
        <time>2022-05-24T07:25:48Z</time>
      </trkpt>
      <trkpt lat="44.91482" lon="1.66476">
        <ele>230.7</ele>
        <time>2022-05-24T07:25:49Z</time>
      </trkpt>
      <trkpt lat="44.9148" lon="1.66477">
        <ele>230.7</ele>
        <time>2022-05-24T07:25:50Z</time>
      </trkpt>
      <trkpt lat="44.91479" lon="1.66478">
        <ele>232</ele>
        <time>2022-05-24T07:25:51Z</time>
      </trkpt>
      <trkpt lat="44.91477" lon="1.66479">
        <ele>232</ele>
        <time>2022-05-24T07:25:52Z</time>
      </trkpt>
      <trkpt lat="44.91476" lon="1.6648">
        <ele>232</ele>
        <time>2022-05-24T07:25:53Z</time>
      </trkpt>
      <trkpt lat="44.91475" lon="1.66481">
        <ele>232</ele>
        <time>2022-05-24T07:25:54Z</time>
      </trkpt>
      <trkpt lat="44.91473" lon="1.66483">
        <ele>233.3</ele>
        <time>2022-05-24T07:25:55Z</time>
      </trkpt>
      <trkpt lat="44.91472" lon="1.66484">
        <ele>233.2</ele>
        <time>2022-05-24T07:25:56Z</time>
      </trkpt>
      <trkpt lat="44.9147" lon="1.66486">
        <ele>233.2</ele>
        <time>2022-05-24T07:25:57Z</time>
      </trkpt>
      <trkpt lat="44.91469" lon="1.66487">
        <ele>233.2</ele>
        <time>2022-05-24T07:25:58Z</time>
      </trkpt>
      <trkpt lat="44.91466" lon="1.66489">
        <ele>233.2</ele>
        <time>2022-05-24T07:25:59Z</time>
      </trkpt>
      <trkpt lat="44.91465" lon="1.66489">
        <ele>233.2</ele>
        <time>2022-05-24T07:26:00Z</time>
      </trkpt>
      <trkpt lat="44.91462" lon="1.6649">
        <ele>233.2</ele>
        <time>2022-05-24T07:26:01Z</time>
      </trkpt>
      <trkpt lat="44.91461" lon="1.6649">
        <ele>234.3</ele>
        <time>2022-05-24T07:26:02Z</time>
      </trkpt>
      <trkpt lat="44.91459" lon="1.66492">
        <ele>234.3</ele>
        <time>2022-05-24T07:26:03Z</time>
      </trkpt>
      <trkpt lat="44.91458" lon="1.66492">
        <ele>234.3</ele>
        <time>2022-05-24T07:26:04Z</time>
      </trkpt>
      <trkpt lat="44.91456" lon="1.66493">
        <ele>234.3</ele>
        <time>2022-05-24T07:26:05Z</time>
      </trkpt>
      <trkpt lat="44.91454" lon="1.66493">
        <ele>234.3</ele>
        <time>2022-05-24T07:26:06Z</time>
      </trkpt>
      <trkpt lat="44.91453" lon="1.66493">
        <ele>234.2</ele>
        <time>2022-05-24T07:26:07Z</time>
      </trkpt>
      <trkpt lat="44.91451" lon="1.66493">
        <ele>234.2</ele>
        <time>2022-05-24T07:26:08Z</time>
      </trkpt>
      <trkpt lat="44.91448" lon="1.66493">
        <ele>235.6</ele>
        <time>2022-05-24T07:26:09Z</time>
      </trkpt>
      <trkpt lat="44.91447" lon="1.66493">
        <ele>235.6</ele>
        <time>2022-05-24T07:26:10Z</time>
      </trkpt>
      <trkpt lat="44.91446" lon="1.66494">
        <ele>235.6</ele>
        <time>2022-05-24T07:26:11Z</time>
      </trkpt>
      <trkpt lat="44.91444" lon="1.66494">
        <ele>235.6</ele>
        <time>2022-05-24T07:26:12Z</time>
      </trkpt>
      <trkpt lat="44.91443" lon="1.66494">
        <ele>235.6</ele>
        <time>2022-05-24T07:26:13Z</time>
      </trkpt>
      <trkpt lat="44.91441" lon="1.66494">
        <ele>235.5</ele>
        <time>2022-05-24T07:26:14Z</time>
      </trkpt>
      <trkpt lat="44.91439" lon="1.66494">
        <ele>235.5</ele>
        <time>2022-05-24T07:26:15Z</time>
      </trkpt>
      <trkpt lat="44.91438" lon="1.66494">
        <ele>235.5</ele>
        <time>2022-05-24T07:26:16Z</time>
      </trkpt>
      <trkpt lat="44.91437" lon="1.66494">
        <ele>235.5</ele>
        <time>2022-05-24T07:26:17Z</time>
      </trkpt>
      <trkpt lat="44.91436" lon="1.66494">
        <ele>236.6</ele>
        <time>2022-05-24T07:26:18Z</time>
      </trkpt>
      <trkpt lat="44.91435" lon="1.66494">
        <ele>236.6</ele>
        <time>2022-05-24T07:26:19Z</time>
      </trkpt>
      <trkpt lat="44.91434" lon="1.66494">
        <ele>236.6</ele>
        <time>2022-05-24T07:26:20Z</time>
      </trkpt>
      <trkpt lat="44.91434" lon="1.66494">
        <ele>236.6</ele>
        <time>2022-05-24T07:26:21Z</time>
      </trkpt>
      <trkpt lat="44.91433" lon="1.66493">
        <ele>236.6</ele>
        <time>2022-05-24T07:26:22Z</time>
      </trkpt>
      <trkpt lat="44.91433" lon="1.66493">
        <ele>236.6</ele>
        <time>2022-05-24T07:26:23Z</time>
      </trkpt>
      <trkpt lat="44.91432" lon="1.66493">
        <ele>236.5</ele>
        <time>2022-05-24T07:26:24Z</time>
      </trkpt>
      <trkpt lat="44.91432" lon="1.66493">
        <ele>236.5</ele>
        <time>2022-05-24T07:26:25Z</time>
      </trkpt>
      <trkpt lat="44.91431" lon="1.66493">
        <ele>236.5</ele>
        <time>2022-05-24T07:26:26Z</time>
      </trkpt>
      <trkpt lat="44.91431" lon="1.66493">
        <ele>236.5</ele>
        <time>2022-05-24T07:26:27Z</time>
      </trkpt>
      <trkpt lat="44.9143" lon="1.66493">
        <ele>236.5</ele>
        <time>2022-05-24T07:26:28Z</time>
      </trkpt>
      <trkpt lat="44.91427" lon="1.66493">
        <ele>236.5</ele>
        <time>2022-05-24T07:26:29Z</time>
      </trkpt>
      <trkpt lat="44.91426" lon="1.66493">
        <ele>236.5</ele>
        <time>2022-05-24T07:26:30Z</time>
      </trkpt>
      <trkpt lat="44.91425" lon="1.66493">
        <ele>237.1</ele>
        <time>2022-05-24T07:26:31Z</time>
      </trkpt>
      <trkpt lat="44.91423" lon="1.66493">
        <ele>237.1</ele>
        <time>2022-05-24T07:26:32Z</time>
      </trkpt>
      <trkpt lat="44.91423" lon="1.66493">
        <ele>237.1</ele>
        <time>2022-05-24T07:26:33Z</time>
      </trkpt>
      <trkpt lat="44.91422" lon="1.66494">
        <ele>237.1</ele>
        <time>2022-05-24T07:26:34Z</time>
      </trkpt>
      <trkpt lat="44.91422" lon="1.66494">
        <ele>237.1</ele>
        <time>2022-05-24T07:26:35Z</time>
      </trkpt>
      <trkpt lat="44.91422" lon="1.66494">
        <ele>237.1</ele>
        <time>2022-05-24T07:26:36Z</time>
      </trkpt>
      <trkpt lat="44.91422" lon="1.66494">
        <ele>237.1</ele>
        <time>2022-05-24T07:26:37Z</time>
      </trkpt>
      <trkpt lat="44.91422" lon="1.66494">
        <ele>237.1</ele>
        <time>2022-05-24T07:26:38Z</time>
      </trkpt>
      <trkpt lat="44.91422" lon="1.66494">
        <ele>237</ele>
        <time>2022-05-24T07:26:39Z</time>
      </trkpt>
      <trkpt lat="44.91422" lon="1.66494">
        <ele>237</ele>
        <time>2022-05-24T07:26:40Z</time>
      </trkpt>
      <trkpt lat="44.91421" lon="1.66494">
        <ele>237</ele>
        <time>2022-05-24T07:26:41Z</time>
      </trkpt>
      <trkpt lat="44.91421" lon="1.66494">
        <ele>237</ele>
        <time>2022-05-24T07:26:42Z</time>
      </trkpt>
      <trkpt lat="44.91421" lon="1.66494">
        <ele>237</ele>
        <time>2022-05-24T07:26:43Z</time>
      </trkpt>
      <trkpt lat="44.91421" lon="1.66494">
        <ele>237</ele>
        <time>2022-05-24T07:26:44Z</time>
      </trkpt>
      <trkpt lat="44.91421" lon="1.66494">
        <ele>237</ele>
        <time>2022-05-24T07:26:45Z</time>
      </trkpt>
      <trkpt lat="44.91421" lon="1.66494">
        <ele>237</ele>
        <time>2022-05-24T07:26:46Z</time>
      </trkpt>
      <trkpt lat="44.9142" lon="1.66494">
        <ele>236.9</ele>
        <time>2022-05-24T07:26:47Z</time>
      </trkpt>
      <trkpt lat="44.91419" lon="1.66494">
        <ele>236.9</ele>
        <time>2022-05-24T07:26:48Z</time>
      </trkpt>
      <trkpt lat="44.91418" lon="1.66494">
        <ele>236.9</ele>
        <time>2022-05-24T07:26:49Z</time>
      </trkpt>
      <trkpt lat="44.91417" lon="1.66494">
        <ele>236.9</ele>
        <time>2022-05-24T07:26:50Z</time>
      </trkpt>
      <trkpt lat="44.91416" lon="1.66493">
        <ele>236.9</ele>
        <time>2022-05-24T07:26:51Z</time>
      </trkpt>
      <trkpt lat="44.91416" lon="1.66493">
        <ele>236.9</ele>
        <time>2022-05-24T07:26:52Z</time>
      </trkpt>
      <trkpt lat="44.91415" lon="1.66493">
        <ele>236.9</ele>
        <time>2022-05-24T07:26:53Z</time>
      </trkpt>
      <trkpt lat="44.91414" lon="1.66493">
        <ele>236.9</ele>
        <time>2022-05-24T07:26:54Z</time>
      </trkpt>
      <trkpt lat="44.91414" lon="1.66492">
        <ele>236.8</ele>
        <time>2022-05-24T07:26:55Z</time>
      </trkpt>
      <trkpt lat="44.91413" lon="1.66492">
        <ele>236.8</ele>
        <time>2022-05-24T07:26:56Z</time>
      </trkpt>
      <trkpt lat="44.91413" lon="1.66494">
        <ele>236.8</ele>
        <time>2022-05-24T07:26:57Z</time>
      </trkpt>
      <trkpt lat="44.91414" lon="1.66496">
        <ele>237.7</ele>
        <time>2022-05-24T07:26:58Z</time>
      </trkpt>
      <trkpt lat="44.91414" lon="1.66497">
        <ele>237.7</ele>
        <time>2022-05-24T07:26:59Z</time>
      </trkpt>
      <trkpt lat="44.91414" lon="1.66497">
        <ele>237.7</ele>
        <time>2022-05-24T07:27:00Z</time>
      </trkpt>
      <trkpt lat="44.91414" lon="1.66498">
        <ele>237.7</ele>
        <time>2022-05-24T07:27:01Z</time>
      </trkpt>
      <trkpt lat="44.91413" lon="1.66498">
        <ele>237.7</ele>
        <time>2022-05-24T07:27:02Z</time>
      </trkpt>
      <trkpt lat="44.91413" lon="1.66498">
        <ele>238.6</ele>
        <time>2022-05-24T07:27:03Z</time>
      </trkpt>
      <trkpt lat="44.91412" lon="1.66499">
        <ele>238.5</ele>
        <time>2022-05-24T07:27:04Z</time>
      </trkpt>
      <trkpt lat="44.9141" lon="1.66498">
        <ele>238.5</ele>
        <time>2022-05-24T07:27:05Z</time>
      </trkpt>
      <trkpt lat="44.91409" lon="1.66497">
        <ele>238.5</ele>
        <time>2022-05-24T07:27:06Z</time>
      </trkpt>
      <trkpt lat="44.91409" lon="1.66496">
        <ele>238.5</ele>
        <time>2022-05-24T07:27:07Z</time>
      </trkpt>
      <trkpt lat="44.91408" lon="1.66495">
        <ele>238.5</ele>
        <time>2022-05-24T07:27:08Z</time>
      </trkpt>
      <trkpt lat="44.91408" lon="1.66494">
        <ele>237.2</ele>
        <time>2022-05-24T07:27:09Z</time>
      </trkpt>
      <trkpt lat="44.91408" lon="1.66494">
        <ele>237.2</ele>
        <time>2022-05-24T07:27:10Z</time>
      </trkpt>
      <trkpt lat="44.91408" lon="1.66494">
        <ele>237.2</ele>
        <time>2022-05-24T07:27:11Z</time>
      </trkpt>
      <trkpt lat="44.91408" lon="1.66494">
        <ele>237.2</ele>
        <time>2022-05-24T07:27:12Z</time>
      </trkpt>
      <trkpt lat="44.91408" lon="1.66494">
        <ele>237.2</ele>
        <time>2022-05-24T07:27:13Z</time>
      </trkpt>
      <trkpt lat="44.91408" lon="1.66494">
        <ele>237.1</ele>
        <time>2022-05-24T07:27:14Z</time>
      </trkpt>
      <trkpt lat="44.91408" lon="1.66494">
        <ele>237.1</ele>
        <time>2022-05-24T07:27:15Z</time>
      </trkpt>
      <trkpt lat="44.91408" lon="1.66493">
        <ele>237</ele>
        <time>2022-05-24T07:27:16Z</time>
      </trkpt>
      <trkpt lat="44.91408" lon="1.66493">
        <ele>237</ele>
        <time>2022-05-24T07:27:17Z</time>
      </trkpt>
      <trkpt lat="44.91408" lon="1.66493">
        <ele>237</ele>
        <time>2022-05-24T07:27:18Z</time>
      </trkpt>
      <trkpt lat="44.91408" lon="1.66493">
        <ele>237</ele>
        <time>2022-05-24T07:27:23Z</time>
      </trkpt>
      <trkpt lat="44.91408" lon="1.66495">
        <ele>238.2</ele>
        <time>2022-05-24T07:29:45Z</time>
      </trkpt>
      <trkpt lat="44.91407" lon="1.66494">
        <ele>237</ele>
        <time>2022-05-24T07:29:46Z</time>
      </trkpt>
      <trkpt lat="44.91406" lon="1.66493">
        <ele>237</ele>
        <time>2022-05-24T07:29:47Z</time>
      </trkpt>
      <trkpt lat="44.91405" lon="1.66492">
        <ele>237</ele>
        <time>2022-05-24T07:29:48Z</time>
      </trkpt>
      <trkpt lat="44.91403" lon="1.66492">
        <ele>236.9</ele>
        <time>2022-05-24T07:29:49Z</time>
      </trkpt>
      <trkpt lat="44.91402" lon="1.66492">
        <ele>236.9</ele>
        <time>2022-05-24T07:29:50Z</time>
      </trkpt>
      <trkpt lat="44.914" lon="1.66491">
        <ele>237.5</ele>
        <time>2022-05-24T07:29:51Z</time>
      </trkpt>
      <trkpt lat="44.914" lon="1.66492">
        <ele>237.5</ele>
        <time>2022-05-24T07:29:52Z</time>
      </trkpt>
      <trkpt lat="44.91399" lon="1.66492">
        <ele>237.5</ele>
        <time>2022-05-24T07:29:53Z</time>
      </trkpt>
      <trkpt lat="44.91399" lon="1.66492">
        <ele>237.5</ele>
        <time>2022-05-24T07:29:54Z</time>
      </trkpt>
      <trkpt lat="44.91397" lon="1.66493">
        <ele>237.4</ele>
        <time>2022-05-24T07:29:55Z</time>
      </trkpt>
      <trkpt lat="44.91396" lon="1.66493">
        <ele>237.4</ele>
        <time>2022-05-24T07:29:56Z</time>
      </trkpt>
      <trkpt lat="44.91395" lon="1.66493">
        <ele>237.4</ele>
        <time>2022-05-24T07:29:57Z</time>
      </trkpt>
      <trkpt lat="44.91392" lon="1.66494">
        <ele>237.4</ele>
        <time>2022-05-24T07:29:58Z</time>
      </trkpt>
      <trkpt lat="44.91391" lon="1.66494">
        <ele>237.4</ele>
        <time>2022-05-24T07:29:59Z</time>
      </trkpt>
      <trkpt lat="44.91387" lon="1.66494">
        <ele>238.3</ele>
        <time>2022-05-24T07:30:00Z</time>
      </trkpt>
      <trkpt lat="44.91386" lon="1.66494">
        <ele>238.3</ele>
        <time>2022-05-24T07:30:01Z</time>
      </trkpt>
      <trkpt lat="44.91383" lon="1.66494">
        <ele>238.3</ele>
        <time>2022-05-24T07:30:02Z</time>
      </trkpt>
      <trkpt lat="44.91381" lon="1.66494">
        <ele>239.6</ele>
        <time>2022-05-24T07:30:03Z</time>
      </trkpt>
      <trkpt lat="44.91378" lon="1.66494">
        <ele>239.6</ele>
        <time>2022-05-24T07:30:04Z</time>
      </trkpt>
      <trkpt lat="44.91374" lon="1.66495">
        <ele>240.3</ele>
        <time>2022-05-24T07:30:05Z</time>
      </trkpt>
      <trkpt lat="44.91371" lon="1.66495">
        <ele>240.3</ele>
        <time>2022-05-24T07:30:06Z</time>
      </trkpt>
      <trkpt lat="44.91368" lon="1.66496">
        <ele>240.3</ele>
        <time>2022-05-24T07:30:07Z</time>
      </trkpt>
      <trkpt lat="44.91365" lon="1.66497">
        <ele>240.3</ele>
        <time>2022-05-24T07:30:08Z</time>
      </trkpt>
      <trkpt lat="44.91362" lon="1.66497">
        <ele>241.2</ele>
        <time>2022-05-24T07:30:09Z</time>
      </trkpt>
      <trkpt lat="44.91359" lon="1.66497">
        <ele>241.2</ele>
        <time>2022-05-24T07:30:10Z</time>
      </trkpt>
      <trkpt lat="44.91355" lon="1.66498">
        <ele>241.2</ele>
        <time>2022-05-24T07:30:11Z</time>
      </trkpt>
      <trkpt lat="44.91354" lon="1.66498">
        <ele>241.2</ele>
        <time>2022-05-24T07:30:12Z</time>
      </trkpt>
      <trkpt lat="44.9135" lon="1.66498">
        <ele>242.1</ele>
        <time>2022-05-24T07:30:13Z</time>
      </trkpt>
      <trkpt lat="44.91349" lon="1.66498">
        <ele>242.1</ele>
        <time>2022-05-24T07:30:14Z</time>
      </trkpt>
      <trkpt lat="44.91345" lon="1.66499">
        <ele>242.1</ele>
        <time>2022-05-24T07:30:15Z</time>
      </trkpt>
      <trkpt lat="44.91344" lon="1.66499">
        <ele>242.1</ele>
        <time>2022-05-24T07:30:16Z</time>
      </trkpt>
      <trkpt lat="44.91341" lon="1.66498">
        <ele>242.1</ele>
        <time>2022-05-24T07:30:17Z</time>
      </trkpt>
      <trkpt lat="44.91338" lon="1.66496">
        <ele>243.2</ele>
        <time>2022-05-24T07:30:18Z</time>
      </trkpt>
      <trkpt lat="44.91336" lon="1.66493">
        <ele>241.9</ele>
        <time>2022-05-24T07:30:19Z</time>
      </trkpt>
      <trkpt lat="44.91334" lon="1.66488">
        <ele>241.7</ele>
        <time>2022-05-24T07:30:20Z</time>
      </trkpt>
      <trkpt lat="44.91332" lon="1.66483">
        <ele>241.4</ele>
        <time>2022-05-24T07:30:21Z</time>
      </trkpt>
      <trkpt lat="44.9133" lon="1.66478">
        <ele>241.2</ele>
        <time>2022-05-24T07:30:22Z</time>
      </trkpt>
      <trkpt lat="44.91328" lon="1.66473">
        <ele>241</ele>
        <time>2022-05-24T07:30:23Z</time>
      </trkpt>
      <trkpt lat="44.91326" lon="1.66468">
        <ele>240.8</ele>
        <time>2022-05-24T07:30:24Z</time>
      </trkpt>
      <trkpt lat="44.91323" lon="1.66462">
        <ele>240.5</ele>
        <time>2022-05-24T07:30:25Z</time>
      </trkpt>
      <trkpt lat="44.9132" lon="1.66456">
        <ele>240.2</ele>
        <time>2022-05-24T07:30:26Z</time>
      </trkpt>
      <trkpt lat="44.91317" lon="1.6645">
        <ele>239.8</ele>
        <time>2022-05-24T07:30:27Z</time>
      </trkpt>
      <trkpt lat="44.91315" lon="1.66443">
        <ele>239.3</ele>
        <time>2022-05-24T07:30:28Z</time>
      </trkpt>
      <trkpt lat="44.91312" lon="1.66435">
        <ele>238.8</ele>
        <time>2022-05-24T07:30:29Z</time>
      </trkpt>
      <trkpt lat="44.91311" lon="1.66426">
        <ele>238.2</ele>
        <time>2022-05-24T07:30:30Z</time>
      </trkpt>
      <trkpt lat="44.91309" lon="1.66417">
        <ele>237.6</ele>
        <time>2022-05-24T07:30:31Z</time>
      </trkpt>
      <trkpt lat="44.91308" lon="1.66407">
        <ele>236.9</ele>
        <time>2022-05-24T07:30:32Z</time>
      </trkpt>
      <trkpt lat="44.91307" lon="1.664">
        <ele>236.3</ele>
        <time>2022-05-24T07:30:33Z</time>
      </trkpt>
      <trkpt lat="44.91306" lon="1.66396">
        <ele>236.1</ele>
        <time>2022-05-24T07:30:34Z</time>
      </trkpt>
      <trkpt lat="44.91305" lon="1.66394">
        <ele>236</ele>
        <time>2022-05-24T07:30:35Z</time>
      </trkpt>
      <trkpt lat="44.91303" lon="1.66394">
        <ele>236</ele>
        <time>2022-05-24T07:30:36Z</time>
      </trkpt>
      <trkpt lat="44.91301" lon="1.66394">
        <ele>235.9</ele>
        <time>2022-05-24T07:30:37Z</time>
      </trkpt>
      <trkpt lat="44.91297" lon="1.66394">
        <ele>235.7</ele>
        <time>2022-05-24T07:30:38Z</time>
      </trkpt>
      <trkpt lat="44.91294" lon="1.66394">
        <ele>235.6</ele>
        <time>2022-05-24T07:30:39Z</time>
      </trkpt>
      <trkpt lat="44.91291" lon="1.66392">
        <ele>235.4</ele>
        <time>2022-05-24T07:30:40Z</time>
      </trkpt>
      <trkpt lat="44.91286" lon="1.66391">
        <ele>235.2</ele>
        <time>2022-05-24T07:30:41Z</time>
      </trkpt>
      <trkpt lat="44.91282" lon="1.6639">
        <ele>235</ele>
        <time>2022-05-24T07:30:42Z</time>
      </trkpt>
      <trkpt lat="44.91279" lon="1.66388">
        <ele>234.8</ele>
        <time>2022-05-24T07:30:43Z</time>
      </trkpt>
      <trkpt lat="44.91276" lon="1.66387">
        <ele>234.6</ele>
        <time>2022-05-24T07:30:44Z</time>
      </trkpt>
      <trkpt lat="44.91273" lon="1.66385">
        <ele>234.5</ele>
        <time>2022-05-24T07:30:45Z</time>
      </trkpt>
      <trkpt lat="44.9127" lon="1.66384">
        <ele>234.5</ele>
        <time>2022-05-24T07:30:46Z</time>
      </trkpt>
      <trkpt lat="44.91267" lon="1.66382">
        <ele>234.4</ele>
        <time>2022-05-24T07:30:47Z</time>
      </trkpt>
      <trkpt lat="44.91264" lon="1.6638">
        <ele>234.4</ele>
        <time>2022-05-24T07:30:48Z</time>
      </trkpt>
      <trkpt lat="44.9126" lon="1.66377">
        <ele>234.4</ele>
        <time>2022-05-24T07:30:49Z</time>
      </trkpt>
      <trkpt lat="44.91257" lon="1.66375">
        <ele>234.4</ele>
        <time>2022-05-24T07:30:50Z</time>
      </trkpt>
      <trkpt lat="44.91253" lon="1.66373">
        <ele>234.5</ele>
        <time>2022-05-24T07:30:51Z</time>
      </trkpt>
      <trkpt lat="44.91249" lon="1.66372">
        <ele>234.6</ele>
        <time>2022-05-24T07:30:52Z</time>
      </trkpt>
      <trkpt lat="44.91245" lon="1.66371">
        <ele>234.7</ele>
        <time>2022-05-24T07:30:53Z</time>
      </trkpt>
      <trkpt lat="44.91241" lon="1.6637">
        <ele>234.8</ele>
        <time>2022-05-24T07:30:54Z</time>
      </trkpt>
      <trkpt lat="44.91237" lon="1.66371">
        <ele>235</ele>
        <time>2022-05-24T07:30:55Z</time>
      </trkpt>
      <trkpt lat="44.91234" lon="1.66372">
        <ele>235.2</ele>
        <time>2022-05-24T07:30:56Z</time>
      </trkpt>
      <trkpt lat="44.9123" lon="1.66373">
        <ele>235.4</ele>
        <time>2022-05-24T07:30:57Z</time>
      </trkpt>
      <trkpt lat="44.91227" lon="1.66375">
        <ele>235.7</ele>
        <time>2022-05-24T07:30:58Z</time>
      </trkpt>
      <trkpt lat="44.91223" lon="1.66378">
        <ele>236</ele>
        <time>2022-05-24T07:30:59Z</time>
      </trkpt>
      <trkpt lat="44.9122" lon="1.6638">
        <ele>236.2</ele>
        <time>2022-05-24T07:31:00Z</time>
      </trkpt>
      <trkpt lat="44.91218" lon="1.66383">
        <ele>236.5</ele>
        <time>2022-05-24T07:31:01Z</time>
      </trkpt>
      <trkpt lat="44.91215" lon="1.66385">
        <ele>236.8</ele>
        <time>2022-05-24T07:31:02Z</time>
      </trkpt>
      <trkpt lat="44.91213" lon="1.66388">
        <ele>237</ele>
        <time>2022-05-24T07:31:03Z</time>
      </trkpt>
      <trkpt lat="44.91211" lon="1.6639">
        <ele>237.2</ele>
        <time>2022-05-24T07:31:04Z</time>
      </trkpt>
      <trkpt lat="44.91209" lon="1.66393">
        <ele>237.5</ele>
        <time>2022-05-24T07:31:05Z</time>
      </trkpt>
      <trkpt lat="44.91206" lon="1.66397">
        <ele>237.9</ele>
        <time>2022-05-24T07:31:06Z</time>
      </trkpt>
      <trkpt lat="44.91205" lon="1.66399">
        <ele>238</ele>
        <time>2022-05-24T07:31:07Z</time>
      </trkpt>
      <trkpt lat="44.91203" lon="1.66401">
        <ele>238.2</ele>
        <time>2022-05-24T07:31:08Z</time>
      </trkpt>
      <trkpt lat="44.91201" lon="1.66404">
        <ele>238.5</ele>
        <time>2022-05-24T07:31:09Z</time>
      </trkpt>
      <trkpt lat="44.91199" lon="1.66408">
        <ele>238.9</ele>
        <time>2022-05-24T07:31:10Z</time>
      </trkpt>
      <trkpt lat="44.91198" lon="1.66409">
        <ele>239</ele>
        <time>2022-05-24T07:31:11Z</time>
      </trkpt>
      <trkpt lat="44.91196" lon="1.66412">
        <ele>239.3</ele>
        <time>2022-05-24T07:31:12Z</time>
      </trkpt>
      <trkpt lat="44.91194" lon="1.66415">
        <ele>239.6</ele>
        <time>2022-05-24T07:31:13Z</time>
      </trkpt>
      <trkpt lat="44.91191" lon="1.66419">
        <ele>240</ele>
        <time>2022-05-24T07:31:14Z</time>
      </trkpt>
      <trkpt lat="44.9119" lon="1.6642">
        <ele>240.1</ele>
        <time>2022-05-24T07:31:15Z</time>
      </trkpt>
      <trkpt lat="44.91187" lon="1.66424">
        <ele>240.5</ele>
        <time>2022-05-24T07:31:16Z</time>
      </trkpt>
      <trkpt lat="44.91186" lon="1.66425">
        <ele>240.7</ele>
        <time>2022-05-24T07:31:17Z</time>
      </trkpt>
      <trkpt lat="44.91184" lon="1.66428">
        <ele>241</ele>
        <time>2022-05-24T07:31:18Z</time>
      </trkpt>
      <trkpt lat="44.91182" lon="1.66431">
        <ele>241.3</ele>
        <time>2022-05-24T07:31:19Z</time>
      </trkpt>
      <trkpt lat="44.9118" lon="1.66433">
        <ele>241.6</ele>
        <time>2022-05-24T07:31:20Z</time>
      </trkpt>
      <trkpt lat="44.91178" lon="1.66436">
        <ele>241.9</ele>
        <time>2022-05-24T07:31:21Z</time>
      </trkpt>
      <trkpt lat="44.91175" lon="1.6644">
        <ele>242.3</ele>
        <time>2022-05-24T07:31:22Z</time>
      </trkpt>
      <trkpt lat="44.91174" lon="1.66442">
        <ele>242.5</ele>
        <time>2022-05-24T07:31:23Z</time>
      </trkpt>
      <trkpt lat="44.91172" lon="1.66446">
        <ele>242.9</ele>
        <time>2022-05-24T07:31:24Z</time>
      </trkpt>
      <trkpt lat="44.91171" lon="1.66447">
        <ele>243</ele>
        <time>2022-05-24T07:31:25Z</time>
      </trkpt>
      <trkpt lat="44.91168" lon="1.66451">
        <ele>243.4</ele>
        <time>2022-05-24T07:31:26Z</time>
      </trkpt>
      <trkpt lat="44.91167" lon="1.66452">
        <ele>243.6</ele>
        <time>2022-05-24T07:31:27Z</time>
      </trkpt>
      <trkpt lat="44.91165" lon="1.66455">
        <ele>243.9</ele>
        <time>2022-05-24T07:31:28Z</time>
      </trkpt>
      <trkpt lat="44.91163" lon="1.66458">
        <ele>244.2</ele>
        <time>2022-05-24T07:31:29Z</time>
      </trkpt>
      <trkpt lat="44.91161" lon="1.66461">
        <ele>244.4</ele>
        <time>2022-05-24T07:31:30Z</time>
      </trkpt>
      <trkpt lat="44.91159" lon="1.66464">
        <ele>244.7</ele>
        <time>2022-05-24T07:31:31Z</time>
      </trkpt>
      <trkpt lat="44.91157" lon="1.66468">
        <ele>245.1</ele>
        <time>2022-05-24T07:31:32Z</time>
      </trkpt>
      <trkpt lat="44.91156" lon="1.66469">
        <ele>245.2</ele>
        <time>2022-05-24T07:31:33Z</time>
      </trkpt>
      <trkpt lat="44.91154" lon="1.66474">
        <ele>245.6</ele>
        <time>2022-05-24T07:31:34Z</time>
      </trkpt>
      <trkpt lat="44.91153" lon="1.66475">
        <ele>245.7</ele>
        <time>2022-05-24T07:31:35Z</time>
      </trkpt>
      <trkpt lat="44.91151" lon="1.66478">
        <ele>246</ele>
        <time>2022-05-24T07:31:36Z</time>
      </trkpt>
      <trkpt lat="44.91149" lon="1.66481">
        <ele>246.2</ele>
        <time>2022-05-24T07:31:37Z</time>
      </trkpt>
      <trkpt lat="44.91146" lon="1.66484">
        <ele>246.5</ele>
        <time>2022-05-24T07:31:38Z</time>
      </trkpt>
      <trkpt lat="44.91144" lon="1.66487">
        <ele>246.8</ele>
        <time>2022-05-24T07:31:39Z</time>
      </trkpt>
      <trkpt lat="44.91142" lon="1.6649">
        <ele>247</ele>
        <time>2022-05-24T07:31:40Z</time>
      </trkpt>
      <trkpt lat="44.9114" lon="1.66493">
        <ele>247.3</ele>
        <time>2022-05-24T07:31:41Z</time>
      </trkpt>
      <trkpt lat="44.91138" lon="1.66496">
        <ele>247.6</ele>
        <time>2022-05-24T07:31:42Z</time>
      </trkpt>
      <trkpt lat="44.91135" lon="1.66499">
        <ele>247.9</ele>
        <time>2022-05-24T07:31:43Z</time>
      </trkpt>
      <trkpt lat="44.91133" lon="1.66502">
        <ele>248.2</ele>
        <time>2022-05-24T07:31:44Z</time>
      </trkpt>
      <trkpt lat="44.9113" lon="1.66505">
        <ele>248.4</ele>
        <time>2022-05-24T07:31:45Z</time>
      </trkpt>
      <trkpt lat="44.91128" lon="1.66507">
        <ele>248.7</ele>
        <time>2022-05-24T07:31:46Z</time>
      </trkpt>
      <trkpt lat="44.91126" lon="1.6651">
        <ele>248.9</ele>
        <time>2022-05-24T07:31:47Z</time>
      </trkpt>
      <trkpt lat="44.91124" lon="1.66513">
        <ele>249.1</ele>
        <time>2022-05-24T07:31:48Z</time>
      </trkpt>
      <trkpt lat="44.91121" lon="1.66516">
        <ele>249.3</ele>
        <time>2022-05-24T07:31:49Z</time>
      </trkpt>
      <trkpt lat="44.91118" lon="1.66519">
        <ele>249.5</ele>
        <time>2022-05-24T07:31:50Z</time>
      </trkpt>
      <trkpt lat="44.91116" lon="1.66523">
        <ele>249.8</ele>
        <time>2022-05-24T07:31:51Z</time>
      </trkpt>
      <trkpt lat="44.91114" lon="1.66526">
        <ele>250</ele>
        <time>2022-05-24T07:31:52Z</time>
      </trkpt>
      <trkpt lat="44.91112" lon="1.66531">
        <ele>250.3</ele>
        <time>2022-05-24T07:31:53Z</time>
      </trkpt>
      <trkpt lat="44.91111" lon="1.66532">
        <ele>250.4</ele>
        <time>2022-05-24T07:31:54Z</time>
      </trkpt>
      <trkpt lat="44.9111" lon="1.66536">
        <ele>250.6</ele>
        <time>2022-05-24T07:31:55Z</time>
      </trkpt>
      <trkpt lat="44.91109" lon="1.6654">
        <ele>250.8</ele>
        <time>2022-05-24T07:31:56Z</time>
      </trkpt>
      <trkpt lat="44.91108" lon="1.66545">
        <ele>251.2</ele>
        <time>2022-05-24T07:31:57Z</time>
      </trkpt>
      <trkpt lat="44.91108" lon="1.66547">
        <ele>251.3</ele>
        <time>2022-05-24T07:31:58Z</time>
      </trkpt>
      <trkpt lat="44.91107" lon="1.6655">
        <ele>251.5</ele>
        <time>2022-05-24T07:31:59Z</time>
      </trkpt>
      <trkpt lat="44.91106" lon="1.66554">
        <ele>251.7</ele>
        <time>2022-05-24T07:32:00Z</time>
      </trkpt>
      <trkpt lat="44.91105" lon="1.66558">
        <ele>252</ele>
        <time>2022-05-24T07:32:01Z</time>
      </trkpt>
      <trkpt lat="44.91104" lon="1.66561">
        <ele>252.2</ele>
        <time>2022-05-24T07:32:02Z</time>
      </trkpt>
      <trkpt lat="44.91102" lon="1.66565">
        <ele>252.5</ele>
        <time>2022-05-24T07:32:03Z</time>
      </trkpt>
      <trkpt lat="44.91101" lon="1.66569">
        <ele>252.7</ele>
        <time>2022-05-24T07:32:04Z</time>
      </trkpt>
      <trkpt lat="44.911" lon="1.66573">
        <ele>253</ele>
        <time>2022-05-24T07:32:05Z</time>
      </trkpt>
      <trkpt lat="44.91098" lon="1.66576">
        <ele>253.3</ele>
        <time>2022-05-24T07:32:06Z</time>
      </trkpt>
      <trkpt lat="44.91097" lon="1.6658">
        <ele>253.6</ele>
        <time>2022-05-24T07:32:07Z</time>
      </trkpt>
      <trkpt lat="44.91095" lon="1.66585">
        <ele>254</ele>
        <time>2022-05-24T07:32:08Z</time>
      </trkpt>
      <trkpt lat="44.91095" lon="1.66587">
        <ele>254.1</ele>
        <time>2022-05-24T07:32:09Z</time>
      </trkpt>
      <trkpt lat="44.91094" lon="1.66592">
        <ele>254.5</ele>
        <time>2022-05-24T07:32:10Z</time>
      </trkpt>
      <trkpt lat="44.91093" lon="1.66594">
        <ele>254.7</ele>
        <time>2022-05-24T07:32:11Z</time>
      </trkpt>
      <trkpt lat="44.91093" lon="1.66598">
        <ele>254.9</ele>
        <time>2022-05-24T07:32:12Z</time>
      </trkpt>
      <trkpt lat="44.91092" lon="1.66601">
        <ele>255.2</ele>
        <time>2022-05-24T07:32:13Z</time>
      </trkpt>
      <trkpt lat="44.91091" lon="1.66605">
        <ele>255.4</ele>
        <time>2022-05-24T07:32:14Z</time>
      </trkpt>
      <trkpt lat="44.9109" lon="1.66611">
        <ele>255.8</ele>
        <time>2022-05-24T07:32:15Z</time>
      </trkpt>
      <trkpt lat="44.91089" lon="1.66613">
        <ele>256</ele>
        <time>2022-05-24T07:32:16Z</time>
      </trkpt>
      <trkpt lat="44.91089" lon="1.66616">
        <ele>256.2</ele>
        <time>2022-05-24T07:32:17Z</time>
      </trkpt>
      <trkpt lat="44.91087" lon="1.66622">
        <ele>256.6</ele>
        <time>2022-05-24T07:32:18Z</time>
      </trkpt>
      <trkpt lat="44.91087" lon="1.66624">
        <ele>256.8</ele>
        <time>2022-05-24T07:32:19Z</time>
      </trkpt>
      <trkpt lat="44.91086" lon="1.66627">
        <ele>257</ele>
        <time>2022-05-24T07:32:20Z</time>
      </trkpt>
      <trkpt lat="44.91085" lon="1.66631">
        <ele>257.3</ele>
        <time>2022-05-24T07:32:21Z</time>
      </trkpt>
      <trkpt lat="44.91085" lon="1.66635">
        <ele>257.6</ele>
        <time>2022-05-24T07:32:22Z</time>
      </trkpt>
      <trkpt lat="44.91083" lon="1.66641">
        <ele>257.9</ele>
        <time>2022-05-24T07:32:23Z</time>
      </trkpt>
      <trkpt lat="44.91083" lon="1.66643">
        <ele>258.1</ele>
        <time>2022-05-24T07:32:24Z</time>
      </trkpt>
      <trkpt lat="44.91082" lon="1.66646">
        <ele>258.3</ele>
        <time>2022-05-24T07:32:25Z</time>
      </trkpt>
      <trkpt lat="44.91081" lon="1.6665">
        <ele>258.5</ele>
        <time>2022-05-24T07:32:26Z</time>
      </trkpt>
      <trkpt lat="44.9108" lon="1.66654">
        <ele>258.8</ele>
        <time>2022-05-24T07:32:27Z</time>
      </trkpt>
      <trkpt lat="44.91078" lon="1.66658">
        <ele>259</ele>
        <time>2022-05-24T07:32:28Z</time>
      </trkpt>
      <trkpt lat="44.91077" lon="1.66662">
        <ele>259.2</ele>
        <time>2022-05-24T07:32:29Z</time>
      </trkpt>
      <trkpt lat="44.91075" lon="1.66666">
        <ele>259.4</ele>
        <time>2022-05-24T07:32:30Z</time>
      </trkpt>
      <trkpt lat="44.91074" lon="1.6667">
        <ele>259.6</ele>
        <time>2022-05-24T07:32:31Z</time>
      </trkpt>
      <trkpt lat="44.91073" lon="1.66674">
        <ele>259.9</ele>
        <time>2022-05-24T07:32:32Z</time>
      </trkpt>
      <trkpt lat="44.91072" lon="1.66678">
        <ele>260.1</ele>
        <time>2022-05-24T07:32:33Z</time>
      </trkpt>
      <trkpt lat="44.91071" lon="1.66682">
        <ele>260.3</ele>
        <time>2022-05-24T07:32:34Z</time>
      </trkpt>
      <trkpt lat="44.9107" lon="1.66687">
        <ele>260.5</ele>
        <time>2022-05-24T07:32:35Z</time>
      </trkpt>
      <trkpt lat="44.91069" lon="1.6669">
        <ele>260.7</ele>
        <time>2022-05-24T07:32:36Z</time>
      </trkpt>
      <trkpt lat="44.91068" lon="1.66694">
        <ele>261</ele>
        <time>2022-05-24T07:32:37Z</time>
      </trkpt>
      <trkpt lat="44.91066" lon="1.66699">
        <ele>261.2</ele>
        <time>2022-05-24T07:32:38Z</time>
      </trkpt>
      <trkpt lat="44.91065" lon="1.66703">
        <ele>261.4</ele>
        <time>2022-05-24T07:32:39Z</time>
      </trkpt>
      <trkpt lat="44.91063" lon="1.66707">
        <ele>261.7</ele>
        <time>2022-05-24T07:32:40Z</time>
      </trkpt>
      <trkpt lat="44.91062" lon="1.66711">
        <ele>261.9</ele>
        <time>2022-05-24T07:32:41Z</time>
      </trkpt>
      <trkpt lat="44.9106" lon="1.66716">
        <ele>262.1</ele>
        <time>2022-05-24T07:32:42Z</time>
      </trkpt>
      <trkpt lat="44.91059" lon="1.6672">
        <ele>262.4</ele>
        <time>2022-05-24T07:32:43Z</time>
      </trkpt>
      <trkpt lat="44.91057" lon="1.66724">
        <ele>262.6</ele>
        <time>2022-05-24T07:32:44Z</time>
      </trkpt>
      <trkpt lat="44.91055" lon="1.66728">
        <ele>262.8</ele>
        <time>2022-05-24T07:32:45Z</time>
      </trkpt>
      <trkpt lat="44.91053" lon="1.66733">
        <ele>263</ele>
        <time>2022-05-24T07:32:46Z</time>
      </trkpt>
      <trkpt lat="44.9105" lon="1.66737">
        <ele>263.2</ele>
        <time>2022-05-24T07:32:47Z</time>
      </trkpt>
      <trkpt lat="44.91048" lon="1.66742">
        <ele>263.4</ele>
        <time>2022-05-24T07:32:48Z</time>
      </trkpt>
      <trkpt lat="44.91046" lon="1.66746">
        <ele>263.6</ele>
        <time>2022-05-24T07:32:49Z</time>
      </trkpt>
      <trkpt lat="44.91044" lon="1.66751">
        <ele>263.7</ele>
        <time>2022-05-24T07:32:50Z</time>
      </trkpt>
      <trkpt lat="44.91043" lon="1.66756">
        <ele>263.9</ele>
        <time>2022-05-24T07:32:51Z</time>
      </trkpt>
      <trkpt lat="44.91041" lon="1.6676">
        <ele>264</ele>
        <time>2022-05-24T07:32:52Z</time>
      </trkpt>
      <trkpt lat="44.91039" lon="1.66765">
        <ele>264.2</ele>
        <time>2022-05-24T07:32:53Z</time>
      </trkpt>
      <trkpt lat="44.91037" lon="1.6677">
        <ele>264.4</ele>
        <time>2022-05-24T07:32:54Z</time>
      </trkpt>
      <trkpt lat="44.91035" lon="1.66775">
        <ele>264.5</ele>
        <time>2022-05-24T07:32:55Z</time>
      </trkpt>
      <trkpt lat="44.91033" lon="1.66779">
        <ele>264.7</ele>
        <time>2022-05-24T07:32:56Z</time>
      </trkpt>
      <trkpt lat="44.91032" lon="1.66784">
        <ele>264.8</ele>
        <time>2022-05-24T07:32:57Z</time>
      </trkpt>
      <trkpt lat="44.9103" lon="1.66788">
        <ele>265</ele>
        <time>2022-05-24T07:32:58Z</time>
      </trkpt>
      <trkpt lat="44.91029" lon="1.66792">
        <ele>265.1</ele>
        <time>2022-05-24T07:32:59Z</time>
      </trkpt>
      <trkpt lat="44.91027" lon="1.66797">
        <ele>265.3</ele>
        <time>2022-05-24T07:33:00Z</time>
      </trkpt>
      <trkpt lat="44.91025" lon="1.66801">
        <ele>265.5</ele>
        <time>2022-05-24T07:33:01Z</time>
      </trkpt>
      <trkpt lat="44.91024" lon="1.66805">
        <ele>265.7</ele>
        <time>2022-05-24T07:33:02Z</time>
      </trkpt>
      <trkpt lat="44.91022" lon="1.66809">
        <ele>265.9</ele>
        <time>2022-05-24T07:33:03Z</time>
      </trkpt>
      <trkpt lat="44.91021" lon="1.66813">
        <ele>266</ele>
        <time>2022-05-24T07:33:04Z</time>
      </trkpt>
      <trkpt lat="44.91019" lon="1.66817">
        <ele>266.2</ele>
        <time>2022-05-24T07:33:05Z</time>
      </trkpt>
      <trkpt lat="44.91018" lon="1.66821">
        <ele>266.4</ele>
        <time>2022-05-24T07:33:06Z</time>
      </trkpt>
      <trkpt lat="44.91016" lon="1.66826">
        <ele>266.6</ele>
        <time>2022-05-24T07:33:07Z</time>
      </trkpt>
      <trkpt lat="44.91015" lon="1.6683">
        <ele>266.8</ele>
        <time>2022-05-24T07:33:08Z</time>
      </trkpt>
      <trkpt lat="44.91014" lon="1.66835">
        <ele>267</ele>
        <time>2022-05-24T07:33:09Z</time>
      </trkpt>
      <trkpt lat="44.91013" lon="1.66839">
        <ele>267.2</ele>
        <time>2022-05-24T07:33:10Z</time>
      </trkpt>
      <trkpt lat="44.91012" lon="1.66843">
        <ele>267.3</ele>
        <time>2022-05-24T07:33:11Z</time>
      </trkpt>
      <trkpt lat="44.91012" lon="1.66847">
        <ele>267.5</ele>
        <time>2022-05-24T07:33:12Z</time>
      </trkpt>
      <trkpt lat="44.91011" lon="1.66852">
        <ele>267.8</ele>
        <time>2022-05-24T07:33:13Z</time>
      </trkpt>
      <trkpt lat="44.9101" lon="1.66856">
        <ele>268</ele>
        <time>2022-05-24T07:33:14Z</time>
      </trkpt>
      <trkpt lat="44.91008" lon="1.66861">
        <ele>268.2</ele>
        <time>2022-05-24T07:33:15Z</time>
      </trkpt>
      <trkpt lat="44.91007" lon="1.66865">
        <ele>268.5</ele>
        <time>2022-05-24T07:33:16Z</time>
      </trkpt>
      <trkpt lat="44.91006" lon="1.66869">
        <ele>268.7</ele>
        <time>2022-05-24T07:33:17Z</time>
      </trkpt>
      <trkpt lat="44.91005" lon="1.66874">
        <ele>269</ele>
        <time>2022-05-24T07:33:18Z</time>
      </trkpt>
      <trkpt lat="44.91003" lon="1.66878">
        <ele>269.2</ele>
        <time>2022-05-24T07:33:19Z</time>
      </trkpt>
      <trkpt lat="44.91001" lon="1.66882">
        <ele>269.4</ele>
        <time>2022-05-24T07:33:20Z</time>
      </trkpt>
      <trkpt lat="44.91" lon="1.66887">
        <ele>269.7</ele>
        <time>2022-05-24T07:33:21Z</time>
      </trkpt>
      <trkpt lat="44.90998" lon="1.66891">
        <ele>269.9</ele>
        <time>2022-05-24T07:33:22Z</time>
      </trkpt>
      <trkpt lat="44.90996" lon="1.66895">
        <ele>270.2</ele>
        <time>2022-05-24T07:33:23Z</time>
      </trkpt>
      <trkpt lat="44.90995" lon="1.66899">
        <ele>270.4</ele>
        <time>2022-05-24T07:33:24Z</time>
      </trkpt>
      <trkpt lat="44.90993" lon="1.66903">
        <ele>270.6</ele>
        <time>2022-05-24T07:33:25Z</time>
      </trkpt>
      <trkpt lat="44.90992" lon="1.66907">
        <ele>270.9</ele>
        <time>2022-05-24T07:33:26Z</time>
      </trkpt>
      <trkpt lat="44.9099" lon="1.66911">
        <ele>271.1</ele>
        <time>2022-05-24T07:33:27Z</time>
      </trkpt>
      <trkpt lat="44.90988" lon="1.66916">
        <ele>271.4</ele>
        <time>2022-05-24T07:33:28Z</time>
      </trkpt>
      <trkpt lat="44.90987" lon="1.6692">
        <ele>271.6</ele>
        <time>2022-05-24T07:33:29Z</time>
      </trkpt>
      <trkpt lat="44.90985" lon="1.66924">
        <ele>271.9</ele>
        <time>2022-05-24T07:33:30Z</time>
      </trkpt>
      <trkpt lat="44.90983" lon="1.66928">
        <ele>272.1</ele>
        <time>2022-05-24T07:33:31Z</time>
      </trkpt>
      <trkpt lat="44.90981" lon="1.66931">
        <ele>272.3</ele>
        <time>2022-05-24T07:33:32Z</time>
      </trkpt>
      <trkpt lat="44.90979" lon="1.66935">
        <ele>272.6</ele>
        <time>2022-05-24T07:33:33Z</time>
      </trkpt>
      <trkpt lat="44.90978" lon="1.66939">
        <ele>272.9</ele>
        <time>2022-05-24T07:33:34Z</time>
      </trkpt>
      <trkpt lat="44.90976" lon="1.66943">
        <ele>273.1</ele>
        <time>2022-05-24T07:33:35Z</time>
      </trkpt>
      <trkpt lat="44.90975" lon="1.66948">
        <ele>273.4</ele>
        <time>2022-05-24T07:33:36Z</time>
      </trkpt>
      <trkpt lat="44.90974" lon="1.66952">
        <ele>273.7</ele>
        <time>2022-05-24T07:33:37Z</time>
      </trkpt>
      <trkpt lat="44.90972" lon="1.66957">
        <ele>274</ele>
        <time>2022-05-24T07:33:38Z</time>
      </trkpt>
      <trkpt lat="44.90971" lon="1.66961">
        <ele>274.3</ele>
        <time>2022-05-24T07:33:39Z</time>
      </trkpt>
      <trkpt lat="44.90969" lon="1.66965">
        <ele>274.6</ele>
        <time>2022-05-24T07:33:40Z</time>
      </trkpt>
      <trkpt lat="44.90968" lon="1.6697">
        <ele>274.9</ele>
        <time>2022-05-24T07:33:41Z</time>
      </trkpt>
      <trkpt lat="44.90966" lon="1.66974">
        <ele>275.2</ele>
        <time>2022-05-24T07:33:42Z</time>
      </trkpt>
      <trkpt lat="44.90965" lon="1.66978">
        <ele>275.5</ele>
        <time>2022-05-24T07:33:43Z</time>
      </trkpt>
      <trkpt lat="44.90964" lon="1.66982">
        <ele>275.7</ele>
        <time>2022-05-24T07:33:44Z</time>
      </trkpt>
      <trkpt lat="44.90963" lon="1.66987">
        <ele>276</ele>
        <time>2022-05-24T07:33:45Z</time>
      </trkpt>
      <trkpt lat="44.90962" lon="1.66992">
        <ele>276.3</ele>
        <time>2022-05-24T07:33:46Z</time>
      </trkpt>
      <trkpt lat="44.90961" lon="1.66996">
        <ele>276.6</ele>
        <time>2022-05-24T07:33:47Z</time>
      </trkpt>
      <trkpt lat="44.9096" lon="1.67001">
        <ele>276.9</ele>
        <time>2022-05-24T07:33:48Z</time>
      </trkpt>
      <trkpt lat="44.90959" lon="1.67006">
        <ele>277.1</ele>
        <time>2022-05-24T07:33:49Z</time>
      </trkpt>
      <trkpt lat="44.90957" lon="1.67011">
        <ele>277.4</ele>
        <time>2022-05-24T07:33:50Z</time>
      </trkpt>
      <trkpt lat="44.90956" lon="1.67015">
        <ele>277.7</ele>
        <time>2022-05-24T07:33:51Z</time>
      </trkpt>
      <trkpt lat="44.90955" lon="1.6702">
        <ele>277.9</ele>
        <time>2022-05-24T07:33:52Z</time>
      </trkpt>
      <trkpt lat="44.90953" lon="1.67024">
        <ele>278.2</ele>
        <time>2022-05-24T07:33:53Z</time>
      </trkpt>
      <trkpt lat="44.90951" lon="1.67029">
        <ele>278.4</ele>
        <time>2022-05-24T07:33:54Z</time>
      </trkpt>
      <trkpt lat="44.9095" lon="1.67034">
        <ele>278.7</ele>
        <time>2022-05-24T07:33:55Z</time>
      </trkpt>
      <trkpt lat="44.90949" lon="1.67038">
        <ele>278.9</ele>
        <time>2022-05-24T07:33:56Z</time>
      </trkpt>
      <trkpt lat="44.90947" lon="1.67043">
        <ele>279.2</ele>
        <time>2022-05-24T07:33:57Z</time>
      </trkpt>
      <trkpt lat="44.90946" lon="1.67048">
        <ele>279.4</ele>
        <time>2022-05-24T07:33:58Z</time>
      </trkpt>
      <trkpt lat="44.90944" lon="1.67053">
        <ele>279.7</ele>
        <time>2022-05-24T07:33:59Z</time>
      </trkpt>
      <trkpt lat="44.90942" lon="1.67057">
        <ele>279.9</ele>
        <time>2022-05-24T07:34:00Z</time>
      </trkpt>
      <trkpt lat="44.90941" lon="1.67062">
        <ele>280.2</ele>
        <time>2022-05-24T07:34:01Z</time>
      </trkpt>
      <trkpt lat="44.90939" lon="1.67067">
        <ele>280.4</ele>
        <time>2022-05-24T07:34:02Z</time>
      </trkpt>
      <trkpt lat="44.90938" lon="1.67071">
        <ele>280.6</ele>
        <time>2022-05-24T07:34:03Z</time>
      </trkpt>
      <trkpt lat="44.90936" lon="1.67076">
        <ele>280.9</ele>
        <time>2022-05-24T07:34:04Z</time>
      </trkpt>
      <trkpt lat="44.90934" lon="1.6708">
        <ele>281.1</ele>
        <time>2022-05-24T07:34:05Z</time>
      </trkpt>
      <trkpt lat="44.90932" lon="1.67085">
        <ele>281.4</ele>
        <time>2022-05-24T07:34:06Z</time>
      </trkpt>
      <trkpt lat="44.9093" lon="1.6709">
        <ele>281.6</ele>
        <time>2022-05-24T07:34:07Z</time>
      </trkpt>
      <trkpt lat="44.90928" lon="1.67095">
        <ele>281.9</ele>
        <time>2022-05-24T07:34:08Z</time>
      </trkpt>
      <trkpt lat="44.90926" lon="1.671">
        <ele>282.1</ele>
        <time>2022-05-24T07:34:09Z</time>
      </trkpt>
      <trkpt lat="44.90924" lon="1.67104">
        <ele>282.3</ele>
        <time>2022-05-24T07:34:10Z</time>
      </trkpt>
      <trkpt lat="44.90922" lon="1.67109">
        <ele>282.5</ele>
        <time>2022-05-24T07:34:11Z</time>
      </trkpt>
      <trkpt lat="44.9092" lon="1.67114">
        <ele>282.7</ele>
        <time>2022-05-24T07:34:12Z</time>
      </trkpt>
      <trkpt lat="44.90919" lon="1.6712">
        <ele>282.9</ele>
        <time>2022-05-24T07:34:13Z</time>
      </trkpt>
      <trkpt lat="44.90917" lon="1.67125">
        <ele>283.1</ele>
        <time>2022-05-24T07:34:14Z</time>
      </trkpt>
      <trkpt lat="44.90915" lon="1.67131">
        <ele>283.3</ele>
        <time>2022-05-24T07:34:15Z</time>
      </trkpt>
      <trkpt lat="44.90914" lon="1.67136">
        <ele>283.5</ele>
        <time>2022-05-24T07:34:16Z</time>
      </trkpt>
      <trkpt lat="44.90912" lon="1.67141">
        <ele>283.7</ele>
        <time>2022-05-24T07:34:17Z</time>
      </trkpt>
      <trkpt lat="44.9091" lon="1.67147">
        <ele>283.8</ele>
        <time>2022-05-24T07:34:18Z</time>
      </trkpt>
      <trkpt lat="44.90908" lon="1.67153">
        <ele>284</ele>
        <time>2022-05-24T07:34:19Z</time>
      </trkpt>
      <trkpt lat="44.90906" lon="1.67158">
        <ele>284.1</ele>
        <time>2022-05-24T07:34:20Z</time>
      </trkpt>
      <trkpt lat="44.90904" lon="1.67164">
        <ele>284.3</ele>
        <time>2022-05-24T07:34:21Z</time>
      </trkpt>
      <trkpt lat="44.90903" lon="1.6717">
        <ele>284.5</ele>
        <time>2022-05-24T07:34:22Z</time>
      </trkpt>
      <trkpt lat="44.90901" lon="1.67175">
        <ele>284.6</ele>
        <time>2022-05-24T07:34:23Z</time>
      </trkpt>
      <trkpt lat="44.90899" lon="1.67182">
        <ele>284.8</ele>
        <time>2022-05-24T07:34:24Z</time>
      </trkpt>
      <trkpt lat="44.90897" lon="1.67188">
        <ele>284.9</ele>
        <time>2022-05-24T07:34:25Z</time>
      </trkpt>
      <trkpt lat="44.90896" lon="1.67194">
        <ele>285</ele>
        <time>2022-05-24T07:34:26Z</time>
      </trkpt>
      <trkpt lat="44.90894" lon="1.67201">
        <ele>285.1</ele>
        <time>2022-05-24T07:34:27Z</time>
      </trkpt>
      <trkpt lat="44.90892" lon="1.67207">
        <ele>285.2</ele>
        <time>2022-05-24T07:34:28Z</time>
      </trkpt>
      <trkpt lat="44.9089" lon="1.67213">
        <ele>285.3</ele>
        <time>2022-05-24T07:34:29Z</time>
      </trkpt>
      <trkpt lat="44.90888" lon="1.67219">
        <ele>285.4</ele>
        <time>2022-05-24T07:34:30Z</time>
      </trkpt>
      <trkpt lat="44.90885" lon="1.67225">
        <ele>285.5</ele>
        <time>2022-05-24T07:34:31Z</time>
      </trkpt>
      <trkpt lat="44.90883" lon="1.67231">
        <ele>285.6</ele>
        <time>2022-05-24T07:34:32Z</time>
      </trkpt>
      <trkpt lat="44.90881" lon="1.67237">
        <ele>285.7</ele>
        <time>2022-05-24T07:34:33Z</time>
      </trkpt>
      <trkpt lat="44.90879" lon="1.67243">
        <ele>285.7</ele>
        <time>2022-05-24T07:34:34Z</time>
      </trkpt>
      <trkpt lat="44.90877" lon="1.67248">
        <ele>285.8</ele>
        <time>2022-05-24T07:34:35Z</time>
      </trkpt>
      <trkpt lat="44.90875" lon="1.67254">
        <ele>285.8</ele>
        <time>2022-05-24T07:34:36Z</time>
      </trkpt>
      <trkpt lat="44.90874" lon="1.6726">
        <ele>285.9</ele>
        <time>2022-05-24T07:34:37Z</time>
      </trkpt>
      <trkpt lat="44.90872" lon="1.67267">
        <ele>285.9</ele>
        <time>2022-05-24T07:34:38Z</time>
      </trkpt>
      <trkpt lat="44.90869" lon="1.67273">
        <ele>285.9</ele>
        <time>2022-05-24T07:34:39Z</time>
      </trkpt>
      <trkpt lat="44.90866" lon="1.6728">
        <ele>285.9</ele>
        <time>2022-05-24T07:34:40Z</time>
      </trkpt>
      <trkpt lat="44.90863" lon="1.67287">
        <ele>285.9</ele>
        <time>2022-05-24T07:34:41Z</time>
      </trkpt>
      <trkpt lat="44.9086" lon="1.67293">
        <ele>285.9</ele>
        <time>2022-05-24T07:34:42Z</time>
      </trkpt>
      <trkpt lat="44.90857" lon="1.673">
        <ele>285.9</ele>
        <time>2022-05-24T07:34:43Z</time>
      </trkpt>
      <trkpt lat="44.90854" lon="1.67306">
        <ele>285.9</ele>
        <time>2022-05-24T07:34:44Z</time>
      </trkpt>
      <trkpt lat="44.90851" lon="1.67311">
        <ele>285.9</ele>
        <time>2022-05-24T07:34:45Z</time>
      </trkpt>
      <trkpt lat="44.90848" lon="1.67317">
        <ele>285.9</ele>
        <time>2022-05-24T07:34:46Z</time>
      </trkpt>
      <trkpt lat="44.90846" lon="1.67322">
        <ele>285.9</ele>
        <time>2022-05-24T07:34:47Z</time>
      </trkpt>
      <trkpt lat="44.90843" lon="1.67328">
        <ele>286</ele>
        <time>2022-05-24T07:34:48Z</time>
      </trkpt>
      <trkpt lat="44.9084" lon="1.67334">
        <ele>286</ele>
        <time>2022-05-24T07:34:49Z</time>
      </trkpt>
      <trkpt lat="44.90838" lon="1.6734">
        <ele>286</ele>
        <time>2022-05-24T07:34:50Z</time>
      </trkpt>
      <trkpt lat="44.90835" lon="1.67347">
        <ele>286</ele>
        <time>2022-05-24T07:34:51Z</time>
      </trkpt>
      <trkpt lat="44.90832" lon="1.67352">
        <ele>286</ele>
        <time>2022-05-24T07:34:52Z</time>
      </trkpt>
      <trkpt lat="44.90827" lon="1.67357">
        <ele>285.8</ele>
        <time>2022-05-24T07:34:53Z</time>
      </trkpt>
      <trkpt lat="44.90823" lon="1.67362">
        <ele>285.8</ele>
        <time>2022-05-24T07:34:54Z</time>
      </trkpt>
      <trkpt lat="44.90819" lon="1.67366">
        <ele>285.6</ele>
        <time>2022-05-24T07:34:55Z</time>
      </trkpt>
      <trkpt lat="44.90814" lon="1.67371">
        <ele>285.5</ele>
        <time>2022-05-24T07:34:56Z</time>
      </trkpt>
      <trkpt lat="44.90809" lon="1.67376">
        <ele>285.5</ele>
        <time>2022-05-24T07:34:57Z</time>
      </trkpt>
      <trkpt lat="44.90804" lon="1.6738">
        <ele>285.4</ele>
        <time>2022-05-24T07:34:58Z</time>
      </trkpt>
      <trkpt lat="44.90799" lon="1.67384">
        <ele>285.4</ele>
        <time>2022-05-24T07:34:59Z</time>
      </trkpt>
      <trkpt lat="44.90793" lon="1.67386">
        <ele>285.3</ele>
        <time>2022-05-24T07:35:00Z</time>
      </trkpt>
      <trkpt lat="44.90787" lon="1.67388">
        <ele>285.3</ele>
        <time>2022-05-24T07:35:01Z</time>
      </trkpt>
      <trkpt lat="44.9078" lon="1.6739">
        <ele>285.3</ele>
        <time>2022-05-24T07:35:02Z</time>
      </trkpt>
      <trkpt lat="44.90775" lon="1.67391">
        <ele>285.4</ele>
        <time>2022-05-24T07:35:03Z</time>
      </trkpt>
      <trkpt lat="44.9077" lon="1.6739">
        <ele>285.5</ele>
        <time>2022-05-24T07:35:04Z</time>
      </trkpt>
      <trkpt lat="44.90765" lon="1.67391">
        <ele>285.6</ele>
        <time>2022-05-24T07:35:05Z</time>
      </trkpt>
      <trkpt lat="44.9076" lon="1.67391">
        <ele>285.8</ele>
        <time>2022-05-24T07:35:06Z</time>
      </trkpt>
      <trkpt lat="44.90755" lon="1.67392">
        <ele>286</ele>
        <time>2022-05-24T07:35:07Z</time>
      </trkpt>
      <trkpt lat="44.90751" lon="1.67393">
        <ele>286.1</ele>
        <time>2022-05-24T07:35:08Z</time>
      </trkpt>
      <trkpt lat="44.90746" lon="1.67394">
        <ele>286.4</ele>
        <time>2022-05-24T07:35:09Z</time>
      </trkpt>
      <trkpt lat="44.90741" lon="1.67394">
        <ele>286.6</ele>
        <time>2022-05-24T07:35:10Z</time>
      </trkpt>
      <trkpt lat="44.90737" lon="1.67393">
        <ele>287</ele>
        <time>2022-05-24T07:35:11Z</time>
      </trkpt>
      <trkpt lat="44.90732" lon="1.67393">
        <ele>287.3</ele>
        <time>2022-05-24T07:35:12Z</time>
      </trkpt>
      <trkpt lat="44.90727" lon="1.67391">
        <ele>287.7</ele>
        <time>2022-05-24T07:35:13Z</time>
      </trkpt>
      <trkpt lat="44.90722" lon="1.67389">
        <ele>288.2</ele>
        <time>2022-05-24T07:35:14Z</time>
      </trkpt>
      <trkpt lat="44.90718" lon="1.67386">
        <ele>288.5</ele>
        <time>2022-05-24T07:35:15Z</time>
      </trkpt>
      <trkpt lat="44.90715" lon="1.67383">
        <ele>288.8</ele>
        <time>2022-05-24T07:35:16Z</time>
      </trkpt>
      <trkpt lat="44.90712" lon="1.67379">
        <ele>289</ele>
        <time>2022-05-24T07:35:17Z</time>
      </trkpt>
      <trkpt lat="44.9071" lon="1.67375">
        <ele>289.3</ele>
        <time>2022-05-24T07:35:18Z</time>
      </trkpt>
      <trkpt lat="44.90708" lon="1.67371">
        <ele>289.6</ele>
        <time>2022-05-24T07:35:19Z</time>
      </trkpt>
      <trkpt lat="44.90706" lon="1.67368">
        <ele>289.9</ele>
        <time>2022-05-24T07:35:20Z</time>
      </trkpt>
      <trkpt lat="44.90704" lon="1.67364">
        <ele>290.2</ele>
        <time>2022-05-24T07:35:21Z</time>
      </trkpt>
      <trkpt lat="44.90701" lon="1.6736">
        <ele>290.5</ele>
        <time>2022-05-24T07:35:22Z</time>
      </trkpt>
      <trkpt lat="44.90699" lon="1.67355">
        <ele>290.9</ele>
        <time>2022-05-24T07:35:23Z</time>
      </trkpt>
      <trkpt lat="44.90697" lon="1.67351">
        <ele>291.1</ele>
        <time>2022-05-24T07:35:24Z</time>
      </trkpt>
      <trkpt lat="44.90696" lon="1.67347">
        <ele>291.4</ele>
        <time>2022-05-24T07:35:25Z</time>
      </trkpt>
      <trkpt lat="44.90694" lon="1.67343">
        <ele>291.7</ele>
        <time>2022-05-24T07:35:26Z</time>
      </trkpt>
      <trkpt lat="44.90693" lon="1.67339">
        <ele>292</ele>
        <time>2022-05-24T07:35:27Z</time>
      </trkpt>
      <trkpt lat="44.90691" lon="1.67335">
        <ele>292.2</ele>
        <time>2022-05-24T07:35:28Z</time>
      </trkpt>
      <trkpt lat="44.9069" lon="1.67331">
        <ele>292.5</ele>
        <time>2022-05-24T07:35:29Z</time>
      </trkpt>
      <trkpt lat="44.90688" lon="1.67327">
        <ele>292.9</ele>
        <time>2022-05-24T07:35:30Z</time>
      </trkpt>
      <trkpt lat="44.90688" lon="1.67325">
        <ele>293</ele>
        <time>2022-05-24T07:35:31Z</time>
      </trkpt>
      <trkpt lat="44.90686" lon="1.67322">
        <ele>293.3</ele>
        <time>2022-05-24T07:35:32Z</time>
      </trkpt>
      <trkpt lat="44.90685" lon="1.6732">
        <ele>293.4</ele>
        <time>2022-05-24T07:35:33Z</time>
      </trkpt>
      <trkpt lat="44.90683" lon="1.67316">
        <ele>293.8</ele>
        <time>2022-05-24T07:35:34Z</time>
      </trkpt>
      <trkpt lat="44.90682" lon="1.67314">
        <ele>294</ele>
        <time>2022-05-24T07:35:35Z</time>
      </trkpt>
      <trkpt lat="44.9068" lon="1.67311">
        <ele>294.3</ele>
        <time>2022-05-24T07:35:36Z</time>
      </trkpt>
      <trkpt lat="44.90678" lon="1.67307">
        <ele>294.5</ele>
        <time>2022-05-24T07:35:37Z</time>
      </trkpt>
      <trkpt lat="44.90677" lon="1.67304">
        <ele>294.8</ele>
        <time>2022-05-24T07:35:38Z</time>
      </trkpt>
      <trkpt lat="44.90675" lon="1.67301">
        <ele>295</ele>
        <time>2022-05-24T07:35:39Z</time>
      </trkpt>
      <trkpt lat="44.90672" lon="1.67296">
        <ele>295.3</ele>
        <time>2022-05-24T07:35:40Z</time>
      </trkpt>
      <trkpt lat="44.90671" lon="1.67294">
        <ele>295.4</ele>
        <time>2022-05-24T07:35:41Z</time>
      </trkpt>
      <trkpt lat="44.9067" lon="1.67292">
        <ele>295.6</ele>
        <time>2022-05-24T07:35:42Z</time>
      </trkpt>
      <trkpt lat="44.90667" lon="1.67288">
        <ele>295.9</ele>
        <time>2022-05-24T07:35:43Z</time>
      </trkpt>
      <trkpt lat="44.90666" lon="1.67286">
        <ele>296</ele>
        <time>2022-05-24T07:35:44Z</time>
      </trkpt>
      <trkpt lat="44.90663" lon="1.67283">
        <ele>296.3</ele>
        <time>2022-05-24T07:35:45Z</time>
      </trkpt>
      <trkpt lat="44.90662" lon="1.67282">
        <ele>296.4</ele>
        <time>2022-05-24T07:35:46Z</time>
      </trkpt>
      <trkpt lat="44.9066" lon="1.6728">
        <ele>296.6</ele>
        <time>2022-05-24T07:35:47Z</time>
      </trkpt>
      <trkpt lat="44.90657" lon="1.67277">
        <ele>296.9</ele>
        <time>2022-05-24T07:35:48Z</time>
      </trkpt>
      <trkpt lat="44.90656" lon="1.67276">
        <ele>297</ele>
        <time>2022-05-24T07:35:49Z</time>
      </trkpt>
      <trkpt lat="44.90654" lon="1.67273">
        <ele>297.3</ele>
        <time>2022-05-24T07:35:50Z</time>
      </trkpt>
      <trkpt lat="44.90651" lon="1.67269">
        <ele>297.6</ele>
        <time>2022-05-24T07:35:51Z</time>
      </trkpt>
      <trkpt lat="44.90649" lon="1.67268">
        <ele>297.8</ele>
        <time>2022-05-24T07:35:52Z</time>
      </trkpt>
      <trkpt lat="44.90647" lon="1.67265">
        <ele>298</ele>
        <time>2022-05-24T07:35:53Z</time>
      </trkpt>
      <trkpt lat="44.90645" lon="1.67263">
        <ele>298.2</ele>
        <time>2022-05-24T07:35:54Z</time>
      </trkpt>
      <trkpt lat="44.90642" lon="1.6726">
        <ele>298.5</ele>
        <time>2022-05-24T07:35:55Z</time>
      </trkpt>
      <trkpt lat="44.90641" lon="1.67259">
        <ele>298.5</ele>
        <time>2022-05-24T07:35:56Z</time>
      </trkpt>
      <trkpt lat="44.90638" lon="1.67256">
        <ele>298.8</ele>
        <time>2022-05-24T07:35:57Z</time>
      </trkpt>
      <trkpt lat="44.90637" lon="1.67255">
        <ele>298.9</ele>
        <time>2022-05-24T07:35:58Z</time>
      </trkpt>
      <trkpt lat="44.90633" lon="1.67252">
        <ele>299.2</ele>
        <time>2022-05-24T07:35:59Z</time>
      </trkpt>
      <trkpt lat="44.90632" lon="1.67251">
        <ele>299.2</ele>
        <time>2022-05-24T07:36:00Z</time>
      </trkpt>
      <trkpt lat="44.9063" lon="1.6725">
        <ele>299.4</ele>
        <time>2022-05-24T07:36:01Z</time>
      </trkpt>
      <trkpt lat="44.90627" lon="1.67248">
        <ele>299.6</ele>
        <time>2022-05-24T07:36:02Z</time>
      </trkpt>
      <trkpt lat="44.90624" lon="1.67247">
        <ele>299.8</ele>
        <time>2022-05-24T07:36:03Z</time>
      </trkpt>
      <trkpt lat="44.90622" lon="1.67245">
        <ele>299.9</ele>
        <time>2022-05-24T07:36:04Z</time>
      </trkpt>
      <trkpt lat="44.90619" lon="1.67243">
        <ele>300.1</ele>
        <time>2022-05-24T07:36:05Z</time>
      </trkpt>
      <trkpt lat="44.90617" lon="1.6724">
        <ele>300.3</ele>
        <time>2022-05-24T07:36:06Z</time>
      </trkpt>
      <trkpt lat="44.90614" lon="1.67236">
        <ele>300.4</ele>
        <time>2022-05-24T07:36:07Z</time>
      </trkpt>
      <trkpt lat="44.90612" lon="1.67233">
        <ele>300.6</ele>
        <time>2022-05-24T07:36:08Z</time>
      </trkpt>
      <trkpt lat="44.9061" lon="1.67229">
        <ele>300.7</ele>
        <time>2022-05-24T07:36:09Z</time>
      </trkpt>
      <trkpt lat="44.90607" lon="1.67227">
        <ele>300.8</ele>
        <time>2022-05-24T07:36:10Z</time>
      </trkpt>
      <trkpt lat="44.90604" lon="1.67224">
        <ele>300.9</ele>
        <time>2022-05-24T07:36:11Z</time>
      </trkpt>
      <trkpt lat="44.90601" lon="1.67222">
        <ele>301</ele>
        <time>2022-05-24T07:36:12Z</time>
      </trkpt>
      <trkpt lat="44.90598" lon="1.6722">
        <ele>301.1</ele>
        <time>2022-05-24T07:36:13Z</time>
      </trkpt>
      <trkpt lat="44.90595" lon="1.67218">
        <ele>301.2</ele>
        <time>2022-05-24T07:36:14Z</time>
      </trkpt>
      <trkpt lat="44.90592" lon="1.67216">
        <ele>301.4</ele>
        <time>2022-05-24T07:36:15Z</time>
      </trkpt>
      <trkpt lat="44.9059" lon="1.67214">
        <ele>301.5</ele>
        <time>2022-05-24T07:36:16Z</time>
      </trkpt>
      <trkpt lat="44.90586" lon="1.67212">
        <ele>301.6</ele>
        <time>2022-05-24T07:36:17Z</time>
      </trkpt>
      <trkpt lat="44.90583" lon="1.6721">
        <ele>301.8</ele>
        <time>2022-05-24T07:36:18Z</time>
      </trkpt>
      <trkpt lat="44.9058" lon="1.67208">
        <ele>301.9</ele>
        <time>2022-05-24T07:36:19Z</time>
      </trkpt>
      <trkpt lat="44.90577" lon="1.67207">
        <ele>302</ele>
        <time>2022-05-24T07:36:20Z</time>
      </trkpt>
      <trkpt lat="44.90574" lon="1.67205">
        <ele>302.1</ele>
        <time>2022-05-24T07:36:21Z</time>
      </trkpt>
      <trkpt lat="44.90571" lon="1.67204">
        <ele>302.3</ele>
        <time>2022-05-24T07:36:22Z</time>
      </trkpt>
      <trkpt lat="44.90568" lon="1.67202">
        <ele>302.4</ele>
        <time>2022-05-24T07:36:23Z</time>
      </trkpt>
      <trkpt lat="44.90565" lon="1.672">
        <ele>302.6</ele>
        <time>2022-05-24T07:36:24Z</time>
      </trkpt>
      <trkpt lat="44.90562" lon="1.67199">
        <ele>302.7</ele>
        <time>2022-05-24T07:36:25Z</time>
      </trkpt>
      <trkpt lat="44.90559" lon="1.67197">
        <ele>302.9</ele>
        <time>2022-05-24T07:36:26Z</time>
      </trkpt>
      <trkpt lat="44.90556" lon="1.67196">
        <ele>303</ele>
        <time>2022-05-24T07:36:27Z</time>
      </trkpt>
      <trkpt lat="44.90553" lon="1.67195">
        <ele>303.2</ele>
        <time>2022-05-24T07:36:28Z</time>
      </trkpt>
      <trkpt lat="44.9055" lon="1.67194">
        <ele>303.3</ele>
        <time>2022-05-24T07:36:29Z</time>
      </trkpt>
      <trkpt lat="44.90547" lon="1.67193">
        <ele>303.5</ele>
        <time>2022-05-24T07:36:30Z</time>
      </trkpt>
      <trkpt lat="44.90544" lon="1.67192">
        <ele>303.6</ele>
        <time>2022-05-24T07:36:31Z</time>
      </trkpt>
      <trkpt lat="44.90541" lon="1.67191">
        <ele>303.8</ele>
        <time>2022-05-24T07:36:32Z</time>
      </trkpt>
      <trkpt lat="44.90538" lon="1.6719">
        <ele>303.9</ele>
        <time>2022-05-24T07:36:33Z</time>
      </trkpt>
      <trkpt lat="44.90534" lon="1.67189">
        <ele>304.1</ele>
        <time>2022-05-24T07:36:34Z</time>
      </trkpt>
      <trkpt lat="44.90531" lon="1.67188">
        <ele>304.2</ele>
        <time>2022-05-24T07:36:35Z</time>
      </trkpt>
      <trkpt lat="44.90528" lon="1.67187">
        <ele>304.3</ele>
        <time>2022-05-24T07:36:36Z</time>
      </trkpt>
      <trkpt lat="44.90524" lon="1.67186">
        <ele>304.4</ele>
        <time>2022-05-24T07:36:37Z</time>
      </trkpt>
      <trkpt lat="44.90521" lon="1.67184">
        <ele>304.5</ele>
        <time>2022-05-24T07:36:38Z</time>
      </trkpt>
      <trkpt lat="44.90518" lon="1.67183">
        <ele>304.5</ele>
        <time>2022-05-24T07:36:39Z</time>
      </trkpt>
      <trkpt lat="44.90514" lon="1.67182">
        <ele>304.6</ele>
        <time>2022-05-24T07:36:40Z</time>
      </trkpt>
      <trkpt lat="44.9051" lon="1.67182">
        <ele>304.7</ele>
        <time>2022-05-24T07:36:41Z</time>
      </trkpt>
      <trkpt lat="44.90506" lon="1.67182">
        <ele>304.8</ele>
        <time>2022-05-24T07:36:42Z</time>
      </trkpt>
      <trkpt lat="44.90502" lon="1.67183">
        <ele>304.9</ele>
        <time>2022-05-24T07:36:43Z</time>
      </trkpt>
      <trkpt lat="44.90499" lon="1.67184">
        <ele>305</ele>
        <time>2022-05-24T07:36:44Z</time>
      </trkpt>
      <trkpt lat="44.90495" lon="1.67187">
        <ele>305.1</ele>
        <time>2022-05-24T07:36:45Z</time>
      </trkpt>
      <trkpt lat="44.90492" lon="1.6719">
        <ele>305.2</ele>
        <time>2022-05-24T07:36:46Z</time>
      </trkpt>
      <trkpt lat="44.90489" lon="1.67192">
        <ele>305.4</ele>
        <time>2022-05-24T07:36:47Z</time>
      </trkpt>
      <trkpt lat="44.90487" lon="1.67195">
        <ele>305.5</ele>
        <time>2022-05-24T07:36:48Z</time>
      </trkpt>
      <trkpt lat="44.90484" lon="1.67198">
        <ele>305.7</ele>
        <time>2022-05-24T07:36:49Z</time>
      </trkpt>
      <trkpt lat="44.90481" lon="1.672">
        <ele>305.9</ele>
        <time>2022-05-24T07:36:50Z</time>
      </trkpt>
      <trkpt lat="44.90479" lon="1.67204">
        <ele>306</ele>
        <time>2022-05-24T07:36:51Z</time>
      </trkpt>
      <trkpt lat="44.90476" lon="1.67208">
        <ele>306.2</ele>
        <time>2022-05-24T07:36:52Z</time>
      </trkpt>
      <trkpt lat="44.90474" lon="1.67212">
        <ele>306.4</ele>
        <time>2022-05-24T07:36:53Z</time>
      </trkpt>
      <trkpt lat="44.90471" lon="1.67215">
        <ele>306.6</ele>
        <time>2022-05-24T07:36:54Z</time>
      </trkpt>
      <trkpt lat="44.90468" lon="1.67218">
        <ele>306.7</ele>
        <time>2022-05-24T07:36:55Z</time>
      </trkpt>
      <trkpt lat="44.90465" lon="1.6722">
        <ele>306.8</ele>
        <time>2022-05-24T07:36:56Z</time>
      </trkpt>
      <trkpt lat="44.90462" lon="1.67221">
        <ele>306.8</ele>
        <time>2022-05-24T07:36:57Z</time>
      </trkpt>
      <trkpt lat="44.90458" lon="1.67221">
        <ele>306.8</ele>
        <time>2022-05-24T07:36:58Z</time>
      </trkpt>
      <trkpt lat="44.90453" lon="1.67221">
        <ele>306.8</ele>
        <time>2022-05-24T07:36:59Z</time>
      </trkpt>
      <trkpt lat="44.90447" lon="1.6722">
        <ele>306.8</ele>
        <time>2022-05-24T07:37:00Z</time>
      </trkpt>
      <trkpt lat="44.90443" lon="1.67221">
        <ele>306.7</ele>
        <time>2022-05-24T07:37:01Z</time>
      </trkpt>
      <trkpt lat="44.90439" lon="1.67223">
        <ele>306.7</ele>
        <time>2022-05-24T07:37:02Z</time>
      </trkpt>
      <trkpt lat="44.90436" lon="1.67225">
        <ele>306.6</ele>
        <time>2022-05-24T07:37:03Z</time>
      </trkpt>
      <trkpt lat="44.90432" lon="1.67227">
        <ele>306.5</ele>
        <time>2022-05-24T07:37:04Z</time>
      </trkpt>
      <trkpt lat="44.90425" lon="1.67229">
        <ele>306.4</ele>
        <time>2022-05-24T07:37:05Z</time>
      </trkpt>
      <trkpt lat="44.90421" lon="1.67229">
        <ele>306.3</ele>
        <time>2022-05-24T07:37:06Z</time>
      </trkpt>
      <trkpt lat="44.90417" lon="1.6723">
        <ele>306.1</ele>
        <time>2022-05-24T07:37:07Z</time>
      </trkpt>
      <trkpt lat="44.90411" lon="1.6723">
        <ele>305.9</ele>
        <time>2022-05-24T07:37:08Z</time>
      </trkpt>
      <trkpt lat="44.90405" lon="1.67231">
        <ele>305.7</ele>
        <time>2022-05-24T07:37:09Z</time>
      </trkpt>
      <trkpt lat="44.90398" lon="1.67231">
        <ele>305.4</ele>
        <time>2022-05-24T07:37:10Z</time>
      </trkpt>
      <trkpt lat="44.90391" lon="1.67231">
        <ele>305</ele>
        <time>2022-05-24T07:37:11Z</time>
      </trkpt>
      <trkpt lat="44.90384" lon="1.67229">
        <ele>304.5</ele>
        <time>2022-05-24T07:37:12Z</time>
      </trkpt>
      <trkpt lat="44.90377" lon="1.67227">
        <ele>304</ele>
        <time>2022-05-24T07:37:13Z</time>
      </trkpt>
      <trkpt lat="44.9037" lon="1.67227">
        <ele>303.5</ele>
        <time>2022-05-24T07:37:14Z</time>
      </trkpt>
      <trkpt lat="44.90363" lon="1.67226">
        <ele>303</ele>
        <time>2022-05-24T07:37:15Z</time>
      </trkpt>
      <trkpt lat="44.90355" lon="1.67225">
        <ele>302.4</ele>
        <time>2022-05-24T07:37:16Z</time>
      </trkpt>
      <trkpt lat="44.90348" lon="1.67223">
        <ele>301.7</ele>
        <time>2022-05-24T07:37:17Z</time>
      </trkpt>
      <trkpt lat="44.9034" lon="1.67221">
        <ele>301.1</ele>
        <time>2022-05-24T07:37:18Z</time>
      </trkpt>
      <trkpt lat="44.90333" lon="1.67219">
        <ele>300.6</ele>
        <time>2022-05-24T07:37:19Z</time>
      </trkpt>
      <trkpt lat="44.90326" lon="1.67216">
        <ele>300</ele>
        <time>2022-05-24T07:37:20Z</time>
      </trkpt>
      <trkpt lat="44.90319" lon="1.67212">
        <ele>299.5</ele>
        <time>2022-05-24T07:37:21Z</time>
      </trkpt>
      <trkpt lat="44.90312" lon="1.67209">
        <ele>299</ele>
        <time>2022-05-24T07:37:22Z</time>
      </trkpt>
      <trkpt lat="44.90305" lon="1.67206">
        <ele>298.5</ele>
        <time>2022-05-24T07:37:23Z</time>
      </trkpt>
      <trkpt lat="44.90298" lon="1.67204">
        <ele>298</ele>
        <time>2022-05-24T07:37:24Z</time>
      </trkpt>
      <trkpt lat="44.90291" lon="1.67202">
        <ele>297.6</ele>
        <time>2022-05-24T07:37:25Z</time>
      </trkpt>
      <trkpt lat="44.90286" lon="1.67199">
        <ele>297.2</ele>
        <time>2022-05-24T07:37:26Z</time>
      </trkpt>
      <trkpt lat="44.9028" lon="1.67196">
        <ele>296.8</ele>
        <time>2022-05-24T07:37:27Z</time>
      </trkpt>
      <trkpt lat="44.90274" lon="1.67192">
        <ele>296.4</ele>
        <time>2022-05-24T07:37:28Z</time>
      </trkpt>
      <trkpt lat="44.90268" lon="1.6719">
        <ele>295.9</ele>
        <time>2022-05-24T07:37:29Z</time>
      </trkpt>
      <trkpt lat="44.9026" lon="1.6719">
        <ele>294.8</ele>
        <time>2022-05-24T07:37:30Z</time>
      </trkpt>
      <trkpt lat="44.90253" lon="1.67192">
        <ele>294.8</ele>
        <time>2022-05-24T07:37:31Z</time>
      </trkpt>
      <trkpt lat="44.90247" lon="1.67197">
        <ele>294.8</ele>
        <time>2022-05-24T07:37:32Z</time>
      </trkpt>
      <trkpt lat="44.90242" lon="1.67201">
        <ele>294.7</ele>
        <time>2022-05-24T07:37:33Z</time>
      </trkpt>
      <trkpt lat="44.90238" lon="1.67208">
        <ele>294.7</ele>
        <time>2022-05-24T07:37:34Z</time>
      </trkpt>
      <trkpt lat="44.90233" lon="1.67214">
        <ele>294.7</ele>
        <time>2022-05-24T07:37:35Z</time>
      </trkpt>
      <trkpt lat="44.9023" lon="1.6722">
        <ele>294.6</ele>
        <time>2022-05-24T07:37:36Z</time>
      </trkpt>
      <trkpt lat="44.90226" lon="1.67225">
        <ele>294.6</ele>
        <time>2022-05-24T07:37:37Z</time>
      </trkpt>
      <trkpt lat="44.90221" lon="1.6723">
        <ele>294.6</ele>
        <time>2022-05-24T07:37:38Z</time>
      </trkpt>
      <trkpt lat="44.90215" lon="1.67235">
        <ele>294.7</ele>
        <time>2022-05-24T07:37:39Z</time>
      </trkpt>
      <trkpt lat="44.90211" lon="1.6724">
        <ele>294.7</ele>
        <time>2022-05-24T07:37:40Z</time>
      </trkpt>
      <trkpt lat="44.90207" lon="1.67244">
        <ele>294.8</ele>
        <time>2022-05-24T07:37:41Z</time>
      </trkpt>
      <trkpt lat="44.90202" lon="1.67249">
        <ele>294.9</ele>
        <time>2022-05-24T07:37:42Z</time>
      </trkpt>
      <trkpt lat="44.90197" lon="1.67253">
        <ele>295</ele>
        <time>2022-05-24T07:37:43Z</time>
      </trkpt>
      <trkpt lat="44.90192" lon="1.67257">
        <ele>295.1</ele>
        <time>2022-05-24T07:37:44Z</time>
      </trkpt>
      <trkpt lat="44.90187" lon="1.67261">
        <ele>295.2</ele>
        <time>2022-05-24T07:37:45Z</time>
      </trkpt>
      <trkpt lat="44.90182" lon="1.67265">
        <ele>295.4</ele>
        <time>2022-05-24T07:37:46Z</time>
      </trkpt>
      <trkpt lat="44.90178" lon="1.67268">
        <ele>295.6</ele>
        <time>2022-05-24T07:37:47Z</time>
      </trkpt>
      <trkpt lat="44.90173" lon="1.67272">
        <ele>295.8</ele>
        <time>2022-05-24T07:37:48Z</time>
      </trkpt>
      <trkpt lat="44.90168" lon="1.67275">
        <ele>296.1</ele>
        <time>2022-05-24T07:37:49Z</time>
      </trkpt>
      <trkpt lat="44.90164" lon="1.67279">
        <ele>296.3</ele>
        <time>2022-05-24T07:37:50Z</time>
      </trkpt>
      <trkpt lat="44.9016" lon="1.67282">
        <ele>296.5</ele>
        <time>2022-05-24T07:37:51Z</time>
      </trkpt>
      <trkpt lat="44.90155" lon="1.67286">
        <ele>296.8</ele>
        <time>2022-05-24T07:37:52Z</time>
      </trkpt>
      <trkpt lat="44.90151" lon="1.67291">
        <ele>297.1</ele>
        <time>2022-05-24T07:37:53Z</time>
      </trkpt>
      <trkpt lat="44.90146" lon="1.67295">
        <ele>297.3</ele>
        <time>2022-05-24T07:37:54Z</time>
      </trkpt>
      <trkpt lat="44.90143" lon="1.67299">
        <ele>297.6</ele>
        <time>2022-05-24T07:37:55Z</time>
      </trkpt>
      <trkpt lat="44.90139" lon="1.67302">
        <ele>297.9</ele>
        <time>2022-05-24T07:37:56Z</time>
      </trkpt>
      <trkpt lat="44.90135" lon="1.67305">
        <ele>298.2</ele>
        <time>2022-05-24T07:37:57Z</time>
      </trkpt>
      <trkpt lat="44.90131" lon="1.67309">
        <ele>298.5</ele>
        <time>2022-05-24T07:37:58Z</time>
      </trkpt>
      <trkpt lat="44.90127" lon="1.67313">
        <ele>298.8</ele>
        <time>2022-05-24T07:37:59Z</time>
      </trkpt>
      <trkpt lat="44.90123" lon="1.67317">
        <ele>299.1</ele>
        <time>2022-05-24T07:38:00Z</time>
      </trkpt>
      <trkpt lat="44.90118" lon="1.67321">
        <ele>299.4</ele>
        <time>2022-05-24T07:38:01Z</time>
      </trkpt>
      <trkpt lat="44.90114" lon="1.67324">
        <ele>299.6</ele>
        <time>2022-05-24T07:38:02Z</time>
      </trkpt>
      <trkpt lat="44.90111" lon="1.67328">
        <ele>299.9</ele>
        <time>2022-05-24T07:38:03Z</time>
      </trkpt>
      <trkpt lat="44.90107" lon="1.67332">
        <ele>300.1</ele>
        <time>2022-05-24T07:38:04Z</time>
      </trkpt>
      <trkpt lat="44.90103" lon="1.67336">
        <ele>300.4</ele>
        <time>2022-05-24T07:38:05Z</time>
      </trkpt>
      <trkpt lat="44.90099" lon="1.67339">
        <ele>300.6</ele>
        <time>2022-05-24T07:38:06Z</time>
      </trkpt>
      <trkpt lat="44.90095" lon="1.67342">
        <ele>300.8</ele>
        <time>2022-05-24T07:38:07Z</time>
      </trkpt>
      <trkpt lat="44.90091" lon="1.67345">
        <ele>301</ele>
        <time>2022-05-24T07:38:08Z</time>
      </trkpt>
      <trkpt lat="44.90086" lon="1.67348">
        <ele>301.2</ele>
        <time>2022-05-24T07:38:09Z</time>
      </trkpt>
      <trkpt lat="44.90082" lon="1.67349">
        <ele>301.5</ele>
        <time>2022-05-24T07:38:10Z</time>
      </trkpt>
      <trkpt lat="44.90078" lon="1.67349">
        <ele>301.7</ele>
        <time>2022-05-24T07:38:11Z</time>
      </trkpt>
      <trkpt lat="44.90074" lon="1.67346">
        <ele>302.2</ele>
        <time>2022-05-24T07:38:12Z</time>
      </trkpt>
      <trkpt lat="44.9007" lon="1.67342">
        <ele>302.4</ele>
        <time>2022-05-24T07:38:13Z</time>
      </trkpt>
      <trkpt lat="44.90066" lon="1.67338">
        <ele>302.6</ele>
        <time>2022-05-24T07:38:14Z</time>
      </trkpt>
      <trkpt lat="44.90061" lon="1.67333">
        <ele>302.7</ele>
        <time>2022-05-24T07:38:15Z</time>
      </trkpt>
      <trkpt lat="44.90057" lon="1.67329">
        <ele>302.8</ele>
        <time>2022-05-24T07:38:16Z</time>
      </trkpt>
      <trkpt lat="44.90052" lon="1.67325">
        <ele>302.8</ele>
        <time>2022-05-24T07:38:17Z</time>
      </trkpt>
      <trkpt lat="44.90047" lon="1.67321">
        <ele>302.9</ele>
        <time>2022-05-24T07:38:18Z</time>
      </trkpt>
      <trkpt lat="44.90043" lon="1.67318">
        <ele>302.9</ele>
        <time>2022-05-24T07:38:19Z</time>
      </trkpt>
      <trkpt lat="44.90038" lon="1.67316">
        <ele>303</ele>
        <time>2022-05-24T07:38:20Z</time>
      </trkpt>
      <trkpt lat="44.90033" lon="1.67313">
        <ele>303</ele>
        <time>2022-05-24T07:38:21Z</time>
      </trkpt>
      <trkpt lat="44.90028" lon="1.67311">
        <ele>303</ele>
        <time>2022-05-24T07:38:22Z</time>
      </trkpt>
      <trkpt lat="44.90024" lon="1.67309">
        <ele>303</ele>
        <time>2022-05-24T07:38:23Z</time>
      </trkpt>
      <trkpt lat="44.90019" lon="1.67306">
        <ele>303</ele>
        <time>2022-05-24T07:38:24Z</time>
      </trkpt>
      <trkpt lat="44.90013" lon="1.67303">
        <ele>303.1</ele>
        <time>2022-05-24T07:38:25Z</time>
      </trkpt>
      <trkpt lat="44.90008" lon="1.67301">
        <ele>303.1</ele>
        <time>2022-05-24T07:38:26Z</time>
      </trkpt>
      <trkpt lat="44.90002" lon="1.67299">
        <ele>303.1</ele>
        <time>2022-05-24T07:38:27Z</time>
      </trkpt>
      <trkpt lat="44.89997" lon="1.67296">
        <ele>303.1</ele>
        <time>2022-05-24T07:38:28Z</time>
      </trkpt>
      <trkpt lat="44.89992" lon="1.67294">
        <ele>303.1</ele>
        <time>2022-05-24T07:38:29Z</time>
      </trkpt>
      <trkpt lat="44.89987" lon="1.67292">
        <ele>303.1</ele>
        <time>2022-05-24T07:38:30Z</time>
      </trkpt>
      <trkpt lat="44.89982" lon="1.67289">
        <ele>303.1</ele>
        <time>2022-05-24T07:38:31Z</time>
      </trkpt>
      <trkpt lat="44.89977" lon="1.67285">
        <ele>302.9</ele>
        <time>2022-05-24T07:38:32Z</time>
      </trkpt>
      <trkpt lat="44.89972" lon="1.6728">
        <ele>302.7</ele>
        <time>2022-05-24T07:38:33Z</time>
      </trkpt>
      <trkpt lat="44.89967" lon="1.67277">
        <ele>302.5</ele>
        <time>2022-05-24T07:38:34Z</time>
      </trkpt>
      <trkpt lat="44.89961" lon="1.67273">
        <ele>302.3</ele>
        <time>2022-05-24T07:38:35Z</time>
      </trkpt>
      <trkpt lat="44.89955" lon="1.6727">
        <ele>302.2</ele>
        <time>2022-05-24T07:38:36Z</time>
      </trkpt>
      <trkpt lat="44.89949" lon="1.67266">
        <ele>302.1</ele>
        <time>2022-05-24T07:38:37Z</time>
      </trkpt>
      <trkpt lat="44.89944" lon="1.67262">
        <ele>302</ele>
        <time>2022-05-24T07:38:38Z</time>
      </trkpt>
      <trkpt lat="44.89938" lon="1.67257">
        <ele>301.9</ele>
        <time>2022-05-24T07:38:39Z</time>
      </trkpt>
      <trkpt lat="44.89932" lon="1.67253">
        <ele>301.8</ele>
        <time>2022-05-24T07:38:40Z</time>
      </trkpt>
      <trkpt lat="44.89927" lon="1.67249">
        <ele>301.8</ele>
        <time>2022-05-24T07:38:41Z</time>
      </trkpt>
      <trkpt lat="44.8992" lon="1.67246">
        <ele>301.7</ele>
        <time>2022-05-24T07:38:42Z</time>
      </trkpt>
      <trkpt lat="44.89914" lon="1.67243">
        <ele>301.7</ele>
        <time>2022-05-24T07:38:43Z</time>
      </trkpt>
      <trkpt lat="44.89908" lon="1.6724">
        <ele>301.6</ele>
        <time>2022-05-24T07:38:44Z</time>
      </trkpt>
      <trkpt lat="44.89903" lon="1.67236">
        <ele>301.6</ele>
        <time>2022-05-24T07:38:45Z</time>
      </trkpt>
      <trkpt lat="44.89896" lon="1.67233">
        <ele>301.6</ele>
        <time>2022-05-24T07:38:46Z</time>
      </trkpt>
      <trkpt lat="44.8989" lon="1.67229">
        <ele>301.5</ele>
        <time>2022-05-24T07:38:47Z</time>
      </trkpt>
      <trkpt lat="44.89884" lon="1.67225">
        <ele>301.5</ele>
        <time>2022-05-24T07:38:48Z</time>
      </trkpt>
      <trkpt lat="44.89879" lon="1.67221">
        <ele>301.4</ele>
        <time>2022-05-24T07:38:49Z</time>
      </trkpt>
      <trkpt lat="44.89873" lon="1.67218">
        <ele>301.3</ele>
        <time>2022-05-24T07:38:50Z</time>
      </trkpt>
      <trkpt lat="44.89867" lon="1.67213">
        <ele>301.3</ele>
        <time>2022-05-24T07:38:51Z</time>
      </trkpt>
      <trkpt lat="44.89861" lon="1.67209">
        <ele>301.3</ele>
        <time>2022-05-24T07:38:52Z</time>
      </trkpt>
      <trkpt lat="44.89855" lon="1.67203">
        <ele>301.2</ele>
        <time>2022-05-24T07:38:53Z</time>
      </trkpt>
      <trkpt lat="44.8985" lon="1.67196">
        <ele>301.2</ele>
        <time>2022-05-24T07:38:54Z</time>
      </trkpt>
      <trkpt lat="44.89844" lon="1.67189">
        <ele>301.3</ele>
        <time>2022-05-24T07:38:55Z</time>
      </trkpt>
      <trkpt lat="44.8984" lon="1.67182">
        <ele>301.3</ele>
        <time>2022-05-24T07:38:56Z</time>
      </trkpt>
      <trkpt lat="44.89836" lon="1.67175">
        <ele>301.4</ele>
        <time>2022-05-24T07:38:57Z</time>
      </trkpt>
      <trkpt lat="44.89832" lon="1.67168">
        <ele>301.6</ele>
        <time>2022-05-24T07:38:58Z</time>
      </trkpt>
      <trkpt lat="44.89828" lon="1.67162">
        <ele>301.9</ele>
        <time>2022-05-24T07:38:59Z</time>
      </trkpt>
      <trkpt lat="44.89825" lon="1.67155">
        <ele>302.1</ele>
        <time>2022-05-24T07:39:00Z</time>
      </trkpt>
      <trkpt lat="44.89822" lon="1.67149">
        <ele>302.3</ele>
        <time>2022-05-24T07:39:01Z</time>
      </trkpt>
      <trkpt lat="44.89819" lon="1.67142">
        <ele>302.5</ele>
        <time>2022-05-24T07:39:02Z</time>
      </trkpt>
      <trkpt lat="44.89816" lon="1.67139">
        <ele>302.7</ele>
        <time>2022-05-24T07:39:03Z</time>
      </trkpt>
      <trkpt lat="44.89813" lon="1.67135">
        <ele>302.8</ele>
        <time>2022-05-24T07:39:04Z</time>
      </trkpt>
      <trkpt lat="44.89809" lon="1.67132">
        <ele>303</ele>
        <time>2022-05-24T07:39:05Z</time>
      </trkpt>
      <trkpt lat="44.89805" lon="1.6713">
        <ele>303.1</ele>
        <time>2022-05-24T07:39:06Z</time>
      </trkpt>
      <trkpt lat="44.898" lon="1.67129">
        <ele>303.3</ele>
        <time>2022-05-24T07:39:07Z</time>
      </trkpt>
      <trkpt lat="44.89795" lon="1.67128">
        <ele>303.4</ele>
        <time>2022-05-24T07:39:08Z</time>
      </trkpt>
      <trkpt lat="44.8979" lon="1.67128">
        <ele>303.6</ele>
        <time>2022-05-24T07:39:09Z</time>
      </trkpt>
      <trkpt lat="44.89785" lon="1.67128">
        <ele>303.7</ele>
        <time>2022-05-24T07:39:10Z</time>
      </trkpt>
      <trkpt lat="44.8978" lon="1.67128">
        <ele>303.8</ele>
        <time>2022-05-24T07:39:11Z</time>
      </trkpt>
      <trkpt lat="44.89774" lon="1.67129">
        <ele>303.9</ele>
        <time>2022-05-24T07:39:12Z</time>
      </trkpt>
      <trkpt lat="44.89769" lon="1.67128">
        <ele>303.9</ele>
        <time>2022-05-24T07:39:13Z</time>
      </trkpt>
      <trkpt lat="44.89764" lon="1.67128">
        <ele>303.9</ele>
        <time>2022-05-24T07:39:14Z</time>
      </trkpt>
      <trkpt lat="44.8976" lon="1.67128">
        <ele>303.9</ele>
        <time>2022-05-24T07:39:15Z</time>
      </trkpt>
      <trkpt lat="44.89755" lon="1.67129">
        <ele>303.9</ele>
        <time>2022-05-24T07:39:16Z</time>
      </trkpt>
      <trkpt lat="44.8975" lon="1.6713">
        <ele>303.8</ele>
        <time>2022-05-24T07:39:17Z</time>
      </trkpt>
      <trkpt lat="44.89745" lon="1.67129">
        <ele>303.7</ele>
        <time>2022-05-24T07:39:18Z</time>
      </trkpt>
      <trkpt lat="44.89739" lon="1.6713">
        <ele>303.6</ele>
        <time>2022-05-24T07:39:19Z</time>
      </trkpt>
      <trkpt lat="44.89734" lon="1.6713">
        <ele>303.4</ele>
        <time>2022-05-24T07:39:20Z</time>
      </trkpt>
      <trkpt lat="44.89728" lon="1.6713">
        <ele>303.2</ele>
        <time>2022-05-24T07:39:21Z</time>
      </trkpt>
      <trkpt lat="44.89723" lon="1.67129">
        <ele>303</ele>
        <time>2022-05-24T07:39:22Z</time>
      </trkpt>
      <trkpt lat="44.89717" lon="1.67127">
        <ele>302.7</ele>
        <time>2022-05-24T07:39:23Z</time>
      </trkpt>
      <trkpt lat="44.89712" lon="1.67121">
        <ele>302.5</ele>
        <time>2022-05-24T07:39:24Z</time>
      </trkpt>
      <trkpt lat="44.89708" lon="1.67113">
        <ele>302.1</ele>
        <time>2022-05-24T07:39:25Z</time>
      </trkpt>
      <trkpt lat="44.89706" lon="1.67104">
        <ele>301.7</ele>
        <time>2022-05-24T07:39:26Z</time>
      </trkpt>
      <trkpt lat="44.89705" lon="1.67095">
        <ele>301.3</ele>
        <time>2022-05-24T07:39:27Z</time>
      </trkpt>
      <trkpt lat="44.89704" lon="1.67084">
        <ele>301</ele>
        <time>2022-05-24T07:39:28Z</time>
      </trkpt>
      <trkpt lat="44.89703" lon="1.67074">
        <ele>300.7</ele>
        <time>2022-05-24T07:39:29Z</time>
      </trkpt>
      <trkpt lat="44.89703" lon="1.67064">
        <ele>300.3</ele>
        <time>2022-05-24T07:39:30Z</time>
      </trkpt>
      <trkpt lat="44.89703" lon="1.67053">
        <ele>299.9</ele>
        <time>2022-05-24T07:39:31Z</time>
      </trkpt>
      <trkpt lat="44.89702" lon="1.67042">
        <ele>299.5</ele>
        <time>2022-05-24T07:39:32Z</time>
      </trkpt>
      <trkpt lat="44.89701" lon="1.67031">
        <ele>299.2</ele>
        <time>2022-05-24T07:39:33Z</time>
      </trkpt>
      <trkpt lat="44.89701" lon="1.67019">
        <ele>298.9</ele>
        <time>2022-05-24T07:39:34Z</time>
      </trkpt>
      <trkpt lat="44.89701" lon="1.67008">
        <ele>298.6</ele>
        <time>2022-05-24T07:39:35Z</time>
      </trkpt>
      <trkpt lat="44.89701" lon="1.66997">
        <ele>298.4</ele>
        <time>2022-05-24T07:39:36Z</time>
      </trkpt>
      <trkpt lat="44.89701" lon="1.66986">
        <ele>298.2</ele>
        <time>2022-05-24T07:39:37Z</time>
      </trkpt>
      <trkpt lat="44.897" lon="1.66976">
        <ele>298.1</ele>
        <time>2022-05-24T07:39:38Z</time>
      </trkpt>
      <trkpt lat="44.89699" lon="1.66965">
        <ele>298</ele>
        <time>2022-05-24T07:39:39Z</time>
      </trkpt>
      <trkpt lat="44.89699" lon="1.66954">
        <ele>298</ele>
        <time>2022-05-24T07:39:40Z</time>
      </trkpt>
      <trkpt lat="44.89699" lon="1.66944">
        <ele>298</ele>
        <time>2022-05-24T07:39:41Z</time>
      </trkpt>
      <trkpt lat="44.89699" lon="1.66934">
        <ele>298.1</ele>
        <time>2022-05-24T07:39:42Z</time>
      </trkpt>
      <trkpt lat="44.89699" lon="1.66924">
        <ele>298.2</ele>
        <time>2022-05-24T07:39:43Z</time>
      </trkpt>
      <trkpt lat="44.89699" lon="1.66914">
        <ele>298.3</ele>
        <time>2022-05-24T07:39:44Z</time>
      </trkpt>
      <trkpt lat="44.89698" lon="1.66905">
        <ele>298.5</ele>
        <time>2022-05-24T07:39:45Z</time>
      </trkpt>
      <trkpt lat="44.89698" lon="1.66897">
        <ele>298.6</ele>
        <time>2022-05-24T07:39:46Z</time>
      </trkpt>
      <trkpt lat="44.89696" lon="1.66889">
        <ele>298.7</ele>
        <time>2022-05-24T07:39:47Z</time>
      </trkpt>
      <trkpt lat="44.89693" lon="1.66881">
        <ele>298.9</ele>
        <time>2022-05-24T07:39:48Z</time>
      </trkpt>
      <trkpt lat="44.89691" lon="1.66874">
        <ele>299.1</ele>
        <time>2022-05-24T07:39:49Z</time>
      </trkpt>
      <trkpt lat="44.89687" lon="1.66867">
        <ele>299.3</ele>
        <time>2022-05-24T07:39:50Z</time>
      </trkpt>
      <trkpt lat="44.89684" lon="1.6686">
        <ele>299.7</ele>
        <time>2022-05-24T07:39:51Z</time>
      </trkpt>
      <trkpt lat="44.89681" lon="1.66854">
        <ele>300</ele>
        <time>2022-05-24T07:39:52Z</time>
      </trkpt>
      <trkpt lat="44.89678" lon="1.66847">
        <ele>300.3</ele>
        <time>2022-05-24T07:39:53Z</time>
      </trkpt>
      <trkpt lat="44.89675" lon="1.6684">
        <ele>300.6</ele>
        <time>2022-05-24T07:39:54Z</time>
      </trkpt>
      <trkpt lat="44.89672" lon="1.66834">
        <ele>300.8</ele>
        <time>2022-05-24T07:39:55Z</time>
      </trkpt>
      <trkpt lat="44.89668" lon="1.66828">
        <ele>301.1</ele>
        <time>2022-05-24T07:39:56Z</time>
      </trkpt>
      <trkpt lat="44.89666" lon="1.66821">
        <ele>301.4</ele>
        <time>2022-05-24T07:39:57Z</time>
      </trkpt>
      <trkpt lat="44.89663" lon="1.66816">
        <ele>301.7</ele>
        <time>2022-05-24T07:39:58Z</time>
      </trkpt>
      <trkpt lat="44.8966" lon="1.66809">
        <ele>301.9</ele>
        <time>2022-05-24T07:39:59Z</time>
      </trkpt>
      <trkpt lat="44.89659" lon="1.66802">
        <ele>302.2</ele>
        <time>2022-05-24T07:40:00Z</time>
      </trkpt>
      <trkpt lat="44.89657" lon="1.66794">
        <ele>302.4</ele>
        <time>2022-05-24T07:40:01Z</time>
      </trkpt>
      <trkpt lat="44.89656" lon="1.66787">
        <ele>302.6</ele>
        <time>2022-05-24T07:40:02Z</time>
      </trkpt>
      <trkpt lat="44.89654" lon="1.66781">
        <ele>302.7</ele>
        <time>2022-05-24T07:40:03Z</time>
      </trkpt>
      <trkpt lat="44.89652" lon="1.66774">
        <ele>302.8</ele>
        <time>2022-05-24T07:40:04Z</time>
      </trkpt>
      <trkpt lat="44.8965" lon="1.66767">
        <ele>302.9</ele>
        <time>2022-05-24T07:40:05Z</time>
      </trkpt>
      <trkpt lat="44.89649" lon="1.6676">
        <ele>302.9</ele>
        <time>2022-05-24T07:40:06Z</time>
      </trkpt>
      <trkpt lat="44.89647" lon="1.66751">
        <ele>302.9</ele>
        <time>2022-05-24T07:40:07Z</time>
      </trkpt>
      <trkpt lat="44.89646" lon="1.66742">
        <ele>302.9</ele>
        <time>2022-05-24T07:40:08Z</time>
      </trkpt>
      <trkpt lat="44.89644" lon="1.66734">
        <ele>302.7</ele>
        <time>2022-05-24T07:40:09Z</time>
      </trkpt>
      <trkpt lat="44.89643" lon="1.66726">
        <ele>302.6</ele>
        <time>2022-05-24T07:40:10Z</time>
      </trkpt>
      <trkpt lat="44.89642" lon="1.66717">
        <ele>302.4</ele>
        <time>2022-05-24T07:40:11Z</time>
      </trkpt>
      <trkpt lat="44.89641" lon="1.66709">
        <ele>302.3</ele>
        <time>2022-05-24T07:40:12Z</time>
      </trkpt>
      <trkpt lat="44.8964" lon="1.667">
        <ele>302</ele>
        <time>2022-05-24T07:40:13Z</time>
      </trkpt>
      <trkpt lat="44.89639" lon="1.66691">
        <ele>301.7</ele>
        <time>2022-05-24T07:40:14Z</time>
      </trkpt>
      <trkpt lat="44.89639" lon="1.66682">
        <ele>301.4</ele>
        <time>2022-05-24T07:40:15Z</time>
      </trkpt>
      <trkpt lat="44.89638" lon="1.66673">
        <ele>301</ele>
        <time>2022-05-24T07:40:16Z</time>
      </trkpt>
      <trkpt lat="44.89636" lon="1.66651">
        <ele>299.8</ele>
        <time>2022-05-24T07:40:18Z</time>
      </trkpt>
      <trkpt lat="44.89634" lon="1.66641">
        <ele>299.2</ele>
        <time>2022-05-24T07:40:19Z</time>
      </trkpt>
      <trkpt lat="44.89631" lon="1.66631">
        <ele>298.7</ele>
        <time>2022-05-24T07:40:20Z</time>
      </trkpt>
      <trkpt lat="44.89629" lon="1.66619">
        <ele>297.9</ele>
        <time>2022-05-24T07:40:21Z</time>
      </trkpt>
      <trkpt lat="44.89625" lon="1.66602">
        <ele>296.9</ele>
        <time>2022-05-24T07:40:26Z</time>
      </trkpt>
      <trkpt lat="44.89607" lon="1.6653">
        <ele>292.8</ele>
        <time>2022-05-24T07:40:28Z</time>
      </trkpt>
      <trkpt lat="44.89605" lon="1.66523">
        <ele>292.4</ele>
        <time>2022-05-24T07:40:29Z</time>
      </trkpt>
      <trkpt lat="44.896" lon="1.66511">
        <ele>291.6</ele>
        <time>2022-05-24T07:40:30Z</time>
      </trkpt>
      <trkpt lat="44.89594" lon="1.66501">
        <ele>290.9</ele>
        <time>2022-05-24T07:40:31Z</time>
      </trkpt>
      <trkpt lat="44.89586" lon="1.66492">
        <ele>290.2</ele>
        <time>2022-05-24T07:40:32Z</time>
      </trkpt>
      <trkpt lat="44.89578" lon="1.66484">
        <ele>289.7</ele>
        <time>2022-05-24T07:40:33Z</time>
      </trkpt>
      <trkpt lat="44.89571" lon="1.66475">
        <ele>289.4</ele>
        <time>2022-05-24T07:40:34Z</time>
      </trkpt>
      <trkpt lat="44.89563" lon="1.66467">
        <ele>289.1</ele>
        <time>2022-05-24T07:40:35Z</time>
      </trkpt>
      <trkpt lat="44.89555" lon="1.66459">
        <ele>288.9</ele>
        <time>2022-05-24T07:40:36Z</time>
      </trkpt>
      <trkpt lat="44.89547" lon="1.66451">
        <ele>288.9</ele>
        <time>2022-05-24T07:40:37Z</time>
      </trkpt>
      <trkpt lat="44.89541" lon="1.66443">
        <ele>288.8</ele>
        <time>2022-05-24T07:40:38Z</time>
      </trkpt>
      <trkpt lat="44.89536" lon="1.66433">
        <ele>288.7</ele>
        <time>2022-05-24T07:40:39Z</time>
      </trkpt>
      <trkpt lat="44.89532" lon="1.66423">
        <ele>288.6</ele>
        <time>2022-05-24T07:40:40Z</time>
      </trkpt>
      <trkpt lat="44.89529" lon="1.66413">
        <ele>288.5</ele>
        <time>2022-05-24T07:40:41Z</time>
      </trkpt>
      <trkpt lat="44.89526" lon="1.66403">
        <ele>288.2</ele>
        <time>2022-05-24T07:40:42Z</time>
      </trkpt>
      <trkpt lat="44.89525" lon="1.66392">
        <ele>287.8</ele>
        <time>2022-05-24T07:40:43Z</time>
      </trkpt>
      <trkpt lat="44.89524" lon="1.66382">
        <ele>287.5</ele>
        <time>2022-05-24T07:40:44Z</time>
      </trkpt>
      <trkpt lat="44.89524" lon="1.66372">
        <ele>287</ele>
        <time>2022-05-24T07:40:45Z</time>
      </trkpt>
      <trkpt lat="44.89524" lon="1.66361">
        <ele>286.5</ele>
        <time>2022-05-24T07:40:46Z</time>
      </trkpt>
      <trkpt lat="44.89524" lon="1.6635">
        <ele>286</ele>
        <time>2022-05-24T07:40:47Z</time>
      </trkpt>
      <trkpt lat="44.89524" lon="1.66338">
        <ele>285.4</ele>
        <time>2022-05-24T07:40:48Z</time>
      </trkpt>
      <trkpt lat="44.89523" lon="1.66325">
        <ele>284.8</ele>
        <time>2022-05-24T07:40:49Z</time>
      </trkpt>
      <trkpt lat="44.89521" lon="1.66313">
        <ele>284.3</ele>
        <time>2022-05-24T07:40:50Z</time>
      </trkpt>
      <trkpt lat="44.89519" lon="1.66301">
        <ele>283.8</ele>
        <time>2022-05-24T07:40:51Z</time>
      </trkpt>
      <trkpt lat="44.89517" lon="1.66288">
        <ele>283.2</ele>
        <time>2022-05-24T07:40:52Z</time>
      </trkpt>
      <trkpt lat="44.89515" lon="1.66274">
        <ele>282.7</ele>
        <time>2022-05-24T07:40:53Z</time>
      </trkpt>
      <trkpt lat="44.89513" lon="1.66261">
        <ele>282.3</ele>
        <time>2022-05-24T07:40:54Z</time>
      </trkpt>
      <trkpt lat="44.89511" lon="1.66248">
        <ele>281.9</ele>
        <time>2022-05-24T07:40:55Z</time>
      </trkpt>
      <trkpt lat="44.89509" lon="1.66235">
        <ele>281.5</ele>
        <time>2022-05-24T07:40:56Z</time>
      </trkpt>
      <trkpt lat="44.89507" lon="1.66222">
        <ele>281.1</ele>
        <time>2022-05-24T07:40:57Z</time>
      </trkpt>
      <trkpt lat="44.89504" lon="1.66208">
        <ele>280.7</ele>
        <time>2022-05-24T07:40:58Z</time>
      </trkpt>
      <trkpt lat="44.89501" lon="1.66196">
        <ele>280.5</ele>
        <time>2022-05-24T07:40:59Z</time>
      </trkpt>
      <trkpt lat="44.89498" lon="1.66183">
        <ele>280.4</ele>
        <time>2022-05-24T07:41:00Z</time>
      </trkpt>
      <trkpt lat="44.89495" lon="1.66172">
        <ele>280.3</ele>
        <time>2022-05-24T07:41:01Z</time>
      </trkpt>
      <trkpt lat="44.89492" lon="1.6616">
        <ele>280.2</ele>
        <time>2022-05-24T07:41:02Z</time>
      </trkpt>
      <trkpt lat="44.89489" lon="1.66149">
        <ele>280.2</ele>
        <time>2022-05-24T07:41:03Z</time>
      </trkpt>
      <trkpt lat="44.89487" lon="1.66138">
        <ele>280.2</ele>
        <time>2022-05-24T07:41:04Z</time>
      </trkpt>
      <trkpt lat="44.89485" lon="1.66128">
        <ele>280.2</ele>
        <time>2022-05-24T07:41:05Z</time>
      </trkpt>
      <trkpt lat="44.89484" lon="1.66117">
        <ele>280.2</ele>
        <time>2022-05-24T07:41:06Z</time>
      </trkpt>
      <trkpt lat="44.89482" lon="1.66108">
        <ele>280.2</ele>
        <time>2022-05-24T07:41:07Z</time>
      </trkpt>
      <trkpt lat="44.8948" lon="1.66098">
        <ele>280.2</ele>
        <time>2022-05-24T07:41:08Z</time>
      </trkpt>
      <trkpt lat="44.89479" lon="1.66089">
        <ele>280.2</ele>
        <time>2022-05-24T07:41:09Z</time>
      </trkpt>
      <trkpt lat="44.89478" lon="1.6608">
        <ele>280.1</ele>
        <time>2022-05-24T07:41:10Z</time>
      </trkpt>
      <trkpt lat="44.89477" lon="1.6607">
        <ele>280</ele>
        <time>2022-05-24T07:41:11Z</time>
      </trkpt>
      <trkpt lat="44.89476" lon="1.6606">
        <ele>279.9</ele>
        <time>2022-05-24T07:41:12Z</time>
      </trkpt>
      <trkpt lat="44.89476" lon="1.66051">
        <ele>279.6</ele>
        <time>2022-05-24T07:41:13Z</time>
      </trkpt>
      <trkpt lat="44.89477" lon="1.66042">
        <ele>279.2</ele>
        <time>2022-05-24T07:41:14Z</time>
      </trkpt>
      <trkpt lat="44.89477" lon="1.66031">
        <ele>278.7</ele>
        <time>2022-05-24T07:41:15Z</time>
      </trkpt>
      <trkpt lat="44.89477" lon="1.6602">
        <ele>278.3</ele>
        <time>2022-05-24T07:41:16Z</time>
      </trkpt>
      <trkpt lat="44.89476" lon="1.6601">
        <ele>277.9</ele>
        <time>2022-05-24T07:41:17Z</time>
      </trkpt>
      <trkpt lat="44.89475" lon="1.66">
        <ele>277.5</ele>
        <time>2022-05-24T07:41:18Z</time>
      </trkpt>
      <trkpt lat="44.89475" lon="1.6599">
        <ele>277</ele>
        <time>2022-05-24T07:41:19Z</time>
      </trkpt>
      <trkpt lat="44.89474" lon="1.65979">
        <ele>276.5</ele>
        <time>2022-05-24T07:41:20Z</time>
      </trkpt>
      <trkpt lat="44.89474" lon="1.65969">
        <ele>275.9</ele>
        <time>2022-05-24T07:41:21Z</time>
      </trkpt>
      <trkpt lat="44.89475" lon="1.65957">
        <ele>275.4</ele>
        <time>2022-05-24T07:41:22Z</time>
      </trkpt>
      <trkpt lat="44.89478" lon="1.65946">
        <ele>274.8</ele>
        <time>2022-05-24T07:41:23Z</time>
      </trkpt>
      <trkpt lat="44.89483" lon="1.65935">
        <ele>274.3</ele>
        <time>2022-05-24T07:41:24Z</time>
      </trkpt>
      <trkpt lat="44.8949" lon="1.65927">
        <ele>274</ele>
        <time>2022-05-24T07:41:25Z</time>
      </trkpt>
      <trkpt lat="44.89497" lon="1.65922">
        <ele>273.8</ele>
        <time>2022-05-24T07:41:26Z</time>
      </trkpt>
      <trkpt lat="44.89504" lon="1.65917">
        <ele>273.7</ele>
        <time>2022-05-24T07:41:27Z</time>
      </trkpt>
      <trkpt lat="44.89511" lon="1.65911">
        <ele>273.5</ele>
        <time>2022-05-24T07:41:28Z</time>
      </trkpt>
      <trkpt lat="44.89517" lon="1.65905">
        <ele>273.3</ele>
        <time>2022-05-24T07:41:29Z</time>
      </trkpt>
      <trkpt lat="44.89524" lon="1.659">
        <ele>273.2</ele>
        <time>2022-05-24T07:41:30Z</time>
      </trkpt>
      <trkpt lat="44.8953" lon="1.65896">
        <ele>273</ele>
        <time>2022-05-24T07:41:31Z</time>
      </trkpt>
      <trkpt lat="44.89537" lon="1.65894">
        <ele>272.7</ele>
        <time>2022-05-24T07:41:32Z</time>
      </trkpt>
      <trkpt lat="44.89544" lon="1.65893">
        <ele>272.5</ele>
        <time>2022-05-24T07:41:33Z</time>
      </trkpt>
      <trkpt lat="44.8955" lon="1.65891">
        <ele>272.3</ele>
        <time>2022-05-24T07:41:34Z</time>
      </trkpt>
      <trkpt lat="44.89557" lon="1.65888">
        <ele>272.1</ele>
        <time>2022-05-24T07:41:35Z</time>
      </trkpt>
      <trkpt lat="44.89564" lon="1.65885">
        <ele>271.9</ele>
        <time>2022-05-24T07:41:36Z</time>
      </trkpt>
      <trkpt lat="44.89569" lon="1.65879">
        <ele>271.7</ele>
        <time>2022-05-24T07:41:37Z</time>
      </trkpt>
      <trkpt lat="44.89573" lon="1.65872">
        <ele>271.5</ele>
        <time>2022-05-24T07:41:38Z</time>
      </trkpt>
      <trkpt lat="44.89577" lon="1.65866">
        <ele>271.3</ele>
        <time>2022-05-24T07:41:39Z</time>
      </trkpt>
      <trkpt lat="44.89581" lon="1.65859">
        <ele>271.1</ele>
        <time>2022-05-24T07:41:40Z</time>
      </trkpt>
      <trkpt lat="44.89585" lon="1.65852">
        <ele>270.9</ele>
        <time>2022-05-24T07:41:41Z</time>
      </trkpt>
      <trkpt lat="44.89588" lon="1.65844">
        <ele>270.7</ele>
        <time>2022-05-24T07:41:42Z</time>
      </trkpt>
      <trkpt lat="44.89592" lon="1.65837">
        <ele>270.5</ele>
        <time>2022-05-24T07:41:43Z</time>
      </trkpt>
      <trkpt lat="44.89596" lon="1.6583">
        <ele>270.2</ele>
        <time>2022-05-24T07:41:44Z</time>
      </trkpt>
      <trkpt lat="44.89601" lon="1.65823">
        <ele>269.9</ele>
        <time>2022-05-24T07:41:45Z</time>
      </trkpt>
      <trkpt lat="44.89606" lon="1.65817">
        <ele>269.7</ele>
        <time>2022-05-24T07:41:46Z</time>
      </trkpt>
      <trkpt lat="44.8961" lon="1.65811">
        <ele>269.4</ele>
        <time>2022-05-24T07:41:47Z</time>
      </trkpt>
      <trkpt lat="44.89616" lon="1.65805">
        <ele>269</ele>
        <time>2022-05-24T07:41:48Z</time>
      </trkpt>
      <trkpt lat="44.89621" lon="1.65799">
        <ele>268.6</ele>
        <time>2022-05-24T07:41:49Z</time>
      </trkpt>
      <trkpt lat="44.89628" lon="1.65794">
        <ele>268.3</ele>
        <time>2022-05-24T07:41:50Z</time>
      </trkpt>
      <trkpt lat="44.89634" lon="1.6579">
        <ele>268.1</ele>
        <time>2022-05-24T07:41:51Z</time>
      </trkpt>
      <trkpt lat="44.8964" lon="1.65785">
        <ele>267.8</ele>
        <time>2022-05-24T07:41:52Z</time>
      </trkpt>
      <trkpt lat="44.89647" lon="1.65782">
        <ele>267.5</ele>
        <time>2022-05-24T07:41:53Z</time>
      </trkpt>
      <trkpt lat="44.89654" lon="1.65779">
        <ele>267.2</ele>
        <time>2022-05-24T07:41:54Z</time>
      </trkpt>
      <trkpt lat="44.89661" lon="1.65776">
        <ele>266.9</ele>
        <time>2022-05-24T07:41:55Z</time>
      </trkpt>
      <trkpt lat="44.89668" lon="1.65772">
        <ele>266.5</ele>
        <time>2022-05-24T07:41:56Z</time>
      </trkpt>
      <trkpt lat="44.89675" lon="1.65768">
        <ele>266.3</ele>
        <time>2022-05-24T07:41:57Z</time>
      </trkpt>
      <trkpt lat="44.89682" lon="1.65763">
        <ele>266</ele>
        <time>2022-05-24T07:41:58Z</time>
      </trkpt>
      <trkpt lat="44.89688" lon="1.65758">
        <ele>265.9</ele>
        <time>2022-05-24T07:41:59Z</time>
      </trkpt>
      <trkpt lat="44.89695" lon="1.65753">
        <ele>265.8</ele>
        <time>2022-05-24T07:42:00Z</time>
      </trkpt>
      <trkpt lat="44.89701" lon="1.65748">
        <ele>265.8</ele>
        <time>2022-05-24T07:42:01Z</time>
      </trkpt>
      <trkpt lat="44.89707" lon="1.65744">
        <ele>265.7</ele>
        <time>2022-05-24T07:42:02Z</time>
      </trkpt>
      <trkpt lat="44.89714" lon="1.65741">
        <ele>265.7</ele>
        <time>2022-05-24T07:42:03Z</time>
      </trkpt>
      <trkpt lat="44.8972" lon="1.65738">
        <ele>265.7</ele>
        <time>2022-05-24T07:42:04Z</time>
      </trkpt>
      <trkpt lat="44.89726" lon="1.65735">
        <ele>265.7</ele>
        <time>2022-05-24T07:42:05Z</time>
      </trkpt>
      <trkpt lat="44.89732" lon="1.6573">
        <ele>265.7</ele>
        <time>2022-05-24T07:42:06Z</time>
      </trkpt>
      <trkpt lat="44.89737" lon="1.65725">
        <ele>265.8</ele>
        <time>2022-05-24T07:42:07Z</time>
      </trkpt>
      <trkpt lat="44.89742" lon="1.65719">
        <ele>265.9</ele>
        <time>2022-05-24T07:42:08Z</time>
      </trkpt>
      <trkpt lat="44.89746" lon="1.65714">
        <ele>266.1</ele>
        <time>2022-05-24T07:42:09Z</time>
      </trkpt>
      <trkpt lat="44.89751" lon="1.6571">
        <ele>266.2</ele>
        <time>2022-05-24T07:42:10Z</time>
      </trkpt>
      <trkpt lat="44.89756" lon="1.65709">
        <ele>266.5</ele>
        <time>2022-05-24T07:42:11Z</time>
      </trkpt>
      <trkpt lat="44.89761" lon="1.6571">
        <ele>266.7</ele>
        <time>2022-05-24T07:42:12Z</time>
      </trkpt>
      <trkpt lat="44.89766" lon="1.65713">
        <ele>266.9</ele>
        <time>2022-05-24T07:42:13Z</time>
      </trkpt>
      <trkpt lat="44.89771" lon="1.65718">
        <ele>267</ele>
        <time>2022-05-24T07:42:14Z</time>
      </trkpt>
      <trkpt lat="44.89775" lon="1.65722">
        <ele>267.2</ele>
        <time>2022-05-24T07:42:15Z</time>
      </trkpt>
      <trkpt lat="44.89779" lon="1.65727">
        <ele>267.4</ele>
        <time>2022-05-24T07:42:16Z</time>
      </trkpt>
      <trkpt lat="44.89783" lon="1.65732">
        <ele>267.6</ele>
        <time>2022-05-24T07:42:17Z</time>
      </trkpt>
      <trkpt lat="44.89788" lon="1.65736">
        <ele>267.9</ele>
        <time>2022-05-24T07:42:18Z</time>
      </trkpt>
      <trkpt lat="44.89792" lon="1.6574">
        <ele>268.1</ele>
        <time>2022-05-24T07:42:19Z</time>
      </trkpt>
      <trkpt lat="44.89796" lon="1.65744">
        <ele>268.3</ele>
        <time>2022-05-24T07:42:20Z</time>
      </trkpt>
      <trkpt lat="44.898" lon="1.65748">
        <ele>268.5</ele>
        <time>2022-05-24T07:42:21Z</time>
      </trkpt>
      <trkpt lat="44.89805" lon="1.65751">
        <ele>268.7</ele>
        <time>2022-05-24T07:42:22Z</time>
      </trkpt>
      <trkpt lat="44.8981" lon="1.65753">
        <ele>268.8</ele>
        <time>2022-05-24T07:42:23Z</time>
      </trkpt>
      <trkpt lat="44.89815" lon="1.65755">
        <ele>268.9</ele>
        <time>2022-05-24T07:42:24Z</time>
      </trkpt>
      <trkpt lat="44.8982" lon="1.65756">
        <ele>269</ele>
        <time>2022-05-24T07:42:25Z</time>
      </trkpt>
      <trkpt lat="44.89825" lon="1.65756">
        <ele>269</ele>
        <time>2022-05-24T07:42:26Z</time>
      </trkpt>
      <trkpt lat="44.89831" lon="1.65756">
        <ele>269</ele>
        <time>2022-05-24T07:42:27Z</time>
      </trkpt>
      <trkpt lat="44.89836" lon="1.65756">
        <ele>269</ele>
        <time>2022-05-24T07:42:28Z</time>
      </trkpt>
      <trkpt lat="44.89841" lon="1.65756">
        <ele>269</ele>
        <time>2022-05-24T07:42:29Z</time>
      </trkpt>
      <trkpt lat="44.89847" lon="1.65755">
        <ele>269</ele>
        <time>2022-05-24T07:42:30Z</time>
      </trkpt>
      <trkpt lat="44.89853" lon="1.65754">
        <ele>269</ele>
        <time>2022-05-24T07:42:31Z</time>
      </trkpt>
      <trkpt lat="44.89858" lon="1.65754">
        <ele>269</ele>
        <time>2022-05-24T07:42:32Z</time>
      </trkpt>
      <trkpt lat="44.89864" lon="1.65753">
        <ele>269</ele>
        <time>2022-05-24T07:42:33Z</time>
      </trkpt>
      <trkpt lat="44.8987" lon="1.65753">
        <ele>269</ele>
        <time>2022-05-24T07:42:34Z</time>
      </trkpt>
      <trkpt lat="44.89875" lon="1.65753">
        <ele>268.9</ele>
        <time>2022-05-24T07:42:35Z</time>
      </trkpt>
      <trkpt lat="44.8988" lon="1.65753">
        <ele>268.9</ele>
        <time>2022-05-24T07:42:36Z</time>
      </trkpt>
      <trkpt lat="44.89884" lon="1.65754">
        <ele>268.9</ele>
        <time>2022-05-24T07:42:37Z</time>
      </trkpt>
      <trkpt lat="44.8989" lon="1.65755">
        <ele>268.9</ele>
        <time>2022-05-24T07:42:38Z</time>
      </trkpt>
      <trkpt lat="44.89895" lon="1.65758">
        <ele>268.9</ele>
        <time>2022-05-24T07:42:39Z</time>
      </trkpt>
      <trkpt lat="44.899" lon="1.65761">
        <ele>268.9</ele>
        <time>2022-05-24T07:42:40Z</time>
      </trkpt>
      <trkpt lat="44.89904" lon="1.65765">
        <ele>268.9</ele>
        <time>2022-05-24T07:42:41Z</time>
      </trkpt>
      <trkpt lat="44.89909" lon="1.65768">
        <ele>269</ele>
        <time>2022-05-24T07:42:42Z</time>
      </trkpt>
      <trkpt lat="44.89915" lon="1.65772">
        <ele>269.1</ele>
        <time>2022-05-24T07:42:43Z</time>
      </trkpt>
      <trkpt lat="44.8992" lon="1.65776">
        <ele>269.1</ele>
        <time>2022-05-24T07:42:44Z</time>
      </trkpt>
      <trkpt lat="44.89924" lon="1.65781">
        <ele>269.2</ele>
        <time>2022-05-24T07:42:45Z</time>
      </trkpt>
      <trkpt lat="44.89928" lon="1.65786">
        <ele>269.3</ele>
        <time>2022-05-24T07:42:46Z</time>
      </trkpt>
      <trkpt lat="44.89932" lon="1.65791">
        <ele>269.4</ele>
        <time>2022-05-24T07:42:47Z</time>
      </trkpt>
      <trkpt lat="44.89936" lon="1.65795">
        <ele>269.5</ele>
        <time>2022-05-24T07:42:48Z</time>
      </trkpt>
      <trkpt lat="44.8994" lon="1.65801">
        <ele>269.7</ele>
        <time>2022-05-24T07:42:49Z</time>
      </trkpt>
      <trkpt lat="44.89944" lon="1.65805">
        <ele>269.8</ele>
        <time>2022-05-24T07:42:50Z</time>
      </trkpt>
      <trkpt lat="44.89948" lon="1.6581">
        <ele>270</ele>
        <time>2022-05-24T07:42:51Z</time>
      </trkpt>
      <trkpt lat="44.89952" lon="1.65814">
        <ele>270.1</ele>
        <time>2022-05-24T07:42:52Z</time>
      </trkpt>
      <trkpt lat="44.89957" lon="1.65817">
        <ele>270.3</ele>
        <time>2022-05-24T07:42:53Z</time>
      </trkpt>
      <trkpt lat="44.89963" lon="1.65821">
        <ele>270.4</ele>
        <time>2022-05-24T07:42:54Z</time>
      </trkpt>
      <trkpt lat="44.89967" lon="1.65825">
        <ele>270.5</ele>
        <time>2022-05-24T07:42:55Z</time>
      </trkpt>
      <trkpt lat="44.89971" lon="1.65828">
        <ele>270.6</ele>
        <time>2022-05-24T07:42:56Z</time>
      </trkpt>
      <trkpt lat="44.89975" lon="1.65832">
        <ele>270.6</ele>
        <time>2022-05-24T07:42:57Z</time>
      </trkpt>
      <trkpt lat="44.8998" lon="1.65836">
        <ele>270.7</ele>
        <time>2022-05-24T07:42:58Z</time>
      </trkpt>
      <trkpt lat="44.89984" lon="1.6584">
        <ele>270.7</ele>
        <time>2022-05-24T07:42:59Z</time>
      </trkpt>
      <trkpt lat="44.89989" lon="1.65845">
        <ele>270.7</ele>
        <time>2022-05-24T07:43:00Z</time>
      </trkpt>
      <trkpt lat="44.89993" lon="1.65848">
        <ele>270.7</ele>
        <time>2022-05-24T07:43:01Z</time>
      </trkpt>
      <trkpt lat="44.89998" lon="1.65851">
        <ele>270.7</ele>
        <time>2022-05-24T07:43:02Z</time>
      </trkpt>
      <trkpt lat="44.90002" lon="1.65857">
        <ele>270.7</ele>
        <time>2022-05-24T07:43:03Z</time>
      </trkpt>
      <trkpt lat="44.90007" lon="1.6586">
        <ele>270.6</ele>
        <time>2022-05-24T07:43:04Z</time>
      </trkpt>
      <trkpt lat="44.90012" lon="1.65865">
        <ele>270.6</ele>
        <time>2022-05-24T07:43:05Z</time>
      </trkpt>
      <trkpt lat="44.90016" lon="1.65868">
        <ele>270.6</ele>
        <time>2022-05-24T07:43:06Z</time>
      </trkpt>
      <trkpt lat="44.9002" lon="1.65871">
        <ele>270.6</ele>
        <time>2022-05-24T07:43:07Z</time>
      </trkpt>
      <trkpt lat="44.90025" lon="1.65875">
        <ele>270.5</ele>
        <time>2022-05-24T07:43:08Z</time>
      </trkpt>
      <trkpt lat="44.90029" lon="1.65879">
        <ele>270.5</ele>
        <time>2022-05-24T07:43:09Z</time>
      </trkpt>
      <trkpt lat="44.90034" lon="1.65883">
        <ele>270.5</ele>
        <time>2022-05-24T07:43:10Z</time>
      </trkpt>
      <trkpt lat="44.90038" lon="1.65886">
        <ele>270.4</ele>
        <time>2022-05-24T07:43:11Z</time>
      </trkpt>
      <trkpt lat="44.90043" lon="1.65889">
        <ele>270.3</ele>
        <time>2022-05-24T07:43:12Z</time>
      </trkpt>
      <trkpt lat="44.90049" lon="1.65893">
        <ele>270</ele>
        <time>2022-05-24T07:43:13Z</time>
      </trkpt>
      <trkpt lat="44.9006" lon="1.659">
        <ele>269.6</ele>
        <time>2022-05-24T07:43:15Z</time>
      </trkpt>
      <trkpt lat="44.90066" lon="1.65903">
        <ele>269.4</ele>
        <time>2022-05-24T07:43:16Z</time>
      </trkpt>
      <trkpt lat="44.90071" lon="1.65907">
        <ele>269.2</ele>
        <time>2022-05-24T07:43:17Z</time>
      </trkpt>
      <trkpt lat="44.90076" lon="1.65913">
        <ele>268.9</ele>
        <time>2022-05-24T07:43:18Z</time>
      </trkpt>
      <trkpt lat="44.90081" lon="1.65919">
        <ele>268.7</ele>
        <time>2022-05-24T07:43:19Z</time>
      </trkpt>
      <trkpt lat="44.90085" lon="1.65927">
        <ele>268.4</ele>
        <time>2022-05-24T07:43:20Z</time>
      </trkpt>
      <trkpt lat="44.90089" lon="1.65935">
        <ele>268.2</ele>
        <time>2022-05-24T07:43:21Z</time>
      </trkpt>
      <trkpt lat="44.90091" lon="1.65941">
        <ele>267.9</ele>
        <time>2022-05-24T07:43:22Z</time>
      </trkpt>
      <trkpt lat="44.90095" lon="1.65948">
        <ele>267.6</ele>
        <time>2022-05-24T07:43:23Z</time>
      </trkpt>
      <trkpt lat="44.90099" lon="1.65952">
        <ele>267.4</ele>
        <time>2022-05-24T07:43:24Z</time>
      </trkpt>
      <trkpt lat="44.90103" lon="1.65958">
        <ele>267.1</ele>
        <time>2022-05-24T07:43:25Z</time>
      </trkpt>
      <trkpt lat="44.90108" lon="1.65961">
        <ele>266.9</ele>
        <time>2022-05-24T07:43:26Z</time>
      </trkpt>
      <trkpt lat="44.90112" lon="1.65964">
        <ele>266.7</ele>
        <time>2022-05-24T07:43:27Z</time>
      </trkpt>
      <trkpt lat="44.90117" lon="1.65964">
        <ele>266.5</ele>
        <time>2022-05-24T07:43:28Z</time>
      </trkpt>
      <trkpt lat="44.90122" lon="1.65964">
        <ele>266.4</ele>
        <time>2022-05-24T07:43:29Z</time>
      </trkpt>
      <trkpt lat="44.90126" lon="1.65962">
        <ele>266.2</ele>
        <time>2022-05-24T07:43:30Z</time>
      </trkpt>
      <trkpt lat="44.90131" lon="1.65961">
        <ele>266.1</ele>
        <time>2022-05-24T07:43:31Z</time>
      </trkpt>
      <trkpt lat="44.90134" lon="1.65959">
        <ele>266</ele>
        <time>2022-05-24T07:43:32Z</time>
      </trkpt>
      <trkpt lat="44.90137" lon="1.65956">
        <ele>265.9</ele>
        <time>2022-05-24T07:43:33Z</time>
      </trkpt>
      <trkpt lat="44.9014" lon="1.65952">
        <ele>265.7</ele>
        <time>2022-05-24T07:43:34Z</time>
      </trkpt>
      <trkpt lat="44.90142" lon="1.65947">
        <ele>265.6</ele>
        <time>2022-05-24T07:43:35Z</time>
      </trkpt>
      <trkpt lat="44.90145" lon="1.65941">
        <ele>265.3</ele>
        <time>2022-05-24T07:43:36Z</time>
      </trkpt>
      <trkpt lat="44.90148" lon="1.65935">
        <ele>265</ele>
        <time>2022-05-24T07:43:37Z</time>
      </trkpt>
      <trkpt lat="44.90151" lon="1.65928">
        <ele>264.6</ele>
        <time>2022-05-24T07:43:38Z</time>
      </trkpt>
      <trkpt lat="44.90153" lon="1.65921">
        <ele>264.2</ele>
        <time>2022-05-24T07:43:39Z</time>
      </trkpt>
      <trkpt lat="44.90155" lon="1.65914">
        <ele>263.8</ele>
        <time>2022-05-24T07:43:40Z</time>
      </trkpt>
      <trkpt lat="44.90158" lon="1.65907">
        <ele>263.4</ele>
        <time>2022-05-24T07:43:41Z</time>
      </trkpt>
      <trkpt lat="44.90159" lon="1.65899">
        <ele>263</ele>
        <time>2022-05-24T07:43:42Z</time>
      </trkpt>
      <trkpt lat="44.90161" lon="1.65891">
        <ele>262.6</ele>
        <time>2022-05-24T07:43:43Z</time>
      </trkpt>
      <trkpt lat="44.90164" lon="1.65883">
        <ele>262.2</ele>
        <time>2022-05-24T07:43:44Z</time>
      </trkpt>
      <trkpt lat="44.90167" lon="1.65875">
        <ele>261.8</ele>
        <time>2022-05-24T07:43:45Z</time>
      </trkpt>
      <trkpt lat="44.9017" lon="1.65867">
        <ele>261.3</ele>
        <time>2022-05-24T07:43:46Z</time>
      </trkpt>
      <trkpt lat="44.90173" lon="1.65859">
        <ele>260.8</ele>
        <time>2022-05-24T07:43:47Z</time>
      </trkpt>
      <trkpt lat="44.90175" lon="1.6585">
        <ele>260.3</ele>
        <time>2022-05-24T07:43:48Z</time>
      </trkpt>
      <trkpt lat="44.90178" lon="1.65842">
        <ele>259.7</ele>
        <time>2022-05-24T07:43:49Z</time>
      </trkpt>
      <trkpt lat="44.90181" lon="1.65833">
        <ele>259</ele>
        <time>2022-05-24T07:43:50Z</time>
      </trkpt>
      <trkpt lat="44.90183" lon="1.65826">
        <ele>258.3</ele>
        <time>2022-05-24T07:43:51Z</time>
      </trkpt>
      <trkpt lat="44.90184" lon="1.65819">
        <ele>257.6</ele>
        <time>2022-05-24T07:43:52Z</time>
      </trkpt>
      <trkpt lat="44.90185" lon="1.65811">
        <ele>256.9</ele>
        <time>2022-05-24T07:43:53Z</time>
      </trkpt>
      <trkpt lat="44.90187" lon="1.65804">
        <ele>256.2</ele>
        <time>2022-05-24T07:43:54Z</time>
      </trkpt>
      <trkpt lat="44.90189" lon="1.65798">
        <ele>255.6</ele>
        <time>2022-05-24T07:43:55Z</time>
      </trkpt>
      <trkpt lat="44.9019" lon="1.65792">
        <ele>255</ele>
        <time>2022-05-24T07:43:56Z</time>
      </trkpt>
      <trkpt lat="44.90192" lon="1.65787">
        <ele>254.5</ele>
        <time>2022-05-24T07:43:57Z</time>
      </trkpt>
      <trkpt lat="44.90196" lon="1.65782">
        <ele>253.8</ele>
        <time>2022-05-24T07:43:58Z</time>
      </trkpt>
      <trkpt lat="44.902" lon="1.65779">
        <ele>253.2</ele>
        <time>2022-05-24T07:43:59Z</time>
      </trkpt>
      <trkpt lat="44.90206" lon="1.65778">
        <ele>252.6</ele>
        <time>2022-05-24T07:44:00Z</time>
      </trkpt>
      <trkpt lat="44.90212" lon="1.65777">
        <ele>251.9</ele>
        <time>2022-05-24T07:44:01Z</time>
      </trkpt>
      <trkpt lat="44.90218" lon="1.65777">
        <ele>251.3</ele>
        <time>2022-05-24T07:44:02Z</time>
      </trkpt>
      <trkpt lat="44.90224" lon="1.65776">
        <ele>250.6</ele>
        <time>2022-05-24T07:44:03Z</time>
      </trkpt>
      <trkpt lat="44.90231" lon="1.65776">
        <ele>249.9</ele>
        <time>2022-05-24T07:44:04Z</time>
      </trkpt>
      <trkpt lat="44.90237" lon="1.65777">
        <ele>249.3</ele>
        <time>2022-05-24T07:44:05Z</time>
      </trkpt>
      <trkpt lat="44.90244" lon="1.65777">
        <ele>248.6</ele>
        <time>2022-05-24T07:44:06Z</time>
      </trkpt>
      <trkpt lat="44.90251" lon="1.65778">
        <ele>247.8</ele>
        <time>2022-05-24T07:44:07Z</time>
      </trkpt>
      <trkpt lat="44.90258" lon="1.65777">
        <ele>247.1</ele>
        <time>2022-05-24T07:44:08Z</time>
      </trkpt>
      <trkpt lat="44.90265" lon="1.65776">
        <ele>246.3</ele>
        <time>2022-05-24T07:44:09Z</time>
      </trkpt>
      <trkpt lat="44.90272" lon="1.65774">
        <ele>245.4</ele>
        <time>2022-05-24T07:44:10Z</time>
      </trkpt>
      <trkpt lat="44.90279" lon="1.65773">
        <ele>244.6</ele>
        <time>2022-05-24T07:44:11Z</time>
      </trkpt>
      <trkpt lat="44.90285" lon="1.65771">
        <ele>243.8</ele>
        <time>2022-05-24T07:44:12Z</time>
      </trkpt>
      <trkpt lat="44.90292" lon="1.6577">
        <ele>242.9</ele>
        <time>2022-05-24T07:44:13Z</time>
      </trkpt>
      <trkpt lat="44.90299" lon="1.65769">
        <ele>242.1</ele>
        <time>2022-05-24T07:44:14Z</time>
      </trkpt>
      <trkpt lat="44.90305" lon="1.65768">
        <ele>241.4</ele>
        <time>2022-05-24T07:44:15Z</time>
      </trkpt>
      <trkpt lat="44.90312" lon="1.65768">
        <ele>240.6</ele>
        <time>2022-05-24T07:44:16Z</time>
      </trkpt>
      <trkpt lat="44.90319" lon="1.65768">
        <ele>239.9</ele>
        <time>2022-05-24T07:44:17Z</time>
      </trkpt>
      <trkpt lat="44.90326" lon="1.65769">
        <ele>239.2</ele>
        <time>2022-05-24T07:44:18Z</time>
      </trkpt>
      <trkpt lat="44.90333" lon="1.65771">
        <ele>238.6</ele>
        <time>2022-05-24T07:44:19Z</time>
      </trkpt>
      <trkpt lat="44.90339" lon="1.65773">
        <ele>238.1</ele>
        <time>2022-05-24T07:44:20Z</time>
      </trkpt>
      <trkpt lat="44.90344" lon="1.65774">
        <ele>237.7</ele>
        <time>2022-05-24T07:44:21Z</time>
      </trkpt>
      <trkpt lat="44.90347" lon="1.65774">
        <ele>237.3</ele>
        <time>2022-05-24T07:44:22Z</time>
      </trkpt>
      <trkpt lat="44.9035" lon="1.65775">
        <ele>237.1</ele>
        <time>2022-05-24T07:44:23Z</time>
      </trkpt>
      <trkpt lat="44.90353" lon="1.65777">
        <ele>236.8</ele>
        <time>2022-05-24T07:44:24Z</time>
      </trkpt>
      <trkpt lat="44.90355" lon="1.6578">
        <ele>236.5</ele>
        <time>2022-05-24T07:44:25Z</time>
      </trkpt>
      <trkpt lat="44.90358" lon="1.65783">
        <ele>236.2</ele>
        <time>2022-05-24T07:44:26Z</time>
      </trkpt>
      <trkpt lat="44.90362" lon="1.65785">
        <ele>235.7</ele>
        <time>2022-05-24T07:44:27Z</time>
      </trkpt>
      <trkpt lat="44.90365" lon="1.65789">
        <ele>235.1</ele>
        <time>2022-05-24T07:44:28Z</time>
      </trkpt>
      <trkpt lat="44.90368" lon="1.65793">
        <ele>234.5</ele>
        <time>2022-05-24T07:44:29Z</time>
      </trkpt>
      <trkpt lat="44.90371" lon="1.65795">
        <ele>234</ele>
        <time>2022-05-24T07:44:30Z</time>
      </trkpt>
      <trkpt lat="44.90375" lon="1.65796">
        <ele>233.3</ele>
        <time>2022-05-24T07:44:31Z</time>
      </trkpt>
      <trkpt lat="44.90379" lon="1.65797">
        <ele>232.6</ele>
        <time>2022-05-24T07:44:32Z</time>
      </trkpt>
      <trkpt lat="44.90382" lon="1.65798">
        <ele>231.9</ele>
        <time>2022-05-24T07:44:33Z</time>
      </trkpt>
      <trkpt lat="44.90386" lon="1.65798">
        <ele>231.2</ele>
        <time>2022-05-24T07:44:34Z</time>
      </trkpt>
      <trkpt lat="44.9039" lon="1.65799">
        <ele>230.4</ele>
        <time>2022-05-24T07:44:35Z</time>
      </trkpt>
      <trkpt lat="44.90394" lon="1.65799">
        <ele>229.5</ele>
        <time>2022-05-24T07:44:36Z</time>
      </trkpt>
      <trkpt lat="44.90397" lon="1.65798">
        <ele>228.8</ele>
        <time>2022-05-24T07:44:37Z</time>
      </trkpt>
      <trkpt lat="44.90401" lon="1.65796">
        <ele>228.1</ele>
        <time>2022-05-24T07:44:38Z</time>
      </trkpt>
      <trkpt lat="44.90405" lon="1.65794">
        <ele>227.3</ele>
        <time>2022-05-24T07:44:39Z</time>
      </trkpt>
      <trkpt lat="44.90409" lon="1.65793">
        <ele>226.5</ele>
        <time>2022-05-24T07:44:40Z</time>
      </trkpt>
      <trkpt lat="44.90412" lon="1.65792">
        <ele>225.9</ele>
        <time>2022-05-24T07:44:41Z</time>
      </trkpt>
      <trkpt lat="44.90415" lon="1.65792">
        <ele>225.3</ele>
        <time>2022-05-24T07:44:42Z</time>
      </trkpt>
      <trkpt lat="44.90418" lon="1.65792">
        <ele>224.7</ele>
        <time>2022-05-24T07:44:43Z</time>
      </trkpt>
      <trkpt lat="44.90422" lon="1.65793">
        <ele>223.7</ele>
        <time>2022-05-24T07:44:44Z</time>
      </trkpt>
      <trkpt lat="44.90428" lon="1.65792">
        <ele>222.5</ele>
        <time>2022-05-24T07:44:45Z</time>
      </trkpt>
      <trkpt lat="44.90433" lon="1.6579">
        <ele>221.1</ele>
        <time>2022-05-24T07:44:46Z</time>
      </trkpt>
      <trkpt lat="44.90439" lon="1.65787">
        <ele>219.6</ele>
        <time>2022-05-24T07:44:47Z</time>
      </trkpt>
      <trkpt lat="44.90445" lon="1.65787">
        <ele>218.1</ele>
        <time>2022-05-24T07:44:48Z</time>
      </trkpt>
      <trkpt lat="44.90452" lon="1.65786">
        <ele>216.6</ele>
        <time>2022-05-24T07:44:49Z</time>
      </trkpt>
      <trkpt lat="44.90459" lon="1.65786">
        <ele>215.4</ele>
        <time>2022-05-24T07:44:50Z</time>
      </trkpt>
      <trkpt lat="44.90465" lon="1.65785">
        <ele>214.4</ele>
        <time>2022-05-24T07:44:51Z</time>
      </trkpt>
      <trkpt lat="44.90471" lon="1.65784">
        <ele>213.3</ele>
        <time>2022-05-24T07:44:52Z</time>
      </trkpt>
      <trkpt lat="44.90477" lon="1.65782">
        <ele>212.3</ele>
        <time>2022-05-24T07:44:53Z</time>
      </trkpt>
      <trkpt lat="44.90482" lon="1.6578">
        <ele>211.3</ele>
        <time>2022-05-24T07:44:54Z</time>
      </trkpt>
      <trkpt lat="44.90488" lon="1.65779">
        <ele>210.2</ele>
        <time>2022-05-24T07:44:55Z</time>
      </trkpt>
      <trkpt lat="44.90494" lon="1.65778">
        <ele>208.9</ele>
        <time>2022-05-24T07:44:56Z</time>
      </trkpt>
      <trkpt lat="44.90501" lon="1.65778">
        <ele>207.7</ele>
        <time>2022-05-24T07:44:57Z</time>
      </trkpt>
      <trkpt lat="44.90506" lon="1.65777">
        <ele>206.7</ele>
        <time>2022-05-24T07:44:58Z</time>
      </trkpt>
      <trkpt lat="44.90512" lon="1.65776">
        <ele>205.6</ele>
        <time>2022-05-24T07:44:59Z</time>
      </trkpt>
      <trkpt lat="44.90517" lon="1.65775">
        <ele>204.7</ele>
        <time>2022-05-24T07:45:00Z</time>
      </trkpt>
      <trkpt lat="44.90522" lon="1.65774">
        <ele>203.7</ele>
        <time>2022-05-24T07:45:01Z</time>
      </trkpt>
      <trkpt lat="44.90527" lon="1.65774">
        <ele>202.9</ele>
        <time>2022-05-24T07:45:02Z</time>
      </trkpt>
      <trkpt lat="44.90532" lon="1.65775">
        <ele>202.1</ele>
        <time>2022-05-24T07:45:03Z</time>
      </trkpt>
      <trkpt lat="44.90538" lon="1.65776">
        <ele>201.5</ele>
        <time>2022-05-24T07:45:04Z</time>
      </trkpt>
      <trkpt lat="44.90543" lon="1.65777">
        <ele>201.1</ele>
        <time>2022-05-24T07:45:05Z</time>
      </trkpt>
      <trkpt lat="44.90546" lon="1.65777">
        <ele>200.8</ele>
        <time>2022-05-24T07:45:06Z</time>
      </trkpt>
      <trkpt lat="44.90548" lon="1.65776">
        <ele>200.7</ele>
        <time>2022-05-24T07:45:07Z</time>
      </trkpt>
      <trkpt lat="44.90548" lon="1.65776">
        <ele>200.7</ele>
        <time>2022-05-24T07:45:08Z</time>
      </trkpt>
      <trkpt lat="44.90548" lon="1.65778">
        <ele>200.5</ele>
        <time>2022-05-24T07:45:09Z</time>
      </trkpt>
      <trkpt lat="44.90548" lon="1.65779">
        <ele>200.5</ele>
        <time>2022-05-24T07:45:10Z</time>
      </trkpt>
      <trkpt lat="44.90548" lon="1.65781">
        <ele>200.3</ele>
        <time>2022-05-24T07:45:11Z</time>
      </trkpt>
      <trkpt lat="44.90548" lon="1.65781">
        <ele>200.3</ele>
        <time>2022-05-24T07:45:12Z</time>
      </trkpt>
      <trkpt lat="44.90547" lon="1.6578">
        <ele>200.2</ele>
        <time>2022-05-24T07:45:13Z</time>
      </trkpt>
      <trkpt lat="44.90546" lon="1.65778">
        <ele>200</ele>
        <time>2022-05-24T07:45:14Z</time>
      </trkpt>
      <trkpt lat="44.90543" lon="1.65775">
        <ele>199.6</ele>
        <time>2022-05-24T07:45:15Z</time>
      </trkpt>
      <trkpt lat="44.90539" lon="1.65773">
        <ele>199.2</ele>
        <time>2022-05-24T07:45:16Z</time>
      </trkpt>
      <trkpt lat="44.90535" lon="1.6577">
        <ele>198.8</ele>
        <time>2022-05-24T07:45:17Z</time>
      </trkpt>
      <trkpt lat="44.90526" lon="1.65765">
        <ele>198.1</ele>
        <time>2022-05-24T07:45:19Z</time>
      </trkpt>
      <trkpt lat="44.90522" lon="1.65765">
        <ele>197.7</ele>
        <time>2022-05-24T07:45:20Z</time>
      </trkpt>
      <trkpt lat="44.90518" lon="1.65764">
        <ele>197.1</ele>
        <time>2022-05-24T07:45:22Z</time>
      </trkpt>
      <trkpt lat="44.9052" lon="1.65759">
        <ele>196.4</ele>
        <time>2022-05-24T07:45:23Z</time>
      </trkpt>
      <trkpt lat="44.90521" lon="1.65758">
        <ele>196.1</ele>
        <time>2022-05-24T07:45:24Z</time>
      </trkpt>
      <trkpt lat="44.90526" lon="1.65756">
        <ele>195.3</ele>
        <time>2022-05-24T07:45:25Z</time>
      </trkpt>
      <trkpt lat="44.9053" lon="1.65755">
        <ele>194.5</ele>
        <time>2022-05-24T07:45:26Z</time>
      </trkpt>
      <trkpt lat="44.90535" lon="1.65754">
        <ele>193.6</ele>
        <time>2022-05-24T07:45:27Z</time>
      </trkpt>
      <trkpt lat="44.9054" lon="1.65754">
        <ele>192.9</ele>
        <time>2022-05-24T07:45:28Z</time>
      </trkpt>
      <trkpt lat="44.90545" lon="1.65754">
        <ele>192.2</ele>
        <time>2022-05-24T07:45:29Z</time>
      </trkpt>
      <trkpt lat="44.9055" lon="1.65755">
        <ele>191.4</ele>
        <time>2022-05-24T07:45:30Z</time>
      </trkpt>
      <trkpt lat="44.90557" lon="1.65755">
        <ele>190.5</ele>
        <time>2022-05-24T07:45:31Z</time>
      </trkpt>
      <trkpt lat="44.90563" lon="1.65755">
        <ele>189.6</ele>
        <time>2022-05-24T07:45:32Z</time>
      </trkpt>
      <trkpt lat="44.90568" lon="1.65755">
        <ele>188.7</ele>
        <time>2022-05-24T07:45:33Z</time>
      </trkpt>
      <trkpt lat="44.90574" lon="1.65754">
        <ele>187.8</ele>
        <time>2022-05-24T07:45:34Z</time>
      </trkpt>
      <trkpt lat="44.9058" lon="1.65755">
        <ele>186.8</ele>
        <time>2022-05-24T07:45:35Z</time>
      </trkpt>
      <trkpt lat="44.90585" lon="1.65755">
        <ele>185.8</ele>
        <time>2022-05-24T07:45:36Z</time>
      </trkpt>
      <trkpt lat="44.9059" lon="1.65754">
        <ele>184.7</ele>
        <time>2022-05-24T07:45:37Z</time>
      </trkpt>
      <trkpt lat="44.90595" lon="1.65753">
        <ele>183.4</ele>
        <time>2022-05-24T07:45:38Z</time>
      </trkpt>
      <trkpt lat="44.906" lon="1.65751">
        <ele>182.3</ele>
        <time>2022-05-24T07:45:39Z</time>
      </trkpt>
      <trkpt lat="44.90604" lon="1.65749">
        <ele>181.3</ele>
        <time>2022-05-24T07:45:40Z</time>
      </trkpt>
      <trkpt lat="44.90609" lon="1.65748">
        <ele>180.1</ele>
        <time>2022-05-24T07:45:41Z</time>
      </trkpt>
      <trkpt lat="44.90615" lon="1.65747">
        <ele>178.9</ele>
        <time>2022-05-24T07:45:42Z</time>
      </trkpt>
      <trkpt lat="44.90621" lon="1.65746">
        <ele>177.9</ele>
        <time>2022-05-24T07:45:43Z</time>
      </trkpt>
      <trkpt lat="44.90626" lon="1.65746">
        <ele>176.9</ele>
        <time>2022-05-24T07:45:44Z</time>
      </trkpt>
      <trkpt lat="44.90631" lon="1.65745">
        <ele>175.9</ele>
        <time>2022-05-24T07:45:45Z</time>
      </trkpt>
      <trkpt lat="44.90637" lon="1.65745">
        <ele>174.8</ele>
        <time>2022-05-24T07:45:46Z</time>
      </trkpt>
      <trkpt lat="44.90642" lon="1.65744">
        <ele>173.8</ele>
        <time>2022-05-24T07:45:47Z</time>
      </trkpt>
      <trkpt lat="44.90648" lon="1.65743">
        <ele>172.7</ele>
        <time>2022-05-24T07:45:48Z</time>
      </trkpt>
      <trkpt lat="44.90653" lon="1.65741">
        <ele>171.6</ele>
        <time>2022-05-24T07:45:49Z</time>
      </trkpt>
      <trkpt lat="44.90658" lon="1.6574">
        <ele>170.5</ele>
        <time>2022-05-24T07:45:50Z</time>
      </trkpt>
      <trkpt lat="44.90663" lon="1.65739">
        <ele>169.6</ele>
        <time>2022-05-24T07:45:51Z</time>
      </trkpt>
      <trkpt lat="44.90668" lon="1.65739">
        <ele>168.6</ele>
        <time>2022-05-24T07:45:52Z</time>
      </trkpt>
      <trkpt lat="44.90673" lon="1.65738">
        <ele>167.6</ele>
        <time>2022-05-24T07:45:53Z</time>
      </trkpt>
      <trkpt lat="44.90677" lon="1.65736">
        <ele>166.7</ele>
        <time>2022-05-24T07:45:54Z</time>
      </trkpt>
      <trkpt lat="44.90682" lon="1.65735">
        <ele>165.8</ele>
        <time>2022-05-24T07:45:55Z</time>
      </trkpt>
      <trkpt lat="44.90687" lon="1.65734">
        <ele>164.8</ele>
        <time>2022-05-24T07:45:56Z</time>
      </trkpt>
      <trkpt lat="44.90692" lon="1.65733">
        <ele>163.8</ele>
        <time>2022-05-24T07:45:57Z</time>
      </trkpt>
      <trkpt lat="44.90697" lon="1.65731">
        <ele>162.7</ele>
        <time>2022-05-24T07:45:58Z</time>
      </trkpt>
      <trkpt lat="44.90701" lon="1.65729">
        <ele>161.7</ele>
        <time>2022-05-24T07:45:59Z</time>
      </trkpt>
      <trkpt lat="44.90705" lon="1.65727">
        <ele>160.7</ele>
        <time>2022-05-24T07:46:00Z</time>
      </trkpt>
      <trkpt lat="44.9071" lon="1.65726">
        <ele>159.8</ele>
        <time>2022-05-24T07:46:01Z</time>
      </trkpt>
      <trkpt lat="44.90715" lon="1.65724">
        <ele>158.8</ele>
        <time>2022-05-24T07:46:02Z</time>
      </trkpt>
      <trkpt lat="44.9072" lon="1.65723">
        <ele>157.8</ele>
        <time>2022-05-24T07:46:03Z</time>
      </trkpt>
      <trkpt lat="44.90725" lon="1.65722">
        <ele>156.8</ele>
        <time>2022-05-24T07:46:04Z</time>
      </trkpt>
      <trkpt lat="44.90729" lon="1.6572">
        <ele>155.8</ele>
        <time>2022-05-24T07:46:05Z</time>
      </trkpt>
      <trkpt lat="44.90734" lon="1.65718">
        <ele>154.7</ele>
        <time>2022-05-24T07:46:06Z</time>
      </trkpt>
      <trkpt lat="44.90737" lon="1.65717">
        <ele>153.8</ele>
        <time>2022-05-24T07:46:07Z</time>
      </trkpt>
      <trkpt lat="44.90741" lon="1.65715">
        <ele>152.8</ele>
        <time>2022-05-24T07:46:08Z</time>
      </trkpt>
      <trkpt lat="44.90745" lon="1.65715">
        <ele>151.9</ele>
        <time>2022-05-24T07:46:09Z</time>
      </trkpt>
      <trkpt lat="44.90749" lon="1.65713">
        <ele>150.9</ele>
        <time>2022-05-24T07:46:10Z</time>
      </trkpt>
      <trkpt lat="44.90753" lon="1.65711">
        <ele>150</ele>
        <time>2022-05-24T07:46:11Z</time>
      </trkpt>
      <trkpt lat="44.90757" lon="1.6571">
        <ele>148.9</ele>
        <time>2022-05-24T07:46:12Z</time>
      </trkpt>
      <trkpt lat="44.90761" lon="1.65708">
        <ele>147.8</ele>
        <time>2022-05-24T07:46:13Z</time>
      </trkpt>
      <trkpt lat="44.90765" lon="1.65706">
        <ele>146.7</ele>
        <time>2022-05-24T07:46:14Z</time>
      </trkpt>
      <trkpt lat="44.90768" lon="1.65704">
        <ele>145.8</ele>
        <time>2022-05-24T07:46:15Z</time>
      </trkpt>
      <trkpt lat="44.90772" lon="1.65702">
        <ele>145</ele>
        <time>2022-05-24T07:46:16Z</time>
      </trkpt>
      <trkpt lat="44.90775" lon="1.657">
        <ele>144.2</ele>
        <time>2022-05-24T07:46:17Z</time>
      </trkpt>
      <trkpt lat="44.90777" lon="1.65698">
        <ele>143.5</ele>
        <time>2022-05-24T07:46:18Z</time>
      </trkpt>
      <trkpt lat="44.90781" lon="1.65696">
        <ele>142.7</ele>
        <time>2022-05-24T07:46:19Z</time>
      </trkpt>
      <trkpt lat="44.90784" lon="1.65694">
        <ele>141.8</ele>
        <time>2022-05-24T07:46:20Z</time>
      </trkpt>
      <trkpt lat="44.90788" lon="1.65693">
        <ele>141</ele>
        <time>2022-05-24T07:46:21Z</time>
      </trkpt>
      <trkpt lat="44.90792" lon="1.65693">
        <ele>140.3</ele>
        <time>2022-05-24T07:46:22Z</time>
      </trkpt>
      <trkpt lat="44.90796" lon="1.65693">
        <ele>139.6</ele>
        <time>2022-05-24T07:46:23Z</time>
      </trkpt>
      <trkpt lat="44.90799" lon="1.65694">
        <ele>138.9</ele>
        <time>2022-05-24T07:46:24Z</time>
      </trkpt>
      <trkpt lat="44.90804" lon="1.657">
        <ele>137.9</ele>
        <time>2022-05-24T07:46:25Z</time>
      </trkpt>
      <trkpt lat="44.9081" lon="1.65704">
        <ele>136.9</ele>
        <time>2022-05-24T07:46:26Z</time>
      </trkpt>
      <trkpt lat="44.90815" lon="1.65708">
        <ele>136.2</ele>
        <time>2022-05-24T07:46:27Z</time>
      </trkpt>
      <trkpt lat="44.9082" lon="1.6571">
        <ele>135.6</ele>
        <time>2022-05-24T07:46:28Z</time>
      </trkpt>
      <trkpt lat="44.90824" lon="1.65712">
        <ele>135.1</ele>
        <time>2022-05-24T07:46:29Z</time>
      </trkpt>
      <trkpt lat="44.90828" lon="1.65714">
        <ele>134.7</ele>
        <time>2022-05-24T07:46:30Z</time>
      </trkpt>
      <trkpt lat="44.90832" lon="1.65714">
        <ele>134.3</ele>
        <time>2022-05-24T07:46:31Z</time>
      </trkpt>
      <trkpt lat="44.90836" lon="1.65712">
        <ele>134</ele>
        <time>2022-05-24T07:46:32Z</time>
      </trkpt>
      <trkpt lat="44.90839" lon="1.65707">
        <ele>133.8</ele>
        <time>2022-05-24T07:46:33Z</time>
      </trkpt>
      <trkpt lat="44.9084" lon="1.65701">
        <ele>133.4</ele>
        <time>2022-05-24T07:46:34Z</time>
      </trkpt>
      <trkpt lat="44.9084" lon="1.65692">
        <ele>133.1</ele>
        <time>2022-05-24T07:46:35Z</time>
      </trkpt>
      <trkpt lat="44.90842" lon="1.65684">
        <ele>132.8</ele>
        <time>2022-05-24T07:46:36Z</time>
      </trkpt>
      <trkpt lat="44.90845" lon="1.65677">
        <ele>132.5</ele>
        <time>2022-05-24T07:46:37Z</time>
      </trkpt>
      <trkpt lat="44.9085" lon="1.65673">
        <ele>132.3</ele>
        <time>2022-05-24T07:46:38Z</time>
      </trkpt>
      <trkpt lat="44.90854" lon="1.65671">
        <ele>132.1</ele>
        <time>2022-05-24T07:46:39Z</time>
      </trkpt>
      <trkpt lat="44.90859" lon="1.6567">
        <ele>131.9</ele>
        <time>2022-05-24T07:46:40Z</time>
      </trkpt>
      <trkpt lat="44.90864" lon="1.65669">
        <ele>131.8</ele>
        <time>2022-05-24T07:46:41Z</time>
      </trkpt>
      <trkpt lat="44.90869" lon="1.65668">
        <ele>131.7</ele>
        <time>2022-05-24T07:46:42Z</time>
      </trkpt>
      <trkpt lat="44.90873" lon="1.65667">
        <ele>131.6</ele>
        <time>2022-05-24T07:46:43Z</time>
      </trkpt>
      <trkpt lat="44.90878" lon="1.65665">
        <ele>131.5</ele>
        <time>2022-05-24T07:46:44Z</time>
      </trkpt>
      <trkpt lat="44.90882" lon="1.65664">
        <ele>131.4</ele>
        <time>2022-05-24T07:46:45Z</time>
      </trkpt>
      <trkpt lat="44.90885" lon="1.65663">
        <ele>131.3</ele>
        <time>2022-05-24T07:46:46Z</time>
      </trkpt>
      <trkpt lat="44.90886" lon="1.65658">
        <ele>131</ele>
        <time>2022-05-24T07:46:47Z</time>
      </trkpt>
      <trkpt lat="44.90886" lon="1.65655">
        <ele>130.9</ele>
        <time>2022-05-24T07:46:48Z</time>
      </trkpt>
      <trkpt lat="44.90885" lon="1.6565">
        <ele>130.5</ele>
        <time>2022-05-24T07:46:49Z</time>
      </trkpt>
      <trkpt lat="44.90884" lon="1.65645">
        <ele>130.1</ele>
        <time>2022-05-24T07:46:50Z</time>
      </trkpt>
      <trkpt lat="44.90882" lon="1.65638">
        <ele>129.6</ele>
        <time>2022-05-24T07:46:51Z</time>
      </trkpt>
      <trkpt lat="44.90881" lon="1.65631">
        <ele>129.1</ele>
        <time>2022-05-24T07:46:52Z</time>
      </trkpt>
      <trkpt lat="44.9088" lon="1.65622">
        <ele>128.5</ele>
        <time>2022-05-24T07:46:53Z</time>
      </trkpt>
      <trkpt lat="44.9088" lon="1.65614">
        <ele>128.1</ele>
        <time>2022-05-24T07:46:54Z</time>
      </trkpt>
      <trkpt lat="44.9088" lon="1.65604">
        <ele>127.6</ele>
        <time>2022-05-24T07:46:55Z</time>
      </trkpt>
      <trkpt lat="44.9088" lon="1.65595">
        <ele>127.1</ele>
        <time>2022-05-24T07:46:56Z</time>
      </trkpt>
      <trkpt lat="44.90881" lon="1.65585">
        <ele>126.6</ele>
        <time>2022-05-24T07:46:57Z</time>
      </trkpt>
      <trkpt lat="44.90882" lon="1.65575">
        <ele>126.1</ele>
        <time>2022-05-24T07:46:58Z</time>
      </trkpt>
      <trkpt lat="44.90885" lon="1.65565">
        <ele>125.7</ele>
        <time>2022-05-24T07:46:59Z</time>
      </trkpt>
      <trkpt lat="44.90887" lon="1.65555">
        <ele>125.3</ele>
        <time>2022-05-24T07:47:00Z</time>
      </trkpt>
      <trkpt lat="44.9089" lon="1.65546">
        <ele>124.9</ele>
        <time>2022-05-24T07:47:01Z</time>
      </trkpt>
      <trkpt lat="44.90894" lon="1.65535">
        <ele>124.5</ele>
        <time>2022-05-24T07:47:02Z</time>
      </trkpt>
      <trkpt lat="44.90898" lon="1.65525">
        <ele>124.1</ele>
        <time>2022-05-24T07:47:03Z</time>
      </trkpt>
      <trkpt lat="44.909" lon="1.65515">
        <ele>123.8</ele>
        <time>2022-05-24T07:47:04Z</time>
      </trkpt>
      <trkpt lat="44.90902" lon="1.65504">
        <ele>123.4</ele>
        <time>2022-05-24T07:47:05Z</time>
      </trkpt>
      <trkpt lat="44.90902" lon="1.65493">
        <ele>123</ele>
        <time>2022-05-24T07:47:06Z</time>
      </trkpt>
      <trkpt lat="44.90901" lon="1.65482">
        <ele>122.7</ele>
        <time>2022-05-24T07:47:07Z</time>
      </trkpt>
      <trkpt lat="44.90901" lon="1.65471">
        <ele>122.4</ele>
        <time>2022-05-24T07:47:08Z</time>
      </trkpt>
      <trkpt lat="44.90901" lon="1.65459">
        <ele>122.2</ele>
        <time>2022-05-24T07:47:09Z</time>
      </trkpt>
      <trkpt lat="44.90901" lon="1.65449">
        <ele>121.9</ele>
        <time>2022-05-24T07:47:10Z</time>
      </trkpt>
      <trkpt lat="44.90901" lon="1.65438">
        <ele>121.7</ele>
        <time>2022-05-24T07:47:11Z</time>
      </trkpt>
      <trkpt lat="44.90902" lon="1.65426">
        <ele>121.4</ele>
        <time>2022-05-24T07:47:12Z</time>
      </trkpt>
      <trkpt lat="44.90903" lon="1.65416">
        <ele>121.1</ele>
        <time>2022-05-24T07:47:13Z</time>
      </trkpt>
      <trkpt lat="44.90904" lon="1.65405">
        <ele>120.8</ele>
        <time>2022-05-24T07:47:14Z</time>
      </trkpt>
      <trkpt lat="44.90906" lon="1.65394">
        <ele>120.5</ele>
        <time>2022-05-24T07:47:15Z</time>
      </trkpt>
      <trkpt lat="44.90908" lon="1.65383">
        <ele>120.2</ele>
        <time>2022-05-24T07:47:16Z</time>
      </trkpt>
      <trkpt lat="44.9091" lon="1.65373">
        <ele>120</ele>
        <time>2022-05-24T07:47:17Z</time>
      </trkpt>
      <trkpt lat="44.90912" lon="1.65362">
        <ele>119.7</ele>
        <time>2022-05-24T07:47:18Z</time>
      </trkpt>
      <trkpt lat="44.90914" lon="1.65352">
        <ele>119.5</ele>
        <time>2022-05-24T07:47:19Z</time>
      </trkpt>
      <trkpt lat="44.90916" lon="1.65342">
        <ele>119.3</ele>
        <time>2022-05-24T07:47:20Z</time>
      </trkpt>
      <trkpt lat="44.90918" lon="1.65332">
        <ele>119.1</ele>
        <time>2022-05-24T07:47:21Z</time>
      </trkpt>
      <trkpt lat="44.90921" lon="1.65321">
        <ele>118.8</ele>
        <time>2022-05-24T07:47:22Z</time>
      </trkpt>
      <trkpt lat="44.90923" lon="1.6531">
        <ele>118.6</ele>
        <time>2022-05-24T07:47:23Z</time>
      </trkpt>
      <trkpt lat="44.90926" lon="1.65299">
        <ele>118.4</ele>
        <time>2022-05-24T07:47:24Z</time>
      </trkpt>
      <trkpt lat="44.90928" lon="1.65288">
        <ele>118.2</ele>
        <time>2022-05-24T07:47:25Z</time>
      </trkpt>
      <trkpt lat="44.9093" lon="1.65277">
        <ele>118</ele>
        <time>2022-05-24T07:47:27Z</time>
      </trkpt>
      <trkpt lat="44.90933" lon="1.65257">
        <ele>117.8</ele>
        <time>2022-05-24T07:47:28Z</time>
      </trkpt>
      <trkpt lat="44.90933" lon="1.65245">
        <ele>117.8</ele>
        <time>2022-05-24T07:47:29Z</time>
      </trkpt>
      <trkpt lat="44.90934" lon="1.65234">
        <ele>117.7</ele>
        <time>2022-05-24T07:47:30Z</time>
      </trkpt>
      <trkpt lat="44.90936" lon="1.65224">
        <ele>117.6</ele>
        <time>2022-05-24T07:47:31Z</time>
      </trkpt>
      <trkpt lat="44.90939" lon="1.65213">
        <ele>117.5</ele>
        <time>2022-05-24T07:47:32Z</time>
      </trkpt>
      <trkpt lat="44.90942" lon="1.65202">
        <ele>117.4</ele>
        <time>2022-05-24T07:47:33Z</time>
      </trkpt>
      <trkpt lat="44.90945" lon="1.65192">
        <ele>117.3</ele>
        <time>2022-05-24T07:47:34Z</time>
      </trkpt>
      <trkpt lat="44.90947" lon="1.65182">
        <ele>117.1</ele>
        <time>2022-05-24T07:47:35Z</time>
      </trkpt>
      <trkpt lat="44.9095" lon="1.65172">
        <ele>117</ele>
        <time>2022-05-24T07:47:36Z</time>
      </trkpt>
      <trkpt lat="44.90953" lon="1.65163">
        <ele>116.9</ele>
        <time>2022-05-24T07:47:37Z</time>
      </trkpt>
      <trkpt lat="44.90955" lon="1.65153">
        <ele>116.8</ele>
        <time>2022-05-24T07:47:38Z</time>
      </trkpt>
      <trkpt lat="44.90958" lon="1.65144">
        <ele>116.6</ele>
        <time>2022-05-24T07:47:39Z</time>
      </trkpt>
      <trkpt lat="44.9096" lon="1.65134">
        <ele>116.5</ele>
        <time>2022-05-24T07:47:40Z</time>
      </trkpt>
      <trkpt lat="44.90963" lon="1.65124">
        <ele>116.3</ele>
        <time>2022-05-24T07:47:41Z</time>
      </trkpt>
      <trkpt lat="44.90967" lon="1.65114">
        <ele>116.2</ele>
        <time>2022-05-24T07:47:42Z</time>
      </trkpt>
      <trkpt lat="44.9097" lon="1.65106">
        <ele>116.1</ele>
        <time>2022-05-24T07:47:43Z</time>
      </trkpt>
      <trkpt lat="44.90973" lon="1.65096">
        <ele>116</ele>
        <time>2022-05-24T07:47:44Z</time>
      </trkpt>
      <trkpt lat="44.90977" lon="1.65087">
        <ele>115.9</ele>
        <time>2022-05-24T07:47:45Z</time>
      </trkpt>
      <trkpt lat="44.9098" lon="1.65078">
        <ele>115.8</ele>
        <time>2022-05-24T07:47:46Z</time>
      </trkpt>
      <trkpt lat="44.90983" lon="1.65069">
        <ele>115.8</ele>
        <time>2022-05-24T07:47:47Z</time>
      </trkpt>
      <trkpt lat="44.90987" lon="1.65059">
        <ele>115.8</ele>
        <time>2022-05-24T07:47:48Z</time>
      </trkpt>
      <trkpt lat="44.90991" lon="1.6505">
        <ele>115.9</ele>
        <time>2022-05-24T07:47:49Z</time>
      </trkpt>
      <trkpt lat="44.90995" lon="1.65043">
        <ele>116</ele>
        <time>2022-05-24T07:47:50Z</time>
      </trkpt>
      <trkpt lat="44.91" lon="1.65037">
        <ele>116.1</ele>
        <time>2022-05-24T07:47:51Z</time>
      </trkpt>
      <trkpt lat="44.91004" lon="1.65036">
        <ele>116.2</ele>
        <time>2022-05-24T07:47:52Z</time>
      </trkpt>
      <trkpt lat="44.9101" lon="1.65036">
        <ele>116.1</ele>
        <time>2022-05-24T07:47:53Z</time>
      </trkpt>
      <trkpt lat="44.91015" lon="1.65035">
        <ele>116.1</ele>
        <time>2022-05-24T07:47:54Z</time>
      </trkpt>
      <trkpt lat="44.91019" lon="1.65032">
        <ele>115.9</ele>
        <time>2022-05-24T07:47:55Z</time>
      </trkpt>
      <trkpt lat="44.91023" lon="1.65027">
        <ele>115.8</ele>
        <time>2022-05-24T07:47:56Z</time>
      </trkpt>
      <trkpt lat="44.91027" lon="1.6502">
        <ele>115.7</ele>
        <time>2022-05-24T07:47:57Z</time>
      </trkpt>
      <trkpt lat="44.9103" lon="1.65014">
        <ele>115.6</ele>
        <time>2022-05-24T07:47:58Z</time>
      </trkpt>
      <trkpt lat="44.91035" lon="1.65007">
        <ele>115.5</ele>
        <time>2022-05-24T07:47:59Z</time>
      </trkpt>
      <trkpt lat="44.91039" lon="1.65">
        <ele>115.4</ele>
        <time>2022-05-24T07:48:00Z</time>
      </trkpt>
      <trkpt lat="44.91043" lon="1.64993">
        <ele>115.3</ele>
        <time>2022-05-24T07:48:01Z</time>
      </trkpt>
      <trkpt lat="44.91047" lon="1.64986">
        <ele>115.3</ele>
        <time>2022-05-24T07:48:02Z</time>
      </trkpt>
      <trkpt lat="44.91051" lon="1.64978">
        <ele>115.2</ele>
        <time>2022-05-24T07:48:03Z</time>
      </trkpt>
      <trkpt lat="44.91059" lon="1.64963">
        <ele>115.1</ele>
        <time>2022-05-24T07:48:09Z</time>
      </trkpt>
      <trkpt lat="44.91078" lon="1.64937">
        <ele>115</ele>
        <time>2022-05-24T07:48:10Z</time>
      </trkpt>
      <trkpt lat="44.91084" lon="1.64927">
        <ele>115</ele>
        <time>2022-05-24T07:48:11Z</time>
      </trkpt>
      <trkpt lat="44.9109" lon="1.64918">
        <ele>115.1</ele>
        <time>2022-05-24T07:48:12Z</time>
      </trkpt>
      <trkpt lat="44.91094" lon="1.6491">
        <ele>115.1</ele>
        <time>2022-05-24T07:48:13Z</time>
      </trkpt>
      <trkpt lat="44.91098" lon="1.64903">
        <ele>115.1</ele>
        <time>2022-05-24T07:48:14Z</time>
      </trkpt>
      <trkpt lat="44.91103" lon="1.64896">
        <ele>115.2</ele>
        <time>2022-05-24T07:48:15Z</time>
      </trkpt>
      <trkpt lat="44.91107" lon="1.64889">
        <ele>115.2</ele>
        <time>2022-05-24T07:48:16Z</time>
      </trkpt>
      <trkpt lat="44.91112" lon="1.64882">
        <ele>115.3</ele>
        <time>2022-05-24T07:48:17Z</time>
      </trkpt>
      <trkpt lat="44.91116" lon="1.64875">
        <ele>115.3</ele>
        <time>2022-05-24T07:48:18Z</time>
      </trkpt>
      <trkpt lat="44.9112" lon="1.64869">
        <ele>115.3</ele>
        <time>2022-05-24T07:48:19Z</time>
      </trkpt>
      <trkpt lat="44.91124" lon="1.64861">
        <ele>115.3</ele>
        <time>2022-05-24T07:48:20Z</time>
      </trkpt>
      <trkpt lat="44.91129" lon="1.64854">
        <ele>115.3</ele>
        <time>2022-05-24T07:48:21Z</time>
      </trkpt>
      <trkpt lat="44.91132" lon="1.64848">
        <ele>115.3</ele>
        <time>2022-05-24T07:48:22Z</time>
      </trkpt>
      <trkpt lat="44.91136" lon="1.6484">
        <ele>115.3</ele>
        <time>2022-05-24T07:48:23Z</time>
      </trkpt>
      <trkpt lat="44.9114" lon="1.64833">
        <ele>115.3</ele>
        <time>2022-05-24T07:48:24Z</time>
      </trkpt>
      <trkpt lat="44.91144" lon="1.64826">
        <ele>115.4</ele>
        <time>2022-05-24T07:48:25Z</time>
      </trkpt>
      <trkpt lat="44.91148" lon="1.64819">
        <ele>115.5</ele>
        <time>2022-05-24T07:48:26Z</time>
      </trkpt>
      <trkpt lat="44.91152" lon="1.64811">
        <ele>115.6</ele>
        <time>2022-05-24T07:48:27Z</time>
      </trkpt>
      <trkpt lat="44.91154" lon="1.64805">
        <ele>115.6</ele>
        <time>2022-05-24T07:48:28Z</time>
      </trkpt>
      <trkpt lat="44.91156" lon="1.64797">
        <ele>115.6</ele>
        <time>2022-05-24T07:48:29Z</time>
      </trkpt>
      <trkpt lat="44.91159" lon="1.64789">
        <ele>115.7</ele>
        <time>2022-05-24T07:48:30Z</time>
      </trkpt>
      <trkpt lat="44.91162" lon="1.64782">
        <ele>115.7</ele>
        <time>2022-05-24T07:48:31Z</time>
      </trkpt>
      <trkpt lat="44.91165" lon="1.64774">
        <ele>115.8</ele>
        <time>2022-05-24T07:48:32Z</time>
      </trkpt>
      <trkpt lat="44.91168" lon="1.64767">
        <ele>115.8</ele>
        <time>2022-05-24T07:48:33Z</time>
      </trkpt>
      <trkpt lat="44.91172" lon="1.64759">
        <ele>115.8</ele>
        <time>2022-05-24T07:48:34Z</time>
      </trkpt>
      <trkpt lat="44.91175" lon="1.64751">
        <ele>115.8</ele>
        <time>2022-05-24T07:48:35Z</time>
      </trkpt>
      <trkpt lat="44.91179" lon="1.64744">
        <ele>115.8</ele>
        <time>2022-05-24T07:48:36Z</time>
      </trkpt>
      <trkpt lat="44.91183" lon="1.64736">
        <ele>115.8</ele>
        <time>2022-05-24T07:48:37Z</time>
      </trkpt>
      <trkpt lat="44.91186" lon="1.64729">
        <ele>115.7</ele>
        <time>2022-05-24T07:48:38Z</time>
      </trkpt>
      <trkpt lat="44.9119" lon="1.64721">
        <ele>115.6</ele>
        <time>2022-05-24T07:48:39Z</time>
      </trkpt>
      <trkpt lat="44.91194" lon="1.64714">
        <ele>115.5</ele>
        <time>2022-05-24T07:48:40Z</time>
      </trkpt>
      <trkpt lat="44.91198" lon="1.64706">
        <ele>115.5</ele>
        <time>2022-05-24T07:48:41Z</time>
      </trkpt>
      <trkpt lat="44.91202" lon="1.64698">
        <ele>115.5</ele>
        <time>2022-05-24T07:48:42Z</time>
      </trkpt>
      <trkpt lat="44.91206" lon="1.64691">
        <ele>115.5</ele>
        <time>2022-05-24T07:48:43Z</time>
      </trkpt>
      <trkpt lat="44.91211" lon="1.64683">
        <ele>115.5</ele>
        <time>2022-05-24T07:48:44Z</time>
      </trkpt>
      <trkpt lat="44.91215" lon="1.64676">
        <ele>115.5</ele>
        <time>2022-05-24T07:48:45Z</time>
      </trkpt>
      <trkpt lat="44.9122" lon="1.64669">
        <ele>115.4</ele>
        <time>2022-05-24T07:48:46Z</time>
      </trkpt>
      <trkpt lat="44.91225" lon="1.64662">
        <ele>115.2</ele>
        <time>2022-05-24T07:48:47Z</time>
      </trkpt>
      <trkpt lat="44.91229" lon="1.64655">
        <ele>115</ele>
        <time>2022-05-24T07:48:48Z</time>
      </trkpt>
      <trkpt lat="44.91232" lon="1.64647">
        <ele>114.9</ele>
        <time>2022-05-24T07:48:49Z</time>
      </trkpt>
      <trkpt lat="44.91235" lon="1.64639">
        <ele>114.7</ele>
        <time>2022-05-24T07:48:50Z</time>
      </trkpt>
      <trkpt lat="44.9124" lon="1.64632">
        <ele>114.6</ele>
        <time>2022-05-24T07:48:51Z</time>
      </trkpt>
      <trkpt lat="44.91246" lon="1.64625">
        <ele>114.4</ele>
        <time>2022-05-24T07:48:52Z</time>
      </trkpt>
      <trkpt lat="44.91252" lon="1.64619">
        <ele>114.3</ele>
        <time>2022-05-24T07:48:53Z</time>
      </trkpt>
      <trkpt lat="44.91257" lon="1.64614">
        <ele>114.1</ele>
        <time>2022-05-24T07:48:54Z</time>
      </trkpt>
      <trkpt lat="44.91264" lon="1.64609">
        <ele>113.9</ele>
        <time>2022-05-24T07:48:55Z</time>
      </trkpt>
      <trkpt lat="44.91271" lon="1.64604">
        <ele>113.8</ele>
        <time>2022-05-24T07:48:56Z</time>
      </trkpt>
      <trkpt lat="44.91278" lon="1.646">
        <ele>113.7</ele>
        <time>2022-05-24T07:48:57Z</time>
      </trkpt>
      <trkpt lat="44.91284" lon="1.64596">
        <ele>113.6</ele>
        <time>2022-05-24T07:48:58Z</time>
      </trkpt>
      <trkpt lat="44.91291" lon="1.64591">
        <ele>113.5</ele>
        <time>2022-05-24T07:48:59Z</time>
      </trkpt>
      <trkpt lat="44.91297" lon="1.64587">
        <ele>113.4</ele>
        <time>2022-05-24T07:49:00Z</time>
      </trkpt>
      <trkpt lat="44.91304" lon="1.64583">
        <ele>113.6</ele>
        <time>2022-05-24T07:49:01Z</time>
      </trkpt>
      <trkpt lat="44.91311" lon="1.64583">
        <ele>113.9</ele>
        <time>2022-05-24T07:49:02Z</time>
      </trkpt>
      <trkpt lat="44.91317" lon="1.64585">
        <ele>114.2</ele>
        <time>2022-05-24T07:49:03Z</time>
      </trkpt>
      <trkpt lat="44.91323" lon="1.64587">
        <ele>114.5</ele>
        <time>2022-05-24T07:49:04Z</time>
      </trkpt>
      <trkpt lat="44.91329" lon="1.6459">
        <ele>114.8</ele>
        <time>2022-05-24T07:49:05Z</time>
      </trkpt>
      <trkpt lat="44.91334" lon="1.64594">
        <ele>115.2</ele>
        <time>2022-05-24T07:49:06Z</time>
      </trkpt>
      <trkpt lat="44.91339" lon="1.64597">
        <ele>115.6</ele>
        <time>2022-05-24T07:49:07Z</time>
      </trkpt>
      <trkpt lat="44.91344" lon="1.646">
        <ele>115.9</ele>
        <time>2022-05-24T07:49:08Z</time>
      </trkpt>
      <trkpt lat="44.91349" lon="1.64603">
        <ele>116.2</ele>
        <time>2022-05-24T07:49:09Z</time>
      </trkpt>
      <trkpt lat="44.91353" lon="1.64606">
        <ele>116.4</ele>
        <time>2022-05-24T07:49:10Z</time>
      </trkpt>
      <trkpt lat="44.91357" lon="1.64609">
        <ele>116.6</ele>
        <time>2022-05-24T07:49:11Z</time>
      </trkpt>
      <trkpt lat="44.91361" lon="1.64613">
        <ele>116.9</ele>
        <time>2022-05-24T07:49:12Z</time>
      </trkpt>
      <trkpt lat="44.91365" lon="1.64618">
        <ele>117.2</ele>
        <time>2022-05-24T07:49:13Z</time>
      </trkpt>
      <trkpt lat="44.91369" lon="1.64622">
        <ele>117.5</ele>
        <time>2022-05-24T07:49:14Z</time>
      </trkpt>
      <trkpt lat="44.91374" lon="1.64626">
        <ele>117.8</ele>
        <time>2022-05-24T07:49:15Z</time>
      </trkpt>
      <trkpt lat="44.91377" lon="1.6463">
        <ele>118.1</ele>
        <time>2022-05-24T07:49:16Z</time>
      </trkpt>
      <trkpt lat="44.91381" lon="1.64635">
        <ele>118.4</ele>
        <time>2022-05-24T07:49:17Z</time>
      </trkpt>
      <trkpt lat="44.91384" lon="1.6464">
        <ele>118.8</ele>
        <time>2022-05-24T07:49:18Z</time>
      </trkpt>
      <trkpt lat="44.91386" lon="1.64645">
        <ele>119.1</ele>
        <time>2022-05-24T07:49:19Z</time>
      </trkpt>
      <trkpt lat="44.91389" lon="1.64651">
        <ele>119.4</ele>
        <time>2022-05-24T07:49:20Z</time>
      </trkpt>
      <trkpt lat="44.91391" lon="1.64656">
        <ele>119.8</ele>
        <time>2022-05-24T07:49:21Z</time>
      </trkpt>
      <trkpt lat="44.91393" lon="1.64662">
        <ele>120.1</ele>
        <time>2022-05-24T07:49:22Z</time>
      </trkpt>
      <trkpt lat="44.91394" lon="1.64668">
        <ele>120.4</ele>
        <time>2022-05-24T07:49:23Z</time>
      </trkpt>
      <trkpt lat="44.91394" lon="1.64673">
        <ele>120.7</ele>
        <time>2022-05-24T07:49:24Z</time>
      </trkpt>
      <trkpt lat="44.91395" lon="1.64677">
        <ele>121</ele>
        <time>2022-05-24T07:49:25Z</time>
      </trkpt>
      <trkpt lat="44.91395" lon="1.64682">
        <ele>121.4</ele>
        <time>2022-05-24T07:49:26Z</time>
      </trkpt>
      <trkpt lat="44.91396" lon="1.64688">
        <ele>121.8</ele>
        <time>2022-05-24T07:49:27Z</time>
      </trkpt>
      <trkpt lat="44.91397" lon="1.64694">
        <ele>122.1</ele>
        <time>2022-05-24T07:49:28Z</time>
      </trkpt>
      <trkpt lat="44.91397" lon="1.64699">
        <ele>122.5</ele>
        <time>2022-05-24T07:49:29Z</time>
      </trkpt>
      <trkpt lat="44.91397" lon="1.64705">
        <ele>122.9</ele>
        <time>2022-05-24T07:49:30Z</time>
      </trkpt>
      <trkpt lat="44.91397" lon="1.64711">
        <ele>123.2</ele>
        <time>2022-05-24T07:49:31Z</time>
      </trkpt>
      <trkpt lat="44.91396" lon="1.64717">
        <ele>123.6</ele>
        <time>2022-05-24T07:49:32Z</time>
      </trkpt>
      <trkpt lat="44.91396" lon="1.64723">
        <ele>123.9</ele>
        <time>2022-05-24T07:49:33Z</time>
      </trkpt>
      <trkpt lat="44.91396" lon="1.64729">
        <ele>124.2</ele>
        <time>2022-05-24T07:49:34Z</time>
      </trkpt>
      <trkpt lat="44.91396" lon="1.64735">
        <ele>124.5</ele>
        <time>2022-05-24T07:49:35Z</time>
      </trkpt>
      <trkpt lat="44.91396" lon="1.64741">
        <ele>124.8</ele>
        <time>2022-05-24T07:49:36Z</time>
      </trkpt>
      <trkpt lat="44.91396" lon="1.64747">
        <ele>125.1</ele>
        <time>2022-05-24T07:49:37Z</time>
      </trkpt>
      <trkpt lat="44.91396" lon="1.64753">
        <ele>125.3</ele>
        <time>2022-05-24T07:49:38Z</time>
      </trkpt>
      <trkpt lat="44.91396" lon="1.64759">
        <ele>125.6</ele>
        <time>2022-05-24T07:49:39Z</time>
      </trkpt>
      <trkpt lat="44.91395" lon="1.64765">
        <ele>125.8</ele>
        <time>2022-05-24T07:49:40Z</time>
      </trkpt>
      <trkpt lat="44.91395" lon="1.6477">
        <ele>126.1</ele>
        <time>2022-05-24T07:49:41Z</time>
      </trkpt>
      <trkpt lat="44.91394" lon="1.64776">
        <ele>126.3</ele>
        <time>2022-05-24T07:49:42Z</time>
      </trkpt>
      <trkpt lat="44.91394" lon="1.64782">
        <ele>126.5</ele>
        <time>2022-05-24T07:49:43Z</time>
      </trkpt>
      <trkpt lat="44.91394" lon="1.64788">
        <ele>126.8</ele>
        <time>2022-05-24T07:49:44Z</time>
      </trkpt>
      <trkpt lat="44.91394" lon="1.64794">
        <ele>127</ele>
        <time>2022-05-24T07:49:45Z</time>
      </trkpt>
      <trkpt lat="44.91394" lon="1.64799">
        <ele>127.2</ele>
        <time>2022-05-24T07:49:46Z</time>
      </trkpt>
      <trkpt lat="44.91393" lon="1.64805">
        <ele>127.4</ele>
        <time>2022-05-24T07:49:47Z</time>
      </trkpt>
      <trkpt lat="44.91393" lon="1.6481">
        <ele>127.6</ele>
        <time>2022-05-24T07:49:48Z</time>
      </trkpt>
      <trkpt lat="44.91394" lon="1.64816">
        <ele>127.8</ele>
        <time>2022-05-24T07:49:49Z</time>
      </trkpt>
      <trkpt lat="44.91394" lon="1.64822">
        <ele>128</ele>
        <time>2022-05-24T07:49:50Z</time>
      </trkpt>
      <trkpt lat="44.91394" lon="1.64828">
        <ele>128.2</ele>
        <time>2022-05-24T07:49:51Z</time>
      </trkpt>
      <trkpt lat="44.91395" lon="1.64833">
        <ele>128.4</ele>
        <time>2022-05-24T07:49:52Z</time>
      </trkpt>
      <trkpt lat="44.91397" lon="1.64839">
        <ele>128.6</ele>
        <time>2022-05-24T07:49:53Z</time>
      </trkpt>
      <trkpt lat="44.91399" lon="1.64844">
        <ele>128.7</ele>
        <time>2022-05-24T07:49:54Z</time>
      </trkpt>
      <trkpt lat="44.91403" lon="1.64847">
        <ele>128.8</ele>
        <time>2022-05-24T07:49:55Z</time>
      </trkpt>
      <trkpt lat="44.91409" lon="1.6485">
        <ele>128.9</ele>
        <time>2022-05-24T07:49:56Z</time>
      </trkpt>
      <trkpt lat="44.91415" lon="1.64853">
        <ele>128.9</ele>
        <time>2022-05-24T07:49:57Z</time>
      </trkpt>
      <trkpt lat="44.9142" lon="1.64854">
        <ele>129</ele>
        <time>2022-05-24T07:49:58Z</time>
      </trkpt>
      <trkpt lat="44.91424" lon="1.64856">
        <ele>129</ele>
        <time>2022-05-24T07:49:59Z</time>
      </trkpt>
      <trkpt lat="44.91429" lon="1.64859">
        <ele>129.1</ele>
        <time>2022-05-24T07:50:00Z</time>
      </trkpt>
      <trkpt lat="44.91434" lon="1.64862">
        <ele>129.1</ele>
        <time>2022-05-24T07:50:01Z</time>
      </trkpt>
      <trkpt lat="44.91439" lon="1.64865">
        <ele>129.1</ele>
        <time>2022-05-24T07:50:02Z</time>
      </trkpt>
      <trkpt lat="44.91443" lon="1.64868">
        <ele>129.1</ele>
        <time>2022-05-24T07:50:03Z</time>
      </trkpt>
      <trkpt lat="44.91448" lon="1.64871">
        <ele>129.2</ele>
        <time>2022-05-24T07:50:04Z</time>
      </trkpt>
      <trkpt lat="44.91453" lon="1.64873">
        <ele>129.2</ele>
        <time>2022-05-24T07:50:05Z</time>
      </trkpt>
      <trkpt lat="44.91458" lon="1.64876">
        <ele>129.2</ele>
        <time>2022-05-24T07:50:06Z</time>
      </trkpt>
      <trkpt lat="44.91463" lon="1.64879">
        <ele>129.2</ele>
        <time>2022-05-24T07:50:07Z</time>
      </trkpt>
      <trkpt lat="44.91467" lon="1.64882">
        <ele>129.2</ele>
        <time>2022-05-24T07:50:08Z</time>
      </trkpt>
      <trkpt lat="44.91471" lon="1.64886">
        <ele>129.1</ele>
        <time>2022-05-24T07:50:09Z</time>
      </trkpt>
      <trkpt lat="44.91476" lon="1.64891">
        <ele>129</ele>
        <time>2022-05-24T07:50:10Z</time>
      </trkpt>
      <trkpt lat="44.91479" lon="1.64896">
        <ele>128.8</ele>
        <time>2022-05-24T07:50:11Z</time>
      </trkpt>
      <trkpt lat="44.91483" lon="1.64902">
        <ele>128.6</ele>
        <time>2022-05-24T07:50:12Z</time>
      </trkpt>
      <trkpt lat="44.91487" lon="1.64907">
        <ele>128.3</ele>
        <time>2022-05-24T07:50:13Z</time>
      </trkpt>
      <trkpt lat="44.91492" lon="1.64913">
        <ele>128</ele>
        <time>2022-05-24T07:50:14Z</time>
      </trkpt>
      <trkpt lat="44.91497" lon="1.64918">
        <ele>127.7</ele>
        <time>2022-05-24T07:50:15Z</time>
      </trkpt>
      <trkpt lat="44.91504" lon="1.64921">
        <ele>127.4</ele>
        <time>2022-05-24T07:50:16Z</time>
      </trkpt>
      <trkpt lat="44.91511" lon="1.64923">
        <ele>127.2</ele>
        <time>2022-05-24T07:50:17Z</time>
      </trkpt>
      <trkpt lat="44.91518" lon="1.64923">
        <ele>127</ele>
        <time>2022-05-24T07:50:18Z</time>
      </trkpt>
      <trkpt lat="44.91525" lon="1.64923">
        <ele>126.8</ele>
        <time>2022-05-24T07:50:19Z</time>
      </trkpt>
      <trkpt lat="44.91532" lon="1.64925">
        <ele>126.6</ele>
        <time>2022-05-24T07:50:20Z</time>
      </trkpt>
      <trkpt lat="44.91539" lon="1.64926">
        <ele>126.5</ele>
        <time>2022-05-24T07:50:21Z</time>
      </trkpt>
      <trkpt lat="44.91546" lon="1.64926">
        <ele>126.3</ele>
        <time>2022-05-24T07:50:22Z</time>
      </trkpt>
      <trkpt lat="44.91553" lon="1.64928">
        <ele>126.3</ele>
        <time>2022-05-24T07:50:23Z</time>
      </trkpt>
      <trkpt lat="44.9156" lon="1.6493">
        <ele>126.2</ele>
        <time>2022-05-24T07:50:24Z</time>
      </trkpt>
      <trkpt lat="44.91567" lon="1.64931">
        <ele>126.2</ele>
        <time>2022-05-24T07:50:25Z</time>
      </trkpt>
      <trkpt lat="44.91574" lon="1.64934">
        <ele>126.1</ele>
        <time>2022-05-24T07:50:26Z</time>
      </trkpt>
      <trkpt lat="44.9158" lon="1.64937">
        <ele>126.1</ele>
        <time>2022-05-24T07:50:27Z</time>
      </trkpt>
      <trkpt lat="44.91586" lon="1.64941">
        <ele>126.2</ele>
        <time>2022-05-24T07:50:28Z</time>
      </trkpt>
      <trkpt lat="44.91592" lon="1.64945">
        <ele>126.2</ele>
        <time>2022-05-24T07:50:29Z</time>
      </trkpt>
      <trkpt lat="44.91597" lon="1.64951">
        <ele>126.3</ele>
        <time>2022-05-24T07:50:30Z</time>
      </trkpt>
      <trkpt lat="44.91603" lon="1.64956">
        <ele>126.4</ele>
        <time>2022-05-24T07:50:31Z</time>
      </trkpt>
      <trkpt lat="44.91608" lon="1.64962">
        <ele>126.5</ele>
        <time>2022-05-24T07:50:32Z</time>
      </trkpt>
      <trkpt lat="44.91612" lon="1.64968">
        <ele>126.6</ele>
        <time>2022-05-24T07:50:33Z</time>
      </trkpt>
      <trkpt lat="44.91617" lon="1.64975">
        <ele>126.8</ele>
        <time>2022-05-24T07:50:34Z</time>
      </trkpt>
      <trkpt lat="44.91622" lon="1.64982">
        <ele>127</ele>
        <time>2022-05-24T07:50:35Z</time>
      </trkpt>
      <trkpt lat="44.91627" lon="1.64988">
        <ele>127.1</ele>
        <time>2022-05-24T07:50:36Z</time>
      </trkpt>
      <trkpt lat="44.91631" lon="1.64993">
        <ele>127.3</ele>
        <time>2022-05-24T07:50:37Z</time>
      </trkpt>
      <trkpt lat="44.91635" lon="1.64999">
        <ele>127.6</ele>
        <time>2022-05-24T07:50:38Z</time>
      </trkpt>
      <trkpt lat="44.91639" lon="1.65004">
        <ele>127.7</ele>
        <time>2022-05-24T07:50:39Z</time>
      </trkpt>
      <trkpt lat="44.91642" lon="1.6501">
        <ele>127.9</ele>
        <time>2022-05-24T07:50:40Z</time>
      </trkpt>
      <trkpt lat="44.91647" lon="1.65015">
        <ele>128</ele>
        <time>2022-05-24T07:50:41Z</time>
      </trkpt>
      <trkpt lat="44.91652" lon="1.65022">
        <ele>128.2</ele>
        <time>2022-05-24T07:50:42Z</time>
      </trkpt>
      <trkpt lat="44.91656" lon="1.65028">
        <ele>128.3</ele>
        <time>2022-05-24T07:50:43Z</time>
      </trkpt>
      <trkpt lat="44.9166" lon="1.65034">
        <ele>128.5</ele>
        <time>2022-05-24T07:50:44Z</time>
      </trkpt>
      <trkpt lat="44.91664" lon="1.6504">
        <ele>128.7</ele>
        <time>2022-05-24T07:50:45Z</time>
      </trkpt>
      <trkpt lat="44.91668" lon="1.65048">
        <ele>129</ele>
        <time>2022-05-24T07:50:46Z</time>
      </trkpt>
      <trkpt lat="44.91672" lon="1.65054">
        <ele>129.2</ele>
        <time>2022-05-24T07:50:47Z</time>
      </trkpt>
      <trkpt lat="44.91675" lon="1.65059">
        <ele>129.3</ele>
        <time>2022-05-24T07:50:48Z</time>
      </trkpt>
      <trkpt lat="44.91679" lon="1.65064">
        <ele>129.5</ele>
        <time>2022-05-24T07:50:49Z</time>
      </trkpt>
      <trkpt lat="44.91682" lon="1.6507">
        <ele>129.7</ele>
        <time>2022-05-24T07:50:50Z</time>
      </trkpt>
      <trkpt lat="44.91685" lon="1.65076">
        <ele>129.8</ele>
        <time>2022-05-24T07:50:51Z</time>
      </trkpt>
      <trkpt lat="44.91689" lon="1.65081">
        <ele>130.1</ele>
        <time>2022-05-24T07:50:52Z</time>
      </trkpt>
      <trkpt lat="44.91692" lon="1.65086">
        <ele>130.4</ele>
        <time>2022-05-24T07:50:53Z</time>
      </trkpt>
      <trkpt lat="44.91696" lon="1.65091">
        <ele>130.7</ele>
        <time>2022-05-24T07:50:54Z</time>
      </trkpt>
      <trkpt lat="44.91699" lon="1.65094">
        <ele>131</ele>
        <time>2022-05-24T07:50:55Z</time>
      </trkpt>
      <trkpt lat="44.91702" lon="1.65098">
        <ele>131.2</ele>
        <time>2022-05-24T07:50:56Z</time>
      </trkpt>
      <trkpt lat="44.91705" lon="1.65102">
        <ele>131.5</ele>
        <time>2022-05-24T07:50:57Z</time>
      </trkpt>
      <trkpt lat="44.91707" lon="1.65107">
        <ele>131.8</ele>
        <time>2022-05-24T07:50:58Z</time>
      </trkpt>
      <trkpt lat="44.9171" lon="1.65112">
        <ele>132.1</ele>
        <time>2022-05-24T07:50:59Z</time>
      </trkpt>
      <trkpt lat="44.91713" lon="1.65117">
        <ele>132.3</ele>
        <time>2022-05-24T07:51:00Z</time>
      </trkpt>
      <trkpt lat="44.91716" lon="1.65122">
        <ele>132.6</ele>
        <time>2022-05-24T07:51:01Z</time>
      </trkpt>
      <trkpt lat="44.91719" lon="1.65127">
        <ele>132.9</ele>
        <time>2022-05-24T07:51:02Z</time>
      </trkpt>
      <trkpt lat="44.91722" lon="1.65131">
        <ele>133.2</ele>
        <time>2022-05-24T07:51:03Z</time>
      </trkpt>
      <trkpt lat="44.91725" lon="1.65137">
        <ele>133.5</ele>
        <time>2022-05-24T07:51:04Z</time>
      </trkpt>
      <trkpt lat="44.91729" lon="1.65142">
        <ele>133.7</ele>
        <time>2022-05-24T07:51:05Z</time>
      </trkpt>
      <trkpt lat="44.91733" lon="1.65147">
        <ele>134</ele>
        <time>2022-05-24T07:51:06Z</time>
      </trkpt>
      <trkpt lat="44.91737" lon="1.65151">
        <ele>134.3</ele>
        <time>2022-05-24T07:51:07Z</time>
      </trkpt>
      <trkpt lat="44.9174" lon="1.65156">
        <ele>134.5</ele>
        <time>2022-05-24T07:51:08Z</time>
      </trkpt>
      <trkpt lat="44.91743" lon="1.65161">
        <ele>134.7</ele>
        <time>2022-05-24T07:51:09Z</time>
      </trkpt>
      <trkpt lat="44.91747" lon="1.65167">
        <ele>134.8</ele>
        <time>2022-05-24T07:51:10Z</time>
      </trkpt>
      <trkpt lat="44.9175" lon="1.65172">
        <ele>135</ele>
        <time>2022-05-24T07:51:11Z</time>
      </trkpt>
      <trkpt lat="44.91754" lon="1.65177">
        <ele>135.2</ele>
        <time>2022-05-24T07:51:12Z</time>
      </trkpt>
      <trkpt lat="44.91758" lon="1.65182">
        <ele>135.3</ele>
        <time>2022-05-24T07:51:13Z</time>
      </trkpt>
      <trkpt lat="44.91762" lon="1.65188">
        <ele>135.5</ele>
        <time>2022-05-24T07:51:14Z</time>
      </trkpt>
      <trkpt lat="44.91766" lon="1.65193">
        <ele>135.7</ele>
        <time>2022-05-24T07:51:15Z</time>
      </trkpt>
      <trkpt lat="44.9177" lon="1.65199">
        <ele>135.9</ele>
        <time>2022-05-24T07:51:16Z</time>
      </trkpt>
      <trkpt lat="44.91774" lon="1.65204">
        <ele>136</ele>
        <time>2022-05-24T07:51:17Z</time>
      </trkpt>
      <trkpt lat="44.91777" lon="1.65209">
        <ele>136.2</ele>
        <time>2022-05-24T07:51:18Z</time>
      </trkpt>
      <trkpt lat="44.91781" lon="1.65214">
        <ele>136.3</ele>
        <time>2022-05-24T07:51:19Z</time>
      </trkpt>
      <trkpt lat="44.91784" lon="1.65219">
        <ele>136.4</ele>
        <time>2022-05-24T07:51:20Z</time>
      </trkpt>
      <trkpt lat="44.91788" lon="1.65224">
        <ele>136.6</ele>
        <time>2022-05-24T07:51:21Z</time>
      </trkpt>
      <trkpt lat="44.91792" lon="1.65229">
        <ele>136.7</ele>
        <time>2022-05-24T07:51:22Z</time>
      </trkpt>
      <trkpt lat="44.91795" lon="1.65234">
        <ele>136.9</ele>
        <time>2022-05-24T07:51:23Z</time>
      </trkpt>
      <trkpt lat="44.91798" lon="1.6524">
        <ele>137.1</ele>
        <time>2022-05-24T07:51:24Z</time>
      </trkpt>
      <trkpt lat="44.91801" lon="1.65244">
        <ele>137.3</ele>
        <time>2022-05-24T07:51:25Z</time>
      </trkpt>
      <trkpt lat="44.91805" lon="1.65249">
        <ele>137.5</ele>
        <time>2022-05-24T07:51:26Z</time>
      </trkpt>
      <trkpt lat="44.91808" lon="1.65254">
        <ele>137.7</ele>
        <time>2022-05-24T07:51:27Z</time>
      </trkpt>
      <trkpt lat="44.91812" lon="1.65258">
        <ele>137.9</ele>
        <time>2022-05-24T07:51:28Z</time>
      </trkpt>
      <trkpt lat="44.91815" lon="1.65263">
        <ele>138.1</ele>
        <time>2022-05-24T07:51:29Z</time>
      </trkpt>
      <trkpt lat="44.91818" lon="1.65269">
        <ele>138.3</ele>
        <time>2022-05-24T07:51:30Z</time>
      </trkpt>
      <trkpt lat="44.91821" lon="1.65274">
        <ele>138.5</ele>
        <time>2022-05-24T07:51:31Z</time>
      </trkpt>
      <trkpt lat="44.91824" lon="1.65279">
        <ele>138.7</ele>
        <time>2022-05-24T07:51:32Z</time>
      </trkpt>
      <trkpt lat="44.91827" lon="1.65284">
        <ele>139</ele>
        <time>2022-05-24T07:51:33Z</time>
      </trkpt>
      <trkpt lat="44.9183" lon="1.65289">
        <ele>139.3</ele>
        <time>2022-05-24T07:51:34Z</time>
      </trkpt>
      <trkpt lat="44.91833" lon="1.65294">
        <ele>139.6</ele>
        <time>2022-05-24T07:51:35Z</time>
      </trkpt>
      <trkpt lat="44.91835" lon="1.65298">
        <ele>139.8</ele>
        <time>2022-05-24T07:51:36Z</time>
      </trkpt>
      <trkpt lat="44.91838" lon="1.65304">
        <ele>140.2</ele>
        <time>2022-05-24T07:51:37Z</time>
      </trkpt>
      <trkpt lat="44.9184" lon="1.65309">
        <ele>140.5</ele>
        <time>2022-05-24T07:51:38Z</time>
      </trkpt>
      <trkpt lat="44.91842" lon="1.65314">
        <ele>140.9</ele>
        <time>2022-05-24T07:51:39Z</time>
      </trkpt>
      <trkpt lat="44.91844" lon="1.6532">
        <ele>141.2</ele>
        <time>2022-05-24T07:51:40Z</time>
      </trkpt>
      <trkpt lat="44.91846" lon="1.65325">
        <ele>141.5</ele>
        <time>2022-05-24T07:51:41Z</time>
      </trkpt>
      <trkpt lat="44.91848" lon="1.6533">
        <ele>141.8</ele>
        <time>2022-05-24T07:51:42Z</time>
      </trkpt>
      <trkpt lat="44.91849" lon="1.65335">
        <ele>142</ele>
        <time>2022-05-24T07:51:43Z</time>
      </trkpt>
      <trkpt lat="44.91851" lon="1.6534">
        <ele>142.3</ele>
        <time>2022-05-24T07:51:44Z</time>
      </trkpt>
      <trkpt lat="44.91852" lon="1.65345">
        <ele>142.5</ele>
        <time>2022-05-24T07:51:45Z</time>
      </trkpt>
      <trkpt lat="44.91853" lon="1.65351">
        <ele>142.6</ele>
        <time>2022-05-24T07:51:46Z</time>
      </trkpt>
      <trkpt lat="44.91854" lon="1.65357">
        <ele>142.8</ele>
        <time>2022-05-24T07:51:47Z</time>
      </trkpt>
      <trkpt lat="44.91855" lon="1.65364">
        <ele>143</ele>
        <time>2022-05-24T07:51:48Z</time>
      </trkpt>
      <trkpt lat="44.91856" lon="1.6537">
        <ele>143.1</ele>
        <time>2022-05-24T07:51:49Z</time>
      </trkpt>
      <trkpt lat="44.91857" lon="1.65375">
        <ele>143.2</ele>
        <time>2022-05-24T07:51:50Z</time>
      </trkpt>
      <trkpt lat="44.91857" lon="1.65381">
        <ele>143.4</ele>
        <time>2022-05-24T07:51:51Z</time>
      </trkpt>
      <trkpt lat="44.91859" lon="1.65388">
        <ele>143.5</ele>
        <time>2022-05-24T07:51:52Z</time>
      </trkpt>
      <trkpt lat="44.91859" lon="1.65395">
        <ele>143.7</ele>
        <time>2022-05-24T07:51:53Z</time>
      </trkpt>
      <trkpt lat="44.9186" lon="1.65401">
        <ele>143.8</ele>
        <time>2022-05-24T07:51:54Z</time>
      </trkpt>
      <trkpt lat="44.91861" lon="1.65408">
        <ele>144</ele>
        <time>2022-05-24T07:51:55Z</time>
      </trkpt>
      <trkpt lat="44.91862" lon="1.65415">
        <ele>144.2</ele>
        <time>2022-05-24T07:51:56Z</time>
      </trkpt>
      <trkpt lat="44.91863" lon="1.65421">
        <ele>144.4</ele>
        <time>2022-05-24T07:51:57Z</time>
      </trkpt>
      <trkpt lat="44.91864" lon="1.65427">
        <ele>144.6</ele>
        <time>2022-05-24T07:51:58Z</time>
      </trkpt>
      <trkpt lat="44.91866" lon="1.65434">
        <ele>144.8</ele>
        <time>2022-05-24T07:51:59Z</time>
      </trkpt>
      <trkpt lat="44.91867" lon="1.65439">
        <ele>144.9</ele>
        <time>2022-05-24T07:52:00Z</time>
      </trkpt>
      <trkpt lat="44.91868" lon="1.65444">
        <ele>145.1</ele>
        <time>2022-05-24T07:52:01Z</time>
      </trkpt>
      <trkpt lat="44.91869" lon="1.65448">
        <ele>145.2</ele>
        <time>2022-05-24T07:52:02Z</time>
      </trkpt>
      <trkpt lat="44.9187" lon="1.65454">
        <ele>145.3</ele>
        <time>2022-05-24T07:52:03Z</time>
      </trkpt>
      <trkpt lat="44.9187" lon="1.6546">
        <ele>145.3</ele>
        <time>2022-05-24T07:52:04Z</time>
      </trkpt>
      <trkpt lat="44.91868" lon="1.65466">
        <ele>145.2</ele>
        <time>2022-05-24T07:52:05Z</time>
      </trkpt>
      <trkpt lat="44.91867" lon="1.65472">
        <ele>145.1</ele>
        <time>2022-05-24T07:52:06Z</time>
      </trkpt>
      <trkpt lat="44.91866" lon="1.65479">
        <ele>145</ele>
        <time>2022-05-24T07:52:07Z</time>
      </trkpt>
      <trkpt lat="44.91865" lon="1.65487">
        <ele>144.7</ele>
        <time>2022-05-24T07:52:08Z</time>
      </trkpt>
      <trkpt lat="44.91866" lon="1.65496">
        <ele>144.4</ele>
        <time>2022-05-24T07:52:09Z</time>
      </trkpt>
      <trkpt lat="44.91867" lon="1.65504">
        <ele>144.1</ele>
        <time>2022-05-24T07:52:10Z</time>
      </trkpt>
      <trkpt lat="44.91868" lon="1.65513">
        <ele>143.8</ele>
        <time>2022-05-24T07:52:11Z</time>
      </trkpt>
      <trkpt lat="44.91869" lon="1.65521">
        <ele>143.4</ele>
        <time>2022-05-24T07:52:12Z</time>
      </trkpt>
      <trkpt lat="44.9187" lon="1.6553">
        <ele>143</ele>
        <time>2022-05-24T07:52:13Z</time>
      </trkpt>
      <trkpt lat="44.91872" lon="1.6554">
        <ele>142.6</ele>
        <time>2022-05-24T07:52:14Z</time>
      </trkpt>
      <trkpt lat="44.91874" lon="1.65549">
        <ele>142.2</ele>
        <time>2022-05-24T07:52:15Z</time>
      </trkpt>
      <trkpt lat="44.91876" lon="1.6556">
        <ele>141.6</ele>
        <time>2022-05-24T07:52:16Z</time>
      </trkpt>
      <trkpt lat="44.91879" lon="1.6557">
        <ele>141.1</ele>
        <time>2022-05-24T07:52:17Z</time>
      </trkpt>
      <trkpt lat="44.91882" lon="1.6558">
        <ele>140.6</ele>
        <time>2022-05-24T07:52:18Z</time>
      </trkpt>
      <trkpt lat="44.91885" lon="1.6559">
        <ele>140</ele>
        <time>2022-05-24T07:52:19Z</time>
      </trkpt>
      <trkpt lat="44.91888" lon="1.65601">
        <ele>139.4</ele>
        <time>2022-05-24T07:52:20Z</time>
      </trkpt>
      <trkpt lat="44.91891" lon="1.65611">
        <ele>138.8</ele>
        <time>2022-05-24T07:52:21Z</time>
      </trkpt>
      <trkpt lat="44.91895" lon="1.65622">
        <ele>138.2</ele>
        <time>2022-05-24T07:52:22Z</time>
      </trkpt>
      <trkpt lat="44.91899" lon="1.65633">
        <ele>137.6</ele>
        <time>2022-05-24T07:52:23Z</time>
      </trkpt>
      <trkpt lat="44.91902" lon="1.65644">
        <ele>137</ele>
        <time>2022-05-24T07:52:24Z</time>
      </trkpt>
      <trkpt lat="44.91905" lon="1.65656">
        <ele>136.5</ele>
        <time>2022-05-24T07:52:25Z</time>
      </trkpt>
      <trkpt lat="44.91908" lon="1.65666">
        <ele>136</ele>
        <time>2022-05-24T07:52:26Z</time>
      </trkpt>
      <trkpt lat="44.91911" lon="1.65676">
        <ele>135.5</ele>
        <time>2022-05-24T07:52:27Z</time>
      </trkpt>
      <trkpt lat="44.91914" lon="1.65685">
        <ele>135.1</ele>
        <time>2022-05-24T07:52:28Z</time>
      </trkpt>
      <trkpt lat="44.91915" lon="1.65693">
        <ele>134.6</ele>
        <time>2022-05-24T07:52:29Z</time>
      </trkpt>
      <trkpt lat="44.91915" lon="1.65702">
        <ele>134.1</ele>
        <time>2022-05-24T07:52:30Z</time>
      </trkpt>
      <trkpt lat="44.91914" lon="1.65713">
        <ele>133.5</ele>
        <time>2022-05-24T07:52:31Z</time>
      </trkpt>
      <trkpt lat="44.91913" lon="1.65724">
        <ele>132.9</ele>
        <time>2022-05-24T07:52:32Z</time>
      </trkpt>
      <trkpt lat="44.91913" lon="1.65735">
        <ele>132.3</ele>
        <time>2022-05-24T07:52:33Z</time>
      </trkpt>
      <trkpt lat="44.91912" lon="1.65745">
        <ele>131.9</ele>
        <time>2022-05-24T07:52:34Z</time>
      </trkpt>
      <trkpt lat="44.91911" lon="1.65754">
        <ele>131.6</ele>
        <time>2022-05-24T07:52:35Z</time>
      </trkpt>
      <trkpt lat="44.91908" lon="1.6576">
        <ele>131.4</ele>
        <time>2022-05-24T07:52:36Z</time>
      </trkpt>
      <trkpt lat="44.91905" lon="1.65764">
        <ele>131.2</ele>
        <time>2022-05-24T07:52:37Z</time>
      </trkpt>
      <trkpt lat="44.91902" lon="1.65766">
        <ele>131</ele>
        <time>2022-05-24T07:52:38Z</time>
      </trkpt>
      <trkpt lat="44.91898" lon="1.65767">
        <ele>130.9</ele>
        <time>2022-05-24T07:52:39Z</time>
      </trkpt>
      <trkpt lat="44.91895" lon="1.65768">
        <ele>130.8</ele>
        <time>2022-05-24T07:52:40Z</time>
      </trkpt>
      <trkpt lat="44.91892" lon="1.65771">
        <ele>130.8</ele>
        <time>2022-05-24T07:52:41Z</time>
      </trkpt>
      <trkpt lat="44.91889" lon="1.65772">
        <ele>130.7</ele>
        <time>2022-05-24T07:52:42Z</time>
      </trkpt>
      <trkpt lat="44.91886" lon="1.65774">
        <ele>130.6</ele>
        <time>2022-05-24T07:52:43Z</time>
      </trkpt>
      <trkpt lat="44.91883" lon="1.65776">
        <ele>130.5</ele>
        <time>2022-05-24T07:52:44Z</time>
      </trkpt>
      <trkpt lat="44.91881" lon="1.6578">
        <ele>130.4</ele>
        <time>2022-05-24T07:52:45Z</time>
      </trkpt>
      <trkpt lat="44.91881" lon="1.65783">
        <ele>129.9</ele>
        <time>2022-05-24T07:52:46Z</time>
      </trkpt>
      <trkpt lat="44.91882" lon="1.65788">
        <ele>129.7</ele>
        <time>2022-05-24T07:52:47Z</time>
      </trkpt>
      <trkpt lat="44.91884" lon="1.65793">
        <ele>129.5</ele>
        <time>2022-05-24T07:52:48Z</time>
      </trkpt>
      <trkpt lat="44.91887" lon="1.65798">
        <ele>129.3</ele>
        <time>2022-05-24T07:52:49Z</time>
      </trkpt>
      <trkpt lat="44.91889" lon="1.65803">
        <ele>129.1</ele>
        <time>2022-05-24T07:52:50Z</time>
      </trkpt>
      <trkpt lat="44.91892" lon="1.65808">
        <ele>128.9</ele>
        <time>2022-05-24T07:52:51Z</time>
      </trkpt>
      <trkpt lat="44.91895" lon="1.65813">
        <ele>128.7</ele>
        <time>2022-05-24T07:52:52Z</time>
      </trkpt>
      <trkpt lat="44.91897" lon="1.65818">
        <ele>128.5</ele>
        <time>2022-05-24T07:52:53Z</time>
      </trkpt>
      <trkpt lat="44.91899" lon="1.65823">
        <ele>128.3</ele>
        <time>2022-05-24T07:52:54Z</time>
      </trkpt>
      <trkpt lat="44.91901" lon="1.65828">
        <ele>128.1</ele>
        <time>2022-05-24T07:52:55Z</time>
      </trkpt>
      <trkpt lat="44.91903" lon="1.65833">
        <ele>127.9</ele>
        <time>2022-05-24T07:52:56Z</time>
      </trkpt>
      <trkpt lat="44.91906" lon="1.65838">
        <ele>127.6</ele>
        <time>2022-05-24T07:52:57Z</time>
      </trkpt>
      <trkpt lat="44.91909" lon="1.65843">
        <ele>127.4</ele>
        <time>2022-05-24T07:52:58Z</time>
      </trkpt>
      <trkpt lat="44.91912" lon="1.65849">
        <ele>127.1</ele>
        <time>2022-05-24T07:52:59Z</time>
      </trkpt>
      <trkpt lat="44.91914" lon="1.65855">
        <ele>126.8</ele>
        <time>2022-05-24T07:53:00Z</time>
      </trkpt>
      <trkpt lat="44.91917" lon="1.65861">
        <ele>126.6</ele>
        <time>2022-05-24T07:53:01Z</time>
      </trkpt>
      <trkpt lat="44.91921" lon="1.65867">
        <ele>126.3</ele>
        <time>2022-05-24T07:53:02Z</time>
      </trkpt>
      <trkpt lat="44.91924" lon="1.65873">
        <ele>126</ele>
        <time>2022-05-24T07:53:03Z</time>
      </trkpt>
      <trkpt lat="44.91927" lon="1.65881">
        <ele>125.6</ele>
        <time>2022-05-24T07:53:04Z</time>
      </trkpt>
      <trkpt lat="44.9193" lon="1.65888">
        <ele>125.2</ele>
        <time>2022-05-24T07:53:05Z</time>
      </trkpt>
      <trkpt lat="44.91934" lon="1.65896">
        <ele>124.8</ele>
        <time>2022-05-24T07:53:06Z</time>
      </trkpt>
      <trkpt lat="44.91938" lon="1.65903">
        <ele>124.4</ele>
        <time>2022-05-24T07:53:07Z</time>
      </trkpt>
      <trkpt lat="44.91941" lon="1.6591">
        <ele>123.9</ele>
        <time>2022-05-24T07:53:08Z</time>
      </trkpt>
      <trkpt lat="44.91945" lon="1.65918">
        <ele>123.4</ele>
        <time>2022-05-24T07:53:09Z</time>
      </trkpt>
      <trkpt lat="44.91949" lon="1.65924">
        <ele>122.8</ele>
        <time>2022-05-24T07:53:10Z</time>
      </trkpt>
      <trkpt lat="44.91953" lon="1.65931">
        <ele>122.3</ele>
        <time>2022-05-24T07:53:11Z</time>
      </trkpt>
      <trkpt lat="44.91957" lon="1.65938">
        <ele>121.8</ele>
        <time>2022-05-24T07:53:12Z</time>
      </trkpt>
      <trkpt lat="44.91962" lon="1.65945">
        <ele>121.2</ele>
        <time>2022-05-24T07:53:13Z</time>
      </trkpt>
      <trkpt lat="44.91967" lon="1.65955">
        <ele>120.6</ele>
        <time>2022-05-24T07:53:14Z</time>
      </trkpt>
      <trkpt lat="44.91971" lon="1.65964">
        <ele>120.1</ele>
        <time>2022-05-24T07:53:15Z</time>
      </trkpt>
      <trkpt lat="44.91975" lon="1.65973">
        <ele>119.7</ele>
        <time>2022-05-24T07:53:16Z</time>
      </trkpt>
      <trkpt lat="44.91979" lon="1.65981">
        <ele>119.3</ele>
        <time>2022-05-24T07:53:17Z</time>
      </trkpt>
      <trkpt lat="44.91984" lon="1.65989">
        <ele>119</ele>
        <time>2022-05-24T07:53:18Z</time>
      </trkpt>
      <trkpt lat="44.91989" lon="1.65998">
        <ele>118.8</ele>
        <time>2022-05-24T07:53:19Z</time>
      </trkpt>
      <trkpt lat="44.91994" lon="1.66006">
        <ele>118.6</ele>
        <time>2022-05-24T07:53:20Z</time>
      </trkpt>
      <trkpt lat="44.91999" lon="1.66014">
        <ele>118.3</ele>
        <time>2022-05-24T07:53:21Z</time>
      </trkpt>
      <trkpt lat="44.92004" lon="1.66023">
        <ele>118</ele>
        <time>2022-05-24T07:53:22Z</time>
      </trkpt>
      <trkpt lat="44.9201" lon="1.6603">
        <ele>117.8</ele>
        <time>2022-05-24T07:53:23Z</time>
      </trkpt>
      <trkpt lat="44.92015" lon="1.66037">
        <ele>117.6</ele>
        <time>2022-05-24T07:53:24Z</time>
      </trkpt>
      <trkpt lat="44.92021" lon="1.66043">
        <ele>117.4</ele>
        <time>2022-05-24T07:53:25Z</time>
      </trkpt>
      <trkpt lat="44.92027" lon="1.66049">
        <ele>117.3</ele>
        <time>2022-05-24T07:53:26Z</time>
      </trkpt>
      <trkpt lat="44.92033" lon="1.66055">
        <ele>117.1</ele>
        <time>2022-05-24T07:53:27Z</time>
      </trkpt>
      <trkpt lat="44.92039" lon="1.6606">
        <ele>116.9</ele>
        <time>2022-05-24T07:53:28Z</time>
      </trkpt>
      <trkpt lat="44.92045" lon="1.66065">
        <ele>116.7</ele>
        <time>2022-05-24T07:53:29Z</time>
      </trkpt>
      <trkpt lat="44.9205" lon="1.6607">
        <ele>116.6</ele>
        <time>2022-05-24T07:53:30Z</time>
      </trkpt>
      <trkpt lat="44.92056" lon="1.66075">
        <ele>116.4</ele>
        <time>2022-05-24T07:53:31Z</time>
      </trkpt>
      <trkpt lat="44.92062" lon="1.6608">
        <ele>116.3</ele>
        <time>2022-05-24T07:53:32Z</time>
      </trkpt>
      <trkpt lat="44.92068" lon="1.66085">
        <ele>116.2</ele>
        <time>2022-05-24T07:53:33Z</time>
      </trkpt>
      <trkpt lat="44.92073" lon="1.6609">
        <ele>116.2</ele>
        <time>2022-05-24T07:53:34Z</time>
      </trkpt>
      <trkpt lat="44.92079" lon="1.66095">
        <ele>116.1</ele>
        <time>2022-05-24T07:53:35Z</time>
      </trkpt>
      <trkpt lat="44.92086" lon="1.661">
        <ele>116</ele>
        <time>2022-05-24T07:53:36Z</time>
      </trkpt>
      <trkpt lat="44.92091" lon="1.66104">
        <ele>116</ele>
        <time>2022-05-24T07:53:37Z</time>
      </trkpt>
      <trkpt lat="44.92097" lon="1.66108">
        <ele>115.9</ele>
        <time>2022-05-24T07:53:38Z</time>
      </trkpt>
      <trkpt lat="44.92103" lon="1.66113">
        <ele>115.8</ele>
        <time>2022-05-24T07:53:39Z</time>
      </trkpt>
      <trkpt lat="44.9211" lon="1.66116">
        <ele>115.7</ele>
        <time>2022-05-24T07:53:40Z</time>
      </trkpt>
      <trkpt lat="44.92117" lon="1.6612">
        <ele>115.6</ele>
        <time>2022-05-24T07:53:41Z</time>
      </trkpt>
      <trkpt lat="44.92123" lon="1.66123">
        <ele>115.6</ele>
        <time>2022-05-24T07:53:42Z</time>
      </trkpt>
      <trkpt lat="44.92129" lon="1.66126">
        <ele>115.6</ele>
        <time>2022-05-24T07:53:43Z</time>
      </trkpt>
      <trkpt lat="44.92135" lon="1.66128">
        <ele>115.5</ele>
        <time>2022-05-24T07:53:44Z</time>
      </trkpt>
      <trkpt lat="44.92141" lon="1.66131">
        <ele>115.5</ele>
        <time>2022-05-24T07:53:45Z</time>
      </trkpt>
      <trkpt lat="44.92148" lon="1.66134">
        <ele>115.5</ele>
        <time>2022-05-24T07:53:46Z</time>
      </trkpt>
      <trkpt lat="44.92154" lon="1.66136">
        <ele>115.5</ele>
        <time>2022-05-24T07:53:47Z</time>
      </trkpt>
      <trkpt lat="44.9216" lon="1.66139">
        <ele>115.5</ele>
        <time>2022-05-24T07:53:48Z</time>
      </trkpt>
      <trkpt lat="44.92166" lon="1.66143">
        <ele>115.4</ele>
        <time>2022-05-24T07:53:49Z</time>
      </trkpt>
      <trkpt lat="44.92173" lon="1.66145">
        <ele>115.4</ele>
        <time>2022-05-24T07:53:50Z</time>
      </trkpt>
      <trkpt lat="44.92179" lon="1.66148">
        <ele>115.3</ele>
        <time>2022-05-24T07:53:51Z</time>
      </trkpt>
      <trkpt lat="44.92185" lon="1.66151">
        <ele>115.3</ele>
        <time>2022-05-24T07:53:52Z</time>
      </trkpt>
      <trkpt lat="44.92191" lon="1.66153">
        <ele>115.2</ele>
        <time>2022-05-24T07:53:53Z</time>
      </trkpt>
      <trkpt lat="44.92197" lon="1.66156">
        <ele>115.2</ele>
        <time>2022-05-24T07:53:54Z</time>
      </trkpt>
      <trkpt lat="44.92203" lon="1.66157">
        <ele>115.2</ele>
        <time>2022-05-24T07:53:55Z</time>
      </trkpt>
      <trkpt lat="44.92208" lon="1.66159">
        <ele>115.2</ele>
        <time>2022-05-24T07:53:56Z</time>
      </trkpt>
      <trkpt lat="44.92214" lon="1.6616">
        <ele>115.1</ele>
        <time>2022-05-24T07:53:57Z</time>
      </trkpt>
      <trkpt lat="44.9222" lon="1.66161">
        <ele>115.1</ele>
        <time>2022-05-24T07:53:58Z</time>
      </trkpt>
      <trkpt lat="44.92226" lon="1.66161">
        <ele>115</ele>
        <time>2022-05-24T07:53:59Z</time>
      </trkpt>
      <trkpt lat="44.92231" lon="1.66162">
        <ele>115</ele>
        <time>2022-05-24T07:54:00Z</time>
      </trkpt>
      <trkpt lat="44.92237" lon="1.66162">
        <ele>114.9</ele>
        <time>2022-05-24T07:54:01Z</time>
      </trkpt>
      <trkpt lat="44.92243" lon="1.66164">
        <ele>114.9</ele>
        <time>2022-05-24T07:54:02Z</time>
      </trkpt>
      <trkpt lat="44.92247" lon="1.66166">
        <ele>114.9</ele>
        <time>2022-05-24T07:54:03Z</time>
      </trkpt>
      <trkpt lat="44.92251" lon="1.66169">
        <ele>114.9</ele>
        <time>2022-05-24T07:54:04Z</time>
      </trkpt>
      <trkpt lat="44.92253" lon="1.66171">
        <ele>114.9</ele>
        <time>2022-05-24T07:54:05Z</time>
      </trkpt>
      <trkpt lat="44.92255" lon="1.66172">
        <ele>114.9</ele>
        <time>2022-05-24T07:54:06Z</time>
      </trkpt>
      <trkpt lat="44.92255" lon="1.66172">
        <ele>114.9</ele>
        <time>2022-05-24T07:54:07Z</time>
      </trkpt>
      <trkpt lat="44.92256" lon="1.66173">
        <ele>114.9</ele>
        <time>2022-05-24T07:54:08Z</time>
      </trkpt>
      <trkpt lat="44.92256" lon="1.66173">
        <ele>114.9</ele>
        <time>2022-05-24T07:54:09Z</time>
      </trkpt>
      <trkpt lat="44.92256" lon="1.66174">
        <ele>114.9</ele>
        <time>2022-05-24T07:54:10Z</time>
      </trkpt>
      <trkpt lat="44.92257" lon="1.66174">
        <ele>114.9</ele>
        <time>2022-05-24T07:54:11Z</time>
      </trkpt>
      <trkpt lat="44.92257" lon="1.66174">
        <ele>114.9</ele>
        <time>2022-05-24T07:54:12Z</time>
      </trkpt>
      <trkpt lat="44.92257" lon="1.66175">
        <ele>114.9</ele>
        <time>2022-05-24T07:54:13Z</time>
      </trkpt>
      <trkpt lat="44.92257" lon="1.66175">
        <ele>114.9</ele>
        <time>2022-05-24T07:54:14Z</time>
      </trkpt>
      <trkpt lat="44.92258" lon="1.66176">
        <ele>114.9</ele>
        <time>2022-05-24T07:54:15Z</time>
      </trkpt>
      <trkpt lat="44.92258" lon="1.66176">
        <ele>114.9</ele>
        <time>2022-05-24T07:54:16Z</time>
      </trkpt>
      <trkpt lat="44.92258" lon="1.66177">
        <ele>114.9</ele>
        <time>2022-05-24T07:54:17Z</time>
      </trkpt>
      <trkpt lat="44.92259" lon="1.66177">
        <ele>114.9</ele>
        <time>2022-05-24T07:54:18Z</time>
      </trkpt>
      <trkpt lat="44.92259" lon="1.66177">
        <ele>114.9</ele>
        <time>2022-05-24T07:54:19Z</time>
      </trkpt>
      <trkpt lat="44.92259" lon="1.66178">
        <ele>114.9</ele>
        <time>2022-05-24T07:54:20Z</time>
      </trkpt>
      <trkpt lat="44.9226" lon="1.66178">
        <ele>114.9</ele>
        <time>2022-05-24T07:54:24Z</time>
      </trkpt>
      <trkpt lat="44.9226" lon="1.66179">
        <ele>114.9</ele>
        <time>2022-05-24T07:54:25Z</time>
      </trkpt>
      <trkpt lat="44.9226" lon="1.66179">
        <ele>114.9</ele>
        <time>2022-05-24T07:54:26Z</time>
      </trkpt>
      <trkpt lat="44.92263" lon="1.66182">
        <ele>114.9</ele>
        <time>2022-05-24T07:54:27Z</time>
      </trkpt>
      <trkpt lat="44.92265" lon="1.66185">
        <ele>114.9</ele>
        <time>2022-05-24T07:54:28Z</time>
      </trkpt>
      <trkpt lat="44.92267" lon="1.66188">
        <ele>115</ele>
        <time>2022-05-24T07:54:29Z</time>
      </trkpt>
      <trkpt lat="44.92269" lon="1.66191">
        <ele>115</ele>
        <time>2022-05-24T07:54:30Z</time>
      </trkpt>
      <trkpt lat="44.92271" lon="1.66195">
        <ele>115</ele>
        <time>2022-05-24T07:54:31Z</time>
      </trkpt>
      <trkpt lat="44.92273" lon="1.66198">
        <ele>115</ele>
        <time>2022-05-24T07:54:32Z</time>
      </trkpt>
      <trkpt lat="44.92276" lon="1.66202">
        <ele>115.1</ele>
        <time>2022-05-24T07:54:33Z</time>
      </trkpt>
      <trkpt lat="44.9228" lon="1.66207">
        <ele>115.1</ele>
        <time>2022-05-24T07:54:34Z</time>
      </trkpt>
      <trkpt lat="44.92284" lon="1.66212">
        <ele>115.1</ele>
        <time>2022-05-24T07:54:35Z</time>
      </trkpt>
      <trkpt lat="44.92287" lon="1.66218">
        <ele>115.2</ele>
        <time>2022-05-24T07:54:36Z</time>
      </trkpt>
      <trkpt lat="44.92291" lon="1.66222">
        <ele>115.2</ele>
        <time>2022-05-24T07:54:37Z</time>
      </trkpt>
      <trkpt lat="44.92294" lon="1.66226">
        <ele>115.3</ele>
        <time>2022-05-24T07:54:38Z</time>
      </trkpt>
      <trkpt lat="44.92298" lon="1.66231">
        <ele>115.3</ele>
        <time>2022-05-24T07:54:39Z</time>
      </trkpt>
      <trkpt lat="44.92302" lon="1.66236">
        <ele>115.3</ele>
        <time>2022-05-24T07:54:40Z</time>
      </trkpt>
      <trkpt lat="44.92306" lon="1.6624">
        <ele>115.3</ele>
        <time>2022-05-24T07:54:41Z</time>
      </trkpt>
      <trkpt lat="44.9231" lon="1.66245">
        <ele>115.4</ele>
        <time>2022-05-24T07:54:42Z</time>
      </trkpt>
      <trkpt lat="44.92315" lon="1.66251">
        <ele>115.4</ele>
        <time>2022-05-24T07:54:43Z</time>
      </trkpt>
      <trkpt lat="44.92319" lon="1.66256">
        <ele>115.4</ele>
        <time>2022-05-24T07:54:44Z</time>
      </trkpt>
      <trkpt lat="44.92323" lon="1.66261">
        <ele>115.4</ele>
        <time>2022-05-24T07:54:45Z</time>
      </trkpt>
      <trkpt lat="44.92327" lon="1.66266">
        <ele>115.4</ele>
        <time>2022-05-24T07:54:46Z</time>
      </trkpt>
      <trkpt lat="44.92332" lon="1.6627">
        <ele>115.4</ele>
        <time>2022-05-24T07:54:47Z</time>
      </trkpt>
      <trkpt lat="44.92337" lon="1.66274">
        <ele>115.4</ele>
        <time>2022-05-24T07:54:48Z</time>
      </trkpt>
      <trkpt lat="44.92341" lon="1.66279">
        <ele>115.4</ele>
        <time>2022-05-24T07:54:49Z</time>
      </trkpt>
      <trkpt lat="44.92346" lon="1.66284">
        <ele>115.4</ele>
        <time>2022-05-24T07:54:50Z</time>
      </trkpt>
      <trkpt lat="44.92351" lon="1.6629">
        <ele>115.3</ele>
        <time>2022-05-24T07:54:51Z</time>
      </trkpt>
      <trkpt lat="44.92354" lon="1.66295">
        <ele>115.3</ele>
        <time>2022-05-24T07:54:52Z</time>
      </trkpt>
      <trkpt lat="44.92359" lon="1.66301">
        <ele>115.3</ele>
        <time>2022-05-24T07:54:53Z</time>
      </trkpt>
      <trkpt lat="44.92363" lon="1.66306">
        <ele>115.2</ele>
        <time>2022-05-24T07:54:54Z</time>
      </trkpt>
      <trkpt lat="44.92368" lon="1.66311">
        <ele>115.2</ele>
        <time>2022-05-24T07:54:55Z</time>
      </trkpt>
      <trkpt lat="44.92373" lon="1.66316">
        <ele>115.1</ele>
        <time>2022-05-24T07:54:56Z</time>
      </trkpt>
      <trkpt lat="44.92377" lon="1.6632">
        <ele>115.1</ele>
        <time>2022-05-24T07:54:57Z</time>
      </trkpt>
      <trkpt lat="44.92382" lon="1.66324">
        <ele>115</ele>
        <time>2022-05-24T07:54:58Z</time>
      </trkpt>
      <trkpt lat="44.92388" lon="1.66328">
        <ele>115</ele>
        <time>2022-05-24T07:54:59Z</time>
      </trkpt>
      <trkpt lat="44.92393" lon="1.66331">
        <ele>114.9</ele>
        <time>2022-05-24T07:55:00Z</time>
      </trkpt>
      <trkpt lat="44.92399" lon="1.66335">
        <ele>114.9</ele>
        <time>2022-05-24T07:55:01Z</time>
      </trkpt>
      <trkpt lat="44.92405" lon="1.66339">
        <ele>114.9</ele>
        <time>2022-05-24T07:55:02Z</time>
      </trkpt>
      <trkpt lat="44.92409" lon="1.66345">
        <ele>114.9</ele>
        <time>2022-05-24T07:55:03Z</time>
      </trkpt>
      <trkpt lat="44.92414" lon="1.66352">
        <ele>114.8</ele>
        <time>2022-05-24T07:55:04Z</time>
      </trkpt>
      <trkpt lat="44.92418" lon="1.66359">
        <ele>114.8</ele>
        <time>2022-05-24T07:55:05Z</time>
      </trkpt>
      <trkpt lat="44.92421" lon="1.66366">
        <ele>114.7</ele>
        <time>2022-05-24T07:55:06Z</time>
      </trkpt>
      <trkpt lat="44.92424" lon="1.66373">
        <ele>114.7</ele>
        <time>2022-05-24T07:55:07Z</time>
      </trkpt>
      <trkpt lat="44.92427" lon="1.6638">
        <ele>114.6</ele>
        <time>2022-05-24T07:55:08Z</time>
      </trkpt>
      <trkpt lat="44.92429" lon="1.66388">
        <ele>114.6</ele>
        <time>2022-05-24T07:55:09Z</time>
      </trkpt>
      <trkpt lat="44.92431" lon="1.66396">
        <ele>114.5</ele>
        <time>2022-05-24T07:55:10Z</time>
      </trkpt>
      <trkpt lat="44.92433" lon="1.66404">
        <ele>114.5</ele>
        <time>2022-05-24T07:55:11Z</time>
      </trkpt>
      <trkpt lat="44.92436" lon="1.66413">
        <ele>114.5</ele>
        <time>2022-05-24T07:55:12Z</time>
      </trkpt>
      <trkpt lat="44.9244" lon="1.66421">
        <ele>114.5</ele>
        <time>2022-05-24T07:55:13Z</time>
      </trkpt>
      <trkpt lat="44.92443" lon="1.6643">
        <ele>114.5</ele>
        <time>2022-05-24T07:55:14Z</time>
      </trkpt>
      <trkpt lat="44.92446" lon="1.66437">
        <ele>114.4</ele>
        <time>2022-05-24T07:55:15Z</time>
      </trkpt>
      <trkpt lat="44.9245" lon="1.6645">
        <ele>114.4</ele>
        <time>2022-05-24T07:55:16Z</time>
      </trkpt>
      <trkpt lat="44.92453" lon="1.66458">
        <ele>114.4</ele>
        <time>2022-05-24T07:55:17Z</time>
      </trkpt>
      <trkpt lat="44.92456" lon="1.66465">
        <ele>114.4</ele>
        <time>2022-05-24T07:55:18Z</time>
      </trkpt>
      <trkpt lat="44.9246" lon="1.66472">
        <ele>114.4</ele>
        <time>2022-05-24T07:55:19Z</time>
      </trkpt>
      <trkpt lat="44.92464" lon="1.66479">
        <ele>114.4</ele>
        <time>2022-05-24T07:55:20Z</time>
      </trkpt>
      <trkpt lat="44.92467" lon="1.66486">
        <ele>114.4</ele>
        <time>2022-05-24T07:55:21Z</time>
      </trkpt>
      <trkpt lat="44.9247" lon="1.66495">
        <ele>114.5</ele>
        <time>2022-05-24T07:55:22Z</time>
      </trkpt>
      <trkpt lat="44.92472" lon="1.66503">
        <ele>114.5</ele>
        <time>2022-05-24T07:55:23Z</time>
      </trkpt>
      <trkpt lat="44.92475" lon="1.66512">
        <ele>114.5</ele>
        <time>2022-05-24T07:55:24Z</time>
      </trkpt>
      <trkpt lat="44.92477" lon="1.66521">
        <ele>114.5</ele>
        <time>2022-05-24T07:55:25Z</time>
      </trkpt>
      <trkpt lat="44.9248" lon="1.6653">
        <ele>114.5</ele>
        <time>2022-05-24T07:55:26Z</time>
      </trkpt>
      <trkpt lat="44.92483" lon="1.66537">
        <ele>114.5</ele>
        <time>2022-05-24T07:55:27Z</time>
      </trkpt>
      <trkpt lat="44.92487" lon="1.66545">
        <ele>114.4</ele>
        <time>2022-05-24T07:55:28Z</time>
      </trkpt>
      <trkpt lat="44.9249" lon="1.66553">
        <ele>114.4</ele>
        <time>2022-05-24T07:55:29Z</time>
      </trkpt>
      <trkpt lat="44.92493" lon="1.66561">
        <ele>114.3</ele>
        <time>2022-05-24T07:55:30Z</time>
      </trkpt>
      <trkpt lat="44.92496" lon="1.66569">
        <ele>114.3</ele>
        <time>2022-05-24T07:55:31Z</time>
      </trkpt>
      <trkpt lat="44.925" lon="1.66577">
        <ele>114.4</ele>
        <time>2022-05-24T07:55:32Z</time>
      </trkpt>
      <trkpt lat="44.92503" lon="1.66585">
        <ele>114.4</ele>
        <time>2022-05-24T07:55:33Z</time>
      </trkpt>
      <trkpt lat="44.92505" lon="1.66594">
        <ele>114.5</ele>
        <time>2022-05-24T07:55:34Z</time>
      </trkpt>
      <trkpt lat="44.92507" lon="1.66602">
        <ele>114.5</ele>
        <time>2022-05-24T07:55:35Z</time>
      </trkpt>
      <trkpt lat="44.92509" lon="1.66611">
        <ele>114.6</ele>
        <time>2022-05-24T07:55:36Z</time>
      </trkpt>
      <trkpt lat="44.92512" lon="1.66619">
        <ele>114.7</ele>
        <time>2022-05-24T07:55:37Z</time>
      </trkpt>
      <trkpt lat="44.92515" lon="1.66626">
        <ele>114.8</ele>
        <time>2022-05-24T07:55:38Z</time>
      </trkpt>
      <trkpt lat="44.92518" lon="1.66633">
        <ele>114.8</ele>
        <time>2022-05-24T07:55:39Z</time>
      </trkpt>
      <trkpt lat="44.92521" lon="1.66642">
        <ele>114.9</ele>
        <time>2022-05-24T07:55:40Z</time>
      </trkpt>
      <trkpt lat="44.92524" lon="1.6665">
        <ele>114.9</ele>
        <time>2022-05-24T07:55:41Z</time>
      </trkpt>
      <trkpt lat="44.92526" lon="1.66658">
        <ele>114.9</ele>
        <time>2022-05-24T07:55:42Z</time>
      </trkpt>
      <trkpt lat="44.92529" lon="1.66666">
        <ele>114.9</ele>
        <time>2022-05-24T07:55:43Z</time>
      </trkpt>
      <trkpt lat="44.92531" lon="1.66673">
        <ele>114.9</ele>
        <time>2022-05-24T07:55:44Z</time>
      </trkpt>
      <trkpt lat="44.92533" lon="1.6668">
        <ele>114.9</ele>
        <time>2022-05-24T07:55:45Z</time>
      </trkpt>
      <trkpt lat="44.92537" lon="1.66689">
        <ele>115</ele>
        <time>2022-05-24T07:55:46Z</time>
      </trkpt>
      <trkpt lat="44.9254" lon="1.66696">
        <ele>115</ele>
        <time>2022-05-24T07:55:47Z</time>
      </trkpt>
      <trkpt lat="44.92543" lon="1.66705">
        <ele>115.1</ele>
        <time>2022-05-24T07:55:48Z</time>
      </trkpt>
      <trkpt lat="44.92546" lon="1.66713">
        <ele>115.2</ele>
        <time>2022-05-24T07:55:49Z</time>
      </trkpt>
      <trkpt lat="44.92548" lon="1.6672">
        <ele>115.3</ele>
        <time>2022-05-24T07:55:50Z</time>
      </trkpt>
      <trkpt lat="44.92551" lon="1.66728">
        <ele>115.3</ele>
        <time>2022-05-24T07:55:51Z</time>
      </trkpt>
      <trkpt lat="44.92553" lon="1.66735">
        <ele>115.4</ele>
        <time>2022-05-24T07:55:52Z</time>
      </trkpt>
      <trkpt lat="44.92555" lon="1.66743">
        <ele>115.4</ele>
        <time>2022-05-24T07:55:53Z</time>
      </trkpt>
      <trkpt lat="44.92557" lon="1.66751">
        <ele>115.5</ele>
        <time>2022-05-24T07:55:54Z</time>
      </trkpt>
      <trkpt lat="44.9256" lon="1.66758">
        <ele>115.5</ele>
        <time>2022-05-24T07:55:55Z</time>
      </trkpt>
      <trkpt lat="44.92563" lon="1.66766">
        <ele>115.6</ele>
        <time>2022-05-24T07:55:56Z</time>
      </trkpt>
      <trkpt lat="44.92565" lon="1.66774">
        <ele>115.6</ele>
        <time>2022-05-24T07:55:57Z</time>
      </trkpt>
      <trkpt lat="44.92568" lon="1.66781">
        <ele>115.7</ele>
        <time>2022-05-24T07:55:58Z</time>
      </trkpt>
      <trkpt lat="44.92572" lon="1.66789">
        <ele>115.8</ele>
        <time>2022-05-24T07:55:59Z</time>
      </trkpt>
      <trkpt lat="44.92575" lon="1.66796">
        <ele>115.8</ele>
        <time>2022-05-24T07:56:00Z</time>
      </trkpt>
      <trkpt lat="44.92578" lon="1.66803">
        <ele>115.9</ele>
        <time>2022-05-24T07:56:01Z</time>
      </trkpt>
      <trkpt lat="44.92581" lon="1.66811">
        <ele>116</ele>
        <time>2022-05-24T07:56:02Z</time>
      </trkpt>
      <trkpt lat="44.92584" lon="1.66818">
        <ele>116.1</ele>
        <time>2022-05-24T07:56:03Z</time>
      </trkpt>
      <trkpt lat="44.92587" lon="1.66824">
        <ele>116.1</ele>
        <time>2022-05-24T07:56:04Z</time>
      </trkpt>
      <trkpt lat="44.9259" lon="1.66832">
        <ele>116.2</ele>
        <time>2022-05-24T07:56:05Z</time>
      </trkpt>
      <trkpt lat="44.92592" lon="1.6684">
        <ele>116.2</ele>
        <time>2022-05-24T07:56:06Z</time>
      </trkpt>
      <trkpt lat="44.92594" lon="1.66848">
        <ele>116.3</ele>
        <time>2022-05-24T07:56:07Z</time>
      </trkpt>
      <trkpt lat="44.92596" lon="1.66855">
        <ele>116.3</ele>
        <time>2022-05-24T07:56:08Z</time>
      </trkpt>
      <trkpt lat="44.92599" lon="1.66862">
        <ele>116.4</ele>
        <time>2022-05-24T07:56:09Z</time>
      </trkpt>
      <trkpt lat="44.92601" lon="1.6687">
        <ele>116.5</ele>
        <time>2022-05-24T07:56:10Z</time>
      </trkpt>
      <trkpt lat="44.92603" lon="1.66878">
        <ele>116.5</ele>
        <time>2022-05-24T07:56:11Z</time>
      </trkpt>
      <trkpt lat="44.92606" lon="1.66885">
        <ele>116.6</ele>
        <time>2022-05-24T07:56:12Z</time>
      </trkpt>
      <trkpt lat="44.9261" lon="1.66893">
        <ele>116.6</ele>
        <time>2022-05-24T07:56:13Z</time>
      </trkpt>
      <trkpt lat="44.92613" lon="1.669">
        <ele>116.7</ele>
        <time>2022-05-24T07:56:14Z</time>
      </trkpt>
      <trkpt lat="44.92617" lon="1.66908">
        <ele>116.8</ele>
        <time>2022-05-24T07:56:15Z</time>
      </trkpt>
      <trkpt lat="44.9262" lon="1.66916">
        <ele>116.8</ele>
        <time>2022-05-24T07:56:16Z</time>
      </trkpt>
      <trkpt lat="44.92623" lon="1.66924">
        <ele>116.9</ele>
        <time>2022-05-24T07:56:17Z</time>
      </trkpt>
      <trkpt lat="44.92626" lon="1.66933">
        <ele>116.9</ele>
        <time>2022-05-24T07:56:18Z</time>
      </trkpt>
      <trkpt lat="44.92628" lon="1.66941">
        <ele>116.9</ele>
        <time>2022-05-24T07:56:19Z</time>
      </trkpt>
      <trkpt lat="44.92632" lon="1.66949">
        <ele>117</ele>
        <time>2022-05-24T07:56:20Z</time>
      </trkpt>
      <trkpt lat="44.92635" lon="1.66957">
        <ele>117</ele>
        <time>2022-05-24T07:56:21Z</time>
      </trkpt>
      <trkpt lat="44.92639" lon="1.66964">
        <ele>117.1</ele>
        <time>2022-05-24T07:56:22Z</time>
      </trkpt>
      <trkpt lat="44.92642" lon="1.66971">
        <ele>117.1</ele>
        <time>2022-05-24T07:56:23Z</time>
      </trkpt>
      <trkpt lat="44.92645" lon="1.66978">
        <ele>117.2</ele>
        <time>2022-05-24T07:56:24Z</time>
      </trkpt>
      <trkpt lat="44.92649" lon="1.66985">
        <ele>117.3</ele>
        <time>2022-05-24T07:56:25Z</time>
      </trkpt>
      <trkpt lat="44.92652" lon="1.66992">
        <ele>117.5</ele>
        <time>2022-05-24T07:56:26Z</time>
      </trkpt>
      <trkpt lat="44.92656" lon="1.66999">
        <ele>117.6</ele>
        <time>2022-05-24T07:56:27Z</time>
      </trkpt>
      <trkpt lat="44.92658" lon="1.67007">
        <ele>117.9</ele>
        <time>2022-05-24T07:56:28Z</time>
      </trkpt>
      <trkpt lat="44.9266" lon="1.67015">
        <ele>118.2</ele>
        <time>2022-05-24T07:56:29Z</time>
      </trkpt>
      <trkpt lat="44.92662" lon="1.67023">
        <ele>118.6</ele>
        <time>2022-05-24T07:56:30Z</time>
      </trkpt>
      <trkpt lat="44.92663" lon="1.6703">
        <ele>118.9</ele>
        <time>2022-05-24T07:56:31Z</time>
      </trkpt>
      <trkpt lat="44.92664" lon="1.67036">
        <ele>119.4</ele>
        <time>2022-05-24T07:56:32Z</time>
      </trkpt>
      <trkpt lat="44.92665" lon="1.67043">
        <ele>119.8</ele>
        <time>2022-05-24T07:56:33Z</time>
      </trkpt>
      <trkpt lat="44.92665" lon="1.67048">
        <ele>120.2</ele>
        <time>2022-05-24T07:56:34Z</time>
      </trkpt>
      <trkpt lat="44.92665" lon="1.67053">
        <ele>120.5</ele>
        <time>2022-05-24T07:56:35Z</time>
      </trkpt>
      <trkpt lat="44.92666" lon="1.67058">
        <ele>120.9</ele>
        <time>2022-05-24T07:56:36Z</time>
      </trkpt>
      <trkpt lat="44.92666" lon="1.67059">
        <ele>120.9</ele>
        <time>2022-05-24T07:56:37Z</time>
      </trkpt>
      <trkpt lat="44.92666" lon="1.67064">
        <ele>121.2</ele>
        <time>2022-05-24T07:56:38Z</time>
      </trkpt>
      <trkpt lat="44.92666" lon="1.67065">
        <ele>121.3</ele>
        <time>2022-05-24T07:56:39Z</time>
      </trkpt>
      <trkpt lat="44.92666" lon="1.67068">
        <ele>121.7</ele>
        <time>2022-05-24T07:56:40Z</time>
      </trkpt>
      <trkpt lat="44.92667" lon="1.6707">
        <ele>121.7</ele>
        <time>2022-05-24T07:56:41Z</time>
      </trkpt>
      <trkpt lat="44.92668" lon="1.67074">
        <ele>121.7</ele>
        <time>2022-05-24T07:56:42Z</time>
      </trkpt>
      <trkpt lat="44.92668" lon="1.67076">
        <ele>121.7</ele>
        <time>2022-05-24T07:56:43Z</time>
      </trkpt>
      <trkpt lat="44.92667" lon="1.6708">
        <ele>122</ele>
        <time>2022-05-24T07:56:44Z</time>
      </trkpt>
      <trkpt lat="44.92667" lon="1.67082">
        <ele>122</ele>
        <time>2022-05-24T07:56:45Z</time>
      </trkpt>
      <trkpt lat="44.92667" lon="1.67087">
        <ele>122</ele>
        <time>2022-05-24T07:56:46Z</time>
      </trkpt>
      <trkpt lat="44.92667" lon="1.67088">
        <ele>122.1</ele>
        <time>2022-05-24T07:56:47Z</time>
      </trkpt>
      <trkpt lat="44.92667" lon="1.67092">
        <ele>122.1</ele>
        <time>2022-05-24T07:56:48Z</time>
      </trkpt>
      <trkpt lat="44.92668" lon="1.67097">
        <ele>122.1</ele>
        <time>2022-05-24T07:56:49Z</time>
      </trkpt>
      <trkpt lat="44.92669" lon="1.67101">
        <ele>122.2</ele>
        <time>2022-05-24T07:56:50Z</time>
      </trkpt>
      <trkpt lat="44.9267" lon="1.67106">
        <ele>122.2</ele>
        <time>2022-05-24T07:56:51Z</time>
      </trkpt>
      <trkpt lat="44.92671" lon="1.67112">
        <ele>122.3</ele>
        <time>2022-05-24T07:56:52Z</time>
      </trkpt>
      <trkpt lat="44.92672" lon="1.67118">
        <ele>122.3</ele>
        <time>2022-05-24T07:56:53Z</time>
      </trkpt>
      <trkpt lat="44.92673" lon="1.67125">
        <ele>122.4</ele>
        <time>2022-05-24T07:56:54Z</time>
      </trkpt>
      <trkpt lat="44.92674" lon="1.67132">
        <ele>122.5</ele>
        <time>2022-05-24T07:56:55Z</time>
      </trkpt>
      <trkpt lat="44.92675" lon="1.67139">
        <ele>122.5</ele>
        <time>2022-05-24T07:56:56Z</time>
      </trkpt>
      <trkpt lat="44.92675" lon="1.67146">
        <ele>122.6</ele>
        <time>2022-05-24T07:56:57Z</time>
      </trkpt>
      <trkpt lat="44.92675" lon="1.67154">
        <ele>122.7</ele>
        <time>2022-05-24T07:56:58Z</time>
      </trkpt>
      <trkpt lat="44.92674" lon="1.67162">
        <ele>122.7</ele>
        <time>2022-05-24T07:56:59Z</time>
      </trkpt>
      <trkpt lat="44.92674" lon="1.67169">
        <ele>122.7</ele>
        <time>2022-05-24T07:57:00Z</time>
      </trkpt>
      <trkpt lat="44.92673" lon="1.67177">
        <ele>122.8</ele>
        <time>2022-05-24T07:57:01Z</time>
      </trkpt>
      <trkpt lat="44.92672" lon="1.67184">
        <ele>122.8</ele>
        <time>2022-05-24T07:57:02Z</time>
      </trkpt>
      <trkpt lat="44.92672" lon="1.67193">
        <ele>122.8</ele>
        <time>2022-05-24T07:57:03Z</time>
      </trkpt>
      <trkpt lat="44.92671" lon="1.67201">
        <ele>122.8</ele>
        <time>2022-05-24T07:57:04Z</time>
      </trkpt>
      <trkpt lat="44.9267" lon="1.67208">
        <ele>122.8</ele>
        <time>2022-05-24T07:57:05Z</time>
      </trkpt>
      <trkpt lat="44.9267" lon="1.67217">
        <ele>122.8</ele>
        <time>2022-05-24T07:57:06Z</time>
      </trkpt>
      <trkpt lat="44.92669" lon="1.67225">
        <ele>122.8</ele>
        <time>2022-05-24T07:57:07Z</time>
      </trkpt>
      <trkpt lat="44.92669" lon="1.67233">
        <ele>122.8</ele>
        <time>2022-05-24T07:57:08Z</time>
      </trkpt>
      <trkpt lat="44.92668" lon="1.67241">
        <ele>122.8</ele>
        <time>2022-05-24T07:57:09Z</time>
      </trkpt>
      <trkpt lat="44.92667" lon="1.67249">
        <ele>122.8</ele>
        <time>2022-05-24T07:57:10Z</time>
      </trkpt>
      <trkpt lat="44.92667" lon="1.67257">
        <ele>122.8</ele>
        <time>2022-05-24T07:57:11Z</time>
      </trkpt>
      <trkpt lat="44.92665" lon="1.67265">
        <ele>122.7</ele>
        <time>2022-05-24T07:57:12Z</time>
      </trkpt>
      <trkpt lat="44.92664" lon="1.67272">
        <ele>122.7</ele>
        <time>2022-05-24T07:57:13Z</time>
      </trkpt>
      <trkpt lat="44.92664" lon="1.67281">
        <ele>122.7</ele>
        <time>2022-05-24T07:57:14Z</time>
      </trkpt>
      <trkpt lat="44.92663" lon="1.67289">
        <ele>122.7</ele>
        <time>2022-05-24T07:57:15Z</time>
      </trkpt>
      <trkpt lat="44.92663" lon="1.67298">
        <ele>122.7</ele>
        <time>2022-05-24T07:57:16Z</time>
      </trkpt>
      <trkpt lat="44.92663" lon="1.67307">
        <ele>122.6</ele>
        <time>2022-05-24T07:57:17Z</time>
      </trkpt>
      <trkpt lat="44.92662" lon="1.67315">
        <ele>122.6</ele>
        <time>2022-05-24T07:57:18Z</time>
      </trkpt>
      <trkpt lat="44.92661" lon="1.67322">
        <ele>122.6</ele>
        <time>2022-05-24T07:57:19Z</time>
      </trkpt>
      <trkpt lat="44.92661" lon="1.6733">
        <ele>122.6</ele>
        <time>2022-05-24T07:57:20Z</time>
      </trkpt>
      <trkpt lat="44.92661" lon="1.67339">
        <ele>122.7</ele>
        <time>2022-05-24T07:57:21Z</time>
      </trkpt>
      <trkpt lat="44.9266" lon="1.67347">
        <ele>122.7</ele>
        <time>2022-05-24T07:57:22Z</time>
      </trkpt>
      <trkpt lat="44.9266" lon="1.67356">
        <ele>122.8</ele>
        <time>2022-05-24T07:57:23Z</time>
      </trkpt>
      <trkpt lat="44.9266" lon="1.67364">
        <ele>122.8</ele>
        <time>2022-05-24T07:57:24Z</time>
      </trkpt>
      <trkpt lat="44.9266" lon="1.67372">
        <ele>122.8</ele>
        <time>2022-05-24T07:57:25Z</time>
      </trkpt>
      <trkpt lat="44.9266" lon="1.67381">
        <ele>122.8</ele>
        <time>2022-05-24T07:57:26Z</time>
      </trkpt>
      <trkpt lat="44.92661" lon="1.67389">
        <ele>122.8</ele>
        <time>2022-05-24T07:57:27Z</time>
      </trkpt>
      <trkpt lat="44.92661" lon="1.67396">
        <ele>122.7</ele>
        <time>2022-05-24T07:57:28Z</time>
      </trkpt>
      <trkpt lat="44.92662" lon="1.67405">
        <ele>122.7</ele>
        <time>2022-05-24T07:57:29Z</time>
      </trkpt>
      <trkpt lat="44.92663" lon="1.67412">
        <ele>122.7</ele>
        <time>2022-05-24T07:57:30Z</time>
      </trkpt>
      <trkpt lat="44.92665" lon="1.67421">
        <ele>122.7</ele>
        <time>2022-05-24T07:57:31Z</time>
      </trkpt>
      <trkpt lat="44.92666" lon="1.67429">
        <ele>122.7</ele>
        <time>2022-05-24T07:57:32Z</time>
      </trkpt>
      <trkpt lat="44.92668" lon="1.67438">
        <ele>122.7</ele>
        <time>2022-05-24T07:57:33Z</time>
      </trkpt>
      <trkpt lat="44.9267" lon="1.67446">
        <ele>122.6</ele>
        <time>2022-05-24T07:57:34Z</time>
      </trkpt>
      <trkpt lat="44.92672" lon="1.67455">
        <ele>122.5</ele>
        <time>2022-05-24T07:57:35Z</time>
      </trkpt>
      <trkpt lat="44.92673" lon="1.67463">
        <ele>122.5</ele>
        <time>2022-05-24T07:57:36Z</time>
      </trkpt>
      <trkpt lat="44.92673" lon="1.67473">
        <ele>122.4</ele>
        <time>2022-05-24T07:57:37Z</time>
      </trkpt>
      <trkpt lat="44.92672" lon="1.67483">
        <ele>122.3</ele>
        <time>2022-05-24T07:57:38Z</time>
      </trkpt>
      <trkpt lat="44.92671" lon="1.67492">
        <ele>122.3</ele>
        <time>2022-05-24T07:57:39Z</time>
      </trkpt>
      <trkpt lat="44.92669" lon="1.67501">
        <ele>122.2</ele>
        <time>2022-05-24T07:57:40Z</time>
      </trkpt>
      <trkpt lat="44.92667" lon="1.6751">
        <ele>122.2</ele>
        <time>2022-05-24T07:57:41Z</time>
      </trkpt>
      <trkpt lat="44.92665" lon="1.67519">
        <ele>122.2</ele>
        <time>2022-05-24T07:57:42Z</time>
      </trkpt>
      <trkpt lat="44.92663" lon="1.67526">
        <ele>122.1</ele>
        <time>2022-05-24T07:57:43Z</time>
      </trkpt>
      <trkpt lat="44.9266" lon="1.67535">
        <ele>122.1</ele>
        <time>2022-05-24T07:57:44Z</time>
      </trkpt>
      <trkpt lat="44.92658" lon="1.67544">
        <ele>122.1</ele>
        <time>2022-05-24T07:57:45Z</time>
      </trkpt>
      <trkpt lat="44.92658" lon="1.67553">
        <ele>122.1</ele>
        <time>2022-05-24T07:57:46Z</time>
      </trkpt>
      <trkpt lat="44.92658" lon="1.67562">
        <ele>122</ele>
        <time>2022-05-24T07:57:47Z</time>
      </trkpt>
      <trkpt lat="44.92658" lon="1.6757">
        <ele>122</ele>
        <time>2022-05-24T07:57:48Z</time>
      </trkpt>
      <trkpt lat="44.92658" lon="1.67579">
        <ele>122</ele>
        <time>2022-05-24T07:57:49Z</time>
      </trkpt>
      <trkpt lat="44.92659" lon="1.67588">
        <ele>122</ele>
        <time>2022-05-24T07:57:50Z</time>
      </trkpt>
      <trkpt lat="44.92661" lon="1.67597">
        <ele>122.1</ele>
        <time>2022-05-24T07:57:51Z</time>
      </trkpt>
      <trkpt lat="44.92663" lon="1.67605">
        <ele>122.1</ele>
        <time>2022-05-24T07:57:52Z</time>
      </trkpt>
      <trkpt lat="44.92665" lon="1.67614">
        <ele>122.2</ele>
        <time>2022-05-24T07:57:53Z</time>
      </trkpt>
      <trkpt lat="44.92668" lon="1.67622">
        <ele>122.2</ele>
        <time>2022-05-24T07:57:54Z</time>
      </trkpt>
      <trkpt lat="44.9267" lon="1.6763">
        <ele>122.2</ele>
        <time>2022-05-24T07:57:55Z</time>
      </trkpt>
      <trkpt lat="44.92674" lon="1.67638">
        <ele>122.3</ele>
        <time>2022-05-24T07:57:56Z</time>
      </trkpt>
      <trkpt lat="44.92676" lon="1.67646">
        <ele>122.3</ele>
        <time>2022-05-24T07:57:57Z</time>
      </trkpt>
      <trkpt lat="44.92679" lon="1.67653">
        <ele>122.4</ele>
        <time>2022-05-24T07:57:58Z</time>
      </trkpt>
      <trkpt lat="44.92682" lon="1.67661">
        <ele>122.4</ele>
        <time>2022-05-24T07:57:59Z</time>
      </trkpt>
      <trkpt lat="44.92685" lon="1.67668">
        <ele>122.5</ele>
        <time>2022-05-24T07:58:00Z</time>
      </trkpt>
      <trkpt lat="44.92688" lon="1.67676">
        <ele>122.5</ele>
        <time>2022-05-24T07:58:01Z</time>
      </trkpt>
      <trkpt lat="44.9269" lon="1.67683">
        <ele>122.6</ele>
        <time>2022-05-24T07:58:02Z</time>
      </trkpt>
      <trkpt lat="44.92692" lon="1.67691">
        <ele>122.6</ele>
        <time>2022-05-24T07:58:03Z</time>
      </trkpt>
      <trkpt lat="44.92695" lon="1.67698">
        <ele>122.7</ele>
        <time>2022-05-24T07:58:04Z</time>
      </trkpt>
      <trkpt lat="44.92698" lon="1.67706">
        <ele>122.7</ele>
        <time>2022-05-24T07:58:05Z</time>
      </trkpt>
      <trkpt lat="44.927" lon="1.67714">
        <ele>122.7</ele>
        <time>2022-05-24T07:58:06Z</time>
      </trkpt>
      <trkpt lat="44.92703" lon="1.67722">
        <ele>122.7</ele>
        <time>2022-05-24T07:58:07Z</time>
      </trkpt>
      <trkpt lat="44.92705" lon="1.6773">
        <ele>122.7</ele>
        <time>2022-05-24T07:58:08Z</time>
      </trkpt>
      <trkpt lat="44.92708" lon="1.67739">
        <ele>122.7</ele>
        <time>2022-05-24T07:58:09Z</time>
      </trkpt>
      <trkpt lat="44.9271" lon="1.67748">
        <ele>122.7</ele>
        <time>2022-05-24T07:58:10Z</time>
      </trkpt>
      <trkpt lat="44.92712" lon="1.67756">
        <ele>122.6</ele>
        <time>2022-05-24T07:58:11Z</time>
      </trkpt>
      <trkpt lat="44.92715" lon="1.67764">
        <ele>122.6</ele>
        <time>2022-05-24T07:58:12Z</time>
      </trkpt>
      <trkpt lat="44.92717" lon="1.67773">
        <ele>122.6</ele>
        <time>2022-05-24T07:58:13Z</time>
      </trkpt>
      <trkpt lat="44.9272" lon="1.67781">
        <ele>122.6</ele>
        <time>2022-05-24T07:58:14Z</time>
      </trkpt>
      <trkpt lat="44.92723" lon="1.6779">
        <ele>122.6</ele>
        <time>2022-05-24T07:58:15Z</time>
      </trkpt>
      <trkpt lat="44.92725" lon="1.67798">
        <ele>122.6</ele>
        <time>2022-05-24T07:58:16Z</time>
      </trkpt>
      <trkpt lat="44.92728" lon="1.67806">
        <ele>122.6</ele>
        <time>2022-05-24T07:58:17Z</time>
      </trkpt>
      <trkpt lat="44.92731" lon="1.67813">
        <ele>122.6</ele>
        <time>2022-05-24T07:58:18Z</time>
      </trkpt>
      <trkpt lat="44.92734" lon="1.67822">
        <ele>122.6</ele>
        <time>2022-05-24T07:58:19Z</time>
      </trkpt>
      <trkpt lat="44.92737" lon="1.6783">
        <ele>122.5</ele>
        <time>2022-05-24T07:58:20Z</time>
      </trkpt>
      <trkpt lat="44.92741" lon="1.67837">
        <ele>122.5</ele>
        <time>2022-05-24T07:58:21Z</time>
      </trkpt>
      <trkpt lat="44.92744" lon="1.67844">
        <ele>122.5</ele>
        <time>2022-05-24T07:58:22Z</time>
      </trkpt>
      <trkpt lat="44.92747" lon="1.67851">
        <ele>122.5</ele>
        <time>2022-05-24T07:58:23Z</time>
      </trkpt>
      <trkpt lat="44.9275" lon="1.67859">
        <ele>122.4</ele>
        <time>2022-05-24T07:58:24Z</time>
      </trkpt>
      <trkpt lat="44.92753" lon="1.67867">
        <ele>122.4</ele>
        <time>2022-05-24T07:58:25Z</time>
      </trkpt>
      <trkpt lat="44.92757" lon="1.67875">
        <ele>122.4</ele>
        <time>2022-05-24T07:58:26Z</time>
      </trkpt>
      <trkpt lat="44.92761" lon="1.67881">
        <ele>122.4</ele>
        <time>2022-05-24T07:58:27Z</time>
      </trkpt>
      <trkpt lat="44.92765" lon="1.67888">
        <ele>122.4</ele>
        <time>2022-05-24T07:58:28Z</time>
      </trkpt>
      <trkpt lat="44.92768" lon="1.67895">
        <ele>122.4</ele>
        <time>2022-05-24T07:58:29Z</time>
      </trkpt>
      <trkpt lat="44.92772" lon="1.67902">
        <ele>122.4</ele>
        <time>2022-05-24T07:58:30Z</time>
      </trkpt>
      <trkpt lat="44.92776" lon="1.67909">
        <ele>122.4</ele>
        <time>2022-05-24T07:58:31Z</time>
      </trkpt>
      <trkpt lat="44.9278" lon="1.67915">
        <ele>122.4</ele>
        <time>2022-05-24T07:58:32Z</time>
      </trkpt>
      <trkpt lat="44.92784" lon="1.67922">
        <ele>122.4</ele>
        <time>2022-05-24T07:58:33Z</time>
      </trkpt>
      <trkpt lat="44.92788" lon="1.67928">
        <ele>122.4</ele>
        <time>2022-05-24T07:58:34Z</time>
      </trkpt>
      <trkpt lat="44.92791" lon="1.67936">
        <ele>122.4</ele>
        <time>2022-05-24T07:58:35Z</time>
      </trkpt>
      <trkpt lat="44.92794" lon="1.67943">
        <ele>122.4</ele>
        <time>2022-05-24T07:58:36Z</time>
      </trkpt>
      <trkpt lat="44.92797" lon="1.67951">
        <ele>122.4</ele>
        <time>2022-05-24T07:58:37Z</time>
      </trkpt>
      <trkpt lat="44.92801" lon="1.67958">
        <ele>122.4</ele>
        <time>2022-05-24T07:58:38Z</time>
      </trkpt>
      <trkpt lat="44.92804" lon="1.67965">
        <ele>122.4</ele>
        <time>2022-05-24T07:58:39Z</time>
      </trkpt>
      <trkpt lat="44.92807" lon="1.67973">
        <ele>122.4</ele>
        <time>2022-05-24T07:58:40Z</time>
      </trkpt>
      <trkpt lat="44.92809" lon="1.6798">
        <ele>122.4</ele>
        <time>2022-05-24T07:58:41Z</time>
      </trkpt>
      <trkpt lat="44.92812" lon="1.67988">
        <ele>122.4</ele>
        <time>2022-05-24T07:58:42Z</time>
      </trkpt>
      <trkpt lat="44.92815" lon="1.67995">
        <ele>122.4</ele>
        <time>2022-05-24T07:58:43Z</time>
      </trkpt>
      <trkpt lat="44.92816" lon="1.68001">
        <ele>122.4</ele>
        <time>2022-05-24T07:58:44Z</time>
      </trkpt>
      <trkpt lat="44.92818" lon="1.68007">
        <ele>122.5</ele>
        <time>2022-05-24T07:58:45Z</time>
      </trkpt>
      <trkpt lat="44.92819" lon="1.68013">
        <ele>122.5</ele>
        <time>2022-05-24T07:58:46Z</time>
      </trkpt>
      <trkpt lat="44.9282" lon="1.68018">
        <ele>122.5</ele>
        <time>2022-05-24T07:58:47Z</time>
      </trkpt>
      <trkpt lat="44.9282" lon="1.68024">
        <ele>122.6</ele>
        <time>2022-05-24T07:58:48Z</time>
      </trkpt>
      <trkpt lat="44.9282" lon="1.68028">
        <ele>122.6</ele>
        <time>2022-05-24T07:58:49Z</time>
      </trkpt>
      <trkpt lat="44.92821" lon="1.68033">
        <ele>122.6</ele>
        <time>2022-05-24T07:58:50Z</time>
      </trkpt>
      <trkpt lat="44.92821" lon="1.68037">
        <ele>122.6</ele>
        <time>2022-05-24T07:58:51Z</time>
      </trkpt>
      <trkpt lat="44.92821" lon="1.68039">
        <ele>122.6</ele>
        <time>2022-05-24T07:58:52Z</time>
      </trkpt>
      <trkpt lat="44.92821" lon="1.68041">
        <ele>122.7</ele>
        <time>2022-05-24T07:58:53Z</time>
      </trkpt>
      <trkpt lat="44.92821" lon="1.68043">
        <ele>122.7</ele>
        <time>2022-05-24T07:58:54Z</time>
      </trkpt>
      <trkpt lat="44.92821" lon="1.68044">
        <ele>122.7</ele>
        <time>2022-05-24T07:58:55Z</time>
      </trkpt>
      <trkpt lat="44.92822" lon="1.68046">
        <ele>122.7</ele>
        <time>2022-05-24T07:58:56Z</time>
      </trkpt>
      <trkpt lat="44.92822" lon="1.68049">
        <ele>122.7</ele>
        <time>2022-05-24T07:58:57Z</time>
      </trkpt>
      <trkpt lat="44.92822" lon="1.6805">
        <ele>122.7</ele>
        <time>2022-05-24T07:58:58Z</time>
      </trkpt>
      <trkpt lat="44.92822" lon="1.68051">
        <ele>122.7</ele>
        <time>2022-05-24T07:58:59Z</time>
      </trkpt>
      <trkpt lat="44.92821" lon="1.68052">
        <ele>122.7</ele>
        <time>2022-05-24T07:59:00Z</time>
      </trkpt>
      <trkpt lat="44.9282" lon="1.68054">
        <ele>122.7</ele>
        <time>2022-05-24T07:59:01Z</time>
      </trkpt>
      <trkpt lat="44.9282" lon="1.68055">
        <ele>122.7</ele>
        <time>2022-05-24T07:59:02Z</time>
      </trkpt>
      <trkpt lat="44.9282" lon="1.68057">
        <ele>122.8</ele>
        <time>2022-05-24T07:59:03Z</time>
      </trkpt>
      <trkpt lat="44.92821" lon="1.68058">
        <ele>122.8</ele>
        <time>2022-05-24T07:59:04Z</time>
      </trkpt>
      <trkpt lat="44.92821" lon="1.68059">
        <ele>122.8</ele>
        <time>2022-05-24T07:59:05Z</time>
      </trkpt>
      <trkpt lat="44.92822" lon="1.68061">
        <ele>122.8</ele>
        <time>2022-05-24T07:59:06Z</time>
      </trkpt>
      <trkpt lat="44.92822" lon="1.68062">
        <ele>122.8</ele>
        <time>2022-05-24T07:59:07Z</time>
      </trkpt>
      <trkpt lat="44.92823" lon="1.68063">
        <ele>122.8</ele>
        <time>2022-05-24T07:59:08Z</time>
      </trkpt>
      <trkpt lat="44.92823" lon="1.68064">
        <ele>122.8</ele>
        <time>2022-05-24T07:59:09Z</time>
      </trkpt>
      <trkpt lat="44.92824" lon="1.68066">
        <ele>122.8</ele>
        <time>2022-05-24T07:59:10Z</time>
      </trkpt>
      <trkpt lat="44.92824" lon="1.68067">
        <ele>122.8</ele>
        <time>2022-05-24T07:59:11Z</time>
      </trkpt>
      <trkpt lat="44.92825" lon="1.68069">
        <ele>122.8</ele>
        <time>2022-05-24T07:59:12Z</time>
      </trkpt>
      <trkpt lat="44.92825" lon="1.68071">
        <ele>122.8</ele>
        <time>2022-05-24T07:59:13Z</time>
      </trkpt>
      <trkpt lat="44.92825" lon="1.68072">
        <ele>122.9</ele>
        <time>2022-05-24T07:59:14Z</time>
      </trkpt>
      <trkpt lat="44.92826" lon="1.68074">
        <ele>122.9</ele>
        <time>2022-05-24T07:59:15Z</time>
      </trkpt>
      <trkpt lat="44.92826" lon="1.68077">
        <ele>122.9</ele>
        <time>2022-05-24T07:59:16Z</time>
      </trkpt>
      <trkpt lat="44.92826" lon="1.68079">
        <ele>122.9</ele>
        <time>2022-05-24T07:59:17Z</time>
      </trkpt>
      <trkpt lat="44.92826" lon="1.68081">
        <ele>122.9</ele>
        <time>2022-05-24T07:59:18Z</time>
      </trkpt>
      <trkpt lat="44.92826" lon="1.68084">
        <ele>122.9</ele>
        <time>2022-05-24T07:59:19Z</time>
      </trkpt>
      <trkpt lat="44.92827" lon="1.68086">
        <ele>122.9</ele>
        <time>2022-05-24T07:59:20Z</time>
      </trkpt>
      <trkpt lat="44.92827" lon="1.68091">
        <ele>123</ele>
        <time>2022-05-24T07:59:21Z</time>
      </trkpt>
      <trkpt lat="44.92827" lon="1.68092">
        <ele>123</ele>
        <time>2022-05-24T07:59:22Z</time>
      </trkpt>
      <trkpt lat="44.92827" lon="1.68098">
        <ele>123</ele>
        <time>2022-05-24T07:59:23Z</time>
      </trkpt>
      <trkpt lat="44.92827" lon="1.68101">
        <ele>123</ele>
        <time>2022-05-24T07:59:24Z</time>
      </trkpt>
      <trkpt lat="44.92827" lon="1.68106">
        <ele>123.1</ele>
        <time>2022-05-24T07:59:25Z</time>
      </trkpt>
      <trkpt lat="44.92828" lon="1.68111">
        <ele>123.1</ele>
        <time>2022-05-24T07:59:26Z</time>
      </trkpt>
      <trkpt lat="44.92828" lon="1.68118">
        <ele>123.1</ele>
        <time>2022-05-24T07:59:27Z</time>
      </trkpt>
      <trkpt lat="44.92828" lon="1.68124">
        <ele>123.2</ele>
        <time>2022-05-24T07:59:28Z</time>
      </trkpt>
      <trkpt lat="44.92829" lon="1.68131">
        <ele>123.2</ele>
        <time>2022-05-24T07:59:29Z</time>
      </trkpt>
      <trkpt lat="44.92829" lon="1.68138">
        <ele>123.2</ele>
        <time>2022-05-24T07:59:30Z</time>
      </trkpt>
      <trkpt lat="44.9283" lon="1.68144">
        <ele>123.2</ele>
        <time>2022-05-24T07:59:31Z</time>
      </trkpt>
      <trkpt lat="44.92831" lon="1.6815">
        <ele>123.2</ele>
        <time>2022-05-24T07:59:32Z</time>
      </trkpt>
      <trkpt lat="44.92832" lon="1.68156">
        <ele>123.2</ele>
        <time>2022-05-24T07:59:33Z</time>
      </trkpt>
      <trkpt lat="44.92833" lon="1.68163">
        <ele>123.2</ele>
        <time>2022-05-24T07:59:34Z</time>
      </trkpt>
      <trkpt lat="44.92834" lon="1.6817">
        <ele>123.3</ele>
        <time>2022-05-24T07:59:35Z</time>
      </trkpt>
      <trkpt lat="44.92835" lon="1.68177">
        <ele>123.3</ele>
        <time>2022-05-24T07:59:36Z</time>
      </trkpt>
      <trkpt lat="44.92836" lon="1.68184">
        <ele>123.3</ele>
        <time>2022-05-24T07:59:37Z</time>
      </trkpt>
      <trkpt lat="44.92837" lon="1.68191">
        <ele>123.4</ele>
        <time>2022-05-24T07:59:38Z</time>
      </trkpt>
      <trkpt lat="44.92838" lon="1.68198">
        <ele>123.4</ele>
        <time>2022-05-24T07:59:39Z</time>
      </trkpt>
      <trkpt lat="44.9284" lon="1.68205">
        <ele>123.5</ele>
        <time>2022-05-24T07:59:40Z</time>
      </trkpt>
      <trkpt lat="44.92841" lon="1.68212">
        <ele>123.6</ele>
        <time>2022-05-24T07:59:41Z</time>
      </trkpt>
      <trkpt lat="44.92843" lon="1.68219">
        <ele>123.6</ele>
        <time>2022-05-24T07:59:42Z</time>
      </trkpt>
      <trkpt lat="44.92844" lon="1.68226">
        <ele>123.7</ele>
        <time>2022-05-24T07:59:43Z</time>
      </trkpt>
      <trkpt lat="44.92845" lon="1.68233">
        <ele>123.8</ele>
        <time>2022-05-24T07:59:44Z</time>
      </trkpt>
      <trkpt lat="44.92847" lon="1.68241">
        <ele>123.8</ele>
        <time>2022-05-24T07:59:45Z</time>
      </trkpt>
      <trkpt lat="44.92849" lon="1.68249">
        <ele>123.9</ele>
        <time>2022-05-24T07:59:46Z</time>
      </trkpt>
      <trkpt lat="44.92851" lon="1.68256">
        <ele>123.9</ele>
        <time>2022-05-24T07:59:47Z</time>
      </trkpt>
      <trkpt lat="44.92852" lon="1.68264">
        <ele>124</ele>
        <time>2022-05-24T07:59:48Z</time>
      </trkpt>
      <trkpt lat="44.92854" lon="1.68273">
        <ele>124</ele>
        <time>2022-05-24T07:59:49Z</time>
      </trkpt>
      <trkpt lat="44.92857" lon="1.68281">
        <ele>124</ele>
        <time>2022-05-24T07:59:50Z</time>
      </trkpt>
      <trkpt lat="44.92859" lon="1.68289">
        <ele>124</ele>
        <time>2022-05-24T07:59:51Z</time>
      </trkpt>
      <trkpt lat="44.9286" lon="1.68296">
        <ele>123.9</ele>
        <time>2022-05-24T07:59:52Z</time>
      </trkpt>
      <trkpt lat="44.92862" lon="1.68303">
        <ele>123.9</ele>
        <time>2022-05-24T07:59:53Z</time>
      </trkpt>
      <trkpt lat="44.92864" lon="1.68311">
        <ele>123.9</ele>
        <time>2022-05-24T07:59:54Z</time>
      </trkpt>
      <trkpt lat="44.92865" lon="1.68318">
        <ele>123.9</ele>
        <time>2022-05-24T07:59:55Z</time>
      </trkpt>
      <trkpt lat="44.92867" lon="1.68326">
        <ele>123.9</ele>
        <time>2022-05-24T07:59:56Z</time>
      </trkpt>
      <trkpt lat="44.92868" lon="1.68333">
        <ele>124</ele>
        <time>2022-05-24T07:59:57Z</time>
      </trkpt>
      <trkpt lat="44.92869" lon="1.68341">
        <ele>124</ele>
        <time>2022-05-24T07:59:58Z</time>
      </trkpt>
      <trkpt lat="44.9287" lon="1.68349">
        <ele>124</ele>
        <time>2022-05-24T07:59:59Z</time>
      </trkpt>
      <trkpt lat="44.92872" lon="1.68357">
        <ele>124</ele>
        <time>2022-05-24T08:00:00Z</time>
      </trkpt>
      <trkpt lat="44.92873" lon="1.68365">
        <ele>124.1</ele>
        <time>2022-05-24T08:00:01Z</time>
      </trkpt>
      <trkpt lat="44.92875" lon="1.68372">
        <ele>124.1</ele>
        <time>2022-05-24T08:00:02Z</time>
      </trkpt>
      <trkpt lat="44.92877" lon="1.68378">
        <ele>124.1</ele>
        <time>2022-05-24T08:00:03Z</time>
      </trkpt>
      <trkpt lat="44.92879" lon="1.68386">
        <ele>124.1</ele>
        <time>2022-05-24T08:00:04Z</time>
      </trkpt>
      <trkpt lat="44.9288" lon="1.68394">
        <ele>124.1</ele>
        <time>2022-05-24T08:00:05Z</time>
      </trkpt>
      <trkpt lat="44.92883" lon="1.68402">
        <ele>124.1</ele>
        <time>2022-05-24T08:00:06Z</time>
      </trkpt>
      <trkpt lat="44.92884" lon="1.68409">
        <ele>124.1</ele>
        <time>2022-05-24T08:00:07Z</time>
      </trkpt>
      <trkpt lat="44.92886" lon="1.68417">
        <ele>124.1</ele>
        <time>2022-05-24T08:00:08Z</time>
      </trkpt>
      <trkpt lat="44.92888" lon="1.68425">
        <ele>124.1</ele>
        <time>2022-05-24T08:00:09Z</time>
      </trkpt>
      <trkpt lat="44.9289" lon="1.68433">
        <ele>124.1</ele>
        <time>2022-05-24T08:00:10Z</time>
      </trkpt>
      <trkpt lat="44.92891" lon="1.6844">
        <ele>124.1</ele>
        <time>2022-05-24T08:00:11Z</time>
      </trkpt>
      <trkpt lat="44.92893" lon="1.68448">
        <ele>124.1</ele>
        <time>2022-05-24T08:00:12Z</time>
      </trkpt>
      <trkpt lat="44.92896" lon="1.68456">
        <ele>124.1</ele>
        <time>2022-05-24T08:00:13Z</time>
      </trkpt>
      <trkpt lat="44.92899" lon="1.68463">
        <ele>124.1</ele>
        <time>2022-05-24T08:00:14Z</time>
      </trkpt>
      <trkpt lat="44.92901" lon="1.68469">
        <ele>124.1</ele>
        <time>2022-05-24T08:00:15Z</time>
      </trkpt>
      <trkpt lat="44.92903" lon="1.68477">
        <ele>124.1</ele>
        <time>2022-05-24T08:00:16Z</time>
      </trkpt>
      <trkpt lat="44.92906" lon="1.68484">
        <ele>124.1</ele>
        <time>2022-05-24T08:00:17Z</time>
      </trkpt>
      <trkpt lat="44.92909" lon="1.68492">
        <ele>124</ele>
        <time>2022-05-24T08:00:18Z</time>
      </trkpt>
      <trkpt lat="44.92911" lon="1.68499">
        <ele>124.1</ele>
        <time>2022-05-24T08:00:19Z</time>
      </trkpt>
      <trkpt lat="44.92915" lon="1.68506">
        <ele>124.1</ele>
        <time>2022-05-24T08:00:20Z</time>
      </trkpt>
      <trkpt lat="44.92917" lon="1.68513">
        <ele>124.1</ele>
        <time>2022-05-24T08:00:21Z</time>
      </trkpt>
      <trkpt lat="44.92921" lon="1.6852">
        <ele>124.2</ele>
        <time>2022-05-24T08:00:22Z</time>
      </trkpt>
      <trkpt lat="44.92924" lon="1.68527">
        <ele>124.3</ele>
        <time>2022-05-24T08:00:23Z</time>
      </trkpt>
      <trkpt lat="44.92928" lon="1.68533">
        <ele>124.4</ele>
        <time>2022-05-24T08:00:24Z</time>
      </trkpt>
      <trkpt lat="44.92932" lon="1.68539">
        <ele>124.5</ele>
        <time>2022-05-24T08:00:25Z</time>
      </trkpt>
      <trkpt lat="44.92935" lon="1.68545">
        <ele>124.7</ele>
        <time>2022-05-24T08:00:26Z</time>
      </trkpt>
      <trkpt lat="44.92938" lon="1.68551">
        <ele>124.8</ele>
        <time>2022-05-24T08:00:27Z</time>
      </trkpt>
      <trkpt lat="44.92941" lon="1.68558">
        <ele>125</ele>
        <time>2022-05-24T08:00:28Z</time>
      </trkpt>
      <trkpt lat="44.92944" lon="1.68563">
        <ele>125.2</ele>
        <time>2022-05-24T08:00:29Z</time>
      </trkpt>
      <trkpt lat="44.92947" lon="1.68569">
        <ele>125.3</ele>
        <time>2022-05-24T08:00:30Z</time>
      </trkpt>
      <trkpt lat="44.9295" lon="1.68576">
        <ele>125.5</ele>
        <time>2022-05-24T08:00:31Z</time>
      </trkpt>
      <trkpt lat="44.92953" lon="1.68582">
        <ele>125.7</ele>
        <time>2022-05-24T08:00:32Z</time>
      </trkpt>
      <trkpt lat="44.92956" lon="1.68588">
        <ele>125.9</ele>
        <time>2022-05-24T08:00:33Z</time>
      </trkpt>
      <trkpt lat="44.92959" lon="1.68594">
        <ele>126</ele>
        <time>2022-05-24T08:00:34Z</time>
      </trkpt>
      <trkpt lat="44.92962" lon="1.686">
        <ele>126.2</ele>
        <time>2022-05-24T08:00:35Z</time>
      </trkpt>
      <trkpt lat="44.92964" lon="1.68607">
        <ele>126.4</ele>
        <time>2022-05-24T08:00:36Z</time>
      </trkpt>
      <trkpt lat="44.92967" lon="1.68613">
        <ele>126.6</ele>
        <time>2022-05-24T08:00:37Z</time>
      </trkpt>
      <trkpt lat="44.9297" lon="1.68619">
        <ele>126.8</ele>
        <time>2022-05-24T08:00:38Z</time>
      </trkpt>
      <trkpt lat="44.92973" lon="1.68625">
        <ele>127</ele>
        <time>2022-05-24T08:00:39Z</time>
      </trkpt>
      <trkpt lat="44.92976" lon="1.68631">
        <ele>127.3</ele>
        <time>2022-05-24T08:00:40Z</time>
      </trkpt>
      <trkpt lat="44.92978" lon="1.68638">
        <ele>127.5</ele>
        <time>2022-05-24T08:00:41Z</time>
      </trkpt>
      <trkpt lat="44.92981" lon="1.68643">
        <ele>127.8</ele>
        <time>2022-05-24T08:00:42Z</time>
      </trkpt>
      <trkpt lat="44.92985" lon="1.68649">
        <ele>128</ele>
        <time>2022-05-24T08:00:43Z</time>
      </trkpt>
      <trkpt lat="44.92988" lon="1.68655">
        <ele>128.3</ele>
        <time>2022-05-24T08:00:44Z</time>
      </trkpt>
      <trkpt lat="44.92991" lon="1.6866">
        <ele>128.6</ele>
        <time>2022-05-24T08:00:45Z</time>
      </trkpt>
      <trkpt lat="44.92993" lon="1.68666">
        <ele>128.8</ele>
        <time>2022-05-24T08:00:46Z</time>
      </trkpt>
      <trkpt lat="44.92995" lon="1.68672">
        <ele>129.1</ele>
        <time>2022-05-24T08:00:47Z</time>
      </trkpt>
      <trkpt lat="44.92999" lon="1.68677">
        <ele>129.3</ele>
        <time>2022-05-24T08:00:48Z</time>
      </trkpt>
      <trkpt lat="44.93002" lon="1.68682">
        <ele>129.5</ele>
        <time>2022-05-24T08:00:49Z</time>
      </trkpt>
      <trkpt lat="44.93005" lon="1.68688">
        <ele>129.8</ele>
        <time>2022-05-24T08:00:50Z</time>
      </trkpt>
      <trkpt lat="44.93007" lon="1.68694">
        <ele>130</ele>
        <time>2022-05-24T08:00:51Z</time>
      </trkpt>
      <trkpt lat="44.9301" lon="1.687">
        <ele>130.2</ele>
        <time>2022-05-24T08:00:52Z</time>
      </trkpt>
      <trkpt lat="44.93012" lon="1.68705">
        <ele>130.5</ele>
        <time>2022-05-24T08:00:53Z</time>
      </trkpt>
      <trkpt lat="44.93015" lon="1.68711">
        <ele>130.7</ele>
        <time>2022-05-24T08:00:54Z</time>
      </trkpt>
      <trkpt lat="44.93017" lon="1.68716">
        <ele>130.9</ele>
        <time>2022-05-24T08:00:55Z</time>
      </trkpt>
      <trkpt lat="44.9302" lon="1.68722">
        <ele>131.1</ele>
        <time>2022-05-24T08:00:56Z</time>
      </trkpt>
      <trkpt lat="44.93022" lon="1.68726">
        <ele>131.2</ele>
        <time>2022-05-24T08:00:57Z</time>
      </trkpt>
      <trkpt lat="44.93025" lon="1.68731">
        <ele>131.4</ele>
        <time>2022-05-24T08:00:58Z</time>
      </trkpt>
      <trkpt lat="44.93028" lon="1.68735">
        <ele>131.6</ele>
        <time>2022-05-24T08:00:59Z</time>
      </trkpt>
      <trkpt lat="44.93031" lon="1.6874">
        <ele>131.7</ele>
        <time>2022-05-24T08:01:00Z</time>
      </trkpt>
      <trkpt lat="44.93034" lon="1.68744">
        <ele>131.9</ele>
        <time>2022-05-24T08:01:01Z</time>
      </trkpt>
      <trkpt lat="44.93036" lon="1.68749">
        <ele>132.1</ele>
        <time>2022-05-24T08:01:02Z</time>
      </trkpt>
      <trkpt lat="44.93037" lon="1.68754">
        <ele>132.2</ele>
        <time>2022-05-24T08:01:03Z</time>
      </trkpt>
      <trkpt lat="44.93037" lon="1.68758">
        <ele>132.5</ele>
        <time>2022-05-24T08:01:04Z</time>
      </trkpt>
      <trkpt lat="44.93036" lon="1.68763">
        <ele>132.9</ele>
        <time>2022-05-24T08:01:05Z</time>
      </trkpt>
      <trkpt lat="44.93036" lon="1.68765">
        <ele>133.1</ele>
        <time>2022-05-24T08:01:06Z</time>
      </trkpt>
      <trkpt lat="44.93035" lon="1.68769">
        <ele>133.4</ele>
        <time>2022-05-24T08:01:07Z</time>
      </trkpt>
      <trkpt lat="44.93035" lon="1.68773">
        <ele>133.7</ele>
        <time>2022-05-24T08:01:08Z</time>
      </trkpt>
      <trkpt lat="44.93035" lon="1.68777">
        <ele>134</ele>
        <time>2022-05-24T08:01:09Z</time>
      </trkpt>
      <trkpt lat="44.93035" lon="1.6878">
        <ele>134.3</ele>
        <time>2022-05-24T08:01:10Z</time>
      </trkpt>
      <trkpt lat="44.93036" lon="1.68785">
        <ele>134.7</ele>
        <time>2022-05-24T08:01:11Z</time>
      </trkpt>
      <trkpt lat="44.93037" lon="1.68789">
        <ele>135.1</ele>
        <time>2022-05-24T08:01:12Z</time>
      </trkpt>
      <trkpt lat="44.93039" lon="1.68797">
        <ele>135.8</ele>
        <time>2022-05-24T08:01:14Z</time>
      </trkpt>
      <trkpt lat="44.93043" lon="1.6881">
        <ele>136.8</ele>
        <time>2022-05-24T08:01:19Z</time>
      </trkpt>
      <trkpt lat="44.93045" lon="1.68817">
        <ele>137.4</ele>
        <time>2022-05-24T08:01:20Z</time>
      </trkpt>
      <trkpt lat="44.93046" lon="1.68822">
        <ele>137.8</ele>
        <time>2022-05-24T08:01:21Z</time>
      </trkpt>
      <trkpt lat="44.93047" lon="1.68826">
        <ele>138.1</ele>
        <time>2022-05-24T08:01:22Z</time>
      </trkpt>
      <trkpt lat="44.93048" lon="1.68831">
        <ele>138.5</ele>
        <time>2022-05-24T08:01:23Z</time>
      </trkpt>
      <trkpt lat="44.93049" lon="1.68833">
        <ele>138.6</ele>
        <time>2022-05-24T08:01:24Z</time>
      </trkpt>
      <trkpt lat="44.9305" lon="1.68838">
        <ele>139</ele>
        <time>2022-05-24T08:01:25Z</time>
      </trkpt>
      <trkpt lat="44.9305" lon="1.6884">
        <ele>139.1</ele>
        <time>2022-05-24T08:01:26Z</time>
      </trkpt>
      <trkpt lat="44.93052" lon="1.68845">
        <ele>139.4</ele>
        <time>2022-05-24T08:01:27Z</time>
      </trkpt>
      <trkpt lat="44.93052" lon="1.68847">
        <ele>139.5</ele>
        <time>2022-05-24T08:01:28Z</time>
      </trkpt>
      <trkpt lat="44.93053" lon="1.68851">
        <ele>139.8</ele>
        <time>2022-05-24T08:01:29Z</time>
      </trkpt>
      <trkpt lat="44.93054" lon="1.68855">
        <ele>140</ele>
        <time>2022-05-24T08:01:30Z</time>
      </trkpt>
      <trkpt lat="44.93055" lon="1.68859">
        <ele>140.2</ele>
        <time>2022-05-24T08:01:31Z</time>
      </trkpt>
      <trkpt lat="44.93056" lon="1.68863">
        <ele>140.4</ele>
        <time>2022-05-24T08:01:32Z</time>
      </trkpt>
      <trkpt lat="44.93057" lon="1.68867">
        <ele>140.7</ele>
        <time>2022-05-24T08:01:33Z</time>
      </trkpt>
      <trkpt lat="44.93057" lon="1.68871">
        <ele>140.9</ele>
        <time>2022-05-24T08:01:34Z</time>
      </trkpt>
      <trkpt lat="44.93058" lon="1.68875">
        <ele>141.1</ele>
        <time>2022-05-24T08:01:35Z</time>
      </trkpt>
      <trkpt lat="44.93058" lon="1.68879">
        <ele>141.3</ele>
        <time>2022-05-24T08:01:36Z</time>
      </trkpt>
      <trkpt lat="44.93059" lon="1.68883">
        <ele>141.4</ele>
        <time>2022-05-24T08:01:37Z</time>
      </trkpt>
      <trkpt lat="44.93059" lon="1.68888">
        <ele>141.6</ele>
        <time>2022-05-24T08:01:38Z</time>
      </trkpt>
      <trkpt lat="44.9306" lon="1.68892">
        <ele>141.7</ele>
        <time>2022-05-24T08:01:39Z</time>
      </trkpt>
      <trkpt lat="44.93061" lon="1.68896">
        <ele>141.9</ele>
        <time>2022-05-24T08:01:40Z</time>
      </trkpt>
      <trkpt lat="44.93062" lon="1.689">
        <ele>142</ele>
        <time>2022-05-24T08:01:41Z</time>
      </trkpt>
      <trkpt lat="44.93063" lon="1.68904">
        <ele>142.1</ele>
        <time>2022-05-24T08:01:42Z</time>
      </trkpt>
      <trkpt lat="44.93064" lon="1.68909">
        <ele>142.2</ele>
        <time>2022-05-24T08:01:43Z</time>
      </trkpt>
      <trkpt lat="44.93065" lon="1.68913">
        <ele>142.3</ele>
        <time>2022-05-24T08:01:44Z</time>
      </trkpt>
      <trkpt lat="44.93066" lon="1.68918">
        <ele>142.4</ele>
        <time>2022-05-24T08:01:45Z</time>
      </trkpt>
      <trkpt lat="44.93067" lon="1.68922">
        <ele>142.4</ele>
        <time>2022-05-24T08:01:46Z</time>
      </trkpt>
      <trkpt lat="44.93068" lon="1.68927">
        <ele>142.5</ele>
        <time>2022-05-24T08:01:47Z</time>
      </trkpt>
      <trkpt lat="44.9307" lon="1.68932">
        <ele>142.6</ele>
        <time>2022-05-24T08:01:48Z</time>
      </trkpt>
      <trkpt lat="44.93071" lon="1.68937">
        <ele>142.6</ele>
        <time>2022-05-24T08:01:49Z</time>
      </trkpt>
      <trkpt lat="44.93072" lon="1.68942">
        <ele>142.6</ele>
        <time>2022-05-24T08:01:50Z</time>
      </trkpt>
      <trkpt lat="44.93073" lon="1.68947">
        <ele>142.6</ele>
        <time>2022-05-24T08:01:51Z</time>
      </trkpt>
      <trkpt lat="44.93075" lon="1.68952">
        <ele>142.6</ele>
        <time>2022-05-24T08:01:52Z</time>
      </trkpt>
      <trkpt lat="44.93078" lon="1.68958">
        <ele>142.6</ele>
        <time>2022-05-24T08:01:53Z</time>
      </trkpt>
      <trkpt lat="44.9308" lon="1.68964">
        <ele>142.4</ele>
        <time>2022-05-24T08:01:54Z</time>
      </trkpt>
      <trkpt lat="44.93082" lon="1.6897">
        <ele>142.2</ele>
        <time>2022-05-24T08:01:55Z</time>
      </trkpt>
      <trkpt lat="44.93085" lon="1.68977">
        <ele>142</ele>
        <time>2022-05-24T08:01:56Z</time>
      </trkpt>
      <trkpt lat="44.93087" lon="1.68984">
        <ele>141.7</ele>
        <time>2022-05-24T08:01:57Z</time>
      </trkpt>
      <trkpt lat="44.93089" lon="1.68991">
        <ele>141.4</ele>
        <time>2022-05-24T08:01:58Z</time>
      </trkpt>
      <trkpt lat="44.9309" lon="1.68996">
        <ele>141.2</ele>
        <time>2022-05-24T08:01:59Z</time>
      </trkpt>
      <trkpt lat="44.9309" lon="1.69001">
        <ele>141</ele>
        <time>2022-05-24T08:02:00Z</time>
      </trkpt>
      <trkpt lat="44.93091" lon="1.69005">
        <ele>140.9</ele>
        <time>2022-05-24T08:02:01Z</time>
      </trkpt>
      <trkpt lat="44.93092" lon="1.6901">
        <ele>140.7</ele>
        <time>2022-05-24T08:02:02Z</time>
      </trkpt>
      <trkpt lat="44.93092" lon="1.69015">
        <ele>140.5</ele>
        <time>2022-05-24T08:02:03Z</time>
      </trkpt>
      <trkpt lat="44.93094" lon="1.69021">
        <ele>140.2</ele>
        <time>2022-05-24T08:02:04Z</time>
      </trkpt>
      <trkpt lat="44.93095" lon="1.69027">
        <ele>139.9</ele>
        <time>2022-05-24T08:02:05Z</time>
      </trkpt>
      <trkpt lat="44.93096" lon="1.69034">
        <ele>139.6</ele>
        <time>2022-05-24T08:02:06Z</time>
      </trkpt>
      <trkpt lat="44.93097" lon="1.6904">
        <ele>139.2</ele>
        <time>2022-05-24T08:02:07Z</time>
      </trkpt>
      <trkpt lat="44.93097" lon="1.69046">
        <ele>138.9</ele>
        <time>2022-05-24T08:02:08Z</time>
      </trkpt>
      <trkpt lat="44.93098" lon="1.69052">
        <ele>138.7</ele>
        <time>2022-05-24T08:02:09Z</time>
      </trkpt>
      <trkpt lat="44.93099" lon="1.69056">
        <ele>138.5</ele>
        <time>2022-05-24T08:02:10Z</time>
      </trkpt>
      <trkpt lat="44.93099" lon="1.69061">
        <ele>138.4</ele>
        <time>2022-05-24T08:02:11Z</time>
      </trkpt>
      <trkpt lat="44.931" lon="1.69062">
        <ele>138.3</ele>
        <time>2022-05-24T08:02:12Z</time>
      </trkpt>
      <trkpt lat="44.93099" lon="1.69066">
        <ele>138.9</ele>
        <time>2022-05-24T08:02:13Z</time>
      </trkpt>
      <trkpt lat="44.93098" lon="1.69067">
        <ele>139.1</ele>
        <time>2022-05-24T08:02:14Z</time>
      </trkpt>
      <trkpt lat="44.93097" lon="1.69071">
        <ele>139.7</ele>
        <time>2022-05-24T08:02:15Z</time>
      </trkpt>
      <trkpt lat="44.93097" lon="1.69073">
        <ele>139.9</ele>
        <time>2022-05-24T08:02:16Z</time>
      </trkpt>
      <trkpt lat="44.93096" lon="1.69077">
        <ele>140.5</ele>
        <time>2022-05-24T08:02:17Z</time>
      </trkpt>
      <trkpt lat="44.93095" lon="1.69078">
        <ele>140.7</ele>
        <time>2022-05-24T08:02:18Z</time>
      </trkpt>
      <trkpt lat="44.93094" lon="1.69082">
        <ele>141.3</ele>
        <time>2022-05-24T08:02:19Z</time>
      </trkpt>
      <trkpt lat="44.93094" lon="1.69083">
        <ele>141.5</ele>
        <time>2022-05-24T08:02:20Z</time>
      </trkpt>
      <trkpt lat="44.93092" lon="1.69087">
        <ele>141.9</ele>
        <time>2022-05-24T08:02:21Z</time>
      </trkpt>
      <trkpt lat="44.93092" lon="1.69088">
        <ele>142.1</ele>
        <time>2022-05-24T08:02:22Z</time>
      </trkpt>
      <trkpt lat="44.93091" lon="1.69092">
        <ele>142.6</ele>
        <time>2022-05-24T08:02:23Z</time>
      </trkpt>
      <trkpt lat="44.9309" lon="1.69093">
        <ele>142.7</ele>
        <time>2022-05-24T08:02:24Z</time>
      </trkpt>
      <trkpt lat="44.9309" lon="1.69097">
        <ele>143.2</ele>
        <time>2022-05-24T08:02:25Z</time>
      </trkpt>
      <trkpt lat="44.93089" lon="1.69098">
        <ele>143.4</ele>
        <time>2022-05-24T08:02:26Z</time>
      </trkpt>
      <trkpt lat="44.93089" lon="1.691">
        <ele>143.7</ele>
        <time>2022-05-24T08:02:27Z</time>
      </trkpt>
      <trkpt lat="44.93089" lon="1.69103">
        <ele>144</ele>
        <time>2022-05-24T08:02:28Z</time>
      </trkpt>
      <trkpt lat="44.93089" lon="1.69107">
        <ele>144.5</ele>
        <time>2022-05-24T08:02:29Z</time>
      </trkpt>
      <trkpt lat="44.93089" lon="1.69108">
        <ele>144.6</ele>
        <time>2022-05-24T08:02:30Z</time>
      </trkpt>
      <trkpt lat="44.93089" lon="1.69111">
        <ele>144.9</ele>
        <time>2022-05-24T08:02:31Z</time>
      </trkpt>
      <trkpt lat="44.93089" lon="1.69113">
        <ele>145.3</ele>
        <time>2022-05-24T08:02:32Z</time>
      </trkpt>
      <trkpt lat="44.93089" lon="1.69117">
        <ele>145.8</ele>
        <time>2022-05-24T08:02:33Z</time>
      </trkpt>
      <trkpt lat="44.93089" lon="1.69119">
        <ele>146</ele>
        <time>2022-05-24T08:02:34Z</time>
      </trkpt>
      <trkpt lat="44.93089" lon="1.69121">
        <ele>146.3</ele>
        <time>2022-05-24T08:02:35Z</time>
      </trkpt>
      <trkpt lat="44.93089" lon="1.69123">
        <ele>146.6</ele>
        <time>2022-05-24T08:02:36Z</time>
      </trkpt>
      <trkpt lat="44.93089" lon="1.69125">
        <ele>147</ele>
        <time>2022-05-24T08:02:37Z</time>
      </trkpt>
      <trkpt lat="44.93089" lon="1.69128">
        <ele>147.3</ele>
        <time>2022-05-24T08:02:38Z</time>
      </trkpt>
      <trkpt lat="44.93088" lon="1.69132">
        <ele>148</ele>
        <time>2022-05-24T08:02:39Z</time>
      </trkpt>
      <trkpt lat="44.93088" lon="1.69133">
        <ele>148.2</ele>
        <time>2022-05-24T08:02:40Z</time>
      </trkpt>
      <trkpt lat="44.93088" lon="1.69137">
        <ele>148.9</ele>
        <time>2022-05-24T08:02:41Z</time>
      </trkpt>
      <trkpt lat="44.93088" lon="1.69138">
        <ele>149.1</ele>
        <time>2022-05-24T08:02:42Z</time>
      </trkpt>
      <trkpt lat="44.93088" lon="1.69143">
        <ele>149.8</ele>
        <time>2022-05-24T08:02:43Z</time>
      </trkpt>
      <trkpt lat="44.93087" lon="1.69144">
        <ele>150</ele>
        <time>2022-05-24T08:02:44Z</time>
      </trkpt>
      <trkpt lat="44.93087" lon="1.69148">
        <ele>150.6</ele>
        <time>2022-05-24T08:02:45Z</time>
      </trkpt>
      <trkpt lat="44.93087" lon="1.69149">
        <ele>150.8</ele>
        <time>2022-05-24T08:02:46Z</time>
      </trkpt>
      <trkpt lat="44.93087" lon="1.69152">
        <ele>151.1</ele>
        <time>2022-05-24T08:02:47Z</time>
      </trkpt>
      <trkpt lat="44.93086" lon="1.69154">
        <ele>151.5</ele>
        <time>2022-05-24T08:02:48Z</time>
      </trkpt>
      <trkpt lat="44.93086" lon="1.69158">
        <ele>151.9</ele>
        <time>2022-05-24T08:02:49Z</time>
      </trkpt>
      <trkpt lat="44.93086" lon="1.69159">
        <ele>152.1</ele>
        <time>2022-05-24T08:02:50Z</time>
      </trkpt>
      <trkpt lat="44.93086" lon="1.69162">
        <ele>152.4</ele>
        <time>2022-05-24T08:02:51Z</time>
      </trkpt>
      <trkpt lat="44.93086" lon="1.69164">
        <ele>152.6</ele>
        <time>2022-05-24T08:02:52Z</time>
      </trkpt>
      <trkpt lat="44.93086" lon="1.69168">
        <ele>153.1</ele>
        <time>2022-05-24T08:02:53Z</time>
      </trkpt>
      <trkpt lat="44.93086" lon="1.6917">
        <ele>153.2</ele>
        <time>2022-05-24T08:02:54Z</time>
      </trkpt>
      <trkpt lat="44.93086" lon="1.69172">
        <ele>153.5</ele>
        <time>2022-05-24T08:02:55Z</time>
      </trkpt>
      <trkpt lat="44.93085" lon="1.69174">
        <ele>153.7</ele>
        <time>2022-05-24T08:02:56Z</time>
      </trkpt>
      <trkpt lat="44.93085" lon="1.69178">
        <ele>154.1</ele>
        <time>2022-05-24T08:02:57Z</time>
      </trkpt>
      <trkpt lat="44.93085" lon="1.6918">
        <ele>154.2</ele>
        <time>2022-05-24T08:02:58Z</time>
      </trkpt>
      <trkpt lat="44.93085" lon="1.69184">
        <ele>154.6</ele>
        <time>2022-05-24T08:02:59Z</time>
      </trkpt>
      <trkpt lat="44.93085" lon="1.69185">
        <ele>154.8</ele>
        <time>2022-05-24T08:03:00Z</time>
      </trkpt>
      <trkpt lat="44.93085" lon="1.69189">
        <ele>155.2</ele>
        <time>2022-05-24T08:03:01Z</time>
      </trkpt>
      <trkpt lat="44.93086" lon="1.69191">
        <ele>155.3</ele>
        <time>2022-05-24T08:03:02Z</time>
      </trkpt>
      <trkpt lat="44.93086" lon="1.69195">
        <ele>155.7</ele>
        <time>2022-05-24T08:03:03Z</time>
      </trkpt>
      <trkpt lat="44.93086" lon="1.69196">
        <ele>155.9</ele>
        <time>2022-05-24T08:03:04Z</time>
      </trkpt>
      <trkpt lat="44.93085" lon="1.692">
        <ele>156.3</ele>
        <time>2022-05-24T08:03:05Z</time>
      </trkpt>
      <trkpt lat="44.93085" lon="1.69201">
        <ele>156.4</ele>
        <time>2022-05-24T08:03:06Z</time>
      </trkpt>
      <trkpt lat="44.93084" lon="1.69205">
        <ele>156.9</ele>
        <time>2022-05-24T08:03:07Z</time>
      </trkpt>
      <trkpt lat="44.93083" lon="1.69207">
        <ele>157.1</ele>
        <time>2022-05-24T08:03:08Z</time>
      </trkpt>
      <trkpt lat="44.93083" lon="1.69211">
        <ele>157.7</ele>
        <time>2022-05-24T08:03:09Z</time>
      </trkpt>
      <trkpt lat="44.93083" lon="1.69213">
        <ele>157.9</ele>
        <time>2022-05-24T08:03:10Z</time>
      </trkpt>
      <trkpt lat="44.93082" lon="1.69218">
        <ele>158.5</ele>
        <time>2022-05-24T08:03:11Z</time>
      </trkpt>
      <trkpt lat="44.93082" lon="1.69219">
        <ele>158.8</ele>
        <time>2022-05-24T08:03:12Z</time>
      </trkpt>
      <trkpt lat="44.93082" lon="1.69223">
        <ele>159.4</ele>
        <time>2022-05-24T08:03:13Z</time>
      </trkpt>
      <trkpt lat="44.93082" lon="1.69225">
        <ele>159.6</ele>
        <time>2022-05-24T08:03:14Z</time>
      </trkpt>
      <trkpt lat="44.93082" lon="1.69229">
        <ele>160.1</ele>
        <time>2022-05-24T08:03:15Z</time>
      </trkpt>
      <trkpt lat="44.93082" lon="1.6923">
        <ele>160.3</ele>
        <time>2022-05-24T08:03:16Z</time>
      </trkpt>
      <trkpt lat="44.93082" lon="1.69232">
        <ele>160.7</ele>
        <time>2022-05-24T08:03:17Z</time>
      </trkpt>
      <trkpt lat="44.93082" lon="1.69234">
        <ele>161</ele>
        <time>2022-05-24T08:03:18Z</time>
      </trkpt>
      <trkpt lat="44.93081" lon="1.69236">
        <ele>161.4</ele>
        <time>2022-05-24T08:03:19Z</time>
      </trkpt>
      <trkpt lat="44.9308" lon="1.69238">
        <ele>161.8</ele>
        <time>2022-05-24T08:03:20Z</time>
      </trkpt>
      <trkpt lat="44.93078" lon="1.6924">
        <ele>162.3</ele>
        <time>2022-05-24T08:03:21Z</time>
      </trkpt>
      <trkpt lat="44.93077" lon="1.6924">
        <ele>162.5</ele>
        <time>2022-05-24T08:03:22Z</time>
      </trkpt>
      <trkpt lat="44.93076" lon="1.69241">
        <ele>162.7</ele>
        <time>2022-05-24T08:03:23Z</time>
      </trkpt>
      <trkpt lat="44.93074" lon="1.69241">
        <ele>163.3</ele>
        <time>2022-05-24T08:03:24Z</time>
      </trkpt>
      <trkpt lat="44.93073" lon="1.69241">
        <ele>163.5</ele>
        <time>2022-05-24T08:03:25Z</time>
      </trkpt>
      <trkpt lat="44.93071" lon="1.6924">
        <ele>163.9</ele>
        <time>2022-05-24T08:03:26Z</time>
      </trkpt>
      <trkpt lat="44.93068" lon="1.69238">
        <ele>164.6</ele>
        <time>2022-05-24T08:03:28Z</time>
      </trkpt>
      <trkpt lat="44.93067" lon="1.69237">
        <ele>165</ele>
        <time>2022-05-24T08:03:29Z</time>
      </trkpt>
      <trkpt lat="44.93065" lon="1.69236">
        <ele>165.4</ele>
        <time>2022-05-24T08:03:30Z</time>
      </trkpt>
      <trkpt lat="44.93064" lon="1.69235">
        <ele>165.7</ele>
        <time>2022-05-24T08:03:31Z</time>
      </trkpt>
      <trkpt lat="44.93062" lon="1.69235">
        <ele>166</ele>
        <time>2022-05-24T08:03:32Z</time>
      </trkpt>
      <trkpt lat="44.93061" lon="1.69233">
        <ele>166.4</ele>
        <time>2022-05-24T08:03:33Z</time>
      </trkpt>
      <trkpt lat="44.9306" lon="1.69233">
        <ele>166.7</ele>
        <time>2022-05-24T08:03:34Z</time>
      </trkpt>
      <trkpt lat="44.93058" lon="1.69231">
        <ele>167.1</ele>
        <time>2022-05-24T08:03:35Z</time>
      </trkpt>
      <trkpt lat="44.93057" lon="1.6923">
        <ele>167.4</ele>
        <time>2022-05-24T08:03:36Z</time>
      </trkpt>
      <trkpt lat="44.93056" lon="1.69228">
        <ele>167.8</ele>
        <time>2022-05-24T08:03:37Z</time>
      </trkpt>
      <trkpt lat="44.93055" lon="1.69227">
        <ele>168.1</ele>
        <time>2022-05-24T08:03:38Z</time>
      </trkpt>
      <trkpt lat="44.93053" lon="1.69226">
        <ele>168.5</ele>
        <time>2022-05-24T08:03:39Z</time>
      </trkpt>
      <trkpt lat="44.93052" lon="1.69225">
        <ele>168.8</ele>
        <time>2022-05-24T08:03:40Z</time>
      </trkpt>
      <trkpt lat="44.93051" lon="1.69223">
        <ele>169.1</ele>
        <time>2022-05-24T08:03:41Z</time>
      </trkpt>
      <trkpt lat="44.93049" lon="1.69223">
        <ele>169.4</ele>
        <time>2022-05-24T08:03:42Z</time>
      </trkpt>
      <trkpt lat="44.93048" lon="1.69222">
        <ele>169.8</ele>
        <time>2022-05-24T08:03:43Z</time>
      </trkpt>
      <trkpt lat="44.93046" lon="1.69222">
        <ele>170.2</ele>
        <time>2022-05-24T08:03:44Z</time>
      </trkpt>
      <trkpt lat="44.93044" lon="1.69222">
        <ele>170.5</ele>
        <time>2022-05-24T08:03:45Z</time>
      </trkpt>
      <trkpt lat="44.93043" lon="1.69223">
        <ele>170.8</ele>
        <time>2022-05-24T08:03:46Z</time>
      </trkpt>
      <trkpt lat="44.93042" lon="1.69225">
        <ele>171.1</ele>
        <time>2022-05-24T08:03:47Z</time>
      </trkpt>
      <trkpt lat="44.93042" lon="1.69228">
        <ele>171.5</ele>
        <time>2022-05-24T08:03:48Z</time>
      </trkpt>
      <trkpt lat="44.93042" lon="1.6923">
        <ele>171.9</ele>
        <time>2022-05-24T08:03:49Z</time>
      </trkpt>
      <trkpt lat="44.93042" lon="1.69233">
        <ele>172.2</ele>
        <time>2022-05-24T08:03:50Z</time>
      </trkpt>
      <trkpt lat="44.93042" lon="1.69235">
        <ele>172.6</ele>
        <time>2022-05-24T08:03:51Z</time>
      </trkpt>
      <trkpt lat="44.93042" lon="1.69237">
        <ele>172.9</ele>
        <time>2022-05-24T08:03:52Z</time>
      </trkpt>
      <trkpt lat="44.93042" lon="1.69239">
        <ele>173.2</ele>
        <time>2022-05-24T08:03:53Z</time>
      </trkpt>
      <trkpt lat="44.93041" lon="1.69243">
        <ele>173.8</ele>
        <time>2022-05-24T08:03:54Z</time>
      </trkpt>
      <trkpt lat="44.93041" lon="1.69244">
        <ele>174</ele>
        <time>2022-05-24T08:03:55Z</time>
      </trkpt>
      <trkpt lat="44.9304" lon="1.69245">
        <ele>174.2</ele>
        <time>2022-05-24T08:03:56Z</time>
      </trkpt>
      <trkpt lat="44.9304" lon="1.69247">
        <ele>174.5</ele>
        <time>2022-05-24T08:03:57Z</time>
      </trkpt>
      <trkpt lat="44.93039" lon="1.69249">
        <ele>174.8</ele>
        <time>2022-05-24T08:03:58Z</time>
      </trkpt>
      <trkpt lat="44.93039" lon="1.69252">
        <ele>175.3</ele>
        <time>2022-05-24T08:03:59Z</time>
      </trkpt>
      <trkpt lat="44.93039" lon="1.69253">
        <ele>175.5</ele>
        <time>2022-05-24T08:04:00Z</time>
      </trkpt>
      <trkpt lat="44.93038" lon="1.69254">
        <ele>175.7</ele>
        <time>2022-05-24T08:04:01Z</time>
      </trkpt>
      <trkpt lat="44.93038" lon="1.69256">
        <ele>176</ele>
        <time>2022-05-24T08:04:02Z</time>
      </trkpt>
      <trkpt lat="44.93038" lon="1.69258">
        <ele>176.3</ele>
        <time>2022-05-24T08:04:03Z</time>
      </trkpt>
      <trkpt lat="44.93038" lon="1.6926">
        <ele>176.5</ele>
        <time>2022-05-24T08:04:04Z</time>
      </trkpt>
      <trkpt lat="44.93038" lon="1.69261">
        <ele>176.7</ele>
        <time>2022-05-24T08:04:05Z</time>
      </trkpt>
      <trkpt lat="44.93039" lon="1.69263">
        <ele>177</ele>
        <time>2022-05-24T08:04:06Z</time>
      </trkpt>
      <trkpt lat="44.93039" lon="1.69265">
        <ele>177.3</ele>
        <time>2022-05-24T08:04:07Z</time>
      </trkpt>
      <trkpt lat="44.9304" lon="1.69267">
        <ele>177.7</ele>
        <time>2022-05-24T08:04:08Z</time>
      </trkpt>
      <trkpt lat="44.9304" lon="1.69269">
        <ele>178</ele>
        <time>2022-05-24T08:04:09Z</time>
      </trkpt>
      <trkpt lat="44.93041" lon="1.6927">
        <ele>178.3</ele>
        <time>2022-05-24T08:04:10Z</time>
      </trkpt>
      <trkpt lat="44.93042" lon="1.69272">
        <ele>178.6</ele>
        <time>2022-05-24T08:04:11Z</time>
      </trkpt>
      <trkpt lat="44.93042" lon="1.69274">
        <ele>178.8</ele>
        <time>2022-05-24T08:04:12Z</time>
      </trkpt>
      <trkpt lat="44.93043" lon="1.69276">
        <ele>179</ele>
        <time>2022-05-24T08:04:13Z</time>
      </trkpt>
      <trkpt lat="44.93044" lon="1.69277">
        <ele>179.3</ele>
        <time>2022-05-24T08:04:14Z</time>
      </trkpt>
      <trkpt lat="44.93044" lon="1.69279">
        <ele>179.6</ele>
        <time>2022-05-24T08:04:15Z</time>
      </trkpt>
      <trkpt lat="44.93045" lon="1.69281">
        <ele>179.8</ele>
        <time>2022-05-24T08:04:16Z</time>
      </trkpt>
      <trkpt lat="44.93046" lon="1.69283">
        <ele>180.1</ele>
        <time>2022-05-24T08:04:17Z</time>
      </trkpt>
      <trkpt lat="44.93046" lon="1.69285">
        <ele>180.3</ele>
        <time>2022-05-24T08:04:18Z</time>
      </trkpt>
      <trkpt lat="44.93047" lon="1.69287">
        <ele>180.5</ele>
        <time>2022-05-24T08:04:19Z</time>
      </trkpt>
      <trkpt lat="44.93047" lon="1.69289">
        <ele>180.7</ele>
        <time>2022-05-24T08:04:20Z</time>
      </trkpt>
      <trkpt lat="44.93048" lon="1.6929">
        <ele>180.9</ele>
        <time>2022-05-24T08:04:21Z</time>
      </trkpt>
      <trkpt lat="44.93048" lon="1.69292">
        <ele>181.1</ele>
        <time>2022-05-24T08:04:22Z</time>
      </trkpt>
      <trkpt lat="44.93049" lon="1.69295">
        <ele>181.5</ele>
        <time>2022-05-24T08:04:23Z</time>
      </trkpt>
      <trkpt lat="44.93049" lon="1.69296">
        <ele>181.6</ele>
        <time>2022-05-24T08:04:24Z</time>
      </trkpt>
      <trkpt lat="44.9305" lon="1.69297">
        <ele>181.8</ele>
        <time>2022-05-24T08:04:25Z</time>
      </trkpt>
      <trkpt lat="44.9305" lon="1.69299">
        <ele>182</ele>
        <time>2022-05-24T08:04:26Z</time>
      </trkpt>
      <trkpt lat="44.93051" lon="1.69301">
        <ele>182.2</ele>
        <time>2022-05-24T08:04:27Z</time>
      </trkpt>
      <trkpt lat="44.93051" lon="1.69303">
        <ele>182.5</ele>
        <time>2022-05-24T08:04:28Z</time>
      </trkpt>
      <trkpt lat="44.93052" lon="1.69305">
        <ele>182.7</ele>
        <time>2022-05-24T08:04:29Z</time>
      </trkpt>
      <trkpt lat="44.93052" lon="1.69307">
        <ele>182.9</ele>
        <time>2022-05-24T08:04:30Z</time>
      </trkpt>
      <trkpt lat="44.93053" lon="1.69308">
        <ele>183.2</ele>
        <time>2022-05-24T08:04:31Z</time>
      </trkpt>
      <trkpt lat="44.93054" lon="1.6931">
        <ele>183.4</ele>
        <time>2022-05-24T08:04:32Z</time>
      </trkpt>
      <trkpt lat="44.93055" lon="1.69313">
        <ele>183.9</ele>
        <time>2022-05-24T08:04:34Z</time>
      </trkpt>
      <trkpt lat="44.93055" lon="1.69315">
        <ele>184.1</ele>
        <time>2022-05-24T08:04:35Z</time>
      </trkpt>
      <trkpt lat="44.93056" lon="1.69317">
        <ele>184.4</ele>
        <time>2022-05-24T08:04:36Z</time>
      </trkpt>
      <trkpt lat="44.93056" lon="1.69319">
        <ele>184.6</ele>
        <time>2022-05-24T08:04:37Z</time>
      </trkpt>
      <trkpt lat="44.93057" lon="1.69321">
        <ele>184.9</ele>
        <time>2022-05-24T08:04:38Z</time>
      </trkpt>
      <trkpt lat="44.93057" lon="1.69323">
        <ele>185.2</ele>
        <time>2022-05-24T08:04:39Z</time>
      </trkpt>
      <trkpt lat="44.93058" lon="1.69325">
        <ele>185.6</ele>
        <time>2022-05-24T08:04:40Z</time>
      </trkpt>
      <trkpt lat="44.93058" lon="1.69328">
        <ele>185.9</ele>
        <time>2022-05-24T08:04:41Z</time>
      </trkpt>
      <trkpt lat="44.93058" lon="1.6933">
        <ele>186.2</ele>
        <time>2022-05-24T08:04:42Z</time>
      </trkpt>
      <trkpt lat="44.93059" lon="1.69334">
        <ele>186.9</ele>
        <time>2022-05-24T08:04:43Z</time>
      </trkpt>
      <trkpt lat="44.93059" lon="1.69335">
        <ele>187.1</ele>
        <time>2022-05-24T08:04:44Z</time>
      </trkpt>
      <trkpt lat="44.9306" lon="1.69339">
        <ele>187.8</ele>
        <time>2022-05-24T08:04:45Z</time>
      </trkpt>
      <trkpt lat="44.9306" lon="1.6934">
        <ele>188</ele>
        <time>2022-05-24T08:04:46Z</time>
      </trkpt>
      <trkpt lat="44.93061" lon="1.69344">
        <ele>188.6</ele>
        <time>2022-05-24T08:04:47Z</time>
      </trkpt>
      <trkpt lat="44.93062" lon="1.69345">
        <ele>188.8</ele>
        <time>2022-05-24T08:04:48Z</time>
      </trkpt>
      <trkpt lat="44.93063" lon="1.69349">
        <ele>189.4</ele>
        <time>2022-05-24T08:04:49Z</time>
      </trkpt>
      <trkpt lat="44.93063" lon="1.69351">
        <ele>189.6</ele>
        <time>2022-05-24T08:04:50Z</time>
      </trkpt>
      <trkpt lat="44.93064" lon="1.69355">
        <ele>190.2</ele>
        <time>2022-05-24T08:04:51Z</time>
      </trkpt>
      <trkpt lat="44.93065" lon="1.69356">
        <ele>190.4</ele>
        <time>2022-05-24T08:04:52Z</time>
      </trkpt>
      <trkpt lat="44.93066" lon="1.6936">
        <ele>190.9</ele>
        <time>2022-05-24T08:04:53Z</time>
      </trkpt>
      <trkpt lat="44.93066" lon="1.69362">
        <ele>191.1</ele>
        <time>2022-05-24T08:04:54Z</time>
      </trkpt>
      <trkpt lat="44.93067" lon="1.69366">
        <ele>191.5</ele>
        <time>2022-05-24T08:04:55Z</time>
      </trkpt>
      <trkpt lat="44.93067" lon="1.69367">
        <ele>191.6</ele>
        <time>2022-05-24T08:04:56Z</time>
      </trkpt>
      <trkpt lat="44.93069" lon="1.6937">
        <ele>192</ele>
        <time>2022-05-24T08:04:57Z</time>
      </trkpt>
      <trkpt lat="44.93069" lon="1.69371">
        <ele>192.1</ele>
        <time>2022-05-24T08:04:58Z</time>
      </trkpt>
      <trkpt lat="44.93071" lon="1.69375">
        <ele>192.6</ele>
        <time>2022-05-24T08:04:59Z</time>
      </trkpt>
      <trkpt lat="44.93071" lon="1.69377">
        <ele>192.7</ele>
        <time>2022-05-24T08:05:00Z</time>
      </trkpt>
      <trkpt lat="44.93072" lon="1.69381">
        <ele>193.2</ele>
        <time>2022-05-24T08:05:01Z</time>
      </trkpt>
      <trkpt lat="44.93073" lon="1.69383">
        <ele>193.3</ele>
        <time>2022-05-24T08:05:02Z</time>
      </trkpt>
      <trkpt lat="44.93073" lon="1.69387">
        <ele>193.7</ele>
        <time>2022-05-24T08:05:03Z</time>
      </trkpt>
      <trkpt lat="44.93072" lon="1.69388">
        <ele>193.8</ele>
        <time>2022-05-24T08:05:04Z</time>
      </trkpt>
      <trkpt lat="44.93072" lon="1.6939">
        <ele>194</ele>
        <time>2022-05-24T08:05:05Z</time>
      </trkpt>
      <trkpt lat="44.93071" lon="1.69392">
        <ele>194.2</ele>
        <time>2022-05-24T08:05:06Z</time>
      </trkpt>
      <trkpt lat="44.93071" lon="1.69394">
        <ele>194.4</ele>
        <time>2022-05-24T08:05:07Z</time>
      </trkpt>
      <trkpt lat="44.9307" lon="1.69397">
        <ele>194.6</ele>
        <time>2022-05-24T08:05:08Z</time>
      </trkpt>
      <trkpt lat="44.9307" lon="1.69399">
        <ele>194.8</ele>
        <time>2022-05-24T08:05:09Z</time>
      </trkpt>
      <trkpt lat="44.9307" lon="1.69401">
        <ele>195</ele>
        <time>2022-05-24T08:05:10Z</time>
      </trkpt>
      <trkpt lat="44.9307" lon="1.69403">
        <ele>195.3</ele>
        <time>2022-05-24T08:05:11Z</time>
      </trkpt>
      <trkpt lat="44.9307" lon="1.69405">
        <ele>195.5</ele>
        <time>2022-05-24T08:05:12Z</time>
      </trkpt>
      <trkpt lat="44.93069" lon="1.69409">
        <ele>195.9</ele>
        <time>2022-05-24T08:05:13Z</time>
      </trkpt>
      <trkpt lat="44.93069" lon="1.69411">
        <ele>196</ele>
        <time>2022-05-24T08:05:14Z</time>
      </trkpt>
      <trkpt lat="44.9307" lon="1.69415">
        <ele>196.4</ele>
        <time>2022-05-24T08:05:15Z</time>
      </trkpt>
      <trkpt lat="44.9307" lon="1.69416">
        <ele>196.5</ele>
        <time>2022-05-24T08:05:16Z</time>
      </trkpt>
      <trkpt lat="44.9307" lon="1.69421">
        <ele>197.1</ele>
        <time>2022-05-24T08:05:17Z</time>
      </trkpt>
      <trkpt lat="44.9307" lon="1.69423">
        <ele>197.3</ele>
        <time>2022-05-24T08:05:18Z</time>
      </trkpt>
      <trkpt lat="44.93069" lon="1.69427">
        <ele>197.7</ele>
        <time>2022-05-24T08:05:19Z</time>
      </trkpt>
      <trkpt lat="44.93069" lon="1.69431">
        <ele>198.1</ele>
        <time>2022-05-24T08:05:20Z</time>
      </trkpt>
      <trkpt lat="44.93068" lon="1.69436">
        <ele>198.6</ele>
        <time>2022-05-24T08:05:21Z</time>
      </trkpt>
      <trkpt lat="44.93068" lon="1.69438">
        <ele>198.8</ele>
        <time>2022-05-24T08:05:22Z</time>
      </trkpt>
      <trkpt lat="44.93068" lon="1.69444">
        <ele>199.4</ele>
        <time>2022-05-24T08:05:23Z</time>
      </trkpt>
      <trkpt lat="44.93068" lon="1.69446">
        <ele>199.6</ele>
        <time>2022-05-24T08:05:24Z</time>
      </trkpt>
      <trkpt lat="44.93068" lon="1.6945">
        <ele>200</ele>
        <time>2022-05-24T08:05:25Z</time>
      </trkpt>
      <trkpt lat="44.93068" lon="1.69454">
        <ele>200.5</ele>
        <time>2022-05-24T08:05:26Z</time>
      </trkpt>
      <trkpt lat="44.93069" lon="1.69459">
        <ele>201.1</ele>
        <time>2022-05-24T08:05:27Z</time>
      </trkpt>
      <trkpt lat="44.9307" lon="1.69461">
        <ele>201.2</ele>
        <time>2022-05-24T08:05:28Z</time>
      </trkpt>
      <trkpt lat="44.93071" lon="1.69464">
        <ele>201.6</ele>
        <time>2022-05-24T08:05:29Z</time>
      </trkpt>
      <trkpt lat="44.93071" lon="1.69466">
        <ele>201.8</ele>
        <time>2022-05-24T08:05:30Z</time>
      </trkpt>
      <trkpt lat="44.93072" lon="1.6947">
        <ele>202.3</ele>
        <time>2022-05-24T08:05:31Z</time>
      </trkpt>
      <trkpt lat="44.93072" lon="1.69471">
        <ele>202.5</ele>
        <time>2022-05-24T08:05:32Z</time>
      </trkpt>
      <trkpt lat="44.93073" lon="1.69475">
        <ele>203.1</ele>
        <time>2022-05-24T08:05:33Z</time>
      </trkpt>
      <trkpt lat="44.93073" lon="1.69477">
        <ele>203.3</ele>
        <time>2022-05-24T08:05:34Z</time>
      </trkpt>
      <trkpt lat="44.93073" lon="1.69479">
        <ele>203.6</ele>
        <time>2022-05-24T08:05:35Z</time>
      </trkpt>
      <trkpt lat="44.93073" lon="1.69481">
        <ele>203.8</ele>
        <time>2022-05-24T08:05:36Z</time>
      </trkpt>
      <trkpt lat="44.93074" lon="1.69486">
        <ele>204.4</ele>
        <time>2022-05-24T08:05:37Z</time>
      </trkpt>
      <trkpt lat="44.93074" lon="1.69487">
        <ele>204.6</ele>
        <time>2022-05-24T08:05:38Z</time>
      </trkpt>
      <trkpt lat="44.93075" lon="1.69492">
        <ele>205.3</ele>
        <time>2022-05-24T08:05:40Z</time>
      </trkpt>
      <trkpt lat="44.93075" lon="1.69496">
        <ele>205.8</ele>
        <time>2022-05-24T08:05:41Z</time>
      </trkpt>
      <trkpt lat="44.93075" lon="1.69497">
        <ele>206</ele>
        <time>2022-05-24T08:05:42Z</time>
      </trkpt>
      <trkpt lat="44.93076" lon="1.69501">
        <ele>206.6</ele>
        <time>2022-05-24T08:05:43Z</time>
      </trkpt>
      <trkpt lat="44.93077" lon="1.69502">
        <ele>206.7</ele>
        <time>2022-05-24T08:05:44Z</time>
      </trkpt>
      <trkpt lat="44.93077" lon="1.69504">
        <ele>207</ele>
        <time>2022-05-24T08:05:45Z</time>
      </trkpt>
      <trkpt lat="44.93078" lon="1.69506">
        <ele>207.4</ele>
        <time>2022-05-24T08:05:46Z</time>
      </trkpt>
      <trkpt lat="44.93078" lon="1.69508">
        <ele>207.7</ele>
        <time>2022-05-24T08:05:47Z</time>
      </trkpt>
      <trkpt lat="44.93078" lon="1.6951">
        <ele>208</ele>
        <time>2022-05-24T08:05:48Z</time>
      </trkpt>
      <trkpt lat="44.93079" lon="1.69513">
        <ele>208.5</ele>
        <time>2022-05-24T08:05:49Z</time>
      </trkpt>
      <trkpt lat="44.9308" lon="1.69514">
        <ele>208.7</ele>
        <time>2022-05-24T08:05:50Z</time>
      </trkpt>
      <trkpt lat="44.9308" lon="1.69515">
        <ele>208.9</ele>
        <time>2022-05-24T08:05:51Z</time>
      </trkpt>
      <trkpt lat="44.93081" lon="1.69518">
        <ele>209.3</ele>
        <time>2022-05-24T08:05:52Z</time>
      </trkpt>
      <trkpt lat="44.93081" lon="1.69519">
        <ele>209.5</ele>
        <time>2022-05-24T08:05:53Z</time>
      </trkpt>
      <trkpt lat="44.93082" lon="1.6952">
        <ele>209.7</ele>
        <time>2022-05-24T08:05:54Z</time>
      </trkpt>
      <trkpt lat="44.93082" lon="1.69522">
        <ele>210</ele>
        <time>2022-05-24T08:05:55Z</time>
      </trkpt>
      <trkpt lat="44.93082" lon="1.69524">
        <ele>210.3</ele>
        <time>2022-05-24T08:05:56Z</time>
      </trkpt>
      <trkpt lat="44.93082" lon="1.69527">
        <ele>210.6</ele>
        <time>2022-05-24T08:05:57Z</time>
      </trkpt>
      <trkpt lat="44.93082" lon="1.69529">
        <ele>211</ele>
        <time>2022-05-24T08:05:58Z</time>
      </trkpt>
      <trkpt lat="44.93082" lon="1.69531">
        <ele>211.2</ele>
        <time>2022-05-24T08:05:59Z</time>
      </trkpt>
      <trkpt lat="44.93081" lon="1.69533">
        <ele>211.6</ele>
        <time>2022-05-24T08:06:00Z</time>
      </trkpt>
      <trkpt lat="44.93081" lon="1.69535">
        <ele>211.9</ele>
        <time>2022-05-24T08:06:01Z</time>
      </trkpt>
      <trkpt lat="44.93081" lon="1.69537">
        <ele>212.2</ele>
        <time>2022-05-24T08:06:02Z</time>
      </trkpt>
      <trkpt lat="44.93081" lon="1.6954">
        <ele>212.5</ele>
        <time>2022-05-24T08:06:03Z</time>
      </trkpt>
      <trkpt lat="44.93081" lon="1.69542">
        <ele>212.9</ele>
        <time>2022-05-24T08:06:04Z</time>
      </trkpt>
      <trkpt lat="44.93081" lon="1.69544">
        <ele>213.2</ele>
        <time>2022-05-24T08:06:05Z</time>
      </trkpt>
      <trkpt lat="44.9308" lon="1.69546">
        <ele>213.6</ele>
        <time>2022-05-24T08:06:06Z</time>
      </trkpt>
      <trkpt lat="44.9308" lon="1.6955">
        <ele>214.2</ele>
        <time>2022-05-24T08:06:07Z</time>
      </trkpt>
      <trkpt lat="44.9308" lon="1.69552">
        <ele>214.4</ele>
        <time>2022-05-24T08:06:08Z</time>
      </trkpt>
      <trkpt lat="44.93079" lon="1.69556">
        <ele>215</ele>
        <time>2022-05-24T08:06:09Z</time>
      </trkpt>
      <trkpt lat="44.93079" lon="1.69557">
        <ele>215.2</ele>
        <time>2022-05-24T08:06:10Z</time>
      </trkpt>
      <trkpt lat="44.93078" lon="1.69561">
        <ele>214.9</ele>
        <time>2022-05-24T08:06:11Z</time>
      </trkpt>
      <trkpt lat="44.93078" lon="1.69562">
        <ele>214.8</ele>
        <time>2022-05-24T08:06:12Z</time>
      </trkpt>
      <trkpt lat="44.93077" lon="1.69566">
        <ele>214.3</ele>
        <time>2022-05-24T08:06:13Z</time>
      </trkpt>
      <trkpt lat="44.93077" lon="1.69567">
        <ele>214.2</ele>
        <time>2022-05-24T08:06:14Z</time>
      </trkpt>
      <trkpt lat="44.93076" lon="1.69571">
        <ele>213.7</ele>
        <time>2022-05-24T08:06:15Z</time>
      </trkpt>
      <trkpt lat="44.93076" lon="1.69572">
        <ele>213.6</ele>
        <time>2022-05-24T08:06:16Z</time>
      </trkpt>
      <trkpt lat="44.93074" lon="1.69576">
        <ele>213.1</ele>
        <time>2022-05-24T08:06:17Z</time>
      </trkpt>
      <trkpt lat="44.93073" lon="1.69577">
        <ele>213</ele>
        <time>2022-05-24T08:06:18Z</time>
      </trkpt>
      <trkpt lat="44.93071" lon="1.69581">
        <ele>212.6</ele>
        <time>2022-05-24T08:06:19Z</time>
      </trkpt>
      <trkpt lat="44.93071" lon="1.69582">
        <ele>212.5</ele>
        <time>2022-05-24T08:06:20Z</time>
      </trkpt>
      <trkpt lat="44.93071" lon="1.69585">
        <ele>212.3</ele>
        <time>2022-05-24T08:06:21Z</time>
      </trkpt>
      <trkpt lat="44.93071" lon="1.69586">
        <ele>212.2</ele>
        <time>2022-05-24T08:06:22Z</time>
      </trkpt>
      <trkpt lat="44.93071" lon="1.69587">
        <ele>212.1</ele>
        <time>2022-05-24T08:06:23Z</time>
      </trkpt>
      <trkpt lat="44.93071" lon="1.69589">
        <ele>212</ele>
        <time>2022-05-24T08:06:24Z</time>
      </trkpt>
      <trkpt lat="44.9307" lon="1.69591">
        <ele>211.9</ele>
        <time>2022-05-24T08:06:25Z</time>
      </trkpt>
      <trkpt lat="44.93069" lon="1.69594">
        <ele>211.7</ele>
        <time>2022-05-24T08:06:26Z</time>
      </trkpt>
      <trkpt lat="44.93069" lon="1.69596">
        <ele>211.6</ele>
        <time>2022-05-24T08:06:27Z</time>
      </trkpt>
      <trkpt lat="44.93068" lon="1.69598">
        <ele>211.5</ele>
        <time>2022-05-24T08:06:28Z</time>
      </trkpt>
      <trkpt lat="44.93068" lon="1.69601">
        <ele>211.4</ele>
        <time>2022-05-24T08:06:29Z</time>
      </trkpt>
      <trkpt lat="44.93068" lon="1.69603">
        <ele>211.3</ele>
        <time>2022-05-24T08:06:30Z</time>
      </trkpt>
      <trkpt lat="44.93068" lon="1.69606">
        <ele>211.3</ele>
        <time>2022-05-24T08:06:31Z</time>
      </trkpt>
      <trkpt lat="44.93069" lon="1.69608">
        <ele>211.2</ele>
        <time>2022-05-24T08:06:32Z</time>
      </trkpt>
      <trkpt lat="44.93069" lon="1.6961">
        <ele>211.2</ele>
        <time>2022-05-24T08:06:33Z</time>
      </trkpt>
      <trkpt lat="44.9307" lon="1.69614">
        <ele>211.2</ele>
        <time>2022-05-24T08:06:34Z</time>
      </trkpt>
      <trkpt lat="44.9307" lon="1.69616">
        <ele>211.2</ele>
        <time>2022-05-24T08:06:35Z</time>
      </trkpt>
      <trkpt lat="44.93071" lon="1.69621">
        <ele>211.2</ele>
        <time>2022-05-24T08:06:36Z</time>
      </trkpt>
      <trkpt lat="44.93071" lon="1.69622">
        <ele>211.2</ele>
        <time>2022-05-24T08:06:37Z</time>
      </trkpt>
      <trkpt lat="44.9307" lon="1.69627">
        <ele>211.2</ele>
        <time>2022-05-24T08:06:38Z</time>
      </trkpt>
      <trkpt lat="44.9307" lon="1.69629">
        <ele>211.3</ele>
        <time>2022-05-24T08:06:39Z</time>
      </trkpt>
      <trkpt lat="44.9307" lon="1.69635">
        <ele>211.4</ele>
        <time>2022-05-24T08:06:40Z</time>
      </trkpt>
      <trkpt lat="44.93069" lon="1.69637">
        <ele>211.4</ele>
        <time>2022-05-24T08:06:41Z</time>
      </trkpt>
      <trkpt lat="44.93069" lon="1.69641">
        <ele>211.5</ele>
        <time>2022-05-24T08:06:42Z</time>
      </trkpt>
      <trkpt lat="44.93069" lon="1.69645">
        <ele>211.6</ele>
        <time>2022-05-24T08:06:43Z</time>
      </trkpt>
      <trkpt lat="44.93069" lon="1.69649">
        <ele>211.7</ele>
        <time>2022-05-24T08:06:44Z</time>
      </trkpt>
      <trkpt lat="44.93069" lon="1.69653">
        <ele>211.8</ele>
        <time>2022-05-24T08:06:45Z</time>
      </trkpt>
      <trkpt lat="44.93068" lon="1.69658">
        <ele>211.9</ele>
        <time>2022-05-24T08:06:46Z</time>
      </trkpt>
      <trkpt lat="44.93068" lon="1.69661">
        <ele>211.9</ele>
        <time>2022-05-24T08:06:47Z</time>
      </trkpt>
      <trkpt lat="44.93068" lon="1.69665">
        <ele>212</ele>
        <time>2022-05-24T08:06:48Z</time>
      </trkpt>
      <trkpt lat="44.93068" lon="1.6967">
        <ele>212.1</ele>
        <time>2022-05-24T08:06:49Z</time>
      </trkpt>
      <trkpt lat="44.93069" lon="1.69675">
        <ele>212.2</ele>
        <time>2022-05-24T08:06:50Z</time>
      </trkpt>
      <trkpt lat="44.93069" lon="1.69681">
        <ele>212.2</ele>
        <time>2022-05-24T08:06:51Z</time>
      </trkpt>
      <trkpt lat="44.93069" lon="1.69686">
        <ele>212.3</ele>
        <time>2022-05-24T08:06:52Z</time>
      </trkpt>
      <trkpt lat="44.93069" lon="1.69691">
        <ele>212.3</ele>
        <time>2022-05-24T08:06:53Z</time>
      </trkpt>
      <trkpt lat="44.93069" lon="1.69695">
        <ele>212.3</ele>
        <time>2022-05-24T08:06:54Z</time>
      </trkpt>
      <trkpt lat="44.93068" lon="1.697">
        <ele>212.4</ele>
        <time>2022-05-24T08:06:55Z</time>
      </trkpt>
      <trkpt lat="44.93068" lon="1.69704">
        <ele>212.4</ele>
        <time>2022-05-24T08:06:56Z</time>
      </trkpt>
      <trkpt lat="44.93068" lon="1.6971">
        <ele>212.3</ele>
        <time>2022-05-24T08:06:57Z</time>
      </trkpt>
      <trkpt lat="44.93068" lon="1.69716">
        <ele>212.3</ele>
        <time>2022-05-24T08:06:58Z</time>
      </trkpt>
      <trkpt lat="44.93068" lon="1.69721">
        <ele>212.2</ele>
        <time>2022-05-24T08:06:59Z</time>
      </trkpt>
      <trkpt lat="44.93068" lon="1.69728">
        <ele>212.1</ele>
        <time>2022-05-24T08:07:00Z</time>
      </trkpt>
      <trkpt lat="44.93066" lon="1.69736">
        <ele>211.9</ele>
        <time>2022-05-24T08:07:01Z</time>
      </trkpt>
      <trkpt lat="44.93067" lon="1.69743">
        <ele>211.7</ele>
        <time>2022-05-24T08:07:02Z</time>
      </trkpt>
      <trkpt lat="44.93066" lon="1.69751">
        <ele>211.5</ele>
        <time>2022-05-24T08:07:03Z</time>
      </trkpt>
      <trkpt lat="44.93064" lon="1.69761">
        <ele>211.3</ele>
        <time>2022-05-24T08:07:04Z</time>
      </trkpt>
      <trkpt lat="44.93063" lon="1.69769">
        <ele>211.1</ele>
        <time>2022-05-24T08:07:05Z</time>
      </trkpt>
      <trkpt lat="44.93062" lon="1.69775">
        <ele>210.9</ele>
        <time>2022-05-24T08:07:06Z</time>
      </trkpt>
      <trkpt lat="44.93062" lon="1.69783">
        <ele>210.7</ele>
        <time>2022-05-24T08:07:07Z</time>
      </trkpt>
      <trkpt lat="44.93063" lon="1.6979">
        <ele>210.5</ele>
        <time>2022-05-24T08:07:08Z</time>
      </trkpt>
      <trkpt lat="44.93063" lon="1.69797">
        <ele>210.3</ele>
        <time>2022-05-24T08:07:09Z</time>
      </trkpt>
      <trkpt lat="44.93062" lon="1.69803">
        <ele>210.1</ele>
        <time>2022-05-24T08:07:10Z</time>
      </trkpt>
      <trkpt lat="44.93063" lon="1.6981">
        <ele>209.9</ele>
        <time>2022-05-24T08:07:11Z</time>
      </trkpt>
      <trkpt lat="44.93065" lon="1.69817">
        <ele>209.6</ele>
        <time>2022-05-24T08:07:12Z</time>
      </trkpt>
      <trkpt lat="44.93066" lon="1.69825">
        <ele>209.1</ele>
        <time>2022-05-24T08:07:13Z</time>
      </trkpt>
      <trkpt lat="44.93069" lon="1.69833">
        <ele>208.6</ele>
        <time>2022-05-24T08:07:14Z</time>
      </trkpt>
      <trkpt lat="44.9307" lon="1.69842">
        <ele>208</ele>
        <time>2022-05-24T08:07:15Z</time>
      </trkpt>
      <trkpt lat="44.93072" lon="1.69851">
        <ele>207.3</ele>
        <time>2022-05-24T08:07:16Z</time>
      </trkpt>
      <trkpt lat="44.93072" lon="1.6986">
        <ele>206.6</ele>
        <time>2022-05-24T08:07:17Z</time>
      </trkpt>
      <trkpt lat="44.93073" lon="1.6987">
        <ele>206</ele>
        <time>2022-05-24T08:07:18Z</time>
      </trkpt>
      <trkpt lat="44.93073" lon="1.69879">
        <ele>205.3</ele>
        <time>2022-05-24T08:07:19Z</time>
      </trkpt>
      <trkpt lat="44.93072" lon="1.6989">
        <ele>204.5</ele>
        <time>2022-05-24T08:07:20Z</time>
      </trkpt>
      <trkpt lat="44.93072" lon="1.699">
        <ele>203.8</ele>
        <time>2022-05-24T08:07:21Z</time>
      </trkpt>
      <trkpt lat="44.93071" lon="1.69911">
        <ele>203.2</ele>
        <time>2022-05-24T08:07:22Z</time>
      </trkpt>
      <trkpt lat="44.93071" lon="1.69921">
        <ele>202.7</ele>
        <time>2022-05-24T08:07:23Z</time>
      </trkpt>
      <trkpt lat="44.93071" lon="1.69931">
        <ele>202.4</ele>
        <time>2022-05-24T08:07:24Z</time>
      </trkpt>
      <trkpt lat="44.93072" lon="1.69942">
        <ele>202.1</ele>
        <time>2022-05-24T08:07:25Z</time>
      </trkpt>
      <trkpt lat="44.93072" lon="1.69951">
        <ele>202</ele>
        <time>2022-05-24T08:07:26Z</time>
      </trkpt>
      <trkpt lat="44.93072" lon="1.69959">
        <ele>202</ele>
        <time>2022-05-24T08:07:27Z</time>
      </trkpt>
      <trkpt lat="44.93071" lon="1.69967">
        <ele>202</ele>
        <time>2022-05-24T08:07:28Z</time>
      </trkpt>
      <trkpt lat="44.93071" lon="1.69974">
        <ele>202</ele>
        <time>2022-05-24T08:07:29Z</time>
      </trkpt>
      <trkpt lat="44.93072" lon="1.69981">
        <ele>202</ele>
        <time>2022-05-24T08:07:30Z</time>
      </trkpt>
      <trkpt lat="44.93072" lon="1.69987">
        <ele>202</ele>
        <time>2022-05-24T08:07:31Z</time>
      </trkpt>
      <trkpt lat="44.93074" lon="1.69994">
        <ele>202.1</ele>
        <time>2022-05-24T08:07:32Z</time>
      </trkpt>
      <trkpt lat="44.93075" lon="1.70001">
        <ele>202.1</ele>
        <time>2022-05-24T08:07:33Z</time>
      </trkpt>
      <trkpt lat="44.93077" lon="1.70008">
        <ele>202.2</ele>
        <time>2022-05-24T08:07:34Z</time>
      </trkpt>
      <trkpt lat="44.93078" lon="1.70016">
        <ele>202.3</ele>
        <time>2022-05-24T08:07:35Z</time>
      </trkpt>
      <trkpt lat="44.93079" lon="1.70023">
        <ele>202.4</ele>
        <time>2022-05-24T08:07:36Z</time>
      </trkpt>
      <trkpt lat="44.93082" lon="1.7003">
        <ele>202.5</ele>
        <time>2022-05-24T08:07:37Z</time>
      </trkpt>
      <trkpt lat="44.93083" lon="1.70035">
        <ele>202.6</ele>
        <time>2022-05-24T08:07:38Z</time>
      </trkpt>
      <trkpt lat="44.93085" lon="1.70039">
        <ele>202.8</ele>
        <time>2022-05-24T08:07:39Z</time>
      </trkpt>
      <trkpt lat="44.93086" lon="1.70044">
        <ele>202.9</ele>
        <time>2022-05-24T08:07:40Z</time>
      </trkpt>
      <trkpt lat="44.93087" lon="1.7005">
        <ele>203.1</ele>
        <time>2022-05-24T08:07:41Z</time>
      </trkpt>
      <trkpt lat="44.93089" lon="1.70055">
        <ele>203.4</ele>
        <time>2022-05-24T08:07:42Z</time>
      </trkpt>
      <trkpt lat="44.93091" lon="1.7006">
        <ele>203.6</ele>
        <time>2022-05-24T08:07:43Z</time>
      </trkpt>
      <trkpt lat="44.93092" lon="1.70065">
        <ele>203.8</ele>
        <time>2022-05-24T08:07:44Z</time>
      </trkpt>
      <trkpt lat="44.93093" lon="1.70071">
        <ele>204.1</ele>
        <time>2022-05-24T08:07:45Z</time>
      </trkpt>
      <trkpt lat="44.93095" lon="1.70078">
        <ele>204.4</ele>
        <time>2022-05-24T08:07:46Z</time>
      </trkpt>
      <trkpt lat="44.93097" lon="1.70084">
        <ele>204.7</ele>
        <time>2022-05-24T08:07:47Z</time>
      </trkpt>
      <trkpt lat="44.931" lon="1.70092">
        <ele>205</ele>
        <time>2022-05-24T08:07:48Z</time>
      </trkpt>
      <trkpt lat="44.93102" lon="1.70098">
        <ele>205.3</ele>
        <time>2022-05-24T08:07:49Z</time>
      </trkpt>
      <trkpt lat="44.93105" lon="1.70103">
        <ele>205.5</ele>
        <time>2022-05-24T08:07:50Z</time>
      </trkpt>
      <trkpt lat="44.93107" lon="1.70108">
        <ele>205.7</ele>
        <time>2022-05-24T08:07:51Z</time>
      </trkpt>
      <trkpt lat="44.93109" lon="1.70113">
        <ele>206</ele>
        <time>2022-05-24T08:07:52Z</time>
      </trkpt>
      <trkpt lat="44.93109" lon="1.70119">
        <ele>206.2</ele>
        <time>2022-05-24T08:07:53Z</time>
      </trkpt>
      <trkpt lat="44.93111" lon="1.70127">
        <ele>206.5</ele>
        <time>2022-05-24T08:07:54Z</time>
      </trkpt>
      <trkpt lat="44.93113" lon="1.70131">
        <ele>206.8</ele>
        <time>2022-05-24T08:07:55Z</time>
      </trkpt>
      <trkpt lat="44.93113" lon="1.7014">
        <ele>207.2</ele>
        <time>2022-05-24T08:07:56Z</time>
      </trkpt>
      <trkpt lat="44.93114" lon="1.70146">
        <ele>207.6</ele>
        <time>2022-05-24T08:07:57Z</time>
      </trkpt>
      <trkpt lat="44.93114" lon="1.70152">
        <ele>208</ele>
        <time>2022-05-24T08:07:58Z</time>
      </trkpt>
      <trkpt lat="44.93115" lon="1.70157">
        <ele>208.3</ele>
        <time>2022-05-24T08:07:59Z</time>
      </trkpt>
      <trkpt lat="44.93116" lon="1.70161">
        <ele>208.6</ele>
        <time>2022-05-24T08:08:00Z</time>
      </trkpt>
      <trkpt lat="44.93116" lon="1.70165">
        <ele>208.8</ele>
        <time>2022-05-24T08:08:01Z</time>
      </trkpt>
      <trkpt lat="44.93116" lon="1.70169">
        <ele>209.1</ele>
        <time>2022-05-24T08:08:02Z</time>
      </trkpt>
      <trkpt lat="44.93115" lon="1.70173">
        <ele>209.4</ele>
        <time>2022-05-24T08:08:03Z</time>
      </trkpt>
      <trkpt lat="44.93116" lon="1.70178">
        <ele>209.7</ele>
        <time>2022-05-24T08:08:04Z</time>
      </trkpt>
      <trkpt lat="44.93117" lon="1.70182">
        <ele>210</ele>
        <time>2022-05-24T08:08:05Z</time>
      </trkpt>
      <trkpt lat="44.93118" lon="1.70187">
        <ele>210.3</ele>
        <time>2022-05-24T08:08:06Z</time>
      </trkpt>
      <trkpt lat="44.93119" lon="1.70191">
        <ele>210.6</ele>
        <time>2022-05-24T08:08:07Z</time>
      </trkpt>
      <trkpt lat="44.9312" lon="1.70196">
        <ele>210.9</ele>
        <time>2022-05-24T08:08:08Z</time>
      </trkpt>
      <trkpt lat="44.93121" lon="1.70201">
        <ele>211.2</ele>
        <time>2022-05-24T08:08:09Z</time>
      </trkpt>
      <trkpt lat="44.93121" lon="1.70205">
        <ele>211.4</ele>
        <time>2022-05-24T08:08:10Z</time>
      </trkpt>
      <trkpt lat="44.93122" lon="1.7021">
        <ele>211.8</ele>
        <time>2022-05-24T08:08:11Z</time>
      </trkpt>
      <trkpt lat="44.93122" lon="1.70212">
        <ele>211.9</ele>
        <time>2022-05-24T08:08:12Z</time>
      </trkpt>
      <trkpt lat="44.93123" lon="1.70217">
        <ele>212.2</ele>
        <time>2022-05-24T08:08:13Z</time>
      </trkpt>
      <trkpt lat="44.93124" lon="1.70222">
        <ele>212.5</ele>
        <time>2022-05-24T08:08:14Z</time>
      </trkpt>
      <trkpt lat="44.93125" lon="1.70226">
        <ele>212.8</ele>
        <time>2022-05-24T08:08:15Z</time>
      </trkpt>
      <trkpt lat="44.93126" lon="1.7023">
        <ele>213.1</ele>
        <time>2022-05-24T08:08:16Z</time>
      </trkpt>
      <trkpt lat="44.93127" lon="1.70235">
        <ele>213.4</ele>
        <time>2022-05-24T08:08:17Z</time>
      </trkpt>
      <trkpt lat="44.93128" lon="1.70239">
        <ele>213.7</ele>
        <time>2022-05-24T08:08:18Z</time>
      </trkpt>
      <trkpt lat="44.93129" lon="1.70244">
        <ele>214.1</ele>
        <time>2022-05-24T08:08:19Z</time>
      </trkpt>
      <trkpt lat="44.93129" lon="1.70246">
        <ele>214.3</ele>
        <time>2022-05-24T08:08:20Z</time>
      </trkpt>
      <trkpt lat="44.9313" lon="1.70251">
        <ele>214.7</ele>
        <time>2022-05-24T08:08:21Z</time>
      </trkpt>
      <trkpt lat="44.9313" lon="1.70253">
        <ele>214.8</ele>
        <time>2022-05-24T08:08:22Z</time>
      </trkpt>
      <trkpt lat="44.93131" lon="1.70258">
        <ele>215.3</ele>
        <time>2022-05-24T08:08:23Z</time>
      </trkpt>
      <trkpt lat="44.93131" lon="1.7026">
        <ele>215.4</ele>
        <time>2022-05-24T08:08:24Z</time>
      </trkpt>
      <trkpt lat="44.93132" lon="1.70264">
        <ele>215.8</ele>
        <time>2022-05-24T08:08:25Z</time>
      </trkpt>
      <trkpt lat="44.93132" lon="1.70269">
        <ele>216.2</ele>
        <time>2022-05-24T08:08:26Z</time>
      </trkpt>
      <trkpt lat="44.93132" lon="1.70271">
        <ele>216.4</ele>
        <time>2022-05-24T08:08:27Z</time>
      </trkpt>
      <trkpt lat="44.93133" lon="1.70277">
        <ele>216.8</ele>
        <time>2022-05-24T08:08:28Z</time>
      </trkpt>
      <trkpt lat="44.93133" lon="1.70278">
        <ele>217</ele>
        <time>2022-05-24T08:08:29Z</time>
      </trkpt>
      <trkpt lat="44.93134" lon="1.70282">
        <ele>217.3</ele>
        <time>2022-05-24T08:08:30Z</time>
      </trkpt>
      <trkpt lat="44.93134" lon="1.70286">
        <ele>217.6</ele>
        <time>2022-05-24T08:08:31Z</time>
      </trkpt>
      <trkpt lat="44.93135" lon="1.7029">
        <ele>217.9</ele>
        <time>2022-05-24T08:08:32Z</time>
      </trkpt>
      <trkpt lat="44.93135" lon="1.70295">
        <ele>218.2</ele>
        <time>2022-05-24T08:08:33Z</time>
      </trkpt>
      <trkpt lat="44.93135" lon="1.70299">
        <ele>218.5</ele>
        <time>2022-05-24T08:08:34Z</time>
      </trkpt>
      <trkpt lat="44.93135" lon="1.70303">
        <ele>218.8</ele>
        <time>2022-05-24T08:08:35Z</time>
      </trkpt>
      <trkpt lat="44.93135" lon="1.70307">
        <ele>219.1</ele>
        <time>2022-05-24T08:08:36Z</time>
      </trkpt>
      <trkpt lat="44.93135" lon="1.70312">
        <ele>219.4</ele>
        <time>2022-05-24T08:08:37Z</time>
      </trkpt>
      <trkpt lat="44.93135" lon="1.70316">
        <ele>219.6</ele>
        <time>2022-05-24T08:08:38Z</time>
      </trkpt>
      <trkpt lat="44.93134" lon="1.70321">
        <ele>219.9</ele>
        <time>2022-05-24T08:08:39Z</time>
      </trkpt>
      <trkpt lat="44.93133" lon="1.70325">
        <ele>220.2</ele>
        <time>2022-05-24T08:08:40Z</time>
      </trkpt>
      <trkpt lat="44.93132" lon="1.7033">
        <ele>220.4</ele>
        <time>2022-05-24T08:08:41Z</time>
      </trkpt>
      <trkpt lat="44.9313" lon="1.70334">
        <ele>220.7</ele>
        <time>2022-05-24T08:08:42Z</time>
      </trkpt>
      <trkpt lat="44.93129" lon="1.70337">
        <ele>220.9</ele>
        <time>2022-05-24T08:08:43Z</time>
      </trkpt>
      <trkpt lat="44.93128" lon="1.70341">
        <ele>221.2</ele>
        <time>2022-05-24T08:08:44Z</time>
      </trkpt>
      <trkpt lat="44.93127" lon="1.70344">
        <ele>221.4</ele>
        <time>2022-05-24T08:08:45Z</time>
      </trkpt>
      <trkpt lat="44.93125" lon="1.70347">
        <ele>221.7</ele>
        <time>2022-05-24T08:08:46Z</time>
      </trkpt>
      <trkpt lat="44.93122" lon="1.70351">
        <ele>222</ele>
        <time>2022-05-24T08:08:47Z</time>
      </trkpt>
      <trkpt lat="44.93122" lon="1.70353">
        <ele>222.1</ele>
        <time>2022-05-24T08:08:48Z</time>
      </trkpt>
      <trkpt lat="44.93119" lon="1.70356">
        <ele>222.5</ele>
        <time>2022-05-24T08:08:49Z</time>
      </trkpt>
      <trkpt lat="44.93118" lon="1.70357">
        <ele>222.7</ele>
        <time>2022-05-24T08:08:50Z</time>
      </trkpt>
      <trkpt lat="44.93116" lon="1.70359">
        <ele>223</ele>
        <time>2022-05-24T08:08:51Z</time>
      </trkpt>
      <trkpt lat="44.93115" lon="1.7036">
        <ele>223.1</ele>
        <time>2022-05-24T08:08:52Z</time>
      </trkpt>
      <trkpt lat="44.93112" lon="1.70362">
        <ele>223.5</ele>
        <time>2022-05-24T08:08:53Z</time>
      </trkpt>
      <trkpt lat="44.93111" lon="1.70362">
        <ele>223.6</ele>
        <time>2022-05-24T08:08:54Z</time>
      </trkpt>
      <trkpt lat="44.93107" lon="1.70366">
        <ele>224.2</ele>
        <time>2022-05-24T08:08:56Z</time>
      </trkpt>
      <trkpt lat="44.93105" lon="1.70367">
        <ele>224.5</ele>
        <time>2022-05-24T08:08:57Z</time>
      </trkpt>
      <trkpt lat="44.93103" lon="1.7037">
        <ele>224.8</ele>
        <time>2022-05-24T08:08:58Z</time>
      </trkpt>
      <trkpt lat="44.93102" lon="1.7037">
        <ele>224.9</ele>
        <time>2022-05-24T08:08:59Z</time>
      </trkpt>
      <trkpt lat="44.93099" lon="1.70371">
        <ele>225.3</ele>
        <time>2022-05-24T08:09:00Z</time>
      </trkpt>
      <trkpt lat="44.93097" lon="1.70372">
        <ele>225.5</ele>
        <time>2022-05-24T08:09:01Z</time>
      </trkpt>
      <trkpt lat="44.93093" lon="1.70372">
        <ele>226</ele>
        <time>2022-05-24T08:09:02Z</time>
      </trkpt>
      <trkpt lat="44.93092" lon="1.70373">
        <ele>226.2</ele>
        <time>2022-05-24T08:09:03Z</time>
      </trkpt>
      <trkpt lat="44.93089" lon="1.70374">
        <ele>226.7</ele>
        <time>2022-05-24T08:09:04Z</time>
      </trkpt>
      <trkpt lat="44.93088" lon="1.70374">
        <ele>226.8</ele>
        <time>2022-05-24T08:09:05Z</time>
      </trkpt>
      <trkpt lat="44.93085" lon="1.70375">
        <ele>227.3</ele>
        <time>2022-05-24T08:09:06Z</time>
      </trkpt>
      <trkpt lat="44.93084" lon="1.70375">
        <ele>227.4</ele>
        <time>2022-05-24T08:09:07Z</time>
      </trkpt>
      <trkpt lat="44.93081" lon="1.70376">
        <ele>227.8</ele>
        <time>2022-05-24T08:09:08Z</time>
      </trkpt>
      <trkpt lat="44.9308" lon="1.70377">
        <ele>228</ele>
        <time>2022-05-24T08:09:09Z</time>
      </trkpt>
      <trkpt lat="44.93079" lon="1.70378">
        <ele>228.1</ele>
        <time>2022-05-24T08:09:10Z</time>
      </trkpt>
      <trkpt lat="44.93079" lon="1.70379">
        <ele>228.2</ele>
        <time>2022-05-24T08:09:11Z</time>
      </trkpt>
      <trkpt lat="44.93078" lon="1.7038">
        <ele>228.4</ele>
        <time>2022-05-24T08:09:12Z</time>
      </trkpt>
      <trkpt lat="44.93077" lon="1.70382">
        <ele>228.7</ele>
        <time>2022-05-24T08:09:13Z</time>
      </trkpt>
      <trkpt lat="44.93076" lon="1.70384">
        <ele>228.8</ele>
        <time>2022-05-24T08:09:14Z</time>
      </trkpt>
      <trkpt lat="44.93076" lon="1.70385">
        <ele>229</ele>
        <time>2022-05-24T08:09:15Z</time>
      </trkpt>
      <trkpt lat="44.93072" lon="1.70397">
        <ele>230</ele>
        <time>2022-05-24T08:09:21Z</time>
      </trkpt>
      <trkpt lat="44.9307" lon="1.70405">
        <ele>230.4</ele>
        <time>2022-05-24T08:09:22Z</time>
      </trkpt>
      <trkpt lat="44.93068" lon="1.70408">
        <ele>230.6</ele>
        <time>2022-05-24T08:09:23Z</time>
      </trkpt>
      <trkpt lat="44.93066" lon="1.70412">
        <ele>230.8</ele>
        <time>2022-05-24T08:09:24Z</time>
      </trkpt>
      <trkpt lat="44.93065" lon="1.70413">
        <ele>230.9</ele>
        <time>2022-05-24T08:09:25Z</time>
      </trkpt>
      <trkpt lat="44.93063" lon="1.70417">
        <ele>231</ele>
        <time>2022-05-24T08:09:26Z</time>
      </trkpt>
      <trkpt lat="44.93063" lon="1.70418">
        <ele>231.1</ele>
        <time>2022-05-24T08:09:27Z</time>
      </trkpt>
      <trkpt lat="44.93062" lon="1.70422">
        <ele>231.2</ele>
        <time>2022-05-24T08:09:28Z</time>
      </trkpt>
      <trkpt lat="44.93062" lon="1.70424">
        <ele>231.3</ele>
        <time>2022-05-24T08:09:29Z</time>
      </trkpt>
      <trkpt lat="44.93062" lon="1.70426">
        <ele>231.4</ele>
        <time>2022-05-24T08:09:30Z</time>
      </trkpt>
      <trkpt lat="44.93061" lon="1.70429">
        <ele>231.5</ele>
        <time>2022-05-24T08:09:31Z</time>
      </trkpt>
      <trkpt lat="44.93061" lon="1.70434">
        <ele>231.7</ele>
        <time>2022-05-24T08:09:32Z</time>
      </trkpt>
      <trkpt lat="44.93061" lon="1.70435">
        <ele>231.8</ele>
        <time>2022-05-24T08:09:33Z</time>
      </trkpt>
      <trkpt lat="44.93061" lon="1.70441">
        <ele>232</ele>
        <time>2022-05-24T08:09:34Z</time>
      </trkpt>
      <trkpt lat="44.93061" lon="1.70443">
        <ele>232</ele>
        <time>2022-05-24T08:09:35Z</time>
      </trkpt>
      <trkpt lat="44.9306" lon="1.70446">
        <ele>232.2</ele>
        <time>2022-05-24T08:09:36Z</time>
      </trkpt>
      <trkpt lat="44.9306" lon="1.70451">
        <ele>232.3</ele>
        <time>2022-05-24T08:09:37Z</time>
      </trkpt>
      <trkpt lat="44.9306" lon="1.70455">
        <ele>232.5</ele>
        <time>2022-05-24T08:09:38Z</time>
      </trkpt>
      <trkpt lat="44.93059" lon="1.70459">
        <ele>232.7</ele>
        <time>2022-05-24T08:09:39Z</time>
      </trkpt>
      <trkpt lat="44.93058" lon="1.70463">
        <ele>232.8</ele>
        <time>2022-05-24T08:09:40Z</time>
      </trkpt>
      <trkpt lat="44.93057" lon="1.70466">
        <ele>232.9</ele>
        <time>2022-05-24T08:09:41Z</time>
      </trkpt>
      <trkpt lat="44.93056" lon="1.7047">
        <ele>233.1</ele>
        <time>2022-05-24T08:09:42Z</time>
      </trkpt>
      <trkpt lat="44.93055" lon="1.70474">
        <ele>233.2</ele>
        <time>2022-05-24T08:09:43Z</time>
      </trkpt>
      <trkpt lat="44.93054" lon="1.70478">
        <ele>233.4</ele>
        <time>2022-05-24T08:09:44Z</time>
      </trkpt>
      <trkpt lat="44.93052" lon="1.70481">
        <ele>233.6</ele>
        <time>2022-05-24T08:09:45Z</time>
      </trkpt>
      <trkpt lat="44.9305" lon="1.70485">
        <ele>233.8</ele>
        <time>2022-05-24T08:09:46Z</time>
      </trkpt>
      <trkpt lat="44.93049" lon="1.70489">
        <ele>234</ele>
        <time>2022-05-24T08:09:47Z</time>
      </trkpt>
      <trkpt lat="44.93047" lon="1.70493">
        <ele>234.1</ele>
        <time>2022-05-24T08:09:48Z</time>
      </trkpt>
      <trkpt lat="44.93045" lon="1.70497">
        <ele>234.3</ele>
        <time>2022-05-24T08:09:49Z</time>
      </trkpt>
      <trkpt lat="44.93044" lon="1.705">
        <ele>234.5</ele>
        <time>2022-05-24T08:09:50Z</time>
      </trkpt>
      <trkpt lat="44.93042" lon="1.70503">
        <ele>234.7</ele>
        <time>2022-05-24T08:09:51Z</time>
      </trkpt>
      <trkpt lat="44.9304" lon="1.70507">
        <ele>234.9</ele>
        <time>2022-05-24T08:09:52Z</time>
      </trkpt>
      <trkpt lat="44.93039" lon="1.70511">
        <ele>235.1</ele>
        <time>2022-05-24T08:09:53Z</time>
      </trkpt>
      <trkpt lat="44.93038" lon="1.70514">
        <ele>235.3</ele>
        <time>2022-05-24T08:09:54Z</time>
      </trkpt>
      <trkpt lat="44.93036" lon="1.70518">
        <ele>235.5</ele>
        <time>2022-05-24T08:09:55Z</time>
      </trkpt>
      <trkpt lat="44.93034" lon="1.70522">
        <ele>235.7</ele>
        <time>2022-05-24T08:09:56Z</time>
      </trkpt>
      <trkpt lat="44.93033" lon="1.70525">
        <ele>235.9</ele>
        <time>2022-05-24T08:09:57Z</time>
      </trkpt>
      <trkpt lat="44.93031" lon="1.70529">
        <ele>236.1</ele>
        <time>2022-05-24T08:09:58Z</time>
      </trkpt>
      <trkpt lat="44.93029" lon="1.70532">
        <ele>236.3</ele>
        <time>2022-05-24T08:09:59Z</time>
      </trkpt>
      <trkpt lat="44.93027" lon="1.70535">
        <ele>236.5</ele>
        <time>2022-05-24T08:10:00Z</time>
      </trkpt>
      <trkpt lat="44.93025" lon="1.70539">
        <ele>236.8</ele>
        <time>2022-05-24T08:10:01Z</time>
      </trkpt>
      <trkpt lat="44.93025" lon="1.70541">
        <ele>236.9</ele>
        <time>2022-05-24T08:10:02Z</time>
      </trkpt>
      <trkpt lat="44.93023" lon="1.70546">
        <ele>237.2</ele>
        <time>2022-05-24T08:10:03Z</time>
      </trkpt>
      <trkpt lat="44.93022" lon="1.70548">
        <ele>237.3</ele>
        <time>2022-05-24T08:10:04Z</time>
      </trkpt>
      <trkpt lat="44.93021" lon="1.70552">
        <ele>237.6</ele>
        <time>2022-05-24T08:10:05Z</time>
      </trkpt>
      <trkpt lat="44.9302" lon="1.70556">
        <ele>237.8</ele>
        <time>2022-05-24T08:10:06Z</time>
      </trkpt>
      <trkpt lat="44.93018" lon="1.70561">
        <ele>238.1</ele>
        <time>2022-05-24T08:10:07Z</time>
      </trkpt>
      <trkpt lat="44.93017" lon="1.70562">
        <ele>238.2</ele>
        <time>2022-05-24T08:10:08Z</time>
      </trkpt>
      <trkpt lat="44.93015" lon="1.70565">
        <ele>238.5</ele>
        <time>2022-05-24T08:10:09Z</time>
      </trkpt>
      <trkpt lat="44.93013" lon="1.70568">
        <ele>238.7</ele>
        <time>2022-05-24T08:10:10Z</time>
      </trkpt>
      <trkpt lat="44.93011" lon="1.70572">
        <ele>239</ele>
        <time>2022-05-24T08:10:11Z</time>
      </trkpt>
      <trkpt lat="44.9301" lon="1.70576">
        <ele>239.2</ele>
        <time>2022-05-24T08:10:12Z</time>
      </trkpt>
      <trkpt lat="44.93009" lon="1.70578">
        <ele>239.3</ele>
        <time>2022-05-24T08:10:13Z</time>
      </trkpt>
      <trkpt lat="44.93008" lon="1.70582">
        <ele>239.5</ele>
        <time>2022-05-24T08:10:14Z</time>
      </trkpt>
      <trkpt lat="44.93007" lon="1.70586">
        <ele>239.7</ele>
        <time>2022-05-24T08:10:15Z</time>
      </trkpt>
      <trkpt lat="44.93005" lon="1.7059">
        <ele>239.9</ele>
        <time>2022-05-24T08:10:16Z</time>
      </trkpt>
      <trkpt lat="44.93004" lon="1.70594">
        <ele>240.1</ele>
        <time>2022-05-24T08:10:17Z</time>
      </trkpt>
      <trkpt lat="44.93002" lon="1.70598">
        <ele>240.3</ele>
        <time>2022-05-24T08:10:18Z</time>
      </trkpt>
      <trkpt lat="44.93002" lon="1.70602">
        <ele>240.5</ele>
        <time>2022-05-24T08:10:19Z</time>
      </trkpt>
      <trkpt lat="44.93001" lon="1.70606">
        <ele>240.7</ele>
        <time>2022-05-24T08:10:20Z</time>
      </trkpt>
      <trkpt lat="44.93001" lon="1.7061">
        <ele>240.9</ele>
        <time>2022-05-24T08:10:21Z</time>
      </trkpt>
      <trkpt lat="44.93" lon="1.70615">
        <ele>241</ele>
        <time>2022-05-24T08:10:22Z</time>
      </trkpt>
      <trkpt lat="44.93" lon="1.70619">
        <ele>241.2</ele>
        <time>2022-05-24T08:10:23Z</time>
      </trkpt>
      <trkpt lat="44.93" lon="1.70624">
        <ele>241.4</ele>
        <time>2022-05-24T08:10:24Z</time>
      </trkpt>
      <trkpt lat="44.93" lon="1.70628">
        <ele>241.6</ele>
        <time>2022-05-24T08:10:25Z</time>
      </trkpt>
      <trkpt lat="44.93" lon="1.70633">
        <ele>241.8</ele>
        <time>2022-05-24T08:10:26Z</time>
      </trkpt>
      <trkpt lat="44.93" lon="1.70637">
        <ele>242</ele>
        <time>2022-05-24T08:10:27Z</time>
      </trkpt>
      <trkpt lat="44.93" lon="1.70642">
        <ele>242.1</ele>
        <time>2022-05-24T08:10:28Z</time>
      </trkpt>
      <trkpt lat="44.93" lon="1.70646">
        <ele>242.3</ele>
        <time>2022-05-24T08:10:29Z</time>
      </trkpt>
      <trkpt lat="44.93" lon="1.7065">
        <ele>242.5</ele>
        <time>2022-05-24T08:10:30Z</time>
      </trkpt>
      <trkpt lat="44.93" lon="1.70654">
        <ele>242.6</ele>
        <time>2022-05-24T08:10:31Z</time>
      </trkpt>
      <trkpt lat="44.93001" lon="1.70659">
        <ele>242.8</ele>
        <time>2022-05-24T08:10:32Z</time>
      </trkpt>
      <trkpt lat="44.93001" lon="1.70663">
        <ele>242.9</ele>
        <time>2022-05-24T08:10:33Z</time>
      </trkpt>
      <trkpt lat="44.93" lon="1.70668">
        <ele>243</ele>
        <time>2022-05-24T08:10:34Z</time>
      </trkpt>
      <trkpt lat="44.92999" lon="1.70673">
        <ele>243.1</ele>
        <time>2022-05-24T08:10:35Z</time>
      </trkpt>
      <trkpt lat="44.92998" lon="1.70677">
        <ele>243.2</ele>
        <time>2022-05-24T08:10:36Z</time>
      </trkpt>
      <trkpt lat="44.92998" lon="1.70681">
        <ele>243.3</ele>
        <time>2022-05-24T08:10:37Z</time>
      </trkpt>
      <trkpt lat="44.92997" lon="1.70683">
        <ele>243.3</ele>
        <time>2022-05-24T08:10:38Z</time>
      </trkpt>
      <trkpt lat="44.92997" lon="1.70684">
        <ele>243.3</ele>
        <time>2022-05-24T08:10:39Z</time>
      </trkpt>
      <trkpt lat="44.92997" lon="1.70684">
        <ele>243.3</ele>
        <time>2022-05-24T08:10:40Z</time>
      </trkpt>
      <trkpt lat="44.92997" lon="1.70684">
        <ele>243.3</ele>
        <time>2022-05-24T08:10:41Z</time>
      </trkpt>
      <trkpt lat="44.92997" lon="1.70685">
        <ele>243.3</ele>
        <time>2022-05-24T08:10:42Z</time>
      </trkpt>
      <trkpt lat="44.92997" lon="1.70686">
        <ele>243.3</ele>
        <time>2022-05-24T08:10:43Z</time>
      </trkpt>
      <trkpt lat="44.92997" lon="1.70686">
        <ele>243.3</ele>
        <time>2022-05-24T08:10:44Z</time>
      </trkpt>
      <trkpt lat="44.92997" lon="1.70687">
        <ele>243.3</ele>
        <time>2022-05-24T08:10:45Z</time>
      </trkpt>
      <trkpt lat="44.92997" lon="1.70687">
        <ele>243.3</ele>
        <time>2022-05-24T08:10:46Z</time>
      </trkpt>
      <trkpt lat="44.92997" lon="1.70688">
        <ele>243.3</ele>
        <time>2022-05-24T08:10:47Z</time>
      </trkpt>
      <trkpt lat="44.92997" lon="1.70688">
        <ele>243.4</ele>
        <time>2022-05-24T08:10:48Z</time>
      </trkpt>
      <trkpt lat="44.92997" lon="1.70689">
        <ele>243.4</ele>
        <time>2022-05-24T08:10:49Z</time>
      </trkpt>
      <trkpt lat="44.92997" lon="1.70689">
        <ele>243.4</ele>
        <time>2022-05-24T08:10:50Z</time>
      </trkpt>
      <trkpt lat="44.92997" lon="1.7069">
        <ele>243.4</ele>
        <time>2022-05-24T08:10:51Z</time>
      </trkpt>
      <trkpt lat="44.92997" lon="1.7069">
        <ele>243.4</ele>
        <time>2022-05-24T08:10:52Z</time>
      </trkpt>
      <trkpt lat="44.92997" lon="1.70691">
        <ele>243.4</ele>
        <time>2022-05-24T08:10:53Z</time>
      </trkpt>
      <trkpt lat="44.92997" lon="1.70691">
        <ele>243.4</ele>
        <time>2022-05-24T08:12:44Z</time>
      </trkpt>
      <trkpt lat="44.92997" lon="1.70692">
        <ele>243.4</ele>
        <time>2022-05-24T08:12:45Z</time>
      </trkpt>
      <trkpt lat="44.92997" lon="1.70692">
        <ele>243.4</ele>
        <time>2022-05-24T08:12:46Z</time>
      </trkpt>
      <trkpt lat="44.92996" lon="1.70696">
        <ele>243.4</ele>
        <time>2022-05-24T08:12:47Z</time>
      </trkpt>
      <trkpt lat="44.92995" lon="1.70701">
        <ele>243.4</ele>
        <time>2022-05-24T08:12:48Z</time>
      </trkpt>
      <trkpt lat="44.92993" lon="1.70706">
        <ele>243.5</ele>
        <time>2022-05-24T08:12:49Z</time>
      </trkpt>
      <trkpt lat="44.92992" lon="1.70712">
        <ele>243.5</ele>
        <time>2022-05-24T08:12:50Z</time>
      </trkpt>
      <trkpt lat="44.9299" lon="1.70717">
        <ele>243.5</ele>
        <time>2022-05-24T08:12:51Z</time>
      </trkpt>
      <trkpt lat="44.92988" lon="1.70722">
        <ele>243.5</ele>
        <time>2022-05-24T08:12:52Z</time>
      </trkpt>
      <trkpt lat="44.92986" lon="1.70728">
        <ele>243.5</ele>
        <time>2022-05-24T08:12:53Z</time>
      </trkpt>
      <trkpt lat="44.92984" lon="1.70733">
        <ele>243.5</ele>
        <time>2022-05-24T08:12:54Z</time>
      </trkpt>
      <trkpt lat="44.92982" lon="1.70739">
        <ele>243.6</ele>
        <time>2022-05-24T08:12:55Z</time>
      </trkpt>
      <trkpt lat="44.92978" lon="1.70745">
        <ele>243.6</ele>
        <time>2022-05-24T08:12:56Z</time>
      </trkpt>
      <trkpt lat="44.92975" lon="1.70748">
        <ele>243.7</ele>
        <time>2022-05-24T08:12:57Z</time>
      </trkpt>
      <trkpt lat="44.92972" lon="1.70752">
        <ele>243.8</ele>
        <time>2022-05-24T08:12:58Z</time>
      </trkpt>
      <trkpt lat="44.92969" lon="1.70757">
        <ele>243.9</ele>
        <time>2022-05-24T08:12:59Z</time>
      </trkpt>
      <trkpt lat="44.92966" lon="1.70761">
        <ele>244</ele>
        <time>2022-05-24T08:13:00Z</time>
      </trkpt>
      <trkpt lat="44.92963" lon="1.70765">
        <ele>244.1</ele>
        <time>2022-05-24T08:13:01Z</time>
      </trkpt>
      <trkpt lat="44.9296" lon="1.70768">
        <ele>244.1</ele>
        <time>2022-05-24T08:13:02Z</time>
      </trkpt>
      <trkpt lat="44.92957" lon="1.70772">
        <ele>244.2</ele>
        <time>2022-05-24T08:13:03Z</time>
      </trkpt>
      <trkpt lat="44.92954" lon="1.70776">
        <ele>244.3</ele>
        <time>2022-05-24T08:13:04Z</time>
      </trkpt>
      <trkpt lat="44.9295" lon="1.70781">
        <ele>244.4</ele>
        <time>2022-05-24T08:13:05Z</time>
      </trkpt>
      <trkpt lat="44.92946" lon="1.70785">
        <ele>244.4</ele>
        <time>2022-05-24T08:13:06Z</time>
      </trkpt>
      <trkpt lat="44.92942" lon="1.70791">
        <ele>244.4</ele>
        <time>2022-05-24T08:13:07Z</time>
      </trkpt>
      <trkpt lat="44.92939" lon="1.70798">
        <ele>244.4</ele>
        <time>2022-05-24T08:13:08Z</time>
      </trkpt>
      <trkpt lat="44.92936" lon="1.70804">
        <ele>244.4</ele>
        <time>2022-05-24T08:13:09Z</time>
      </trkpt>
      <trkpt lat="44.92933" lon="1.70809">
        <ele>244.3</ele>
        <time>2022-05-24T08:13:10Z</time>
      </trkpt>
      <trkpt lat="44.92931" lon="1.70815">
        <ele>244.3</ele>
        <time>2022-05-24T08:13:11Z</time>
      </trkpt>
      <trkpt lat="44.92928" lon="1.70821">
        <ele>244.1</ele>
        <time>2022-05-24T08:13:12Z</time>
      </trkpt>
      <trkpt lat="44.92926" lon="1.70827">
        <ele>244</ele>
        <time>2022-05-24T08:13:13Z</time>
      </trkpt>
      <trkpt lat="44.92924" lon="1.70832">
        <ele>243.9</ele>
        <time>2022-05-24T08:13:14Z</time>
      </trkpt>
      <trkpt lat="44.92921" lon="1.70837">
        <ele>243.8</ele>
        <time>2022-05-24T08:13:15Z</time>
      </trkpt>
      <trkpt lat="44.92918" lon="1.7084">
        <ele>243.7</ele>
        <time>2022-05-24T08:13:16Z</time>
      </trkpt>
      <trkpt lat="44.92914" lon="1.70843">
        <ele>243.5</ele>
        <time>2022-05-24T08:13:17Z</time>
      </trkpt>
      <trkpt lat="44.9291" lon="1.70846">
        <ele>243.3</ele>
        <time>2022-05-24T08:13:18Z</time>
      </trkpt>
      <trkpt lat="44.92906" lon="1.70849">
        <ele>243.2</ele>
        <time>2022-05-24T08:13:19Z</time>
      </trkpt>
      <trkpt lat="44.92901" lon="1.70853">
        <ele>243.1</ele>
        <time>2022-05-24T08:13:20Z</time>
      </trkpt>
      <trkpt lat="44.92896" lon="1.70858">
        <ele>243</ele>
        <time>2022-05-24T08:13:21Z</time>
      </trkpt>
      <trkpt lat="44.92892" lon="1.70863">
        <ele>242.9</ele>
        <time>2022-05-24T08:13:22Z</time>
      </trkpt>
      <trkpt lat="44.92889" lon="1.70869">
        <ele>242.9</ele>
        <time>2022-05-24T08:13:23Z</time>
      </trkpt>
      <trkpt lat="44.92885" lon="1.70875">
        <ele>242.9</ele>
        <time>2022-05-24T08:13:24Z</time>
      </trkpt>
      <trkpt lat="44.92882" lon="1.70881">
        <ele>243</ele>
        <time>2022-05-24T08:13:25Z</time>
      </trkpt>
      <trkpt lat="44.9288" lon="1.70888">
        <ele>243.1</ele>
        <time>2022-05-24T08:13:26Z</time>
      </trkpt>
      <trkpt lat="44.92877" lon="1.70894">
        <ele>243.1</ele>
        <time>2022-05-24T08:13:27Z</time>
      </trkpt>
      <trkpt lat="44.92874" lon="1.709">
        <ele>243.2</ele>
        <time>2022-05-24T08:13:28Z</time>
      </trkpt>
      <trkpt lat="44.92872" lon="1.70906">
        <ele>243.3</ele>
        <time>2022-05-24T08:13:29Z</time>
      </trkpt>
      <trkpt lat="44.9287" lon="1.70912">
        <ele>243.4</ele>
        <time>2022-05-24T08:13:30Z</time>
      </trkpt>
      <trkpt lat="44.92866" lon="1.70918">
        <ele>243.4</ele>
        <time>2022-05-24T08:13:31Z</time>
      </trkpt>
      <trkpt lat="44.92862" lon="1.70922">
        <ele>243.6</ele>
        <time>2022-05-24T08:13:32Z</time>
      </trkpt>
      <trkpt lat="44.92858" lon="1.70927">
        <ele>243.7</ele>
        <time>2022-05-24T08:13:33Z</time>
      </trkpt>
      <trkpt lat="44.92855" lon="1.70932">
        <ele>243.8</ele>
        <time>2022-05-24T08:13:34Z</time>
      </trkpt>
      <trkpt lat="44.92853" lon="1.70937">
        <ele>243.9</ele>
        <time>2022-05-24T08:13:35Z</time>
      </trkpt>
      <trkpt lat="44.9285" lon="1.70942">
        <ele>244</ele>
        <time>2022-05-24T08:13:36Z</time>
      </trkpt>
      <trkpt lat="44.92848" lon="1.70947">
        <ele>244.1</ele>
        <time>2022-05-24T08:13:37Z</time>
      </trkpt>
      <trkpt lat="44.92846" lon="1.70951">
        <ele>244.1</ele>
        <time>2022-05-24T08:13:38Z</time>
      </trkpt>
      <trkpt lat="44.92844" lon="1.70955">
        <ele>244.2</ele>
        <time>2022-05-24T08:13:39Z</time>
      </trkpt>
      <trkpt lat="44.92842" lon="1.70959">
        <ele>244.3</ele>
        <time>2022-05-24T08:13:40Z</time>
      </trkpt>
      <trkpt lat="44.92839" lon="1.70963">
        <ele>244.4</ele>
        <time>2022-05-24T08:13:41Z</time>
      </trkpt>
      <trkpt lat="44.92837" lon="1.70968">
        <ele>244.5</ele>
        <time>2022-05-24T08:13:42Z</time>
      </trkpt>
      <trkpt lat="44.92835" lon="1.70973">
        <ele>244.7</ele>
        <time>2022-05-24T08:13:43Z</time>
      </trkpt>
      <trkpt lat="44.92831" lon="1.70977">
        <ele>244.9</ele>
        <time>2022-05-24T08:13:44Z</time>
      </trkpt>
      <trkpt lat="44.92828" lon="1.70982">
        <ele>245.2</ele>
        <time>2022-05-24T08:13:45Z</time>
      </trkpt>
      <trkpt lat="44.92825" lon="1.70987">
        <ele>245.4</ele>
        <time>2022-05-24T08:13:46Z</time>
      </trkpt>
      <trkpt lat="44.92822" lon="1.70992">
        <ele>245.7</ele>
        <time>2022-05-24T08:13:47Z</time>
      </trkpt>
      <trkpt lat="44.92818" lon="1.70996">
        <ele>246</ele>
        <time>2022-05-24T08:13:48Z</time>
      </trkpt>
      <trkpt lat="44.92815" lon="1.71">
        <ele>246.3</ele>
        <time>2022-05-24T08:13:49Z</time>
      </trkpt>
      <trkpt lat="44.92812" lon="1.71003">
        <ele>246.5</ele>
        <time>2022-05-24T08:13:50Z</time>
      </trkpt>
      <trkpt lat="44.92809" lon="1.71005">
        <ele>246.8</ele>
        <time>2022-05-24T08:13:51Z</time>
      </trkpt>
      <trkpt lat="44.92805" lon="1.71007">
        <ele>247.1</ele>
        <time>2022-05-24T08:13:52Z</time>
      </trkpt>
      <trkpt lat="44.92801" lon="1.71009">
        <ele>247.4</ele>
        <time>2022-05-24T08:13:53Z</time>
      </trkpt>
      <trkpt lat="44.92798" lon="1.71011">
        <ele>247.6</ele>
        <time>2022-05-24T08:13:54Z</time>
      </trkpt>
      <trkpt lat="44.92795" lon="1.71013">
        <ele>247.9</ele>
        <time>2022-05-24T08:13:55Z</time>
      </trkpt>
      <trkpt lat="44.9279" lon="1.71018">
        <ele>248.4</ele>
        <time>2022-05-24T08:13:57Z</time>
      </trkpt>
      <trkpt lat="44.92787" lon="1.7102">
        <ele>248.7</ele>
        <time>2022-05-24T08:13:58Z</time>
      </trkpt>
      <trkpt lat="44.92784" lon="1.71023">
        <ele>248.9</ele>
        <time>2022-05-24T08:13:59Z</time>
      </trkpt>
      <trkpt lat="44.92782" lon="1.71027">
        <ele>249.2</ele>
        <time>2022-05-24T08:14:00Z</time>
      </trkpt>
      <trkpt lat="44.92779" lon="1.71031">
        <ele>249.6</ele>
        <time>2022-05-24T08:14:01Z</time>
      </trkpt>
      <trkpt lat="44.92776" lon="1.71036">
        <ele>249.8</ele>
        <time>2022-05-24T08:14:02Z</time>
      </trkpt>
      <trkpt lat="44.92774" lon="1.7104">
        <ele>250.1</ele>
        <time>2022-05-24T08:14:03Z</time>
      </trkpt>
      <trkpt lat="44.92772" lon="1.71045">
        <ele>250.3</ele>
        <time>2022-05-24T08:14:04Z</time>
      </trkpt>
      <trkpt lat="44.9277" lon="1.7105">
        <ele>250.5</ele>
        <time>2022-05-24T08:14:05Z</time>
      </trkpt>
      <trkpt lat="44.92768" lon="1.71055">
        <ele>250.7</ele>
        <time>2022-05-24T08:14:06Z</time>
      </trkpt>
      <trkpt lat="44.92766" lon="1.71061">
        <ele>250.9</ele>
        <time>2022-05-24T08:14:07Z</time>
      </trkpt>
      <trkpt lat="44.92764" lon="1.71066">
        <ele>251</ele>
        <time>2022-05-24T08:14:08Z</time>
      </trkpt>
      <trkpt lat="44.92763" lon="1.71071">
        <ele>251</ele>
        <time>2022-05-24T08:14:09Z</time>
      </trkpt>
      <trkpt lat="44.92761" lon="1.71077">
        <ele>251.1</ele>
        <time>2022-05-24T08:14:10Z</time>
      </trkpt>
      <trkpt lat="44.92759" lon="1.71083">
        <ele>251.1</ele>
        <time>2022-05-24T08:14:11Z</time>
      </trkpt>
      <trkpt lat="44.92757" lon="1.71089">
        <ele>251.1</ele>
        <time>2022-05-24T08:14:12Z</time>
      </trkpt>
      <trkpt lat="44.92754" lon="1.71095">
        <ele>251.1</ele>
        <time>2022-05-24T08:14:13Z</time>
      </trkpt>
      <trkpt lat="44.92752" lon="1.71102">
        <ele>251.1</ele>
        <time>2022-05-24T08:14:14Z</time>
      </trkpt>
      <trkpt lat="44.9275" lon="1.71108">
        <ele>251.1</ele>
        <time>2022-05-24T08:14:15Z</time>
      </trkpt>
      <trkpt lat="44.92748" lon="1.71115">
        <ele>251.1</ele>
        <time>2022-05-24T08:14:16Z</time>
      </trkpt>
      <trkpt lat="44.92746" lon="1.71122">
        <ele>251.1</ele>
        <time>2022-05-24T08:14:17Z</time>
      </trkpt>
      <trkpt lat="44.92744" lon="1.7113">
        <ele>251.1</ele>
        <time>2022-05-24T08:14:18Z</time>
      </trkpt>
      <trkpt lat="44.92742" lon="1.71137">
        <ele>251</ele>
        <time>2022-05-24T08:14:19Z</time>
      </trkpt>
      <trkpt lat="44.92739" lon="1.71144">
        <ele>251</ele>
        <time>2022-05-24T08:14:20Z</time>
      </trkpt>
      <trkpt lat="44.92736" lon="1.7115">
        <ele>251</ele>
        <time>2022-05-24T08:14:21Z</time>
      </trkpt>
      <trkpt lat="44.92736" lon="1.71156">
        <ele>250.9</ele>
        <time>2022-05-24T08:14:22Z</time>
      </trkpt>
      <trkpt lat="44.92734" lon="1.71162">
        <ele>250.9</ele>
        <time>2022-05-24T08:14:23Z</time>
      </trkpt>
      <trkpt lat="44.92731" lon="1.71169">
        <ele>250.8</ele>
        <time>2022-05-24T08:14:24Z</time>
      </trkpt>
      <trkpt lat="44.92728" lon="1.71176">
        <ele>250.7</ele>
        <time>2022-05-24T08:14:25Z</time>
      </trkpt>
      <trkpt lat="44.92724" lon="1.71183">
        <ele>250.6</ele>
        <time>2022-05-24T08:14:26Z</time>
      </trkpt>
      <trkpt lat="44.92722" lon="1.7119">
        <ele>250.5</ele>
        <time>2022-05-24T08:14:27Z</time>
      </trkpt>
      <trkpt lat="44.9272" lon="1.71196">
        <ele>250.4</ele>
        <time>2022-05-24T08:14:28Z</time>
      </trkpt>
      <trkpt lat="44.92718" lon="1.71202">
        <ele>250.3</ele>
        <time>2022-05-24T08:14:29Z</time>
      </trkpt>
      <trkpt lat="44.92713" lon="1.71207">
        <ele>250.1</ele>
        <time>2022-05-24T08:14:30Z</time>
      </trkpt>
      <trkpt lat="44.92704" lon="1.71217">
        <ele>249.5</ele>
        <time>2022-05-24T08:14:32Z</time>
      </trkpt>
      <trkpt lat="44.92701" lon="1.71222">
        <ele>249.3</ele>
        <time>2022-05-24T08:14:33Z</time>
      </trkpt>
      <trkpt lat="44.92693" lon="1.71232">
        <ele>248.8</ele>
        <time>2022-05-24T08:14:38Z</time>
      </trkpt>
      <trkpt lat="44.92675" lon="1.71241">
        <ele>247.8</ele>
        <time>2022-05-24T08:14:39Z</time>
      </trkpt>
      <trkpt lat="44.92668" lon="1.71239">
        <ele>247.4</ele>
        <time>2022-05-24T08:14:40Z</time>
      </trkpt>
      <trkpt lat="44.92661" lon="1.71235">
        <ele>246.9</ele>
        <time>2022-05-24T08:14:41Z</time>
      </trkpt>
      <trkpt lat="44.92654" lon="1.71231">
        <ele>246.4</ele>
        <time>2022-05-24T08:14:42Z</time>
      </trkpt>
      <trkpt lat="44.92648" lon="1.71227">
        <ele>245.9</ele>
        <time>2022-05-24T08:14:43Z</time>
      </trkpt>
      <trkpt lat="44.92642" lon="1.71224">
        <ele>245.5</ele>
        <time>2022-05-24T08:14:44Z</time>
      </trkpt>
      <trkpt lat="44.92635" lon="1.71219">
        <ele>245</ele>
        <time>2022-05-24T08:14:45Z</time>
      </trkpt>
      <trkpt lat="44.92629" lon="1.71214">
        <ele>244.5</ele>
        <time>2022-05-24T08:14:46Z</time>
      </trkpt>
      <trkpt lat="44.92622" lon="1.71209">
        <ele>244</ele>
        <time>2022-05-24T08:14:47Z</time>
      </trkpt>
      <trkpt lat="44.92616" lon="1.71208">
        <ele>243.6</ele>
        <time>2022-05-24T08:14:48Z</time>
      </trkpt>
      <trkpt lat="44.92608" lon="1.71207">
        <ele>243.2</ele>
        <time>2022-05-24T08:14:49Z</time>
      </trkpt>
      <trkpt lat="44.92601" lon="1.71207">
        <ele>242.9</ele>
        <time>2022-05-24T08:14:50Z</time>
      </trkpt>
      <trkpt lat="44.92593" lon="1.71209">
        <ele>242.6</ele>
        <time>2022-05-24T08:14:51Z</time>
      </trkpt>
      <trkpt lat="44.92585" lon="1.7121">
        <ele>242.4</ele>
        <time>2022-05-24T08:14:52Z</time>
      </trkpt>
      <trkpt lat="44.92578" lon="1.71212">
        <ele>242.2</ele>
        <time>2022-05-24T08:14:53Z</time>
      </trkpt>
      <trkpt lat="44.92571" lon="1.71214">
        <ele>242</ele>
        <time>2022-05-24T08:14:54Z</time>
      </trkpt>
      <trkpt lat="44.92564" lon="1.71216">
        <ele>241.9</ele>
        <time>2022-05-24T08:14:55Z</time>
      </trkpt>
      <trkpt lat="44.92557" lon="1.71218">
        <ele>241.9</ele>
        <time>2022-05-24T08:14:56Z</time>
      </trkpt>
      <trkpt lat="44.9255" lon="1.71219">
        <ele>241.7</ele>
        <time>2022-05-24T08:14:57Z</time>
      </trkpt>
      <trkpt lat="44.92544" lon="1.71221">
        <ele>241.6</ele>
        <time>2022-05-24T08:14:58Z</time>
      </trkpt>
      <trkpt lat="44.92537" lon="1.71225">
        <ele>241.4</ele>
        <time>2022-05-24T08:14:59Z</time>
      </trkpt>
      <trkpt lat="44.9253" lon="1.71228">
        <ele>241.1</ele>
        <time>2022-05-24T08:15:00Z</time>
      </trkpt>
      <trkpt lat="44.92524" lon="1.71231">
        <ele>240.7</ele>
        <time>2022-05-24T08:15:01Z</time>
      </trkpt>
      <trkpt lat="44.92519" lon="1.71236">
        <ele>240.2</ele>
        <time>2022-05-24T08:15:02Z</time>
      </trkpt>
      <trkpt lat="44.92513" lon="1.71243">
        <ele>239.6</ele>
        <time>2022-05-24T08:15:03Z</time>
      </trkpt>
      <trkpt lat="44.92508" lon="1.7125">
        <ele>238.9</ele>
        <time>2022-05-24T08:15:04Z</time>
      </trkpt>
      <trkpt lat="44.92502" lon="1.71259">
        <ele>238.2</ele>
        <time>2022-05-24T08:15:05Z</time>
      </trkpt>
      <trkpt lat="44.92496" lon="1.71268">
        <ele>237.5</ele>
        <time>2022-05-24T08:15:06Z</time>
      </trkpt>
      <trkpt lat="44.92491" lon="1.71277">
        <ele>236.8</ele>
        <time>2022-05-24T08:15:07Z</time>
      </trkpt>
      <trkpt lat="44.92485" lon="1.71287">
        <ele>236</ele>
        <time>2022-05-24T08:15:08Z</time>
      </trkpt>
      <trkpt lat="44.92481" lon="1.71298">
        <ele>235.3</ele>
        <time>2022-05-24T08:15:09Z</time>
      </trkpt>
      <trkpt lat="44.92477" lon="1.7131">
        <ele>234.6</ele>
        <time>2022-05-24T08:15:10Z</time>
      </trkpt>
      <trkpt lat="44.92473" lon="1.71321">
        <ele>234.1</ele>
        <time>2022-05-24T08:15:11Z</time>
      </trkpt>
      <trkpt lat="44.92469" lon="1.71333">
        <ele>233.6</ele>
        <time>2022-05-24T08:15:12Z</time>
      </trkpt>
      <trkpt lat="44.92465" lon="1.71345">
        <ele>233.1</ele>
        <time>2022-05-24T08:15:13Z</time>
      </trkpt>
      <trkpt lat="44.92461" lon="1.71356">
        <ele>232.7</ele>
        <time>2022-05-24T08:15:14Z</time>
      </trkpt>
      <trkpt lat="44.92457" lon="1.71367">
        <ele>232.2</ele>
        <time>2022-05-24T08:15:15Z</time>
      </trkpt>
      <trkpt lat="44.92451" lon="1.71376">
        <ele>231.8</ele>
        <time>2022-05-24T08:15:16Z</time>
      </trkpt>
      <trkpt lat="44.92446" lon="1.71386">
        <ele>231.4</ele>
        <time>2022-05-24T08:15:17Z</time>
      </trkpt>
      <trkpt lat="44.9244" lon="1.71395">
        <ele>231</ele>
        <time>2022-05-24T08:15:18Z</time>
      </trkpt>
      <trkpt lat="44.92434" lon="1.71403">
        <ele>230.5</ele>
        <time>2022-05-24T08:15:19Z</time>
      </trkpt>
      <trkpt lat="44.92428" lon="1.71412">
        <ele>230.1</ele>
        <time>2022-05-24T08:15:20Z</time>
      </trkpt>
      <trkpt lat="44.92422" lon="1.7142">
        <ele>229.6</ele>
        <time>2022-05-24T08:15:21Z</time>
      </trkpt>
      <trkpt lat="44.92415" lon="1.71429">
        <ele>229.2</ele>
        <time>2022-05-24T08:15:22Z</time>
      </trkpt>
      <trkpt lat="44.92409" lon="1.71438">
        <ele>228.9</ele>
        <time>2022-05-24T08:15:23Z</time>
      </trkpt>
      <trkpt lat="44.92403" lon="1.71447">
        <ele>228.5</ele>
        <time>2022-05-24T08:15:24Z</time>
      </trkpt>
      <trkpt lat="44.92397" lon="1.71455">
        <ele>228.1</ele>
        <time>2022-05-24T08:15:25Z</time>
      </trkpt>
      <trkpt lat="44.92391" lon="1.71463">
        <ele>227.7</ele>
        <time>2022-05-24T08:15:26Z</time>
      </trkpt>
      <trkpt lat="44.92386" lon="1.71472">
        <ele>227.3</ele>
        <time>2022-05-24T08:15:27Z</time>
      </trkpt>
      <trkpt lat="44.92381" lon="1.7148">
        <ele>227</ele>
        <time>2022-05-24T08:15:28Z</time>
      </trkpt>
      <trkpt lat="44.92376" lon="1.71488">
        <ele>226.7</ele>
        <time>2022-05-24T08:15:29Z</time>
      </trkpt>
      <trkpt lat="44.92371" lon="1.71496">
        <ele>226.4</ele>
        <time>2022-05-24T08:15:30Z</time>
      </trkpt>
      <trkpt lat="44.92364" lon="1.71504">
        <ele>226.1</ele>
        <time>2022-05-24T08:15:31Z</time>
      </trkpt>
      <trkpt lat="44.92359" lon="1.71513">
        <ele>225.9</ele>
        <time>2022-05-24T08:15:32Z</time>
      </trkpt>
      <trkpt lat="44.92356" lon="1.71524">
        <ele>225.6</ele>
        <time>2022-05-24T08:15:33Z</time>
      </trkpt>
      <trkpt lat="44.92357" lon="1.71535">
        <ele>225.4</ele>
        <time>2022-05-24T08:15:34Z</time>
      </trkpt>
      <trkpt lat="44.92358" lon="1.71545">
        <ele>225</ele>
        <time>2022-05-24T08:15:35Z</time>
      </trkpt>
      <trkpt lat="44.92361" lon="1.71552">
        <ele>224.7</ele>
        <time>2022-05-24T08:15:36Z</time>
      </trkpt>
      <trkpt lat="44.92363" lon="1.71561">
        <ele>224.3</ele>
        <time>2022-05-24T08:15:37Z</time>
      </trkpt>
      <trkpt lat="44.92368" lon="1.71571">
        <ele>223.7</ele>
        <time>2022-05-24T08:15:38Z</time>
      </trkpt>
      <trkpt lat="44.92372" lon="1.71583">
        <ele>223.4</ele>
        <time>2022-05-24T08:15:39Z</time>
      </trkpt>
      <trkpt lat="44.92374" lon="1.71595">
        <ele>223.1</ele>
        <time>2022-05-24T08:15:40Z</time>
      </trkpt>
      <trkpt lat="44.92374" lon="1.71606">
        <ele>222.9</ele>
        <time>2022-05-24T08:15:41Z</time>
      </trkpt>
      <trkpt lat="44.9237" lon="1.71616">
        <ele>222.7</ele>
        <time>2022-05-24T08:15:42Z</time>
      </trkpt>
      <trkpt lat="44.92366" lon="1.71626">
        <ele>222.4</ele>
        <time>2022-05-24T08:15:43Z</time>
      </trkpt>
      <trkpt lat="44.92363" lon="1.71633">
        <ele>222.3</ele>
        <time>2022-05-24T08:15:44Z</time>
      </trkpt>
      <trkpt lat="44.9236" lon="1.71642">
        <ele>222.1</ele>
        <time>2022-05-24T08:15:45Z</time>
      </trkpt>
      <trkpt lat="44.92357" lon="1.71651">
        <ele>221.8</ele>
        <time>2022-05-24T08:15:46Z</time>
      </trkpt>
      <trkpt lat="44.92355" lon="1.7166">
        <ele>221.6</ele>
        <time>2022-05-24T08:15:47Z</time>
      </trkpt>
      <trkpt lat="44.92355" lon="1.71668">
        <ele>221.3</ele>
        <time>2022-05-24T08:15:48Z</time>
      </trkpt>
      <trkpt lat="44.92354" lon="1.71679">
        <ele>221</ele>
        <time>2022-05-24T08:15:49Z</time>
      </trkpt>
      <trkpt lat="44.92352" lon="1.71688">
        <ele>220.9</ele>
        <time>2022-05-24T08:15:50Z</time>
      </trkpt>
      <trkpt lat="44.9235" lon="1.71699">
        <ele>220.7</ele>
        <time>2022-05-24T08:15:51Z</time>
      </trkpt>
      <trkpt lat="44.92348" lon="1.71709">
        <ele>220.5</ele>
        <time>2022-05-24T08:15:52Z</time>
      </trkpt>
      <trkpt lat="44.92346" lon="1.71719">
        <ele>220.4</ele>
        <time>2022-05-24T08:15:53Z</time>
      </trkpt>
      <trkpt lat="44.92344" lon="1.7173">
        <ele>220.3</ele>
        <time>2022-05-24T08:15:54Z</time>
      </trkpt>
      <trkpt lat="44.92342" lon="1.7174">
        <ele>220.2</ele>
        <time>2022-05-24T08:15:55Z</time>
      </trkpt>
      <trkpt lat="44.92339" lon="1.71749">
        <ele>220.2</ele>
        <time>2022-05-24T08:15:56Z</time>
      </trkpt>
      <trkpt lat="44.92336" lon="1.71758">
        <ele>220.1</ele>
        <time>2022-05-24T08:15:57Z</time>
      </trkpt>
      <trkpt lat="44.92333" lon="1.71767">
        <ele>220</ele>
        <time>2022-05-24T08:15:58Z</time>
      </trkpt>
      <trkpt lat="44.9233" lon="1.71774">
        <ele>219.9</ele>
        <time>2022-05-24T08:15:59Z</time>
      </trkpt>
      <trkpt lat="44.92325" lon="1.71781">
        <ele>219.8</ele>
        <time>2022-05-24T08:16:00Z</time>
      </trkpt>
      <trkpt lat="44.9232" lon="1.71788">
        <ele>219.7</ele>
        <time>2022-05-24T08:16:01Z</time>
      </trkpt>
      <trkpt lat="44.92315" lon="1.71794">
        <ele>219.5</ele>
        <time>2022-05-24T08:16:02Z</time>
      </trkpt>
      <trkpt lat="44.92308" lon="1.718">
        <ele>219.3</ele>
        <time>2022-05-24T08:16:03Z</time>
      </trkpt>
      <trkpt lat="44.92301" lon="1.71805">
        <ele>219.1</ele>
        <time>2022-05-24T08:16:04Z</time>
      </trkpt>
      <trkpt lat="44.92294" lon="1.7181">
        <ele>218.9</ele>
        <time>2022-05-24T08:16:05Z</time>
      </trkpt>
      <trkpt lat="44.92289" lon="1.71814">
        <ele>218.7</ele>
        <time>2022-05-24T08:16:06Z</time>
      </trkpt>
      <trkpt lat="44.92282" lon="1.7182">
        <ele>218.5</ele>
        <time>2022-05-24T08:16:07Z</time>
      </trkpt>
      <trkpt lat="44.92275" lon="1.71825">
        <ele>218.3</ele>
        <time>2022-05-24T08:16:08Z</time>
      </trkpt>
      <trkpt lat="44.92268" lon="1.7183">
        <ele>218.1</ele>
        <time>2022-05-24T08:16:09Z</time>
      </trkpt>
      <trkpt lat="44.92262" lon="1.71836">
        <ele>217.8</ele>
        <time>2022-05-24T08:16:10Z</time>
      </trkpt>
      <trkpt lat="44.92255" lon="1.71843">
        <ele>217.5</ele>
        <time>2022-05-24T08:16:11Z</time>
      </trkpt>
      <trkpt lat="44.9225" lon="1.71849">
        <ele>217.3</ele>
        <time>2022-05-24T08:16:12Z</time>
      </trkpt>
      <trkpt lat="44.92244" lon="1.71856">
        <ele>217</ele>
        <time>2022-05-24T08:16:13Z</time>
      </trkpt>
      <trkpt lat="44.92237" lon="1.71863">
        <ele>216.9</ele>
        <time>2022-05-24T08:16:14Z</time>
      </trkpt>
      <trkpt lat="44.92229" lon="1.71869">
        <ele>216.7</ele>
        <time>2022-05-24T08:16:15Z</time>
      </trkpt>
      <trkpt lat="44.92223" lon="1.71874">
        <ele>216.6</ele>
        <time>2022-05-24T08:16:16Z</time>
      </trkpt>
      <trkpt lat="44.92219" lon="1.71879">
        <ele>216.4</ele>
        <time>2022-05-24T08:16:17Z</time>
      </trkpt>
      <trkpt lat="44.92215" lon="1.71885">
        <ele>216.1</ele>
        <time>2022-05-24T08:16:18Z</time>
      </trkpt>
      <trkpt lat="44.92213" lon="1.71892">
        <ele>215.8</ele>
        <time>2022-05-24T08:16:19Z</time>
      </trkpt>
      <trkpt lat="44.92212" lon="1.71901">
        <ele>215.4</ele>
        <time>2022-05-24T08:16:20Z</time>
      </trkpt>
      <trkpt lat="44.92212" lon="1.7191">
        <ele>215.1</ele>
        <time>2022-05-24T08:16:21Z</time>
      </trkpt>
      <trkpt lat="44.9221" lon="1.71919">
        <ele>214.8</ele>
        <time>2022-05-24T08:16:22Z</time>
      </trkpt>
      <trkpt lat="44.92208" lon="1.71927">
        <ele>214.5</ele>
        <time>2022-05-24T08:16:23Z</time>
      </trkpt>
      <trkpt lat="44.92208" lon="1.71935">
        <ele>214.1</ele>
        <time>2022-05-24T08:16:24Z</time>
      </trkpt>
      <trkpt lat="44.92207" lon="1.71944">
        <ele>213.6</ele>
        <time>2022-05-24T08:16:25Z</time>
      </trkpt>
      <trkpt lat="44.92204" lon="1.71952">
        <ele>213</ele>
        <time>2022-05-24T08:16:26Z</time>
      </trkpt>
      <trkpt lat="44.92202" lon="1.7196">
        <ele>212.4</ele>
        <time>2022-05-24T08:16:27Z</time>
      </trkpt>
      <trkpt lat="44.92199" lon="1.71969">
        <ele>211.7</ele>
        <time>2022-05-24T08:16:28Z</time>
      </trkpt>
      <trkpt lat="44.92196" lon="1.71978">
        <ele>211</ele>
        <time>2022-05-24T08:16:29Z</time>
      </trkpt>
      <trkpt lat="44.92194" lon="1.71987">
        <ele>210.3</ele>
        <time>2022-05-24T08:16:30Z</time>
      </trkpt>
      <trkpt lat="44.92191" lon="1.71996">
        <ele>209.7</ele>
        <time>2022-05-24T08:16:31Z</time>
      </trkpt>
      <trkpt lat="44.92187" lon="1.72004">
        <ele>209.1</ele>
        <time>2022-05-24T08:16:32Z</time>
      </trkpt>
      <trkpt lat="44.92183" lon="1.72012">
        <ele>208.4</ele>
        <time>2022-05-24T08:16:33Z</time>
      </trkpt>
      <trkpt lat="44.92178" lon="1.72019">
        <ele>207.7</ele>
        <time>2022-05-24T08:16:34Z</time>
      </trkpt>
      <trkpt lat="44.92173" lon="1.72026">
        <ele>206.9</ele>
        <time>2022-05-24T08:16:35Z</time>
      </trkpt>
      <trkpt lat="44.92169" lon="1.72032">
        <ele>206.1</ele>
        <time>2022-05-24T08:16:36Z</time>
      </trkpt>
      <trkpt lat="44.92165" lon="1.72037">
        <ele>205.5</ele>
        <time>2022-05-24T08:16:37Z</time>
      </trkpt>
      <trkpt lat="44.92162" lon="1.72041">
        <ele>204.9</ele>
        <time>2022-05-24T08:16:38Z</time>
      </trkpt>
      <trkpt lat="44.92159" lon="1.72046">
        <ele>204.3</ele>
        <time>2022-05-24T08:16:39Z</time>
      </trkpt>
      <trkpt lat="44.92156" lon="1.72052">
        <ele>203.7</ele>
        <time>2022-05-24T08:16:40Z</time>
      </trkpt>
      <trkpt lat="44.92153" lon="1.72059">
        <ele>203.2</ele>
        <time>2022-05-24T08:16:41Z</time>
      </trkpt>
      <trkpt lat="44.9215" lon="1.72065">
        <ele>202.7</ele>
        <time>2022-05-24T08:16:42Z</time>
      </trkpt>
      <trkpt lat="44.92147" lon="1.72072">
        <ele>202.1</ele>
        <time>2022-05-24T08:16:43Z</time>
      </trkpt>
      <trkpt lat="44.92146" lon="1.72079">
        <ele>201.5</ele>
        <time>2022-05-24T08:16:44Z</time>
      </trkpt>
      <trkpt lat="44.92144" lon="1.72085">
        <ele>200.9</ele>
        <time>2022-05-24T08:16:45Z</time>
      </trkpt>
      <trkpt lat="44.92142" lon="1.7209">
        <ele>200.4</ele>
        <time>2022-05-24T08:16:46Z</time>
      </trkpt>
      <trkpt lat="44.92142" lon="1.72096">
        <ele>200</ele>
        <time>2022-05-24T08:16:47Z</time>
      </trkpt>
      <trkpt lat="44.9214" lon="1.72101">
        <ele>199.5</ele>
        <time>2022-05-24T08:16:48Z</time>
      </trkpt>
      <trkpt lat="44.92138" lon="1.72106">
        <ele>199</ele>
        <time>2022-05-24T08:16:49Z</time>
      </trkpt>
      <trkpt lat="44.92136" lon="1.72111">
        <ele>198.5</ele>
        <time>2022-05-24T08:16:50Z</time>
      </trkpt>
      <trkpt lat="44.92135" lon="1.72118">
        <ele>197.8</ele>
        <time>2022-05-24T08:16:51Z</time>
      </trkpt>
      <trkpt lat="44.92135" lon="1.72125">
        <ele>197.2</ele>
        <time>2022-05-24T08:16:52Z</time>
      </trkpt>
      <trkpt lat="44.92134" lon="1.72131">
        <ele>196.6</ele>
        <time>2022-05-24T08:16:53Z</time>
      </trkpt>
      <trkpt lat="44.92133" lon="1.72136">
        <ele>196</ele>
        <time>2022-05-24T08:16:54Z</time>
      </trkpt>
      <trkpt lat="44.92133" lon="1.72141">
        <ele>195.5</ele>
        <time>2022-05-24T08:16:55Z</time>
      </trkpt>
      <trkpt lat="44.92134" lon="1.72146">
        <ele>195</ele>
        <time>2022-05-24T08:16:56Z</time>
      </trkpt>
      <trkpt lat="44.92136" lon="1.72151">
        <ele>194.4</ele>
        <time>2022-05-24T08:16:57Z</time>
      </trkpt>
      <trkpt lat="44.92136" lon="1.72156">
        <ele>193.9</ele>
        <time>2022-05-24T08:16:58Z</time>
      </trkpt>
      <trkpt lat="44.92135" lon="1.7216">
        <ele>193.3</ele>
        <time>2022-05-24T08:16:59Z</time>
      </trkpt>
      <trkpt lat="44.92135" lon="1.72161">
        <ele>193.1</ele>
        <time>2022-05-24T08:17:00Z</time>
      </trkpt>
      <trkpt lat="44.92136" lon="1.72167">
        <ele>192.4</ele>
        <time>2022-05-24T08:17:01Z</time>
      </trkpt>
      <trkpt lat="44.92136" lon="1.72169">
        <ele>192.1</ele>
        <time>2022-05-24T08:17:02Z</time>
      </trkpt>
      <trkpt lat="44.92138" lon="1.72172">
        <ele>191.5</ele>
        <time>2022-05-24T08:17:03Z</time>
      </trkpt>
      <trkpt lat="44.9214" lon="1.72176">
        <ele>190.8</ele>
        <time>2022-05-24T08:17:04Z</time>
      </trkpt>
      <trkpt lat="44.9214" lon="1.72178">
        <ele>190.5</ele>
        <time>2022-05-24T08:17:05Z</time>
      </trkpt>
      <trkpt lat="44.92141" lon="1.72182">
        <ele>189.8</ele>
        <time>2022-05-24T08:17:06Z</time>
      </trkpt>
      <trkpt lat="44.92142" lon="1.72187">
        <ele>189</ele>
        <time>2022-05-24T08:17:07Z</time>
      </trkpt>
      <trkpt lat="44.92143" lon="1.72191">
        <ele>188.3</ele>
        <time>2022-05-24T08:17:08Z</time>
      </trkpt>
      <trkpt lat="44.92145" lon="1.72195">
        <ele>187.4</ele>
        <time>2022-05-24T08:17:09Z</time>
      </trkpt>
      <trkpt lat="44.92145" lon="1.72196">
        <ele>187.2</ele>
        <time>2022-05-24T08:17:10Z</time>
      </trkpt>
      <trkpt lat="44.92147" lon="1.722">
        <ele>186.5</ele>
        <time>2022-05-24T08:17:11Z</time>
      </trkpt>
      <trkpt lat="44.92147" lon="1.72201">
        <ele>186.2</ele>
        <time>2022-05-24T08:17:12Z</time>
      </trkpt>
      <trkpt lat="44.92149" lon="1.72204">
        <ele>185.5</ele>
        <time>2022-05-24T08:17:13Z</time>
      </trkpt>
      <trkpt lat="44.9215" lon="1.72208">
        <ele>184.8</ele>
        <time>2022-05-24T08:17:14Z</time>
      </trkpt>
      <trkpt lat="44.92151" lon="1.72212">
        <ele>184.1</ele>
        <time>2022-05-24T08:17:15Z</time>
      </trkpt>
      <trkpt lat="44.92153" lon="1.72216">
        <ele>183.4</ele>
        <time>2022-05-24T08:17:16Z</time>
      </trkpt>
      <trkpt lat="44.92155" lon="1.72219">
        <ele>182.8</ele>
        <time>2022-05-24T08:17:17Z</time>
      </trkpt>
      <trkpt lat="44.92158" lon="1.72222">
        <ele>182</ele>
        <time>2022-05-24T08:17:18Z</time>
      </trkpt>
      <trkpt lat="44.92159" lon="1.72223">
        <ele>181.7</ele>
        <time>2022-05-24T08:17:19Z</time>
      </trkpt>
      <trkpt lat="44.92162" lon="1.72225">
        <ele>181.2</ele>
        <time>2022-05-24T08:17:20Z</time>
      </trkpt>
      <trkpt lat="44.92165" lon="1.72227">
        <ele>180.5</ele>
        <time>2022-05-24T08:17:21Z</time>
      </trkpt>
      <trkpt lat="44.92168" lon="1.7223">
        <ele>179.9</ele>
        <time>2022-05-24T08:17:22Z</time>
      </trkpt>
      <trkpt lat="44.92171" lon="1.72234">
        <ele>179.1</ele>
        <time>2022-05-24T08:17:23Z</time>
      </trkpt>
      <trkpt lat="44.92174" lon="1.72239">
        <ele>178.4</ele>
        <time>2022-05-24T08:17:24Z</time>
      </trkpt>
      <trkpt lat="44.92177" lon="1.72243">
        <ele>177.6</ele>
        <time>2022-05-24T08:17:25Z</time>
      </trkpt>
      <trkpt lat="44.9218" lon="1.72248">
        <ele>176.9</ele>
        <time>2022-05-24T08:17:26Z</time>
      </trkpt>
      <trkpt lat="44.92182" lon="1.72253">
        <ele>176.2</ele>
        <time>2022-05-24T08:17:27Z</time>
      </trkpt>
      <trkpt lat="44.92184" lon="1.72258">
        <ele>175.4</ele>
        <time>2022-05-24T08:17:28Z</time>
      </trkpt>
      <trkpt lat="44.92184" lon="1.72264">
        <ele>174.7</ele>
        <time>2022-05-24T08:17:29Z</time>
      </trkpt>
      <trkpt lat="44.92184" lon="1.72269">
        <ele>173.9</ele>
        <time>2022-05-24T08:17:30Z</time>
      </trkpt>
      <trkpt lat="44.92183" lon="1.72275">
        <ele>173.2</ele>
        <time>2022-05-24T08:17:31Z</time>
      </trkpt>
      <trkpt lat="44.9218" lon="1.7228">
        <ele>172.3</ele>
        <time>2022-05-24T08:17:32Z</time>
      </trkpt>
      <trkpt lat="44.92178" lon="1.72285">
        <ele>171.6</ele>
        <time>2022-05-24T08:17:33Z</time>
      </trkpt>
      <trkpt lat="44.92177" lon="1.7229">
        <ele>170.9</ele>
        <time>2022-05-24T08:17:34Z</time>
      </trkpt>
      <trkpt lat="44.92176" lon="1.72295">
        <ele>170.2</ele>
        <time>2022-05-24T08:17:35Z</time>
      </trkpt>
      <trkpt lat="44.92177" lon="1.723">
        <ele>169.6</ele>
        <time>2022-05-24T08:17:36Z</time>
      </trkpt>
      <trkpt lat="44.92179" lon="1.72305">
        <ele>168.9</ele>
        <time>2022-05-24T08:17:37Z</time>
      </trkpt>
      <trkpt lat="44.92181" lon="1.72311">
        <ele>168.1</ele>
        <time>2022-05-24T08:17:38Z</time>
      </trkpt>
      <trkpt lat="44.92184" lon="1.72318">
        <ele>167.3</ele>
        <time>2022-05-24T08:17:39Z</time>
      </trkpt>
      <trkpt lat="44.92186" lon="1.72324">
        <ele>166.6</ele>
        <time>2022-05-24T08:17:40Z</time>
      </trkpt>
      <trkpt lat="44.92188" lon="1.72331">
        <ele>166.2</ele>
        <time>2022-05-24T08:17:41Z</time>
      </trkpt>
      <trkpt lat="44.92189" lon="1.72337">
        <ele>165.8</ele>
        <time>2022-05-24T08:17:42Z</time>
      </trkpt>
      <trkpt lat="44.92191" lon="1.72343">
        <ele>165.4</ele>
        <time>2022-05-24T08:17:43Z</time>
      </trkpt>
      <trkpt lat="44.92194" lon="1.72346">
        <ele>165.1</ele>
        <time>2022-05-24T08:17:44Z</time>
      </trkpt>
      <trkpt lat="44.92196" lon="1.72349">
        <ele>164.8</ele>
        <time>2022-05-24T08:17:45Z</time>
      </trkpt>
      <trkpt lat="44.92196" lon="1.72351">
        <ele>164.7</ele>
        <time>2022-05-24T08:17:46Z</time>
      </trkpt>
      <trkpt lat="44.92198" lon="1.72356">
        <ele>164.4</ele>
        <time>2022-05-24T08:17:47Z</time>
      </trkpt>
      <trkpt lat="44.92199" lon="1.72357">
        <ele>164.2</ele>
        <time>2022-05-24T08:17:48Z</time>
      </trkpt>
      <trkpt lat="44.92201" lon="1.72361">
        <ele>164</ele>
        <time>2022-05-24T08:17:49Z</time>
      </trkpt>
      <trkpt lat="44.92202" lon="1.72366">
        <ele>163.7</ele>
        <time>2022-05-24T08:17:50Z</time>
      </trkpt>
      <trkpt lat="44.92202" lon="1.72374">
        <ele>163.3</ele>
        <time>2022-05-24T08:17:51Z</time>
      </trkpt>
      <trkpt lat="44.92201" lon="1.72382">
        <ele>162.8</ele>
        <time>2022-05-24T08:17:52Z</time>
      </trkpt>
      <trkpt lat="44.922" lon="1.72389">
        <ele>162.2</ele>
        <time>2022-05-24T08:17:53Z</time>
      </trkpt>
      <trkpt lat="44.92198" lon="1.72396">
        <ele>161.6</ele>
        <time>2022-05-24T08:17:54Z</time>
      </trkpt>
      <trkpt lat="44.92197" lon="1.72401">
        <ele>161.1</ele>
        <time>2022-05-24T08:17:55Z</time>
      </trkpt>
      <trkpt lat="44.92197" lon="1.72406">
        <ele>160.5</ele>
        <time>2022-05-24T08:17:56Z</time>
      </trkpt>
      <trkpt lat="44.92197" lon="1.72408">
        <ele>160.4</ele>
        <time>2022-05-24T08:17:57Z</time>
      </trkpt>
      <trkpt lat="44.92197" lon="1.72409">
        <ele>160.2</ele>
        <time>2022-05-24T08:17:58Z</time>
      </trkpt>
      <trkpt lat="44.92197" lon="1.72409">
        <ele>160.2</ele>
        <time>2022-05-24T08:17:59Z</time>
      </trkpt>
      <trkpt lat="44.92197" lon="1.72409">
        <ele>160.2</ele>
        <time>2022-05-24T08:18:00Z</time>
      </trkpt>
      <trkpt lat="44.92197" lon="1.7241">
        <ele>160.1</ele>
        <time>2022-05-24T08:18:01Z</time>
      </trkpt>
      <trkpt lat="44.92197" lon="1.7241">
        <ele>160.1</ele>
        <time>2022-05-24T08:18:02Z</time>
      </trkpt>
      <trkpt lat="44.92197" lon="1.72411">
        <ele>160</ele>
        <time>2022-05-24T08:18:03Z</time>
      </trkpt>
      <trkpt lat="44.92197" lon="1.72411">
        <ele>159.9</ele>
        <time>2022-05-24T08:18:04Z</time>
      </trkpt>
      <trkpt lat="44.92197" lon="1.72412">
        <ele>159.8</ele>
        <time>2022-05-24T08:18:05Z</time>
      </trkpt>
      <trkpt lat="44.92197" lon="1.72416">
        <ele>159.4</ele>
        <time>2022-05-24T08:18:06Z</time>
      </trkpt>
      <trkpt lat="44.92196" lon="1.72417">
        <ele>159.2</ele>
        <time>2022-05-24T08:18:07Z</time>
      </trkpt>
      <trkpt lat="44.92195" lon="1.72422">
        <ele>158.6</ele>
        <time>2022-05-24T08:18:08Z</time>
      </trkpt>
      <trkpt lat="44.92195" lon="1.72428">
        <ele>157.7</ele>
        <time>2022-05-24T08:18:09Z</time>
      </trkpt>
      <trkpt lat="44.92194" lon="1.72433">
        <ele>156.9</ele>
        <time>2022-05-24T08:18:10Z</time>
      </trkpt>
      <trkpt lat="44.92193" lon="1.72438">
        <ele>156.1</ele>
        <time>2022-05-24T08:18:11Z</time>
      </trkpt>
      <trkpt lat="44.92192" lon="1.72443">
        <ele>155.1</ele>
        <time>2022-05-24T08:18:12Z</time>
      </trkpt>
      <trkpt lat="44.92192" lon="1.72449">
        <ele>154.1</ele>
        <time>2022-05-24T08:18:13Z</time>
      </trkpt>
      <trkpt lat="44.92191" lon="1.72456">
        <ele>153</ele>
        <time>2022-05-24T08:18:14Z</time>
      </trkpt>
      <trkpt lat="44.9219" lon="1.72462">
        <ele>151.9</ele>
        <time>2022-05-24T08:18:15Z</time>
      </trkpt>
      <trkpt lat="44.92189" lon="1.72469">
        <ele>150.8</ele>
        <time>2022-05-24T08:18:16Z</time>
      </trkpt>
      <trkpt lat="44.92187" lon="1.72475">
        <ele>149.8</ele>
        <time>2022-05-24T08:18:17Z</time>
      </trkpt>
      <trkpt lat="44.92186" lon="1.72481">
        <ele>148.9</ele>
        <time>2022-05-24T08:18:18Z</time>
      </trkpt>
      <trkpt lat="44.92185" lon="1.72487">
        <ele>148.1</ele>
        <time>2022-05-24T08:18:19Z</time>
      </trkpt>
      <trkpt lat="44.92184" lon="1.72493">
        <ele>147.3</ele>
        <time>2022-05-24T08:18:20Z</time>
      </trkpt>
      <trkpt lat="44.92183" lon="1.72498">
        <ele>146.6</ele>
        <time>2022-05-24T08:18:21Z</time>
      </trkpt>
      <trkpt lat="44.92182" lon="1.72504">
        <ele>145.8</ele>
        <time>2022-05-24T08:18:22Z</time>
      </trkpt>
      <trkpt lat="44.92182" lon="1.7251">
        <ele>145</ele>
        <time>2022-05-24T08:18:23Z</time>
      </trkpt>
      <trkpt lat="44.92182" lon="1.72515">
        <ele>144.3</ele>
        <time>2022-05-24T08:18:24Z</time>
      </trkpt>
      <trkpt lat="44.92181" lon="1.72521">
        <ele>143.5</ele>
        <time>2022-05-24T08:18:25Z</time>
      </trkpt>
      <trkpt lat="44.9218" lon="1.72526">
        <ele>142.8</ele>
        <time>2022-05-24T08:18:26Z</time>
      </trkpt>
      <trkpt lat="44.92177" lon="1.7253">
        <ele>142</ele>
        <time>2022-05-24T08:18:27Z</time>
      </trkpt>
      <trkpt lat="44.92177" lon="1.72532">
        <ele>141.7</ele>
        <time>2022-05-24T08:18:28Z</time>
      </trkpt>
      <trkpt lat="44.92176" lon="1.72537">
        <ele>141</ele>
        <time>2022-05-24T08:18:29Z</time>
      </trkpt>
      <trkpt lat="44.92176" lon="1.72539">
        <ele>140.7</ele>
        <time>2022-05-24T08:18:30Z</time>
      </trkpt>
      <trkpt lat="44.92177" lon="1.72544">
        <ele>139.9</ele>
        <time>2022-05-24T08:18:31Z</time>
      </trkpt>
      <trkpt lat="44.92178" lon="1.72546">
        <ele>139.6</ele>
        <time>2022-05-24T08:18:32Z</time>
      </trkpt>
      <trkpt lat="44.92179" lon="1.7255">
        <ele>138.9</ele>
        <time>2022-05-24T08:18:33Z</time>
      </trkpt>
      <trkpt lat="44.92179" lon="1.72551">
        <ele>138.6</ele>
        <time>2022-05-24T08:18:34Z</time>
      </trkpt>
      <trkpt lat="44.92182" lon="1.72554">
        <ele>137.8</ele>
        <time>2022-05-24T08:18:35Z</time>
      </trkpt>
      <trkpt lat="44.92183" lon="1.72555">
        <ele>137.5</ele>
        <time>2022-05-24T08:18:36Z</time>
      </trkpt>
      <trkpt lat="44.92187" lon="1.72557">
        <ele>136.7</ele>
        <time>2022-05-24T08:18:37Z</time>
      </trkpt>
      <trkpt lat="44.9219" lon="1.72559">
        <ele>135.8</ele>
        <time>2022-05-24T08:18:38Z</time>
      </trkpt>
      <trkpt lat="44.92193" lon="1.72561">
        <ele>135</ele>
        <time>2022-05-24T08:18:39Z</time>
      </trkpt>
      <trkpt lat="44.92197" lon="1.72564">
        <ele>134.1</ele>
        <time>2022-05-24T08:18:40Z</time>
      </trkpt>
      <trkpt lat="44.922" lon="1.72567">
        <ele>133.1</ele>
        <time>2022-05-24T08:18:41Z</time>
      </trkpt>
      <trkpt lat="44.92202" lon="1.72571">
        <ele>132.4</ele>
        <time>2022-05-24T08:18:42Z</time>
      </trkpt>
      <trkpt lat="44.922" lon="1.72575">
        <ele>131.5</ele>
        <time>2022-05-24T08:18:43Z</time>
      </trkpt>
      <trkpt lat="44.92199" lon="1.72577">
        <ele>131.2</ele>
        <time>2022-05-24T08:18:44Z</time>
      </trkpt>
      <trkpt lat="44.92196" lon="1.72579">
        <ele>130.5</ele>
        <time>2022-05-24T08:18:45Z</time>
      </trkpt>
      <trkpt lat="44.92193" lon="1.72582">
        <ele>129.6</ele>
        <time>2022-05-24T08:18:46Z</time>
      </trkpt>
      <trkpt lat="44.92189" lon="1.72585">
        <ele>128.7</ele>
        <time>2022-05-24T08:18:47Z</time>
      </trkpt>
      <trkpt lat="44.92186" lon="1.72588">
        <ele>128.5</ele>
        <time>2022-05-24T08:18:48Z</time>
      </trkpt>
      <trkpt lat="44.92184" lon="1.72593">
        <ele>128.3</ele>
        <time>2022-05-24T08:18:49Z</time>
      </trkpt>
      <trkpt lat="44.92182" lon="1.72598">
        <ele>128.2</ele>
        <time>2022-05-24T08:18:50Z</time>
      </trkpt>
      <trkpt lat="44.92181" lon="1.72602">
        <ele>128.2</ele>
        <time>2022-05-24T08:18:51Z</time>
      </trkpt>
      <trkpt lat="44.92178" lon="1.72605">
        <ele>128.3</ele>
        <time>2022-05-24T08:18:52Z</time>
      </trkpt>
      <trkpt lat="44.92177" lon="1.72605">
        <ele>128.4</ele>
        <time>2022-05-24T08:18:53Z</time>
      </trkpt>
      <trkpt lat="44.92174" lon="1.72605">
        <ele>128.7</ele>
        <time>2022-05-24T08:18:54Z</time>
      </trkpt>
      <trkpt lat="44.92173" lon="1.72605">
        <ele>128.8</ele>
        <time>2022-05-24T08:18:55Z</time>
      </trkpt>
      <trkpt lat="44.92172" lon="1.72605">
        <ele>128.8</ele>
        <time>2022-05-24T08:18:56Z</time>
      </trkpt>
      <trkpt lat="44.92172" lon="1.72605">
        <ele>128.9</ele>
        <time>2022-05-24T08:18:57Z</time>
      </trkpt>
      <trkpt lat="44.92172" lon="1.72605">
        <ele>128.9</ele>
        <time>2022-05-24T08:18:58Z</time>
      </trkpt>
      <trkpt lat="44.92172" lon="1.72604">
        <ele>128.9</ele>
        <time>2022-05-24T08:18:59Z</time>
      </trkpt>
      <trkpt lat="44.92172" lon="1.72604">
        <ele>128.9</ele>
        <time>2022-05-24T08:19:00Z</time>
      </trkpt>
      <trkpt lat="44.92172" lon="1.72604">
        <ele>129</ele>
        <time>2022-05-24T08:19:01Z</time>
      </trkpt>
      <trkpt lat="44.92172" lon="1.72603">
        <ele>129</ele>
        <time>2022-05-24T08:19:02Z</time>
      </trkpt>
      <trkpt lat="44.92172" lon="1.72603">
        <ele>129.1</ele>
        <time>2022-05-24T08:19:03Z</time>
      </trkpt>
      <trkpt lat="44.92173" lon="1.72603">
        <ele>129.1</ele>
        <time>2022-05-24T08:19:04Z</time>
      </trkpt>
      <trkpt lat="44.92173" lon="1.72603">
        <ele>129.2</ele>
        <time>2022-05-24T08:19:05Z</time>
      </trkpt>
      <trkpt lat="44.92173" lon="1.72602">
        <ele>129.2</ele>
        <time>2022-05-24T08:19:06Z</time>
      </trkpt>
      <trkpt lat="44.92173" lon="1.72602">
        <ele>129.2</ele>
        <time>2022-05-24T08:19:07Z</time>
      </trkpt>
      <trkpt lat="44.92173" lon="1.72602">
        <ele>129.2</ele>
        <time>2022-05-24T08:19:08Z</time>
      </trkpt>
      <trkpt lat="44.92174" lon="1.72602">
        <ele>129.3</ele>
        <time>2022-05-24T08:19:09Z</time>
      </trkpt>
      <trkpt lat="44.92174" lon="1.72602">
        <ele>129.3</ele>
        <time>2022-05-24T08:19:10Z</time>
      </trkpt>
      <trkpt lat="44.92174" lon="1.72602">
        <ele>129.4</ele>
        <time>2022-05-24T08:19:11Z</time>
      </trkpt>
      <trkpt lat="44.92174" lon="1.72602">
        <ele>129.4</ele>
        <time>2022-05-24T08:19:12Z</time>
      </trkpt>
      <trkpt lat="44.92174" lon="1.72603">
        <ele>129.4</ele>
        <time>2022-05-24T08:19:13Z</time>
      </trkpt>
      <trkpt lat="44.92174" lon="1.72603">
        <ele>129.4</ele>
        <time>2022-05-24T08:19:14Z</time>
      </trkpt>
      <trkpt lat="44.92172" lon="1.72601">
        <ele>129.8</ele>
        <time>2022-05-24T08:19:17Z</time>
      </trkpt>
      <trkpt lat="44.9217" lon="1.726">
        <ele>130.2</ele>
        <time>2022-05-24T08:19:18Z</time>
      </trkpt>
      <trkpt lat="44.92168" lon="1.726">
        <ele>130.4</ele>
        <time>2022-05-24T08:19:19Z</time>
      </trkpt>
      <trkpt lat="44.92167" lon="1.72599">
        <ele>130.8</ele>
        <time>2022-05-24T08:19:20Z</time>
      </trkpt>
      <trkpt lat="44.92165" lon="1.72599">
        <ele>131.1</ele>
        <time>2022-05-24T08:19:21Z</time>
      </trkpt>
      <trkpt lat="44.92162" lon="1.72599">
        <ele>131.6</ele>
        <time>2022-05-24T08:19:22Z</time>
      </trkpt>
      <trkpt lat="44.92161" lon="1.72599">
        <ele>131.8</ele>
        <time>2022-05-24T08:19:23Z</time>
      </trkpt>
      <trkpt lat="44.92159" lon="1.72599">
        <ele>132.3</ele>
        <time>2022-05-24T08:19:24Z</time>
      </trkpt>
      <trkpt lat="44.92157" lon="1.72599">
        <ele>132.5</ele>
        <time>2022-05-24T08:19:25Z</time>
      </trkpt>
      <trkpt lat="44.92154" lon="1.72598">
        <ele>133.1</ele>
        <time>2022-05-24T08:19:26Z</time>
      </trkpt>
      <trkpt lat="44.92153" lon="1.72598">
        <ele>133.3</ele>
        <time>2022-05-24T08:19:27Z</time>
      </trkpt>
      <trkpt lat="44.9215" lon="1.72598">
        <ele>133.9</ele>
        <time>2022-05-24T08:19:28Z</time>
      </trkpt>
      <trkpt lat="44.92149" lon="1.72598">
        <ele>134</ele>
        <time>2022-05-24T08:19:29Z</time>
      </trkpt>
      <trkpt lat="44.92148" lon="1.72598">
        <ele>134.3</ele>
        <time>2022-05-24T08:19:30Z</time>
      </trkpt>
      <trkpt lat="44.92146" lon="1.72598">
        <ele>134.6</ele>
        <time>2022-05-24T08:19:31Z</time>
      </trkpt>
      <trkpt lat="44.92142" lon="1.72599">
        <ele>135.2</ele>
        <time>2022-05-24T08:19:32Z</time>
      </trkpt>
      <trkpt lat="44.92141" lon="1.72599">
        <ele>135.4</ele>
        <time>2022-05-24T08:19:33Z</time>
      </trkpt>
      <trkpt lat="44.92138" lon="1.72601">
        <ele>135.9</ele>
        <time>2022-05-24T08:19:34Z</time>
      </trkpt>
      <trkpt lat="44.92137" lon="1.72602">
        <ele>136</ele>
        <time>2022-05-24T08:19:35Z</time>
      </trkpt>
      <trkpt lat="44.92135" lon="1.72607">
        <ele>136.6</ele>
        <time>2022-05-24T08:19:36Z</time>
      </trkpt>
      <trkpt lat="44.92134" lon="1.72608">
        <ele>136.7</ele>
        <time>2022-05-24T08:19:37Z</time>
      </trkpt>
      <trkpt lat="44.92132" lon="1.72611">
        <ele>137.2</ele>
        <time>2022-05-24T08:19:38Z</time>
      </trkpt>
      <trkpt lat="44.92131" lon="1.72612">
        <ele>137.3</ele>
        <time>2022-05-24T08:19:39Z</time>
      </trkpt>
      <trkpt lat="44.92129" lon="1.72615">
        <ele>137.7</ele>
        <time>2022-05-24T08:19:40Z</time>
      </trkpt>
      <trkpt lat="44.92129" lon="1.72616">
        <ele>137.8</ele>
        <time>2022-05-24T08:19:41Z</time>
      </trkpt>
      <trkpt lat="44.92127" lon="1.7262">
        <ele>138.2</ele>
        <time>2022-05-24T08:19:42Z</time>
      </trkpt>
      <trkpt lat="44.92127" lon="1.72621">
        <ele>138.3</ele>
        <time>2022-05-24T08:19:43Z</time>
      </trkpt>
      <trkpt lat="44.92126" lon="1.72623">
        <ele>138.5</ele>
        <time>2022-05-24T08:19:44Z</time>
      </trkpt>
      <trkpt lat="44.92125" lon="1.72625">
        <ele>138.7</ele>
        <time>2022-05-24T08:19:45Z</time>
      </trkpt>
      <trkpt lat="44.92125" lon="1.72628">
        <ele>139</ele>
        <time>2022-05-24T08:19:46Z</time>
      </trkpt>
      <trkpt lat="44.92124" lon="1.7263">
        <ele>139.2</ele>
        <time>2022-05-24T08:19:47Z</time>
      </trkpt>
      <trkpt lat="44.92123" lon="1.72632">
        <ele>139.3</ele>
        <time>2022-05-24T08:19:48Z</time>
      </trkpt>
      <trkpt lat="44.92123" lon="1.72634">
        <ele>139.5</ele>
        <time>2022-05-24T08:19:49Z</time>
      </trkpt>
      <trkpt lat="44.92122" lon="1.72636">
        <ele>139.7</ele>
        <time>2022-05-24T08:19:50Z</time>
      </trkpt>
      <trkpt lat="44.92121" lon="1.72637">
        <ele>139.8</ele>
        <time>2022-05-24T08:19:51Z</time>
      </trkpt>
      <trkpt lat="44.9212" lon="1.72639">
        <ele>139.9</ele>
        <time>2022-05-24T08:19:52Z</time>
      </trkpt>
      <trkpt lat="44.9212" lon="1.7264">
        <ele>140.1</ele>
        <time>2022-05-24T08:19:53Z</time>
      </trkpt>
      <trkpt lat="44.92119" lon="1.72642">
        <ele>140.2</ele>
        <time>2022-05-24T08:19:54Z</time>
      </trkpt>
      <trkpt lat="44.92118" lon="1.72644">
        <ele>140.4</ele>
        <time>2022-05-24T08:19:55Z</time>
      </trkpt>
      <trkpt lat="44.92118" lon="1.72646">
        <ele>140.5</ele>
        <time>2022-05-24T08:19:56Z</time>
      </trkpt>
      <trkpt lat="44.92117" lon="1.72647">
        <ele>140.6</ele>
        <time>2022-05-24T08:19:57Z</time>
      </trkpt>
      <trkpt lat="44.92115" lon="1.7265">
        <ele>140.8</ele>
        <time>2022-05-24T08:19:58Z</time>
      </trkpt>
      <trkpt lat="44.92114" lon="1.72652">
        <ele>140.9</ele>
        <time>2022-05-24T08:19:59Z</time>
      </trkpt>
      <trkpt lat="44.92112" lon="1.72656">
        <ele>141.2</ele>
        <time>2022-05-24T08:20:00Z</time>
      </trkpt>
      <trkpt lat="44.92111" lon="1.72658">
        <ele>141.3</ele>
        <time>2022-05-24T08:20:01Z</time>
      </trkpt>
      <trkpt lat="44.92109" lon="1.72663">
        <ele>141.5</ele>
        <time>2022-05-24T08:20:02Z</time>
      </trkpt>
      <trkpt lat="44.92109" lon="1.72665">
        <ele>141.5</ele>
        <time>2022-05-24T08:20:03Z</time>
      </trkpt>
      <trkpt lat="44.92108" lon="1.72669">
        <ele>141.6</ele>
        <time>2022-05-24T08:20:04Z</time>
      </trkpt>
      <trkpt lat="44.92107" lon="1.72672">
        <ele>141.7</ele>
        <time>2022-05-24T08:20:05Z</time>
      </trkpt>
      <trkpt lat="44.92106" lon="1.72676">
        <ele>141.8</ele>
        <time>2022-05-24T08:20:06Z</time>
      </trkpt>
      <trkpt lat="44.92106" lon="1.72682">
        <ele>141.9</ele>
        <time>2022-05-24T08:20:07Z</time>
      </trkpt>
      <trkpt lat="44.92106" lon="1.72683">
        <ele>142</ele>
        <time>2022-05-24T08:20:08Z</time>
      </trkpt>
      <trkpt lat="44.92106" lon="1.72688">
        <ele>142.1</ele>
        <time>2022-05-24T08:20:09Z</time>
      </trkpt>
      <trkpt lat="44.92106" lon="1.72692">
        <ele>142.1</ele>
        <time>2022-05-24T08:20:10Z</time>
      </trkpt>
      <trkpt lat="44.92105" lon="1.72697">
        <ele>142.2</ele>
        <time>2022-05-24T08:20:11Z</time>
      </trkpt>
      <trkpt lat="44.92105" lon="1.72702">
        <ele>142.2</ele>
        <time>2022-05-24T08:20:12Z</time>
      </trkpt>
      <trkpt lat="44.92105" lon="1.72707">
        <ele>142.3</ele>
        <time>2022-05-24T08:20:13Z</time>
      </trkpt>
      <trkpt lat="44.92104" lon="1.72712">
        <ele>142.3</ele>
        <time>2022-05-24T08:20:14Z</time>
      </trkpt>
      <trkpt lat="44.92103" lon="1.72717">
        <ele>142.3</ele>
        <time>2022-05-24T08:20:15Z</time>
      </trkpt>
      <trkpt lat="44.92102" lon="1.72723">
        <ele>142.4</ele>
        <time>2022-05-24T08:20:16Z</time>
      </trkpt>
      <trkpt lat="44.92102" lon="1.72728">
        <ele>142.4</ele>
        <time>2022-05-24T08:20:17Z</time>
      </trkpt>
      <trkpt lat="44.92101" lon="1.72734">
        <ele>142.4</ele>
        <time>2022-05-24T08:20:18Z</time>
      </trkpt>
      <trkpt lat="44.921" lon="1.7274">
        <ele>142.5</ele>
        <time>2022-05-24T08:20:19Z</time>
      </trkpt>
      <trkpt lat="44.921" lon="1.72746">
        <ele>142.6</ele>
        <time>2022-05-24T08:20:20Z</time>
      </trkpt>
      <trkpt lat="44.92099" lon="1.72751">
        <ele>142.7</ele>
        <time>2022-05-24T08:20:21Z</time>
      </trkpt>
      <trkpt lat="44.92098" lon="1.72757">
        <ele>142.8</ele>
        <time>2022-05-24T08:20:22Z</time>
      </trkpt>
      <trkpt lat="44.92097" lon="1.72762">
        <ele>142.9</ele>
        <time>2022-05-24T08:20:23Z</time>
      </trkpt>
      <trkpt lat="44.92094" lon="1.72768">
        <ele>143</ele>
        <time>2022-05-24T08:20:24Z</time>
      </trkpt>
      <trkpt lat="44.92091" lon="1.72773">
        <ele>143.1</ele>
        <time>2022-05-24T08:20:25Z</time>
      </trkpt>
      <trkpt lat="44.92088" lon="1.72777">
        <ele>143.2</ele>
        <time>2022-05-24T08:20:26Z</time>
      </trkpt>
      <trkpt lat="44.92085" lon="1.72782">
        <ele>143.3</ele>
        <time>2022-05-24T08:20:27Z</time>
      </trkpt>
      <trkpt lat="44.92082" lon="1.72786">
        <ele>143.4</ele>
        <time>2022-05-24T08:20:28Z</time>
      </trkpt>
      <trkpt lat="44.92079" lon="1.7279">
        <ele>143.4</ele>
        <time>2022-05-24T08:20:29Z</time>
      </trkpt>
      <trkpt lat="44.92077" lon="1.72794">
        <ele>143.5</ele>
        <time>2022-05-24T08:20:30Z</time>
      </trkpt>
      <trkpt lat="44.92074" lon="1.72798">
        <ele>143.6</ele>
        <time>2022-05-24T08:20:31Z</time>
      </trkpt>
      <trkpt lat="44.9207" lon="1.72802">
        <ele>143.7</ele>
        <time>2022-05-24T08:20:32Z</time>
      </trkpt>
      <trkpt lat="44.92068" lon="1.72806">
        <ele>143.8</ele>
        <time>2022-05-24T08:20:33Z</time>
      </trkpt>
      <trkpt lat="44.92065" lon="1.7281">
        <ele>143.9</ele>
        <time>2022-05-24T08:20:34Z</time>
      </trkpt>
      <trkpt lat="44.92063" lon="1.72815">
        <ele>144</ele>
        <time>2022-05-24T08:20:35Z</time>
      </trkpt>
      <trkpt lat="44.92061" lon="1.7282">
        <ele>144.1</ele>
        <time>2022-05-24T08:20:36Z</time>
      </trkpt>
      <trkpt lat="44.92059" lon="1.72825">
        <ele>144.2</ele>
        <time>2022-05-24T08:20:37Z</time>
      </trkpt>
      <trkpt lat="44.92059" lon="1.72831">
        <ele>144.2</ele>
        <time>2022-05-24T08:20:38Z</time>
      </trkpt>
      <trkpt lat="44.9206" lon="1.72839">
        <ele>144.2</ele>
        <time>2022-05-24T08:20:39Z</time>
      </trkpt>
      <trkpt lat="44.9206" lon="1.72845">
        <ele>144.1</ele>
        <time>2022-05-24T08:20:40Z</time>
      </trkpt>
      <trkpt lat="44.92059" lon="1.72851">
        <ele>144</ele>
        <time>2022-05-24T08:20:41Z</time>
      </trkpt>
      <trkpt lat="44.92057" lon="1.72858">
        <ele>143.8</ele>
        <time>2022-05-24T08:20:42Z</time>
      </trkpt>
      <trkpt lat="44.92055" lon="1.72864">
        <ele>143.7</ele>
        <time>2022-05-24T08:20:43Z</time>
      </trkpt>
      <trkpt lat="44.9205" lon="1.72872">
        <ele>143.5</ele>
        <time>2022-05-24T08:20:44Z</time>
      </trkpt>
      <trkpt lat="44.92046" lon="1.72879">
        <ele>143.3</ele>
        <time>2022-05-24T08:20:45Z</time>
      </trkpt>
      <trkpt lat="44.92043" lon="1.72886">
        <ele>143.2</ele>
        <time>2022-05-24T08:20:46Z</time>
      </trkpt>
      <trkpt lat="44.9204" lon="1.72892">
        <ele>143.2</ele>
        <time>2022-05-24T08:20:47Z</time>
      </trkpt>
      <trkpt lat="44.92037" lon="1.72897">
        <ele>143.2</ele>
        <time>2022-05-24T08:20:48Z</time>
      </trkpt>
      <trkpt lat="44.92034" lon="1.72903">
        <ele>143.3</ele>
        <time>2022-05-24T08:20:49Z</time>
      </trkpt>
      <trkpt lat="44.9203" lon="1.72908">
        <ele>143.3</ele>
        <time>2022-05-24T08:20:50Z</time>
      </trkpt>
      <trkpt lat="44.92029" lon="1.72912">
        <ele>143.3</ele>
        <time>2022-05-24T08:20:51Z</time>
      </trkpt>
      <trkpt lat="44.92027" lon="1.72917">
        <ele>143.2</ele>
        <time>2022-05-24T08:20:52Z</time>
      </trkpt>
      <trkpt lat="44.92025" lon="1.72923">
        <ele>143</ele>
        <time>2022-05-24T08:20:53Z</time>
      </trkpt>
      <trkpt lat="44.92024" lon="1.72929">
        <ele>142.7</ele>
        <time>2022-05-24T08:20:54Z</time>
      </trkpt>
      <trkpt lat="44.9202" lon="1.72935">
        <ele>142.4</ele>
        <time>2022-05-24T08:20:55Z</time>
      </trkpt>
      <trkpt lat="44.92017" lon="1.72941">
        <ele>142</ele>
        <time>2022-05-24T08:20:56Z</time>
      </trkpt>
      <trkpt lat="44.92014" lon="1.72947">
        <ele>141.7</ele>
        <time>2022-05-24T08:20:57Z</time>
      </trkpt>
      <trkpt lat="44.9201" lon="1.72954">
        <ele>141.2</ele>
        <time>2022-05-24T08:20:58Z</time>
      </trkpt>
      <trkpt lat="44.92006" lon="1.72961">
        <ele>140.7</ele>
        <time>2022-05-24T08:20:59Z</time>
      </trkpt>
      <trkpt lat="44.92002" lon="1.7297">
        <ele>140.1</ele>
        <time>2022-05-24T08:21:00Z</time>
      </trkpt>
      <trkpt lat="44.91998" lon="1.72978">
        <ele>139.5</ele>
        <time>2022-05-24T08:21:01Z</time>
      </trkpt>
      <trkpt lat="44.91995" lon="1.72987">
        <ele>139</ele>
        <time>2022-05-24T08:21:02Z</time>
      </trkpt>
      <trkpt lat="44.91992" lon="1.72996">
        <ele>138.5</ele>
        <time>2022-05-24T08:21:03Z</time>
      </trkpt>
      <trkpt lat="44.91988" lon="1.73005">
        <ele>138</ele>
        <time>2022-05-24T08:21:04Z</time>
      </trkpt>
      <trkpt lat="44.91985" lon="1.73013">
        <ele>137.5</ele>
        <time>2022-05-24T08:21:05Z</time>
      </trkpt>
      <trkpt lat="44.91982" lon="1.73022">
        <ele>137</ele>
        <time>2022-05-24T08:21:06Z</time>
      </trkpt>
      <trkpt lat="44.91978" lon="1.7303">
        <ele>136.6</ele>
        <time>2022-05-24T08:21:07Z</time>
      </trkpt>
      <trkpt lat="44.91974" lon="1.73038">
        <ele>136.1</ele>
        <time>2022-05-24T08:21:08Z</time>
      </trkpt>
      <trkpt lat="44.9197" lon="1.73046">
        <ele>135.6</ele>
        <time>2022-05-24T08:21:09Z</time>
      </trkpt>
      <trkpt lat="44.91966" lon="1.73054">
        <ele>135.2</ele>
        <time>2022-05-24T08:21:10Z</time>
      </trkpt>
      <trkpt lat="44.91961" lon="1.73061">
        <ele>134.8</ele>
        <time>2022-05-24T08:21:11Z</time>
      </trkpt>
      <trkpt lat="44.91956" lon="1.73068">
        <ele>134.2</ele>
        <time>2022-05-24T08:21:12Z</time>
      </trkpt>
      <trkpt lat="44.91952" lon="1.73075">
        <ele>133.7</ele>
        <time>2022-05-24T08:21:13Z</time>
      </trkpt>
      <trkpt lat="44.91948" lon="1.73082">
        <ele>133.1</ele>
        <time>2022-05-24T08:21:14Z</time>
      </trkpt>
      <trkpt lat="44.91945" lon="1.7309">
        <ele>132.5</ele>
        <time>2022-05-24T08:21:15Z</time>
      </trkpt>
      <trkpt lat="44.91942" lon="1.73098">
        <ele>132.1</ele>
        <time>2022-05-24T08:21:16Z</time>
      </trkpt>
      <trkpt lat="44.91939" lon="1.73104">
        <ele>131.9</ele>
        <time>2022-05-24T08:21:17Z</time>
      </trkpt>
      <trkpt lat="44.91937" lon="1.73111">
        <ele>131.8</ele>
        <time>2022-05-24T08:21:18Z</time>
      </trkpt>
      <trkpt lat="44.91934" lon="1.73118">
        <ele>131.8</ele>
        <time>2022-05-24T08:21:19Z</time>
      </trkpt>
      <trkpt lat="44.91932" lon="1.73125">
        <ele>131.9</ele>
        <time>2022-05-24T08:21:20Z</time>
      </trkpt>
      <trkpt lat="44.9193" lon="1.73131">
        <ele>132.1</ele>
        <time>2022-05-24T08:21:21Z</time>
      </trkpt>
      <trkpt lat="44.91928" lon="1.73137">
        <ele>132.3</ele>
        <time>2022-05-24T08:21:22Z</time>
      </trkpt>
      <trkpt lat="44.91926" lon="1.73143">
        <ele>132.5</ele>
        <time>2022-05-24T08:21:23Z</time>
      </trkpt>
      <trkpt lat="44.91923" lon="1.73147">
        <ele>132.7</ele>
        <time>2022-05-24T08:21:24Z</time>
      </trkpt>
      <trkpt lat="44.91921" lon="1.73152">
        <ele>132.9</ele>
        <time>2022-05-24T08:21:25Z</time>
      </trkpt>
      <trkpt lat="44.91919" lon="1.73156">
        <ele>133</ele>
        <time>2022-05-24T08:21:26Z</time>
      </trkpt>
      <trkpt lat="44.91917" lon="1.73161">
        <ele>133.2</ele>
        <time>2022-05-24T08:21:27Z</time>
      </trkpt>
      <trkpt lat="44.91915" lon="1.73165">
        <ele>133.3</ele>
        <time>2022-05-24T08:21:28Z</time>
      </trkpt>
      <trkpt lat="44.91912" lon="1.73169">
        <ele>133.4</ele>
        <time>2022-05-24T08:21:29Z</time>
      </trkpt>
      <trkpt lat="44.91911" lon="1.73174">
        <ele>133.6</ele>
        <time>2022-05-24T08:21:30Z</time>
      </trkpt>
      <trkpt lat="44.91909" lon="1.73178">
        <ele>133.7</ele>
        <time>2022-05-24T08:21:31Z</time>
      </trkpt>
      <trkpt lat="44.91907" lon="1.73182">
        <ele>133.8</ele>
        <time>2022-05-24T08:21:32Z</time>
      </trkpt>
      <trkpt lat="44.91906" lon="1.73187">
        <ele>133.9</ele>
        <time>2022-05-24T08:21:33Z</time>
      </trkpt>
      <trkpt lat="44.91905" lon="1.73192">
        <ele>134</ele>
        <time>2022-05-24T08:21:34Z</time>
      </trkpt>
      <trkpt lat="44.91905" lon="1.73197">
        <ele>134.1</ele>
        <time>2022-05-24T08:21:35Z</time>
      </trkpt>
      <trkpt lat="44.91906" lon="1.73202">
        <ele>134.2</ele>
        <time>2022-05-24T08:21:36Z</time>
      </trkpt>
      <trkpt lat="44.91908" lon="1.73208">
        <ele>134.3</ele>
        <time>2022-05-24T08:21:37Z</time>
      </trkpt>
      <trkpt lat="44.9191" lon="1.73212">
        <ele>134.4</ele>
        <time>2022-05-24T08:21:38Z</time>
      </trkpt>
      <trkpt lat="44.91911" lon="1.73217">
        <ele>134.5</ele>
        <time>2022-05-24T08:21:39Z</time>
      </trkpt>
      <trkpt lat="44.91911" lon="1.73223">
        <ele>134.5</ele>
        <time>2022-05-24T08:21:40Z</time>
      </trkpt>
      <trkpt lat="44.9191" lon="1.73228">
        <ele>134.6</ele>
        <time>2022-05-24T08:21:41Z</time>
      </trkpt>
      <trkpt lat="44.91907" lon="1.73234">
        <ele>134.6</ele>
        <time>2022-05-24T08:21:42Z</time>
      </trkpt>
      <trkpt lat="44.91902" lon="1.73239">
        <ele>134.7</ele>
        <time>2022-05-24T08:21:43Z</time>
      </trkpt>
      <trkpt lat="44.91899" lon="1.73243">
        <ele>134.8</ele>
        <time>2022-05-24T08:21:44Z</time>
      </trkpt>
      <trkpt lat="44.91896" lon="1.73247">
        <ele>134.8</ele>
        <time>2022-05-24T08:21:45Z</time>
      </trkpt>
      <trkpt lat="44.91893" lon="1.73252">
        <ele>134.9</ele>
        <time>2022-05-24T08:21:46Z</time>
      </trkpt>
      <trkpt lat="44.91889" lon="1.73257">
        <ele>134.9</ele>
        <time>2022-05-24T08:21:47Z</time>
      </trkpt>
      <trkpt lat="44.91885" lon="1.73262">
        <ele>135</ele>
        <time>2022-05-24T08:21:48Z</time>
      </trkpt>
      <trkpt lat="44.91882" lon="1.73267">
        <ele>135.1</ele>
        <time>2022-05-24T08:21:49Z</time>
      </trkpt>
      <trkpt lat="44.9188" lon="1.73273">
        <ele>135.2</ele>
        <time>2022-05-24T08:21:50Z</time>
      </trkpt>
      <trkpt lat="44.91877" lon="1.73278">
        <ele>135.2</ele>
        <time>2022-05-24T08:21:51Z</time>
      </trkpt>
      <trkpt lat="44.91874" lon="1.73283">
        <ele>135.3</ele>
        <time>2022-05-24T08:21:52Z</time>
      </trkpt>
      <trkpt lat="44.91871" lon="1.73289">
        <ele>135.4</ele>
        <time>2022-05-24T08:21:53Z</time>
      </trkpt>
      <trkpt lat="44.91868" lon="1.73294">
        <ele>135.4</ele>
        <time>2022-05-24T08:21:54Z</time>
      </trkpt>
      <trkpt lat="44.91865" lon="1.73299">
        <ele>135.5</ele>
        <time>2022-05-24T08:21:55Z</time>
      </trkpt>
      <trkpt lat="44.91861" lon="1.73303">
        <ele>135.5</ele>
        <time>2022-05-24T08:21:56Z</time>
      </trkpt>
      <trkpt lat="44.91857" lon="1.73307">
        <ele>135.6</ele>
        <time>2022-05-24T08:21:57Z</time>
      </trkpt>
      <trkpt lat="44.91854" lon="1.7331">
        <ele>135.6</ele>
        <time>2022-05-24T08:21:58Z</time>
      </trkpt>
      <trkpt lat="44.9185" lon="1.73314">
        <ele>135.6</ele>
        <time>2022-05-24T08:21:59Z</time>
      </trkpt>
      <trkpt lat="44.91846" lon="1.73318">
        <ele>135.7</ele>
        <time>2022-05-24T08:22:00Z</time>
      </trkpt>
      <trkpt lat="44.91842" lon="1.73321">
        <ele>135.7</ele>
        <time>2022-05-24T08:22:01Z</time>
      </trkpt>
      <trkpt lat="44.91838" lon="1.73324">
        <ele>135.7</ele>
        <time>2022-05-24T08:22:02Z</time>
      </trkpt>
      <trkpt lat="44.91834" lon="1.73327">
        <ele>135.7</ele>
        <time>2022-05-24T08:22:03Z</time>
      </trkpt>
      <trkpt lat="44.9183" lon="1.73331">
        <ele>135.6</ele>
        <time>2022-05-24T08:22:04Z</time>
      </trkpt>
      <trkpt lat="44.91826" lon="1.73334">
        <ele>135.6</ele>
        <time>2022-05-24T08:22:05Z</time>
      </trkpt>
      <trkpt lat="44.91821" lon="1.73338">
        <ele>135.6</ele>
        <time>2022-05-24T08:22:06Z</time>
      </trkpt>
      <trkpt lat="44.91816" lon="1.73341">
        <ele>135.6</ele>
        <time>2022-05-24T08:22:07Z</time>
      </trkpt>
      <trkpt lat="44.91812" lon="1.73344">
        <ele>135.6</ele>
        <time>2022-05-24T08:22:08Z</time>
      </trkpt>
      <trkpt lat="44.91807" lon="1.73346">
        <ele>135.6</ele>
        <time>2022-05-24T08:22:09Z</time>
      </trkpt>
      <trkpt lat="44.91802" lon="1.73349">
        <ele>135.6</ele>
        <time>2022-05-24T08:22:10Z</time>
      </trkpt>
      <trkpt lat="44.91797" lon="1.73351">
        <ele>135.6</ele>
        <time>2022-05-24T08:22:11Z</time>
      </trkpt>
      <trkpt lat="44.91793" lon="1.73354">
        <ele>135.6</ele>
        <time>2022-05-24T08:22:12Z</time>
      </trkpt>
      <trkpt lat="44.91789" lon="1.73357">
        <ele>135.7</ele>
        <time>2022-05-24T08:22:13Z</time>
      </trkpt>
      <trkpt lat="44.91784" lon="1.73361">
        <ele>135.8</ele>
        <time>2022-05-24T08:22:14Z</time>
      </trkpt>
      <trkpt lat="44.9178" lon="1.73366">
        <ele>135.9</ele>
        <time>2022-05-24T08:22:15Z</time>
      </trkpt>
      <trkpt lat="44.91776" lon="1.7337">
        <ele>136</ele>
        <time>2022-05-24T08:22:16Z</time>
      </trkpt>
      <trkpt lat="44.91773" lon="1.73375">
        <ele>136.1</ele>
        <time>2022-05-24T08:22:17Z</time>
      </trkpt>
      <trkpt lat="44.91769" lon="1.7338">
        <ele>136.2</ele>
        <time>2022-05-24T08:22:18Z</time>
      </trkpt>
      <trkpt lat="44.91765" lon="1.73386">
        <ele>136.3</ele>
        <time>2022-05-24T08:22:19Z</time>
      </trkpt>
      <trkpt lat="44.91762" lon="1.73391">
        <ele>136.4</ele>
        <time>2022-05-24T08:22:20Z</time>
      </trkpt>
      <trkpt lat="44.91758" lon="1.73396">
        <ele>136.6</ele>
        <time>2022-05-24T08:22:21Z</time>
      </trkpt>
      <trkpt lat="44.91755" lon="1.73401">
        <ele>136.7</ele>
        <time>2022-05-24T08:22:22Z</time>
      </trkpt>
      <trkpt lat="44.91751" lon="1.73405">
        <ele>136.9</ele>
        <time>2022-05-24T08:22:23Z</time>
      </trkpt>
      <trkpt lat="44.91748" lon="1.7341">
        <ele>137</ele>
        <time>2022-05-24T08:22:24Z</time>
      </trkpt>
      <trkpt lat="44.91746" lon="1.73415">
        <ele>137.2</ele>
        <time>2022-05-24T08:22:25Z</time>
      </trkpt>
      <trkpt lat="44.91742" lon="1.7342">
        <ele>137.4</ele>
        <time>2022-05-24T08:22:26Z</time>
      </trkpt>
      <trkpt lat="44.91739" lon="1.73424">
        <ele>137.6</ele>
        <time>2022-05-24T08:22:27Z</time>
      </trkpt>
      <trkpt lat="44.91737" lon="1.73428">
        <ele>137.7</ele>
        <time>2022-05-24T08:22:28Z</time>
      </trkpt>
      <trkpt lat="44.91734" lon="1.73432">
        <ele>137.9</ele>
        <time>2022-05-24T08:22:29Z</time>
      </trkpt>
      <trkpt lat="44.91731" lon="1.73436">
        <ele>138.1</ele>
        <time>2022-05-24T08:22:30Z</time>
      </trkpt>
      <trkpt lat="44.91726" lon="1.73443">
        <ele>138.4</ele>
        <time>2022-05-24T08:22:32Z</time>
      </trkpt>
      <trkpt lat="44.91722" lon="1.73445">
        <ele>138.6</ele>
        <time>2022-05-24T08:22:33Z</time>
      </trkpt>
      <trkpt lat="44.91721" lon="1.73445">
        <ele>138.7</ele>
        <time>2022-05-24T08:22:34Z</time>
      </trkpt>
      <trkpt lat="44.91718" lon="1.73447">
        <ele>138.9</ele>
        <time>2022-05-24T08:22:35Z</time>
      </trkpt>
      <trkpt lat="44.91714" lon="1.73453">
        <ele>139.1</ele>
        <time>2022-05-24T08:22:36Z</time>
      </trkpt>
      <trkpt lat="44.91713" lon="1.73459">
        <ele>139.2</ele>
        <time>2022-05-24T08:22:37Z</time>
      </trkpt>
      <trkpt lat="44.91712" lon="1.73466">
        <ele>139.1</ele>
        <time>2022-05-24T08:22:38Z</time>
      </trkpt>
      <trkpt lat="44.91712" lon="1.73473">
        <ele>139</ele>
        <time>2022-05-24T08:22:39Z</time>
      </trkpt>
      <trkpt lat="44.91711" lon="1.7348">
        <ele>138.9</ele>
        <time>2022-05-24T08:22:40Z</time>
      </trkpt>
      <trkpt lat="44.91712" lon="1.73488">
        <ele>138.8</ele>
        <time>2022-05-24T08:22:41Z</time>
      </trkpt>
      <trkpt lat="44.91712" lon="1.73496">
        <ele>138.7</ele>
        <time>2022-05-24T08:22:42Z</time>
      </trkpt>
      <trkpt lat="44.91712" lon="1.73504">
        <ele>138.6</ele>
        <time>2022-05-24T08:22:43Z</time>
      </trkpt>
      <trkpt lat="44.91712" lon="1.73512">
        <ele>138.5</ele>
        <time>2022-05-24T08:22:44Z</time>
      </trkpt>
      <trkpt lat="44.91712" lon="1.7352">
        <ele>138.3</ele>
        <time>2022-05-24T08:22:45Z</time>
      </trkpt>
      <trkpt lat="44.91711" lon="1.73528">
        <ele>138.2</ele>
        <time>2022-05-24T08:22:46Z</time>
      </trkpt>
      <trkpt lat="44.91711" lon="1.73536">
        <ele>138.1</ele>
        <time>2022-05-24T08:22:47Z</time>
      </trkpt>
      <trkpt lat="44.91709" lon="1.73545">
        <ele>138</ele>
        <time>2022-05-24T08:22:48Z</time>
      </trkpt>
      <trkpt lat="44.91707" lon="1.73554">
        <ele>137.8</ele>
        <time>2022-05-24T08:22:49Z</time>
      </trkpt>
      <trkpt lat="44.91704" lon="1.73562">
        <ele>137.6</ele>
        <time>2022-05-24T08:22:50Z</time>
      </trkpt>
      <trkpt lat="44.91701" lon="1.7357">
        <ele>137.4</ele>
        <time>2022-05-24T08:22:51Z</time>
      </trkpt>
      <trkpt lat="44.91697" lon="1.73578">
        <ele>137.2</ele>
        <time>2022-05-24T08:22:52Z</time>
      </trkpt>
      <trkpt lat="44.91693" lon="1.73586">
        <ele>136.9</ele>
        <time>2022-05-24T08:22:53Z</time>
      </trkpt>
      <trkpt lat="44.91688" lon="1.73593">
        <ele>136.7</ele>
        <time>2022-05-24T08:22:54Z</time>
      </trkpt>
      <trkpt lat="44.91683" lon="1.73599">
        <ele>136.5</ele>
        <time>2022-05-24T08:22:55Z</time>
      </trkpt>
      <trkpt lat="44.91677" lon="1.73606">
        <ele>136.2</ele>
        <time>2022-05-24T08:22:56Z</time>
      </trkpt>
      <trkpt lat="44.91672" lon="1.73613">
        <ele>136</ele>
        <time>2022-05-24T08:22:57Z</time>
      </trkpt>
      <trkpt lat="44.91666" lon="1.7362">
        <ele>135.7</ele>
        <time>2022-05-24T08:22:58Z</time>
      </trkpt>
      <trkpt lat="44.91661" lon="1.73626">
        <ele>135.5</ele>
        <time>2022-05-24T08:22:59Z</time>
      </trkpt>
      <trkpt lat="44.91656" lon="1.73633">
        <ele>135.3</ele>
        <time>2022-05-24T08:23:00Z</time>
      </trkpt>
      <trkpt lat="44.91651" lon="1.73639">
        <ele>135.1</ele>
        <time>2022-05-24T08:23:01Z</time>
      </trkpt>
      <trkpt lat="44.91645" lon="1.73646">
        <ele>134.9</ele>
        <time>2022-05-24T08:23:02Z</time>
      </trkpt>
      <trkpt lat="44.91639" lon="1.73653">
        <ele>134.6</ele>
        <time>2022-05-24T08:23:03Z</time>
      </trkpt>
      <trkpt lat="44.91632" lon="1.73658">
        <ele>134.4</ele>
        <time>2022-05-24T08:23:04Z</time>
      </trkpt>
      <trkpt lat="44.91625" lon="1.73663">
        <ele>134.1</ele>
        <time>2022-05-24T08:23:05Z</time>
      </trkpt>
      <trkpt lat="44.91619" lon="1.73668">
        <ele>133.9</ele>
        <time>2022-05-24T08:23:06Z</time>
      </trkpt>
      <trkpt lat="44.91612" lon="1.73673">
        <ele>133.6</ele>
        <time>2022-05-24T08:23:07Z</time>
      </trkpt>
      <trkpt lat="44.91604" lon="1.73678">
        <ele>133.3</ele>
        <time>2022-05-24T08:23:08Z</time>
      </trkpt>
      <trkpt lat="44.91597" lon="1.73683">
        <ele>133.1</ele>
        <time>2022-05-24T08:23:09Z</time>
      </trkpt>
      <trkpt lat="44.9159" lon="1.73689">
        <ele>132.8</ele>
        <time>2022-05-24T08:23:10Z</time>
      </trkpt>
      <trkpt lat="44.91583" lon="1.73695">
        <ele>132.5</ele>
        <time>2022-05-24T08:23:11Z</time>
      </trkpt>
      <trkpt lat="44.91577" lon="1.73701">
        <ele>132.2</ele>
        <time>2022-05-24T08:23:12Z</time>
      </trkpt>
      <trkpt lat="44.91571" lon="1.73707">
        <ele>131.9</ele>
        <time>2022-05-24T08:23:13Z</time>
      </trkpt>
      <trkpt lat="44.91565" lon="1.73713">
        <ele>131.6</ele>
        <time>2022-05-24T08:23:14Z</time>
      </trkpt>
      <trkpt lat="44.91559" lon="1.73719">
        <ele>131.3</ele>
        <time>2022-05-24T08:23:15Z</time>
      </trkpt>
      <trkpt lat="44.91552" lon="1.73726">
        <ele>131</ele>
        <time>2022-05-24T08:23:16Z</time>
      </trkpt>
      <trkpt lat="44.91547" lon="1.73731">
        <ele>130.7</ele>
        <time>2022-05-24T08:23:17Z</time>
      </trkpt>
      <trkpt lat="44.91541" lon="1.73737">
        <ele>130.5</ele>
        <time>2022-05-24T08:23:18Z</time>
      </trkpt>
      <trkpt lat="44.91536" lon="1.73744">
        <ele>130.3</ele>
        <time>2022-05-24T08:23:19Z</time>
      </trkpt>
      <trkpt lat="44.9153" lon="1.7375">
        <ele>130</ele>
        <time>2022-05-24T08:23:20Z</time>
      </trkpt>
      <trkpt lat="44.91522" lon="1.73756">
        <ele>129.7</ele>
        <time>2022-05-24T08:23:21Z</time>
      </trkpt>
      <trkpt lat="44.91516" lon="1.7376">
        <ele>129.4</ele>
        <time>2022-05-24T08:23:22Z</time>
      </trkpt>
      <trkpt lat="44.91508" lon="1.73765">
        <ele>129.1</ele>
        <time>2022-05-24T08:23:23Z</time>
      </trkpt>
      <trkpt lat="44.91502" lon="1.73769">
        <ele>128.8</ele>
        <time>2022-05-24T08:23:24Z</time>
      </trkpt>
      <trkpt lat="44.91494" lon="1.73772">
        <ele>128.4</ele>
        <time>2022-05-24T08:23:25Z</time>
      </trkpt>
      <trkpt lat="44.91485" lon="1.73774">
        <ele>128.1</ele>
        <time>2022-05-24T08:23:26Z</time>
      </trkpt>
      <trkpt lat="44.91476" lon="1.73776">
        <ele>127.8</ele>
        <time>2022-05-24T08:23:27Z</time>
      </trkpt>
      <trkpt lat="44.91467" lon="1.73778">
        <ele>127.5</ele>
        <time>2022-05-24T08:23:28Z</time>
      </trkpt>
      <trkpt lat="44.91459" lon="1.73779">
        <ele>127.2</ele>
        <time>2022-05-24T08:23:29Z</time>
      </trkpt>
      <trkpt lat="44.91449" lon="1.73781">
        <ele>126.9</ele>
        <time>2022-05-24T08:23:30Z</time>
      </trkpt>
      <trkpt lat="44.9144" lon="1.73782">
        <ele>126.6</ele>
        <time>2022-05-24T08:23:31Z</time>
      </trkpt>
      <trkpt lat="44.91432" lon="1.73786">
        <ele>126.4</ele>
        <time>2022-05-24T08:23:32Z</time>
      </trkpt>
      <trkpt lat="44.91423" lon="1.73789">
        <ele>126.2</ele>
        <time>2022-05-24T08:23:33Z</time>
      </trkpt>
      <trkpt lat="44.91416" lon="1.73792">
        <ele>126.1</ele>
        <time>2022-05-24T08:23:34Z</time>
      </trkpt>
      <trkpt lat="44.91409" lon="1.73795">
        <ele>126</ele>
        <time>2022-05-24T08:23:35Z</time>
      </trkpt>
      <trkpt lat="44.91401" lon="1.73798">
        <ele>125.8</ele>
        <time>2022-05-24T08:23:36Z</time>
      </trkpt>
      <trkpt lat="44.91393" lon="1.73801">
        <ele>125.7</ele>
        <time>2022-05-24T08:23:37Z</time>
      </trkpt>
      <trkpt lat="44.91386" lon="1.73804">
        <ele>125.5</ele>
        <time>2022-05-24T08:23:38Z</time>
      </trkpt>
      <trkpt lat="44.91381" lon="1.73807">
        <ele>125.4</ele>
        <time>2022-05-24T08:23:39Z</time>
      </trkpt>
      <trkpt lat="44.91374" lon="1.7381">
        <ele>125.3</ele>
        <time>2022-05-24T08:23:40Z</time>
      </trkpt>
      <trkpt lat="44.91368" lon="1.73814">
        <ele>125.3</ele>
        <time>2022-05-24T08:23:41Z</time>
      </trkpt>
      <trkpt lat="44.91361" lon="1.73817">
        <ele>125.2</ele>
        <time>2022-05-24T08:23:42Z</time>
      </trkpt>
      <trkpt lat="44.91355" lon="1.73821">
        <ele>125.1</ele>
        <time>2022-05-24T08:23:43Z</time>
      </trkpt>
      <trkpt lat="44.91348" lon="1.73826">
        <ele>125</ele>
        <time>2022-05-24T08:23:44Z</time>
      </trkpt>
      <trkpt lat="44.91341" lon="1.73831">
        <ele>125</ele>
        <time>2022-05-24T08:23:45Z</time>
      </trkpt>
      <trkpt lat="44.91334" lon="1.73834">
        <ele>125.2</ele>
        <time>2022-05-24T08:23:46Z</time>
      </trkpt>
      <trkpt lat="44.91328" lon="1.73838">
        <ele>125.4</ele>
        <time>2022-05-24T08:23:47Z</time>
      </trkpt>
      <trkpt lat="44.91321" lon="1.73842">
        <ele>125.6</ele>
        <time>2022-05-24T08:23:48Z</time>
      </trkpt>
      <trkpt lat="44.91314" lon="1.73845">
        <ele>125.8</ele>
        <time>2022-05-24T08:23:49Z</time>
      </trkpt>
      <trkpt lat="44.9131" lon="1.73846">
        <ele>125.9</ele>
        <time>2022-05-24T08:23:50Z</time>
      </trkpt>
      <trkpt lat="44.91306" lon="1.73845">
        <ele>126.1</ele>
        <time>2022-05-24T08:23:51Z</time>
      </trkpt>
      <trkpt lat="44.91303" lon="1.73843">
        <ele>126.2</ele>
        <time>2022-05-24T08:23:52Z</time>
      </trkpt>
      <trkpt lat="44.91301" lon="1.73843">
        <ele>126.3</ele>
        <time>2022-05-24T08:23:53Z</time>
      </trkpt>
      <trkpt lat="44.91301" lon="1.73844">
        <ele>126.3</ele>
        <time>2022-05-24T08:23:54Z</time>
      </trkpt>
      <trkpt lat="44.91302" lon="1.73847">
        <ele>126.3</ele>
        <time>2022-05-24T08:23:55Z</time>
      </trkpt>
      <trkpt lat="44.91302" lon="1.73851">
        <ele>126.4</ele>
        <time>2022-05-24T08:23:56Z</time>
      </trkpt>
      <trkpt lat="44.91301" lon="1.73856">
        <ele>126.4</ele>
        <time>2022-05-24T08:23:57Z</time>
      </trkpt>
      <trkpt lat="44.91299" lon="1.73859">
        <ele>126.5</ele>
        <time>2022-05-24T08:23:58Z</time>
      </trkpt>
      <trkpt lat="44.91295" lon="1.73862">
        <ele>126.6</ele>
        <time>2022-05-24T08:23:59Z</time>
      </trkpt>
      <trkpt lat="44.91292" lon="1.73865">
        <ele>126.7</ele>
        <time>2022-05-24T08:24:00Z</time>
      </trkpt>
      <trkpt lat="44.91288" lon="1.73867">
        <ele>126.7</ele>
        <time>2022-05-24T08:24:01Z</time>
      </trkpt>
      <trkpt lat="44.91284" lon="1.7387">
        <ele>126.8</ele>
        <time>2022-05-24T08:24:02Z</time>
      </trkpt>
      <trkpt lat="44.9128" lon="1.73872">
        <ele>126.9</ele>
        <time>2022-05-24T08:24:03Z</time>
      </trkpt>
      <trkpt lat="44.91276" lon="1.73875">
        <ele>127</ele>
        <time>2022-05-24T08:24:04Z</time>
      </trkpt>
      <trkpt lat="44.91272" lon="1.73875">
        <ele>127.1</ele>
        <time>2022-05-24T08:24:05Z</time>
      </trkpt>
      <trkpt lat="44.91267" lon="1.73874">
        <ele>127.2</ele>
        <time>2022-05-24T08:24:06Z</time>
      </trkpt>
      <trkpt lat="44.91263" lon="1.73873">
        <ele>127.3</ele>
        <time>2022-05-24T08:24:07Z</time>
      </trkpt>
      <trkpt lat="44.91257" lon="1.73871">
        <ele>127.4</ele>
        <time>2022-05-24T08:24:08Z</time>
      </trkpt>
      <trkpt lat="44.91252" lon="1.73871">
        <ele>127.5</ele>
        <time>2022-05-24T08:24:09Z</time>
      </trkpt>
      <trkpt lat="44.91248" lon="1.73871">
        <ele>127.7</ele>
        <time>2022-05-24T08:24:10Z</time>
      </trkpt>
      <trkpt lat="44.91244" lon="1.73872">
        <ele>127.8</ele>
        <time>2022-05-24T08:24:11Z</time>
      </trkpt>
      <trkpt lat="44.9124" lon="1.73873">
        <ele>128</ele>
        <time>2022-05-24T08:24:12Z</time>
      </trkpt>
      <trkpt lat="44.91236" lon="1.73875">
        <ele>128.1</ele>
        <time>2022-05-24T08:24:13Z</time>
      </trkpt>
      <trkpt lat="44.91231" lon="1.73876">
        <ele>128.4</ele>
        <time>2022-05-24T08:24:14Z</time>
      </trkpt>
      <trkpt lat="44.91227" lon="1.73878">
        <ele>128.6</ele>
        <time>2022-05-24T08:24:15Z</time>
      </trkpt>
      <trkpt lat="44.91223" lon="1.73879">
        <ele>128.8</ele>
        <time>2022-05-24T08:24:16Z</time>
      </trkpt>
      <trkpt lat="44.91219" lon="1.73879">
        <ele>129.1</ele>
        <time>2022-05-24T08:24:17Z</time>
      </trkpt>
      <trkpt lat="44.91215" lon="1.7388">
        <ele>129.3</ele>
        <time>2022-05-24T08:24:18Z</time>
      </trkpt>
      <trkpt lat="44.91211" lon="1.73881">
        <ele>129.6</ele>
        <time>2022-05-24T08:24:19Z</time>
      </trkpt>
      <trkpt lat="44.91207" lon="1.73881">
        <ele>129.8</ele>
        <time>2022-05-24T08:24:20Z</time>
      </trkpt>
      <trkpt lat="44.91203" lon="1.73881">
        <ele>130.1</ele>
        <time>2022-05-24T08:24:21Z</time>
      </trkpt>
      <trkpt lat="44.91198" lon="1.73882">
        <ele>130.4</ele>
        <time>2022-05-24T08:24:22Z</time>
      </trkpt>
      <trkpt lat="44.91193" lon="1.73882">
        <ele>130.8</ele>
        <time>2022-05-24T08:24:23Z</time>
      </trkpt>
      <trkpt lat="44.91189" lon="1.73882">
        <ele>130.9</ele>
        <time>2022-05-24T08:24:24Z</time>
      </trkpt>
      <trkpt lat="44.91186" lon="1.73881">
        <ele>131</ele>
        <time>2022-05-24T08:24:25Z</time>
      </trkpt>
      <trkpt lat="44.91183" lon="1.73879">
        <ele>131.2</ele>
        <time>2022-05-24T08:24:26Z</time>
      </trkpt>
      <trkpt lat="44.91182" lon="1.73879">
        <ele>131.2</ele>
        <time>2022-05-24T08:24:27Z</time>
      </trkpt>
      <trkpt lat="44.91181" lon="1.73877">
        <ele>131.3</ele>
        <time>2022-05-24T08:24:28Z</time>
      </trkpt>
      <trkpt lat="44.9118" lon="1.73875">
        <ele>131.3</ele>
        <time>2022-05-24T08:24:29Z</time>
      </trkpt>
      <trkpt lat="44.9118" lon="1.73875">
        <ele>131.3</ele>
        <time>2022-05-24T08:24:30Z</time>
      </trkpt>
      <trkpt lat="44.91181" lon="1.73876">
        <ele>131.2</ele>
        <time>2022-05-24T08:24:31Z</time>
      </trkpt>
      <trkpt lat="44.91181" lon="1.73877">
        <ele>131.2</ele>
        <time>2022-05-24T08:24:32Z</time>
      </trkpt>
      <trkpt lat="44.91182" lon="1.73878">
        <ele>131.2</ele>
        <time>2022-05-24T08:24:33Z</time>
      </trkpt>
      <trkpt lat="44.91183" lon="1.73879">
        <ele>131.1</ele>
        <time>2022-05-24T08:24:34Z</time>
      </trkpt>
      <trkpt lat="44.91186" lon="1.7388">
        <ele>131</ele>
        <time>2022-05-24T08:24:35Z</time>
      </trkpt>
      <trkpt lat="44.9119" lon="1.73879">
        <ele>130.9</ele>
        <time>2022-05-24T08:24:36Z</time>
      </trkpt>
      <trkpt lat="44.91191" lon="1.73878">
        <ele>130.8</ele>
        <time>2022-05-24T08:24:37Z</time>
      </trkpt>
      <trkpt lat="44.91193" lon="1.73875">
        <ele>131</ele>
        <time>2022-05-24T08:24:38Z</time>
      </trkpt>
      <trkpt lat="44.91194" lon="1.7387">
        <ele>131.2</ele>
        <time>2022-05-24T08:24:39Z</time>
      </trkpt>
      <trkpt lat="44.91194" lon="1.73864">
        <ele>131.3</ele>
        <time>2022-05-24T08:24:40Z</time>
      </trkpt>
      <trkpt lat="44.91194" lon="1.7386">
        <ele>131.5</ele>
        <time>2022-05-24T08:24:41Z</time>
      </trkpt>
      <trkpt lat="44.91194" lon="1.73855">
        <ele>131.6</ele>
        <time>2022-05-24T08:24:42Z</time>
      </trkpt>
      <trkpt lat="44.91195" lon="1.7385">
        <ele>131.8</ele>
        <time>2022-05-24T08:24:43Z</time>
      </trkpt>
      <trkpt lat="44.91197" lon="1.73846">
        <ele>131.9</ele>
        <time>2022-05-24T08:24:44Z</time>
      </trkpt>
      <trkpt lat="44.91198" lon="1.73841">
        <ele>132.1</ele>
        <time>2022-05-24T08:24:45Z</time>
      </trkpt>
      <trkpt lat="44.91199" lon="1.73836">
        <ele>132.3</ele>
        <time>2022-05-24T08:24:46Z</time>
      </trkpt>
      <trkpt lat="44.91199" lon="1.73831">
        <ele>132.4</ele>
        <time>2022-05-24T08:24:47Z</time>
      </trkpt>
      <trkpt lat="44.91198" lon="1.73826">
        <ele>132.6</ele>
        <time>2022-05-24T08:24:48Z</time>
      </trkpt>
      <trkpt lat="44.91189" lon="1.73813">
        <ele>133.2</ele>
        <time>2022-05-24T08:24:53Z</time>
      </trkpt>
      <trkpt lat="44.91183" lon="1.7381">
        <ele>133.6</ele>
        <time>2022-05-24T08:24:54Z</time>
      </trkpt>
      <trkpt lat="44.91177" lon="1.73806">
        <ele>133.9</ele>
        <time>2022-05-24T08:24:55Z</time>
      </trkpt>
      <trkpt lat="44.91172" lon="1.73804">
        <ele>134.2</ele>
        <time>2022-05-24T08:24:56Z</time>
      </trkpt>
      <trkpt lat="44.91168" lon="1.73801">
        <ele>134.5</ele>
        <time>2022-05-24T08:24:57Z</time>
      </trkpt>
      <trkpt lat="44.91164" lon="1.73799">
        <ele>134.7</ele>
        <time>2022-05-24T08:24:58Z</time>
      </trkpt>
      <trkpt lat="44.91161" lon="1.73797">
        <ele>134.9</ele>
        <time>2022-05-24T08:24:59Z</time>
      </trkpt>
      <trkpt lat="44.91158" lon="1.73795">
        <ele>135.1</ele>
        <time>2022-05-24T08:25:00Z</time>
      </trkpt>
      <trkpt lat="44.91155" lon="1.73793">
        <ele>135.3</ele>
        <time>2022-05-24T08:25:01Z</time>
      </trkpt>
      <trkpt lat="44.91153" lon="1.73791">
        <ele>135.5</ele>
        <time>2022-05-24T08:25:02Z</time>
      </trkpt>
      <trkpt lat="44.9115" lon="1.73789">
        <ele>135.7</ele>
        <time>2022-05-24T08:25:03Z</time>
      </trkpt>
      <trkpt lat="44.91147" lon="1.73787">
        <ele>135.8</ele>
        <time>2022-05-24T08:25:04Z</time>
      </trkpt>
      <trkpt lat="44.91144" lon="1.73786">
        <ele>136</ele>
        <time>2022-05-24T08:25:05Z</time>
      </trkpt>
      <trkpt lat="44.91141" lon="1.73785">
        <ele>136.2</ele>
        <time>2022-05-24T08:25:06Z</time>
      </trkpt>
      <trkpt lat="44.91138" lon="1.73783">
        <ele>136.4</ele>
        <time>2022-05-24T08:25:07Z</time>
      </trkpt>
      <trkpt lat="44.91136" lon="1.73782">
        <ele>136.5</ele>
        <time>2022-05-24T08:25:08Z</time>
      </trkpt>
      <trkpt lat="44.91133" lon="1.73781">
        <ele>136.7</ele>
        <time>2022-05-24T08:25:09Z</time>
      </trkpt>
      <trkpt lat="44.9113" lon="1.7378">
        <ele>136.9</ele>
        <time>2022-05-24T08:25:10Z</time>
      </trkpt>
      <trkpt lat="44.91127" lon="1.73778">
        <ele>137.1</ele>
        <time>2022-05-24T08:25:11Z</time>
      </trkpt>
      <trkpt lat="44.91124" lon="1.73777">
        <ele>137.2</ele>
        <time>2022-05-24T08:25:12Z</time>
      </trkpt>
      <trkpt lat="44.91121" lon="1.73775">
        <ele>137.4</ele>
        <time>2022-05-24T08:25:13Z</time>
      </trkpt>
      <trkpt lat="44.91119" lon="1.73774">
        <ele>137.6</ele>
        <time>2022-05-24T08:25:14Z</time>
      </trkpt>
      <trkpt lat="44.91116" lon="1.73773">
        <ele>137.8</ele>
        <time>2022-05-24T08:25:15Z</time>
      </trkpt>
      <trkpt lat="44.91113" lon="1.73771">
        <ele>138</ele>
        <time>2022-05-24T08:25:16Z</time>
      </trkpt>
      <trkpt lat="44.91109" lon="1.7377">
        <ele>138.3</ele>
        <time>2022-05-24T08:25:17Z</time>
      </trkpt>
      <trkpt lat="44.91106" lon="1.73769">
        <ele>138.5</ele>
        <time>2022-05-24T08:25:18Z</time>
      </trkpt>
      <trkpt lat="44.91103" lon="1.73768">
        <ele>138.7</ele>
        <time>2022-05-24T08:25:19Z</time>
      </trkpt>
      <trkpt lat="44.911" lon="1.73768">
        <ele>138.9</ele>
        <time>2022-05-24T08:25:20Z</time>
      </trkpt>
      <trkpt lat="44.91097" lon="1.73767">
        <ele>139.1</ele>
        <time>2022-05-24T08:25:21Z</time>
      </trkpt>
      <trkpt lat="44.91094" lon="1.73766">
        <ele>139.3</ele>
        <time>2022-05-24T08:25:22Z</time>
      </trkpt>
      <trkpt lat="44.9109" lon="1.73766">
        <ele>139.6</ele>
        <time>2022-05-24T08:25:23Z</time>
      </trkpt>
      <trkpt lat="44.91089" lon="1.73766">
        <ele>139.7</ele>
        <time>2022-05-24T08:25:24Z</time>
      </trkpt>
      <trkpt lat="44.91086" lon="1.73766">
        <ele>139.9</ele>
        <time>2022-05-24T08:25:25Z</time>
      </trkpt>
      <trkpt lat="44.91083" lon="1.73766">
        <ele>140.2</ele>
        <time>2022-05-24T08:25:26Z</time>
      </trkpt>
      <trkpt lat="44.91079" lon="1.73766">
        <ele>140.5</ele>
        <time>2022-05-24T08:25:27Z</time>
      </trkpt>
      <trkpt lat="44.91076" lon="1.73766">
        <ele>140.8</ele>
        <time>2022-05-24T08:25:28Z</time>
      </trkpt>
      <trkpt lat="44.91072" lon="1.73765">
        <ele>141.2</ele>
        <time>2022-05-24T08:25:29Z</time>
      </trkpt>
      <trkpt lat="44.91069" lon="1.73765">
        <ele>141.5</ele>
        <time>2022-05-24T08:25:30Z</time>
      </trkpt>
      <trkpt lat="44.91066" lon="1.73764">
        <ele>141.9</ele>
        <time>2022-05-24T08:25:31Z</time>
      </trkpt>
      <trkpt lat="44.91063" lon="1.73764">
        <ele>142.2</ele>
        <time>2022-05-24T08:25:32Z</time>
      </trkpt>
      <trkpt lat="44.9106" lon="1.73763">
        <ele>142.6</ele>
        <time>2022-05-24T08:25:33Z</time>
      </trkpt>
      <trkpt lat="44.91057" lon="1.73762">
        <ele>142.9</ele>
        <time>2022-05-24T08:25:34Z</time>
      </trkpt>
      <trkpt lat="44.91055" lon="1.73761">
        <ele>143.2</ele>
        <time>2022-05-24T08:25:35Z</time>
      </trkpt>
      <trkpt lat="44.91052" lon="1.7376">
        <ele>143.6</ele>
        <time>2022-05-24T08:25:36Z</time>
      </trkpt>
      <trkpt lat="44.91049" lon="1.73759">
        <ele>143.9</ele>
        <time>2022-05-24T08:25:37Z</time>
      </trkpt>
      <trkpt lat="44.91046" lon="1.73758">
        <ele>144.3</ele>
        <time>2022-05-24T08:25:38Z</time>
      </trkpt>
      <trkpt lat="44.91043" lon="1.73756">
        <ele>144.8</ele>
        <time>2022-05-24T08:25:39Z</time>
      </trkpt>
      <trkpt lat="44.91042" lon="1.73756">
        <ele>144.9</ele>
        <time>2022-05-24T08:25:40Z</time>
      </trkpt>
      <trkpt lat="44.91038" lon="1.73754">
        <ele>145.4</ele>
        <time>2022-05-24T08:25:41Z</time>
      </trkpt>
      <trkpt lat="44.91037" lon="1.73754">
        <ele>145.6</ele>
        <time>2022-05-24T08:25:42Z</time>
      </trkpt>
      <trkpt lat="44.91034" lon="1.73752">
        <ele>146.1</ele>
        <time>2022-05-24T08:25:43Z</time>
      </trkpt>
      <trkpt lat="44.91033" lon="1.73751">
        <ele>146.3</ele>
        <time>2022-05-24T08:25:44Z</time>
      </trkpt>
      <trkpt lat="44.9103" lon="1.7375">
        <ele>146.9</ele>
        <time>2022-05-24T08:25:45Z</time>
      </trkpt>
      <trkpt lat="44.91029" lon="1.7375">
        <ele>147</ele>
        <time>2022-05-24T08:25:46Z</time>
      </trkpt>
      <trkpt lat="44.91026" lon="1.73749">
        <ele>147.6</ele>
        <time>2022-05-24T08:25:47Z</time>
      </trkpt>
      <trkpt lat="44.91025" lon="1.73749">
        <ele>147.8</ele>
        <time>2022-05-24T08:25:48Z</time>
      </trkpt>
      <trkpt lat="44.91023" lon="1.73748">
        <ele>148.1</ele>
        <time>2022-05-24T08:25:49Z</time>
      </trkpt>
      <trkpt lat="44.91022" lon="1.73748">
        <ele>148.3</ele>
        <time>2022-05-24T08:25:50Z</time>
      </trkpt>
      <trkpt lat="44.91021" lon="1.7375">
        <ele>148.7</ele>
        <time>2022-05-24T08:25:51Z</time>
      </trkpt>
      <trkpt lat="44.9102" lon="1.73751">
        <ele>148.8</ele>
        <time>2022-05-24T08:25:52Z</time>
      </trkpt>
      <trkpt lat="44.91019" lon="1.73752">
        <ele>149</ele>
        <time>2022-05-24T08:25:53Z</time>
      </trkpt>
      <trkpt lat="44.91018" lon="1.73754">
        <ele>149.4</ele>
        <time>2022-05-24T08:25:54Z</time>
      </trkpt>
      <trkpt lat="44.91017" lon="1.73755">
        <ele>149.7</ele>
        <time>2022-05-24T08:25:55Z</time>
      </trkpt>
      <trkpt lat="44.91016" lon="1.73758">
        <ele>150</ele>
        <time>2022-05-24T08:25:56Z</time>
      </trkpt>
      <trkpt lat="44.91015" lon="1.7376">
        <ele>150.2</ele>
        <time>2022-05-24T08:25:57Z</time>
      </trkpt>
      <trkpt lat="44.91015" lon="1.73761">
        <ele>150.4</ele>
        <time>2022-05-24T08:25:58Z</time>
      </trkpt>
      <trkpt lat="44.91014" lon="1.73763">
        <ele>150.6</ele>
        <time>2022-05-24T08:25:59Z</time>
      </trkpt>
      <trkpt lat="44.91013" lon="1.73764">
        <ele>150.8</ele>
        <time>2022-05-24T08:26:00Z</time>
      </trkpt>
      <trkpt lat="44.91012" lon="1.73765">
        <ele>151.1</ele>
        <time>2022-05-24T08:26:01Z</time>
      </trkpt>
      <trkpt lat="44.9101" lon="1.73765">
        <ele>151.4</ele>
        <time>2022-05-24T08:26:02Z</time>
      </trkpt>
      <trkpt lat="44.91009" lon="1.73766">
        <ele>151.6</ele>
        <time>2022-05-24T08:26:03Z</time>
      </trkpt>
      <trkpt lat="44.91007" lon="1.73766">
        <ele>151.9</ele>
        <time>2022-05-24T08:26:04Z</time>
      </trkpt>
      <trkpt lat="44.91004" lon="1.73766">
        <ele>152.5</ele>
        <time>2022-05-24T08:26:05Z</time>
      </trkpt>
      <trkpt lat="44.91003" lon="1.73766">
        <ele>152.6</ele>
        <time>2022-05-24T08:26:06Z</time>
      </trkpt>
      <trkpt lat="44.91001" lon="1.73765">
        <ele>152.9</ele>
        <time>2022-05-24T08:26:07Z</time>
      </trkpt>
      <trkpt lat="44.90999" lon="1.73764">
        <ele>153.2</ele>
        <time>2022-05-24T08:26:08Z</time>
      </trkpt>
      <trkpt lat="44.90997" lon="1.73762">
        <ele>153.6</ele>
        <time>2022-05-24T08:26:09Z</time>
      </trkpt>
      <trkpt lat="44.90996" lon="1.73762">
        <ele>153.7</ele>
        <time>2022-05-24T08:26:10Z</time>
      </trkpt>
      <trkpt lat="44.90994" lon="1.73761">
        <ele>154</ele>
        <time>2022-05-24T08:26:11Z</time>
      </trkpt>
      <trkpt lat="44.90993" lon="1.7376">
        <ele>154.1</ele>
        <time>2022-05-24T08:26:12Z</time>
      </trkpt>
      <trkpt lat="44.90992" lon="1.7376">
        <ele>154.2</ele>
        <time>2022-05-24T08:26:13Z</time>
      </trkpt>
      <trkpt lat="44.9099" lon="1.7376">
        <ele>154.5</ele>
        <time>2022-05-24T08:26:14Z</time>
      </trkpt>
      <trkpt lat="44.90989" lon="1.73759">
        <ele>154.7</ele>
        <time>2022-05-24T08:26:15Z</time>
      </trkpt>
      <trkpt lat="44.90988" lon="1.73758">
        <ele>154.8</ele>
        <time>2022-05-24T08:26:16Z</time>
      </trkpt>
      <trkpt lat="44.90986" lon="1.73758">
        <ele>155.1</ele>
        <time>2022-05-24T08:26:17Z</time>
      </trkpt>
      <trkpt lat="44.90984" lon="1.73758">
        <ele>155.2</ele>
        <time>2022-05-24T08:26:18Z</time>
      </trkpt>
      <trkpt lat="44.90983" lon="1.73757">
        <ele>155.4</ele>
        <time>2022-05-24T08:26:19Z</time>
      </trkpt>
      <trkpt lat="44.90981" lon="1.73757">
        <ele>155.6</ele>
        <time>2022-05-24T08:26:20Z</time>
      </trkpt>
      <trkpt lat="44.9098" lon="1.73757">
        <ele>155.7</ele>
        <time>2022-05-24T08:26:21Z</time>
      </trkpt>
      <trkpt lat="44.90978" lon="1.73757">
        <ele>155.8</ele>
        <time>2022-05-24T08:26:22Z</time>
      </trkpt>
      <trkpt lat="44.90975" lon="1.73757">
        <ele>156.2</ele>
        <time>2022-05-24T08:26:23Z</time>
      </trkpt>
      <trkpt lat="44.90974" lon="1.73756">
        <ele>156.3</ele>
        <time>2022-05-24T08:26:24Z</time>
      </trkpt>
      <trkpt lat="44.90971" lon="1.73755">
        <ele>156.6</ele>
        <time>2022-05-24T08:26:25Z</time>
      </trkpt>
      <trkpt lat="44.9097" lon="1.73754">
        <ele>156.7</ele>
        <time>2022-05-24T08:26:26Z</time>
      </trkpt>
      <trkpt lat="44.90967" lon="1.73752">
        <ele>157</ele>
        <time>2022-05-24T08:26:27Z</time>
      </trkpt>
      <trkpt lat="44.90965" lon="1.7375">
        <ele>157.3</ele>
        <time>2022-05-24T08:26:28Z</time>
      </trkpt>
      <trkpt lat="44.90964" lon="1.7375">
        <ele>157.3</ele>
        <time>2022-05-24T08:26:29Z</time>
      </trkpt>
      <trkpt lat="44.90962" lon="1.73749">
        <ele>157.5</ele>
        <time>2022-05-24T08:26:30Z</time>
      </trkpt>
      <trkpt lat="44.90961" lon="1.73748">
        <ele>157.7</ele>
        <time>2022-05-24T08:26:31Z</time>
      </trkpt>
      <trkpt lat="44.90959" lon="1.73748">
        <ele>157.8</ele>
        <time>2022-05-24T08:26:32Z</time>
      </trkpt>
      <trkpt lat="44.90956" lon="1.73746">
        <ele>158</ele>
        <time>2022-05-24T08:26:33Z</time>
      </trkpt>
      <trkpt lat="44.90955" lon="1.73745">
        <ele>158.1</ele>
        <time>2022-05-24T08:26:34Z</time>
      </trkpt>
      <trkpt lat="44.90954" lon="1.73745">
        <ele>158.2</ele>
        <time>2022-05-24T08:26:35Z</time>
      </trkpt>
      <trkpt lat="44.90953" lon="1.73744">
        <ele>158.3</ele>
        <time>2022-05-24T08:26:36Z</time>
      </trkpt>
      <trkpt lat="44.9095" lon="1.73744">
        <ele>158.5</ele>
        <time>2022-05-24T08:26:37Z</time>
      </trkpt>
      <trkpt lat="44.90949" lon="1.73744">
        <ele>158.6</ele>
        <time>2022-05-24T08:26:38Z</time>
      </trkpt>
      <trkpt lat="44.90946" lon="1.73743">
        <ele>158.8</ele>
        <time>2022-05-24T08:26:39Z</time>
      </trkpt>
      <trkpt lat="44.90945" lon="1.73743">
        <ele>158.9</ele>
        <time>2022-05-24T08:26:40Z</time>
      </trkpt>
      <trkpt lat="44.90942" lon="1.73743">
        <ele>159.2</ele>
        <time>2022-05-24T08:26:41Z</time>
      </trkpt>
      <trkpt lat="44.90941" lon="1.73743">
        <ele>159.3</ele>
        <time>2022-05-24T08:26:42Z</time>
      </trkpt>
      <trkpt lat="44.90938" lon="1.73742">
        <ele>159.5</ele>
        <time>2022-05-24T08:26:43Z</time>
      </trkpt>
      <trkpt lat="44.90937" lon="1.73742">
        <ele>159.6</ele>
        <time>2022-05-24T08:26:44Z</time>
      </trkpt>
      <trkpt lat="44.90933" lon="1.73741">
        <ele>159.9</ele>
        <time>2022-05-24T08:26:45Z</time>
      </trkpt>
      <trkpt lat="44.90932" lon="1.73741">
        <ele>159.9</ele>
        <time>2022-05-24T08:26:46Z</time>
      </trkpt>
      <trkpt lat="44.90929" lon="1.7374">
        <ele>160.2</ele>
        <time>2022-05-24T08:26:47Z</time>
      </trkpt>
      <trkpt lat="44.90927" lon="1.7374">
        <ele>160.4</ele>
        <time>2022-05-24T08:26:48Z</time>
      </trkpt>
      <trkpt lat="44.90923" lon="1.73739">
        <ele>160.7</ele>
        <time>2022-05-24T08:26:49Z</time>
      </trkpt>
      <trkpt lat="44.90922" lon="1.73738">
        <ele>160.8</ele>
        <time>2022-05-24T08:26:50Z</time>
      </trkpt>
      <trkpt lat="44.90919" lon="1.73738">
        <ele>161.1</ele>
        <time>2022-05-24T08:26:51Z</time>
      </trkpt>
      <trkpt lat="44.90918" lon="1.73738">
        <ele>161.2</ele>
        <time>2022-05-24T08:26:52Z</time>
      </trkpt>
      <trkpt lat="44.90915" lon="1.73738">
        <ele>161.5</ele>
        <time>2022-05-24T08:26:53Z</time>
      </trkpt>
      <trkpt lat="44.90912" lon="1.73739">
        <ele>161.9</ele>
        <time>2022-05-24T08:26:54Z</time>
      </trkpt>
      <trkpt lat="44.90911" lon="1.73739">
        <ele>162</ele>
        <time>2022-05-24T08:26:55Z</time>
      </trkpt>
      <trkpt lat="44.90907" lon="1.73739">
        <ele>162.5</ele>
        <time>2022-05-24T08:26:56Z</time>
      </trkpt>
      <trkpt lat="44.90906" lon="1.73739">
        <ele>162.6</ele>
        <time>2022-05-24T08:26:57Z</time>
      </trkpt>
      <trkpt lat="44.90903" lon="1.73739">
        <ele>163</ele>
        <time>2022-05-24T08:26:58Z</time>
      </trkpt>
      <trkpt lat="44.909" lon="1.73739">
        <ele>163.3</ele>
        <time>2022-05-24T08:26:59Z</time>
      </trkpt>
      <trkpt lat="44.90897" lon="1.73739">
        <ele>163.7</ele>
        <time>2022-05-24T08:27:00Z</time>
      </trkpt>
      <trkpt lat="44.90895" lon="1.73739">
        <ele>164.1</ele>
        <time>2022-05-24T08:27:01Z</time>
      </trkpt>
      <trkpt lat="44.90893" lon="1.73738">
        <ele>164.3</ele>
        <time>2022-05-24T08:27:02Z</time>
      </trkpt>
      <trkpt lat="44.90891" lon="1.73738">
        <ele>164.5</ele>
        <time>2022-05-24T08:27:03Z</time>
      </trkpt>
      <trkpt lat="44.90888" lon="1.73737">
        <ele>165</ele>
        <time>2022-05-24T08:27:04Z</time>
      </trkpt>
      <trkpt lat="44.90887" lon="1.73737">
        <ele>165.2</ele>
        <time>2022-05-24T08:27:05Z</time>
      </trkpt>
      <trkpt lat="44.90884" lon="1.73736">
        <ele>165.6</ele>
        <time>2022-05-24T08:27:06Z</time>
      </trkpt>
      <trkpt lat="44.90883" lon="1.73736">
        <ele>165.7</ele>
        <time>2022-05-24T08:27:07Z</time>
      </trkpt>
      <trkpt lat="44.90881" lon="1.73735">
        <ele>166</ele>
        <time>2022-05-24T08:27:08Z</time>
      </trkpt>
      <trkpt lat="44.9088" lon="1.73734">
        <ele>166.2</ele>
        <time>2022-05-24T08:27:09Z</time>
      </trkpt>
      <trkpt lat="44.90878" lon="1.73733">
        <ele>166.5</ele>
        <time>2022-05-24T08:27:10Z</time>
      </trkpt>
      <trkpt lat="44.90877" lon="1.73733">
        <ele>166.7</ele>
        <time>2022-05-24T08:27:11Z</time>
      </trkpt>
      <trkpt lat="44.90874" lon="1.73732">
        <ele>167.1</ele>
        <time>2022-05-24T08:27:12Z</time>
      </trkpt>
      <trkpt lat="44.90873" lon="1.73732">
        <ele>167.3</ele>
        <time>2022-05-24T08:27:13Z</time>
      </trkpt>
      <trkpt lat="44.90871" lon="1.73731">
        <ele>167.5</ele>
        <time>2022-05-24T08:27:14Z</time>
      </trkpt>
      <trkpt lat="44.9087" lon="1.7373">
        <ele>167.7</ele>
        <time>2022-05-24T08:27:15Z</time>
      </trkpt>
      <trkpt lat="44.90869" lon="1.73729">
        <ele>168</ele>
        <time>2022-05-24T08:27:16Z</time>
      </trkpt>
      <trkpt lat="44.90867" lon="1.73728">
        <ele>168.2</ele>
        <time>2022-05-24T08:27:17Z</time>
      </trkpt>
      <trkpt lat="44.90866" lon="1.73727">
        <ele>168.4</ele>
        <time>2022-05-24T08:27:18Z</time>
      </trkpt>
      <trkpt lat="44.90865" lon="1.73726">
        <ele>168.6</ele>
        <time>2022-05-24T08:27:19Z</time>
      </trkpt>
      <trkpt lat="44.90864" lon="1.73725">
        <ele>168.8</ele>
        <time>2022-05-24T08:27:20Z</time>
      </trkpt>
      <trkpt lat="44.90863" lon="1.73724">
        <ele>169</ele>
        <time>2022-05-24T08:27:21Z</time>
      </trkpt>
      <trkpt lat="44.90861" lon="1.73722">
        <ele>169.2</ele>
        <time>2022-05-24T08:27:22Z</time>
      </trkpt>
      <trkpt lat="44.9086" lon="1.7372">
        <ele>169.5</ele>
        <time>2022-05-24T08:27:23Z</time>
      </trkpt>
      <trkpt lat="44.90859" lon="1.7372">
        <ele>169.7</ele>
        <time>2022-05-24T08:27:24Z</time>
      </trkpt>
      <trkpt lat="44.90858" lon="1.73719">
        <ele>169.9</ele>
        <time>2022-05-24T08:27:25Z</time>
      </trkpt>
      <trkpt lat="44.90855" lon="1.73717">
        <ele>170.4</ele>
        <time>2022-05-24T08:27:26Z</time>
      </trkpt>
      <trkpt lat="44.90854" lon="1.73716">
        <ele>170.5</ele>
        <time>2022-05-24T08:27:27Z</time>
      </trkpt>
      <trkpt lat="44.90852" lon="1.73714">
        <ele>171</ele>
        <time>2022-05-24T08:27:28Z</time>
      </trkpt>
      <trkpt lat="44.90851" lon="1.73714">
        <ele>171.2</ele>
        <time>2022-05-24T08:27:29Z</time>
      </trkpt>
      <trkpt lat="44.90848" lon="1.73713">
        <ele>171.7</ele>
        <time>2022-05-24T08:27:30Z</time>
      </trkpt>
      <trkpt lat="44.90847" lon="1.73713">
        <ele>171.9</ele>
        <time>2022-05-24T08:27:31Z</time>
      </trkpt>
      <trkpt lat="44.90845" lon="1.73713">
        <ele>172.2</ele>
        <time>2022-05-24T08:27:32Z</time>
      </trkpt>
      <trkpt lat="44.90844" lon="1.73712">
        <ele>172.5</ele>
        <time>2022-05-24T08:27:33Z</time>
      </trkpt>
      <trkpt lat="44.90842" lon="1.73711">
        <ele>172.8</ele>
        <time>2022-05-24T08:27:34Z</time>
      </trkpt>
      <trkpt lat="44.90841" lon="1.7371">
        <ele>173</ele>
        <time>2022-05-24T08:27:35Z</time>
      </trkpt>
      <trkpt lat="44.9084" lon="1.7371">
        <ele>173.3</ele>
        <time>2022-05-24T08:27:36Z</time>
      </trkpt>
      <trkpt lat="44.90839" lon="1.73709">
        <ele>173.6</ele>
        <time>2022-05-24T08:27:37Z</time>
      </trkpt>
      <trkpt lat="44.90836" lon="1.73707">
        <ele>174.2</ele>
        <time>2022-05-24T08:27:38Z</time>
      </trkpt>
      <trkpt lat="44.90835" lon="1.73706">
        <ele>174.5</ele>
        <time>2022-05-24T08:27:39Z</time>
      </trkpt>
      <trkpt lat="44.90833" lon="1.73706">
        <ele>174.9</ele>
        <time>2022-05-24T08:27:40Z</time>
      </trkpt>
      <trkpt lat="44.90832" lon="1.73705">
        <ele>175.3</ele>
        <time>2022-05-24T08:27:41Z</time>
      </trkpt>
      <trkpt lat="44.9083" lon="1.73705">
        <ele>175.7</ele>
        <time>2022-05-24T08:27:42Z</time>
      </trkpt>
      <trkpt lat="44.90829" lon="1.73705">
        <ele>176</ele>
        <time>2022-05-24T08:27:43Z</time>
      </trkpt>
      <trkpt lat="44.90827" lon="1.73704">
        <ele>176.5</ele>
        <time>2022-05-24T08:27:44Z</time>
      </trkpt>
      <trkpt lat="44.90826" lon="1.73704">
        <ele>176.7</ele>
        <time>2022-05-24T08:27:45Z</time>
      </trkpt>
      <trkpt lat="44.90825" lon="1.73704">
        <ele>177</ele>
        <time>2022-05-24T08:27:46Z</time>
      </trkpt>
      <trkpt lat="44.90824" lon="1.73703">
        <ele>177.3</ele>
        <time>2022-05-24T08:27:47Z</time>
      </trkpt>
      <trkpt lat="44.90822" lon="1.73703">
        <ele>177.6</ele>
        <time>2022-05-24T08:27:48Z</time>
      </trkpt>
      <trkpt lat="44.90821" lon="1.73703">
        <ele>177.9</ele>
        <time>2022-05-24T08:27:49Z</time>
      </trkpt>
      <trkpt lat="44.90819" lon="1.73702">
        <ele>178.3</ele>
        <time>2022-05-24T08:27:50Z</time>
      </trkpt>
      <trkpt lat="44.90818" lon="1.73702">
        <ele>178.6</ele>
        <time>2022-05-24T08:27:51Z</time>
      </trkpt>
      <trkpt lat="44.90817" lon="1.73702">
        <ele>178.9</ele>
        <time>2022-05-24T08:27:52Z</time>
      </trkpt>
      <trkpt lat="44.90815" lon="1.73702">
        <ele>179.4</ele>
        <time>2022-05-24T08:27:53Z</time>
      </trkpt>
      <trkpt lat="44.90813" lon="1.73702">
        <ele>179.7</ele>
        <time>2022-05-24T08:27:54Z</time>
      </trkpt>
      <trkpt lat="44.90811" lon="1.73702">
        <ele>180.2</ele>
        <time>2022-05-24T08:27:55Z</time>
      </trkpt>
      <trkpt lat="44.9081" lon="1.73701">
        <ele>180.4</ele>
        <time>2022-05-24T08:27:56Z</time>
      </trkpt>
      <trkpt lat="44.90809" lon="1.73701">
        <ele>180.6</ele>
        <time>2022-05-24T08:27:57Z</time>
      </trkpt>
      <trkpt lat="44.90808" lon="1.73701">
        <ele>180.8</ele>
        <time>2022-05-24T08:27:58Z</time>
      </trkpt>
      <trkpt lat="44.90807" lon="1.73701">
        <ele>181</ele>
        <time>2022-05-24T08:27:59Z</time>
      </trkpt>
      <trkpt lat="44.90807" lon="1.73701">
        <ele>181.2</ele>
        <time>2022-05-24T08:28:00Z</time>
      </trkpt>
      <trkpt lat="44.90805" lon="1.73702">
        <ele>181.4</ele>
        <time>2022-05-24T08:28:01Z</time>
      </trkpt>
      <trkpt lat="44.90804" lon="1.73702">
        <ele>181.6</ele>
        <time>2022-05-24T08:28:02Z</time>
      </trkpt>
      <trkpt lat="44.90803" lon="1.73702">
        <ele>181.8</ele>
        <time>2022-05-24T08:28:03Z</time>
      </trkpt>
      <trkpt lat="44.90802" lon="1.73702">
        <ele>182.1</ele>
        <time>2022-05-24T08:28:04Z</time>
      </trkpt>
      <trkpt lat="44.908" lon="1.73702">
        <ele>182.4</ele>
        <time>2022-05-24T08:28:05Z</time>
      </trkpt>
      <trkpt lat="44.90797" lon="1.73703">
        <ele>182.8</ele>
        <time>2022-05-24T08:28:06Z</time>
      </trkpt>
      <trkpt lat="44.90797" lon="1.73704">
        <ele>183</ele>
        <time>2022-05-24T08:28:07Z</time>
      </trkpt>
      <trkpt lat="44.90795" lon="1.73704">
        <ele>183.2</ele>
        <time>2022-05-24T08:28:08Z</time>
      </trkpt>
      <trkpt lat="44.90794" lon="1.73705">
        <ele>183.5</ele>
        <time>2022-05-24T08:28:09Z</time>
      </trkpt>
      <trkpt lat="44.90792" lon="1.73705">
        <ele>183.7</ele>
        <time>2022-05-24T08:28:10Z</time>
      </trkpt>
      <trkpt lat="44.90791" lon="1.73705">
        <ele>184</ele>
        <time>2022-05-24T08:28:11Z</time>
      </trkpt>
      <trkpt lat="44.9079" lon="1.73705">
        <ele>184.1</ele>
        <time>2022-05-24T08:28:12Z</time>
      </trkpt>
      <trkpt lat="44.90789" lon="1.73704">
        <ele>184.3</ele>
        <time>2022-05-24T08:28:13Z</time>
      </trkpt>
      <trkpt lat="44.90788" lon="1.73704">
        <ele>184.4</ele>
        <time>2022-05-24T08:28:14Z</time>
      </trkpt>
      <trkpt lat="44.90786" lon="1.73703">
        <ele>184.8</ele>
        <time>2022-05-24T08:28:15Z</time>
      </trkpt>
      <trkpt lat="44.90785" lon="1.73703">
        <ele>184.9</ele>
        <time>2022-05-24T08:28:16Z</time>
      </trkpt>
      <trkpt lat="44.90784" lon="1.73703">
        <ele>185</ele>
        <time>2022-05-24T08:28:17Z</time>
      </trkpt>
      <trkpt lat="44.90783" lon="1.73703">
        <ele>185.3</ele>
        <time>2022-05-24T08:28:18Z</time>
      </trkpt>
      <trkpt lat="44.90781" lon="1.73704">
        <ele>185.5</ele>
        <time>2022-05-24T08:28:19Z</time>
      </trkpt>
      <trkpt lat="44.90781" lon="1.73705">
        <ele>185.6</ele>
        <time>2022-05-24T08:28:20Z</time>
      </trkpt>
      <trkpt lat="44.9078" lon="1.73705">
        <ele>185.7</ele>
        <time>2022-05-24T08:28:21Z</time>
      </trkpt>
      <trkpt lat="44.9078" lon="1.73705">
        <ele>185.8</ele>
        <time>2022-05-24T08:28:22Z</time>
      </trkpt>
      <trkpt lat="44.90778" lon="1.73706">
        <ele>186</ele>
        <time>2022-05-24T08:28:23Z</time>
      </trkpt>
      <trkpt lat="44.90776" lon="1.73707">
        <ele>186.3</ele>
        <time>2022-05-24T08:28:24Z</time>
      </trkpt>
      <trkpt lat="44.90776" lon="1.73707">
        <ele>186.4</ele>
        <time>2022-05-24T08:28:25Z</time>
      </trkpt>
      <trkpt lat="44.90775" lon="1.73708">
        <ele>186.5</ele>
        <time>2022-05-24T08:28:26Z</time>
      </trkpt>
      <trkpt lat="44.90773" lon="1.73708">
        <ele>186.7</ele>
        <time>2022-05-24T08:28:27Z</time>
      </trkpt>
      <trkpt lat="44.90772" lon="1.73708">
        <ele>186.9</ele>
        <time>2022-05-24T08:28:28Z</time>
      </trkpt>
      <trkpt lat="44.90771" lon="1.73708">
        <ele>187.1</ele>
        <time>2022-05-24T08:28:29Z</time>
      </trkpt>
      <trkpt lat="44.9077" lon="1.73708">
        <ele>187.2</ele>
        <time>2022-05-24T08:28:30Z</time>
      </trkpt>
      <trkpt lat="44.90769" lon="1.73708">
        <ele>187.4</ele>
        <time>2022-05-24T08:28:31Z</time>
      </trkpt>
      <trkpt lat="44.90768" lon="1.73708">
        <ele>187.5</ele>
        <time>2022-05-24T08:28:32Z</time>
      </trkpt>
      <trkpt lat="44.90767" lon="1.73708">
        <ele>187.6</ele>
        <time>2022-05-24T08:28:33Z</time>
      </trkpt>
      <trkpt lat="44.90766" lon="1.73707">
        <ele>187.8</ele>
        <time>2022-05-24T08:28:34Z</time>
      </trkpt>
      <trkpt lat="44.90765" lon="1.73707">
        <ele>187.9</ele>
        <time>2022-05-24T08:28:35Z</time>
      </trkpt>
      <trkpt lat="44.90763" lon="1.73708">
        <ele>188</ele>
        <time>2022-05-24T08:28:36Z</time>
      </trkpt>
      <trkpt lat="44.90762" lon="1.73708">
        <ele>188.2</ele>
        <time>2022-05-24T08:28:37Z</time>
      </trkpt>
      <trkpt lat="44.9076" lon="1.73708">
        <ele>188.4</ele>
        <time>2022-05-24T08:28:38Z</time>
      </trkpt>
      <trkpt lat="44.9076" lon="1.73708">
        <ele>188.5</ele>
        <time>2022-05-24T08:28:39Z</time>
      </trkpt>
      <trkpt lat="44.90759" lon="1.73707">
        <ele>188.6</ele>
        <time>2022-05-24T08:28:40Z</time>
      </trkpt>
      <trkpt lat="44.90757" lon="1.73707">
        <ele>188.8</ele>
        <time>2022-05-24T08:28:41Z</time>
      </trkpt>
      <trkpt lat="44.90756" lon="1.73707">
        <ele>188.9</ele>
        <time>2022-05-24T08:28:42Z</time>
      </trkpt>
      <trkpt lat="44.90755" lon="1.73708">
        <ele>189</ele>
        <time>2022-05-24T08:28:43Z</time>
      </trkpt>
      <trkpt lat="44.90754" lon="1.73707">
        <ele>189.1</ele>
        <time>2022-05-24T08:28:44Z</time>
      </trkpt>
      <trkpt lat="44.90752" lon="1.73707">
        <ele>189.2</ele>
        <time>2022-05-24T08:28:45Z</time>
      </trkpt>
      <trkpt lat="44.9075" lon="1.73706">
        <ele>189.5</ele>
        <time>2022-05-24T08:28:46Z</time>
      </trkpt>
      <trkpt lat="44.90749" lon="1.73706">
        <ele>189.6</ele>
        <time>2022-05-24T08:28:47Z</time>
      </trkpt>
      <trkpt lat="44.90747" lon="1.73705">
        <ele>189.8</ele>
        <time>2022-05-24T08:28:48Z</time>
      </trkpt>
      <trkpt lat="44.90745" lon="1.73705">
        <ele>189.9</ele>
        <time>2022-05-24T08:28:49Z</time>
      </trkpt>
      <trkpt lat="44.90744" lon="1.73704">
        <ele>190.1</ele>
        <time>2022-05-24T08:28:50Z</time>
      </trkpt>
      <trkpt lat="44.90742" lon="1.73704">
        <ele>190.1</ele>
        <time>2022-05-24T08:28:51Z</time>
      </trkpt>
      <trkpt lat="44.90742" lon="1.73704">
        <ele>190.2</ele>
        <time>2022-05-24T08:28:52Z</time>
      </trkpt>
      <trkpt lat="44.90741" lon="1.73704">
        <ele>190.3</ele>
        <time>2022-05-24T08:28:53Z</time>
      </trkpt>
      <trkpt lat="44.90739" lon="1.73704">
        <ele>190.4</ele>
        <time>2022-05-24T08:28:54Z</time>
      </trkpt>
      <trkpt lat="44.90736" lon="1.73703">
        <ele>190.6</ele>
        <time>2022-05-24T08:28:55Z</time>
      </trkpt>
      <trkpt lat="44.90735" lon="1.73703">
        <ele>190.7</ele>
        <time>2022-05-24T08:28:56Z</time>
      </trkpt>
      <trkpt lat="44.90731" lon="1.73704">
        <ele>190.9</ele>
        <time>2022-05-24T08:28:57Z</time>
      </trkpt>
      <trkpt lat="44.9073" lon="1.73704">
        <ele>191</ele>
        <time>2022-05-24T08:28:58Z</time>
      </trkpt>
      <trkpt lat="44.90727" lon="1.73705">
        <ele>191.2</ele>
        <time>2022-05-24T08:28:59Z</time>
      </trkpt>
      <trkpt lat="44.90724" lon="1.73706">
        <ele>191.3</ele>
        <time>2022-05-24T08:29:00Z</time>
      </trkpt>
      <trkpt lat="44.9072" lon="1.73706">
        <ele>191.5</ele>
        <time>2022-05-24T08:29:01Z</time>
      </trkpt>
      <trkpt lat="44.90719" lon="1.73706">
        <ele>191.6</ele>
        <time>2022-05-24T08:29:02Z</time>
      </trkpt>
      <trkpt lat="44.90715" lon="1.73706">
        <ele>191.7</ele>
        <time>2022-05-24T08:29:03Z</time>
      </trkpt>
      <trkpt lat="44.90712" lon="1.73706">
        <ele>191.9</ele>
        <time>2022-05-24T08:29:04Z</time>
      </trkpt>
      <trkpt lat="44.90707" lon="1.73706">
        <ele>192.1</ele>
        <time>2022-05-24T08:29:05Z</time>
      </trkpt>
      <trkpt lat="44.90703" lon="1.73706">
        <ele>192.4</ele>
        <time>2022-05-24T08:29:06Z</time>
      </trkpt>
      <trkpt lat="44.90699" lon="1.73706">
        <ele>192.6</ele>
        <time>2022-05-24T08:29:07Z</time>
      </trkpt>
      <trkpt lat="44.90695" lon="1.73706">
        <ele>192.9</ele>
        <time>2022-05-24T08:29:08Z</time>
      </trkpt>
      <trkpt lat="44.90692" lon="1.73705">
        <ele>193.2</ele>
        <time>2022-05-24T08:29:09Z</time>
      </trkpt>
      <trkpt lat="44.90689" lon="1.73704">
        <ele>193.5</ele>
        <time>2022-05-24T08:29:10Z</time>
      </trkpt>
      <trkpt lat="44.90685" lon="1.73703">
        <ele>193.8</ele>
        <time>2022-05-24T08:29:11Z</time>
      </trkpt>
      <trkpt lat="44.90683" lon="1.73702">
        <ele>194.2</ele>
        <time>2022-05-24T08:29:12Z</time>
      </trkpt>
      <trkpt lat="44.9068" lon="1.737">
        <ele>194.6</ele>
        <time>2022-05-24T08:29:13Z</time>
      </trkpt>
      <trkpt lat="44.90677" lon="1.73699">
        <ele>195</ele>
        <time>2022-05-24T08:29:14Z</time>
      </trkpt>
      <trkpt lat="44.90673" lon="1.73699">
        <ele>195.5</ele>
        <time>2022-05-24T08:29:15Z</time>
      </trkpt>
      <trkpt lat="44.90672" lon="1.73698">
        <ele>195.7</ele>
        <time>2022-05-24T08:29:16Z</time>
      </trkpt>
      <trkpt lat="44.90669" lon="1.73698">
        <ele>196.1</ele>
        <time>2022-05-24T08:29:17Z</time>
      </trkpt>
      <trkpt lat="44.90668" lon="1.73698">
        <ele>196.3</ele>
        <time>2022-05-24T08:29:18Z</time>
      </trkpt>
      <trkpt lat="44.90665" lon="1.73698">
        <ele>196.7</ele>
        <time>2022-05-24T08:29:19Z</time>
      </trkpt>
      <trkpt lat="44.90664" lon="1.73698">
        <ele>196.8</ele>
        <time>2022-05-24T08:29:20Z</time>
      </trkpt>
      <trkpt lat="44.90662" lon="1.73697">
        <ele>197.1</ele>
        <time>2022-05-24T08:29:21Z</time>
      </trkpt>
      <trkpt lat="44.9066" lon="1.73697">
        <ele>197.3</ele>
        <time>2022-05-24T08:29:22Z</time>
      </trkpt>
      <trkpt lat="44.90658" lon="1.73696">
        <ele>197.6</ele>
        <time>2022-05-24T08:29:23Z</time>
      </trkpt>
      <trkpt lat="44.90657" lon="1.73696">
        <ele>197.8</ele>
        <time>2022-05-24T08:29:24Z</time>
      </trkpt>
      <trkpt lat="44.90653" lon="1.73695">
        <ele>198.2</ele>
        <time>2022-05-24T08:29:25Z</time>
      </trkpt>
      <trkpt lat="44.90652" lon="1.73695">
        <ele>198.3</ele>
        <time>2022-05-24T08:29:26Z</time>
      </trkpt>
      <trkpt lat="44.90649" lon="1.73694">
        <ele>198.7</ele>
        <time>2022-05-24T08:29:27Z</time>
      </trkpt>
      <trkpt lat="44.90648" lon="1.73693">
        <ele>198.8</ele>
        <time>2022-05-24T08:29:28Z</time>
      </trkpt>
      <trkpt lat="44.90645" lon="1.73691">
        <ele>199.2</ele>
        <time>2022-05-24T08:29:29Z</time>
      </trkpt>
      <trkpt lat="44.90644" lon="1.73691">
        <ele>199.3</ele>
        <time>2022-05-24T08:29:30Z</time>
      </trkpt>
      <trkpt lat="44.90641" lon="1.7369">
        <ele>199.5</ele>
        <time>2022-05-24T08:29:31Z</time>
      </trkpt>
      <trkpt lat="44.9064" lon="1.7369">
        <ele>199.6</ele>
        <time>2022-05-24T08:29:32Z</time>
      </trkpt>
      <trkpt lat="44.90639" lon="1.73689">
        <ele>199.8</ele>
        <time>2022-05-24T08:29:33Z</time>
      </trkpt>
      <trkpt lat="44.90637" lon="1.73688">
        <ele>199.9</ele>
        <time>2022-05-24T08:29:34Z</time>
      </trkpt>
      <trkpt lat="44.90635" lon="1.73688">
        <ele>200</ele>
        <time>2022-05-24T08:29:35Z</time>
      </trkpt>
      <trkpt lat="44.90634" lon="1.73687">
        <ele>200.2</ele>
        <time>2022-05-24T08:29:36Z</time>
      </trkpt>
      <trkpt lat="44.90631" lon="1.73687">
        <ele>200.4</ele>
        <time>2022-05-24T08:29:37Z</time>
      </trkpt>
      <trkpt lat="44.9063" lon="1.73686">
        <ele>200.4</ele>
        <time>2022-05-24T08:29:38Z</time>
      </trkpt>
      <trkpt lat="44.90628" lon="1.73687">
        <ele>200.5</ele>
        <time>2022-05-24T08:29:39Z</time>
      </trkpt>
      <trkpt lat="44.90627" lon="1.73686">
        <ele>200.6</ele>
        <time>2022-05-24T08:29:40Z</time>
      </trkpt>
      <trkpt lat="44.90624" lon="1.73686">
        <ele>200.7</ele>
        <time>2022-05-24T08:29:41Z</time>
      </trkpt>
      <trkpt lat="44.90623" lon="1.73686">
        <ele>200.7</ele>
        <time>2022-05-24T08:29:42Z</time>
      </trkpt>
      <trkpt lat="44.9062" lon="1.73686">
        <ele>200.8</ele>
        <time>2022-05-24T08:29:43Z</time>
      </trkpt>
      <trkpt lat="44.90619" lon="1.73687">
        <ele>200.8</ele>
        <time>2022-05-24T08:29:44Z</time>
      </trkpt>
      <trkpt lat="44.90616" lon="1.73687">
        <ele>200.8</ele>
        <time>2022-05-24T08:29:45Z</time>
      </trkpt>
      <trkpt lat="44.90615" lon="1.73688">
        <ele>200.8</ele>
        <time>2022-05-24T08:29:46Z</time>
      </trkpt>
      <trkpt lat="44.90612" lon="1.73689">
        <ele>200.7</ele>
        <time>2022-05-24T08:29:47Z</time>
      </trkpt>
      <trkpt lat="44.90608" lon="1.7369">
        <ele>200.7</ele>
        <time>2022-05-24T08:29:48Z</time>
      </trkpt>
      <trkpt lat="44.90604" lon="1.73691">
        <ele>200.6</ele>
        <time>2022-05-24T08:29:49Z</time>
      </trkpt>
      <trkpt lat="44.90599" lon="1.73693">
        <ele>200.4</ele>
        <time>2022-05-24T08:29:50Z</time>
      </trkpt>
      <trkpt lat="44.90593" lon="1.73696">
        <ele>200.4</ele>
        <time>2022-05-24T08:29:52Z</time>
      </trkpt>
      <trkpt lat="44.90582" lon="1.737">
        <ele>200.5</ele>
        <time>2022-05-24T08:29:53Z</time>
      </trkpt>
      <trkpt lat="44.90576" lon="1.73701">
        <ele>200.7</ele>
        <time>2022-05-24T08:29:54Z</time>
      </trkpt>
      <trkpt lat="44.90567" lon="1.73705">
        <ele>201.2</ele>
        <time>2022-05-24T08:29:56Z</time>
      </trkpt>
      <trkpt lat="44.90562" lon="1.73707">
        <ele>201.5</ele>
        <time>2022-05-24T08:29:57Z</time>
      </trkpt>
      <trkpt lat="44.90557" lon="1.73709">
        <ele>201.8</ele>
        <time>2022-05-24T08:29:58Z</time>
      </trkpt>
      <trkpt lat="44.90552" lon="1.73712">
        <ele>202.2</ele>
        <time>2022-05-24T08:29:59Z</time>
      </trkpt>
      <trkpt lat="44.90548" lon="1.73714">
        <ele>202.6</ele>
        <time>2022-05-24T08:30:00Z</time>
      </trkpt>
      <trkpt lat="44.90543" lon="1.73715">
        <ele>203</ele>
        <time>2022-05-24T08:30:01Z</time>
      </trkpt>
      <trkpt lat="44.9054" lon="1.73715">
        <ele>203.4</ele>
        <time>2022-05-24T08:30:02Z</time>
      </trkpt>
      <trkpt lat="44.90536" lon="1.73716">
        <ele>203.8</ele>
        <time>2022-05-24T08:30:03Z</time>
      </trkpt>
      <trkpt lat="44.90532" lon="1.73716">
        <ele>204.2</ele>
        <time>2022-05-24T08:30:04Z</time>
      </trkpt>
      <trkpt lat="44.90529" lon="1.73715">
        <ele>204.6</ele>
        <time>2022-05-24T08:30:05Z</time>
      </trkpt>
      <trkpt lat="44.90527" lon="1.73713">
        <ele>205.1</ele>
        <time>2022-05-24T08:30:06Z</time>
      </trkpt>
      <trkpt lat="44.90526" lon="1.73712">
        <ele>205.2</ele>
        <time>2022-05-24T08:30:07Z</time>
      </trkpt>
      <trkpt lat="44.90523" lon="1.7371">
        <ele>205.6</ele>
        <time>2022-05-24T08:30:08Z</time>
      </trkpt>
      <trkpt lat="44.9052" lon="1.73709">
        <ele>206.1</ele>
        <time>2022-05-24T08:30:09Z</time>
      </trkpt>
      <trkpt lat="44.90517" lon="1.73707">
        <ele>206.6</ele>
        <time>2022-05-24T08:30:10Z</time>
      </trkpt>
      <trkpt lat="44.90515" lon="1.73707">
        <ele>206.8</ele>
        <time>2022-05-24T08:30:11Z</time>
      </trkpt>
      <trkpt lat="44.90513" lon="1.73704">
        <ele>207.3</ele>
        <time>2022-05-24T08:30:12Z</time>
      </trkpt>
      <trkpt lat="44.90512" lon="1.73703">
        <ele>207.4</ele>
        <time>2022-05-24T08:30:13Z</time>
      </trkpt>
      <trkpt lat="44.90509" lon="1.737">
        <ele>208</ele>
        <time>2022-05-24T08:30:14Z</time>
      </trkpt>
      <trkpt lat="44.90508" lon="1.73699">
        <ele>208.1</ele>
        <time>2022-05-24T08:30:15Z</time>
      </trkpt>
      <trkpt lat="44.90505" lon="1.73696">
        <ele>208.6</ele>
        <time>2022-05-24T08:30:16Z</time>
      </trkpt>
      <trkpt lat="44.90504" lon="1.73695">
        <ele>208.8</ele>
        <time>2022-05-24T08:30:17Z</time>
      </trkpt>
      <trkpt lat="44.90503" lon="1.73691">
        <ele>209.1</ele>
        <time>2022-05-24T08:30:18Z</time>
      </trkpt>
      <trkpt lat="44.90501" lon="1.73687">
        <ele>209.5</ele>
        <time>2022-05-24T08:30:19Z</time>
      </trkpt>
      <trkpt lat="44.90501" lon="1.73685">
        <ele>209.6</ele>
        <time>2022-05-24T08:30:20Z</time>
      </trkpt>
      <trkpt lat="44.90498" lon="1.73681">
        <ele>210</ele>
        <time>2022-05-24T08:30:21Z</time>
      </trkpt>
      <trkpt lat="44.90497" lon="1.7368">
        <ele>210.1</ele>
        <time>2022-05-24T08:30:22Z</time>
      </trkpt>
      <trkpt lat="44.90494" lon="1.73677">
        <ele>210.5</ele>
        <time>2022-05-24T08:30:23Z</time>
      </trkpt>
      <trkpt lat="44.90493" lon="1.73676">
        <ele>210.6</ele>
        <time>2022-05-24T08:30:24Z</time>
      </trkpt>
      <trkpt lat="44.90489" lon="1.73674">
        <ele>211</ele>
        <time>2022-05-24T08:30:25Z</time>
      </trkpt>
      <trkpt lat="44.90488" lon="1.73673">
        <ele>211.1</ele>
        <time>2022-05-24T08:30:26Z</time>
      </trkpt>
      <trkpt lat="44.90485" lon="1.73671">
        <ele>211.4</ele>
        <time>2022-05-24T08:30:27Z</time>
      </trkpt>
      <trkpt lat="44.90484" lon="1.7367">
        <ele>211.5</ele>
        <time>2022-05-24T08:30:28Z</time>
      </trkpt>
      <trkpt lat="44.9048" lon="1.73668">
        <ele>211.8</ele>
        <time>2022-05-24T08:30:29Z</time>
      </trkpt>
      <trkpt lat="44.90479" lon="1.73668">
        <ele>211.9</ele>
        <time>2022-05-24T08:30:30Z</time>
      </trkpt>
      <trkpt lat="44.90475" lon="1.73668">
        <ele>212.1</ele>
        <time>2022-05-24T08:30:31Z</time>
      </trkpt>
      <trkpt lat="44.90472" lon="1.73669">
        <ele>212.4</ele>
        <time>2022-05-24T08:30:32Z</time>
      </trkpt>
      <trkpt lat="44.90469" lon="1.7367">
        <ele>212.6</ele>
        <time>2022-05-24T08:30:33Z</time>
      </trkpt>
      <trkpt lat="44.90466" lon="1.73671">
        <ele>212.8</ele>
        <time>2022-05-24T08:30:34Z</time>
      </trkpt>
      <trkpt lat="44.90463" lon="1.73671">
        <ele>213.1</ele>
        <time>2022-05-24T08:30:35Z</time>
      </trkpt>
      <trkpt lat="44.90459" lon="1.73673">
        <ele>213.4</ele>
        <time>2022-05-24T08:30:36Z</time>
      </trkpt>
      <trkpt lat="44.90458" lon="1.73673">
        <ele>213.5</ele>
        <time>2022-05-24T08:30:37Z</time>
      </trkpt>
      <trkpt lat="44.90455" lon="1.73675">
        <ele>213.7</ele>
        <time>2022-05-24T08:30:38Z</time>
      </trkpt>
      <trkpt lat="44.90452" lon="1.73676">
        <ele>214</ele>
        <time>2022-05-24T08:30:39Z</time>
      </trkpt>
      <trkpt lat="44.90449" lon="1.73677">
        <ele>214.2</ele>
        <time>2022-05-24T08:30:40Z</time>
      </trkpt>
      <trkpt lat="44.90446" lon="1.73679">
        <ele>214.6</ele>
        <time>2022-05-24T08:30:41Z</time>
      </trkpt>
      <trkpt lat="44.90445" lon="1.73679">
        <ele>214.7</ele>
        <time>2022-05-24T08:30:42Z</time>
      </trkpt>
      <trkpt lat="44.90442" lon="1.73681">
        <ele>215</ele>
        <time>2022-05-24T08:30:43Z</time>
      </trkpt>
      <trkpt lat="44.90441" lon="1.73681">
        <ele>215.1</ele>
        <time>2022-05-24T08:30:44Z</time>
      </trkpt>
      <trkpt lat="44.90438" lon="1.73682">
        <ele>215.4</ele>
        <time>2022-05-24T08:30:45Z</time>
      </trkpt>
      <trkpt lat="44.90436" lon="1.73682">
        <ele>215.5</ele>
        <time>2022-05-24T08:30:46Z</time>
      </trkpt>
      <trkpt lat="44.90433" lon="1.73682">
        <ele>215.8</ele>
        <time>2022-05-24T08:30:47Z</time>
      </trkpt>
      <trkpt lat="44.90433" lon="1.73682">
        <ele>215.9</ele>
        <time>2022-05-24T08:30:48Z</time>
      </trkpt>
      <trkpt lat="44.90431" lon="1.73681">
        <ele>216</ele>
        <time>2022-05-24T08:30:49Z</time>
      </trkpt>
      <trkpt lat="44.90429" lon="1.7368">
        <ele>216.2</ele>
        <time>2022-05-24T08:30:50Z</time>
      </trkpt>
      <trkpt lat="44.90426" lon="1.7368">
        <ele>216.5</ele>
        <time>2022-05-24T08:30:51Z</time>
      </trkpt>
      <trkpt lat="44.90425" lon="1.7368">
        <ele>216.6</ele>
        <time>2022-05-24T08:30:52Z</time>
      </trkpt>
      <trkpt lat="44.90421" lon="1.73682">
        <ele>216.9</ele>
        <time>2022-05-24T08:30:53Z</time>
      </trkpt>
      <trkpt lat="44.9042" lon="1.73682">
        <ele>217.1</ele>
        <time>2022-05-24T08:30:54Z</time>
      </trkpt>
      <trkpt lat="44.90417" lon="1.73683">
        <ele>217.2</ele>
        <time>2022-05-24T08:30:55Z</time>
      </trkpt>
      <trkpt lat="44.90414" lon="1.73684">
        <ele>217.4</ele>
        <time>2022-05-24T08:30:56Z</time>
      </trkpt>
      <trkpt lat="44.90412" lon="1.73685">
        <ele>217.6</ele>
        <time>2022-05-24T08:30:57Z</time>
      </trkpt>
      <trkpt lat="44.90409" lon="1.73686">
        <ele>217.9</ele>
        <time>2022-05-24T08:30:58Z</time>
      </trkpt>
      <trkpt lat="44.90406" lon="1.73687">
        <ele>218.1</ele>
        <time>2022-05-24T08:30:59Z</time>
      </trkpt>
      <trkpt lat="44.90402" lon="1.73689">
        <ele>218.4</ele>
        <time>2022-05-24T08:31:00Z</time>
      </trkpt>
      <trkpt lat="44.90401" lon="1.73689">
        <ele>218.5</ele>
        <time>2022-05-24T08:31:01Z</time>
      </trkpt>
      <trkpt lat="44.90398" lon="1.73691">
        <ele>218.8</ele>
        <time>2022-05-24T08:31:02Z</time>
      </trkpt>
      <trkpt lat="44.90396" lon="1.73691">
        <ele>218.9</ele>
        <time>2022-05-24T08:31:03Z</time>
      </trkpt>
      <trkpt lat="44.90392" lon="1.73693">
        <ele>219.2</ele>
        <time>2022-05-24T08:31:04Z</time>
      </trkpt>
      <trkpt lat="44.90391" lon="1.73693">
        <ele>219.3</ele>
        <time>2022-05-24T08:31:05Z</time>
      </trkpt>
      <trkpt lat="44.90388" lon="1.73694">
        <ele>219.5</ele>
        <time>2022-05-24T08:31:06Z</time>
      </trkpt>
      <trkpt lat="44.90385" lon="1.73695">
        <ele>219.7</ele>
        <time>2022-05-24T08:31:07Z</time>
      </trkpt>
      <trkpt lat="44.90383" lon="1.73696">
        <ele>220</ele>
        <time>2022-05-24T08:31:08Z</time>
      </trkpt>
      <trkpt lat="44.9038" lon="1.73697">
        <ele>220.2</ele>
        <time>2022-05-24T08:31:09Z</time>
      </trkpt>
      <trkpt lat="44.90377" lon="1.73698">
        <ele>220.4</ele>
        <time>2022-05-24T08:31:10Z</time>
      </trkpt>
      <trkpt lat="44.90374" lon="1.73699">
        <ele>220.6</ele>
        <time>2022-05-24T08:31:11Z</time>
      </trkpt>
      <trkpt lat="44.90371" lon="1.737">
        <ele>220.9</ele>
        <time>2022-05-24T08:31:12Z</time>
      </trkpt>
      <trkpt lat="44.90369" lon="1.73701">
        <ele>221.1</ele>
        <time>2022-05-24T08:31:13Z</time>
      </trkpt>
      <trkpt lat="44.90366" lon="1.73701">
        <ele>221.3</ele>
        <time>2022-05-24T08:31:14Z</time>
      </trkpt>
      <trkpt lat="44.90363" lon="1.73702">
        <ele>221.5</ele>
        <time>2022-05-24T08:31:15Z</time>
      </trkpt>
      <trkpt lat="44.90361" lon="1.73703">
        <ele>221.7</ele>
        <time>2022-05-24T08:31:16Z</time>
      </trkpt>
      <trkpt lat="44.90357" lon="1.73704">
        <ele>222.1</ele>
        <time>2022-05-24T08:31:17Z</time>
      </trkpt>
      <trkpt lat="44.90355" lon="1.73704">
        <ele>222.2</ele>
        <time>2022-05-24T08:31:18Z</time>
      </trkpt>
      <trkpt lat="44.90352" lon="1.73705">
        <ele>222.5</ele>
        <time>2022-05-24T08:31:19Z</time>
      </trkpt>
      <trkpt lat="44.9035" lon="1.73706">
        <ele>222.6</ele>
        <time>2022-05-24T08:31:20Z</time>
      </trkpt>
      <trkpt lat="44.90348" lon="1.73706">
        <ele>222.8</ele>
        <time>2022-05-24T08:31:21Z</time>
      </trkpt>
      <trkpt lat="44.90345" lon="1.73707">
        <ele>223</ele>
        <time>2022-05-24T08:31:22Z</time>
      </trkpt>
      <trkpt lat="44.90342" lon="1.73707">
        <ele>223.3</ele>
        <time>2022-05-24T08:31:23Z</time>
      </trkpt>
      <trkpt lat="44.90338" lon="1.73708">
        <ele>223.6</ele>
        <time>2022-05-24T08:31:24Z</time>
      </trkpt>
      <trkpt lat="44.90337" lon="1.73708">
        <ele>223.7</ele>
        <time>2022-05-24T08:31:25Z</time>
      </trkpt>
      <trkpt lat="44.90333" lon="1.73709">
        <ele>224</ele>
        <time>2022-05-24T08:31:26Z</time>
      </trkpt>
      <trkpt lat="44.90332" lon="1.7371">
        <ele>224.1</ele>
        <time>2022-05-24T08:31:27Z</time>
      </trkpt>
      <trkpt lat="44.90329" lon="1.73711">
        <ele>224.4</ele>
        <time>2022-05-24T08:31:28Z</time>
      </trkpt>
      <trkpt lat="44.90327" lon="1.73712">
        <ele>224.5</ele>
        <time>2022-05-24T08:31:29Z</time>
      </trkpt>
      <trkpt lat="44.90324" lon="1.73713">
        <ele>224.8</ele>
        <time>2022-05-24T08:31:30Z</time>
      </trkpt>
      <trkpt lat="44.90322" lon="1.73713">
        <ele>224.9</ele>
        <time>2022-05-24T08:31:31Z</time>
      </trkpt>
      <trkpt lat="44.90319" lon="1.73714">
        <ele>225.2</ele>
        <time>2022-05-24T08:31:32Z</time>
      </trkpt>
      <trkpt lat="44.90317" lon="1.73715">
        <ele>225.3</ele>
        <time>2022-05-24T08:31:33Z</time>
      </trkpt>
      <trkpt lat="44.90314" lon="1.73715">
        <ele>225.5</ele>
        <time>2022-05-24T08:31:34Z</time>
      </trkpt>
      <trkpt lat="44.90313" lon="1.73716">
        <ele>225.6</ele>
        <time>2022-05-24T08:31:35Z</time>
      </trkpt>
      <trkpt lat="44.90309" lon="1.73717">
        <ele>225.9</ele>
        <time>2022-05-24T08:31:36Z</time>
      </trkpt>
      <trkpt lat="44.90308" lon="1.73717">
        <ele>226</ele>
        <time>2022-05-24T08:31:37Z</time>
      </trkpt>
      <trkpt lat="44.90304" lon="1.73719">
        <ele>226.2</ele>
        <time>2022-05-24T08:31:38Z</time>
      </trkpt>
      <trkpt lat="44.90303" lon="1.73719">
        <ele>226.3</ele>
        <time>2022-05-24T08:31:39Z</time>
      </trkpt>
      <trkpt lat="44.90299" lon="1.73721">
        <ele>226.6</ele>
        <time>2022-05-24T08:31:40Z</time>
      </trkpt>
      <trkpt lat="44.90298" lon="1.73721">
        <ele>226.6</ele>
        <time>2022-05-24T08:31:41Z</time>
      </trkpt>
      <trkpt lat="44.90295" lon="1.73722">
        <ele>226.9</ele>
        <time>2022-05-24T08:31:42Z</time>
      </trkpt>
      <trkpt lat="44.90294" lon="1.73723">
        <ele>227</ele>
        <time>2022-05-24T08:31:43Z</time>
      </trkpt>
      <trkpt lat="44.9029" lon="1.73724">
        <ele>227.2</ele>
        <time>2022-05-24T08:31:44Z</time>
      </trkpt>
      <trkpt lat="44.90288" lon="1.73724">
        <ele>227.3</ele>
        <time>2022-05-24T08:31:45Z</time>
      </trkpt>
      <trkpt lat="44.90285" lon="1.73725">
        <ele>227.6</ele>
        <time>2022-05-24T08:31:46Z</time>
      </trkpt>
      <trkpt lat="44.90284" lon="1.73726">
        <ele>227.6</ele>
        <time>2022-05-24T08:31:47Z</time>
      </trkpt>
      <trkpt lat="44.9028" lon="1.73727">
        <ele>227.9</ele>
        <time>2022-05-24T08:31:48Z</time>
      </trkpt>
      <trkpt lat="44.90279" lon="1.73727">
        <ele>228</ele>
        <time>2022-05-24T08:31:49Z</time>
      </trkpt>
      <trkpt lat="44.90276" lon="1.73729">
        <ele>228.2</ele>
        <time>2022-05-24T08:31:50Z</time>
      </trkpt>
      <trkpt lat="44.90275" lon="1.7373">
        <ele>228.3</ele>
        <time>2022-05-24T08:31:51Z</time>
      </trkpt>
      <trkpt lat="44.90272" lon="1.73731">
        <ele>228.5</ele>
        <time>2022-05-24T08:31:52Z</time>
      </trkpt>
      <trkpt lat="44.90272" lon="1.73731">
        <ele>228.5</ele>
        <time>2022-05-24T08:31:53Z</time>
      </trkpt>
      <trkpt lat="44.9027" lon="1.73731">
        <ele>228.6</ele>
        <time>2022-05-24T08:31:54Z</time>
      </trkpt>
      <trkpt lat="44.90269" lon="1.73731">
        <ele>228.7</ele>
        <time>2022-05-24T08:31:55Z</time>
      </trkpt>
      <trkpt lat="44.90268" lon="1.7373">
        <ele>228.8</ele>
        <time>2022-05-24T08:31:56Z</time>
      </trkpt>
      <trkpt lat="44.90267" lon="1.73729">
        <ele>228.8</ele>
        <time>2022-05-24T08:31:57Z</time>
      </trkpt>
      <trkpt lat="44.90267" lon="1.73728">
        <ele>228.9</ele>
        <time>2022-05-24T08:31:58Z</time>
      </trkpt>
      <trkpt lat="44.90267" lon="1.73727">
        <ele>229</ele>
        <time>2022-05-24T08:31:59Z</time>
      </trkpt>
      <trkpt lat="44.90267" lon="1.73726">
        <ele>229</ele>
        <time>2022-05-24T08:32:00Z</time>
      </trkpt>
      <trkpt lat="44.90267" lon="1.73726">
        <ele>229</ele>
        <time>2022-05-24T08:32:01Z</time>
      </trkpt>
      <trkpt lat="44.90268" lon="1.73726">
        <ele>229</ele>
        <time>2022-05-24T08:32:02Z</time>
      </trkpt>
      <trkpt lat="44.90268" lon="1.73725">
        <ele>229.1</ele>
        <time>2022-05-24T08:32:03Z</time>
      </trkpt>
      <trkpt lat="44.90267" lon="1.73725">
        <ele>229.1</ele>
        <time>2022-05-24T08:32:04Z</time>
      </trkpt>
      <trkpt lat="44.90267" lon="1.73725">
        <ele>229.1</ele>
        <time>2022-05-24T08:32:05Z</time>
      </trkpt>
      <trkpt lat="44.90267" lon="1.73725">
        <ele>229.1</ele>
        <time>2022-05-24T08:32:06Z</time>
      </trkpt>
      <trkpt lat="44.90267" lon="1.73725">
        <ele>229.1</ele>
        <time>2022-05-24T08:32:07Z</time>
      </trkpt>
      <trkpt lat="44.90267" lon="1.73725">
        <ele>229.1</ele>
        <time>2022-05-24T08:32:08Z</time>
      </trkpt>
      <trkpt lat="44.90267" lon="1.73725">
        <ele>229.1</ele>
        <time>2022-05-24T08:32:09Z</time>
      </trkpt>
      <trkpt lat="44.90267" lon="1.73725">
        <ele>229.1</ele>
        <time>2022-05-24T08:32:10Z</time>
      </trkpt>
      <trkpt lat="44.90267" lon="1.73725">
        <ele>229.1</ele>
        <time>2022-05-24T08:32:11Z</time>
      </trkpt>
      <trkpt lat="44.90267" lon="1.73725">
        <ele>229.1</ele>
        <time>2022-05-24T08:32:12Z</time>
      </trkpt>
      <trkpt lat="44.90265" lon="1.73733">
        <ele>229.5</ele>
        <time>2022-05-24T08:32:35Z</time>
      </trkpt>
      <trkpt lat="44.90264" lon="1.73735">
        <ele>229.7</ele>
        <time>2022-05-24T08:32:36Z</time>
      </trkpt>
      <trkpt lat="44.90264" lon="1.73737">
        <ele>229.8</ele>
        <time>2022-05-24T08:32:37Z</time>
      </trkpt>
      <trkpt lat="44.90263" lon="1.73739">
        <ele>230.2</ele>
        <time>2022-05-24T08:32:38Z</time>
      </trkpt>
      <trkpt lat="44.90262" lon="1.73741">
        <ele>230.3</ele>
        <time>2022-05-24T08:32:39Z</time>
      </trkpt>
      <trkpt lat="44.90261" lon="1.73743">
        <ele>230.5</ele>
        <time>2022-05-24T08:32:40Z</time>
      </trkpt>
      <trkpt lat="44.90261" lon="1.73745">
        <ele>230.6</ele>
        <time>2022-05-24T08:32:41Z</time>
      </trkpt>
      <trkpt lat="44.9026" lon="1.73749">
        <ele>230.8</ele>
        <time>2022-05-24T08:32:42Z</time>
      </trkpt>
      <trkpt lat="44.90259" lon="1.7375">
        <ele>230.9</ele>
        <time>2022-05-24T08:32:43Z</time>
      </trkpt>
      <trkpt lat="44.90258" lon="1.73754">
        <ele>231.2</ele>
        <time>2022-05-24T08:32:44Z</time>
      </trkpt>
      <trkpt lat="44.90258" lon="1.73756">
        <ele>231.3</ele>
        <time>2022-05-24T08:32:45Z</time>
      </trkpt>
      <trkpt lat="44.90257" lon="1.73759">
        <ele>231.5</ele>
        <time>2022-05-24T08:32:46Z</time>
      </trkpt>
      <trkpt lat="44.90257" lon="1.73761">
        <ele>231.6</ele>
        <time>2022-05-24T08:32:47Z</time>
      </trkpt>
      <trkpt lat="44.90255" lon="1.73764">
        <ele>231.8</ele>
        <time>2022-05-24T08:32:48Z</time>
      </trkpt>
      <trkpt lat="44.90254" lon="1.73765">
        <ele>231.9</ele>
        <time>2022-05-24T08:32:49Z</time>
      </trkpt>
      <trkpt lat="44.90253" lon="1.73768">
        <ele>232.2</ele>
        <time>2022-05-24T08:32:50Z</time>
      </trkpt>
      <trkpt lat="44.90252" lon="1.7377">
        <ele>232.3</ele>
        <time>2022-05-24T08:32:51Z</time>
      </trkpt>
      <trkpt lat="44.9025" lon="1.73773">
        <ele>232.5</ele>
        <time>2022-05-24T08:32:52Z</time>
      </trkpt>
      <trkpt lat="44.90249" lon="1.73774">
        <ele>232.6</ele>
        <time>2022-05-24T08:32:53Z</time>
      </trkpt>
      <trkpt lat="44.90247" lon="1.73778">
        <ele>232.9</ele>
        <time>2022-05-24T08:32:54Z</time>
      </trkpt>
      <trkpt lat="44.90246" lon="1.73779">
        <ele>233.1</ele>
        <time>2022-05-24T08:32:55Z</time>
      </trkpt>
      <trkpt lat="44.90244" lon="1.73782">
        <ele>233.4</ele>
        <time>2022-05-24T08:32:56Z</time>
      </trkpt>
      <trkpt lat="44.90243" lon="1.73783">
        <ele>233.5</ele>
        <time>2022-05-24T08:32:57Z</time>
      </trkpt>
      <trkpt lat="44.90241" lon="1.73783">
        <ele>233.7</ele>
        <time>2022-05-24T08:32:58Z</time>
      </trkpt>
      <trkpt lat="44.9024" lon="1.73782">
        <ele>233.8</ele>
        <time>2022-05-24T08:32:59Z</time>
      </trkpt>
      <trkpt lat="44.90238" lon="1.73781">
        <ele>234</ele>
        <time>2022-05-24T08:33:00Z</time>
      </trkpt>
      <trkpt lat="44.90237" lon="1.7378">
        <ele>234.6</ele>
        <time>2022-05-24T08:33:01Z</time>
      </trkpt>
      <trkpt lat="44.90236" lon="1.73778">
        <ele>234.9</ele>
        <time>2022-05-24T08:33:02Z</time>
      </trkpt>
      <trkpt lat="44.90235" lon="1.73778">
        <ele>235.2</ele>
        <time>2022-05-24T08:33:03Z</time>
      </trkpt>
      <trkpt lat="44.90233" lon="1.73777">
        <ele>235.5</ele>
        <time>2022-05-24T08:33:04Z</time>
      </trkpt>
      <trkpt lat="44.90232" lon="1.73777">
        <ele>235.7</ele>
        <time>2022-05-24T08:33:05Z</time>
      </trkpt>
      <trkpt lat="44.90231" lon="1.73777">
        <ele>236</ele>
        <time>2022-05-24T08:33:06Z</time>
      </trkpt>
      <trkpt lat="44.90229" lon="1.73777">
        <ele>236.2</ele>
        <time>2022-05-24T08:33:07Z</time>
      </trkpt>
      <trkpt lat="44.90228" lon="1.73777">
        <ele>236.4</ele>
        <time>2022-05-24T08:33:08Z</time>
      </trkpt>
      <trkpt lat="44.90227" lon="1.73777">
        <ele>236.7</ele>
        <time>2022-05-24T08:33:09Z</time>
      </trkpt>
      <trkpt lat="44.90226" lon="1.73777">
        <ele>236.9</ele>
        <time>2022-05-24T08:33:10Z</time>
      </trkpt>
      <trkpt lat="44.90224" lon="1.73777">
        <ele>237.2</ele>
        <time>2022-05-24T08:33:11Z</time>
      </trkpt>
      <trkpt lat="44.90223" lon="1.73777">
        <ele>237.5</ele>
        <time>2022-05-24T08:33:12Z</time>
      </trkpt>
      <trkpt lat="44.90221" lon="1.73777">
        <ele>237.8</ele>
        <time>2022-05-24T08:33:13Z</time>
      </trkpt>
      <trkpt lat="44.9022" lon="1.73778">
        <ele>238</ele>
        <time>2022-05-24T08:33:14Z</time>
      </trkpt>
      <trkpt lat="44.90219" lon="1.73777">
        <ele>238.3</ele>
        <time>2022-05-24T08:33:15Z</time>
      </trkpt>
      <trkpt lat="44.90217" lon="1.73777">
        <ele>238.7</ele>
        <time>2022-05-24T08:33:16Z</time>
      </trkpt>
      <trkpt lat="44.90215" lon="1.73777">
        <ele>239.1</ele>
        <time>2022-05-24T08:33:17Z</time>
      </trkpt>
      <trkpt lat="44.90214" lon="1.73777">
        <ele>239.4</ele>
        <time>2022-05-24T08:33:18Z</time>
      </trkpt>
      <trkpt lat="44.90212" lon="1.73777">
        <ele>239.9</ele>
        <time>2022-05-24T08:33:19Z</time>
      </trkpt>
      <trkpt lat="44.90211" lon="1.73777">
        <ele>240.1</ele>
        <time>2022-05-24T08:33:20Z</time>
      </trkpt>
      <trkpt lat="44.9021" lon="1.73777">
        <ele>240.4</ele>
        <time>2022-05-24T08:33:21Z</time>
      </trkpt>
      <trkpt lat="44.90209" lon="1.73777">
        <ele>240.7</ele>
        <time>2022-05-24T08:33:22Z</time>
      </trkpt>
      <trkpt lat="44.90207" lon="1.73777">
        <ele>241</ele>
        <time>2022-05-24T08:33:23Z</time>
      </trkpt>
      <trkpt lat="44.90207" lon="1.73777">
        <ele>241.2</ele>
        <time>2022-05-24T08:33:24Z</time>
      </trkpt>
      <trkpt lat="44.90206" lon="1.73778">
        <ele>241.4</ele>
        <time>2022-05-24T08:33:25Z</time>
      </trkpt>
      <trkpt lat="44.90205" lon="1.73778">
        <ele>241.7</ele>
        <time>2022-05-24T08:33:26Z</time>
      </trkpt>
      <trkpt lat="44.90203" lon="1.73778">
        <ele>242.1</ele>
        <time>2022-05-24T08:33:27Z</time>
      </trkpt>
      <trkpt lat="44.90203" lon="1.73779">
        <ele>242.3</ele>
        <time>2022-05-24T08:33:28Z</time>
      </trkpt>
      <trkpt lat="44.90202" lon="1.73779">
        <ele>242.4</ele>
        <time>2022-05-24T08:33:29Z</time>
      </trkpt>
      <trkpt lat="44.90202" lon="1.73779">
        <ele>242.4</ele>
        <time>2022-05-24T08:33:30Z</time>
      </trkpt>
      <trkpt lat="44.90202" lon="1.73779">
        <ele>242.4</ele>
        <time>2022-05-24T08:33:31Z</time>
      </trkpt>
      <trkpt lat="44.90202" lon="1.73779">
        <ele>242.5</ele>
        <time>2022-05-24T08:33:32Z</time>
      </trkpt>
      <trkpt lat="44.90202" lon="1.73779">
        <ele>242.5</ele>
        <time>2022-05-24T08:33:33Z</time>
      </trkpt>
      <trkpt lat="44.90201" lon="1.73779">
        <ele>242.7</ele>
        <time>2022-05-24T08:33:34Z</time>
      </trkpt>
      <trkpt lat="44.90201" lon="1.7378">
        <ele>242.9</ele>
        <time>2022-05-24T08:33:35Z</time>
      </trkpt>
      <trkpt lat="44.902" lon="1.7378">
        <ele>243</ele>
        <time>2022-05-24T08:33:36Z</time>
      </trkpt>
      <trkpt lat="44.90201" lon="1.73781">
        <ele>243.1</ele>
        <time>2022-05-24T08:33:37Z</time>
      </trkpt>
      <trkpt lat="44.902" lon="1.73781">
        <ele>243.2</ele>
        <time>2022-05-24T08:33:38Z</time>
      </trkpt>
      <trkpt lat="44.90199" lon="1.73781">
        <ele>243.5</ele>
        <time>2022-05-24T08:33:39Z</time>
      </trkpt>
      <trkpt lat="44.90199" lon="1.7378">
        <ele>243.6</ele>
        <time>2022-05-24T08:33:40Z</time>
      </trkpt>
      <trkpt lat="44.90198" lon="1.7378">
        <ele>243.8</ele>
        <time>2022-05-24T08:33:41Z</time>
      </trkpt>
      <trkpt lat="44.90198" lon="1.7378">
        <ele>243.9</ele>
        <time>2022-05-24T08:33:42Z</time>
      </trkpt>
      <trkpt lat="44.90197" lon="1.73779">
        <ele>244.1</ele>
        <time>2022-05-24T08:33:43Z</time>
      </trkpt>
      <trkpt lat="44.90196" lon="1.7378">
        <ele>244.3</ele>
        <time>2022-05-24T08:33:44Z</time>
      </trkpt>
      <trkpt lat="44.90195" lon="1.7378">
        <ele>244.6</ele>
        <time>2022-05-24T08:33:45Z</time>
      </trkpt>
      <trkpt lat="44.90194" lon="1.7378">
        <ele>244.8</ele>
        <time>2022-05-24T08:33:46Z</time>
      </trkpt>
      <trkpt lat="44.90193" lon="1.73779">
        <ele>245.1</ele>
        <time>2022-05-24T08:33:47Z</time>
      </trkpt>
      <trkpt lat="44.90192" lon="1.73779">
        <ele>245.3</ele>
        <time>2022-05-24T08:33:48Z</time>
      </trkpt>
      <trkpt lat="44.90191" lon="1.73779">
        <ele>245.5</ele>
        <time>2022-05-24T08:33:49Z</time>
      </trkpt>
      <trkpt lat="44.90191" lon="1.73779">
        <ele>245.7</ele>
        <time>2022-05-24T08:33:50Z</time>
      </trkpt>
      <trkpt lat="44.9019" lon="1.73779">
        <ele>245.9</ele>
        <time>2022-05-24T08:33:51Z</time>
      </trkpt>
      <trkpt lat="44.90189" lon="1.7378">
        <ele>246.1</ele>
        <time>2022-05-24T08:33:52Z</time>
      </trkpt>
      <trkpt lat="44.90188" lon="1.7378">
        <ele>246.3</ele>
        <time>2022-05-24T08:33:53Z</time>
      </trkpt>
      <trkpt lat="44.90188" lon="1.73781">
        <ele>246.5</ele>
        <time>2022-05-24T08:33:54Z</time>
      </trkpt>
      <trkpt lat="44.90187" lon="1.73781">
        <ele>246.7</ele>
        <time>2022-05-24T08:33:55Z</time>
      </trkpt>
      <trkpt lat="44.90186" lon="1.73781">
        <ele>246.9</ele>
        <time>2022-05-24T08:33:56Z</time>
      </trkpt>
      <trkpt lat="44.90185" lon="1.73782">
        <ele>247.2</ele>
        <time>2022-05-24T08:33:57Z</time>
      </trkpt>
      <trkpt lat="44.90183" lon="1.73783">
        <ele>247.6</ele>
        <time>2022-05-24T08:33:58Z</time>
      </trkpt>
      <trkpt lat="44.90182" lon="1.73783">
        <ele>247.8</ele>
        <time>2022-05-24T08:33:59Z</time>
      </trkpt>
      <trkpt lat="44.90182" lon="1.73784">
        <ele>248</ele>
        <time>2022-05-24T08:34:00Z</time>
      </trkpt>
      <trkpt lat="44.90181" lon="1.73785">
        <ele>248.2</ele>
        <time>2022-05-24T08:34:01Z</time>
      </trkpt>
      <trkpt lat="44.9018" lon="1.73785">
        <ele>248.4</ele>
        <time>2022-05-24T08:34:02Z</time>
      </trkpt>
      <trkpt lat="44.90179" lon="1.73785">
        <ele>248.6</ele>
        <time>2022-05-24T08:34:03Z</time>
      </trkpt>
      <trkpt lat="44.90178" lon="1.73786">
        <ele>248.8</ele>
        <time>2022-05-24T08:34:04Z</time>
      </trkpt>
      <trkpt lat="44.90177" lon="1.73786">
        <ele>249</ele>
        <time>2022-05-24T08:34:05Z</time>
      </trkpt>
      <trkpt lat="44.90177" lon="1.73786">
        <ele>249.1</ele>
        <time>2022-05-24T08:34:06Z</time>
      </trkpt>
      <trkpt lat="44.90176" lon="1.73787">
        <ele>249.3</ele>
        <time>2022-05-24T08:34:07Z</time>
      </trkpt>
      <trkpt lat="44.90175" lon="1.73787">
        <ele>249.4</ele>
        <time>2022-05-24T08:34:08Z</time>
      </trkpt>
      <trkpt lat="44.90175" lon="1.73787">
        <ele>249.6</ele>
        <time>2022-05-24T08:34:09Z</time>
      </trkpt>
      <trkpt lat="44.90174" lon="1.73787">
        <ele>249.6</ele>
        <time>2022-05-24T08:34:10Z</time>
      </trkpt>
      <trkpt lat="44.90174" lon="1.73787">
        <ele>249.7</ele>
        <time>2022-05-24T08:34:11Z</time>
      </trkpt>
      <trkpt lat="44.90174" lon="1.73788">
        <ele>249.8</ele>
        <time>2022-05-24T08:34:12Z</time>
      </trkpt>
      <trkpt lat="44.90173" lon="1.73788">
        <ele>249.9</ele>
        <time>2022-05-24T08:34:13Z</time>
      </trkpt>
      <trkpt lat="44.90173" lon="1.73789">
        <ele>250.1</ele>
        <time>2022-05-24T08:34:14Z</time>
      </trkpt>
      <trkpt lat="44.90172" lon="1.73789">
        <ele>250.1</ele>
        <time>2022-05-24T08:34:15Z</time>
      </trkpt>
      <trkpt lat="44.90172" lon="1.73789">
        <ele>250.1</ele>
        <time>2022-05-24T08:34:16Z</time>
      </trkpt>
      <trkpt lat="44.90172" lon="1.73789">
        <ele>250.2</ele>
        <time>2022-05-24T08:34:17Z</time>
      </trkpt>
      <trkpt lat="44.90172" lon="1.73789">
        <ele>250.2</ele>
        <time>2022-05-24T08:34:18Z</time>
      </trkpt>
      <trkpt lat="44.90172" lon="1.73789">
        <ele>250.3</ele>
        <time>2022-05-24T08:34:19Z</time>
      </trkpt>
      <trkpt lat="44.90171" lon="1.73789">
        <ele>250.3</ele>
        <time>2022-05-24T08:34:20Z</time>
      </trkpt>
      <trkpt lat="44.90171" lon="1.7379">
        <ele>250.4</ele>
        <time>2022-05-24T08:34:21Z</time>
      </trkpt>
      <trkpt lat="44.90171" lon="1.7379">
        <ele>250.4</ele>
        <time>2022-05-24T08:34:22Z</time>
      </trkpt>
      <trkpt lat="44.90171" lon="1.7379">
        <ele>250.5</ele>
        <time>2022-05-24T08:34:23Z</time>
      </trkpt>
      <trkpt lat="44.9017" lon="1.7379">
        <ele>250.5</ele>
        <time>2022-05-24T08:34:24Z</time>
      </trkpt>
      <trkpt lat="44.9017" lon="1.7379">
        <ele>250.6</ele>
        <time>2022-05-24T08:34:25Z</time>
      </trkpt>
      <trkpt lat="44.9017" lon="1.7379">
        <ele>250.6</ele>
        <time>2022-05-24T08:34:26Z</time>
      </trkpt>
      <trkpt lat="44.9017" lon="1.7379">
        <ele>250.7</ele>
        <time>2022-05-24T08:34:27Z</time>
      </trkpt>
      <trkpt lat="44.90169" lon="1.73791">
        <ele>250.7</ele>
        <time>2022-05-24T08:34:28Z</time>
      </trkpt>
      <trkpt lat="44.90168" lon="1.7379">
        <ele>251</ele>
        <time>2022-05-24T08:34:29Z</time>
      </trkpt>
      <trkpt lat="44.90167" lon="1.7379">
        <ele>251.2</ele>
        <time>2022-05-24T08:34:30Z</time>
      </trkpt>
      <trkpt lat="44.90165" lon="1.7379">
        <ele>251.5</ele>
        <time>2022-05-24T08:34:31Z</time>
      </trkpt>
      <trkpt lat="44.90164" lon="1.7379">
        <ele>251.7</ele>
        <time>2022-05-24T08:34:32Z</time>
      </trkpt>
      <trkpt lat="44.90162" lon="1.7379">
        <ele>252</ele>
        <time>2022-05-24T08:34:33Z</time>
      </trkpt>
      <trkpt lat="44.90161" lon="1.7379">
        <ele>252.2</ele>
        <time>2022-05-24T08:34:34Z</time>
      </trkpt>
      <trkpt lat="44.90159" lon="1.7379">
        <ele>252.5</ele>
        <time>2022-05-24T08:34:35Z</time>
      </trkpt>
      <trkpt lat="44.90157" lon="1.7379">
        <ele>252.7</ele>
        <time>2022-05-24T08:34:36Z</time>
      </trkpt>
      <trkpt lat="44.90154" lon="1.73789">
        <ele>253.1</ele>
        <time>2022-05-24T08:34:37Z</time>
      </trkpt>
      <trkpt lat="44.90153" lon="1.73789">
        <ele>253.3</ele>
        <time>2022-05-24T08:34:38Z</time>
      </trkpt>
      <trkpt lat="44.90152" lon="1.73789">
        <ele>253.5</ele>
        <time>2022-05-24T08:34:39Z</time>
      </trkpt>
      <trkpt lat="44.9015" lon="1.73789">
        <ele>253.7</ele>
        <time>2022-05-24T08:34:40Z</time>
      </trkpt>
      <trkpt lat="44.90148" lon="1.7379">
        <ele>254</ele>
        <time>2022-05-24T08:34:41Z</time>
      </trkpt>
      <trkpt lat="44.90148" lon="1.73791">
        <ele>254</ele>
        <time>2022-05-24T08:34:42Z</time>
      </trkpt>
      <trkpt lat="44.90147" lon="1.73791">
        <ele>254.1</ele>
        <time>2022-05-24T08:34:43Z</time>
      </trkpt>
      <trkpt lat="44.90146" lon="1.73792">
        <ele>254.2</ele>
        <time>2022-05-24T08:34:44Z</time>
      </trkpt>
      <trkpt lat="44.90144" lon="1.73793">
        <ele>254.6</ele>
        <time>2022-05-24T08:34:45Z</time>
      </trkpt>
      <trkpt lat="44.90143" lon="1.73793">
        <ele>254.7</ele>
        <time>2022-05-24T08:34:46Z</time>
      </trkpt>
      <trkpt lat="44.9014" lon="1.73794">
        <ele>255.1</ele>
        <time>2022-05-24T08:34:47Z</time>
      </trkpt>
      <trkpt lat="44.90139" lon="1.73794">
        <ele>255.2</ele>
        <time>2022-05-24T08:34:48Z</time>
      </trkpt>
      <trkpt lat="44.90138" lon="1.73794">
        <ele>255.4</ele>
        <time>2022-05-24T08:34:49Z</time>
      </trkpt>
      <trkpt lat="44.90136" lon="1.73795">
        <ele>255.6</ele>
        <time>2022-05-24T08:34:50Z</time>
      </trkpt>
      <trkpt lat="44.90133" lon="1.73796">
        <ele>256</ele>
        <time>2022-05-24T08:34:51Z</time>
      </trkpt>
      <trkpt lat="44.90132" lon="1.73797">
        <ele>256.1</ele>
        <time>2022-05-24T08:34:52Z</time>
      </trkpt>
      <trkpt lat="44.9013" lon="1.73798">
        <ele>256.6</ele>
        <time>2022-05-24T08:34:53Z</time>
      </trkpt>
      <trkpt lat="44.90129" lon="1.73799">
        <ele>256.7</ele>
        <time>2022-05-24T08:34:54Z</time>
      </trkpt>
      <trkpt lat="44.90127" lon="1.738">
        <ele>257</ele>
        <time>2022-05-24T08:34:55Z</time>
      </trkpt>
      <trkpt lat="44.90126" lon="1.738">
        <ele>257.2</ele>
        <time>2022-05-24T08:34:56Z</time>
      </trkpt>
      <trkpt lat="44.90126" lon="1.73801">
        <ele>257.3</ele>
        <time>2022-05-24T08:34:57Z</time>
      </trkpt>
      <trkpt lat="44.90123" lon="1.73803">
        <ele>257.8</ele>
        <time>2022-05-24T08:34:58Z</time>
      </trkpt>
      <trkpt lat="44.90122" lon="1.73804">
        <ele>258</ele>
        <time>2022-05-24T08:34:59Z</time>
      </trkpt>
      <trkpt lat="44.9012" lon="1.73804">
        <ele>258.3</ele>
        <time>2022-05-24T08:35:00Z</time>
      </trkpt>
      <trkpt lat="44.90119" lon="1.73805">
        <ele>258.6</ele>
        <time>2022-05-24T08:35:01Z</time>
      </trkpt>
      <trkpt lat="44.90116" lon="1.73807">
        <ele>259.2</ele>
        <time>2022-05-24T08:35:02Z</time>
      </trkpt>
      <trkpt lat="44.90115" lon="1.73807">
        <ele>259.3</ele>
        <time>2022-05-24T08:35:03Z</time>
      </trkpt>
      <trkpt lat="44.90113" lon="1.73808">
        <ele>259.6</ele>
        <time>2022-05-24T08:35:04Z</time>
      </trkpt>
      <trkpt lat="44.90112" lon="1.73809">
        <ele>259.8</ele>
        <time>2022-05-24T08:35:05Z</time>
      </trkpt>
      <trkpt lat="44.90111" lon="1.7381">
        <ele>260.1</ele>
        <time>2022-05-24T08:35:06Z</time>
      </trkpt>
      <trkpt lat="44.9011" lon="1.73812">
        <ele>260.4</ele>
        <time>2022-05-24T08:35:07Z</time>
      </trkpt>
      <trkpt lat="44.90108" lon="1.73814">
        <ele>260.7</ele>
        <time>2022-05-24T08:35:08Z</time>
      </trkpt>
      <trkpt lat="44.90107" lon="1.73815">
        <ele>261</ele>
        <time>2022-05-24T08:35:09Z</time>
      </trkpt>
      <trkpt lat="44.90106" lon="1.73817">
        <ele>261.3</ele>
        <time>2022-05-24T08:35:10Z</time>
      </trkpt>
      <trkpt lat="44.90105" lon="1.73818">
        <ele>261.5</ele>
        <time>2022-05-24T08:35:11Z</time>
      </trkpt>
      <trkpt lat="44.90105" lon="1.73819">
        <ele>261.6</ele>
        <time>2022-05-24T08:35:12Z</time>
      </trkpt>
      <trkpt lat="44.90105" lon="1.7382">
        <ele>261.7</ele>
        <time>2022-05-24T08:35:13Z</time>
      </trkpt>
      <trkpt lat="44.90105" lon="1.73822">
        <ele>261.9</ele>
        <time>2022-05-24T08:35:14Z</time>
      </trkpt>
      <trkpt lat="44.90105" lon="1.73824">
        <ele>262.2</ele>
        <time>2022-05-24T08:35:15Z</time>
      </trkpt>
      <trkpt lat="44.90104" lon="1.73826">
        <ele>262.5</ele>
        <time>2022-05-24T08:35:16Z</time>
      </trkpt>
      <trkpt lat="44.90104" lon="1.73829">
        <ele>262.8</ele>
        <time>2022-05-24T08:35:17Z</time>
      </trkpt>
      <trkpt lat="44.90103" lon="1.73831">
        <ele>263</ele>
        <time>2022-05-24T08:35:18Z</time>
      </trkpt>
      <trkpt lat="44.90102" lon="1.73834">
        <ele>263.5</ele>
        <time>2022-05-24T08:35:19Z</time>
      </trkpt>
      <trkpt lat="44.90101" lon="1.73835">
        <ele>263.6</ele>
        <time>2022-05-24T08:35:20Z</time>
      </trkpt>
      <trkpt lat="44.90099" lon="1.73838">
        <ele>264.1</ele>
        <time>2022-05-24T08:35:21Z</time>
      </trkpt>
      <trkpt lat="44.90099" lon="1.73839">
        <ele>264.3</ele>
        <time>2022-05-24T08:35:22Z</time>
      </trkpt>
      <trkpt lat="44.90098" lon="1.73841">
        <ele>264.5</ele>
        <time>2022-05-24T08:35:23Z</time>
      </trkpt>
      <trkpt lat="44.90097" lon="1.73843">
        <ele>264.8</ele>
        <time>2022-05-24T08:35:24Z</time>
      </trkpt>
      <trkpt lat="44.90096" lon="1.73845">
        <ele>265.1</ele>
        <time>2022-05-24T08:35:25Z</time>
      </trkpt>
      <trkpt lat="44.90095" lon="1.73847">
        <ele>265.4</ele>
        <time>2022-05-24T08:35:26Z</time>
      </trkpt>
      <trkpt lat="44.90093" lon="1.7385">
        <ele>265.9</ele>
        <time>2022-05-24T08:35:27Z</time>
      </trkpt>
      <trkpt lat="44.90092" lon="1.73851">
        <ele>266</ele>
        <time>2022-05-24T08:35:28Z</time>
      </trkpt>
      <trkpt lat="44.9009" lon="1.73854">
        <ele>266.5</ele>
        <time>2022-05-24T08:35:29Z</time>
      </trkpt>
      <trkpt lat="44.90089" lon="1.73855">
        <ele>266.7</ele>
        <time>2022-05-24T08:35:30Z</time>
      </trkpt>
      <trkpt lat="44.90086" lon="1.73857">
        <ele>267.2</ele>
        <time>2022-05-24T08:35:31Z</time>
      </trkpt>
      <trkpt lat="44.90086" lon="1.73858">
        <ele>267.4</ele>
        <time>2022-05-24T08:35:32Z</time>
      </trkpt>
      <trkpt lat="44.90083" lon="1.7386">
        <ele>267.9</ele>
        <time>2022-05-24T08:35:33Z</time>
      </trkpt>
      <trkpt lat="44.90082" lon="1.73861">
        <ele>268.1</ele>
        <time>2022-05-24T08:35:34Z</time>
      </trkpt>
      <trkpt lat="44.9008" lon="1.73864">
        <ele>268.6</ele>
        <time>2022-05-24T08:35:35Z</time>
      </trkpt>
      <trkpt lat="44.9008" lon="1.73865">
        <ele>268.8</ele>
        <time>2022-05-24T08:35:36Z</time>
      </trkpt>
      <trkpt lat="44.90078" lon="1.73868">
        <ele>269.3</ele>
        <time>2022-05-24T08:35:37Z</time>
      </trkpt>
      <trkpt lat="44.90077" lon="1.7387">
        <ele>269.5</ele>
        <time>2022-05-24T08:35:38Z</time>
      </trkpt>
      <trkpt lat="44.90075" lon="1.73873">
        <ele>270.2</ele>
        <time>2022-05-24T08:35:39Z</time>
      </trkpt>
      <trkpt lat="44.90074" lon="1.73874">
        <ele>270.4</ele>
        <time>2022-05-24T08:35:40Z</time>
      </trkpt>
      <trkpt lat="44.90073" lon="1.73876">
        <ele>270.6</ele>
        <time>2022-05-24T08:35:41Z</time>
      </trkpt>
      <trkpt lat="44.90073" lon="1.73878">
        <ele>270.9</ele>
        <time>2022-05-24T08:35:42Z</time>
      </trkpt>
      <trkpt lat="44.90072" lon="1.73881">
        <ele>271.3</ele>
        <time>2022-05-24T08:35:43Z</time>
      </trkpt>
      <trkpt lat="44.90071" lon="1.73882">
        <ele>271.5</ele>
        <time>2022-05-24T08:35:44Z</time>
      </trkpt>
      <trkpt lat="44.90071" lon="1.73883">
        <ele>271.7</ele>
        <time>2022-05-24T08:35:45Z</time>
      </trkpt>
      <trkpt lat="44.9007" lon="1.73885">
        <ele>272</ele>
        <time>2022-05-24T08:35:46Z</time>
      </trkpt>
      <trkpt lat="44.90069" lon="1.73887">
        <ele>272.3</ele>
        <time>2022-05-24T08:35:47Z</time>
      </trkpt>
      <trkpt lat="44.90069" lon="1.73889">
        <ele>272.7</ele>
        <time>2022-05-24T08:35:48Z</time>
      </trkpt>
      <trkpt lat="44.90068" lon="1.73891">
        <ele>272.9</ele>
        <time>2022-05-24T08:35:49Z</time>
      </trkpt>
      <trkpt lat="44.90068" lon="1.73892">
        <ele>273</ele>
        <time>2022-05-24T08:35:50Z</time>
      </trkpt>
      <trkpt lat="44.90068" lon="1.73893">
        <ele>273.3</ele>
        <time>2022-05-24T08:35:51Z</time>
      </trkpt>
      <trkpt lat="44.90067" lon="1.73895">
        <ele>273.6</ele>
        <time>2022-05-24T08:35:52Z</time>
      </trkpt>
      <trkpt lat="44.90066" lon="1.73897">
        <ele>273.9</ele>
        <time>2022-05-24T08:35:53Z</time>
      </trkpt>
      <trkpt lat="44.90065" lon="1.73899">
        <ele>274.2</ele>
        <time>2022-05-24T08:35:54Z</time>
      </trkpt>
      <trkpt lat="44.90064" lon="1.73902">
        <ele>274.7</ele>
        <time>2022-05-24T08:35:55Z</time>
      </trkpt>
      <trkpt lat="44.90063" lon="1.73903">
        <ele>274.9</ele>
        <time>2022-05-24T08:35:56Z</time>
      </trkpt>
      <trkpt lat="44.90062" lon="1.73905">
        <ele>275.2</ele>
        <time>2022-05-24T08:35:57Z</time>
      </trkpt>
      <trkpt lat="44.90061" lon="1.73906">
        <ele>275.5</ele>
        <time>2022-05-24T08:35:58Z</time>
      </trkpt>
      <trkpt lat="44.9006" lon="1.73909">
        <ele>275.9</ele>
        <time>2022-05-24T08:35:59Z</time>
      </trkpt>
      <trkpt lat="44.9006" lon="1.7391">
        <ele>276.1</ele>
        <time>2022-05-24T08:36:00Z</time>
      </trkpt>
      <trkpt lat="44.90059" lon="1.73911">
        <ele>276.2</ele>
        <time>2022-05-24T08:36:01Z</time>
      </trkpt>
      <trkpt lat="44.90058" lon="1.73913">
        <ele>276.7</ele>
        <time>2022-05-24T08:36:02Z</time>
      </trkpt>
      <trkpt lat="44.90057" lon="1.73914">
        <ele>276.8</ele>
        <time>2022-05-24T08:36:03Z</time>
      </trkpt>
      <trkpt lat="44.90056" lon="1.73915">
        <ele>277</ele>
        <time>2022-05-24T08:36:04Z</time>
      </trkpt>
      <trkpt lat="44.90055" lon="1.73916">
        <ele>277.3</ele>
        <time>2022-05-24T08:36:05Z</time>
      </trkpt>
      <trkpt lat="44.90054" lon="1.73917">
        <ele>277.6</ele>
        <time>2022-05-24T08:36:06Z</time>
      </trkpt>
      <trkpt lat="44.90052" lon="1.73918">
        <ele>277.8</ele>
        <time>2022-05-24T08:36:07Z</time>
      </trkpt>
      <trkpt lat="44.90051" lon="1.73919">
        <ele>278.1</ele>
        <time>2022-05-24T08:36:08Z</time>
      </trkpt>
      <trkpt lat="44.9005" lon="1.7392">
        <ele>278.4</ele>
        <time>2022-05-24T08:36:09Z</time>
      </trkpt>
      <trkpt lat="44.90048" lon="1.73922">
        <ele>278.7</ele>
        <time>2022-05-24T08:36:10Z</time>
      </trkpt>
      <trkpt lat="44.90047" lon="1.73923">
        <ele>278.9</ele>
        <time>2022-05-24T08:36:11Z</time>
      </trkpt>
      <trkpt lat="44.90046" lon="1.73924">
        <ele>279.1</ele>
        <time>2022-05-24T08:36:12Z</time>
      </trkpt>
      <trkpt lat="44.90045" lon="1.73926">
        <ele>279.5</ele>
        <time>2022-05-24T08:36:14Z</time>
      </trkpt>
      <trkpt lat="44.90043" lon="1.73928">
        <ele>279.7</ele>
        <time>2022-05-24T08:36:15Z</time>
      </trkpt>
      <trkpt lat="44.90043" lon="1.7393">
        <ele>279.9</ele>
        <time>2022-05-24T08:36:16Z</time>
      </trkpt>
      <trkpt lat="44.90042" lon="1.73932">
        <ele>280.1</ele>
        <time>2022-05-24T08:36:17Z</time>
      </trkpt>
      <trkpt lat="44.90042" lon="1.73934">
        <ele>280.3</ele>
        <time>2022-05-24T08:36:18Z</time>
      </trkpt>
      <trkpt lat="44.90041" lon="1.73936">
        <ele>280.5</ele>
        <time>2022-05-24T08:36:19Z</time>
      </trkpt>
      <trkpt lat="44.9004" lon="1.73938">
        <ele>280.7</ele>
        <time>2022-05-24T08:36:20Z</time>
      </trkpt>
      <trkpt lat="44.90039" lon="1.7394">
        <ele>280.8</ele>
        <time>2022-05-24T08:36:21Z</time>
      </trkpt>
      <trkpt lat="44.90039" lon="1.73942">
        <ele>281</ele>
        <time>2022-05-24T08:36:22Z</time>
      </trkpt>
      <trkpt lat="44.90038" lon="1.73943">
        <ele>281.1</ele>
        <time>2022-05-24T08:36:23Z</time>
      </trkpt>
      <trkpt lat="44.90037" lon="1.73945">
        <ele>281.2</ele>
        <time>2022-05-24T08:36:24Z</time>
      </trkpt>
      <trkpt lat="44.90036" lon="1.73946">
        <ele>281.3</ele>
        <time>2022-05-24T08:36:25Z</time>
      </trkpt>
      <trkpt lat="44.90034" lon="1.73949">
        <ele>281.5</ele>
        <time>2022-05-24T08:36:26Z</time>
      </trkpt>
      <trkpt lat="44.90034" lon="1.7395">
        <ele>281.6</ele>
        <time>2022-05-24T08:36:27Z</time>
      </trkpt>
      <trkpt lat="44.90033" lon="1.73952">
        <ele>281.7</ele>
        <time>2022-05-24T08:36:28Z</time>
      </trkpt>
      <trkpt lat="44.90029" lon="1.73956">
        <ele>282</ele>
        <time>2022-05-24T08:36:30Z</time>
      </trkpt>
      <trkpt lat="44.90027" lon="1.73959">
        <ele>282</ele>
        <time>2022-05-24T08:36:31Z</time>
      </trkpt>
      <trkpt lat="44.90026" lon="1.7396">
        <ele>282</ele>
        <time>2022-05-24T08:36:32Z</time>
      </trkpt>
      <trkpt lat="44.90023" lon="1.73963">
        <ele>282.2</ele>
        <time>2022-05-24T08:36:33Z</time>
      </trkpt>
      <trkpt lat="44.90022" lon="1.73963">
        <ele>282.2</ele>
        <time>2022-05-24T08:36:34Z</time>
      </trkpt>
      <trkpt lat="44.90019" lon="1.73966">
        <ele>282.4</ele>
        <time>2022-05-24T08:36:35Z</time>
      </trkpt>
      <trkpt lat="44.90018" lon="1.73967">
        <ele>282.4</ele>
        <time>2022-05-24T08:36:36Z</time>
      </trkpt>
      <trkpt lat="44.90016" lon="1.7397">
        <ele>282.5</ele>
        <time>2022-05-24T08:36:37Z</time>
      </trkpt>
      <trkpt lat="44.90015" lon="1.73971">
        <ele>282.6</ele>
        <time>2022-05-24T08:36:38Z</time>
      </trkpt>
      <trkpt lat="44.90013" lon="1.73974">
        <ele>282.7</ele>
        <time>2022-05-24T08:36:39Z</time>
      </trkpt>
      <trkpt lat="44.90012" lon="1.73975">
        <ele>282.8</ele>
        <time>2022-05-24T08:36:40Z</time>
      </trkpt>
      <trkpt lat="44.90009" lon="1.73979">
        <ele>283</ele>
        <time>2022-05-24T08:36:41Z</time>
      </trkpt>
      <trkpt lat="44.90008" lon="1.7398">
        <ele>283</ele>
        <time>2022-05-24T08:36:42Z</time>
      </trkpt>
      <trkpt lat="44.90005" lon="1.73983">
        <ele>283.2</ele>
        <time>2022-05-24T08:36:43Z</time>
      </trkpt>
      <trkpt lat="44.90004" lon="1.73984">
        <ele>283.3</ele>
        <time>2022-05-24T08:36:44Z</time>
      </trkpt>
      <trkpt lat="44.90002" lon="1.73986">
        <ele>283.4</ele>
        <time>2022-05-24T08:36:45Z</time>
      </trkpt>
      <trkpt lat="44.89999" lon="1.73989">
        <ele>283.6</ele>
        <time>2022-05-24T08:36:46Z</time>
      </trkpt>
      <trkpt lat="44.89996" lon="1.73992">
        <ele>283.8</ele>
        <time>2022-05-24T08:36:47Z</time>
      </trkpt>
      <trkpt lat="44.89994" lon="1.73994">
        <ele>283.9</ele>
        <time>2022-05-24T08:36:48Z</time>
      </trkpt>
      <trkpt lat="44.89991" lon="1.73997">
        <ele>284</ele>
        <time>2022-05-24T08:36:49Z</time>
      </trkpt>
      <trkpt lat="44.89989" lon="1.73999">
        <ele>284.2</ele>
        <time>2022-05-24T08:36:50Z</time>
      </trkpt>
      <trkpt lat="44.89987" lon="1.74002">
        <ele>284.3</ele>
        <time>2022-05-24T08:36:51Z</time>
      </trkpt>
      <trkpt lat="44.89985" lon="1.74005">
        <ele>284.4</ele>
        <time>2022-05-24T08:36:52Z</time>
      </trkpt>
      <trkpt lat="44.89982" lon="1.74008">
        <ele>284.5</ele>
        <time>2022-05-24T08:36:53Z</time>
      </trkpt>
      <trkpt lat="44.8998" lon="1.74012">
        <ele>284.6</ele>
        <time>2022-05-24T08:36:54Z</time>
      </trkpt>
      <trkpt lat="44.89978" lon="1.74015">
        <ele>284.6</ele>
        <time>2022-05-24T08:36:55Z</time>
      </trkpt>
      <trkpt lat="44.89975" lon="1.74019">
        <ele>284.7</ele>
        <time>2022-05-24T08:36:56Z</time>
      </trkpt>
      <trkpt lat="44.89973" lon="1.74022">
        <ele>284.7</ele>
        <time>2022-05-24T08:36:57Z</time>
      </trkpt>
      <trkpt lat="44.8997" lon="1.74026">
        <ele>284.8</ele>
        <time>2022-05-24T08:36:58Z</time>
      </trkpt>
      <trkpt lat="44.89968" lon="1.74031">
        <ele>284.8</ele>
        <time>2022-05-24T08:36:59Z</time>
      </trkpt>
      <trkpt lat="44.89966" lon="1.74035">
        <ele>284.9</ele>
        <time>2022-05-24T08:37:00Z</time>
      </trkpt>
      <trkpt lat="44.89964" lon="1.74041">
        <ele>284.9</ele>
        <time>2022-05-24T08:37:01Z</time>
      </trkpt>
      <trkpt lat="44.89962" lon="1.74047">
        <ele>284.8</ele>
        <time>2022-05-24T08:37:02Z</time>
      </trkpt>
      <trkpt lat="44.8996" lon="1.74054">
        <ele>284.7</ele>
        <time>2022-05-24T08:37:03Z</time>
      </trkpt>
      <trkpt lat="44.89958" lon="1.7406">
        <ele>284.6</ele>
        <time>2022-05-24T08:37:04Z</time>
      </trkpt>
      <trkpt lat="44.89953" lon="1.74065">
        <ele>283.4</ele>
        <time>2022-05-24T08:37:05Z</time>
      </trkpt>
      <trkpt lat="44.8995" lon="1.74065">
        <ele>283.4</ele>
        <time>2022-05-24T08:37:06Z</time>
      </trkpt>
      <trkpt lat="44.89947" lon="1.74063">
        <ele>283.5</ele>
        <time>2022-05-24T08:37:07Z</time>
      </trkpt>
      <trkpt lat="44.89947" lon="1.74062">
        <ele>283.5</ele>
        <time>2022-05-24T08:37:08Z</time>
      </trkpt>
      <trkpt lat="44.89946" lon="1.7406">
        <ele>283.5</ele>
        <time>2022-05-24T08:37:09Z</time>
      </trkpt>
      <trkpt lat="44.89944" lon="1.7406">
        <ele>283.6</ele>
        <time>2022-05-24T08:37:10Z</time>
      </trkpt>
      <trkpt lat="44.89941" lon="1.7406">
        <ele>283.6</ele>
        <time>2022-05-24T08:37:11Z</time>
      </trkpt>
      <trkpt lat="44.89938" lon="1.74059">
        <ele>283.7</ele>
        <time>2022-05-24T08:37:12Z</time>
      </trkpt>
      <trkpt lat="44.89935" lon="1.74057">
        <ele>283.7</ele>
        <time>2022-05-24T08:37:13Z</time>
      </trkpt>
      <trkpt lat="44.89932" lon="1.74056">
        <ele>283.8</ele>
        <time>2022-05-24T08:37:14Z</time>
      </trkpt>
      <trkpt lat="44.89931" lon="1.74055">
        <ele>283.8</ele>
        <time>2022-05-24T08:37:15Z</time>
      </trkpt>
      <trkpt lat="44.89929" lon="1.74054">
        <ele>283.9</ele>
        <time>2022-05-24T08:37:16Z</time>
      </trkpt>
      <trkpt lat="44.89928" lon="1.74054">
        <ele>283.9</ele>
        <time>2022-05-24T08:37:17Z</time>
      </trkpt>
      <trkpt lat="44.89928" lon="1.74055">
        <ele>283.9</ele>
        <time>2022-05-24T08:37:18Z</time>
      </trkpt>
      <trkpt lat="44.89928" lon="1.74058">
        <ele>283.9</ele>
        <time>2022-05-24T08:37:19Z</time>
      </trkpt>
      <trkpt lat="44.8993" lon="1.74061">
        <ele>284</ele>
        <time>2022-05-24T08:37:20Z</time>
      </trkpt>
      <trkpt lat="44.89932" lon="1.74065">
        <ele>284</ele>
        <time>2022-05-24T08:37:21Z</time>
      </trkpt>
      <trkpt lat="44.89935" lon="1.74069">
        <ele>284.1</ele>
        <time>2022-05-24T08:37:22Z</time>
      </trkpt>
      <trkpt lat="44.89936" lon="1.74073">
        <ele>284.1</ele>
        <time>2022-05-24T08:37:23Z</time>
      </trkpt>
      <trkpt lat="44.89937" lon="1.74077">
        <ele>284.2</ele>
        <time>2022-05-24T08:37:24Z</time>
      </trkpt>
      <trkpt lat="44.89935" lon="1.74081">
        <ele>284.2</ele>
        <time>2022-05-24T08:37:25Z</time>
      </trkpt>
      <trkpt lat="44.89932" lon="1.74085">
        <ele>284.3</ele>
        <time>2022-05-24T08:37:26Z</time>
      </trkpt>
      <trkpt lat="44.89927" lon="1.74086">
        <ele>284.3</ele>
        <time>2022-05-24T08:37:27Z</time>
      </trkpt>
      <trkpt lat="44.89922" lon="1.74087">
        <ele>284.4</ele>
        <time>2022-05-24T08:37:28Z</time>
      </trkpt>
      <trkpt lat="44.89917" lon="1.74088">
        <ele>284.5</ele>
        <time>2022-05-24T08:37:29Z</time>
      </trkpt>
      <trkpt lat="44.89913" lon="1.74088">
        <ele>284.5</ele>
        <time>2022-05-24T08:37:30Z</time>
      </trkpt>
      <trkpt lat="44.89908" lon="1.74088">
        <ele>284.6</ele>
        <time>2022-05-24T08:37:31Z</time>
      </trkpt>
      <trkpt lat="44.89903" lon="1.74088">
        <ele>284.6</ele>
        <time>2022-05-24T08:37:32Z</time>
      </trkpt>
      <trkpt lat="44.89899" lon="1.74087">
        <ele>284.7</ele>
        <time>2022-05-24T08:37:33Z</time>
      </trkpt>
      <trkpt lat="44.89895" lon="1.74087">
        <ele>284.8</ele>
        <time>2022-05-24T08:37:34Z</time>
      </trkpt>
      <trkpt lat="44.8989" lon="1.74086">
        <ele>284.8</ele>
        <time>2022-05-24T08:37:35Z</time>
      </trkpt>
      <trkpt lat="44.89885" lon="1.74085">
        <ele>284.9</ele>
        <time>2022-05-24T08:37:36Z</time>
      </trkpt>
      <trkpt lat="44.89881" lon="1.74084">
        <ele>285</ele>
        <time>2022-05-24T08:37:37Z</time>
      </trkpt>
      <trkpt lat="44.89876" lon="1.74083">
        <ele>285.1</ele>
        <time>2022-05-24T08:37:38Z</time>
      </trkpt>
      <trkpt lat="44.89872" lon="1.74082">
        <ele>285.2</ele>
        <time>2022-05-24T08:37:39Z</time>
      </trkpt>
      <trkpt lat="44.89868" lon="1.74081">
        <ele>285.3</ele>
        <time>2022-05-24T08:37:40Z</time>
      </trkpt>
      <trkpt lat="44.89864" lon="1.74079">
        <ele>285.4</ele>
        <time>2022-05-24T08:37:41Z</time>
      </trkpt>
      <trkpt lat="44.8986" lon="1.74078">
        <ele>285.5</ele>
        <time>2022-05-24T08:37:42Z</time>
      </trkpt>
      <trkpt lat="44.89856" lon="1.74077">
        <ele>285.7</ele>
        <time>2022-05-24T08:37:43Z</time>
      </trkpt>
      <trkpt lat="44.89852" lon="1.74076">
        <ele>285.8</ele>
        <time>2022-05-24T08:37:44Z</time>
      </trkpt>
      <trkpt lat="44.89848" lon="1.74075">
        <ele>286</ele>
        <time>2022-05-24T08:37:45Z</time>
      </trkpt>
      <trkpt lat="44.89844" lon="1.74075">
        <ele>286.1</ele>
        <time>2022-05-24T08:37:46Z</time>
      </trkpt>
      <trkpt lat="44.8984" lon="1.74074">
        <ele>286.3</ele>
        <time>2022-05-24T08:37:47Z</time>
      </trkpt>
      <trkpt lat="44.89835" lon="1.74074">
        <ele>286.4</ele>
        <time>2022-05-24T08:37:48Z</time>
      </trkpt>
      <trkpt lat="44.8983" lon="1.74073">
        <ele>286.6</ele>
        <time>2022-05-24T08:37:49Z</time>
      </trkpt>
      <trkpt lat="44.89826" lon="1.74072">
        <ele>286.7</ele>
        <time>2022-05-24T08:37:50Z</time>
      </trkpt>
      <trkpt lat="44.89822" lon="1.74071">
        <ele>286.8</ele>
        <time>2022-05-24T08:37:51Z</time>
      </trkpt>
      <trkpt lat="44.89817" lon="1.7407">
        <ele>286.9</ele>
        <time>2022-05-24T08:37:52Z</time>
      </trkpt>
      <trkpt lat="44.89813" lon="1.74069">
        <ele>286.9</ele>
        <time>2022-05-24T08:37:53Z</time>
      </trkpt>
      <trkpt lat="44.89808" lon="1.74069">
        <ele>287</ele>
        <time>2022-05-24T08:37:54Z</time>
      </trkpt>
      <trkpt lat="44.89804" lon="1.74067">
        <ele>287</ele>
        <time>2022-05-24T08:37:55Z</time>
      </trkpt>
      <trkpt lat="44.89799" lon="1.74066">
        <ele>287.1</ele>
        <time>2022-05-24T08:37:56Z</time>
      </trkpt>
      <trkpt lat="44.89793" lon="1.74064">
        <ele>287.1</ele>
        <time>2022-05-24T08:37:57Z</time>
      </trkpt>
      <trkpt lat="44.89788" lon="1.74063">
        <ele>287.1</ele>
        <time>2022-05-24T08:37:58Z</time>
      </trkpt>
      <trkpt lat="44.89782" lon="1.7406">
        <ele>287.1</ele>
        <time>2022-05-24T08:37:59Z</time>
      </trkpt>
      <trkpt lat="44.89777" lon="1.74058">
        <ele>287.1</ele>
        <time>2022-05-24T08:38:00Z</time>
      </trkpt>
      <trkpt lat="44.89772" lon="1.74057">
        <ele>287.1</ele>
        <time>2022-05-24T08:38:01Z</time>
      </trkpt>
      <trkpt lat="44.89768" lon="1.74056">
        <ele>287.2</ele>
        <time>2022-05-24T08:38:02Z</time>
      </trkpt>
      <trkpt lat="44.89763" lon="1.74055">
        <ele>287.2</ele>
        <time>2022-05-24T08:38:03Z</time>
      </trkpt>
      <trkpt lat="44.8976" lon="1.74055">
        <ele>287.2</ele>
        <time>2022-05-24T08:38:04Z</time>
      </trkpt>
      <trkpt lat="44.89756" lon="1.74054">
        <ele>287.3</ele>
        <time>2022-05-24T08:38:05Z</time>
      </trkpt>
      <trkpt lat="44.89751" lon="1.74052">
        <ele>287.3</ele>
        <time>2022-05-24T08:38:06Z</time>
      </trkpt>
      <trkpt lat="44.89747" lon="1.74051">
        <ele>287.4</ele>
        <time>2022-05-24T08:38:07Z</time>
      </trkpt>
      <trkpt lat="44.89741" lon="1.74049">
        <ele>287.4</ele>
        <time>2022-05-24T08:38:08Z</time>
      </trkpt>
      <trkpt lat="44.89736" lon="1.74047">
        <ele>287.5</ele>
        <time>2022-05-24T08:38:09Z</time>
      </trkpt>
      <trkpt lat="44.8973" lon="1.74048">
        <ele>287.5</ele>
        <time>2022-05-24T08:38:10Z</time>
      </trkpt>
      <trkpt lat="44.89725" lon="1.74049">
        <ele>287.5</ele>
        <time>2022-05-24T08:38:11Z</time>
      </trkpt>
      <trkpt lat="44.89721" lon="1.7405">
        <ele>287.6</ele>
        <time>2022-05-24T08:38:12Z</time>
      </trkpt>
      <trkpt lat="44.89716" lon="1.74052">
        <ele>287.5</ele>
        <time>2022-05-24T08:38:13Z</time>
      </trkpt>
      <trkpt lat="44.8971" lon="1.74052">
        <ele>287.4</ele>
        <time>2022-05-24T08:38:14Z</time>
      </trkpt>
      <trkpt lat="44.89705" lon="1.74053">
        <ele>287.2</ele>
        <time>2022-05-24T08:38:15Z</time>
      </trkpt>
      <trkpt lat="44.89698" lon="1.74055">
        <ele>287.1</ele>
        <time>2022-05-24T08:38:16Z</time>
      </trkpt>
      <trkpt lat="44.89693" lon="1.74057">
        <ele>286.9</ele>
        <time>2022-05-24T08:38:17Z</time>
      </trkpt>
      <trkpt lat="44.89686" lon="1.74059">
        <ele>286.7</ele>
        <time>2022-05-24T08:38:18Z</time>
      </trkpt>
      <trkpt lat="44.8968" lon="1.74061">
        <ele>286.5</ele>
        <time>2022-05-24T08:38:19Z</time>
      </trkpt>
      <trkpt lat="44.89673" lon="1.74064">
        <ele>286.4</ele>
        <time>2022-05-24T08:38:20Z</time>
      </trkpt>
      <trkpt lat="44.89668" lon="1.74067">
        <ele>286.3</ele>
        <time>2022-05-24T08:38:21Z</time>
      </trkpt>
      <trkpt lat="44.89662" lon="1.7407">
        <ele>286.3</ele>
        <time>2022-05-24T08:38:22Z</time>
      </trkpt>
      <trkpt lat="44.89655" lon="1.74074">
        <ele>286.2</ele>
        <time>2022-05-24T08:38:23Z</time>
      </trkpt>
      <trkpt lat="44.8965" lon="1.74078">
        <ele>286.2</ele>
        <time>2022-05-24T08:38:24Z</time>
      </trkpt>
      <trkpt lat="44.89645" lon="1.74083">
        <ele>286.3</ele>
        <time>2022-05-24T08:38:25Z</time>
      </trkpt>
      <trkpt lat="44.89641" lon="1.74088">
        <ele>286.3</ele>
        <time>2022-05-24T08:38:26Z</time>
      </trkpt>
      <trkpt lat="44.89636" lon="1.74093">
        <ele>286.4</ele>
        <time>2022-05-24T08:38:27Z</time>
      </trkpt>
      <trkpt lat="44.89631" lon="1.74098">
        <ele>286.5</ele>
        <time>2022-05-24T08:38:28Z</time>
      </trkpt>
      <trkpt lat="44.89627" lon="1.74104">
        <ele>286.7</ele>
        <time>2022-05-24T08:38:29Z</time>
      </trkpt>
      <trkpt lat="44.89621" lon="1.74108">
        <ele>286.9</ele>
        <time>2022-05-24T08:38:30Z</time>
      </trkpt>
      <trkpt lat="44.89616" lon="1.74112">
        <ele>287.1</ele>
        <time>2022-05-24T08:38:31Z</time>
      </trkpt>
      <trkpt lat="44.89613" lon="1.74117">
        <ele>287.3</ele>
        <time>2022-05-24T08:38:32Z</time>
      </trkpt>
      <trkpt lat="44.89608" lon="1.74121">
        <ele>287.6</ele>
        <time>2022-05-24T08:38:33Z</time>
      </trkpt>
      <trkpt lat="44.89602" lon="1.74124">
        <ele>287.9</ele>
        <time>2022-05-24T08:38:34Z</time>
      </trkpt>
      <trkpt lat="44.89597" lon="1.74128">
        <ele>288.3</ele>
        <time>2022-05-24T08:38:35Z</time>
      </trkpt>
      <trkpt lat="44.89593" lon="1.74132">
        <ele>288.6</ele>
        <time>2022-05-24T08:38:36Z</time>
      </trkpt>
      <trkpt lat="44.89589" lon="1.74135">
        <ele>289</ele>
        <time>2022-05-24T08:38:37Z</time>
      </trkpt>
      <trkpt lat="44.89585" lon="1.74139">
        <ele>289.3</ele>
        <time>2022-05-24T08:38:38Z</time>
      </trkpt>
      <trkpt lat="44.89581" lon="1.74143">
        <ele>289.6</ele>
        <time>2022-05-24T08:38:39Z</time>
      </trkpt>
      <trkpt lat="44.89578" lon="1.74147">
        <ele>289.9</ele>
        <time>2022-05-24T08:38:40Z</time>
      </trkpt>
      <trkpt lat="44.89575" lon="1.74152">
        <ele>290.3</ele>
        <time>2022-05-24T08:38:41Z</time>
      </trkpt>
      <trkpt lat="44.89572" lon="1.74157">
        <ele>290.5</ele>
        <time>2022-05-24T08:38:42Z</time>
      </trkpt>
      <trkpt lat="44.8957" lon="1.74163">
        <ele>290.8</ele>
        <time>2022-05-24T08:38:43Z</time>
      </trkpt>
      <trkpt lat="44.89568" lon="1.74169">
        <ele>291</ele>
        <time>2022-05-24T08:38:44Z</time>
      </trkpt>
      <trkpt lat="44.89567" lon="1.74175">
        <ele>291.3</ele>
        <time>2022-05-24T08:38:45Z</time>
      </trkpt>
      <trkpt lat="44.89567" lon="1.74181">
        <ele>291.5</ele>
        <time>2022-05-24T08:38:46Z</time>
      </trkpt>
      <trkpt lat="44.89565" lon="1.74188">
        <ele>291.7</ele>
        <time>2022-05-24T08:38:47Z</time>
      </trkpt>
      <trkpt lat="44.89565" lon="1.74196">
        <ele>292</ele>
        <time>2022-05-24T08:38:48Z</time>
      </trkpt>
      <trkpt lat="44.89564" lon="1.74202">
        <ele>292.2</ele>
        <time>2022-05-24T08:38:49Z</time>
      </trkpt>
      <trkpt lat="44.89564" lon="1.74208">
        <ele>292.4</ele>
        <time>2022-05-24T08:38:50Z</time>
      </trkpt>
      <trkpt lat="44.89563" lon="1.74214">
        <ele>292.7</ele>
        <time>2022-05-24T08:38:51Z</time>
      </trkpt>
      <trkpt lat="44.89563" lon="1.74221">
        <ele>292.9</ele>
        <time>2022-05-24T08:38:52Z</time>
      </trkpt>
      <trkpt lat="44.89562" lon="1.74227">
        <ele>293.2</ele>
        <time>2022-05-24T08:38:53Z</time>
      </trkpt>
      <trkpt lat="44.89561" lon="1.74233">
        <ele>293.4</ele>
        <time>2022-05-24T08:38:54Z</time>
      </trkpt>
      <trkpt lat="44.8956" lon="1.74238">
        <ele>293.6</ele>
        <time>2022-05-24T08:38:55Z</time>
      </trkpt>
      <trkpt lat="44.89559" lon="1.74244">
        <ele>293.9</ele>
        <time>2022-05-24T08:38:56Z</time>
      </trkpt>
      <trkpt lat="44.89558" lon="1.74249">
        <ele>294.1</ele>
        <time>2022-05-24T08:38:57Z</time>
      </trkpt>
      <trkpt lat="44.89556" lon="1.74254">
        <ele>294.4</ele>
        <time>2022-05-24T08:38:58Z</time>
      </trkpt>
      <trkpt lat="44.89555" lon="1.74259">
        <ele>294.6</ele>
        <time>2022-05-24T08:38:59Z</time>
      </trkpt>
      <trkpt lat="44.89552" lon="1.74263">
        <ele>294.9</ele>
        <time>2022-05-24T08:39:00Z</time>
      </trkpt>
      <trkpt lat="44.89551" lon="1.74268">
        <ele>295.2</ele>
        <time>2022-05-24T08:39:01Z</time>
      </trkpt>
      <trkpt lat="44.89551" lon="1.74273">
        <ele>295.5</ele>
        <time>2022-05-24T08:39:02Z</time>
      </trkpt>
      <trkpt lat="44.8955" lon="1.74278">
        <ele>295.7</ele>
        <time>2022-05-24T08:39:03Z</time>
      </trkpt>
      <trkpt lat="44.8955" lon="1.74283">
        <ele>296</ele>
        <time>2022-05-24T08:39:04Z</time>
      </trkpt>
      <trkpt lat="44.89549" lon="1.74286">
        <ele>296.2</ele>
        <time>2022-05-24T08:39:05Z</time>
      </trkpt>
      <trkpt lat="44.89548" lon="1.74289">
        <ele>296.3</ele>
        <time>2022-05-24T08:39:06Z</time>
      </trkpt>
      <trkpt lat="44.89548" lon="1.74291">
        <ele>296.4</ele>
        <time>2022-05-24T08:39:07Z</time>
      </trkpt>
      <trkpt lat="44.89549" lon="1.74291">
        <ele>296.5</ele>
        <time>2022-05-24T08:39:08Z</time>
      </trkpt>
      <trkpt lat="44.8955" lon="1.74291">
        <ele>296.6</ele>
        <time>2022-05-24T08:39:09Z</time>
      </trkpt>
      <trkpt lat="44.89552" lon="1.74291">
        <ele>296.7</ele>
        <time>2022-05-24T08:39:10Z</time>
      </trkpt>
      <trkpt lat="44.89553" lon="1.7429">
        <ele>296.8</ele>
        <time>2022-05-24T08:39:11Z</time>
      </trkpt>
      <trkpt lat="44.89555" lon="1.74292">
        <ele>297</ele>
        <time>2022-05-24T08:39:12Z</time>
      </trkpt>
      <trkpt lat="44.89558" lon="1.74295">
        <ele>297.3</ele>
        <time>2022-05-24T08:39:13Z</time>
      </trkpt>
      <trkpt lat="44.8956" lon="1.74301">
        <ele>297.6</ele>
        <time>2022-05-24T08:39:14Z</time>
      </trkpt>
      <trkpt lat="44.89562" lon="1.74306">
        <ele>297.9</ele>
        <time>2022-05-24T08:39:15Z</time>
      </trkpt>
      <trkpt lat="44.89563" lon="1.74312">
        <ele>298.2</ele>
        <time>2022-05-24T08:39:16Z</time>
      </trkpt>
      <trkpt lat="44.89564" lon="1.74318">
        <ele>298.6</ele>
        <time>2022-05-24T08:39:17Z</time>
      </trkpt>
      <trkpt lat="44.89565" lon="1.74324">
        <ele>298.9</ele>
        <time>2022-05-24T08:39:18Z</time>
      </trkpt>
      <trkpt lat="44.89567" lon="1.74335">
        <ele>299.5</ele>
        <time>2022-05-24T08:39:19Z</time>
      </trkpt>
      <trkpt lat="44.89567" lon="1.74341">
        <ele>299.8</ele>
        <time>2022-05-24T08:39:20Z</time>
      </trkpt>
      <trkpt lat="44.89567" lon="1.74346">
        <ele>300.1</ele>
        <time>2022-05-24T08:39:21Z</time>
      </trkpt>
      <trkpt lat="44.89566" lon="1.74351">
        <ele>300.3</ele>
        <time>2022-05-24T08:39:22Z</time>
      </trkpt>
      <trkpt lat="44.89565" lon="1.74356">
        <ele>300.6</ele>
        <time>2022-05-24T08:39:23Z</time>
      </trkpt>
      <trkpt lat="44.89564" lon="1.7436">
        <ele>300.8</ele>
        <time>2022-05-24T08:39:24Z</time>
      </trkpt>
      <trkpt lat="44.89563" lon="1.74365">
        <ele>301.1</ele>
        <time>2022-05-24T08:39:25Z</time>
      </trkpt>
      <trkpt lat="44.89561" lon="1.7437">
        <ele>301.4</ele>
        <time>2022-05-24T08:39:26Z</time>
      </trkpt>
      <trkpt lat="44.8956" lon="1.74375">
        <ele>301.7</ele>
        <time>2022-05-24T08:39:27Z</time>
      </trkpt>
      <trkpt lat="44.89559" lon="1.74381">
        <ele>302</ele>
        <time>2022-05-24T08:39:28Z</time>
      </trkpt>
      <trkpt lat="44.89558" lon="1.74386">
        <ele>302.2</ele>
        <time>2022-05-24T08:39:29Z</time>
      </trkpt>
      <trkpt lat="44.89558" lon="1.74391">
        <ele>302.5</ele>
        <time>2022-05-24T08:39:30Z</time>
      </trkpt>
      <trkpt lat="44.89558" lon="1.74396">
        <ele>302.7</ele>
        <time>2022-05-24T08:39:31Z</time>
      </trkpt>
      <trkpt lat="44.89557" lon="1.74401">
        <ele>302.7</ele>
        <time>2022-05-24T08:39:32Z</time>
      </trkpt>
      <trkpt lat="44.89557" lon="1.74406">
        <ele>302.7</ele>
        <time>2022-05-24T08:39:33Z</time>
      </trkpt>
      <trkpt lat="44.89555" lon="1.74412">
        <ele>301.6</ele>
        <time>2022-05-24T08:39:34Z</time>
      </trkpt>
      <trkpt lat="44.89554" lon="1.74418">
        <ele>301.6</ele>
        <time>2022-05-24T08:39:35Z</time>
      </trkpt>
      <trkpt lat="44.89553" lon="1.74424">
        <ele>301.6</ele>
        <time>2022-05-24T08:39:36Z</time>
      </trkpt>
      <trkpt lat="44.89551" lon="1.74429">
        <ele>302.6</ele>
        <time>2022-05-24T08:39:37Z</time>
      </trkpt>
      <trkpt lat="44.8955" lon="1.74435">
        <ele>302.6</ele>
        <time>2022-05-24T08:39:38Z</time>
      </trkpt>
      <trkpt lat="44.89549" lon="1.74441">
        <ele>302.6</ele>
        <time>2022-05-24T08:39:39Z</time>
      </trkpt>
      <trkpt lat="44.89548" lon="1.74447">
        <ele>301.1</ele>
        <time>2022-05-24T08:39:40Z</time>
      </trkpt>
      <trkpt lat="44.89546" lon="1.74453">
        <ele>301.1</ele>
        <time>2022-05-24T08:39:41Z</time>
      </trkpt>
      <trkpt lat="44.89544" lon="1.74459">
        <ele>301.1</ele>
        <time>2022-05-24T08:39:42Z</time>
      </trkpt>
      <trkpt lat="44.89542" lon="1.74464">
        <ele>299.7</ele>
        <time>2022-05-24T08:39:43Z</time>
      </trkpt>
      <trkpt lat="44.8954" lon="1.74469">
        <ele>301.2</ele>
        <time>2022-05-24T08:39:44Z</time>
      </trkpt>
      <trkpt lat="44.89537" lon="1.74474">
        <ele>301.1</ele>
        <time>2022-05-24T08:39:45Z</time>
      </trkpt>
      <trkpt lat="44.89533" lon="1.7448">
        <ele>299.5</ele>
        <time>2022-05-24T08:39:46Z</time>
      </trkpt>
      <trkpt lat="44.8953" lon="1.74486">
        <ele>299.5</ele>
        <time>2022-05-24T08:39:47Z</time>
      </trkpt>
      <trkpt lat="44.89527" lon="1.74492">
        <ele>301.5</ele>
        <time>2022-05-24T08:39:48Z</time>
      </trkpt>
      <trkpt lat="44.89523" lon="1.74498">
        <ele>299.7</ele>
        <time>2022-05-24T08:39:49Z</time>
      </trkpt>
      <trkpt lat="44.8952" lon="1.74504">
        <ele>299.7</ele>
        <time>2022-05-24T08:39:50Z</time>
      </trkpt>
      <trkpt lat="44.89517" lon="1.74509">
        <ele>299.7</ele>
        <time>2022-05-24T08:39:51Z</time>
      </trkpt>
      <trkpt lat="44.89514" lon="1.74515">
        <ele>299.1</ele>
        <time>2022-05-24T08:39:52Z</time>
      </trkpt>
      <trkpt lat="44.89512" lon="1.74521">
        <ele>299.1</ele>
        <time>2022-05-24T08:39:53Z</time>
      </trkpt>
      <trkpt lat="44.89509" lon="1.74526">
        <ele>299.1</ele>
        <time>2022-05-24T08:39:54Z</time>
      </trkpt>
      <trkpt lat="44.89506" lon="1.74531">
        <ele>296.2</ele>
        <time>2022-05-24T08:39:55Z</time>
      </trkpt>
      <trkpt lat="44.89503" lon="1.74536">
        <ele>298.3</ele>
        <time>2022-05-24T08:39:56Z</time>
      </trkpt>
      <trkpt lat="44.89501" lon="1.74541">
        <ele>298.3</ele>
        <time>2022-05-24T08:39:57Z</time>
      </trkpt>
      <trkpt lat="44.89497" lon="1.74545">
        <ele>298.3</ele>
        <time>2022-05-24T08:39:58Z</time>
      </trkpt>
      <trkpt lat="44.89494" lon="1.74548">
        <ele>295.8</ele>
        <time>2022-05-24T08:39:59Z</time>
      </trkpt>
      <trkpt lat="44.89491" lon="1.74552">
        <ele>297.9</ele>
        <time>2022-05-24T08:40:00Z</time>
      </trkpt>
      <trkpt lat="44.89488" lon="1.74556">
        <ele>297.9</ele>
        <time>2022-05-24T08:40:01Z</time>
      </trkpt>
      <trkpt lat="44.89484" lon="1.7456">
        <ele>297.9</ele>
        <time>2022-05-24T08:40:02Z</time>
      </trkpt>
      <trkpt lat="44.89482" lon="1.74564">
        <ele>295.2</ele>
        <time>2022-05-24T08:40:03Z</time>
      </trkpt>
      <trkpt lat="44.89479" lon="1.74566">
        <ele>297.6</ele>
        <time>2022-05-24T08:40:04Z</time>
      </trkpt>
      <trkpt lat="44.89474" lon="1.74568">
        <ele>297.6</ele>
        <time>2022-05-24T08:40:05Z</time>
      </trkpt>
      <trkpt lat="44.8947" lon="1.74571">
        <ele>297.6</ele>
        <time>2022-05-24T08:40:06Z</time>
      </trkpt>
      <trkpt lat="44.89466" lon="1.74574">
        <ele>300.1</ele>
        <time>2022-05-24T08:40:07Z</time>
      </trkpt>
      <trkpt lat="44.89461" lon="1.74577">
        <ele>300.1</ele>
        <time>2022-05-24T08:40:08Z</time>
      </trkpt>
      <trkpt lat="44.89457" lon="1.74582">
        <ele>297.5</ele>
        <time>2022-05-24T08:40:09Z</time>
      </trkpt>
      <trkpt lat="44.89452" lon="1.74586">
        <ele>299.6</ele>
        <time>2022-05-24T08:40:10Z</time>
      </trkpt>
      <trkpt lat="44.89448" lon="1.7459">
        <ele>299.6</ele>
        <time>2022-05-24T08:40:11Z</time>
      </trkpt>
      <trkpt lat="44.89445" lon="1.74593">
        <ele>299.6</ele>
        <time>2022-05-24T08:40:12Z</time>
      </trkpt>
      <trkpt lat="44.89441" lon="1.74596">
        <ele>301.8</ele>
        <time>2022-05-24T08:40:13Z</time>
      </trkpt>
      <trkpt lat="44.89437" lon="1.74599">
        <ele>299.3</ele>
        <time>2022-05-24T08:40:14Z</time>
      </trkpt>
      <trkpt lat="44.89433" lon="1.74602">
        <ele>299.3</ele>
        <time>2022-05-24T08:40:15Z</time>
      </trkpt>
      <trkpt lat="44.89429" lon="1.74605">
        <ele>301.1</ele>
        <time>2022-05-24T08:40:16Z</time>
      </trkpt>
      <trkpt lat="44.89424" lon="1.74607">
        <ele>301.1</ele>
        <time>2022-05-24T08:40:17Z</time>
      </trkpt>
      <trkpt lat="44.8942" lon="1.74611">
        <ele>301</ele>
        <time>2022-05-24T08:40:18Z</time>
      </trkpt>
      <trkpt lat="44.89417" lon="1.74616">
        <ele>299.7</ele>
        <time>2022-05-24T08:40:19Z</time>
      </trkpt>
      <trkpt lat="44.89413" lon="1.7462">
        <ele>299.7</ele>
        <time>2022-05-24T08:40:20Z</time>
      </trkpt>
      <trkpt lat="44.89408" lon="1.74625">
        <ele>299.7</ele>
        <time>2022-05-24T08:40:21Z</time>
      </trkpt>
      <trkpt lat="44.89405" lon="1.7463">
        <ele>301</ele>
        <time>2022-05-24T08:40:22Z</time>
      </trkpt>
      <trkpt lat="44.89402" lon="1.74634">
        <ele>297.3</ele>
        <time>2022-05-24T08:40:23Z</time>
      </trkpt>
      <trkpt lat="44.89399" lon="1.74639">
        <ele>297.3</ele>
        <time>2022-05-24T08:40:24Z</time>
      </trkpt>
      <trkpt lat="44.89396" lon="1.74642">
        <ele>297.3</ele>
        <time>2022-05-24T08:40:25Z</time>
      </trkpt>
      <trkpt lat="44.89392" lon="1.74647">
        <ele>299</ele>
        <time>2022-05-24T08:40:26Z</time>
      </trkpt>
      <trkpt lat="44.89389" lon="1.74651">
        <ele>295.3</ele>
        <time>2022-05-24T08:40:27Z</time>
      </trkpt>
      <trkpt lat="44.89385" lon="1.74655">
        <ele>295.3</ele>
        <time>2022-05-24T08:40:28Z</time>
      </trkpt>
      <trkpt lat="44.89381" lon="1.7466">
        <ele>297.3</ele>
        <time>2022-05-24T08:40:29Z</time>
      </trkpt>
      <trkpt lat="44.89377" lon="1.74664">
        <ele>297.3</ele>
        <time>2022-05-24T08:40:30Z</time>
      </trkpt>
      <trkpt lat="44.89371" lon="1.74669">
        <ele>293.2</ele>
        <time>2022-05-24T08:40:31Z</time>
      </trkpt>
      <trkpt lat="44.89367" lon="1.74675">
        <ele>295.4</ele>
        <time>2022-05-24T08:40:32Z</time>
      </trkpt>
      <trkpt lat="44.89364" lon="1.74681">
        <ele>295.4</ele>
        <time>2022-05-24T08:40:33Z</time>
      </trkpt>
      <trkpt lat="44.89361" lon="1.74686">
        <ele>291.6</ele>
        <time>2022-05-24T08:40:34Z</time>
      </trkpt>
      <trkpt lat="44.89359" lon="1.74692">
        <ele>291.6</ele>
        <time>2022-05-24T08:40:35Z</time>
      </trkpt>
      <trkpt lat="44.89357" lon="1.74699">
        <ele>294.1</ele>
        <time>2022-05-24T08:40:36Z</time>
      </trkpt>
      <trkpt lat="44.89354" lon="1.74706">
        <ele>290</ele>
        <time>2022-05-24T08:40:37Z</time>
      </trkpt>
      <trkpt lat="44.8935" lon="1.74712">
        <ele>290</ele>
        <time>2022-05-24T08:40:38Z</time>
      </trkpt>
      <trkpt lat="44.89347" lon="1.74717">
        <ele>286.3</ele>
        <time>2022-05-24T08:40:39Z</time>
      </trkpt>
      <trkpt lat="44.89344" lon="1.74723">
        <ele>288.9</ele>
        <time>2022-05-24T08:40:40Z</time>
      </trkpt>
      <trkpt lat="44.8934" lon="1.74729">
        <ele>288.9</ele>
        <time>2022-05-24T08:40:41Z</time>
      </trkpt>
      <trkpt lat="44.89336" lon="1.74736">
        <ele>285.7</ele>
        <time>2022-05-24T08:40:42Z</time>
      </trkpt>
      <trkpt lat="44.89332" lon="1.74742">
        <ele>289.1</ele>
        <time>2022-05-24T08:40:43Z</time>
      </trkpt>
      <trkpt lat="44.89327" lon="1.74749">
        <ele>289.1</ele>
        <time>2022-05-24T08:40:44Z</time>
      </trkpt>
      <trkpt lat="44.89323" lon="1.74755">
        <ele>285.4</ele>
        <time>2022-05-24T08:40:45Z</time>
      </trkpt>
      <trkpt lat="44.89319" lon="1.74763">
        <ele>288.6</ele>
        <time>2022-05-24T08:40:46Z</time>
      </trkpt>
      <trkpt lat="44.89314" lon="1.7477">
        <ele>285.4</ele>
        <time>2022-05-24T08:40:47Z</time>
      </trkpt>
      <trkpt lat="44.89311" lon="1.74776">
        <ele>285.4</ele>
        <time>2022-05-24T08:40:48Z</time>
      </trkpt>
      <trkpt lat="44.89307" lon="1.74783">
        <ele>289</ele>
        <time>2022-05-24T08:40:49Z</time>
      </trkpt>
      <trkpt lat="44.89303" lon="1.74791">
        <ele>285.9</ele>
        <time>2022-05-24T08:40:50Z</time>
      </trkpt>
      <trkpt lat="44.89298" lon="1.74798">
        <ele>285.9</ele>
        <time>2022-05-24T08:40:51Z</time>
      </trkpt>
      <trkpt lat="44.89293" lon="1.74803">
        <ele>286.1</ele>
        <time>2022-05-24T08:40:52Z</time>
      </trkpt>
      <trkpt lat="44.89285" lon="1.7481">
        <ele>289.5</ele>
        <time>2022-05-24T08:40:53Z</time>
      </trkpt>
      <trkpt lat="44.89278" lon="1.74816">
        <ele>289.5</ele>
        <time>2022-05-24T08:40:54Z</time>
      </trkpt>
      <trkpt lat="44.89272" lon="1.74823">
        <ele>290.7</ele>
        <time>2022-05-24T08:40:55Z</time>
      </trkpt>
      <trkpt lat="44.89266" lon="1.74829">
        <ele>290.7</ele>
        <time>2022-05-24T08:40:56Z</time>
      </trkpt>
      <trkpt lat="44.8926" lon="1.74834">
        <ele>294</ele>
        <time>2022-05-24T08:40:57Z</time>
      </trkpt>
      <trkpt lat="44.89252" lon="1.74839">
        <ele>291.5</ele>
        <time>2022-05-24T08:40:58Z</time>
      </trkpt>
      <trkpt lat="44.89245" lon="1.74845">
        <ele>295</ele>
        <time>2022-05-24T08:40:59Z</time>
      </trkpt>
      <trkpt lat="44.89239" lon="1.7485">
        <ele>295</ele>
        <time>2022-05-24T08:41:00Z</time>
      </trkpt>
      <trkpt lat="44.89233" lon="1.74855">
        <ele>295.2</ele>
        <time>2022-05-24T08:41:01Z</time>
      </trkpt>
      <trkpt lat="44.89228" lon="1.74859">
        <ele>295.2</ele>
        <time>2022-05-24T08:41:02Z</time>
      </trkpt>
      <trkpt lat="44.89224" lon="1.74864">
        <ele>298.1</ele>
        <time>2022-05-24T08:41:03Z</time>
      </trkpt>
      <trkpt lat="44.89221" lon="1.74869">
        <ele>298.1</ele>
        <time>2022-05-24T08:41:04Z</time>
      </trkpt>
      <trkpt lat="44.89219" lon="1.74873">
        <ele>296.1</ele>
        <time>2022-05-24T08:41:05Z</time>
      </trkpt>
      <trkpt lat="44.89219" lon="1.74876">
        <ele>296.1</ele>
        <time>2022-05-24T08:41:06Z</time>
      </trkpt>
      <trkpt lat="44.89218" lon="1.74876">
        <ele>296.1</ele>
        <time>2022-05-24T08:41:08Z</time>
      </trkpt>
      <trkpt lat="44.89218" lon="1.74876">
        <ele>296.1</ele>
        <time>2022-05-24T08:41:09Z</time>
      </trkpt>
      <trkpt lat="44.89218" lon="1.74876">
        <ele>296</ele>
        <time>2022-05-24T08:41:10Z</time>
      </trkpt>
      <trkpt lat="44.89218" lon="1.74876">
        <ele>296</ele>
        <time>2022-05-24T08:41:11Z</time>
      </trkpt>
      <trkpt lat="44.89217" lon="1.74876">
        <ele>296</ele>
        <time>2022-05-24T08:41:12Z</time>
      </trkpt>
      <trkpt lat="44.89217" lon="1.74877">
        <ele>296</ele>
        <time>2022-05-24T08:41:13Z</time>
      </trkpt>
      <trkpt lat="44.89217" lon="1.74877">
        <ele>296</ele>
        <time>2022-05-24T08:41:14Z</time>
      </trkpt>
      <trkpt lat="44.89217" lon="1.74877">
        <ele>296</ele>
        <time>2022-05-24T08:41:15Z</time>
      </trkpt>
      <trkpt lat="44.89216" lon="1.74877">
        <ele>296</ele>
        <time>2022-05-24T08:41:16Z</time>
      </trkpt>
      <trkpt lat="44.89216" lon="1.74877">
        <ele>296</ele>
        <time>2022-05-24T08:41:17Z</time>
      </trkpt>
      <trkpt lat="44.89216" lon="1.74877">
        <ele>296</ele>
        <time>2022-05-24T08:41:18Z</time>
      </trkpt>
      <trkpt lat="44.89216" lon="1.74878">
        <ele>296</ele>
        <time>2022-05-24T08:41:19Z</time>
      </trkpt>
      <trkpt lat="44.89216" lon="1.74878">
        <ele>296</ele>
        <time>2022-05-24T08:41:20Z</time>
      </trkpt>
      <trkpt lat="44.89215" lon="1.74878">
        <ele>296</ele>
        <time>2022-05-24T08:41:21Z</time>
      </trkpt>
      <trkpt lat="44.89215" lon="1.74878">
        <ele>296</ele>
        <time>2022-05-24T08:41:22Z</time>
      </trkpt>
      <trkpt lat="44.89215" lon="1.74878">
        <ele>296</ele>
        <time>2022-05-24T08:41:23Z</time>
      </trkpt>
      <trkpt lat="44.89215" lon="1.74878">
        <ele>296</ele>
        <time>2022-05-24T08:41:24Z</time>
      </trkpt>
      <trkpt lat="44.89214" lon="1.74878">
        <ele>295.9</ele>
        <time>2022-05-24T08:41:25Z</time>
      </trkpt>
      <trkpt lat="44.89214" lon="1.74879">
        <ele>295.9</ele>
        <time>2022-05-24T08:41:26Z</time>
      </trkpt>
      <trkpt lat="44.89214" lon="1.74879">
        <ele>295.9</ele>
        <time>2022-05-24T08:41:27Z</time>
      </trkpt>
      <trkpt lat="44.89214" lon="1.74879">
        <ele>295.9</ele>
        <time>2022-05-24T08:41:28Z</time>
      </trkpt>
      <trkpt lat="44.89213" lon="1.74879">
        <ele>295.9</ele>
        <time>2022-05-24T08:41:29Z</time>
      </trkpt>
      <trkpt lat="44.89213" lon="1.74879">
        <ele>295.9</ele>
        <time>2022-05-24T08:41:49Z</time>
      </trkpt>
      <trkpt lat="44.89213" lon="1.74879">
        <ele>295.9</ele>
        <time>2022-05-24T08:41:50Z</time>
      </trkpt>
      <trkpt lat="44.89213" lon="1.7488">
        <ele>295.9</ele>
        <time>2022-05-24T08:41:51Z</time>
      </trkpt>
      <trkpt lat="44.89213" lon="1.7488">
        <ele>295.9</ele>
        <time>2022-05-24T08:41:52Z</time>
      </trkpt>
      <trkpt lat="44.89211" lon="1.7488">
        <ele>298</ele>
        <time>2022-05-24T08:41:53Z</time>
      </trkpt>
      <trkpt lat="44.89209" lon="1.7488">
        <ele>298</ele>
        <time>2022-05-24T08:41:54Z</time>
      </trkpt>
      <trkpt lat="44.89208" lon="1.7488">
        <ele>298</ele>
        <time>2022-05-24T08:41:55Z</time>
      </trkpt>
      <trkpt lat="44.89206" lon="1.74878">
        <ele>298</ele>
        <time>2022-05-24T08:41:56Z</time>
      </trkpt>
      <trkpt lat="44.89205" lon="1.74877">
        <ele>298</ele>
        <time>2022-05-24T08:41:57Z</time>
      </trkpt>
      <trkpt lat="44.89204" lon="1.74875">
        <ele>298</ele>
        <time>2022-05-24T08:41:58Z</time>
      </trkpt>
      <trkpt lat="44.89203" lon="1.74874">
        <ele>298</ele>
        <time>2022-05-24T08:41:59Z</time>
      </trkpt>
      <trkpt lat="44.892" lon="1.74871">
        <ele>300</ele>
        <time>2022-05-24T08:42:01Z</time>
      </trkpt>
      <trkpt lat="44.89199" lon="1.7487">
        <ele>301.9</ele>
        <time>2022-05-24T08:42:02Z</time>
      </trkpt>
      <trkpt lat="44.89197" lon="1.7487">
        <ele>301.9</ele>
        <time>2022-05-24T08:42:03Z</time>
      </trkpt>
      <trkpt lat="44.89196" lon="1.74869">
        <ele>301.9</ele>
        <time>2022-05-24T08:42:04Z</time>
      </trkpt>
      <trkpt lat="44.89196" lon="1.74869">
        <ele>301.9</ele>
        <time>2022-05-24T08:42:05Z</time>
      </trkpt>
      <trkpt lat="44.89194" lon="1.74868">
        <ele>301.9</ele>
        <time>2022-05-24T08:42:06Z</time>
      </trkpt>
      <trkpt lat="44.89193" lon="1.74867">
        <ele>301.8</ele>
        <time>2022-05-24T08:42:07Z</time>
      </trkpt>
      <trkpt lat="44.89191" lon="1.74865">
        <ele>301.8</ele>
        <time>2022-05-24T08:42:08Z</time>
      </trkpt>
      <trkpt lat="44.8919" lon="1.74864">
        <ele>301.8</ele>
        <time>2022-05-24T08:42:09Z</time>
      </trkpt>
      <trkpt lat="44.89188" lon="1.74862">
        <ele>303.4</ele>
        <time>2022-05-24T08:42:10Z</time>
      </trkpt>
      <trkpt lat="44.89187" lon="1.74861">
        <ele>303.4</ele>
        <time>2022-05-24T08:42:11Z</time>
      </trkpt>
      <trkpt lat="44.89184" lon="1.74859">
        <ele>303.4</ele>
        <time>2022-05-24T08:42:12Z</time>
      </trkpt>
      <trkpt lat="44.89184" lon="1.74859">
        <ele>303.4</ele>
        <time>2022-05-24T08:42:13Z</time>
      </trkpt>
      <trkpt lat="44.89182" lon="1.74857">
        <ele>303.4</ele>
        <time>2022-05-24T08:42:14Z</time>
      </trkpt>
      <trkpt lat="44.89181" lon="1.74856">
        <ele>303.4</ele>
        <time>2022-05-24T08:42:15Z</time>
      </trkpt>
      <trkpt lat="44.89179" lon="1.74856">
        <ele>303.4</ele>
        <time>2022-05-24T08:42:16Z</time>
      </trkpt>
      <trkpt lat="44.89178" lon="1.74856">
        <ele>303.4</ele>
        <time>2022-05-24T08:42:17Z</time>
      </trkpt>
      <trkpt lat="44.89176" lon="1.74856">
        <ele>303.4</ele>
        <time>2022-05-24T08:42:18Z</time>
      </trkpt>
      <trkpt lat="44.89175" lon="1.74855">
        <ele>305</ele>
        <time>2022-05-24T08:42:19Z</time>
      </trkpt>
      <trkpt lat="44.89172" lon="1.74853">
        <ele>307.3</ele>
        <time>2022-05-24T08:42:20Z</time>
      </trkpt>
      <trkpt lat="44.89171" lon="1.74853">
        <ele>307.3</ele>
        <time>2022-05-24T08:42:21Z</time>
      </trkpt>
      <trkpt lat="44.8917" lon="1.74851">
        <ele>307.3</ele>
        <time>2022-05-24T08:42:22Z</time>
      </trkpt>
      <trkpt lat="44.89169" lon="1.7485">
        <ele>307.3</ele>
        <time>2022-05-24T08:42:23Z</time>
      </trkpt>
      <trkpt lat="44.89168" lon="1.74849">
        <ele>307.2</ele>
        <time>2022-05-24T08:42:24Z</time>
      </trkpt>
      <trkpt lat="44.89166" lon="1.74849">
        <ele>307.2</ele>
        <time>2022-05-24T08:42:25Z</time>
      </trkpt>
      <trkpt lat="44.89165" lon="1.74848">
        <ele>307.2</ele>
        <time>2022-05-24T08:42:26Z</time>
      </trkpt>
      <trkpt lat="44.89163" lon="1.74848">
        <ele>308.8</ele>
        <time>2022-05-24T08:42:27Z</time>
      </trkpt>
      <trkpt lat="44.89161" lon="1.74847">
        <ele>308.8</ele>
        <time>2022-05-24T08:42:28Z</time>
      </trkpt>
      <trkpt lat="44.8916" lon="1.74846">
        <ele>308.8</ele>
        <time>2022-05-24T08:42:29Z</time>
      </trkpt>
      <trkpt lat="44.8916" lon="1.74846">
        <ele>308.8</ele>
        <time>2022-05-24T08:42:30Z</time>
      </trkpt>
      <trkpt lat="44.89158" lon="1.74846">
        <ele>308.8</ele>
        <time>2022-05-24T08:42:31Z</time>
      </trkpt>
      <trkpt lat="44.89157" lon="1.74845">
        <ele>308.8</ele>
        <time>2022-05-24T08:42:32Z</time>
      </trkpt>
      <trkpt lat="44.89156" lon="1.74844">
        <ele>308.8</ele>
        <time>2022-05-24T08:42:33Z</time>
      </trkpt>
      <trkpt lat="44.89155" lon="1.74843">
        <ele>308.8</ele>
        <time>2022-05-24T08:42:34Z</time>
      </trkpt>
      <trkpt lat="44.89154" lon="1.74842">
        <ele>308.8</ele>
        <time>2022-05-24T08:42:35Z</time>
      </trkpt>
      <trkpt lat="44.89153" lon="1.74841">
        <ele>308.8</ele>
        <time>2022-05-24T08:42:36Z</time>
      </trkpt>
      <trkpt lat="44.89151" lon="1.74838">
        <ele>310</ele>
        <time>2022-05-24T08:42:38Z</time>
      </trkpt>
      <trkpt lat="44.8915" lon="1.74838">
        <ele>310</ele>
        <time>2022-05-24T08:42:39Z</time>
      </trkpt>
      <trkpt lat="44.89149" lon="1.74836">
        <ele>312.2</ele>
        <time>2022-05-24T08:42:40Z</time>
      </trkpt>
      <trkpt lat="44.89149" lon="1.74834">
        <ele>312.2</ele>
        <time>2022-05-24T08:42:41Z</time>
      </trkpt>
      <trkpt lat="44.89148" lon="1.74833">
        <ele>312.2</ele>
        <time>2022-05-24T08:42:42Z</time>
      </trkpt>
      <trkpt lat="44.89148" lon="1.74832">
        <ele>312.2</ele>
        <time>2022-05-24T08:42:43Z</time>
      </trkpt>
      <trkpt lat="44.89148" lon="1.74832">
        <ele>312.2</ele>
        <time>2022-05-24T08:42:44Z</time>
      </trkpt>
      <trkpt lat="44.89148" lon="1.74832">
        <ele>312.2</ele>
        <time>2022-05-24T08:42:45Z</time>
      </trkpt>
      <trkpt lat="44.89147" lon="1.74831">
        <ele>312.2</ele>
        <time>2022-05-24T08:42:46Z</time>
      </trkpt>
      <trkpt lat="44.89147" lon="1.7483">
        <ele>312.2</ele>
        <time>2022-05-24T08:42:47Z</time>
      </trkpt>
      <trkpt lat="44.89146" lon="1.74829">
        <ele>312.2</ele>
        <time>2022-05-24T08:42:48Z</time>
      </trkpt>
      <trkpt lat="44.89146" lon="1.74828">
        <ele>312.2</ele>
        <time>2022-05-24T08:42:49Z</time>
      </trkpt>
      <trkpt lat="44.89145" lon="1.74827">
        <ele>312.2</ele>
        <time>2022-05-24T08:42:50Z</time>
      </trkpt>
      <trkpt lat="44.89145" lon="1.74826">
        <ele>312.1</ele>
        <time>2022-05-24T08:42:51Z</time>
      </trkpt>
      <trkpt lat="44.89145" lon="1.74826">
        <ele>312.1</ele>
        <time>2022-05-24T08:42:52Z</time>
      </trkpt>
      <trkpt lat="44.89144" lon="1.74825">
        <ele>312.1</ele>
        <time>2022-05-24T08:42:53Z</time>
      </trkpt>
      <trkpt lat="44.89144" lon="1.74824">
        <ele>312.1</ele>
        <time>2022-05-24T08:42:54Z</time>
      </trkpt>
      <trkpt lat="44.89143" lon="1.74823">
        <ele>312.1</ele>
        <time>2022-05-24T08:42:55Z</time>
      </trkpt>
      <trkpt lat="44.89143" lon="1.74823">
        <ele>312.1</ele>
        <time>2022-05-24T08:42:56Z</time>
      </trkpt>
      <trkpt lat="44.89142" lon="1.74821">
        <ele>312.1</ele>
        <time>2022-05-24T08:42:57Z</time>
      </trkpt>
      <trkpt lat="44.89141" lon="1.7482">
        <ele>312.1</ele>
        <time>2022-05-24T08:42:58Z</time>
      </trkpt>
      <trkpt lat="44.89141" lon="1.74819">
        <ele>314.4</ele>
        <time>2022-05-24T08:42:59Z</time>
      </trkpt>
      <trkpt lat="44.89141" lon="1.74819">
        <ele>314.4</ele>
        <time>2022-05-24T08:43:00Z</time>
      </trkpt>
      <trkpt lat="44.89141" lon="1.74818">
        <ele>314.3</ele>
        <time>2022-05-24T08:43:01Z</time>
      </trkpt>
      <trkpt lat="44.89141" lon="1.74817">
        <ele>314.3</ele>
        <time>2022-05-24T08:43:02Z</time>
      </trkpt>
      <trkpt lat="44.8914" lon="1.74816">
        <ele>314.3</ele>
        <time>2022-05-24T08:43:03Z</time>
      </trkpt>
      <trkpt lat="44.8914" lon="1.74816">
        <ele>314.3</ele>
        <time>2022-05-24T08:43:04Z</time>
      </trkpt>
      <trkpt lat="44.8914" lon="1.74815">
        <ele>314.3</ele>
        <time>2022-05-24T08:43:05Z</time>
      </trkpt>
      <trkpt lat="44.89139" lon="1.74814">
        <ele>314.3</ele>
        <time>2022-05-24T08:43:06Z</time>
      </trkpt>
      <trkpt lat="44.89139" lon="1.74813">
        <ele>315.3</ele>
        <time>2022-05-24T08:43:07Z</time>
      </trkpt>
      <trkpt lat="44.89138" lon="1.74812">
        <ele>315.3</ele>
        <time>2022-05-24T08:43:08Z</time>
      </trkpt>
      <trkpt lat="44.89138" lon="1.74811">
        <ele>315.3</ele>
        <time>2022-05-24T08:43:09Z</time>
      </trkpt>
      <trkpt lat="44.89138" lon="1.7481">
        <ele>315.3</ele>
        <time>2022-05-24T08:43:10Z</time>
      </trkpt>
      <trkpt lat="44.89137" lon="1.74808">
        <ele>315.3</ele>
        <time>2022-05-24T08:43:11Z</time>
      </trkpt>
      <trkpt lat="44.89137" lon="1.74807">
        <ele>315.3</ele>
        <time>2022-05-24T08:43:12Z</time>
      </trkpt>
      <trkpt lat="44.89136" lon="1.74806">
        <ele>315.3</ele>
        <time>2022-05-24T08:43:13Z</time>
      </trkpt>
      <trkpt lat="44.89136" lon="1.74806">
        <ele>315.3</ele>
        <time>2022-05-24T08:43:14Z</time>
      </trkpt>
      <trkpt lat="44.89135" lon="1.74806">
        <ele>315.3</ele>
        <time>2022-05-24T08:43:15Z</time>
      </trkpt>
      <trkpt lat="44.89134" lon="1.74806">
        <ele>315.3</ele>
        <time>2022-05-24T08:43:16Z</time>
      </trkpt>
      <trkpt lat="44.89133" lon="1.74805">
        <ele>315.3</ele>
        <time>2022-05-24T08:43:17Z</time>
      </trkpt>
      <trkpt lat="44.89133" lon="1.74805">
        <ele>315.3</ele>
        <time>2022-05-24T08:43:18Z</time>
      </trkpt>
      <trkpt lat="44.89132" lon="1.74804">
        <ele>315.3</ele>
        <time>2022-05-24T08:43:19Z</time>
      </trkpt>
      <trkpt lat="44.89131" lon="1.74804">
        <ele>315.3</ele>
        <time>2022-05-24T08:43:20Z</time>
      </trkpt>
      <trkpt lat="44.8913" lon="1.74803">
        <ele>315.2</ele>
        <time>2022-05-24T08:43:21Z</time>
      </trkpt>
      <trkpt lat="44.89129" lon="1.74803">
        <ele>315.2</ele>
        <time>2022-05-24T08:43:22Z</time>
      </trkpt>
      <trkpt lat="44.89129" lon="1.74804">
        <ele>315.2</ele>
        <time>2022-05-24T08:43:23Z</time>
      </trkpt>
      <trkpt lat="44.8913" lon="1.74805">
        <ele>315.2</ele>
        <time>2022-05-24T08:43:24Z</time>
      </trkpt>
      <trkpt lat="44.8913" lon="1.74805">
        <ele>315.2</ele>
        <time>2022-05-24T08:43:25Z</time>
      </trkpt>
      <trkpt lat="44.8913" lon="1.74805">
        <ele>315.2</ele>
        <time>2022-05-24T08:43:26Z</time>
      </trkpt>
      <trkpt lat="44.89129" lon="1.74804">
        <ele>315.2</ele>
        <time>2022-05-24T08:43:27Z</time>
      </trkpt>
      <trkpt lat="44.89129" lon="1.74803">
        <ele>317.7</ele>
        <time>2022-05-24T08:43:28Z</time>
      </trkpt>
      <trkpt lat="44.89129" lon="1.74801">
        <ele>317.7</ele>
        <time>2022-05-24T08:43:29Z</time>
      </trkpt>
      <trkpt lat="44.89128" lon="1.74799">
        <ele>317.7</ele>
        <time>2022-05-24T08:43:30Z</time>
      </trkpt>
      <trkpt lat="44.89128" lon="1.74797">
        <ele>317.7</ele>
        <time>2022-05-24T08:43:31Z</time>
      </trkpt>
      <trkpt lat="44.89128" lon="1.74795">
        <ele>317.7</ele>
        <time>2022-05-24T08:43:32Z</time>
      </trkpt>
      <trkpt lat="44.89127" lon="1.74792">
        <ele>317.7</ele>
        <time>2022-05-24T08:43:33Z</time>
      </trkpt>
      <trkpt lat="44.89127" lon="1.7479">
        <ele>318.3</ele>
        <time>2022-05-24T08:43:34Z</time>
      </trkpt>
      <trkpt lat="44.89126" lon="1.74789">
        <ele>318.3</ele>
        <time>2022-05-24T08:43:35Z</time>
      </trkpt>
      <trkpt lat="44.89125" lon="1.74787">
        <ele>318.3</ele>
        <time>2022-05-24T08:43:36Z</time>
      </trkpt>
      <trkpt lat="44.89124" lon="1.74783">
        <ele>320.6</ele>
        <time>2022-05-24T08:43:37Z</time>
      </trkpt>
      <trkpt lat="44.89123" lon="1.74782">
        <ele>320.6</ele>
        <time>2022-05-24T08:43:38Z</time>
      </trkpt>
      <trkpt lat="44.89122" lon="1.74779">
        <ele>320.6</ele>
        <time>2022-05-24T08:43:39Z</time>
      </trkpt>
      <trkpt lat="44.89121" lon="1.74778">
        <ele>320.6</ele>
        <time>2022-05-24T08:43:40Z</time>
      </trkpt>
      <trkpt lat="44.8912" lon="1.74774">
        <ele>320.6</ele>
        <time>2022-05-24T08:43:41Z</time>
      </trkpt>
      <trkpt lat="44.89119" lon="1.74773">
        <ele>320.6</ele>
        <time>2022-05-24T08:43:42Z</time>
      </trkpt>
      <trkpt lat="44.89118" lon="1.74769">
        <ele>320.6</ele>
        <time>2022-05-24T08:43:43Z</time>
      </trkpt>
      <trkpt lat="44.89117" lon="1.74768">
        <ele>322.5</ele>
        <time>2022-05-24T08:43:44Z</time>
      </trkpt>
      <trkpt lat="44.89117" lon="1.74766">
        <ele>322.5</ele>
        <time>2022-05-24T08:43:45Z</time>
      </trkpt>
      <trkpt lat="44.89116" lon="1.74765">
        <ele>322.5</ele>
        <time>2022-05-24T08:43:46Z</time>
      </trkpt>
      <trkpt lat="44.89114" lon="1.74762">
        <ele>322.3</ele>
        <time>2022-05-24T08:43:47Z</time>
      </trkpt>
      <trkpt lat="44.89113" lon="1.74761">
        <ele>322.3</ele>
        <time>2022-05-24T08:43:48Z</time>
      </trkpt>
      <trkpt lat="44.89111" lon="1.74759">
        <ele>322.3</ele>
        <time>2022-05-24T08:43:49Z</time>
      </trkpt>
      <trkpt lat="44.8911" lon="1.74758">
        <ele>322.3</ele>
        <time>2022-05-24T08:43:50Z</time>
      </trkpt>
      <trkpt lat="44.89108" lon="1.74754">
        <ele>322.3</ele>
        <time>2022-05-24T08:43:51Z</time>
      </trkpt>
      <trkpt lat="44.89107" lon="1.74753">
        <ele>322.3</ele>
        <time>2022-05-24T08:43:52Z</time>
      </trkpt>
      <trkpt lat="44.89105" lon="1.74749">
        <ele>323.4</ele>
        <time>2022-05-24T08:43:53Z</time>
      </trkpt>
      <trkpt lat="44.89104" lon="1.74748">
        <ele>323.4</ele>
        <time>2022-05-24T08:43:54Z</time>
      </trkpt>
      <trkpt lat="44.89102" lon="1.74745">
        <ele>323</ele>
        <time>2022-05-24T08:43:55Z</time>
      </trkpt>
      <trkpt lat="44.89101" lon="1.74744">
        <ele>323</ele>
        <time>2022-05-24T08:43:56Z</time>
      </trkpt>
      <trkpt lat="44.891" lon="1.74743">
        <ele>323</ele>
        <time>2022-05-24T08:43:57Z</time>
      </trkpt>
      <trkpt lat="44.89099" lon="1.74742">
        <ele>323</ele>
        <time>2022-05-24T08:43:58Z</time>
      </trkpt>
      <trkpt lat="44.89097" lon="1.7474">
        <ele>323</ele>
        <time>2022-05-24T08:43:59Z</time>
      </trkpt>
      <trkpt lat="44.89096" lon="1.74739">
        <ele>323</ele>
        <time>2022-05-24T08:44:00Z</time>
      </trkpt>
      <trkpt lat="44.89093" lon="1.74735">
        <ele>323</ele>
        <time>2022-05-24T08:44:01Z</time>
      </trkpt>
      <trkpt lat="44.89092" lon="1.74734">
        <ele>323.9</ele>
        <time>2022-05-24T08:44:02Z</time>
      </trkpt>
      <trkpt lat="44.8909" lon="1.74731">
        <ele>323.8</ele>
        <time>2022-05-24T08:44:03Z</time>
      </trkpt>
      <trkpt lat="44.89087" lon="1.74727">
        <ele>323.8</ele>
        <time>2022-05-24T08:44:04Z</time>
      </trkpt>
      <trkpt lat="44.89086" lon="1.74726">
        <ele>323.8</ele>
        <time>2022-05-24T08:44:05Z</time>
      </trkpt>
      <trkpt lat="44.89084" lon="1.74723">
        <ele>323.7</ele>
        <time>2022-05-24T08:44:06Z</time>
      </trkpt>
      <trkpt lat="44.89082" lon="1.7472">
        <ele>323.7</ele>
        <time>2022-05-24T08:44:07Z</time>
      </trkpt>
      <trkpt lat="44.89079" lon="1.74716">
        <ele>324.8</ele>
        <time>2022-05-24T08:44:08Z</time>
      </trkpt>
      <trkpt lat="44.89078" lon="1.74715">
        <ele>324.4</ele>
        <time>2022-05-24T08:44:09Z</time>
      </trkpt>
      <trkpt lat="44.89076" lon="1.74712">
        <ele>324.4</ele>
        <time>2022-05-24T08:44:10Z</time>
      </trkpt>
      <trkpt lat="44.89074" lon="1.7471">
        <ele>324.4</ele>
        <time>2022-05-24T08:44:11Z</time>
      </trkpt>
      <trkpt lat="44.89072" lon="1.74706">
        <ele>324.4</ele>
        <time>2022-05-24T08:44:12Z</time>
      </trkpt>
      <trkpt lat="44.8907" lon="1.74702">
        <ele>324.4</ele>
        <time>2022-05-24T08:44:13Z</time>
      </trkpt>
      <trkpt lat="44.89068" lon="1.74699">
        <ele>325.2</ele>
        <time>2022-05-24T08:44:14Z</time>
      </trkpt>
      <trkpt lat="44.89067" lon="1.74695">
        <ele>325.2</ele>
        <time>2022-05-24T08:44:15Z</time>
      </trkpt>
      <trkpt lat="44.89065" lon="1.74693">
        <ele>324.6</ele>
        <time>2022-05-24T08:44:16Z</time>
      </trkpt>
      <trkpt lat="44.89062" lon="1.7469">
        <ele>324.6</ele>
        <time>2022-05-24T08:44:17Z</time>
      </trkpt>
      <trkpt lat="44.8906" lon="1.74686">
        <ele>324.6</ele>
        <time>2022-05-24T08:44:18Z</time>
      </trkpt>
      <trkpt lat="44.89058" lon="1.74682">
        <ele>325.3</ele>
        <time>2022-05-24T08:44:19Z</time>
      </trkpt>
      <trkpt lat="44.89056" lon="1.74678">
        <ele>325.3</ele>
        <time>2022-05-24T08:44:20Z</time>
      </trkpt>
      <trkpt lat="44.89054" lon="1.74674">
        <ele>324.6</ele>
        <time>2022-05-24T08:44:21Z</time>
      </trkpt>
      <trkpt lat="44.89051" lon="1.74669">
        <ele>324.6</ele>
        <time>2022-05-24T08:44:22Z</time>
      </trkpt>
      <trkpt lat="44.89049" lon="1.74665">
        <ele>325.5</ele>
        <time>2022-05-24T08:44:23Z</time>
      </trkpt>
      <trkpt lat="44.89046" lon="1.74661">
        <ele>325.5</ele>
        <time>2022-05-24T08:44:24Z</time>
      </trkpt>
      <trkpt lat="44.89043" lon="1.74656">
        <ele>325.5</ele>
        <time>2022-05-24T08:44:25Z</time>
      </trkpt>
      <trkpt lat="44.8904" lon="1.74653">
        <ele>324.8</ele>
        <time>2022-05-24T08:44:26Z</time>
      </trkpt>
      <trkpt lat="44.89037" lon="1.74648">
        <ele>325.8</ele>
        <time>2022-05-24T08:44:27Z</time>
      </trkpt>
      <trkpt lat="44.89034" lon="1.74644">
        <ele>325.8</ele>
        <time>2022-05-24T08:44:28Z</time>
      </trkpt>
      <trkpt lat="44.89031" lon="1.7464">
        <ele>325.7</ele>
        <time>2022-05-24T08:44:29Z</time>
      </trkpt>
      <trkpt lat="44.89028" lon="1.74636">
        <ele>325</ele>
        <time>2022-05-24T08:44:30Z</time>
      </trkpt>
      <trkpt lat="44.89025" lon="1.74632">
        <ele>325</ele>
        <time>2022-05-24T08:44:31Z</time>
      </trkpt>
      <trkpt lat="44.89022" lon="1.74629">
        <ele>325.9</ele>
        <time>2022-05-24T08:44:32Z</time>
      </trkpt>
      <trkpt lat="44.89018" lon="1.74624">
        <ele>325.9</ele>
        <time>2022-05-24T08:44:33Z</time>
      </trkpt>
      <trkpt lat="44.89015" lon="1.74621">
        <ele>325</ele>
        <time>2022-05-24T08:44:34Z</time>
      </trkpt>
      <trkpt lat="44.89012" lon="1.74618">
        <ele>325</ele>
        <time>2022-05-24T08:44:35Z</time>
      </trkpt>
      <trkpt lat="44.89009" lon="1.74614">
        <ele>325</ele>
        <time>2022-05-24T08:44:36Z</time>
      </trkpt>
      <trkpt lat="44.89005" lon="1.74612">
        <ele>324.8</ele>
        <time>2022-05-24T08:44:37Z</time>
      </trkpt>
      <trkpt lat="44.89002" lon="1.7461">
        <ele>324.8</ele>
        <time>2022-05-24T08:44:38Z</time>
      </trkpt>
      <trkpt lat="44.88998" lon="1.74608">
        <ele>324.8</ele>
        <time>2022-05-24T08:44:39Z</time>
      </trkpt>
      <trkpt lat="44.88994" lon="1.74606">
        <ele>324.8</ele>
        <time>2022-05-24T08:44:40Z</time>
      </trkpt>
      <trkpt lat="44.88989" lon="1.74603">
        <ele>323.5</ele>
        <time>2022-05-24T08:44:41Z</time>
      </trkpt>
      <trkpt lat="44.88985" lon="1.74601">
        <ele>323.5</ele>
        <time>2022-05-24T08:44:42Z</time>
      </trkpt>
      <trkpt lat="44.88982" lon="1.746">
        <ele>323.5</ele>
        <time>2022-05-24T08:44:43Z</time>
      </trkpt>
      <trkpt lat="44.8898" lon="1.74597">
        <ele>322.4</ele>
        <time>2022-05-24T08:44:44Z</time>
      </trkpt>
      <trkpt lat="44.88976" lon="1.74595">
        <ele>323.7</ele>
        <time>2022-05-24T08:44:45Z</time>
      </trkpt>
      <trkpt lat="44.88973" lon="1.74591">
        <ele>323.7</ele>
        <time>2022-05-24T08:44:46Z</time>
      </trkpt>
      <trkpt lat="44.88969" lon="1.74588">
        <ele>322.5</ele>
        <time>2022-05-24T08:44:47Z</time>
      </trkpt>
      <trkpt lat="44.88965" lon="1.74584">
        <ele>322.5</ele>
        <time>2022-05-24T08:44:48Z</time>
      </trkpt>
      <trkpt lat="44.88962" lon="1.7458">
        <ele>322.5</ele>
        <time>2022-05-24T08:44:49Z</time>
      </trkpt>
      <trkpt lat="44.88959" lon="1.74576">
        <ele>323.6</ele>
        <time>2022-05-24T08:44:50Z</time>
      </trkpt>
      <trkpt lat="44.88955" lon="1.74572">
        <ele>322.5</ele>
        <time>2022-05-24T08:44:51Z</time>
      </trkpt>
      <trkpt lat="44.88952" lon="1.74569">
        <ele>322.5</ele>
        <time>2022-05-24T08:44:52Z</time>
      </trkpt>
      <trkpt lat="44.88948" lon="1.74565">
        <ele>322.5</ele>
        <time>2022-05-24T08:44:53Z</time>
      </trkpt>
      <trkpt lat="44.88944" lon="1.74562">
        <ele>322.4</ele>
        <time>2022-05-24T08:44:54Z</time>
      </trkpt>
      <trkpt lat="44.88941" lon="1.74557">
        <ele>322.4</ele>
        <time>2022-05-24T08:44:55Z</time>
      </trkpt>
      <trkpt lat="44.88938" lon="1.74553">
        <ele>322.4</ele>
        <time>2022-05-24T08:44:56Z</time>
      </trkpt>
      <trkpt lat="44.88935" lon="1.74548">
        <ele>322.4</ele>
        <time>2022-05-24T08:44:57Z</time>
      </trkpt>
      <trkpt lat="44.88932" lon="1.74543">
        <ele>322.4</ele>
        <time>2022-05-24T08:44:58Z</time>
      </trkpt>
      <trkpt lat="44.88928" lon="1.74539">
        <ele>322.4</ele>
        <time>2022-05-24T08:44:59Z</time>
      </trkpt>
      <trkpt lat="44.88924" lon="1.74535">
        <ele>322.4</ele>
        <time>2022-05-24T08:45:00Z</time>
      </trkpt>
      <trkpt lat="44.8892" lon="1.74532">
        <ele>322.4</ele>
        <time>2022-05-24T08:45:01Z</time>
      </trkpt>
      <trkpt lat="44.88916" lon="1.7453">
        <ele>321.7</ele>
        <time>2022-05-24T08:45:02Z</time>
      </trkpt>
      <trkpt lat="44.88912" lon="1.74527">
        <ele>322.6</ele>
        <time>2022-05-24T08:45:03Z</time>
      </trkpt>
      <trkpt lat="44.88909" lon="1.74524">
        <ele>322.6</ele>
        <time>2022-05-24T08:45:04Z</time>
      </trkpt>
      <trkpt lat="44.88905" lon="1.7452">
        <ele>322.2</ele>
        <time>2022-05-24T08:45:05Z</time>
      </trkpt>
      <trkpt lat="44.88901" lon="1.74515">
        <ele>322.2</ele>
        <time>2022-05-24T08:45:06Z</time>
      </trkpt>
      <trkpt lat="44.88898" lon="1.74511">
        <ele>322.9</ele>
        <time>2022-05-24T08:45:07Z</time>
      </trkpt>
      <trkpt lat="44.88894" lon="1.74507">
        <ele>322.6</ele>
        <time>2022-05-24T08:45:08Z</time>
      </trkpt>
      <trkpt lat="44.8889" lon="1.74503">
        <ele>322.6</ele>
        <time>2022-05-24T08:45:09Z</time>
      </trkpt>
      <trkpt lat="44.88886" lon="1.74499">
        <ele>322.6</ele>
        <time>2022-05-24T08:45:10Z</time>
      </trkpt>
      <trkpt lat="44.88883" lon="1.74495">
        <ele>322.2</ele>
        <time>2022-05-24T08:45:11Z</time>
      </trkpt>
      <trkpt lat="44.88878" lon="1.74491">
        <ele>322.4</ele>
        <time>2022-05-24T08:45:12Z</time>
      </trkpt>
      <trkpt lat="44.88874" lon="1.74487">
        <ele>322.4</ele>
        <time>2022-05-24T08:45:13Z</time>
      </trkpt>
      <trkpt lat="44.88871" lon="1.74483">
        <ele>321.8</ele>
        <time>2022-05-24T08:45:14Z</time>
      </trkpt>
      <trkpt lat="44.88867" lon="1.74481">
        <ele>321.8</ele>
        <time>2022-05-24T08:45:15Z</time>
      </trkpt>
      <trkpt lat="44.88863" lon="1.74479">
        <ele>321.8</ele>
        <time>2022-05-24T08:45:16Z</time>
      </trkpt>
      <trkpt lat="44.88858" lon="1.74478">
        <ele>321.2</ele>
        <time>2022-05-24T08:45:17Z</time>
      </trkpt>
      <trkpt lat="44.88854" lon="1.74475">
        <ele>321.2</ele>
        <time>2022-05-24T08:45:18Z</time>
      </trkpt>
      <trkpt lat="44.88849" lon="1.7447">
        <ele>321.2</ele>
        <time>2022-05-24T08:45:19Z</time>
      </trkpt>
      <trkpt lat="44.88846" lon="1.74466">
        <ele>320.8</ele>
        <time>2022-05-24T08:45:20Z</time>
      </trkpt>
      <trkpt lat="44.88843" lon="1.74461">
        <ele>320.8</ele>
        <time>2022-05-24T08:45:21Z</time>
      </trkpt>
      <trkpt lat="44.88841" lon="1.74458">
        <ele>320.7</ele>
        <time>2022-05-24T08:45:22Z</time>
      </trkpt>
      <trkpt lat="44.88838" lon="1.74455">
        <ele>320.7</ele>
        <time>2022-05-24T08:45:23Z</time>
      </trkpt>
      <trkpt lat="44.88836" lon="1.74453">
        <ele>320.7</ele>
        <time>2022-05-24T08:45:24Z</time>
      </trkpt>
      <trkpt lat="44.88833" lon="1.7445">
        <ele>320.4</ele>
        <time>2022-05-24T08:45:25Z</time>
      </trkpt>
      <trkpt lat="44.8883" lon="1.74447">
        <ele>320.4</ele>
        <time>2022-05-24T08:45:26Z</time>
      </trkpt>
      <trkpt lat="44.88827" lon="1.74444">
        <ele>320.4</ele>
        <time>2022-05-24T08:45:27Z</time>
      </trkpt>
      <trkpt lat="44.88823" lon="1.74441">
        <ele>320.3</ele>
        <time>2022-05-24T08:45:28Z</time>
      </trkpt>
      <trkpt lat="44.8882" lon="1.74438">
        <ele>320.2</ele>
        <time>2022-05-24T08:45:29Z</time>
      </trkpt>
      <trkpt lat="44.88817" lon="1.74435">
        <ele>320.2</ele>
        <time>2022-05-24T08:45:30Z</time>
      </trkpt>
      <trkpt lat="44.88813" lon="1.74432">
        <ele>320.2</ele>
        <time>2022-05-24T08:45:31Z</time>
      </trkpt>
      <trkpt lat="44.8881" lon="1.74429">
        <ele>320.3</ele>
        <time>2022-05-24T08:45:32Z</time>
      </trkpt>
      <trkpt lat="44.88807" lon="1.74426">
        <ele>320.3</ele>
        <time>2022-05-24T08:45:33Z</time>
      </trkpt>
      <trkpt lat="44.88805" lon="1.74423">
        <ele>320</ele>
        <time>2022-05-24T08:45:34Z</time>
      </trkpt>
      <trkpt lat="44.88802" lon="1.7442">
        <ele>320</ele>
        <time>2022-05-24T08:45:35Z</time>
      </trkpt>
      <trkpt lat="44.88799" lon="1.74417">
        <ele>320</ele>
        <time>2022-05-24T08:45:36Z</time>
      </trkpt>
      <trkpt lat="44.88796" lon="1.74414">
        <ele>320.3</ele>
        <time>2022-05-24T08:45:37Z</time>
      </trkpt>
      <trkpt lat="44.88793" lon="1.74411">
        <ele>320.3</ele>
        <time>2022-05-24T08:45:38Z</time>
      </trkpt>
      <trkpt lat="44.88789" lon="1.74409">
        <ele>320.3</ele>
        <time>2022-05-24T08:45:39Z</time>
      </trkpt>
      <trkpt lat="44.88786" lon="1.74406">
        <ele>320.5</ele>
        <time>2022-05-24T08:45:40Z</time>
      </trkpt>
      <trkpt lat="44.88782" lon="1.74404">
        <ele>320.5</ele>
        <time>2022-05-24T08:45:41Z</time>
      </trkpt>
      <trkpt lat="44.88774" lon="1.74398">
        <ele>321</ele>
        <time>2022-05-24T08:45:43Z</time>
      </trkpt>
      <trkpt lat="44.88771" lon="1.74396">
        <ele>320.9</ele>
        <time>2022-05-24T08:45:44Z</time>
      </trkpt>
      <trkpt lat="44.88768" lon="1.74393">
        <ele>320.9</ele>
        <time>2022-05-24T08:45:45Z</time>
      </trkpt>
      <trkpt lat="44.88764" lon="1.74391">
        <ele>320.7</ele>
        <time>2022-05-24T08:45:46Z</time>
      </trkpt>
      <trkpt lat="44.88761" lon="1.74387">
        <ele>321.1</ele>
        <time>2022-05-24T08:45:47Z</time>
      </trkpt>
      <trkpt lat="44.88757" lon="1.74382">
        <ele>321.1</ele>
        <time>2022-05-24T08:45:48Z</time>
      </trkpt>
      <trkpt lat="44.88755" lon="1.74378">
        <ele>321.1</ele>
        <time>2022-05-24T08:45:49Z</time>
      </trkpt>
      <trkpt lat="44.88755" lon="1.74373">
        <ele>321.1</ele>
        <time>2022-05-24T08:45:50Z</time>
      </trkpt>
      <trkpt lat="44.88752" lon="1.74369">
        <ele>321.1</ele>
        <time>2022-05-24T08:45:51Z</time>
      </trkpt>
      <trkpt lat="44.8875" lon="1.74364">
        <ele>321.1</ele>
        <time>2022-05-24T08:45:52Z</time>
      </trkpt>
      <trkpt lat="44.88748" lon="1.74358">
        <ele>321.5</ele>
        <time>2022-05-24T08:45:53Z</time>
      </trkpt>
      <trkpt lat="44.88746" lon="1.74352">
        <ele>321.7</ele>
        <time>2022-05-24T08:45:54Z</time>
      </trkpt>
      <trkpt lat="44.88743" lon="1.74347">
        <ele>321.7</ele>
        <time>2022-05-24T08:45:55Z</time>
      </trkpt>
      <trkpt lat="44.88739" lon="1.74341">
        <ele>321.7</ele>
        <time>2022-05-24T08:45:56Z</time>
      </trkpt>
      <trkpt lat="44.88736" lon="1.74335">
        <ele>322.5</ele>
        <time>2022-05-24T08:45:57Z</time>
      </trkpt>
      <trkpt lat="44.88733" lon="1.7433">
        <ele>322.5</ele>
        <time>2022-05-24T08:45:58Z</time>
      </trkpt>
      <trkpt lat="44.88731" lon="1.74324">
        <ele>322.5</ele>
        <time>2022-05-24T08:45:59Z</time>
      </trkpt>
      <trkpt lat="44.88729" lon="1.74319">
        <ele>322.9</ele>
        <time>2022-05-24T08:46:00Z</time>
      </trkpt>
      <trkpt lat="44.88726" lon="1.74314">
        <ele>322.9</ele>
        <time>2022-05-24T08:46:01Z</time>
      </trkpt>
      <trkpt lat="44.88724" lon="1.74309">
        <ele>323.7</ele>
        <time>2022-05-24T08:46:02Z</time>
      </trkpt>
      <trkpt lat="44.88722" lon="1.74304">
        <ele>324.4</ele>
        <time>2022-05-24T08:46:03Z</time>
      </trkpt>
      <trkpt lat="44.8872" lon="1.74299">
        <ele>324.4</ele>
        <time>2022-05-24T08:46:04Z</time>
      </trkpt>
      <trkpt lat="44.88718" lon="1.74296">
        <ele>324.4</ele>
        <time>2022-05-24T08:46:05Z</time>
      </trkpt>
      <trkpt lat="44.88716" lon="1.74292">
        <ele>324.4</ele>
        <time>2022-05-24T08:46:06Z</time>
      </trkpt>
      <trkpt lat="44.88715" lon="1.74291">
        <ele>324.4</ele>
        <time>2022-05-24T08:46:07Z</time>
      </trkpt>
      <trkpt lat="44.88714" lon="1.74286">
        <ele>325</ele>
        <time>2022-05-24T08:46:08Z</time>
      </trkpt>
      <trkpt lat="44.88712" lon="1.74282">
        <ele>325.8</ele>
        <time>2022-05-24T08:46:09Z</time>
      </trkpt>
      <trkpt lat="44.88711" lon="1.7428">
        <ele>325.8</ele>
        <time>2022-05-24T08:46:10Z</time>
      </trkpt>
      <trkpt lat="44.88708" lon="1.74274">
        <ele>325.8</ele>
        <time>2022-05-24T08:46:11Z</time>
      </trkpt>
      <trkpt lat="44.88707" lon="1.74271">
        <ele>325.8</ele>
        <time>2022-05-24T08:46:12Z</time>
      </trkpt>
      <trkpt lat="44.88704" lon="1.74268">
        <ele>326.3</ele>
        <time>2022-05-24T08:46:13Z</time>
      </trkpt>
      <trkpt lat="44.88703" lon="1.74265">
        <ele>326.3</ele>
        <time>2022-05-24T08:46:14Z</time>
      </trkpt>
      <trkpt lat="44.88695" lon="1.74256">
        <ele>327.2</ele>
        <time>2022-05-24T08:46:19Z</time>
      </trkpt>
      <trkpt lat="44.88691" lon="1.7425">
        <ele>327.8</ele>
        <time>2022-05-24T08:46:20Z</time>
      </trkpt>
      <trkpt lat="44.88688" lon="1.74247">
        <ele>328.8</ele>
        <time>2022-05-24T08:46:21Z</time>
      </trkpt>
      <trkpt lat="44.88685" lon="1.74244">
        <ele>328.8</ele>
        <time>2022-05-24T08:46:22Z</time>
      </trkpt>
      <trkpt lat="44.88683" lon="1.74242">
        <ele>328.8</ele>
        <time>2022-05-24T08:46:23Z</time>
      </trkpt>
      <trkpt lat="44.8868" lon="1.74239">
        <ele>328.7</ele>
        <time>2022-05-24T08:46:24Z</time>
      </trkpt>
      <trkpt lat="44.88677" lon="1.74236">
        <ele>329.4</ele>
        <time>2022-05-24T08:46:25Z</time>
      </trkpt>
      <trkpt lat="44.88676" lon="1.74235">
        <ele>330.1</ele>
        <time>2022-05-24T08:46:26Z</time>
      </trkpt>
      <trkpt lat="44.88674" lon="1.74231">
        <ele>330.1</ele>
        <time>2022-05-24T08:46:27Z</time>
      </trkpt>
      <trkpt lat="44.88673" lon="1.7423">
        <ele>330.1</ele>
        <time>2022-05-24T08:46:28Z</time>
      </trkpt>
      <trkpt lat="44.88671" lon="1.74225">
        <ele>330.1</ele>
        <time>2022-05-24T08:46:29Z</time>
      </trkpt>
      <trkpt lat="44.8867" lon="1.74223">
        <ele>330</ele>
        <time>2022-05-24T08:46:30Z</time>
      </trkpt>
      <trkpt lat="44.88669" lon="1.7422">
        <ele>330</ele>
        <time>2022-05-24T08:46:31Z</time>
      </trkpt>
      <trkpt lat="44.88667" lon="1.74217">
        <ele>330.5</ele>
        <time>2022-05-24T08:46:32Z</time>
      </trkpt>
      <trkpt lat="44.88666" lon="1.74213">
        <ele>330.5</ele>
        <time>2022-05-24T08:46:33Z</time>
      </trkpt>
      <trkpt lat="44.88665" lon="1.74209">
        <ele>330.5</ele>
        <time>2022-05-24T08:46:34Z</time>
      </trkpt>
      <trkpt lat="44.88664" lon="1.74206">
        <ele>331.1</ele>
        <time>2022-05-24T08:46:35Z</time>
      </trkpt>
      <trkpt lat="44.88662" lon="1.74203">
        <ele>331.1</ele>
        <time>2022-05-24T08:46:36Z</time>
      </trkpt>
      <trkpt lat="44.88659" lon="1.74199">
        <ele>331.5</ele>
        <time>2022-05-24T08:46:37Z</time>
      </trkpt>
      <trkpt lat="44.88658" lon="1.74197">
        <ele>331.5</ele>
        <time>2022-05-24T08:46:38Z</time>
      </trkpt>
      <trkpt lat="44.88656" lon="1.74194">
        <ele>331.5</ele>
        <time>2022-05-24T08:46:39Z</time>
      </trkpt>
      <trkpt lat="44.88654" lon="1.74191">
        <ele>331.5</ele>
        <time>2022-05-24T08:46:40Z</time>
      </trkpt>
      <trkpt lat="44.88652" lon="1.74188">
        <ele>331.9</ele>
        <time>2022-05-24T08:46:41Z</time>
      </trkpt>
      <trkpt lat="44.8865" lon="1.74184">
        <ele>332.3</ele>
        <time>2022-05-24T08:46:42Z</time>
      </trkpt>
      <trkpt lat="44.88648" lon="1.74181">
        <ele>332.3</ele>
        <time>2022-05-24T08:46:43Z</time>
      </trkpt>
      <trkpt lat="44.88646" lon="1.74178">
        <ele>332.3</ele>
        <time>2022-05-24T08:46:44Z</time>
      </trkpt>
      <trkpt lat="44.88644" lon="1.74174">
        <ele>332.3</ele>
        <time>2022-05-24T08:46:45Z</time>
      </trkpt>
      <trkpt lat="44.88641" lon="1.74171">
        <ele>332.3</ele>
        <time>2022-05-24T08:46:46Z</time>
      </trkpt>
      <trkpt lat="44.88639" lon="1.74168">
        <ele>332.7</ele>
        <time>2022-05-24T08:46:47Z</time>
      </trkpt>
      <trkpt lat="44.88637" lon="1.74165">
        <ele>333.1</ele>
        <time>2022-05-24T08:46:48Z</time>
      </trkpt>
      <trkpt lat="44.88634" lon="1.74161">
        <ele>333.1</ele>
        <time>2022-05-24T08:46:49Z</time>
      </trkpt>
      <trkpt lat="44.88632" lon="1.74158">
        <ele>333.1</ele>
        <time>2022-05-24T08:46:50Z</time>
      </trkpt>
      <trkpt lat="44.88629" lon="1.74155">
        <ele>333.1</ele>
        <time>2022-05-24T08:46:51Z</time>
      </trkpt>
      <trkpt lat="44.88627" lon="1.74152">
        <ele>333.4</ele>
        <time>2022-05-24T08:46:52Z</time>
      </trkpt>
      <trkpt lat="44.88624" lon="1.74149">
        <ele>333.9</ele>
        <time>2022-05-24T08:46:53Z</time>
      </trkpt>
      <trkpt lat="44.88621" lon="1.74146">
        <ele>333.9</ele>
        <time>2022-05-24T08:46:54Z</time>
      </trkpt>
      <trkpt lat="44.88619" lon="1.74143">
        <ele>333.9</ele>
        <time>2022-05-24T08:46:55Z</time>
      </trkpt>
      <trkpt lat="44.88616" lon="1.7414">
        <ele>334.4</ele>
        <time>2022-05-24T08:46:56Z</time>
      </trkpt>
      <trkpt lat="44.88613" lon="1.74138">
        <ele>334.4</ele>
        <time>2022-05-24T08:46:57Z</time>
      </trkpt>
      <trkpt lat="44.88611" lon="1.74135">
        <ele>334.4</ele>
        <time>2022-05-24T08:46:58Z</time>
      </trkpt>
      <trkpt lat="44.88608" lon="1.74133">
        <ele>335</ele>
        <time>2022-05-24T08:46:59Z</time>
      </trkpt>
      <trkpt lat="44.88605" lon="1.7413">
        <ele>335</ele>
        <time>2022-05-24T08:47:00Z</time>
      </trkpt>
      <trkpt lat="44.88601" lon="1.74125">
        <ele>335.5</ele>
        <time>2022-05-24T08:47:02Z</time>
      </trkpt>
      <trkpt lat="44.88598" lon="1.74122">
        <ele>335.5</ele>
        <time>2022-05-24T08:47:03Z</time>
      </trkpt>
      <trkpt lat="44.88595" lon="1.74119">
        <ele>335.5</ele>
        <time>2022-05-24T08:47:04Z</time>
      </trkpt>
      <trkpt lat="44.88593" lon="1.74116">
        <ele>336.1</ele>
        <time>2022-05-24T08:47:05Z</time>
      </trkpt>
      <trkpt lat="44.8859" lon="1.74113">
        <ele>336.4</ele>
        <time>2022-05-24T08:47:06Z</time>
      </trkpt>
      <trkpt lat="44.88586" lon="1.74109">
        <ele>336.4</ele>
        <time>2022-05-24T08:47:07Z</time>
      </trkpt>
      <trkpt lat="44.88583" lon="1.74106">
        <ele>336.4</ele>
        <time>2022-05-24T08:47:08Z</time>
      </trkpt>
      <trkpt lat="44.88581" lon="1.74102">
        <ele>336.4</ele>
        <time>2022-05-24T08:47:09Z</time>
      </trkpt>
      <trkpt lat="44.88578" lon="1.74099">
        <ele>337.1</ele>
        <time>2022-05-24T08:47:10Z</time>
      </trkpt>
      <trkpt lat="44.88575" lon="1.74094">
        <ele>337.1</ele>
        <time>2022-05-24T08:47:11Z</time>
      </trkpt>
      <trkpt lat="44.88573" lon="1.7409">
        <ele>337.1</ele>
        <time>2022-05-24T08:47:12Z</time>
      </trkpt>
      <trkpt lat="44.88567" lon="1.7408">
        <ele>337.6</ele>
        <time>2022-05-24T08:47:14Z</time>
      </trkpt>
      <trkpt lat="44.88564" lon="1.74075">
        <ele>337.6</ele>
        <time>2022-05-24T08:47:15Z</time>
      </trkpt>
      <trkpt lat="44.88561" lon="1.74071">
        <ele>337.6</ele>
        <time>2022-05-24T08:47:16Z</time>
      </trkpt>
      <trkpt lat="44.88557" lon="1.74067">
        <ele>337.6</ele>
        <time>2022-05-24T08:47:17Z</time>
      </trkpt>
      <trkpt lat="44.88553" lon="1.74062">
        <ele>337.7</ele>
        <time>2022-05-24T08:47:18Z</time>
      </trkpt>
      <trkpt lat="44.88548" lon="1.74058">
        <ele>337.7</ele>
        <time>2022-05-24T08:47:19Z</time>
      </trkpt>
      <trkpt lat="44.88544" lon="1.74053">
        <ele>337.7</ele>
        <time>2022-05-24T08:47:20Z</time>
      </trkpt>
      <trkpt lat="44.88539" lon="1.74049">
        <ele>337.4</ele>
        <time>2022-05-24T08:47:21Z</time>
      </trkpt>
      <trkpt lat="44.88533" lon="1.74046">
        <ele>337.5</ele>
        <time>2022-05-24T08:47:22Z</time>
      </trkpt>
      <trkpt lat="44.88527" lon="1.74043">
        <ele>336.7</ele>
        <time>2022-05-24T08:47:23Z</time>
      </trkpt>
      <trkpt lat="44.88521" lon="1.7404">
        <ele>336.7</ele>
        <time>2022-05-24T08:47:24Z</time>
      </trkpt>
      <trkpt lat="44.88515" lon="1.74036">
        <ele>335.8</ele>
        <time>2022-05-24T08:47:25Z</time>
      </trkpt>
      <trkpt lat="44.8851" lon="1.74031">
        <ele>335.8</ele>
        <time>2022-05-24T08:47:26Z</time>
      </trkpt>
      <trkpt lat="44.88505" lon="1.74025">
        <ele>334.5</ele>
        <time>2022-05-24T08:47:27Z</time>
      </trkpt>
      <trkpt lat="44.88501" lon="1.74019">
        <ele>334.5</ele>
        <time>2022-05-24T08:47:28Z</time>
      </trkpt>
      <trkpt lat="44.88496" lon="1.74012">
        <ele>334.1</ele>
        <time>2022-05-24T08:47:29Z</time>
      </trkpt>
      <trkpt lat="44.88492" lon="1.74004">
        <ele>332.9</ele>
        <time>2022-05-24T08:47:30Z</time>
      </trkpt>
      <trkpt lat="44.88489" lon="1.73996">
        <ele>332</ele>
        <time>2022-05-24T08:47:31Z</time>
      </trkpt>
      <trkpt lat="44.88486" lon="1.73987">
        <ele>332</ele>
        <time>2022-05-24T08:47:32Z</time>
      </trkpt>
      <trkpt lat="44.88484" lon="1.73979">
        <ele>332</ele>
        <time>2022-05-24T08:47:33Z</time>
      </trkpt>
      <trkpt lat="44.88482" lon="1.73973">
        <ele>329.4</ele>
        <time>2022-05-24T08:47:34Z</time>
      </trkpt>
      <trkpt lat="44.88479" lon="1.73966">
        <ele>329.4</ele>
        <time>2022-05-24T08:47:35Z</time>
      </trkpt>
      <trkpt lat="44.88476" lon="1.73958">
        <ele>328.2</ele>
        <time>2022-05-24T08:47:36Z</time>
      </trkpt>
      <trkpt lat="44.88473" lon="1.7395">
        <ele>328.2</ele>
        <time>2022-05-24T08:47:37Z</time>
      </trkpt>
      <trkpt lat="44.88471" lon="1.73941">
        <ele>327</ele>
        <time>2022-05-24T08:47:38Z</time>
      </trkpt>
      <trkpt lat="44.88468" lon="1.73933">
        <ele>325.6</ele>
        <time>2022-05-24T08:47:39Z</time>
      </trkpt>
      <trkpt lat="44.88466" lon="1.73923">
        <ele>324.4</ele>
        <time>2022-05-24T08:47:40Z</time>
      </trkpt>
      <trkpt lat="44.88463" lon="1.73915">
        <ele>324.4</ele>
        <time>2022-05-24T08:47:41Z</time>
      </trkpt>
      <trkpt lat="44.88461" lon="1.73908">
        <ele>323.2</ele>
        <time>2022-05-24T08:47:42Z</time>
      </trkpt>
      <trkpt lat="44.88458" lon="1.739">
        <ele>322.3</ele>
        <time>2022-05-24T08:47:43Z</time>
      </trkpt>
      <trkpt lat="44.88455" lon="1.73892">
        <ele>321.1</ele>
        <time>2022-05-24T08:47:44Z</time>
      </trkpt>
      <trkpt lat="44.8845" lon="1.73884">
        <ele>321.1</ele>
        <time>2022-05-24T08:47:45Z</time>
      </trkpt>
      <trkpt lat="44.88446" lon="1.73876">
        <ele>319.1</ele>
        <time>2022-05-24T08:47:46Z</time>
      </trkpt>
      <trkpt lat="44.88441" lon="1.73868">
        <ele>319.1</ele>
        <time>2022-05-24T08:47:47Z</time>
      </trkpt>
      <trkpt lat="44.88437" lon="1.73861">
        <ele>319.1</ele>
        <time>2022-05-24T08:47:48Z</time>
      </trkpt>
      <trkpt lat="44.88432" lon="1.73853">
        <ele>317</ele>
        <time>2022-05-24T08:47:49Z</time>
      </trkpt>
      <trkpt lat="44.88427" lon="1.73845">
        <ele>317</ele>
        <time>2022-05-24T08:47:50Z</time>
      </trkpt>
      <trkpt lat="44.88423" lon="1.73836">
        <ele>315.8</ele>
        <time>2022-05-24T08:47:51Z</time>
      </trkpt>
      <trkpt lat="44.88418" lon="1.73826">
        <ele>314.8</ele>
        <time>2022-05-24T08:47:52Z</time>
      </trkpt>
      <trkpt lat="44.88413" lon="1.73818">
        <ele>313.7</ele>
        <time>2022-05-24T08:47:53Z</time>
      </trkpt>
      <trkpt lat="44.88408" lon="1.7381">
        <ele>312.9</ele>
        <time>2022-05-24T08:47:54Z</time>
      </trkpt>
      <trkpt lat="44.88404" lon="1.73802">
        <ele>311.6</ele>
        <time>2022-05-24T08:47:55Z</time>
      </trkpt>
      <trkpt lat="44.88399" lon="1.73795">
        <ele>311.6</ele>
        <time>2022-05-24T08:47:56Z</time>
      </trkpt>
      <trkpt lat="44.88394" lon="1.73789">
        <ele>309.5</ele>
        <time>2022-05-24T08:47:57Z</time>
      </trkpt>
      <trkpt lat="44.88387" lon="1.73783">
        <ele>309.5</ele>
        <time>2022-05-24T08:47:58Z</time>
      </trkpt>
      <trkpt lat="44.88381" lon="1.73777">
        <ele>308.7</ele>
        <time>2022-05-24T08:47:59Z</time>
      </trkpt>
      <trkpt lat="44.88374" lon="1.73772">
        <ele>307.7</ele>
        <time>2022-05-24T08:48:00Z</time>
      </trkpt>
      <trkpt lat="44.88367" lon="1.73767">
        <ele>307.2</ele>
        <time>2022-05-24T08:48:01Z</time>
      </trkpt>
      <trkpt lat="44.88359" lon="1.73762">
        <ele>306.6</ele>
        <time>2022-05-24T08:48:02Z</time>
      </trkpt>
      <trkpt lat="44.88352" lon="1.73759">
        <ele>306.6</ele>
        <time>2022-05-24T08:48:03Z</time>
      </trkpt>
      <trkpt lat="44.88345" lon="1.73755">
        <ele>304.8</ele>
        <time>2022-05-24T08:48:04Z</time>
      </trkpt>
      <trkpt lat="44.88338" lon="1.73752">
        <ele>304.8</ele>
        <time>2022-05-24T08:48:05Z</time>
      </trkpt>
      <trkpt lat="44.8833" lon="1.73747">
        <ele>304.4</ele>
        <time>2022-05-24T08:48:06Z</time>
      </trkpt>
      <trkpt lat="44.88323" lon="1.73742">
        <ele>304.2</ele>
        <time>2022-05-24T08:48:07Z</time>
      </trkpt>
      <trkpt lat="44.88316" lon="1.73737">
        <ele>303</ele>
        <time>2022-05-24T08:48:08Z</time>
      </trkpt>
      <trkpt lat="44.8831" lon="1.73734">
        <ele>303</ele>
        <time>2022-05-24T08:48:09Z</time>
      </trkpt>
      <trkpt lat="44.88304" lon="1.7373">
        <ele>303</ele>
        <time>2022-05-24T08:48:10Z</time>
      </trkpt>
      <trkpt lat="44.88298" lon="1.73726">
        <ele>303</ele>
        <time>2022-05-24T08:48:11Z</time>
      </trkpt>
      <trkpt lat="44.88292" lon="1.73722">
        <ele>302.9</ele>
        <time>2022-05-24T08:48:12Z</time>
      </trkpt>
      <trkpt lat="44.88287" lon="1.73716">
        <ele>301.8</ele>
        <time>2022-05-24T08:48:13Z</time>
      </trkpt>
      <trkpt lat="44.88281" lon="1.73711">
        <ele>301.8</ele>
        <time>2022-05-24T08:48:14Z</time>
      </trkpt>
      <trkpt lat="44.88276" lon="1.73706">
        <ele>301.8</ele>
        <time>2022-05-24T08:48:15Z</time>
      </trkpt>
      <trkpt lat="44.8827" lon="1.737">
        <ele>300.8</ele>
        <time>2022-05-24T08:48:16Z</time>
      </trkpt>
      <trkpt lat="44.88265" lon="1.73694">
        <ele>300.8</ele>
        <time>2022-05-24T08:48:17Z</time>
      </trkpt>
      <trkpt lat="44.8826" lon="1.73688">
        <ele>300.8</ele>
        <time>2022-05-24T08:48:18Z</time>
      </trkpt>
      <trkpt lat="44.88256" lon="1.73684">
        <ele>300.1</ele>
        <time>2022-05-24T08:48:19Z</time>
      </trkpt>
      <trkpt lat="44.88252" lon="1.7368">
        <ele>300</ele>
        <time>2022-05-24T08:48:20Z</time>
      </trkpt>
      <trkpt lat="44.88247" lon="1.73676">
        <ele>300.1</ele>
        <time>2022-05-24T08:48:21Z</time>
      </trkpt>
      <trkpt lat="44.88243" lon="1.73673">
        <ele>300</ele>
        <time>2022-05-24T08:48:22Z</time>
      </trkpt>
      <trkpt lat="44.88239" lon="1.7367">
        <ele>299.4</ele>
        <time>2022-05-24T08:48:23Z</time>
      </trkpt>
      <trkpt lat="44.88236" lon="1.73666">
        <ele>299.4</ele>
        <time>2022-05-24T08:48:24Z</time>
      </trkpt>
      <trkpt lat="44.88231" lon="1.73662">
        <ele>299.4</ele>
        <time>2022-05-24T08:48:25Z</time>
      </trkpt>
      <trkpt lat="44.88226" lon="1.73658">
        <ele>299.4</ele>
        <time>2022-05-24T08:48:26Z</time>
      </trkpt>
      <trkpt lat="44.88221" lon="1.73652">
        <ele>299.2</ele>
        <time>2022-05-24T08:48:27Z</time>
      </trkpt>
      <trkpt lat="44.88216" lon="1.73647">
        <ele>299.2</ele>
        <time>2022-05-24T08:48:28Z</time>
      </trkpt>
      <trkpt lat="44.88211" lon="1.73643">
        <ele>299.3</ele>
        <time>2022-05-24T08:48:29Z</time>
      </trkpt>
      <trkpt lat="44.88206" lon="1.73638">
        <ele>299.3</ele>
        <time>2022-05-24T08:48:30Z</time>
      </trkpt>
      <trkpt lat="44.88202" lon="1.73633">
        <ele>299.4</ele>
        <time>2022-05-24T08:48:31Z</time>
      </trkpt>
      <trkpt lat="44.88198" lon="1.7363">
        <ele>299.4</ele>
        <time>2022-05-24T08:48:32Z</time>
      </trkpt>
      <trkpt lat="44.88194" lon="1.73626">
        <ele>299.4</ele>
        <time>2022-05-24T08:48:33Z</time>
      </trkpt>
      <trkpt lat="44.8819" lon="1.73621">
        <ele>299.7</ele>
        <time>2022-05-24T08:48:34Z</time>
      </trkpt>
      <trkpt lat="44.88185" lon="1.73618">
        <ele>299.6</ele>
        <time>2022-05-24T08:48:35Z</time>
      </trkpt>
      <trkpt lat="44.8818" lon="1.73616">
        <ele>299.6</ele>
        <time>2022-05-24T08:48:36Z</time>
      </trkpt>
      <trkpt lat="44.88176" lon="1.73613">
        <ele>299.8</ele>
        <time>2022-05-24T08:48:37Z</time>
      </trkpt>
      <trkpt lat="44.88172" lon="1.7361">
        <ele>299.8</ele>
        <time>2022-05-24T08:48:38Z</time>
      </trkpt>
      <trkpt lat="44.88169" lon="1.73606">
        <ele>299.8</ele>
        <time>2022-05-24T08:48:39Z</time>
      </trkpt>
      <trkpt lat="44.88165" lon="1.73601">
        <ele>300.2</ele>
        <time>2022-05-24T08:48:40Z</time>
      </trkpt>
      <trkpt lat="44.88162" lon="1.73598">
        <ele>300.1</ele>
        <time>2022-05-24T08:48:41Z</time>
      </trkpt>
      <trkpt lat="44.88159" lon="1.73595">
        <ele>300.1</ele>
        <time>2022-05-24T08:48:42Z</time>
      </trkpt>
      <trkpt lat="44.88155" lon="1.73593">
        <ele>300.1</ele>
        <time>2022-05-24T08:48:43Z</time>
      </trkpt>
      <trkpt lat="44.88152" lon="1.7359">
        <ele>300.4</ele>
        <time>2022-05-24T08:48:44Z</time>
      </trkpt>
      <trkpt lat="44.88149" lon="1.73588">
        <ele>300.4</ele>
        <time>2022-05-24T08:48:45Z</time>
      </trkpt>
      <trkpt lat="44.88143" lon="1.73582">
        <ele>300.4</ele>
        <time>2022-05-24T08:48:47Z</time>
      </trkpt>
      <trkpt lat="44.88139" lon="1.73579">
        <ele>301</ele>
        <time>2022-05-24T08:48:48Z</time>
      </trkpt>
      <trkpt lat="44.88136" lon="1.73578">
        <ele>301</ele>
        <time>2022-05-24T08:48:49Z</time>
      </trkpt>
      <trkpt lat="44.88133" lon="1.73576">
        <ele>300.9</ele>
        <time>2022-05-24T08:48:50Z</time>
      </trkpt>
      <trkpt lat="44.88129" lon="1.73574">
        <ele>301.5</ele>
        <time>2022-05-24T08:48:51Z</time>
      </trkpt>
      <trkpt lat="44.88125" lon="1.73573">
        <ele>301.5</ele>
        <time>2022-05-24T08:48:52Z</time>
      </trkpt>
      <trkpt lat="44.88121" lon="1.73571">
        <ele>301.5</ele>
        <time>2022-05-24T08:48:53Z</time>
      </trkpt>
      <trkpt lat="44.88117" lon="1.7357">
        <ele>302.1</ele>
        <time>2022-05-24T08:48:54Z</time>
      </trkpt>
      <trkpt lat="44.88112" lon="1.73568">
        <ele>302.1</ele>
        <time>2022-05-24T08:48:55Z</time>
      </trkpt>
      <trkpt lat="44.88108" lon="1.73567">
        <ele>302.4</ele>
        <time>2022-05-24T08:48:56Z</time>
      </trkpt>
      <trkpt lat="44.88103" lon="1.73565">
        <ele>303</ele>
        <time>2022-05-24T08:48:57Z</time>
      </trkpt>
      <trkpt lat="44.88099" lon="1.73564">
        <ele>303</ele>
        <time>2022-05-24T08:48:58Z</time>
      </trkpt>
      <trkpt lat="44.88096" lon="1.73562">
        <ele>303</ele>
        <time>2022-05-24T08:48:59Z</time>
      </trkpt>
      <trkpt lat="44.88092" lon="1.73561">
        <ele>303.6</ele>
        <time>2022-05-24T08:49:00Z</time>
      </trkpt>
      <trkpt lat="44.88088" lon="1.73559">
        <ele>303.6</ele>
        <time>2022-05-24T08:49:01Z</time>
      </trkpt>
      <trkpt lat="44.88083" lon="1.73558">
        <ele>303.6</ele>
        <time>2022-05-24T08:49:02Z</time>
      </trkpt>
      <trkpt lat="44.88079" lon="1.73555">
        <ele>304.2</ele>
        <time>2022-05-24T08:49:03Z</time>
      </trkpt>
      <trkpt lat="44.88075" lon="1.73552">
        <ele>304.2</ele>
        <time>2022-05-24T08:49:04Z</time>
      </trkpt>
      <trkpt lat="44.88071" lon="1.73549">
        <ele>304.5</ele>
        <time>2022-05-24T08:49:05Z</time>
      </trkpt>
      <trkpt lat="44.88068" lon="1.73545">
        <ele>304.9</ele>
        <time>2022-05-24T08:49:06Z</time>
      </trkpt>
      <trkpt lat="44.88063" lon="1.7354">
        <ele>304.9</ele>
        <time>2022-05-24T08:49:07Z</time>
      </trkpt>
      <trkpt lat="44.88059" lon="1.73536">
        <ele>304.9</ele>
        <time>2022-05-24T08:49:08Z</time>
      </trkpt>
      <trkpt lat="44.88055" lon="1.73533">
        <ele>305.4</ele>
        <time>2022-05-24T08:49:09Z</time>
      </trkpt>
      <trkpt lat="44.88051" lon="1.73529">
        <ele>305.3</ele>
        <time>2022-05-24T08:49:10Z</time>
      </trkpt>
      <trkpt lat="44.88047" lon="1.73525">
        <ele>305.3</ele>
        <time>2022-05-24T08:49:11Z</time>
      </trkpt>
      <trkpt lat="44.88044" lon="1.73521">
        <ele>305.5</ele>
        <time>2022-05-24T08:49:12Z</time>
      </trkpt>
      <trkpt lat="44.88039" lon="1.73517">
        <ele>305.5</ele>
        <time>2022-05-24T08:49:13Z</time>
      </trkpt>
      <trkpt lat="44.88035" lon="1.73514">
        <ele>305.2</ele>
        <time>2022-05-24T08:49:14Z</time>
      </trkpt>
      <trkpt lat="44.8803" lon="1.73511">
        <ele>305.4</ele>
        <time>2022-05-24T08:49:15Z</time>
      </trkpt>
      <trkpt lat="44.88026" lon="1.73508">
        <ele>305.4</ele>
        <time>2022-05-24T08:49:16Z</time>
      </trkpt>
      <trkpt lat="44.88021" lon="1.73504">
        <ele>305.4</ele>
        <time>2022-05-24T08:49:17Z</time>
      </trkpt>
      <trkpt lat="44.88017" lon="1.735">
        <ele>305.6</ele>
        <time>2022-05-24T08:49:18Z</time>
      </trkpt>
      <trkpt lat="44.88012" lon="1.73496">
        <ele>305</ele>
        <time>2022-05-24T08:49:19Z</time>
      </trkpt>
      <trkpt lat="44.88008" lon="1.73494">
        <ele>305.3</ele>
        <time>2022-05-24T08:49:20Z</time>
      </trkpt>
      <trkpt lat="44.88003" lon="1.7349">
        <ele>305.3</ele>
        <time>2022-05-24T08:49:21Z</time>
      </trkpt>
      <trkpt lat="44.87999" lon="1.73488">
        <ele>305.3</ele>
        <time>2022-05-24T08:49:22Z</time>
      </trkpt>
      <trkpt lat="44.87994" lon="1.73485">
        <ele>305.6</ele>
        <time>2022-05-24T08:49:23Z</time>
      </trkpt>
      <trkpt lat="44.87989" lon="1.73483">
        <ele>305.6</ele>
        <time>2022-05-24T08:49:24Z</time>
      </trkpt>
      <trkpt lat="44.87984" lon="1.7348">
        <ele>304.9</ele>
        <time>2022-05-24T08:49:25Z</time>
      </trkpt>
      <trkpt lat="44.8798" lon="1.73476">
        <ele>305.2</ele>
        <time>2022-05-24T08:49:26Z</time>
      </trkpt>
      <trkpt lat="44.87976" lon="1.73472">
        <ele>305.1</ele>
        <time>2022-05-24T08:49:27Z</time>
      </trkpt>
      <trkpt lat="44.87972" lon="1.73468">
        <ele>305.1</ele>
        <time>2022-05-24T08:49:28Z</time>
      </trkpt>
      <trkpt lat="44.87967" lon="1.73464">
        <ele>305.4</ele>
        <time>2022-05-24T08:49:29Z</time>
      </trkpt>
      <trkpt lat="44.87963" lon="1.73461">
        <ele>304.5</ele>
        <time>2022-05-24T08:49:30Z</time>
      </trkpt>
      <trkpt lat="44.87958" lon="1.73457">
        <ele>304.8</ele>
        <time>2022-05-24T08:49:31Z</time>
      </trkpt>
      <trkpt lat="44.87954" lon="1.73453">
        <ele>304.8</ele>
        <time>2022-05-24T08:49:32Z</time>
      </trkpt>
      <trkpt lat="44.87949" lon="1.73449">
        <ele>304.8</ele>
        <time>2022-05-24T08:49:33Z</time>
      </trkpt>
      <trkpt lat="44.87944" lon="1.73445">
        <ele>304</ele>
        <time>2022-05-24T08:49:34Z</time>
      </trkpt>
      <trkpt lat="44.8794" lon="1.7344">
        <ele>304</ele>
        <time>2022-05-24T08:49:35Z</time>
      </trkpt>
      <trkpt lat="44.87937" lon="1.73436">
        <ele>304</ele>
        <time>2022-05-24T08:49:36Z</time>
      </trkpt>
      <trkpt lat="44.87933" lon="1.73431">
        <ele>304.1</ele>
        <time>2022-05-24T08:49:37Z</time>
      </trkpt>
      <trkpt lat="44.87929" lon="1.73425">
        <ele>303.2</ele>
        <time>2022-05-24T08:49:38Z</time>
      </trkpt>
      <trkpt lat="44.87926" lon="1.7342">
        <ele>303.2</ele>
        <time>2022-05-24T08:49:39Z</time>
      </trkpt>
      <trkpt lat="44.87923" lon="1.73416">
        <ele>303.2</ele>
        <time>2022-05-24T08:49:40Z</time>
      </trkpt>
      <trkpt lat="44.87919" lon="1.73412">
        <ele>302.4</ele>
        <time>2022-05-24T08:49:41Z</time>
      </trkpt>
      <trkpt lat="44.87915" lon="1.73406">
        <ele>302.4</ele>
        <time>2022-05-24T08:49:42Z</time>
      </trkpt>
      <trkpt lat="44.87911" lon="1.734">
        <ele>302.4</ele>
        <time>2022-05-24T08:49:43Z</time>
      </trkpt>
      <trkpt lat="44.87908" lon="1.73396">
        <ele>302.5</ele>
        <time>2022-05-24T08:49:44Z</time>
      </trkpt>
      <trkpt lat="44.87904" lon="1.73391">
        <ele>302.1</ele>
        <time>2022-05-24T08:49:45Z</time>
      </trkpt>
      <trkpt lat="44.87901" lon="1.73385">
        <ele>302.1</ele>
        <time>2022-05-24T08:49:46Z</time>
      </trkpt>
      <trkpt lat="44.87897" lon="1.7338">
        <ele>302.2</ele>
        <time>2022-05-24T08:49:47Z</time>
      </trkpt>
      <trkpt lat="44.87891" lon="1.73374">
        <ele>302.1</ele>
        <time>2022-05-24T08:49:48Z</time>
      </trkpt>
      <trkpt lat="44.87888" lon="1.73366">
        <ele>302.1</ele>
        <time>2022-05-24T08:49:49Z</time>
      </trkpt>
      <trkpt lat="44.87883" lon="1.7336">
        <ele>302.6</ele>
        <time>2022-05-24T08:49:50Z</time>
      </trkpt>
      <trkpt lat="44.87879" lon="1.73356">
        <ele>302.5</ele>
        <time>2022-05-24T08:49:51Z</time>
      </trkpt>
      <trkpt lat="44.87875" lon="1.73352">
        <ele>302.5</ele>
        <time>2022-05-24T08:49:52Z</time>
      </trkpt>
      <trkpt lat="44.87869" lon="1.73351">
        <ele>303</ele>
        <time>2022-05-24T08:49:53Z</time>
      </trkpt>
      <trkpt lat="44.87865" lon="1.73349">
        <ele>303</ele>
        <time>2022-05-24T08:49:54Z</time>
      </trkpt>
      <trkpt lat="44.8786" lon="1.73346">
        <ele>303.6</ele>
        <time>2022-05-24T08:49:55Z</time>
      </trkpt>
      <trkpt lat="44.87856" lon="1.73343">
        <ele>304.1</ele>
        <time>2022-05-24T08:49:56Z</time>
      </trkpt>
      <trkpt lat="44.87852" lon="1.73341">
        <ele>304.1</ele>
        <time>2022-05-24T08:49:57Z</time>
      </trkpt>
      <trkpt lat="44.87847" lon="1.73338">
        <ele>304.8</ele>
        <time>2022-05-24T08:49:58Z</time>
      </trkpt>
      <trkpt lat="44.87843" lon="1.73335">
        <ele>304.8</ele>
        <time>2022-05-24T08:49:59Z</time>
      </trkpt>
      <trkpt lat="44.87839" lon="1.73333">
        <ele>304.8</ele>
        <time>2022-05-24T08:50:00Z</time>
      </trkpt>
      <trkpt lat="44.87835" lon="1.7333">
        <ele>305.4</ele>
        <time>2022-05-24T08:50:01Z</time>
      </trkpt>
      <trkpt lat="44.87831" lon="1.73328">
        <ele>305.4</ele>
        <time>2022-05-24T08:50:02Z</time>
      </trkpt>
      <trkpt lat="44.87828" lon="1.73325">
        <ele>306.3</ele>
        <time>2022-05-24T08:50:03Z</time>
      </trkpt>
      <trkpt lat="44.87823" lon="1.73322">
        <ele>307</ele>
        <time>2022-05-24T08:50:04Z</time>
      </trkpt>
      <trkpt lat="44.87819" lon="1.7332">
        <ele>306.9</ele>
        <time>2022-05-24T08:50:05Z</time>
      </trkpt>
      <trkpt lat="44.87815" lon="1.73318">
        <ele>306.9</ele>
        <time>2022-05-24T08:50:06Z</time>
      </trkpt>
      <trkpt lat="44.87811" lon="1.73318">
        <ele>307.5</ele>
        <time>2022-05-24T08:50:07Z</time>
      </trkpt>
      <trkpt lat="44.87808" lon="1.73317">
        <ele>307.4</ele>
        <time>2022-05-24T08:50:08Z</time>
      </trkpt>
      <trkpt lat="44.87804" lon="1.73316">
        <ele>307.4</ele>
        <time>2022-05-24T08:50:09Z</time>
      </trkpt>
      <trkpt lat="44.87801" lon="1.73317">
        <ele>308</ele>
        <time>2022-05-24T08:50:10Z</time>
      </trkpt>
      <trkpt lat="44.87798" lon="1.73317">
        <ele>308</ele>
        <time>2022-05-24T08:50:11Z</time>
      </trkpt>
      <trkpt lat="44.87794" lon="1.73316">
        <ele>308</ele>
        <time>2022-05-24T08:50:12Z</time>
      </trkpt>
      <trkpt lat="44.8779" lon="1.73315">
        <ele>308</ele>
        <time>2022-05-24T08:50:13Z</time>
      </trkpt>
      <trkpt lat="44.87787" lon="1.73314">
        <ele>308.7</ele>
        <time>2022-05-24T08:50:14Z</time>
      </trkpt>
      <trkpt lat="44.87784" lon="1.73314">
        <ele>308.7</ele>
        <time>2022-05-24T08:50:15Z</time>
      </trkpt>
      <trkpt lat="44.87778" lon="1.73315">
        <ele>308.7</ele>
        <time>2022-05-24T08:50:17Z</time>
      </trkpt>
      <trkpt lat="44.87774" lon="1.73315">
        <ele>309.5</ele>
        <time>2022-05-24T08:50:18Z</time>
      </trkpt>
      <trkpt lat="44.87772" lon="1.73314">
        <ele>309.5</ele>
        <time>2022-05-24T08:50:19Z</time>
      </trkpt>
      <trkpt lat="44.87768" lon="1.73313">
        <ele>309.5</ele>
        <time>2022-05-24T08:50:20Z</time>
      </trkpt>
      <trkpt lat="44.87767" lon="1.73313">
        <ele>309.5</ele>
        <time>2022-05-24T08:50:21Z</time>
      </trkpt>
      <trkpt lat="44.87763" lon="1.73312">
        <ele>310</ele>
        <time>2022-05-24T08:50:22Z</time>
      </trkpt>
      <trkpt lat="44.8776" lon="1.73311">
        <ele>310</ele>
        <time>2022-05-24T08:50:23Z</time>
      </trkpt>
      <trkpt lat="44.87756" lon="1.73309">
        <ele>310</ele>
        <time>2022-05-24T08:50:24Z</time>
      </trkpt>
      <trkpt lat="44.87752" lon="1.73308">
        <ele>311.7</ele>
        <time>2022-05-24T08:50:25Z</time>
      </trkpt>
      <trkpt lat="44.87747" lon="1.73306">
        <ele>311.7</ele>
        <time>2022-05-24T08:50:26Z</time>
      </trkpt>
      <trkpt lat="44.87742" lon="1.73304">
        <ele>311.7</ele>
        <time>2022-05-24T08:50:27Z</time>
      </trkpt>
      <trkpt lat="44.87737" lon="1.73301">
        <ele>311.4</ele>
        <time>2022-05-24T08:50:28Z</time>
      </trkpt>
      <trkpt lat="44.87732" lon="1.73299">
        <ele>311.4</ele>
        <time>2022-05-24T08:50:29Z</time>
      </trkpt>
      <trkpt lat="44.87728" lon="1.73296">
        <ele>310.7</ele>
        <time>2022-05-24T08:50:30Z</time>
      </trkpt>
      <trkpt lat="44.87723" lon="1.73294">
        <ele>310.7</ele>
        <time>2022-05-24T08:50:31Z</time>
      </trkpt>
      <trkpt lat="44.87718" lon="1.73291">
        <ele>312.3</ele>
        <time>2022-05-24T08:50:32Z</time>
      </trkpt>
      <trkpt lat="44.87713" lon="1.73288">
        <ele>311.7</ele>
        <time>2022-05-24T08:50:33Z</time>
      </trkpt>
      <trkpt lat="44.87709" lon="1.73286">
        <ele>311.7</ele>
        <time>2022-05-24T08:50:34Z</time>
      </trkpt>
      <trkpt lat="44.87705" lon="1.73283">
        <ele>311.7</ele>
        <time>2022-05-24T08:50:35Z</time>
      </trkpt>
      <trkpt lat="44.87702" lon="1.73281">
        <ele>311</ele>
        <time>2022-05-24T08:50:36Z</time>
      </trkpt>
      <trkpt lat="44.87698" lon="1.73278">
        <ele>311</ele>
        <time>2022-05-24T08:50:37Z</time>
      </trkpt>
      <trkpt lat="44.87695" lon="1.73276">
        <ele>310.9</ele>
        <time>2022-05-24T08:50:38Z</time>
      </trkpt>
      <trkpt lat="44.87692" lon="1.73274">
        <ele>313.3</ele>
        <time>2022-05-24T08:50:39Z</time>
      </trkpt>
      <trkpt lat="44.8769" lon="1.73272">
        <ele>312.4</ele>
        <time>2022-05-24T08:50:40Z</time>
      </trkpt>
      <trkpt lat="44.87686" lon="1.7327">
        <ele>312.4</ele>
        <time>2022-05-24T08:50:41Z</time>
      </trkpt>
      <trkpt lat="44.87683" lon="1.73269">
        <ele>312.4</ele>
        <time>2022-05-24T08:50:42Z</time>
      </trkpt>
      <trkpt lat="44.87679" lon="1.73267">
        <ele>311.6</ele>
        <time>2022-05-24T08:50:43Z</time>
      </trkpt>
      <trkpt lat="44.87676" lon="1.73266">
        <ele>311.6</ele>
        <time>2022-05-24T08:50:44Z</time>
      </trkpt>
      <trkpt lat="44.87673" lon="1.73264">
        <ele>311.6</ele>
        <time>2022-05-24T08:50:45Z</time>
      </trkpt>
      <trkpt lat="44.8767" lon="1.73263">
        <ele>311.5</ele>
        <time>2022-05-24T08:50:46Z</time>
      </trkpt>
      <trkpt lat="44.87667" lon="1.73261">
        <ele>310.7</ele>
        <time>2022-05-24T08:50:47Z</time>
      </trkpt>
      <trkpt lat="44.87664" lon="1.73259">
        <ele>310.7</ele>
        <time>2022-05-24T08:50:48Z</time>
      </trkpt>
      <trkpt lat="44.8766" lon="1.73257">
        <ele>312.6</ele>
        <time>2022-05-24T08:50:49Z</time>
      </trkpt>
      <trkpt lat="44.87656" lon="1.73254">
        <ele>312.5</ele>
        <time>2022-05-24T08:50:50Z</time>
      </trkpt>
      <trkpt lat="44.87652" lon="1.73252">
        <ele>311.7</ele>
        <time>2022-05-24T08:50:51Z</time>
      </trkpt>
      <trkpt lat="44.87649" lon="1.73249">
        <ele>311.7</ele>
        <time>2022-05-24T08:50:52Z</time>
      </trkpt>
      <trkpt lat="44.87645" lon="1.73247">
        <ele>311.7</ele>
        <time>2022-05-24T08:50:53Z</time>
      </trkpt>
      <trkpt lat="44.87641" lon="1.73244">
        <ele>311</ele>
        <time>2022-05-24T08:50:54Z</time>
      </trkpt>
      <trkpt lat="44.87637" lon="1.73242">
        <ele>311</ele>
        <time>2022-05-24T08:50:56Z</time>
      </trkpt>
      <trkpt lat="44.87633" lon="1.73239">
        <ele>312.8</ele>
        <time>2022-05-24T08:50:57Z</time>
      </trkpt>
      <trkpt lat="44.8763" lon="1.73237">
        <ele>312.4</ele>
        <time>2022-05-24T08:50:58Z</time>
      </trkpt>
      <trkpt lat="44.87627" lon="1.73234">
        <ele>312.3</ele>
        <time>2022-05-24T08:50:59Z</time>
      </trkpt>
      <trkpt lat="44.87624" lon="1.73231">
        <ele>312.3</ele>
        <time>2022-05-24T08:51:00Z</time>
      </trkpt>
      <trkpt lat="44.87621" lon="1.73228">
        <ele>312.3</ele>
        <time>2022-05-24T08:51:01Z</time>
      </trkpt>
      <trkpt lat="44.87619" lon="1.73225">
        <ele>312</ele>
        <time>2022-05-24T08:51:02Z</time>
      </trkpt>
      <trkpt lat="44.87616" lon="1.73222">
        <ele>313.9</ele>
        <time>2022-05-24T08:51:03Z</time>
      </trkpt>
      <trkpt lat="44.87614" lon="1.7322">
        <ele>313.9</ele>
        <time>2022-05-24T08:51:04Z</time>
      </trkpt>
      <trkpt lat="44.87611" lon="1.73217">
        <ele>313.9</ele>
        <time>2022-05-24T08:51:05Z</time>
      </trkpt>
      <trkpt lat="44.87609" lon="1.73214">
        <ele>313.9</ele>
        <time>2022-05-24T08:51:06Z</time>
      </trkpt>
      <trkpt lat="44.87606" lon="1.7321">
        <ele>313.6</ele>
        <time>2022-05-24T08:51:07Z</time>
      </trkpt>
      <trkpt lat="44.87603" lon="1.73207">
        <ele>313.6</ele>
        <time>2022-05-24T08:51:08Z</time>
      </trkpt>
      <trkpt lat="44.876" lon="1.73203">
        <ele>314.9</ele>
        <time>2022-05-24T08:51:09Z</time>
      </trkpt>
      <trkpt lat="44.87597" lon="1.73199">
        <ele>314.9</ele>
        <time>2022-05-24T08:51:10Z</time>
      </trkpt>
      <trkpt lat="44.87595" lon="1.73195">
        <ele>314.9</ele>
        <time>2022-05-24T08:51:11Z</time>
      </trkpt>
      <trkpt lat="44.87593" lon="1.73192">
        <ele>314.6</ele>
        <time>2022-05-24T08:51:12Z</time>
      </trkpt>
      <trkpt lat="44.8759" lon="1.73188">
        <ele>315.5</ele>
        <time>2022-05-24T08:51:13Z</time>
      </trkpt>
      <trkpt lat="44.87587" lon="1.73185">
        <ele>315.5</ele>
        <time>2022-05-24T08:51:14Z</time>
      </trkpt>
      <trkpt lat="44.87584" lon="1.73182">
        <ele>315.5</ele>
        <time>2022-05-24T08:51:15Z</time>
      </trkpt>
      <trkpt lat="44.87581" lon="1.73179">
        <ele>315.2</ele>
        <time>2022-05-24T08:51:16Z</time>
      </trkpt>
      <trkpt lat="44.87578" lon="1.73175">
        <ele>315.2</ele>
        <time>2022-05-24T08:51:17Z</time>
      </trkpt>
      <trkpt lat="44.87575" lon="1.73171">
        <ele>315.5</ele>
        <time>2022-05-24T08:51:18Z</time>
      </trkpt>
      <trkpt lat="44.87571" lon="1.73167">
        <ele>315.5</ele>
        <time>2022-05-24T08:51:19Z</time>
      </trkpt>
      <trkpt lat="44.87568" lon="1.73164">
        <ele>315.3</ele>
        <time>2022-05-24T08:51:20Z</time>
      </trkpt>
      <trkpt lat="44.87564" lon="1.73161">
        <ele>315.3</ele>
        <time>2022-05-24T08:51:21Z</time>
      </trkpt>
      <trkpt lat="44.8756" lon="1.73158">
        <ele>315.3</ele>
        <time>2022-05-24T08:51:22Z</time>
      </trkpt>
      <trkpt lat="44.87556" lon="1.73156">
        <ele>315.2</ele>
        <time>2022-05-24T08:51:23Z</time>
      </trkpt>
      <trkpt lat="44.87552" lon="1.73154">
        <ele>315</ele>
        <time>2022-05-24T08:51:24Z</time>
      </trkpt>
      <trkpt lat="44.87548" lon="1.73152">
        <ele>315</ele>
        <time>2022-05-24T08:51:25Z</time>
      </trkpt>
      <trkpt lat="44.87543" lon="1.7315">
        <ele>314.9</ele>
        <time>2022-05-24T08:51:26Z</time>
      </trkpt>
      <trkpt lat="44.87538" lon="1.7315">
        <ele>314.9</ele>
        <time>2022-05-24T08:51:27Z</time>
      </trkpt>
      <trkpt lat="44.87534" lon="1.73149">
        <ele>314.9</ele>
        <time>2022-05-24T08:51:28Z</time>
      </trkpt>
      <trkpt lat="44.87529" lon="1.73148">
        <ele>314.8</ele>
        <time>2022-05-24T08:51:29Z</time>
      </trkpt>
      <trkpt lat="44.87526" lon="1.73147">
        <ele>314.8</ele>
        <time>2022-05-24T08:51:30Z</time>
      </trkpt>
      <trkpt lat="44.87521" lon="1.73145">
        <ele>314.8</ele>
        <time>2022-05-24T08:51:31Z</time>
      </trkpt>
      <trkpt lat="44.87518" lon="1.73144">
        <ele>314.8</ele>
        <time>2022-05-24T08:51:32Z</time>
      </trkpt>
      <trkpt lat="44.87515" lon="1.73142">
        <ele>314.8</ele>
        <time>2022-05-24T08:51:33Z</time>
      </trkpt>
      <trkpt lat="44.87511" lon="1.73141">
        <ele>314.8</ele>
        <time>2022-05-24T08:51:34Z</time>
      </trkpt>
      <trkpt lat="44.87508" lon="1.73139">
        <ele>314.7</ele>
        <time>2022-05-24T08:51:35Z</time>
      </trkpt>
      <trkpt lat="44.87505" lon="1.73136">
        <ele>314.3</ele>
        <time>2022-05-24T08:51:36Z</time>
      </trkpt>
      <trkpt lat="44.87501" lon="1.73133">
        <ele>314.3</ele>
        <time>2022-05-24T08:51:37Z</time>
      </trkpt>
      <trkpt lat="44.87497" lon="1.7313">
        <ele>314.2</ele>
        <time>2022-05-24T08:51:38Z</time>
      </trkpt>
      <trkpt lat="44.87493" lon="1.73128">
        <ele>314.2</ele>
        <time>2022-05-24T08:51:39Z</time>
      </trkpt>
      <trkpt lat="44.8749" lon="1.73125">
        <ele>314.2</ele>
        <time>2022-05-24T08:51:40Z</time>
      </trkpt>
      <trkpt lat="44.87486" lon="1.73124">
        <ele>314.2</ele>
        <time>2022-05-24T08:51:41Z</time>
      </trkpt>
      <trkpt lat="44.87483" lon="1.73124">
        <ele>314.1</ele>
        <time>2022-05-24T08:51:42Z</time>
      </trkpt>
      <trkpt lat="44.87479" lon="1.73125">
        <ele>314.1</ele>
        <time>2022-05-24T08:51:43Z</time>
      </trkpt>
      <trkpt lat="44.87476" lon="1.73129">
        <ele>314.1</ele>
        <time>2022-05-24T08:51:44Z</time>
      </trkpt>
      <trkpt lat="44.87474" lon="1.73134">
        <ele>314.1</ele>
        <time>2022-05-24T08:51:45Z</time>
      </trkpt>
      <trkpt lat="44.87473" lon="1.73141">
        <ele>314.1</ele>
        <time>2022-05-24T08:51:46Z</time>
      </trkpt>
      <trkpt lat="44.87471" lon="1.73147">
        <ele>314.1</ele>
        <time>2022-05-24T08:51:47Z</time>
      </trkpt>
      <trkpt lat="44.87469" lon="1.73153">
        <ele>314.2</ele>
        <time>2022-05-24T08:51:48Z</time>
      </trkpt>
      <trkpt lat="44.87466" lon="1.7316">
        <ele>314.1</ele>
        <time>2022-05-24T08:51:49Z</time>
      </trkpt>
      <trkpt lat="44.87463" lon="1.73166">
        <ele>314.1</ele>
        <time>2022-05-24T08:51:50Z</time>
      </trkpt>
      <trkpt lat="44.8746" lon="1.7317">
        <ele>314</ele>
        <time>2022-05-24T08:51:51Z</time>
      </trkpt>
      <trkpt lat="44.87456" lon="1.73175">
        <ele>314</ele>
        <time>2022-05-24T08:51:52Z</time>
      </trkpt>
      <trkpt lat="44.87452" lon="1.73179">
        <ele>314</ele>
        <time>2022-05-24T08:51:53Z</time>
      </trkpt>
      <trkpt lat="44.87446" lon="1.73183">
        <ele>313.9</ele>
        <time>2022-05-24T08:51:54Z</time>
      </trkpt>
      <trkpt lat="44.87441" lon="1.73186">
        <ele>313.9</ele>
        <time>2022-05-24T08:51:55Z</time>
      </trkpt>
      <trkpt lat="44.87437" lon="1.73189">
        <ele>313.8</ele>
        <time>2022-05-24T08:51:56Z</time>
      </trkpt>
      <trkpt lat="44.87433" lon="1.73193">
        <ele>313.7</ele>
        <time>2022-05-24T08:51:57Z</time>
      </trkpt>
      <trkpt lat="44.87428" lon="1.73196">
        <ele>313.7</ele>
        <time>2022-05-24T08:51:58Z</time>
      </trkpt>
      <trkpt lat="44.87424" lon="1.732">
        <ele>313.6</ele>
        <time>2022-05-24T08:51:59Z</time>
      </trkpt>
      <trkpt lat="44.87421" lon="1.73204">
        <ele>313.6</ele>
        <time>2022-05-24T08:52:00Z</time>
      </trkpt>
      <trkpt lat="44.87417" lon="1.73208">
        <ele>313.5</ele>
        <time>2022-05-24T08:52:01Z</time>
      </trkpt>
      <trkpt lat="44.87412" lon="1.73211">
        <ele>313.4</ele>
        <time>2022-05-24T08:52:02Z</time>
      </trkpt>
      <trkpt lat="44.87407" lon="1.73216">
        <ele>313.2</ele>
        <time>2022-05-24T08:52:03Z</time>
      </trkpt>
      <trkpt lat="44.87402" lon="1.7322">
        <ele>313</ele>
        <time>2022-05-24T08:52:04Z</time>
      </trkpt>
      <trkpt lat="44.87397" lon="1.73225">
        <ele>312.9</ele>
        <time>2022-05-24T08:52:05Z</time>
      </trkpt>
      <trkpt lat="44.87392" lon="1.7323">
        <ele>312.8</ele>
        <time>2022-05-24T08:52:06Z</time>
      </trkpt>
      <trkpt lat="44.87387" lon="1.73236">
        <ele>312.6</ele>
        <time>2022-05-24T08:52:07Z</time>
      </trkpt>
      <trkpt lat="44.87378" lon="1.73245">
        <ele>312.4</ele>
        <time>2022-05-24T08:52:11Z</time>
      </trkpt>
      <trkpt lat="44.87362" lon="1.73263">
        <ele>312.1</ele>
        <time>2022-05-24T08:52:13Z</time>
      </trkpt>
      <trkpt lat="44.87356" lon="1.7327">
        <ele>312</ele>
        <time>2022-05-24T08:52:14Z</time>
      </trkpt>
      <trkpt lat="44.8735" lon="1.73276">
        <ele>312</ele>
        <time>2022-05-24T08:52:15Z</time>
      </trkpt>
      <trkpt lat="44.87345" lon="1.73282">
        <ele>311.9</ele>
        <time>2022-05-24T08:52:16Z</time>
      </trkpt>
      <trkpt lat="44.8734" lon="1.73288">
        <ele>311.9</ele>
        <time>2022-05-24T08:52:17Z</time>
      </trkpt>
      <trkpt lat="44.87335" lon="1.73293">
        <ele>312</ele>
        <time>2022-05-24T08:52:18Z</time>
      </trkpt>
      <trkpt lat="44.87331" lon="1.73299">
        <ele>312</ele>
        <time>2022-05-24T08:52:19Z</time>
      </trkpt>
      <trkpt lat="44.87327" lon="1.73304">
        <ele>312.1</ele>
        <time>2022-05-24T08:52:20Z</time>
      </trkpt>
      <trkpt lat="44.87321" lon="1.73308">
        <ele>312.2</ele>
        <time>2022-05-24T08:52:21Z</time>
      </trkpt>
      <trkpt lat="44.87316" lon="1.73312">
        <ele>312.2</ele>
        <time>2022-05-24T08:52:22Z</time>
      </trkpt>
      <trkpt lat="44.87311" lon="1.73315">
        <ele>312.3</ele>
        <time>2022-05-24T08:52:23Z</time>
      </trkpt>
      <trkpt lat="44.87306" lon="1.73317">
        <ele>312.3</ele>
        <time>2022-05-24T08:52:24Z</time>
      </trkpt>
      <trkpt lat="44.87301" lon="1.7332">
        <ele>312.3</ele>
        <time>2022-05-24T08:52:25Z</time>
      </trkpt>
      <trkpt lat="44.87295" lon="1.73322">
        <ele>312.3</ele>
        <time>2022-05-24T08:52:26Z</time>
      </trkpt>
      <trkpt lat="44.8729" lon="1.73324">
        <ele>312.3</ele>
        <time>2022-05-24T08:52:27Z</time>
      </trkpt>
      <trkpt lat="44.87284" lon="1.73326">
        <ele>312.2</ele>
        <time>2022-05-24T08:52:28Z</time>
      </trkpt>
      <trkpt lat="44.87279" lon="1.73327">
        <ele>312.1</ele>
        <time>2022-05-24T08:52:29Z</time>
      </trkpt>
      <trkpt lat="44.87273" lon="1.73329">
        <ele>311.9</ele>
        <time>2022-05-24T08:52:30Z</time>
      </trkpt>
      <trkpt lat="44.87267" lon="1.73331">
        <ele>311.7</ele>
        <time>2022-05-24T08:52:31Z</time>
      </trkpt>
      <trkpt lat="44.87261" lon="1.73332">
        <ele>311.4</ele>
        <time>2022-05-24T08:52:32Z</time>
      </trkpt>
      <trkpt lat="44.87255" lon="1.73333">
        <ele>311.2</ele>
        <time>2022-05-24T08:52:33Z</time>
      </trkpt>
      <trkpt lat="44.87248" lon="1.73334">
        <ele>310.9</ele>
        <time>2022-05-24T08:52:34Z</time>
      </trkpt>
      <trkpt lat="44.8724" lon="1.73336">
        <ele>310.4</ele>
        <time>2022-05-24T08:52:35Z</time>
      </trkpt>
      <trkpt lat="44.87233" lon="1.73336">
        <ele>310.1</ele>
        <time>2022-05-24T08:52:36Z</time>
      </trkpt>
      <trkpt lat="44.87225" lon="1.73336">
        <ele>309.8</ele>
        <time>2022-05-24T08:52:37Z</time>
      </trkpt>
      <trkpt lat="44.87218" lon="1.73336">
        <ele>309.6</ele>
        <time>2022-05-24T08:52:38Z</time>
      </trkpt>
      <trkpt lat="44.87211" lon="1.73337">
        <ele>309.5</ele>
        <time>2022-05-24T08:52:39Z</time>
      </trkpt>
      <trkpt lat="44.87205" lon="1.7334">
        <ele>309.5</ele>
        <time>2022-05-24T08:52:40Z</time>
      </trkpt>
      <trkpt lat="44.87199" lon="1.73345">
        <ele>309.5</ele>
        <time>2022-05-24T08:52:41Z</time>
      </trkpt>
      <trkpt lat="44.87193" lon="1.73351">
        <ele>309.6</ele>
        <time>2022-05-24T08:52:42Z</time>
      </trkpt>
      <trkpt lat="44.87189" lon="1.73357">
        <ele>309.7</ele>
        <time>2022-05-24T08:52:43Z</time>
      </trkpt>
      <trkpt lat="44.87186" lon="1.73364">
        <ele>309.8</ele>
        <time>2022-05-24T08:52:44Z</time>
      </trkpt>
      <trkpt lat="44.87184" lon="1.73373">
        <ele>309.9</ele>
        <time>2022-05-24T08:52:45Z</time>
      </trkpt>
      <trkpt lat="44.87182" lon="1.73382">
        <ele>310.1</ele>
        <time>2022-05-24T08:52:46Z</time>
      </trkpt>
      <trkpt lat="44.8718" lon="1.7339">
        <ele>310.3</ele>
        <time>2022-05-24T08:52:47Z</time>
      </trkpt>
      <trkpt lat="44.87177" lon="1.73398">
        <ele>310.5</ele>
        <time>2022-05-24T08:52:48Z</time>
      </trkpt>
      <trkpt lat="44.87175" lon="1.73406">
        <ele>310.7</ele>
        <time>2022-05-24T08:52:49Z</time>
      </trkpt>
      <trkpt lat="44.87172" lon="1.73414">
        <ele>310.9</ele>
        <time>2022-05-24T08:52:50Z</time>
      </trkpt>
      <trkpt lat="44.8717" lon="1.73421">
        <ele>311.1</ele>
        <time>2022-05-24T08:52:51Z</time>
      </trkpt>
      <trkpt lat="44.87167" lon="1.73429">
        <ele>311.3</ele>
        <time>2022-05-24T08:52:52Z</time>
      </trkpt>
      <trkpt lat="44.87165" lon="1.73437">
        <ele>311.5</ele>
        <time>2022-05-24T08:52:53Z</time>
      </trkpt>
      <trkpt lat="44.87163" lon="1.73444">
        <ele>311.7</ele>
        <time>2022-05-24T08:52:54Z</time>
      </trkpt>
      <trkpt lat="44.8716" lon="1.73451">
        <ele>311.9</ele>
        <time>2022-05-24T08:52:55Z</time>
      </trkpt>
      <trkpt lat="44.87157" lon="1.73457">
        <ele>312.1</ele>
        <time>2022-05-24T08:52:56Z</time>
      </trkpt>
      <trkpt lat="44.87153" lon="1.73463">
        <ele>312.3</ele>
        <time>2022-05-24T08:52:57Z</time>
      </trkpt>
      <trkpt lat="44.87149" lon="1.73468">
        <ele>312.4</ele>
        <time>2022-05-24T08:52:58Z</time>
      </trkpt>
      <trkpt lat="44.87145" lon="1.73474">
        <ele>312.6</ele>
        <time>2022-05-24T08:52:59Z</time>
      </trkpt>
      <trkpt lat="44.87141" lon="1.73479">
        <ele>312.8</ele>
        <time>2022-05-24T08:53:00Z</time>
      </trkpt>
      <trkpt lat="44.87137" lon="1.73485">
        <ele>312.9</ele>
        <time>2022-05-24T08:53:01Z</time>
      </trkpt>
      <trkpt lat="44.87133" lon="1.7349">
        <ele>313.1</ele>
        <time>2022-05-24T08:53:02Z</time>
      </trkpt>
      <trkpt lat="44.87129" lon="1.73495">
        <ele>313.2</ele>
        <time>2022-05-24T08:53:03Z</time>
      </trkpt>
      <trkpt lat="44.87125" lon="1.735">
        <ele>313.4</ele>
        <time>2022-05-24T08:53:04Z</time>
      </trkpt>
      <trkpt lat="44.87121" lon="1.73505">
        <ele>313.5</ele>
        <time>2022-05-24T08:53:05Z</time>
      </trkpt>
      <trkpt lat="44.87118" lon="1.73511">
        <ele>313.7</ele>
        <time>2022-05-24T08:53:06Z</time>
      </trkpt>
      <trkpt lat="44.87114" lon="1.73516">
        <ele>313.8</ele>
        <time>2022-05-24T08:53:07Z</time>
      </trkpt>
      <trkpt lat="44.87111" lon="1.73521">
        <ele>314</ele>
        <time>2022-05-24T08:53:08Z</time>
      </trkpt>
      <trkpt lat="44.87108" lon="1.73526">
        <ele>314.2</ele>
        <time>2022-05-24T08:53:09Z</time>
      </trkpt>
      <trkpt lat="44.87104" lon="1.7353">
        <ele>314.4</ele>
        <time>2022-05-24T08:53:10Z</time>
      </trkpt>
      <trkpt lat="44.871" lon="1.73535">
        <ele>314.6</ele>
        <time>2022-05-24T08:53:11Z</time>
      </trkpt>
      <trkpt lat="44.87096" lon="1.73539">
        <ele>314.8</ele>
        <time>2022-05-24T08:53:12Z</time>
      </trkpt>
      <trkpt lat="44.87091" lon="1.73543">
        <ele>315.1</ele>
        <time>2022-05-24T08:53:13Z</time>
      </trkpt>
      <trkpt lat="44.87087" lon="1.73546">
        <ele>315.4</ele>
        <time>2022-05-24T08:53:14Z</time>
      </trkpt>
      <trkpt lat="44.87082" lon="1.7355">
        <ele>315.6</ele>
        <time>2022-05-24T08:53:15Z</time>
      </trkpt>
      <trkpt lat="44.87077" lon="1.73554">
        <ele>315.8</ele>
        <time>2022-05-24T08:53:16Z</time>
      </trkpt>
      <trkpt lat="44.87073" lon="1.73558">
        <ele>316</ele>
        <time>2022-05-24T08:53:17Z</time>
      </trkpt>
      <trkpt lat="44.87068" lon="1.73562">
        <ele>316.2</ele>
        <time>2022-05-24T08:53:18Z</time>
      </trkpt>
      <trkpt lat="44.87064" lon="1.73566">
        <ele>316.3</ele>
        <time>2022-05-24T08:53:19Z</time>
      </trkpt>
      <trkpt lat="44.87059" lon="1.73571">
        <ele>316.5</ele>
        <time>2022-05-24T08:53:20Z</time>
      </trkpt>
      <trkpt lat="44.87054" lon="1.73575">
        <ele>316.6</ele>
        <time>2022-05-24T08:53:21Z</time>
      </trkpt>
      <trkpt lat="44.87048" lon="1.73577">
        <ele>316.7</ele>
        <time>2022-05-24T08:53:22Z</time>
      </trkpt>
      <trkpt lat="44.87041" lon="1.73579">
        <ele>316.9</ele>
        <time>2022-05-24T08:53:23Z</time>
      </trkpt>
      <trkpt lat="44.87035" lon="1.73583">
        <ele>317</ele>
        <time>2022-05-24T08:53:24Z</time>
      </trkpt>
      <trkpt lat="44.87029" lon="1.73594">
        <ele>317.4</ele>
        <time>2022-05-24T08:53:26Z</time>
      </trkpt>
      <trkpt lat="44.87027" lon="1.73602">
        <ele>317.6</ele>
        <time>2022-05-24T08:53:27Z</time>
      </trkpt>
      <trkpt lat="44.87025" lon="1.73608">
        <ele>317.8</ele>
        <time>2022-05-24T08:53:28Z</time>
      </trkpt>
      <trkpt lat="44.87024" lon="1.73615">
        <ele>317.9</ele>
        <time>2022-05-24T08:53:29Z</time>
      </trkpt>
      <trkpt lat="44.87022" lon="1.73621">
        <ele>318.1</ele>
        <time>2022-05-24T08:53:30Z</time>
      </trkpt>
      <trkpt lat="44.87021" lon="1.73628">
        <ele>318.2</ele>
        <time>2022-05-24T08:53:31Z</time>
      </trkpt>
      <trkpt lat="44.87019" lon="1.73635">
        <ele>318.2</ele>
        <time>2022-05-24T08:53:32Z</time>
      </trkpt>
      <trkpt lat="44.87017" lon="1.73643">
        <ele>318.3</ele>
        <time>2022-05-24T08:53:33Z</time>
      </trkpt>
      <trkpt lat="44.87017" lon="1.7365">
        <ele>318.4</ele>
        <time>2022-05-24T08:53:34Z</time>
      </trkpt>
      <trkpt lat="44.87017" lon="1.73657">
        <ele>318.4</ele>
        <time>2022-05-24T08:53:35Z</time>
      </trkpt>
      <trkpt lat="44.87018" lon="1.73665">
        <ele>318.5</ele>
        <time>2022-05-24T08:53:36Z</time>
      </trkpt>
      <trkpt lat="44.87019" lon="1.73673">
        <ele>318.5</ele>
        <time>2022-05-24T08:53:37Z</time>
      </trkpt>
      <trkpt lat="44.87021" lon="1.7368">
        <ele>318.7</ele>
        <time>2022-05-24T08:53:38Z</time>
      </trkpt>
      <trkpt lat="44.87023" lon="1.73688">
        <ele>318.7</ele>
        <time>2022-05-24T08:53:39Z</time>
      </trkpt>
      <trkpt lat="44.87024" lon="1.73695">
        <ele>318.8</ele>
        <time>2022-05-24T08:53:40Z</time>
      </trkpt>
      <trkpt lat="44.87028" lon="1.73702">
        <ele>318.8</ele>
        <time>2022-05-24T08:53:41Z</time>
      </trkpt>
      <trkpt lat="44.87032" lon="1.73709">
        <ele>318.9</ele>
        <time>2022-05-24T08:53:42Z</time>
      </trkpt>
      <trkpt lat="44.87036" lon="1.73718">
        <ele>318.9</ele>
        <time>2022-05-24T08:53:43Z</time>
      </trkpt>
      <trkpt lat="44.87038" lon="1.73725">
        <ele>318.9</ele>
        <time>2022-05-24T08:53:44Z</time>
      </trkpt>
      <trkpt lat="44.87041" lon="1.73733">
        <ele>319</ele>
        <time>2022-05-24T08:53:45Z</time>
      </trkpt>
      <trkpt lat="44.87043" lon="1.73742">
        <ele>319</ele>
        <time>2022-05-24T08:53:46Z</time>
      </trkpt>
      <trkpt lat="44.87046" lon="1.7375">
        <ele>319</ele>
        <time>2022-05-24T08:53:47Z</time>
      </trkpt>
      <trkpt lat="44.87048" lon="1.73757">
        <ele>319.1</ele>
        <time>2022-05-24T08:53:48Z</time>
      </trkpt>
      <trkpt lat="44.87051" lon="1.73765">
        <ele>319.1</ele>
        <time>2022-05-24T08:53:49Z</time>
      </trkpt>
      <trkpt lat="44.87055" lon="1.73773">
        <ele>319.2</ele>
        <time>2022-05-24T08:53:50Z</time>
      </trkpt>
      <trkpt lat="44.87058" lon="1.73782">
        <ele>319.2</ele>
        <time>2022-05-24T08:53:51Z</time>
      </trkpt>
      <trkpt lat="44.8706" lon="1.73789">
        <ele>319.3</ele>
        <time>2022-05-24T08:53:52Z</time>
      </trkpt>
      <trkpt lat="44.87063" lon="1.73797">
        <ele>319.3</ele>
        <time>2022-05-24T08:53:53Z</time>
      </trkpt>
      <trkpt lat="44.87066" lon="1.73805">
        <ele>319.3</ele>
        <time>2022-05-24T08:53:54Z</time>
      </trkpt>
      <trkpt lat="44.87069" lon="1.73812">
        <ele>319.4</ele>
        <time>2022-05-24T08:53:55Z</time>
      </trkpt>
      <trkpt lat="44.87072" lon="1.7382">
        <ele>319.4</ele>
        <time>2022-05-24T08:53:56Z</time>
      </trkpt>
      <trkpt lat="44.87075" lon="1.73827">
        <ele>319.4</ele>
        <time>2022-05-24T08:53:57Z</time>
      </trkpt>
      <trkpt lat="44.87077" lon="1.73835">
        <ele>319.5</ele>
        <time>2022-05-24T08:53:58Z</time>
      </trkpt>
      <trkpt lat="44.87079" lon="1.73843">
        <ele>319.5</ele>
        <time>2022-05-24T08:53:59Z</time>
      </trkpt>
      <trkpt lat="44.87081" lon="1.73851">
        <ele>319.6</ele>
        <time>2022-05-24T08:54:00Z</time>
      </trkpt>
      <trkpt lat="44.87083" lon="1.7386">
        <ele>319.6</ele>
        <time>2022-05-24T08:54:01Z</time>
      </trkpt>
      <trkpt lat="44.87084" lon="1.73868">
        <ele>319.7</ele>
        <time>2022-05-24T08:54:02Z</time>
      </trkpt>
      <trkpt lat="44.87085" lon="1.73876">
        <ele>319.7</ele>
        <time>2022-05-24T08:54:03Z</time>
      </trkpt>
      <trkpt lat="44.87084" lon="1.73885">
        <ele>319.8</ele>
        <time>2022-05-24T08:54:04Z</time>
      </trkpt>
      <trkpt lat="44.87084" lon="1.73893">
        <ele>319.8</ele>
        <time>2022-05-24T08:54:05Z</time>
      </trkpt>
      <trkpt lat="44.87084" lon="1.73902">
        <ele>319.8</ele>
        <time>2022-05-24T08:54:06Z</time>
      </trkpt>
      <trkpt lat="44.87083" lon="1.7391">
        <ele>319.8</ele>
        <time>2022-05-24T08:54:07Z</time>
      </trkpt>
      <trkpt lat="44.87083" lon="1.73918">
        <ele>319.8</ele>
        <time>2022-05-24T08:54:08Z</time>
      </trkpt>
      <trkpt lat="44.87084" lon="1.73927">
        <ele>319.8</ele>
        <time>2022-05-24T08:54:09Z</time>
      </trkpt>
      <trkpt lat="44.87085" lon="1.73936">
        <ele>319.8</ele>
        <time>2022-05-24T08:54:10Z</time>
      </trkpt>
      <trkpt lat="44.87086" lon="1.73946">
        <ele>319.8</ele>
        <time>2022-05-24T08:54:11Z</time>
      </trkpt>
      <trkpt lat="44.87087" lon="1.73956">
        <ele>319.8</ele>
        <time>2022-05-24T08:54:12Z</time>
      </trkpt>
      <trkpt lat="44.87089" lon="1.73964">
        <ele>319.8</ele>
        <time>2022-05-24T08:54:13Z</time>
      </trkpt>
      <trkpt lat="44.87091" lon="1.73973">
        <ele>319.9</ele>
        <time>2022-05-24T08:54:14Z</time>
      </trkpt>
      <trkpt lat="44.87093" lon="1.73981">
        <ele>319.9</ele>
        <time>2022-05-24T08:54:15Z</time>
      </trkpt>
      <trkpt lat="44.87094" lon="1.73991">
        <ele>319.9</ele>
        <time>2022-05-24T08:54:16Z</time>
      </trkpt>
      <trkpt lat="44.87096" lon="1.73999">
        <ele>319.9</ele>
        <time>2022-05-24T08:54:17Z</time>
      </trkpt>
      <trkpt lat="44.87098" lon="1.74007">
        <ele>320</ele>
        <time>2022-05-24T08:54:18Z</time>
      </trkpt>
      <trkpt lat="44.87101" lon="1.74015">
        <ele>320.1</ele>
        <time>2022-05-24T08:54:19Z</time>
      </trkpt>
      <trkpt lat="44.87103" lon="1.74023">
        <ele>320.1</ele>
        <time>2022-05-24T08:54:20Z</time>
      </trkpt>
      <trkpt lat="44.87104" lon="1.7403">
        <ele>320.2</ele>
        <time>2022-05-24T08:54:21Z</time>
      </trkpt>
      <trkpt lat="44.87104" lon="1.74036">
        <ele>320.2</ele>
        <time>2022-05-24T08:54:22Z</time>
      </trkpt>
      <trkpt lat="44.87106" lon="1.7404">
        <ele>320.2</ele>
        <time>2022-05-24T08:54:23Z</time>
      </trkpt>
      <trkpt lat="44.87108" lon="1.74046">
        <ele>320.2</ele>
        <time>2022-05-24T08:54:24Z</time>
      </trkpt>
      <trkpt lat="44.8711" lon="1.74053">
        <ele>320.2</ele>
        <time>2022-05-24T08:54:25Z</time>
      </trkpt>
      <trkpt lat="44.87111" lon="1.74062">
        <ele>319.9</ele>
        <time>2022-05-24T08:54:26Z</time>
      </trkpt>
      <trkpt lat="44.8711" lon="1.7407">
        <ele>319.7</ele>
        <time>2022-05-24T08:54:27Z</time>
      </trkpt>
      <trkpt lat="44.87107" lon="1.74078">
        <ele>319.6</ele>
        <time>2022-05-24T08:54:28Z</time>
      </trkpt>
      <trkpt lat="44.87104" lon="1.74084">
        <ele>319.5</ele>
        <time>2022-05-24T08:54:29Z</time>
      </trkpt>
      <trkpt lat="44.87102" lon="1.74089">
        <ele>319.4</ele>
        <time>2022-05-24T08:54:30Z</time>
      </trkpt>
      <trkpt lat="44.87098" lon="1.74095">
        <ele>319.2</ele>
        <time>2022-05-24T08:54:31Z</time>
      </trkpt>
      <trkpt lat="44.87095" lon="1.74103">
        <ele>319.1</ele>
        <time>2022-05-24T08:54:32Z</time>
      </trkpt>
      <trkpt lat="44.87092" lon="1.74109">
        <ele>318.9</ele>
        <time>2022-05-24T08:54:33Z</time>
      </trkpt>
      <trkpt lat="44.87088" lon="1.74116">
        <ele>318.8</ele>
        <time>2022-05-24T08:54:34Z</time>
      </trkpt>
      <trkpt lat="44.87084" lon="1.74122">
        <ele>318.6</ele>
        <time>2022-05-24T08:54:35Z</time>
      </trkpt>
      <trkpt lat="44.87079" lon="1.74127">
        <ele>318.5</ele>
        <time>2022-05-24T08:54:36Z</time>
      </trkpt>
      <trkpt lat="44.87074" lon="1.74132">
        <ele>318.4</ele>
        <time>2022-05-24T08:54:37Z</time>
      </trkpt>
      <trkpt lat="44.8707" lon="1.74139">
        <ele>318.3</ele>
        <time>2022-05-24T08:54:38Z</time>
      </trkpt>
      <trkpt lat="44.87067" lon="1.74145">
        <ele>318.2</ele>
        <time>2022-05-24T08:54:39Z</time>
      </trkpt>
      <trkpt lat="44.87065" lon="1.74153">
        <ele>318.1</ele>
        <time>2022-05-24T08:54:40Z</time>
      </trkpt>
      <trkpt lat="44.87062" lon="1.7416">
        <ele>318</ele>
        <time>2022-05-24T08:54:41Z</time>
      </trkpt>
      <trkpt lat="44.87058" lon="1.74167">
        <ele>317.9</ele>
        <time>2022-05-24T08:54:42Z</time>
      </trkpt>
      <trkpt lat="44.87055" lon="1.74173">
        <ele>317.8</ele>
        <time>2022-05-24T08:54:43Z</time>
      </trkpt>
      <trkpt lat="44.87052" lon="1.7418">
        <ele>317.8</ele>
        <time>2022-05-24T08:54:44Z</time>
      </trkpt>
      <trkpt lat="44.87051" lon="1.74186">
        <ele>317.7</ele>
        <time>2022-05-24T08:54:45Z</time>
      </trkpt>
      <trkpt lat="44.87052" lon="1.74191">
        <ele>317.6</ele>
        <time>2022-05-24T08:54:46Z</time>
      </trkpt>
      <trkpt lat="44.87054" lon="1.74196">
        <ele>317.6</ele>
        <time>2022-05-24T08:54:47Z</time>
      </trkpt>
      <trkpt lat="44.87057" lon="1.74199">
        <ele>317.6</ele>
        <time>2022-05-24T08:54:48Z</time>
      </trkpt>
      <trkpt lat="44.87059" lon="1.74201">
        <ele>317.5</ele>
        <time>2022-05-24T08:54:49Z</time>
      </trkpt>
      <trkpt lat="44.87062" lon="1.74204">
        <ele>317.5</ele>
        <time>2022-05-24T08:54:50Z</time>
      </trkpt>
      <trkpt lat="44.87063" lon="1.74205">
        <ele>317.5</ele>
        <time>2022-05-24T08:54:51Z</time>
      </trkpt>
      <trkpt lat="44.87065" lon="1.74206">
        <ele>317.5</ele>
        <time>2022-05-24T08:54:52Z</time>
      </trkpt>
      <trkpt lat="44.87066" lon="1.74206">
        <ele>317.5</ele>
        <time>2022-05-24T08:54:53Z</time>
      </trkpt>
      <trkpt lat="44.87067" lon="1.74207">
        <ele>317.4</ele>
        <time>2022-05-24T08:54:54Z</time>
      </trkpt>
      <trkpt lat="44.8707" lon="1.74208">
        <ele>317.4</ele>
        <time>2022-05-24T08:54:55Z</time>
      </trkpt>
      <trkpt lat="44.87073" lon="1.7421">
        <ele>317.4</ele>
        <time>2022-05-24T08:54:56Z</time>
      </trkpt>
      <trkpt lat="44.87076" lon="1.74212">
        <ele>317.4</ele>
        <time>2022-05-24T08:54:57Z</time>
      </trkpt>
      <trkpt lat="44.87079" lon="1.74214">
        <ele>317.3</ele>
        <time>2022-05-24T08:54:58Z</time>
      </trkpt>
      <trkpt lat="44.87082" lon="1.74217">
        <ele>317.3</ele>
        <time>2022-05-24T08:54:59Z</time>
      </trkpt>
      <trkpt lat="44.87086" lon="1.74219">
        <ele>317.3</ele>
        <time>2022-05-24T08:55:00Z</time>
      </trkpt>
      <trkpt lat="44.8709" lon="1.74222">
        <ele>317.3</ele>
        <time>2022-05-24T08:55:01Z</time>
      </trkpt>
      <trkpt lat="44.87093" lon="1.74225">
        <ele>317.3</ele>
        <time>2022-05-24T08:55:02Z</time>
      </trkpt>
      <trkpt lat="44.87097" lon="1.74227">
        <ele>317.2</ele>
        <time>2022-05-24T08:55:03Z</time>
      </trkpt>
      <trkpt lat="44.87101" lon="1.7423">
        <ele>317.1</ele>
        <time>2022-05-24T08:55:04Z</time>
      </trkpt>
      <trkpt lat="44.87105" lon="1.74233">
        <ele>317</ele>
        <time>2022-05-24T08:55:05Z</time>
      </trkpt>
      <trkpt lat="44.87109" lon="1.74236">
        <ele>317</ele>
        <time>2022-05-24T08:55:06Z</time>
      </trkpt>
      <trkpt lat="44.87112" lon="1.7424">
        <ele>316.9</ele>
        <time>2022-05-24T08:55:07Z</time>
      </trkpt>
      <trkpt lat="44.87116" lon="1.74244">
        <ele>316.9</ele>
        <time>2022-05-24T08:55:08Z</time>
      </trkpt>
      <trkpt lat="44.87118" lon="1.7425">
        <ele>316.9</ele>
        <time>2022-05-24T08:55:09Z</time>
      </trkpt>
      <trkpt lat="44.8712" lon="1.74255">
        <ele>316.9</ele>
        <time>2022-05-24T08:55:10Z</time>
      </trkpt>
      <trkpt lat="44.87121" lon="1.74261">
        <ele>316.9</ele>
        <time>2022-05-24T08:55:11Z</time>
      </trkpt>
      <trkpt lat="44.8712" lon="1.74266">
        <ele>316.9</ele>
        <time>2022-05-24T08:55:12Z</time>
      </trkpt>
      <trkpt lat="44.87119" lon="1.74272">
        <ele>316.9</ele>
        <time>2022-05-24T08:55:13Z</time>
      </trkpt>
      <trkpt lat="44.87117" lon="1.74276">
        <ele>316.9</ele>
        <time>2022-05-24T08:55:14Z</time>
      </trkpt>
      <trkpt lat="44.87114" lon="1.74281">
        <ele>316.9</ele>
        <time>2022-05-24T08:55:15Z</time>
      </trkpt>
      <trkpt lat="44.8711" lon="1.74284">
        <ele>316.9</ele>
        <time>2022-05-24T08:55:16Z</time>
      </trkpt>
      <trkpt lat="44.87107" lon="1.74288">
        <ele>317</ele>
        <time>2022-05-24T08:55:17Z</time>
      </trkpt>
      <trkpt lat="44.87103" lon="1.74292">
        <ele>317.1</ele>
        <time>2022-05-24T08:55:18Z</time>
      </trkpt>
      <trkpt lat="44.87099" lon="1.74297">
        <ele>317.1</ele>
        <time>2022-05-24T08:55:19Z</time>
      </trkpt>
      <trkpt lat="44.87096" lon="1.74302">
        <ele>317.2</ele>
        <time>2022-05-24T08:55:20Z</time>
      </trkpt>
      <trkpt lat="44.87094" lon="1.74307">
        <ele>317.3</ele>
        <time>2022-05-24T08:55:21Z</time>
      </trkpt>
      <trkpt lat="44.87091" lon="1.74312">
        <ele>317.5</ele>
        <time>2022-05-24T08:55:22Z</time>
      </trkpt>
      <trkpt lat="44.87088" lon="1.74317">
        <ele>317.6</ele>
        <time>2022-05-24T08:55:23Z</time>
      </trkpt>
      <trkpt lat="44.87086" lon="1.74324">
        <ele>317.8</ele>
        <time>2022-05-24T08:55:24Z</time>
      </trkpt>
      <trkpt lat="44.87084" lon="1.7433">
        <ele>317.9</ele>
        <time>2022-05-24T08:55:25Z</time>
      </trkpt>
      <trkpt lat="44.87082" lon="1.74335">
        <ele>318.1</ele>
        <time>2022-05-24T08:55:26Z</time>
      </trkpt>
      <trkpt lat="44.87081" lon="1.7434">
        <ele>318.2</ele>
        <time>2022-05-24T08:55:27Z</time>
      </trkpt>
      <trkpt lat="44.8708" lon="1.74346">
        <ele>318.3</ele>
        <time>2022-05-24T08:55:28Z</time>
      </trkpt>
      <trkpt lat="44.87078" lon="1.74351">
        <ele>318.5</ele>
        <time>2022-05-24T08:55:29Z</time>
      </trkpt>
      <trkpt lat="44.87077" lon="1.74356">
        <ele>318.6</ele>
        <time>2022-05-24T08:55:30Z</time>
      </trkpt>
      <trkpt lat="44.87077" lon="1.74362">
        <ele>318.7</ele>
        <time>2022-05-24T08:55:31Z</time>
      </trkpt>
      <trkpt lat="44.87077" lon="1.74367">
        <ele>318.9</ele>
        <time>2022-05-24T08:55:32Z</time>
      </trkpt>
      <trkpt lat="44.87078" lon="1.74372">
        <ele>319</ele>
        <time>2022-05-24T08:55:33Z</time>
      </trkpt>
      <trkpt lat="44.87078" lon="1.74378">
        <ele>319.2</ele>
        <time>2022-05-24T08:55:34Z</time>
      </trkpt>
      <trkpt lat="44.87078" lon="1.74384">
        <ele>319.4</ele>
        <time>2022-05-24T08:55:35Z</time>
      </trkpt>
      <trkpt lat="44.87077" lon="1.7439">
        <ele>319.6</ele>
        <time>2022-05-24T08:55:36Z</time>
      </trkpt>
      <trkpt lat="44.87076" lon="1.74395">
        <ele>319.8</ele>
        <time>2022-05-24T08:55:37Z</time>
      </trkpt>
      <trkpt lat="44.87076" lon="1.74401">
        <ele>320</ele>
        <time>2022-05-24T08:55:38Z</time>
      </trkpt>
      <trkpt lat="44.87075" lon="1.74406">
        <ele>320.2</ele>
        <time>2022-05-24T08:55:39Z</time>
      </trkpt>
      <trkpt lat="44.87073" lon="1.74411">
        <ele>320.4</ele>
        <time>2022-05-24T08:55:40Z</time>
      </trkpt>
      <trkpt lat="44.87072" lon="1.74416">
        <ele>320.6</ele>
        <time>2022-05-24T08:55:41Z</time>
      </trkpt>
      <trkpt lat="44.87071" lon="1.7442">
        <ele>320.8</ele>
        <time>2022-05-24T08:55:42Z</time>
      </trkpt>
      <trkpt lat="44.87069" lon="1.74424">
        <ele>321</ele>
        <time>2022-05-24T08:55:43Z</time>
      </trkpt>
      <trkpt lat="44.87067" lon="1.74429">
        <ele>321.2</ele>
        <time>2022-05-24T08:55:44Z</time>
      </trkpt>
      <trkpt lat="44.87065" lon="1.74433">
        <ele>321.3</ele>
        <time>2022-05-24T08:55:45Z</time>
      </trkpt>
      <trkpt lat="44.87062" lon="1.74437">
        <ele>321.5</ele>
        <time>2022-05-24T08:55:46Z</time>
      </trkpt>
      <trkpt lat="44.8706" lon="1.74442">
        <ele>321.7</ele>
        <time>2022-05-24T08:55:47Z</time>
      </trkpt>
      <trkpt lat="44.87057" lon="1.74447">
        <ele>321.9</ele>
        <time>2022-05-24T08:55:48Z</time>
      </trkpt>
      <trkpt lat="44.87054" lon="1.74452">
        <ele>322</ele>
        <time>2022-05-24T08:55:49Z</time>
      </trkpt>
      <trkpt lat="44.87052" lon="1.74456">
        <ele>322.2</ele>
        <time>2022-05-24T08:55:50Z</time>
      </trkpt>
      <trkpt lat="44.8705" lon="1.74461">
        <ele>322.4</ele>
        <time>2022-05-24T08:55:51Z</time>
      </trkpt>
      <trkpt lat="44.87047" lon="1.74465">
        <ele>322.5</ele>
        <time>2022-05-24T08:55:52Z</time>
      </trkpt>
      <trkpt lat="44.87044" lon="1.7447">
        <ele>322.7</ele>
        <time>2022-05-24T08:55:53Z</time>
      </trkpt>
      <trkpt lat="44.87041" lon="1.74476">
        <ele>322.8</ele>
        <time>2022-05-24T08:55:54Z</time>
      </trkpt>
      <trkpt lat="44.87038" lon="1.74481">
        <ele>323</ele>
        <time>2022-05-24T08:55:55Z</time>
      </trkpt>
      <trkpt lat="44.87034" lon="1.74487">
        <ele>323.1</ele>
        <time>2022-05-24T08:55:56Z</time>
      </trkpt>
      <trkpt lat="44.87032" lon="1.74493">
        <ele>323.2</ele>
        <time>2022-05-24T08:55:57Z</time>
      </trkpt>
      <trkpt lat="44.8703" lon="1.74498">
        <ele>323.2</ele>
        <time>2022-05-24T08:55:58Z</time>
      </trkpt>
      <trkpt lat="44.87027" lon="1.74504">
        <ele>323.3</ele>
        <time>2022-05-24T08:55:59Z</time>
      </trkpt>
      <trkpt lat="44.87024" lon="1.7451">
        <ele>323.3</ele>
        <time>2022-05-24T08:56:00Z</time>
      </trkpt>
      <trkpt lat="44.87021" lon="1.74516">
        <ele>323.3</ele>
        <time>2022-05-24T08:56:01Z</time>
      </trkpt>
      <trkpt lat="44.87018" lon="1.74522">
        <ele>323.4</ele>
        <time>2022-05-24T08:56:02Z</time>
      </trkpt>
      <trkpt lat="44.87016" lon="1.74528">
        <ele>323.4</ele>
        <time>2022-05-24T08:56:03Z</time>
      </trkpt>
      <trkpt lat="44.87014" lon="1.74534">
        <ele>323.4</ele>
        <time>2022-05-24T08:56:04Z</time>
      </trkpt>
      <trkpt lat="44.87012" lon="1.7454">
        <ele>323.5</ele>
        <time>2022-05-24T08:56:05Z</time>
      </trkpt>
      <trkpt lat="44.87011" lon="1.74546">
        <ele>323.5</ele>
        <time>2022-05-24T08:56:06Z</time>
      </trkpt>
      <trkpt lat="44.87009" lon="1.74551">
        <ele>323.6</ele>
        <time>2022-05-24T08:56:07Z</time>
      </trkpt>
      <trkpt lat="44.87008" lon="1.74556">
        <ele>323.7</ele>
        <time>2022-05-24T08:56:08Z</time>
      </trkpt>
      <trkpt lat="44.87006" lon="1.74561">
        <ele>323.8</ele>
        <time>2022-05-24T08:56:09Z</time>
      </trkpt>
      <trkpt lat="44.87005" lon="1.74567">
        <ele>323.8</ele>
        <time>2022-05-24T08:56:10Z</time>
      </trkpt>
      <trkpt lat="44.87002" lon="1.74572">
        <ele>324</ele>
        <time>2022-05-24T08:56:11Z</time>
      </trkpt>
      <trkpt lat="44.87001" lon="1.74578">
        <ele>324.1</ele>
        <time>2022-05-24T08:56:12Z</time>
      </trkpt>
      <trkpt lat="44.86998" lon="1.74583">
        <ele>324.2</ele>
        <time>2022-05-24T08:56:13Z</time>
      </trkpt>
      <trkpt lat="44.86995" lon="1.74588">
        <ele>324.3</ele>
        <time>2022-05-24T08:56:14Z</time>
      </trkpt>
      <trkpt lat="44.86992" lon="1.74593">
        <ele>324.5</ele>
        <time>2022-05-24T08:56:15Z</time>
      </trkpt>
      <trkpt lat="44.8699" lon="1.74599">
        <ele>324.6</ele>
        <time>2022-05-24T08:56:16Z</time>
      </trkpt>
      <trkpt lat="44.86987" lon="1.74604">
        <ele>324.7</ele>
        <time>2022-05-24T08:56:17Z</time>
      </trkpt>
      <trkpt lat="44.86984" lon="1.74609">
        <ele>324.8</ele>
        <time>2022-05-24T08:56:18Z</time>
      </trkpt>
      <trkpt lat="44.8698" lon="1.74615">
        <ele>324.9</ele>
        <time>2022-05-24T08:56:19Z</time>
      </trkpt>
      <trkpt lat="44.86977" lon="1.7462">
        <ele>325</ele>
        <time>2022-05-24T08:56:20Z</time>
      </trkpt>
      <trkpt lat="44.86974" lon="1.74626">
        <ele>325.1</ele>
        <time>2022-05-24T08:56:21Z</time>
      </trkpt>
      <trkpt lat="44.86971" lon="1.74631">
        <ele>325.2</ele>
        <time>2022-05-24T08:56:22Z</time>
      </trkpt>
      <trkpt lat="44.86968" lon="1.74635">
        <ele>325.3</ele>
        <time>2022-05-24T08:56:23Z</time>
      </trkpt>
      <trkpt lat="44.86964" lon="1.7464">
        <ele>325.4</ele>
        <time>2022-05-24T08:56:24Z</time>
      </trkpt>
      <trkpt lat="44.8696" lon="1.74644">
        <ele>325.4</ele>
        <time>2022-05-24T08:56:25Z</time>
      </trkpt>
      <trkpt lat="44.86958" lon="1.74649">
        <ele>325.5</ele>
        <time>2022-05-24T08:56:26Z</time>
      </trkpt>
      <trkpt lat="44.86956" lon="1.74655">
        <ele>325.6</ele>
        <time>2022-05-24T08:56:27Z</time>
      </trkpt>
      <trkpt lat="44.86952" lon="1.74661">
        <ele>325.7</ele>
        <time>2022-05-24T08:56:28Z</time>
      </trkpt>
      <trkpt lat="44.86949" lon="1.74667">
        <ele>325.8</ele>
        <time>2022-05-24T08:56:29Z</time>
      </trkpt>
      <trkpt lat="44.86945" lon="1.74671">
        <ele>325.8</ele>
        <time>2022-05-24T08:56:30Z</time>
      </trkpt>
      <trkpt lat="44.86943" lon="1.74676">
        <ele>325.9</ele>
        <time>2022-05-24T08:56:31Z</time>
      </trkpt>
      <trkpt lat="44.86939" lon="1.7468">
        <ele>326</ele>
        <time>2022-05-24T08:56:32Z</time>
      </trkpt>
      <trkpt lat="44.86936" lon="1.74685">
        <ele>326.1</ele>
        <time>2022-05-24T08:56:33Z</time>
      </trkpt>
      <trkpt lat="44.86933" lon="1.74691">
        <ele>326.2</ele>
        <time>2022-05-24T08:56:34Z</time>
      </trkpt>
      <trkpt lat="44.86929" lon="1.74697">
        <ele>326.4</ele>
        <time>2022-05-24T08:56:35Z</time>
      </trkpt>
      <trkpt lat="44.86926" lon="1.74702">
        <ele>326.6</ele>
        <time>2022-05-24T08:56:36Z</time>
      </trkpt>
      <trkpt lat="44.86922" lon="1.74707">
        <ele>326.8</ele>
        <time>2022-05-24T08:56:37Z</time>
      </trkpt>
      <trkpt lat="44.8692" lon="1.74713">
        <ele>326.9</ele>
        <time>2022-05-24T08:56:38Z</time>
      </trkpt>
      <trkpt lat="44.86919" lon="1.74718">
        <ele>327</ele>
        <time>2022-05-24T08:56:39Z</time>
      </trkpt>
      <trkpt lat="44.86917" lon="1.74723">
        <ele>327.1</ele>
        <time>2022-05-24T08:56:40Z</time>
      </trkpt>
      <trkpt lat="44.86914" lon="1.74728">
        <ele>327.3</ele>
        <time>2022-05-24T08:56:41Z</time>
      </trkpt>
      <trkpt lat="44.8691" lon="1.74733">
        <ele>327.4</ele>
        <time>2022-05-24T08:56:42Z</time>
      </trkpt>
      <trkpt lat="44.86907" lon="1.74738">
        <ele>327.5</ele>
        <time>2022-05-24T08:56:43Z</time>
      </trkpt>
      <trkpt lat="44.86905" lon="1.74744">
        <ele>327.7</ele>
        <time>2022-05-24T08:56:44Z</time>
      </trkpt>
      <trkpt lat="44.86903" lon="1.74749">
        <ele>327.8</ele>
        <time>2022-05-24T08:56:45Z</time>
      </trkpt>
      <trkpt lat="44.86902" lon="1.74754">
        <ele>327.9</ele>
        <time>2022-05-24T08:56:46Z</time>
      </trkpt>
      <trkpt lat="44.869" lon="1.74759">
        <ele>328</ele>
        <time>2022-05-24T08:56:47Z</time>
      </trkpt>
      <trkpt lat="44.86897" lon="1.74763">
        <ele>328.1</ele>
        <time>2022-05-24T08:56:48Z</time>
      </trkpt>
      <trkpt lat="44.86896" lon="1.74768">
        <ele>328.2</ele>
        <time>2022-05-24T08:56:49Z</time>
      </trkpt>
      <trkpt lat="44.86894" lon="1.74774">
        <ele>328.4</ele>
        <time>2022-05-24T08:56:50Z</time>
      </trkpt>
      <trkpt lat="44.86892" lon="1.74779">
        <ele>328.5</ele>
        <time>2022-05-24T08:56:51Z</time>
      </trkpt>
      <trkpt lat="44.86891" lon="1.74784">
        <ele>328.6</ele>
        <time>2022-05-24T08:56:52Z</time>
      </trkpt>
      <trkpt lat="44.8689" lon="1.74789">
        <ele>328.7</ele>
        <time>2022-05-24T08:56:53Z</time>
      </trkpt>
      <trkpt lat="44.86889" lon="1.74793">
        <ele>328.8</ele>
        <time>2022-05-24T08:56:54Z</time>
      </trkpt>
      <trkpt lat="44.86889" lon="1.74797">
        <ele>329</ele>
        <time>2022-05-24T08:56:55Z</time>
      </trkpt>
      <trkpt lat="44.86889" lon="1.74799">
        <ele>329</ele>
        <time>2022-05-24T08:56:56Z</time>
      </trkpt>
      <trkpt lat="44.86888" lon="1.74803">
        <ele>329.1</ele>
        <time>2022-05-24T08:56:57Z</time>
      </trkpt>
      <trkpt lat="44.86887" lon="1.74807">
        <ele>329.2</ele>
        <time>2022-05-24T08:56:58Z</time>
      </trkpt>
      <trkpt lat="44.86886" lon="1.74811">
        <ele>329.4</ele>
        <time>2022-05-24T08:56:59Z</time>
      </trkpt>
      <trkpt lat="44.86885" lon="1.74815">
        <ele>329.6</ele>
        <time>2022-05-24T08:57:00Z</time>
      </trkpt>
      <trkpt lat="44.86883" lon="1.74818">
        <ele>329.7</ele>
        <time>2022-05-24T08:57:01Z</time>
      </trkpt>
      <trkpt lat="44.86882" lon="1.74822">
        <ele>329.9</ele>
        <time>2022-05-24T08:57:02Z</time>
      </trkpt>
      <trkpt lat="44.86881" lon="1.74826">
        <ele>330.1</ele>
        <time>2022-05-24T08:57:03Z</time>
      </trkpt>
      <trkpt lat="44.86881" lon="1.7483">
        <ele>330.2</ele>
        <time>2022-05-24T08:57:04Z</time>
      </trkpt>
      <trkpt lat="44.8688" lon="1.74834">
        <ele>330.4</ele>
        <time>2022-05-24T08:57:05Z</time>
      </trkpt>
      <trkpt lat="44.86878" lon="1.74837">
        <ele>330.6</ele>
        <time>2022-05-24T08:57:06Z</time>
      </trkpt>
      <trkpt lat="44.86877" lon="1.74841">
        <ele>330.8</ele>
        <time>2022-05-24T08:57:07Z</time>
      </trkpt>
      <trkpt lat="44.86875" lon="1.74844">
        <ele>331</ele>
        <time>2022-05-24T08:57:08Z</time>
      </trkpt>
      <trkpt lat="44.86872" lon="1.74848">
        <ele>331.2</ele>
        <time>2022-05-24T08:57:09Z</time>
      </trkpt>
      <trkpt lat="44.8687" lon="1.74851">
        <ele>331.4</ele>
        <time>2022-05-24T08:57:10Z</time>
      </trkpt>
      <trkpt lat="44.86867" lon="1.74854">
        <ele>331.7</ele>
        <time>2022-05-24T08:57:11Z</time>
      </trkpt>
      <trkpt lat="44.86865" lon="1.74857">
        <ele>331.9</ele>
        <time>2022-05-24T08:57:12Z</time>
      </trkpt>
      <trkpt lat="44.86863" lon="1.7486">
        <ele>332.1</ele>
        <time>2022-05-24T08:57:13Z</time>
      </trkpt>
      <trkpt lat="44.86861" lon="1.74862">
        <ele>332.4</ele>
        <time>2022-05-24T08:57:14Z</time>
      </trkpt>
      <trkpt lat="44.86858" lon="1.74866">
        <ele>332.7</ele>
        <time>2022-05-24T08:57:15Z</time>
      </trkpt>
      <trkpt lat="44.86858" lon="1.74867">
        <ele>332.8</ele>
        <time>2022-05-24T08:57:16Z</time>
      </trkpt>
      <trkpt lat="44.86855" lon="1.7487">
        <ele>333.1</ele>
        <time>2022-05-24T08:57:17Z</time>
      </trkpt>
      <trkpt lat="44.86852" lon="1.74871">
        <ele>333.5</ele>
        <time>2022-05-24T08:57:18Z</time>
      </trkpt>
      <trkpt lat="44.86849" lon="1.74871">
        <ele>333.8</ele>
        <time>2022-05-24T08:57:19Z</time>
      </trkpt>
      <trkpt lat="44.86845" lon="1.74871">
        <ele>333.3</ele>
        <time>2022-05-24T08:57:20Z</time>
      </trkpt>
      <trkpt lat="44.86842" lon="1.7487">
        <ele>332.9</ele>
        <time>2022-05-24T08:57:21Z</time>
      </trkpt>
      <trkpt lat="44.86838" lon="1.74869">
        <ele>331.9</ele>
        <time>2022-05-24T08:57:22Z</time>
      </trkpt>
      <trkpt lat="44.86834" lon="1.74868">
        <ele>331.4</ele>
        <time>2022-05-24T08:57:23Z</time>
      </trkpt>
      <trkpt lat="44.86831" lon="1.74867">
        <ele>331</ele>
        <time>2022-05-24T08:57:24Z</time>
      </trkpt>
      <trkpt lat="44.86826" lon="1.74866">
        <ele>329.9</ele>
        <time>2022-05-24T08:57:25Z</time>
      </trkpt>
      <trkpt lat="44.86822" lon="1.74866">
        <ele>329.4</ele>
        <time>2022-05-24T08:57:26Z</time>
      </trkpt>
      <trkpt lat="44.86818" lon="1.74865">
        <ele>329</ele>
        <time>2022-05-24T08:57:27Z</time>
      </trkpt>
      <trkpt lat="44.86814" lon="1.74865">
        <ele>327.6</ele>
        <time>2022-05-24T08:57:28Z</time>
      </trkpt>
      <trkpt lat="44.8681" lon="1.74861">
        <ele>327.2</ele>
        <time>2022-05-24T08:57:29Z</time>
      </trkpt>
      <trkpt lat="44.86806" lon="1.74855">
        <ele>326.8</ele>
        <time>2022-05-24T08:57:30Z</time>
      </trkpt>
      <trkpt lat="44.86803" lon="1.74849">
        <ele>326.4</ele>
        <time>2022-05-24T08:57:31Z</time>
      </trkpt>
      <trkpt lat="44.868" lon="1.74842">
        <ele>326</ele>
        <time>2022-05-24T08:57:32Z</time>
      </trkpt>
      <trkpt lat="44.86797" lon="1.74836">
        <ele>325.5</ele>
        <time>2022-05-24T08:57:33Z</time>
      </trkpt>
      <trkpt lat="44.86787" lon="1.74811">
        <ele>324.1</ele>
        <time>2022-05-24T08:57:38Z</time>
      </trkpt>
      <trkpt lat="44.86781" lon="1.74796">
        <ele>323.3</ele>
        <time>2022-05-24T08:57:39Z</time>
      </trkpt>
      <trkpt lat="44.86775" lon="1.74781">
        <ele>322.6</ele>
        <time>2022-05-24T08:57:40Z</time>
      </trkpt>
      <trkpt lat="44.86771" lon="1.74771">
        <ele>322.3</ele>
        <time>2022-05-24T08:57:41Z</time>
      </trkpt>
      <trkpt lat="44.86767" lon="1.74762">
        <ele>322</ele>
        <time>2022-05-24T08:57:42Z</time>
      </trkpt>
      <trkpt lat="44.86763" lon="1.74754">
        <ele>321.8</ele>
        <time>2022-05-24T08:57:43Z</time>
      </trkpt>
      <trkpt lat="44.8676" lon="1.74747">
        <ele>321.6</ele>
        <time>2022-05-24T08:57:44Z</time>
      </trkpt>
      <trkpt lat="44.86757" lon="1.74739">
        <ele>321.5</ele>
        <time>2022-05-24T08:57:45Z</time>
      </trkpt>
      <trkpt lat="44.86755" lon="1.74732">
        <ele>321.5</ele>
        <time>2022-05-24T08:57:46Z</time>
      </trkpt>
      <trkpt lat="44.86752" lon="1.74724">
        <ele>321.4</ele>
        <time>2022-05-24T08:57:47Z</time>
      </trkpt>
      <trkpt lat="44.86748" lon="1.74717">
        <ele>321.4</ele>
        <time>2022-05-24T08:57:48Z</time>
      </trkpt>
      <trkpt lat="44.86744" lon="1.74709">
        <ele>321.5</ele>
        <time>2022-05-24T08:57:49Z</time>
      </trkpt>
      <trkpt lat="44.86741" lon="1.74701">
        <ele>321.6</ele>
        <time>2022-05-24T08:57:50Z</time>
      </trkpt>
      <trkpt lat="44.86738" lon="1.74693">
        <ele>321.8</ele>
        <time>2022-05-24T08:57:51Z</time>
      </trkpt>
      <trkpt lat="44.86735" lon="1.74685">
        <ele>321.9</ele>
        <time>2022-05-24T08:57:52Z</time>
      </trkpt>
      <trkpt lat="44.86734" lon="1.74675">
        <ele>322.2</ele>
        <time>2022-05-24T08:57:53Z</time>
      </trkpt>
      <trkpt lat="44.86732" lon="1.74668">
        <ele>322.4</ele>
        <time>2022-05-24T08:57:54Z</time>
      </trkpt>
      <trkpt lat="44.86729" lon="1.74661">
        <ele>322.6</ele>
        <time>2022-05-24T08:57:55Z</time>
      </trkpt>
      <trkpt lat="44.86726" lon="1.74654">
        <ele>322.9</ele>
        <time>2022-05-24T08:57:56Z</time>
      </trkpt>
      <trkpt lat="44.86723" lon="1.74647">
        <ele>323.1</ele>
        <time>2022-05-24T08:57:57Z</time>
      </trkpt>
      <trkpt lat="44.8672" lon="1.7464">
        <ele>323.3</ele>
        <time>2022-05-24T08:57:58Z</time>
      </trkpt>
      <trkpt lat="44.86717" lon="1.74634">
        <ele>323.6</ele>
        <time>2022-05-24T08:57:59Z</time>
      </trkpt>
      <trkpt lat="44.86714" lon="1.74628">
        <ele>323.9</ele>
        <time>2022-05-24T08:58:00Z</time>
      </trkpt>
      <trkpt lat="44.86712" lon="1.74623">
        <ele>324.1</ele>
        <time>2022-05-24T08:58:01Z</time>
      </trkpt>
      <trkpt lat="44.86709" lon="1.74618">
        <ele>324.4</ele>
        <time>2022-05-24T08:58:02Z</time>
      </trkpt>
      <trkpt lat="44.86707" lon="1.74612">
        <ele>324.6</ele>
        <time>2022-05-24T08:58:03Z</time>
      </trkpt>
      <trkpt lat="44.86704" lon="1.74606">
        <ele>324.9</ele>
        <time>2022-05-24T08:58:04Z</time>
      </trkpt>
      <trkpt lat="44.86702" lon="1.74599">
        <ele>325.2</ele>
        <time>2022-05-24T08:58:05Z</time>
      </trkpt>
      <trkpt lat="44.867" lon="1.74594">
        <ele>325.5</ele>
        <time>2022-05-24T08:58:06Z</time>
      </trkpt>
      <trkpt lat="44.86697" lon="1.74589">
        <ele>325.8</ele>
        <time>2022-05-24T08:58:07Z</time>
      </trkpt>
      <trkpt lat="44.86693" lon="1.74581">
        <ele>326.3</ele>
        <time>2022-05-24T08:58:08Z</time>
      </trkpt>
      <trkpt lat="44.86691" lon="1.74574">
        <ele>326.7</ele>
        <time>2022-05-24T08:58:09Z</time>
      </trkpt>
      <trkpt lat="44.86689" lon="1.74569">
        <ele>327</ele>
        <time>2022-05-24T08:58:10Z</time>
      </trkpt>
      <trkpt lat="44.86688" lon="1.74563">
        <ele>327.3</ele>
        <time>2022-05-24T08:58:11Z</time>
      </trkpt>
      <trkpt lat="44.86686" lon="1.74559">
        <ele>327.6</ele>
        <time>2022-05-24T08:58:12Z</time>
      </trkpt>
      <trkpt lat="44.86684" lon="1.74554">
        <ele>327.9</ele>
        <time>2022-05-24T08:58:13Z</time>
      </trkpt>
      <trkpt lat="44.86681" lon="1.74551">
        <ele>328.2</ele>
        <time>2022-05-24T08:58:14Z</time>
      </trkpt>
      <trkpt lat="44.86679" lon="1.74547">
        <ele>328.4</ele>
        <time>2022-05-24T08:58:15Z</time>
      </trkpt>
      <trkpt lat="44.86677" lon="1.74543">
        <ele>328.7</ele>
        <time>2022-05-24T08:58:16Z</time>
      </trkpt>
      <trkpt lat="44.86675" lon="1.74539">
        <ele>329</ele>
        <time>2022-05-24T08:58:17Z</time>
      </trkpt>
      <trkpt lat="44.86672" lon="1.74535">
        <ele>329.5</ele>
        <time>2022-05-24T08:58:18Z</time>
      </trkpt>
      <trkpt lat="44.86667" lon="1.74527">
        <ele>330.2</ele>
        <time>2022-05-24T08:58:20Z</time>
      </trkpt>
      <trkpt lat="44.86665" lon="1.74523">
        <ele>330.5</ele>
        <time>2022-05-24T08:58:21Z</time>
      </trkpt>
      <trkpt lat="44.86663" lon="1.7452">
        <ele>330.8</ele>
        <time>2022-05-24T08:58:22Z</time>
      </trkpt>
      <trkpt lat="44.86661" lon="1.74516">
        <ele>331.2</ele>
        <time>2022-05-24T08:58:23Z</time>
      </trkpt>
      <trkpt lat="44.86659" lon="1.74512">
        <ele>331.5</ele>
        <time>2022-05-24T08:58:24Z</time>
      </trkpt>
      <trkpt lat="44.86658" lon="1.74508">
        <ele>331.8</ele>
        <time>2022-05-24T08:58:25Z</time>
      </trkpt>
      <trkpt lat="44.86656" lon="1.74504">
        <ele>332.2</ele>
        <time>2022-05-24T08:58:26Z</time>
      </trkpt>
      <trkpt lat="44.86654" lon="1.745">
        <ele>332.5</ele>
        <time>2022-05-24T08:58:27Z</time>
      </trkpt>
      <trkpt lat="44.86653" lon="1.74496">
        <ele>332.8</ele>
        <time>2022-05-24T08:58:28Z</time>
      </trkpt>
      <trkpt lat="44.86652" lon="1.74492">
        <ele>333.1</ele>
        <time>2022-05-24T08:58:29Z</time>
      </trkpt>
      <trkpt lat="44.86651" lon="1.74488">
        <ele>333.5</ele>
        <time>2022-05-24T08:58:30Z</time>
      </trkpt>
      <trkpt lat="44.86649" lon="1.74483">
        <ele>333.9</ele>
        <time>2022-05-24T08:58:31Z</time>
      </trkpt>
      <trkpt lat="44.86649" lon="1.74481">
        <ele>334</ele>
        <time>2022-05-24T08:58:32Z</time>
      </trkpt>
      <trkpt lat="44.86647" lon="1.74478">
        <ele>334.3</ele>
        <time>2022-05-24T08:58:33Z</time>
      </trkpt>
      <trkpt lat="44.86646" lon="1.74474">
        <ele>334.6</ele>
        <time>2022-05-24T08:58:34Z</time>
      </trkpt>
      <trkpt lat="44.86645" lon="1.7447">
        <ele>334.9</ele>
        <time>2022-05-24T08:58:35Z</time>
      </trkpt>
      <trkpt lat="44.86643" lon="1.74466">
        <ele>335.3</ele>
        <time>2022-05-24T08:58:36Z</time>
      </trkpt>
      <trkpt lat="44.86642" lon="1.74462">
        <ele>335.6</ele>
        <time>2022-05-24T08:58:37Z</time>
      </trkpt>
      <trkpt lat="44.8664" lon="1.74458">
        <ele>335.9</ele>
        <time>2022-05-24T08:58:38Z</time>
      </trkpt>
      <trkpt lat="44.86639" lon="1.74454">
        <ele>336.2</ele>
        <time>2022-05-24T08:58:39Z</time>
      </trkpt>
      <trkpt lat="44.86638" lon="1.7445">
        <ele>336.4</ele>
        <time>2022-05-24T08:58:40Z</time>
      </trkpt>
      <trkpt lat="44.86636" lon="1.74447">
        <ele>336.6</ele>
        <time>2022-05-24T08:58:41Z</time>
      </trkpt>
      <trkpt lat="44.86635" lon="1.74443">
        <ele>336.8</ele>
        <time>2022-05-24T08:58:42Z</time>
      </trkpt>
      <trkpt lat="44.86634" lon="1.74438">
        <ele>337</ele>
        <time>2022-05-24T08:58:43Z</time>
      </trkpt>
      <trkpt lat="44.86633" lon="1.74434">
        <ele>337.2</ele>
        <time>2022-05-24T08:58:44Z</time>
      </trkpt>
      <trkpt lat="44.86633" lon="1.7443">
        <ele>337.3</ele>
        <time>2022-05-24T08:58:45Z</time>
      </trkpt>
      <trkpt lat="44.86632" lon="1.74426">
        <ele>337.4</ele>
        <time>2022-05-24T08:58:46Z</time>
      </trkpt>
      <trkpt lat="44.86631" lon="1.74421">
        <ele>337.6</ele>
        <time>2022-05-24T08:58:47Z</time>
      </trkpt>
      <trkpt lat="44.86629" lon="1.74416">
        <ele>337.6</ele>
        <time>2022-05-24T08:58:48Z</time>
      </trkpt>
      <trkpt lat="44.86628" lon="1.74411">
        <ele>337.7</ele>
        <time>2022-05-24T08:58:49Z</time>
      </trkpt>
      <trkpt lat="44.86626" lon="1.74407">
        <ele>337.8</ele>
        <time>2022-05-24T08:58:50Z</time>
      </trkpt>
      <trkpt lat="44.86624" lon="1.74402">
        <ele>337.8</ele>
        <time>2022-05-24T08:58:51Z</time>
      </trkpt>
      <trkpt lat="44.86622" lon="1.74398">
        <ele>337.8</ele>
        <time>2022-05-24T08:58:52Z</time>
      </trkpt>
      <trkpt lat="44.86621" lon="1.74393">
        <ele>337.8</ele>
        <time>2022-05-24T08:58:53Z</time>
      </trkpt>
      <trkpt lat="44.86618" lon="1.74388">
        <ele>337.8</ele>
        <time>2022-05-24T08:58:54Z</time>
      </trkpt>
      <trkpt lat="44.86615" lon="1.74384">
        <ele>337.8</ele>
        <time>2022-05-24T08:58:55Z</time>
      </trkpt>
      <trkpt lat="44.86612" lon="1.7438">
        <ele>337.7</ele>
        <time>2022-05-24T08:58:56Z</time>
      </trkpt>
      <trkpt lat="44.86608" lon="1.74375">
        <ele>337.6</ele>
        <time>2022-05-24T08:58:57Z</time>
      </trkpt>
      <trkpt lat="44.86604" lon="1.74371">
        <ele>337.5</ele>
        <time>2022-05-24T08:58:58Z</time>
      </trkpt>
      <trkpt lat="44.86601" lon="1.74367">
        <ele>337.4</ele>
        <time>2022-05-24T08:58:59Z</time>
      </trkpt>
      <trkpt lat="44.866" lon="1.74359">
        <ele>337.2</ele>
        <time>2022-05-24T08:59:00Z</time>
      </trkpt>
      <trkpt lat="44.86597" lon="1.74354">
        <ele>337</ele>
        <time>2022-05-24T08:59:01Z</time>
      </trkpt>
      <trkpt lat="44.86594" lon="1.74348">
        <ele>336.7</ele>
        <time>2022-05-24T08:59:02Z</time>
      </trkpt>
      <trkpt lat="44.8659" lon="1.74342">
        <ele>336.5</ele>
        <time>2022-05-24T08:59:03Z</time>
      </trkpt>
      <trkpt lat="44.86587" lon="1.74336">
        <ele>336.2</ele>
        <time>2022-05-24T08:59:04Z</time>
      </trkpt>
      <trkpt lat="44.86583" lon="1.74331">
        <ele>335.9</ele>
        <time>2022-05-24T08:59:05Z</time>
      </trkpt>
      <trkpt lat="44.86579" lon="1.74326">
        <ele>335.7</ele>
        <time>2022-05-24T08:59:06Z</time>
      </trkpt>
      <trkpt lat="44.86575" lon="1.7432">
        <ele>335.4</ele>
        <time>2022-05-24T08:59:07Z</time>
      </trkpt>
      <trkpt lat="44.86572" lon="1.74313">
        <ele>335.1</ele>
        <time>2022-05-24T08:59:08Z</time>
      </trkpt>
      <trkpt lat="44.86568" lon="1.74307">
        <ele>334.7</ele>
        <time>2022-05-24T08:59:09Z</time>
      </trkpt>
      <trkpt lat="44.86564" lon="1.74299">
        <ele>334.3</ele>
        <time>2022-05-24T08:59:10Z</time>
      </trkpt>
      <trkpt lat="44.86559" lon="1.74291">
        <ele>333.8</ele>
        <time>2022-05-24T08:59:11Z</time>
      </trkpt>
      <trkpt lat="44.86555" lon="1.74284">
        <ele>333.4</ele>
        <time>2022-05-24T08:59:12Z</time>
      </trkpt>
      <trkpt lat="44.86549" lon="1.74278">
        <ele>332.9</ele>
        <time>2022-05-24T08:59:13Z</time>
      </trkpt>
      <trkpt lat="44.86544" lon="1.74271">
        <ele>332.3</ele>
        <time>2022-05-24T08:59:14Z</time>
      </trkpt>
      <trkpt lat="44.86539" lon="1.74265">
        <ele>331.8</ele>
        <time>2022-05-24T08:59:15Z</time>
      </trkpt>
      <trkpt lat="44.86534" lon="1.74257">
        <ele>331.3</ele>
        <time>2022-05-24T08:59:16Z</time>
      </trkpt>
      <trkpt lat="44.86529" lon="1.7425">
        <ele>330.8</ele>
        <time>2022-05-24T08:59:17Z</time>
      </trkpt>
      <trkpt lat="44.86527" lon="1.74242">
        <ele>330.4</ele>
        <time>2022-05-24T08:59:18Z</time>
      </trkpt>
      <trkpt lat="44.86528" lon="1.74232">
        <ele>329.9</ele>
        <time>2022-05-24T08:59:19Z</time>
      </trkpt>
      <trkpt lat="44.8653" lon="1.74222">
        <ele>329.4</ele>
        <time>2022-05-24T08:59:20Z</time>
      </trkpt>
      <trkpt lat="44.86532" lon="1.74212">
        <ele>328.9</ele>
        <time>2022-05-24T08:59:21Z</time>
      </trkpt>
      <trkpt lat="44.86534" lon="1.74202">
        <ele>328.5</ele>
        <time>2022-05-24T08:59:22Z</time>
      </trkpt>
      <trkpt lat="44.86536" lon="1.74193">
        <ele>328.1</ele>
        <time>2022-05-24T08:59:23Z</time>
      </trkpt>
      <trkpt lat="44.86538" lon="1.74183">
        <ele>327.7</ele>
        <time>2022-05-24T08:59:24Z</time>
      </trkpt>
      <trkpt lat="44.8654" lon="1.74172">
        <ele>327.4</ele>
        <time>2022-05-24T08:59:25Z</time>
      </trkpt>
      <trkpt lat="44.86543" lon="1.74162">
        <ele>327</ele>
        <time>2022-05-24T08:59:26Z</time>
      </trkpt>
      <trkpt lat="44.86545" lon="1.74152">
        <ele>326.6</ele>
        <time>2022-05-24T08:59:27Z</time>
      </trkpt>
      <trkpt lat="44.86547" lon="1.74141">
        <ele>326.2</ele>
        <time>2022-05-24T08:59:28Z</time>
      </trkpt>
      <trkpt lat="44.86548" lon="1.74131">
        <ele>325.9</ele>
        <time>2022-05-24T08:59:29Z</time>
      </trkpt>
      <trkpt lat="44.8655" lon="1.74121">
        <ele>325.6</ele>
        <time>2022-05-24T08:59:30Z</time>
      </trkpt>
      <trkpt lat="44.86551" lon="1.7411">
        <ele>325.5</ele>
        <time>2022-05-24T08:59:31Z</time>
      </trkpt>
      <trkpt lat="44.86551" lon="1.741">
        <ele>325.4</ele>
        <time>2022-05-24T08:59:32Z</time>
      </trkpt>
      <trkpt lat="44.86548" lon="1.74091">
        <ele>325.3</ele>
        <time>2022-05-24T08:59:33Z</time>
      </trkpt>
      <trkpt lat="44.86545" lon="1.74084">
        <ele>325.2</ele>
        <time>2022-05-24T08:59:34Z</time>
      </trkpt>
      <trkpt lat="44.86543" lon="1.7408">
        <ele>325.2</ele>
        <time>2022-05-24T08:59:35Z</time>
      </trkpt>
      <trkpt lat="44.86541" lon="1.74075">
        <ele>325.1</ele>
        <time>2022-05-24T08:59:36Z</time>
      </trkpt>
      <trkpt lat="44.86538" lon="1.7407">
        <ele>324.9</ele>
        <time>2022-05-24T08:59:37Z</time>
      </trkpt>
      <trkpt lat="44.86536" lon="1.74063">
        <ele>324.6</ele>
        <time>2022-05-24T08:59:38Z</time>
      </trkpt>
      <trkpt lat="44.86534" lon="1.74057">
        <ele>324.4</ele>
        <time>2022-05-24T08:59:39Z</time>
      </trkpt>
      <trkpt lat="44.86532" lon="1.7405">
        <ele>324.2</ele>
        <time>2022-05-24T08:59:40Z</time>
      </trkpt>
      <trkpt lat="44.86531" lon="1.74043">
        <ele>324</ele>
        <time>2022-05-24T08:59:41Z</time>
      </trkpt>
      <trkpt lat="44.8653" lon="1.74036">
        <ele>323.9</ele>
        <time>2022-05-24T08:59:42Z</time>
      </trkpt>
      <trkpt lat="44.86529" lon="1.74028">
        <ele>323.8</ele>
        <time>2022-05-24T08:59:43Z</time>
      </trkpt>
      <trkpt lat="44.86529" lon="1.74021">
        <ele>323.8</ele>
        <time>2022-05-24T08:59:44Z</time>
      </trkpt>
      <trkpt lat="44.86528" lon="1.74013">
        <ele>323.8</ele>
        <time>2022-05-24T08:59:45Z</time>
      </trkpt>
      <trkpt lat="44.86527" lon="1.74006">
        <ele>323.8</ele>
        <time>2022-05-24T08:59:46Z</time>
      </trkpt>
      <trkpt lat="44.86527" lon="1.73998">
        <ele>323.8</ele>
        <time>2022-05-24T08:59:47Z</time>
      </trkpt>
      <trkpt lat="44.86527" lon="1.73991">
        <ele>323.8</ele>
        <time>2022-05-24T08:59:48Z</time>
      </trkpt>
      <trkpt lat="44.86528" lon="1.73983">
        <ele>323.9</ele>
        <time>2022-05-24T08:59:49Z</time>
      </trkpt>
      <trkpt lat="44.86527" lon="1.73976">
        <ele>324</ele>
        <time>2022-05-24T08:59:50Z</time>
      </trkpt>
      <trkpt lat="44.86527" lon="1.7397">
        <ele>324.1</ele>
        <time>2022-05-24T08:59:51Z</time>
      </trkpt>
      <trkpt lat="44.86527" lon="1.73963">
        <ele>324.3</ele>
        <time>2022-05-24T08:59:52Z</time>
      </trkpt>
      <trkpt lat="44.86527" lon="1.73956">
        <ele>324.6</ele>
        <time>2022-05-24T08:59:53Z</time>
      </trkpt>
      <trkpt lat="44.86526" lon="1.7395">
        <ele>324.8</ele>
        <time>2022-05-24T08:59:54Z</time>
      </trkpt>
      <trkpt lat="44.86524" lon="1.73945">
        <ele>325</ele>
        <time>2022-05-24T08:59:55Z</time>
      </trkpt>
      <trkpt lat="44.86522" lon="1.73941">
        <ele>325.3</ele>
        <time>2022-05-24T08:59:56Z</time>
      </trkpt>
      <trkpt lat="44.8652" lon="1.73938">
        <ele>325.5</ele>
        <time>2022-05-24T08:59:57Z</time>
      </trkpt>
      <trkpt lat="44.86519" lon="1.73934">
        <ele>325.8</ele>
        <time>2022-05-24T08:59:58Z</time>
      </trkpt>
      <trkpt lat="44.86516" lon="1.73931">
        <ele>326</ele>
        <time>2022-05-24T08:59:59Z</time>
      </trkpt>
      <trkpt lat="44.86513" lon="1.7393">
        <ele>326.3</ele>
        <time>2022-05-24T09:00:00Z</time>
      </trkpt>
      <trkpt lat="44.86509" lon="1.73928">
        <ele>326.7</ele>
        <time>2022-05-24T09:00:01Z</time>
      </trkpt>
      <trkpt lat="44.86506" lon="1.73926">
        <ele>327.1</ele>
        <time>2022-05-24T09:00:02Z</time>
      </trkpt>
      <trkpt lat="44.86503" lon="1.73925">
        <ele>327.4</ele>
        <time>2022-05-24T09:00:03Z</time>
      </trkpt>
      <trkpt lat="44.86499" lon="1.73925">
        <ele>327.8</ele>
        <time>2022-05-24T09:00:04Z</time>
      </trkpt>
      <trkpt lat="44.86498" lon="1.73925">
        <ele>327.9</ele>
        <time>2022-05-24T09:00:05Z</time>
      </trkpt>
      <trkpt lat="44.86495" lon="1.73923">
        <ele>328.3</ele>
        <time>2022-05-24T09:00:06Z</time>
      </trkpt>
      <trkpt lat="44.86494" lon="1.73923">
        <ele>328.4</ele>
        <time>2022-05-24T09:00:07Z</time>
      </trkpt>
      <trkpt lat="44.86493" lon="1.73918">
        <ele>328.7</ele>
        <time>2022-05-24T09:00:08Z</time>
      </trkpt>
      <trkpt lat="44.86493" lon="1.73916">
        <ele>328.9</ele>
        <time>2022-05-24T09:00:09Z</time>
      </trkpt>
      <trkpt lat="44.86493" lon="1.73913">
        <ele>329.1</ele>
        <time>2022-05-24T09:00:10Z</time>
      </trkpt>
      <trkpt lat="44.86493" lon="1.73907">
        <ele>329.6</ele>
        <time>2022-05-24T09:00:11Z</time>
      </trkpt>
      <trkpt lat="44.86493" lon="1.73905">
        <ele>329.7</ele>
        <time>2022-05-24T09:00:12Z</time>
      </trkpt>
      <trkpt lat="44.86492" lon="1.739">
        <ele>330.1</ele>
        <time>2022-05-24T09:00:13Z</time>
      </trkpt>
      <trkpt lat="44.86492" lon="1.73898">
        <ele>330.3</ele>
        <time>2022-05-24T09:00:14Z</time>
      </trkpt>
      <trkpt lat="44.86491" lon="1.73893">
        <ele>330.6</ele>
        <time>2022-05-24T09:00:15Z</time>
      </trkpt>
      <trkpt lat="44.8649" lon="1.73892">
        <ele>330.8</ele>
        <time>2022-05-24T09:00:16Z</time>
      </trkpt>
      <trkpt lat="44.86489" lon="1.73887">
        <ele>331.1</ele>
        <time>2022-05-24T09:00:17Z</time>
      </trkpt>
      <trkpt lat="44.86489" lon="1.73886">
        <ele>331.2</ele>
        <time>2022-05-24T09:00:18Z</time>
      </trkpt>
      <trkpt lat="44.86488" lon="1.73881">
        <ele>331.6</ele>
        <time>2022-05-24T09:00:19Z</time>
      </trkpt>
      <trkpt lat="44.86488" lon="1.7388">
        <ele>331.7</ele>
        <time>2022-05-24T09:00:20Z</time>
      </trkpt>
      <trkpt lat="44.86486" lon="1.73875">
        <ele>332.1</ele>
        <time>2022-05-24T09:00:21Z</time>
      </trkpt>
      <trkpt lat="44.86486" lon="1.73873">
        <ele>332.2</ele>
        <time>2022-05-24T09:00:22Z</time>
      </trkpt>
      <trkpt lat="44.86485" lon="1.73868">
        <ele>332.5</ele>
        <time>2022-05-24T09:00:23Z</time>
      </trkpt>
      <trkpt lat="44.86485" lon="1.73867">
        <ele>332.7</ele>
        <time>2022-05-24T09:00:24Z</time>
      </trkpt>
      <trkpt lat="44.86485" lon="1.73862">
        <ele>333.1</ele>
        <time>2022-05-24T09:00:25Z</time>
      </trkpt>
      <trkpt lat="44.86486" lon="1.7386">
        <ele>333.2</ele>
        <time>2022-05-24T09:00:26Z</time>
      </trkpt>
      <trkpt lat="44.86487" lon="1.73857">
        <ele>333.4</ele>
        <time>2022-05-24T09:00:27Z</time>
      </trkpt>
      <trkpt lat="44.86489" lon="1.73852">
        <ele>333.9</ele>
        <time>2022-05-24T09:00:29Z</time>
      </trkpt>
      <trkpt lat="44.8649" lon="1.73847">
        <ele>334.2</ele>
        <time>2022-05-24T09:00:30Z</time>
      </trkpt>
      <trkpt lat="44.8649" lon="1.73846">
        <ele>334.3</ele>
        <time>2022-05-24T09:00:31Z</time>
      </trkpt>
      <trkpt lat="44.86492" lon="1.73842">
        <ele>334.6</ele>
        <time>2022-05-24T09:00:32Z</time>
      </trkpt>
      <trkpt lat="44.86492" lon="1.73841">
        <ele>334.7</ele>
        <time>2022-05-24T09:00:33Z</time>
      </trkpt>
      <trkpt lat="44.86494" lon="1.73837">
        <ele>335</ele>
        <time>2022-05-24T09:00:34Z</time>
      </trkpt>
      <trkpt lat="44.86494" lon="1.73835">
        <ele>335.1</ele>
        <time>2022-05-24T09:00:35Z</time>
      </trkpt>
      <trkpt lat="44.86495" lon="1.73831">
        <ele>335.3</ele>
        <time>2022-05-24T09:00:36Z</time>
      </trkpt>
      <trkpt lat="44.86496" lon="1.73827">
        <ele>335.5</ele>
        <time>2022-05-24T09:00:37Z</time>
      </trkpt>
      <trkpt lat="44.86497" lon="1.73823">
        <ele>335.8</ele>
        <time>2022-05-24T09:00:38Z</time>
      </trkpt>
      <trkpt lat="44.86497" lon="1.73819">
        <ele>336</ele>
        <time>2022-05-24T09:00:39Z</time>
      </trkpt>
      <trkpt lat="44.86498" lon="1.73815">
        <ele>336.2</ele>
        <time>2022-05-24T09:00:40Z</time>
      </trkpt>
      <trkpt lat="44.86499" lon="1.73811">
        <ele>336.4</ele>
        <time>2022-05-24T09:00:41Z</time>
      </trkpt>
      <trkpt lat="44.865" lon="1.73806">
        <ele>336.7</ele>
        <time>2022-05-24T09:00:42Z</time>
      </trkpt>
      <trkpt lat="44.865" lon="1.73802">
        <ele>336.9</ele>
        <time>2022-05-24T09:00:43Z</time>
      </trkpt>
      <trkpt lat="44.86501" lon="1.73798">
        <ele>337.1</ele>
        <time>2022-05-24T09:00:44Z</time>
      </trkpt>
      <trkpt lat="44.86502" lon="1.73793">
        <ele>337.3</ele>
        <time>2022-05-24T09:00:45Z</time>
      </trkpt>
      <trkpt lat="44.86503" lon="1.73788">
        <ele>337.5</ele>
        <time>2022-05-24T09:00:46Z</time>
      </trkpt>
      <trkpt lat="44.86504" lon="1.73784">
        <ele>337.7</ele>
        <time>2022-05-24T09:00:47Z</time>
      </trkpt>
      <trkpt lat="44.86505" lon="1.73779">
        <ele>337.9</ele>
        <time>2022-05-24T09:00:48Z</time>
      </trkpt>
      <trkpt lat="44.86506" lon="1.73775">
        <ele>338.1</ele>
        <time>2022-05-24T09:00:49Z</time>
      </trkpt>
      <trkpt lat="44.86507" lon="1.73771">
        <ele>338.3</ele>
        <time>2022-05-24T09:00:50Z</time>
      </trkpt>
      <trkpt lat="44.86508" lon="1.73766">
        <ele>338.5</ele>
        <time>2022-05-24T09:00:51Z</time>
      </trkpt>
      <trkpt lat="44.86509" lon="1.73762">
        <ele>338.7</ele>
        <time>2022-05-24T09:00:52Z</time>
      </trkpt>
      <trkpt lat="44.8651" lon="1.73758">
        <ele>338.9</ele>
        <time>2022-05-24T09:00:53Z</time>
      </trkpt>
      <trkpt lat="44.86512" lon="1.73754">
        <ele>339.1</ele>
        <time>2022-05-24T09:00:54Z</time>
      </trkpt>
      <trkpt lat="44.86513" lon="1.73749">
        <ele>339.2</ele>
        <time>2022-05-24T09:00:55Z</time>
      </trkpt>
      <trkpt lat="44.86514" lon="1.73744">
        <ele>339.4</ele>
        <time>2022-05-24T09:00:56Z</time>
      </trkpt>
      <trkpt lat="44.86515" lon="1.73739">
        <ele>339.6</ele>
        <time>2022-05-24T09:00:57Z</time>
      </trkpt>
      <trkpt lat="44.86516" lon="1.73735">
        <ele>339.8</ele>
        <time>2022-05-24T09:00:58Z</time>
      </trkpt>
      <trkpt lat="44.86517" lon="1.7373">
        <ele>340</ele>
        <time>2022-05-24T09:00:59Z</time>
      </trkpt>
      <trkpt lat="44.86518" lon="1.73725">
        <ele>340.2</ele>
        <time>2022-05-24T09:01:00Z</time>
      </trkpt>
      <trkpt lat="44.86519" lon="1.7372">
        <ele>340.4</ele>
        <time>2022-05-24T09:01:01Z</time>
      </trkpt>
      <trkpt lat="44.86519" lon="1.73715">
        <ele>340.5</ele>
        <time>2022-05-24T09:01:02Z</time>
      </trkpt>
      <trkpt lat="44.8652" lon="1.7371">
        <ele>340.7</ele>
        <time>2022-05-24T09:01:03Z</time>
      </trkpt>
      <trkpt lat="44.8652" lon="1.73706">
        <ele>340.8</ele>
        <time>2022-05-24T09:01:04Z</time>
      </trkpt>
      <trkpt lat="44.86521" lon="1.73701">
        <ele>341</ele>
        <time>2022-05-24T09:01:05Z</time>
      </trkpt>
      <trkpt lat="44.86522" lon="1.73696">
        <ele>341.2</ele>
        <time>2022-05-24T09:01:06Z</time>
      </trkpt>
      <trkpt lat="44.86522" lon="1.73691">
        <ele>341.3</ele>
        <time>2022-05-24T09:01:07Z</time>
      </trkpt>
      <trkpt lat="44.86522" lon="1.73686">
        <ele>341.5</ele>
        <time>2022-05-24T09:01:08Z</time>
      </trkpt>
      <trkpt lat="44.86522" lon="1.7368">
        <ele>341.7</ele>
        <time>2022-05-24T09:01:09Z</time>
      </trkpt>
      <trkpt lat="44.86522" lon="1.73675">
        <ele>341.8</ele>
        <time>2022-05-24T09:01:10Z</time>
      </trkpt>
      <trkpt lat="44.86522" lon="1.7367">
        <ele>342</ele>
        <time>2022-05-24T09:01:11Z</time>
      </trkpt>
      <trkpt lat="44.86522" lon="1.73665">
        <ele>342.2</ele>
        <time>2022-05-24T09:01:12Z</time>
      </trkpt>
      <trkpt lat="44.86522" lon="1.7366">
        <ele>342.4</ele>
        <time>2022-05-24T09:01:13Z</time>
      </trkpt>
      <trkpt lat="44.86522" lon="1.73655">
        <ele>342.5</ele>
        <time>2022-05-24T09:01:14Z</time>
      </trkpt>
      <trkpt lat="44.86522" lon="1.7365">
        <ele>342.7</ele>
        <time>2022-05-24T09:01:15Z</time>
      </trkpt>
      <trkpt lat="44.86522" lon="1.73646">
        <ele>342.9</ele>
        <time>2022-05-24T09:01:16Z</time>
      </trkpt>
      <trkpt lat="44.86522" lon="1.73641">
        <ele>343.1</ele>
        <time>2022-05-24T09:01:17Z</time>
      </trkpt>
      <trkpt lat="44.86521" lon="1.73636">
        <ele>343.2</ele>
        <time>2022-05-24T09:01:18Z</time>
      </trkpt>
      <trkpt lat="44.86521" lon="1.73631">
        <ele>343.4</ele>
        <time>2022-05-24T09:01:19Z</time>
      </trkpt>
      <trkpt lat="44.86521" lon="1.73626">
        <ele>343.6</ele>
        <time>2022-05-24T09:01:20Z</time>
      </trkpt>
      <trkpt lat="44.8652" lon="1.73621">
        <ele>343.8</ele>
        <time>2022-05-24T09:01:21Z</time>
      </trkpt>
      <trkpt lat="44.8652" lon="1.73617">
        <ele>343.9</ele>
        <time>2022-05-24T09:01:22Z</time>
      </trkpt>
      <trkpt lat="44.86519" lon="1.73612">
        <ele>344.1</ele>
        <time>2022-05-24T09:01:23Z</time>
      </trkpt>
      <trkpt lat="44.86518" lon="1.73607">
        <ele>344.2</ele>
        <time>2022-05-24T09:01:24Z</time>
      </trkpt>
      <trkpt lat="44.86516" lon="1.73602">
        <ele>344.4</ele>
        <time>2022-05-24T09:01:25Z</time>
      </trkpt>
      <trkpt lat="44.86515" lon="1.73597">
        <ele>344.5</ele>
        <time>2022-05-24T09:01:26Z</time>
      </trkpt>
      <trkpt lat="44.86514" lon="1.73592">
        <ele>344.6</ele>
        <time>2022-05-24T09:01:27Z</time>
      </trkpt>
      <trkpt lat="44.86513" lon="1.73588">
        <ele>344.8</ele>
        <time>2022-05-24T09:01:28Z</time>
      </trkpt>
      <trkpt lat="44.86512" lon="1.73584">
        <ele>344.9</ele>
        <time>2022-05-24T09:01:29Z</time>
      </trkpt>
      <trkpt lat="44.8651" lon="1.7358">
        <ele>345</ele>
        <time>2022-05-24T09:01:30Z</time>
      </trkpt>
      <trkpt lat="44.86508" lon="1.73576">
        <ele>345.1</ele>
        <time>2022-05-24T09:01:31Z</time>
      </trkpt>
      <trkpt lat="44.86506" lon="1.73572">
        <ele>345.2</ele>
        <time>2022-05-24T09:01:32Z</time>
      </trkpt>
      <trkpt lat="44.86504" lon="1.73567">
        <ele>345.3</ele>
        <time>2022-05-24T09:01:33Z</time>
      </trkpt>
      <trkpt lat="44.86502" lon="1.73562">
        <ele>345.4</ele>
        <time>2022-05-24T09:01:34Z</time>
      </trkpt>
      <trkpt lat="44.865" lon="1.73557">
        <ele>345.5</ele>
        <time>2022-05-24T09:01:35Z</time>
      </trkpt>
      <trkpt lat="44.86498" lon="1.73551">
        <ele>345.6</ele>
        <time>2022-05-24T09:01:36Z</time>
      </trkpt>
      <trkpt lat="44.86496" lon="1.73546">
        <ele>345.7</ele>
        <time>2022-05-24T09:01:37Z</time>
      </trkpt>
      <trkpt lat="44.86494" lon="1.73541">
        <ele>345.7</ele>
        <time>2022-05-24T09:01:38Z</time>
      </trkpt>
      <trkpt lat="44.86492" lon="1.73536">
        <ele>345.8</ele>
        <time>2022-05-24T09:01:39Z</time>
      </trkpt>
      <trkpt lat="44.86489" lon="1.73531">
        <ele>345.9</ele>
        <time>2022-05-24T09:01:40Z</time>
      </trkpt>
      <trkpt lat="44.86487" lon="1.73525">
        <ele>346</ele>
        <time>2022-05-24T09:01:41Z</time>
      </trkpt>
      <trkpt lat="44.86484" lon="1.73518">
        <ele>346.1</ele>
        <time>2022-05-24T09:01:42Z</time>
      </trkpt>
      <trkpt lat="44.86482" lon="1.73512">
        <ele>346.2</ele>
        <time>2022-05-24T09:01:43Z</time>
      </trkpt>
      <trkpt lat="44.86479" lon="1.73506">
        <ele>346.3</ele>
        <time>2022-05-24T09:01:44Z</time>
      </trkpt>
      <trkpt lat="44.86477" lon="1.735">
        <ele>346.3</ele>
        <time>2022-05-24T09:01:45Z</time>
      </trkpt>
      <trkpt lat="44.86474" lon="1.73495">
        <ele>346.4</ele>
        <time>2022-05-24T09:01:46Z</time>
      </trkpt>
      <trkpt lat="44.86472" lon="1.7349">
        <ele>346.5</ele>
        <time>2022-05-24T09:01:47Z</time>
      </trkpt>
      <trkpt lat="44.86469" lon="1.73485">
        <ele>346.6</ele>
        <time>2022-05-24T09:01:48Z</time>
      </trkpt>
      <trkpt lat="44.86467" lon="1.7348">
        <ele>346.6</ele>
        <time>2022-05-24T09:01:49Z</time>
      </trkpt>
      <trkpt lat="44.86466" lon="1.73475">
        <ele>346.7</ele>
        <time>2022-05-24T09:01:50Z</time>
      </trkpt>
      <trkpt lat="44.86467" lon="1.73471">
        <ele>346.7</ele>
        <time>2022-05-24T09:01:51Z</time>
      </trkpt>
      <trkpt lat="44.8647" lon="1.73467">
        <ele>347.1</ele>
        <time>2022-05-24T09:01:52Z</time>
      </trkpt>
      <trkpt lat="44.86474" lon="1.73465">
        <ele>347.2</ele>
        <time>2022-05-24T09:01:53Z</time>
      </trkpt>
      <trkpt lat="44.86478" lon="1.73465">
        <ele>347.2</ele>
        <time>2022-05-24T09:01:54Z</time>
      </trkpt>
      <trkpt lat="44.86483" lon="1.73465">
        <ele>347.2</ele>
        <time>2022-05-24T09:01:55Z</time>
      </trkpt>
      <trkpt lat="44.86488" lon="1.73465">
        <ele>347.3</ele>
        <time>2022-05-24T09:01:56Z</time>
      </trkpt>
      <trkpt lat="44.86493" lon="1.73465">
        <ele>347.3</ele>
        <time>2022-05-24T09:01:57Z</time>
      </trkpt>
      <trkpt lat="44.86497" lon="1.73465">
        <ele>347.4</ele>
        <time>2022-05-24T09:01:58Z</time>
      </trkpt>
      <trkpt lat="44.86502" lon="1.73464">
        <ele>347.4</ele>
        <time>2022-05-24T09:01:59Z</time>
      </trkpt>
      <trkpt lat="44.86506" lon="1.73463">
        <ele>347.4</ele>
        <time>2022-05-24T09:02:00Z</time>
      </trkpt>
      <trkpt lat="44.8651" lon="1.73462">
        <ele>347.5</ele>
        <time>2022-05-24T09:02:01Z</time>
      </trkpt>
      <trkpt lat="44.86514" lon="1.73461">
        <ele>347.5</ele>
        <time>2022-05-24T09:02:02Z</time>
      </trkpt>
      <trkpt lat="44.86518" lon="1.7346">
        <ele>347.5</ele>
        <time>2022-05-24T09:02:03Z</time>
      </trkpt>
      <trkpt lat="44.86522" lon="1.73459">
        <ele>347.5</ele>
        <time>2022-05-24T09:02:04Z</time>
      </trkpt>
      <trkpt lat="44.86525" lon="1.73458">
        <ele>347.5</ele>
        <time>2022-05-24T09:02:05Z</time>
      </trkpt>
      <trkpt lat="44.86529" lon="1.73456">
        <ele>347.5</ele>
        <time>2022-05-24T09:02:06Z</time>
      </trkpt>
      <trkpt lat="44.86533" lon="1.73454">
        <ele>347.4</ele>
        <time>2022-05-24T09:02:07Z</time>
      </trkpt>
      <trkpt lat="44.86538" lon="1.73452">
        <ele>347.4</ele>
        <time>2022-05-24T09:02:08Z</time>
      </trkpt>
      <trkpt lat="44.86542" lon="1.7345">
        <ele>347.3</ele>
        <time>2022-05-24T09:02:09Z</time>
      </trkpt>
      <trkpt lat="44.86547" lon="1.73449">
        <ele>347.3</ele>
        <time>2022-05-24T09:02:10Z</time>
      </trkpt>
      <trkpt lat="44.86551" lon="1.73447">
        <ele>347.2</ele>
        <time>2022-05-24T09:02:11Z</time>
      </trkpt>
      <trkpt lat="44.86555" lon="1.73444">
        <ele>347.1</ele>
        <time>2022-05-24T09:02:12Z</time>
      </trkpt>
      <trkpt lat="44.86559" lon="1.73439">
        <ele>346.9</ele>
        <time>2022-05-24T09:02:13Z</time>
      </trkpt>
      <trkpt lat="44.86564" lon="1.73436">
        <ele>346.7</ele>
        <time>2022-05-24T09:02:14Z</time>
      </trkpt>
      <trkpt lat="44.86569" lon="1.73433">
        <ele>346.5</ele>
        <time>2022-05-24T09:02:15Z</time>
      </trkpt>
      <trkpt lat="44.86573" lon="1.73428">
        <ele>346.3</ele>
        <time>2022-05-24T09:02:16Z</time>
      </trkpt>
      <trkpt lat="44.86577" lon="1.73424">
        <ele>346</ele>
        <time>2022-05-24T09:02:17Z</time>
      </trkpt>
      <trkpt lat="44.86584" lon="1.73419">
        <ele>345.6</ele>
        <time>2022-05-24T09:02:18Z</time>
      </trkpt>
      <trkpt lat="44.8659" lon="1.73415">
        <ele>345.2</ele>
        <time>2022-05-24T09:02:19Z</time>
      </trkpt>
      <trkpt lat="44.86597" lon="1.73412">
        <ele>344.8</ele>
        <time>2022-05-24T09:02:20Z</time>
      </trkpt>
      <trkpt lat="44.86604" lon="1.7341">
        <ele>344.3</ele>
        <time>2022-05-24T09:02:21Z</time>
      </trkpt>
      <trkpt lat="44.86612" lon="1.73409">
        <ele>343.7</ele>
        <time>2022-05-24T09:02:22Z</time>
      </trkpt>
      <trkpt lat="44.8662" lon="1.7341">
        <ele>343.3</ele>
        <time>2022-05-24T09:02:23Z</time>
      </trkpt>
      <trkpt lat="44.86627" lon="1.73412">
        <ele>342.8</ele>
        <time>2022-05-24T09:02:24Z</time>
      </trkpt>
      <trkpt lat="44.86636" lon="1.73415">
        <ele>342.4</ele>
        <time>2022-05-24T09:02:25Z</time>
      </trkpt>
      <trkpt lat="44.86643" lon="1.73419">
        <ele>342</ele>
        <time>2022-05-24T09:02:26Z</time>
      </trkpt>
      <trkpt lat="44.8665" lon="1.73423">
        <ele>341.6</ele>
        <time>2022-05-24T09:02:27Z</time>
      </trkpt>
      <trkpt lat="44.86658" lon="1.73424">
        <ele>341.4</ele>
        <time>2022-05-24T09:02:28Z</time>
      </trkpt>
      <trkpt lat="44.86665" lon="1.73423">
        <ele>341.4</ele>
        <time>2022-05-24T09:02:29Z</time>
      </trkpt>
      <trkpt lat="44.86672" lon="1.73419">
        <ele>341.3</ele>
        <time>2022-05-24T09:02:30Z</time>
      </trkpt>
      <trkpt lat="44.86677" lon="1.73414">
        <ele>341.4</ele>
        <time>2022-05-24T09:02:31Z</time>
      </trkpt>
      <trkpt lat="44.86682" lon="1.73408">
        <ele>341.5</ele>
        <time>2022-05-24T09:02:32Z</time>
      </trkpt>
      <trkpt lat="44.86686" lon="1.73403">
        <ele>341.6</ele>
        <time>2022-05-24T09:02:33Z</time>
      </trkpt>
      <trkpt lat="44.86691" lon="1.73397">
        <ele>341.8</ele>
        <time>2022-05-24T09:02:34Z</time>
      </trkpt>
      <trkpt lat="44.86695" lon="1.73392">
        <ele>341.9</ele>
        <time>2022-05-24T09:02:35Z</time>
      </trkpt>
      <trkpt lat="44.86698" lon="1.73387">
        <ele>342.1</ele>
        <time>2022-05-24T09:02:36Z</time>
      </trkpt>
      <trkpt lat="44.86701" lon="1.73381">
        <ele>342.2</ele>
        <time>2022-05-24T09:02:37Z</time>
      </trkpt>
      <trkpt lat="44.86703" lon="1.73376">
        <ele>342.3</ele>
        <time>2022-05-24T09:02:38Z</time>
      </trkpt>
      <trkpt lat="44.86705" lon="1.7337">
        <ele>342.5</ele>
        <time>2022-05-24T09:02:39Z</time>
      </trkpt>
      <trkpt lat="44.86707" lon="1.73363">
        <ele>342.6</ele>
        <time>2022-05-24T09:02:40Z</time>
      </trkpt>
      <trkpt lat="44.86708" lon="1.73356">
        <ele>342.8</ele>
        <time>2022-05-24T09:02:41Z</time>
      </trkpt>
      <trkpt lat="44.8671" lon="1.7335">
        <ele>342.9</ele>
        <time>2022-05-24T09:02:42Z</time>
      </trkpt>
      <trkpt lat="44.8671" lon="1.73344">
        <ele>343</ele>
        <time>2022-05-24T09:02:43Z</time>
      </trkpt>
      <trkpt lat="44.86711" lon="1.73338">
        <ele>343.1</ele>
        <time>2022-05-24T09:02:44Z</time>
      </trkpt>
      <trkpt lat="44.86711" lon="1.73331">
        <ele>343.2</ele>
        <time>2022-05-24T09:02:45Z</time>
      </trkpt>
      <trkpt lat="44.86711" lon="1.73324">
        <ele>343.3</ele>
        <time>2022-05-24T09:02:46Z</time>
      </trkpt>
      <trkpt lat="44.86712" lon="1.73318">
        <ele>343.3</ele>
        <time>2022-05-24T09:02:47Z</time>
      </trkpt>
      <trkpt lat="44.86712" lon="1.73312">
        <ele>343.4</ele>
        <time>2022-05-24T09:02:48Z</time>
      </trkpt>
      <trkpt lat="44.86713" lon="1.73305">
        <ele>343.5</ele>
        <time>2022-05-24T09:02:49Z</time>
      </trkpt>
      <trkpt lat="44.86713" lon="1.73299">
        <ele>343.5</ele>
        <time>2022-05-24T09:02:50Z</time>
      </trkpt>
      <trkpt lat="44.86713" lon="1.73292">
        <ele>343.6</ele>
        <time>2022-05-24T09:02:51Z</time>
      </trkpt>
      <trkpt lat="44.86713" lon="1.73285">
        <ele>343.6</ele>
        <time>2022-05-24T09:02:52Z</time>
      </trkpt>
      <trkpt lat="44.86713" lon="1.73279">
        <ele>343.6</ele>
        <time>2022-05-24T09:02:53Z</time>
      </trkpt>
      <trkpt lat="44.86713" lon="1.73272">
        <ele>343.7</ele>
        <time>2022-05-24T09:02:54Z</time>
      </trkpt>
      <trkpt lat="44.86712" lon="1.73266">
        <ele>343.7</ele>
        <time>2022-05-24T09:02:55Z</time>
      </trkpt>
      <trkpt lat="44.86712" lon="1.7326">
        <ele>343.7</ele>
        <time>2022-05-24T09:02:56Z</time>
      </trkpt>
      <trkpt lat="44.8671" lon="1.73253">
        <ele>343.7</ele>
        <time>2022-05-24T09:02:57Z</time>
      </trkpt>
      <trkpt lat="44.86706" lon="1.7325">
        <ele>343.5</ele>
        <time>2022-05-24T09:02:58Z</time>
      </trkpt>
      <trkpt lat="44.86703" lon="1.73245">
        <ele>343.2</ele>
        <time>2022-05-24T09:02:59Z</time>
      </trkpt>
      <trkpt lat="44.86698" lon="1.73241">
        <ele>342.9</ele>
        <time>2022-05-24T09:03:00Z</time>
      </trkpt>
      <trkpt lat="44.86694" lon="1.73238">
        <ele>342.6</ele>
        <time>2022-05-24T09:03:01Z</time>
      </trkpt>
      <trkpt lat="44.8669" lon="1.73233">
        <ele>342.3</ele>
        <time>2022-05-24T09:03:02Z</time>
      </trkpt>
      <trkpt lat="44.86686" lon="1.73226">
        <ele>341.9</ele>
        <time>2022-05-24T09:03:03Z</time>
      </trkpt>
      <trkpt lat="44.86683" lon="1.73219">
        <ele>341.6</ele>
        <time>2022-05-24T09:03:04Z</time>
      </trkpt>
      <trkpt lat="44.8668" lon="1.7321">
        <ele>341.1</ele>
        <time>2022-05-24T09:03:05Z</time>
      </trkpt>
      <trkpt lat="44.86677" lon="1.73202">
        <ele>340.7</ele>
        <time>2022-05-24T09:03:06Z</time>
      </trkpt>
      <trkpt lat="44.86675" lon="1.73193">
        <ele>340.2</ele>
        <time>2022-05-24T09:03:07Z</time>
      </trkpt>
      <trkpt lat="44.86673" lon="1.73185">
        <ele>339.8</ele>
        <time>2022-05-24T09:03:08Z</time>
      </trkpt>
      <trkpt lat="44.8667" lon="1.73178">
        <ele>339.3</ele>
        <time>2022-05-24T09:03:09Z</time>
      </trkpt>
      <trkpt lat="44.86668" lon="1.73171">
        <ele>338.9</ele>
        <time>2022-05-24T09:03:10Z</time>
      </trkpt>
      <trkpt lat="44.86665" lon="1.73164">
        <ele>338.4</ele>
        <time>2022-05-24T09:03:11Z</time>
      </trkpt>
      <trkpt lat="44.86663" lon="1.73156">
        <ele>337.9</ele>
        <time>2022-05-24T09:03:12Z</time>
      </trkpt>
      <trkpt lat="44.86661" lon="1.73146">
        <ele>337.3</ele>
        <time>2022-05-24T09:03:13Z</time>
      </trkpt>
      <trkpt lat="44.86659" lon="1.73136">
        <ele>336.7</ele>
        <time>2022-05-24T09:03:14Z</time>
      </trkpt>
      <trkpt lat="44.86658" lon="1.73127">
        <ele>336.3</ele>
        <time>2022-05-24T09:03:15Z</time>
      </trkpt>
      <trkpt lat="44.86657" lon="1.73117">
        <ele>335.8</ele>
        <time>2022-05-24T09:03:16Z</time>
      </trkpt>
      <trkpt lat="44.86657" lon="1.73107">
        <ele>335.4</ele>
        <time>2022-05-24T09:03:17Z</time>
      </trkpt>
      <trkpt lat="44.86657" lon="1.73097">
        <ele>335.1</ele>
        <time>2022-05-24T09:03:18Z</time>
      </trkpt>
      <trkpt lat="44.86658" lon="1.73086">
        <ele>334.6</ele>
        <time>2022-05-24T09:03:19Z</time>
      </trkpt>
      <trkpt lat="44.86658" lon="1.73074">
        <ele>334.1</ele>
        <time>2022-05-24T09:03:20Z</time>
      </trkpt>
      <trkpt lat="44.86657" lon="1.73062">
        <ele>333.6</ele>
        <time>2022-05-24T09:03:21Z</time>
      </trkpt>
      <trkpt lat="44.86656" lon="1.73053">
        <ele>333.2</ele>
        <time>2022-05-24T09:03:22Z</time>
      </trkpt>
      <trkpt lat="44.86655" lon="1.73043">
        <ele>332.7</ele>
        <time>2022-05-24T09:03:23Z</time>
      </trkpt>
      <trkpt lat="44.86653" lon="1.73034">
        <ele>332.2</ele>
        <time>2022-05-24T09:03:24Z</time>
      </trkpt>
      <trkpt lat="44.86652" lon="1.73024">
        <ele>331.8</ele>
        <time>2022-05-24T09:03:25Z</time>
      </trkpt>
      <trkpt lat="44.86651" lon="1.73015">
        <ele>331.4</ele>
        <time>2022-05-24T09:03:26Z</time>
      </trkpt>
      <trkpt lat="44.8665" lon="1.73005">
        <ele>331.1</ele>
        <time>2022-05-24T09:03:27Z</time>
      </trkpt>
      <trkpt lat="44.8665" lon="1.72997">
        <ele>330.7</ele>
        <time>2022-05-24T09:03:28Z</time>
      </trkpt>
      <trkpt lat="44.86649" lon="1.72989">
        <ele>330.3</ele>
        <time>2022-05-24T09:03:29Z</time>
      </trkpt>
      <trkpt lat="44.86648" lon="1.72981">
        <ele>330</ele>
        <time>2022-05-24T09:03:30Z</time>
      </trkpt>
      <trkpt lat="44.86646" lon="1.72973">
        <ele>329.6</ele>
        <time>2022-05-24T09:03:31Z</time>
      </trkpt>
      <trkpt lat="44.86642" lon="1.72968">
        <ele>329.3</ele>
        <time>2022-05-24T09:03:32Z</time>
      </trkpt>
      <trkpt lat="44.86635" lon="1.72966">
        <ele>328.9</ele>
        <time>2022-05-24T09:03:33Z</time>
      </trkpt>
      <trkpt lat="44.8663" lon="1.72964">
        <ele>328.7</ele>
        <time>2022-05-24T09:03:34Z</time>
      </trkpt>
      <trkpt lat="44.86624" lon="1.72959">
        <ele>328.5</ele>
        <time>2022-05-24T09:03:35Z</time>
      </trkpt>
      <trkpt lat="44.86618" lon="1.72955">
        <ele>328.4</ele>
        <time>2022-05-24T09:03:36Z</time>
      </trkpt>
      <trkpt lat="44.86613" lon="1.7295">
        <ele>328.3</ele>
        <time>2022-05-24T09:03:37Z</time>
      </trkpt>
      <trkpt lat="44.86606" lon="1.72945">
        <ele>328.4</ele>
        <time>2022-05-24T09:03:38Z</time>
      </trkpt>
      <trkpt lat="44.866" lon="1.72941">
        <ele>328.6</ele>
        <time>2022-05-24T09:03:39Z</time>
      </trkpt>
      <trkpt lat="44.86596" lon="1.72939">
        <ele>328.7</ele>
        <time>2022-05-24T09:03:40Z</time>
      </trkpt>
      <trkpt lat="44.86592" lon="1.72935">
        <ele>329</ele>
        <time>2022-05-24T09:03:41Z</time>
      </trkpt>
      <trkpt lat="44.86589" lon="1.7293">
        <ele>329.3</ele>
        <time>2022-05-24T09:03:42Z</time>
      </trkpt>
      <trkpt lat="44.86586" lon="1.72926">
        <ele>329.6</ele>
        <time>2022-05-24T09:03:43Z</time>
      </trkpt>
      <trkpt lat="44.86583" lon="1.72922">
        <ele>329.9</ele>
        <time>2022-05-24T09:03:44Z</time>
      </trkpt>
      <trkpt lat="44.8658" lon="1.72919">
        <ele>330.2</ele>
        <time>2022-05-24T09:03:45Z</time>
      </trkpt>
      <trkpt lat="44.86577" lon="1.72914">
        <ele>330.5</ele>
        <time>2022-05-24T09:03:46Z</time>
      </trkpt>
      <trkpt lat="44.86575" lon="1.72911">
        <ele>330.8</ele>
        <time>2022-05-24T09:03:47Z</time>
      </trkpt>
      <trkpt lat="44.86573" lon="1.72907">
        <ele>331</ele>
        <time>2022-05-24T09:03:48Z</time>
      </trkpt>
      <trkpt lat="44.86571" lon="1.72904">
        <ele>331.3</ele>
        <time>2022-05-24T09:03:49Z</time>
      </trkpt>
      <trkpt lat="44.86568" lon="1.72901">
        <ele>331.6</ele>
        <time>2022-05-24T09:03:50Z</time>
      </trkpt>
      <trkpt lat="44.86565" lon="1.72897">
        <ele>332</ele>
        <time>2022-05-24T09:03:51Z</time>
      </trkpt>
      <trkpt lat="44.86563" lon="1.72894">
        <ele>332.2</ele>
        <time>2022-05-24T09:03:52Z</time>
      </trkpt>
      <trkpt lat="44.86561" lon="1.7289">
        <ele>332.5</ele>
        <time>2022-05-24T09:03:53Z</time>
      </trkpt>
      <trkpt lat="44.86559" lon="1.72886">
        <ele>332.7</ele>
        <time>2022-05-24T09:03:54Z</time>
      </trkpt>
      <trkpt lat="44.86557" lon="1.72882">
        <ele>332.9</ele>
        <time>2022-05-24T09:03:55Z</time>
      </trkpt>
      <trkpt lat="44.86554" lon="1.72877">
        <ele>333.1</ele>
        <time>2022-05-24T09:03:56Z</time>
      </trkpt>
      <trkpt lat="44.86552" lon="1.72872">
        <ele>333.3</ele>
        <time>2022-05-24T09:03:57Z</time>
      </trkpt>
      <trkpt lat="44.86549" lon="1.72868">
        <ele>333.5</ele>
        <time>2022-05-24T09:03:58Z</time>
      </trkpt>
      <trkpt lat="44.86546" lon="1.72863">
        <ele>333.6</ele>
        <time>2022-05-24T09:03:59Z</time>
      </trkpt>
      <trkpt lat="44.86543" lon="1.72858">
        <ele>333.8</ele>
        <time>2022-05-24T09:04:00Z</time>
      </trkpt>
      <trkpt lat="44.86541" lon="1.72854">
        <ele>333.9</ele>
        <time>2022-05-24T09:04:01Z</time>
      </trkpt>
      <trkpt lat="44.86539" lon="1.72849">
        <ele>333.9</ele>
        <time>2022-05-24T09:04:02Z</time>
      </trkpt>
      <trkpt lat="44.86537" lon="1.72844">
        <ele>334</ele>
        <time>2022-05-24T09:04:03Z</time>
      </trkpt>
      <trkpt lat="44.86534" lon="1.72839">
        <ele>334.1</ele>
        <time>2022-05-24T09:04:04Z</time>
      </trkpt>
      <trkpt lat="44.86531" lon="1.72835">
        <ele>334.2</ele>
        <time>2022-05-24T09:04:05Z</time>
      </trkpt>
      <trkpt lat="44.86528" lon="1.72828">
        <ele>334.3</ele>
        <time>2022-05-24T09:04:06Z</time>
      </trkpt>
      <trkpt lat="44.86526" lon="1.72821">
        <ele>334.3</ele>
        <time>2022-05-24T09:04:07Z</time>
      </trkpt>
      <trkpt lat="44.86525" lon="1.72814">
        <ele>334.4</ele>
        <time>2022-05-24T09:04:08Z</time>
      </trkpt>
      <trkpt lat="44.86524" lon="1.72807">
        <ele>334.4</ele>
        <time>2022-05-24T09:04:09Z</time>
      </trkpt>
      <trkpt lat="44.86526" lon="1.72802">
        <ele>334.4</ele>
        <time>2022-05-24T09:04:10Z</time>
      </trkpt>
      <trkpt lat="44.86528" lon="1.72797">
        <ele>334.5</ele>
        <time>2022-05-24T09:04:11Z</time>
      </trkpt>
      <trkpt lat="44.86529" lon="1.72791">
        <ele>334.5</ele>
        <time>2022-05-24T09:04:12Z</time>
      </trkpt>
      <trkpt lat="44.8653" lon="1.72784">
        <ele>334.5</ele>
        <time>2022-05-24T09:04:13Z</time>
      </trkpt>
      <trkpt lat="44.86529" lon="1.72777">
        <ele>334.4</ele>
        <time>2022-05-24T09:04:14Z</time>
      </trkpt>
      <trkpt lat="44.86528" lon="1.72769">
        <ele>334.4</ele>
        <time>2022-05-24T09:04:15Z</time>
      </trkpt>
      <trkpt lat="44.86527" lon="1.72764">
        <ele>334.3</ele>
        <time>2022-05-24T09:04:16Z</time>
      </trkpt>
      <trkpt lat="44.86526" lon="1.72758">
        <ele>334.2</ele>
        <time>2022-05-24T09:04:17Z</time>
      </trkpt>
      <trkpt lat="44.86524" lon="1.72751">
        <ele>334.1</ele>
        <time>2022-05-24T09:04:18Z</time>
      </trkpt>
      <trkpt lat="44.86522" lon="1.72745">
        <ele>334</ele>
        <time>2022-05-24T09:04:19Z</time>
      </trkpt>
      <trkpt lat="44.86521" lon="1.72739">
        <ele>333.9</ele>
        <time>2022-05-24T09:04:20Z</time>
      </trkpt>
      <trkpt lat="44.86522" lon="1.72732">
        <ele>333.7</ele>
        <time>2022-05-24T09:04:21Z</time>
      </trkpt>
      <trkpt lat="44.86522" lon="1.72725">
        <ele>333.5</ele>
        <time>2022-05-24T09:04:22Z</time>
      </trkpt>
      <trkpt lat="44.86521" lon="1.72718">
        <ele>333.2</ele>
        <time>2022-05-24T09:04:23Z</time>
      </trkpt>
      <trkpt lat="44.86518" lon="1.72712">
        <ele>333</ele>
        <time>2022-05-24T09:04:24Z</time>
      </trkpt>
      <trkpt lat="44.86516" lon="1.72705">
        <ele>332.7</ele>
        <time>2022-05-24T09:04:25Z</time>
      </trkpt>
      <trkpt lat="44.86514" lon="1.72698">
        <ele>332.4</ele>
        <time>2022-05-24T09:04:26Z</time>
      </trkpt>
      <trkpt lat="44.86513" lon="1.72689">
        <ele>332</ele>
        <time>2022-05-24T09:04:27Z</time>
      </trkpt>
      <trkpt lat="44.86512" lon="1.72681">
        <ele>331.6</ele>
        <time>2022-05-24T09:04:28Z</time>
      </trkpt>
      <trkpt lat="44.86509" lon="1.72674">
        <ele>331.2</ele>
        <time>2022-05-24T09:04:29Z</time>
      </trkpt>
      <trkpt lat="44.86507" lon="1.72667">
        <ele>330.8</ele>
        <time>2022-05-24T09:04:30Z</time>
      </trkpt>
      <trkpt lat="44.86505" lon="1.72659">
        <ele>330.4</ele>
        <time>2022-05-24T09:04:31Z</time>
      </trkpt>
      <trkpt lat="44.86502" lon="1.72651">
        <ele>330</ele>
        <time>2022-05-24T09:04:32Z</time>
      </trkpt>
      <trkpt lat="44.86499" lon="1.72644">
        <ele>329.6</ele>
        <time>2022-05-24T09:04:33Z</time>
      </trkpt>
      <trkpt lat="44.86496" lon="1.72636">
        <ele>329.2</ele>
        <time>2022-05-24T09:04:34Z</time>
      </trkpt>
      <trkpt lat="44.86493" lon="1.72628">
        <ele>328.8</ele>
        <time>2022-05-24T09:04:35Z</time>
      </trkpt>
      <trkpt lat="44.8649" lon="1.72619">
        <ele>328.3</ele>
        <time>2022-05-24T09:04:36Z</time>
      </trkpt>
      <trkpt lat="44.86487" lon="1.72611">
        <ele>327.9</ele>
        <time>2022-05-24T09:04:37Z</time>
      </trkpt>
      <trkpt lat="44.86484" lon="1.72602">
        <ele>327.5</ele>
        <time>2022-05-24T09:04:38Z</time>
      </trkpt>
      <trkpt lat="44.86481" lon="1.72593">
        <ele>327.1</ele>
        <time>2022-05-24T09:04:39Z</time>
      </trkpt>
      <trkpt lat="44.86478" lon="1.72583">
        <ele>326.7</ele>
        <time>2022-05-24T09:04:40Z</time>
      </trkpt>
      <trkpt lat="44.86477" lon="1.72571">
        <ele>326.3</ele>
        <time>2022-05-24T09:04:41Z</time>
      </trkpt>
      <trkpt lat="44.86476" lon="1.72563">
        <ele>326.1</ele>
        <time>2022-05-24T09:04:42Z</time>
      </trkpt>
      <trkpt lat="44.86475" lon="1.72554">
        <ele>325.9</ele>
        <time>2022-05-24T09:04:43Z</time>
      </trkpt>
      <trkpt lat="44.86474" lon="1.72548">
        <ele>325.8</ele>
        <time>2022-05-24T09:04:44Z</time>
      </trkpt>
      <trkpt lat="44.86471" lon="1.72543">
        <ele>325.2</ele>
        <time>2022-05-24T09:04:45Z</time>
      </trkpt>
      <trkpt lat="44.86466" lon="1.72542">
        <ele>325.1</ele>
        <time>2022-05-24T09:04:46Z</time>
      </trkpt>
      <trkpt lat="44.86461" lon="1.72541">
        <ele>324.9</ele>
        <time>2022-05-24T09:04:47Z</time>
      </trkpt>
      <trkpt lat="44.86456" lon="1.72543">
        <ele>324.7</ele>
        <time>2022-05-24T09:04:48Z</time>
      </trkpt>
      <trkpt lat="44.86452" lon="1.72544">
        <ele>324.6</ele>
        <time>2022-05-24T09:04:49Z</time>
      </trkpt>
      <trkpt lat="44.86447" lon="1.72543">
        <ele>324.4</ele>
        <time>2022-05-24T09:04:50Z</time>
      </trkpt>
      <trkpt lat="44.86442" lon="1.72543">
        <ele>324.3</ele>
        <time>2022-05-24T09:04:51Z</time>
      </trkpt>
      <trkpt lat="44.86437" lon="1.72543">
        <ele>324.2</ele>
        <time>2022-05-24T09:04:52Z</time>
      </trkpt>
      <trkpt lat="44.86432" lon="1.72542">
        <ele>324.1</ele>
        <time>2022-05-24T09:04:53Z</time>
      </trkpt>
      <trkpt lat="44.86428" lon="1.72541">
        <ele>324</ele>
        <time>2022-05-24T09:04:54Z</time>
      </trkpt>
      <trkpt lat="44.86423" lon="1.72539">
        <ele>324</ele>
        <time>2022-05-24T09:04:55Z</time>
      </trkpt>
      <trkpt lat="44.86417" lon="1.72537">
        <ele>324</ele>
        <time>2022-05-24T09:04:56Z</time>
      </trkpt>
      <trkpt lat="44.86412" lon="1.72536">
        <ele>324</ele>
        <time>2022-05-24T09:04:57Z</time>
      </trkpt>
      <trkpt lat="44.86407" lon="1.72535">
        <ele>324</ele>
        <time>2022-05-24T09:04:58Z</time>
      </trkpt>
      <trkpt lat="44.86403" lon="1.72533">
        <ele>323.9</ele>
        <time>2022-05-24T09:04:59Z</time>
      </trkpt>
      <trkpt lat="44.86398" lon="1.72531">
        <ele>323.9</ele>
        <time>2022-05-24T09:05:00Z</time>
      </trkpt>
      <trkpt lat="44.86393" lon="1.72528">
        <ele>323.9</ele>
        <time>2022-05-24T09:05:01Z</time>
      </trkpt>
      <trkpt lat="44.86388" lon="1.72526">
        <ele>324</ele>
        <time>2022-05-24T09:05:02Z</time>
      </trkpt>
      <trkpt lat="44.86382" lon="1.72524">
        <ele>324</ele>
        <time>2022-05-24T09:05:03Z</time>
      </trkpt>
      <trkpt lat="44.86375" lon="1.72522">
        <ele>324</ele>
        <time>2022-05-24T09:05:04Z</time>
      </trkpt>
      <trkpt lat="44.8637" lon="1.7252">
        <ele>324</ele>
        <time>2022-05-24T09:05:05Z</time>
      </trkpt>
      <trkpt lat="44.86365" lon="1.72518">
        <ele>324</ele>
        <time>2022-05-24T09:05:06Z</time>
      </trkpt>
      <trkpt lat="44.86359" lon="1.72517">
        <ele>324.1</ele>
        <time>2022-05-24T09:05:07Z</time>
      </trkpt>
      <trkpt lat="44.86354" lon="1.72515">
        <ele>324.1</ele>
        <time>2022-05-24T09:05:08Z</time>
      </trkpt>
      <trkpt lat="44.8635" lon="1.72513">
        <ele>324.1</ele>
        <time>2022-05-24T09:05:09Z</time>
      </trkpt>
      <trkpt lat="44.86346" lon="1.72513">
        <ele>324.2</ele>
        <time>2022-05-24T09:05:10Z</time>
      </trkpt>
      <trkpt lat="44.86342" lon="1.7251">
        <ele>324.3</ele>
        <time>2022-05-24T09:05:11Z</time>
      </trkpt>
      <trkpt lat="44.86337" lon="1.72508">
        <ele>324.4</ele>
        <time>2022-05-24T09:05:12Z</time>
      </trkpt>
      <trkpt lat="44.86333" lon="1.72506">
        <ele>324.5</ele>
        <time>2022-05-24T09:05:13Z</time>
      </trkpt>
      <trkpt lat="44.86329" lon="1.72504">
        <ele>324.5</ele>
        <time>2022-05-24T09:05:14Z</time>
      </trkpt>
      <trkpt lat="44.86324" lon="1.72504">
        <ele>324.6</ele>
        <time>2022-05-24T09:05:15Z</time>
      </trkpt>
      <trkpt lat="44.86318" lon="1.72505">
        <ele>324.7</ele>
        <time>2022-05-24T09:05:16Z</time>
      </trkpt>
      <trkpt lat="44.86313" lon="1.72504">
        <ele>324.8</ele>
        <time>2022-05-24T09:05:17Z</time>
      </trkpt>
      <trkpt lat="44.86309" lon="1.72503">
        <ele>324.9</ele>
        <time>2022-05-24T09:05:18Z</time>
      </trkpt>
      <trkpt lat="44.86305" lon="1.72499">
        <ele>324.9</ele>
        <time>2022-05-24T09:05:19Z</time>
      </trkpt>
      <trkpt lat="44.86299" lon="1.72496">
        <ele>325</ele>
        <time>2022-05-24T09:05:20Z</time>
      </trkpt>
      <trkpt lat="44.86293" lon="1.72493">
        <ele>325.1</ele>
        <time>2022-05-24T09:05:21Z</time>
      </trkpt>
      <trkpt lat="44.86287" lon="1.72492">
        <ele>325.2</ele>
        <time>2022-05-24T09:05:22Z</time>
      </trkpt>
      <trkpt lat="44.86282" lon="1.72491">
        <ele>325.2</ele>
        <time>2022-05-24T09:05:23Z</time>
      </trkpt>
      <trkpt lat="44.86278" lon="1.72489">
        <ele>325.2</ele>
        <time>2022-05-24T09:05:24Z</time>
      </trkpt>
      <trkpt lat="44.86272" lon="1.72487">
        <ele>325.1</ele>
        <time>2022-05-24T09:05:25Z</time>
      </trkpt>
      <trkpt lat="44.86267" lon="1.72484">
        <ele>325</ele>
        <time>2022-05-24T09:05:26Z</time>
      </trkpt>
      <trkpt lat="44.86262" lon="1.72481">
        <ele>324.9</ele>
        <time>2022-05-24T09:05:27Z</time>
      </trkpt>
      <trkpt lat="44.86257" lon="1.72479">
        <ele>324.9</ele>
        <time>2022-05-24T09:05:28Z</time>
      </trkpt>
      <trkpt lat="44.86251" lon="1.72476">
        <ele>324.8</ele>
        <time>2022-05-24T09:05:29Z</time>
      </trkpt>
      <trkpt lat="44.86245" lon="1.72474">
        <ele>324.7</ele>
        <time>2022-05-24T09:05:30Z</time>
      </trkpt>
      <trkpt lat="44.8624" lon="1.72473">
        <ele>324.6</ele>
        <time>2022-05-24T09:05:31Z</time>
      </trkpt>
      <trkpt lat="44.86234" lon="1.72471">
        <ele>324.4</ele>
        <time>2022-05-24T09:05:32Z</time>
      </trkpt>
      <trkpt lat="44.86228" lon="1.72469">
        <ele>324.3</ele>
        <time>2022-05-24T09:05:33Z</time>
      </trkpt>
      <trkpt lat="44.86222" lon="1.72467">
        <ele>324.1</ele>
        <time>2022-05-24T09:05:34Z</time>
      </trkpt>
      <trkpt lat="44.86216" lon="1.72465">
        <ele>323.9</ele>
        <time>2022-05-24T09:05:35Z</time>
      </trkpt>
      <trkpt lat="44.8621" lon="1.72462">
        <ele>323.7</ele>
        <time>2022-05-24T09:05:36Z</time>
      </trkpt>
      <trkpt lat="44.86203" lon="1.7246">
        <ele>323.4</ele>
        <time>2022-05-24T09:05:37Z</time>
      </trkpt>
      <trkpt lat="44.86197" lon="1.72457">
        <ele>323.1</ele>
        <time>2022-05-24T09:05:38Z</time>
      </trkpt>
      <trkpt lat="44.86191" lon="1.72454">
        <ele>322.8</ele>
        <time>2022-05-24T09:05:39Z</time>
      </trkpt>
      <trkpt lat="44.86185" lon="1.72452">
        <ele>322.5</ele>
        <time>2022-05-24T09:05:40Z</time>
      </trkpt>
      <trkpt lat="44.86179" lon="1.7245">
        <ele>322.2</ele>
        <time>2022-05-24T09:05:41Z</time>
      </trkpt>
      <trkpt lat="44.86173" lon="1.72449">
        <ele>321.9</ele>
        <time>2022-05-24T09:05:42Z</time>
      </trkpt>
      <trkpt lat="44.86167" lon="1.72448">
        <ele>321.6</ele>
        <time>2022-05-24T09:05:43Z</time>
      </trkpt>
      <trkpt lat="44.86161" lon="1.72447">
        <ele>321.3</ele>
        <time>2022-05-24T09:05:44Z</time>
      </trkpt>
      <trkpt lat="44.86156" lon="1.72445">
        <ele>321.1</ele>
        <time>2022-05-24T09:05:45Z</time>
      </trkpt>
      <trkpt lat="44.86149" lon="1.72443">
        <ele>320.7</ele>
        <time>2022-05-24T09:05:46Z</time>
      </trkpt>
      <trkpt lat="44.86141" lon="1.72442">
        <ele>320.4</ele>
        <time>2022-05-24T09:05:47Z</time>
      </trkpt>
      <trkpt lat="44.86134" lon="1.7244">
        <ele>320.1</ele>
        <time>2022-05-24T09:05:48Z</time>
      </trkpt>
      <trkpt lat="44.86127" lon="1.72439">
        <ele>319.8</ele>
        <time>2022-05-24T09:05:49Z</time>
      </trkpt>
      <trkpt lat="44.86121" lon="1.72437">
        <ele>319.5</ele>
        <time>2022-05-24T09:05:50Z</time>
      </trkpt>
      <trkpt lat="44.86115" lon="1.72436">
        <ele>319.3</ele>
        <time>2022-05-24T09:05:51Z</time>
      </trkpt>
      <trkpt lat="44.86109" lon="1.72434">
        <ele>319</ele>
        <time>2022-05-24T09:05:52Z</time>
      </trkpt>
      <trkpt lat="44.86102" lon="1.72433">
        <ele>318.7</ele>
        <time>2022-05-24T09:05:53Z</time>
      </trkpt>
      <trkpt lat="44.86097" lon="1.72432">
        <ele>318.6</ele>
        <time>2022-05-24T09:05:54Z</time>
      </trkpt>
      <trkpt lat="44.8609" lon="1.72431">
        <ele>318.5</ele>
        <time>2022-05-24T09:05:55Z</time>
      </trkpt>
      <trkpt lat="44.86084" lon="1.72429">
        <ele>318.4</ele>
        <time>2022-05-24T09:05:56Z</time>
      </trkpt>
      <trkpt lat="44.86079" lon="1.72428">
        <ele>318.4</ele>
        <time>2022-05-24T09:05:57Z</time>
      </trkpt>
      <trkpt lat="44.86073" lon="1.72425">
        <ele>318.5</ele>
        <time>2022-05-24T09:05:58Z</time>
      </trkpt>
      <trkpt lat="44.86067" lon="1.72422">
        <ele>318.6</ele>
        <time>2022-05-24T09:05:59Z</time>
      </trkpt>
      <trkpt lat="44.86062" lon="1.7242">
        <ele>318.6</ele>
        <time>2022-05-24T09:06:00Z</time>
      </trkpt>
      <trkpt lat="44.86057" lon="1.72419">
        <ele>318.7</ele>
        <time>2022-05-24T09:06:01Z</time>
      </trkpt>
      <trkpt lat="44.86054" lon="1.72416">
        <ele>318.8</ele>
        <time>2022-05-24T09:06:02Z</time>
      </trkpt>
      <trkpt lat="44.8605" lon="1.72414">
        <ele>318.8</ele>
        <time>2022-05-24T09:06:03Z</time>
      </trkpt>
      <trkpt lat="44.86045" lon="1.72413">
        <ele>318.9</ele>
        <time>2022-05-24T09:06:04Z</time>
      </trkpt>
      <trkpt lat="44.86039" lon="1.72411">
        <ele>319</ele>
        <time>2022-05-24T09:06:05Z</time>
      </trkpt>
      <trkpt lat="44.86034" lon="1.72408">
        <ele>319.2</ele>
        <time>2022-05-24T09:06:06Z</time>
      </trkpt>
      <trkpt lat="44.86029" lon="1.72407">
        <ele>319.4</ele>
        <time>2022-05-24T09:06:07Z</time>
      </trkpt>
      <trkpt lat="44.86023" lon="1.72405">
        <ele>319.6</ele>
        <time>2022-05-24T09:06:08Z</time>
      </trkpt>
      <trkpt lat="44.86017" lon="1.72404">
        <ele>320</ele>
        <time>2022-05-24T09:06:09Z</time>
      </trkpt>
      <trkpt lat="44.86012" lon="1.72404">
        <ele>320.4</ele>
        <time>2022-05-24T09:06:10Z</time>
      </trkpt>
      <trkpt lat="44.86009" lon="1.72404">
        <ele>320.6</ele>
        <time>2022-05-24T09:06:11Z</time>
      </trkpt>
      <trkpt lat="44.86005" lon="1.72404">
        <ele>320.9</ele>
        <time>2022-05-24T09:06:12Z</time>
      </trkpt>
      <trkpt lat="44.86003" lon="1.72405">
        <ele>321</ele>
        <time>2022-05-24T09:06:13Z</time>
      </trkpt>
      <trkpt lat="44.86" lon="1.72402">
        <ele>321.3</ele>
        <time>2022-05-24T09:06:14Z</time>
      </trkpt>
      <trkpt lat="44.85996" lon="1.72401">
        <ele>321.5</ele>
        <time>2022-05-24T09:06:15Z</time>
      </trkpt>
      <trkpt lat="44.85994" lon="1.72401">
        <ele>321.6</ele>
        <time>2022-05-24T09:06:16Z</time>
      </trkpt>
      <trkpt lat="44.85992" lon="1.72401">
        <ele>321.8</ele>
        <time>2022-05-24T09:06:17Z</time>
      </trkpt>
      <trkpt lat="44.85988" lon="1.72401">
        <ele>322</ele>
        <time>2022-05-24T09:06:18Z</time>
      </trkpt>
      <trkpt lat="44.85984" lon="1.72401">
        <ele>322.2</ele>
        <time>2022-05-24T09:06:19Z</time>
      </trkpt>
      <trkpt lat="44.85981" lon="1.724">
        <ele>322.3</ele>
        <time>2022-05-24T09:06:20Z</time>
      </trkpt>
      <trkpt lat="44.85977" lon="1.724">
        <ele>322.4</ele>
        <time>2022-05-24T09:06:21Z</time>
      </trkpt>
      <trkpt lat="44.85972" lon="1.724">
        <ele>322.6</ele>
        <time>2022-05-24T09:06:22Z</time>
      </trkpt>
      <trkpt lat="44.85968" lon="1.72399">
        <ele>322.7</ele>
        <time>2022-05-24T09:06:23Z</time>
      </trkpt>
      <trkpt lat="44.85964" lon="1.72399">
        <ele>322.9</ele>
        <time>2022-05-24T09:06:24Z</time>
      </trkpt>
      <trkpt lat="44.85959" lon="1.72399">
        <ele>323</ele>
        <time>2022-05-24T09:06:25Z</time>
      </trkpt>
      <trkpt lat="44.85955" lon="1.72399">
        <ele>323.2</ele>
        <time>2022-05-24T09:06:26Z</time>
      </trkpt>
      <trkpt lat="44.85951" lon="1.72399">
        <ele>323.3</ele>
        <time>2022-05-24T09:06:27Z</time>
      </trkpt>
      <trkpt lat="44.85946" lon="1.724">
        <ele>323.5</ele>
        <time>2022-05-24T09:06:28Z</time>
      </trkpt>
      <trkpt lat="44.85943" lon="1.724">
        <ele>323.6</ele>
        <time>2022-05-24T09:06:29Z</time>
      </trkpt>
      <trkpt lat="44.85939" lon="1.724">
        <ele>323.8</ele>
        <time>2022-05-24T09:06:30Z</time>
      </trkpt>
      <trkpt lat="44.85934" lon="1.724">
        <ele>323.9</ele>
        <time>2022-05-24T09:06:31Z</time>
      </trkpt>
      <trkpt lat="44.8593" lon="1.72399">
        <ele>324.1</ele>
        <time>2022-05-24T09:06:32Z</time>
      </trkpt>
      <trkpt lat="44.85926" lon="1.72399">
        <ele>324.3</ele>
        <time>2022-05-24T09:06:33Z</time>
      </trkpt>
      <trkpt lat="44.85923" lon="1.72398">
        <ele>324.5</ele>
        <time>2022-05-24T09:06:34Z</time>
      </trkpt>
      <trkpt lat="44.85919" lon="1.72397">
        <ele>324.6</ele>
        <time>2022-05-24T09:06:35Z</time>
      </trkpt>
      <trkpt lat="44.85915" lon="1.72395">
        <ele>324.8</ele>
        <time>2022-05-24T09:06:36Z</time>
      </trkpt>
      <trkpt lat="44.85911" lon="1.72393">
        <ele>325</ele>
        <time>2022-05-24T09:06:37Z</time>
      </trkpt>
      <trkpt lat="44.85907" lon="1.72391">
        <ele>325.2</ele>
        <time>2022-05-24T09:06:38Z</time>
      </trkpt>
      <trkpt lat="44.85903" lon="1.7239">
        <ele>325.4</ele>
        <time>2022-05-24T09:06:39Z</time>
      </trkpt>
      <trkpt lat="44.85899" lon="1.72388">
        <ele>325.7</ele>
        <time>2022-05-24T09:06:40Z</time>
      </trkpt>
      <trkpt lat="44.85894" lon="1.72387">
        <ele>325.9</ele>
        <time>2022-05-24T09:06:41Z</time>
      </trkpt>
      <trkpt lat="44.8589" lon="1.72386">
        <ele>326.1</ele>
        <time>2022-05-24T09:06:42Z</time>
      </trkpt>
      <trkpt lat="44.85886" lon="1.72385">
        <ele>326.4</ele>
        <time>2022-05-24T09:06:43Z</time>
      </trkpt>
      <trkpt lat="44.85882" lon="1.72384">
        <ele>326.6</ele>
        <time>2022-05-24T09:06:44Z</time>
      </trkpt>
      <trkpt lat="44.85878" lon="1.72384">
        <ele>326.8</ele>
        <time>2022-05-24T09:06:45Z</time>
      </trkpt>
      <trkpt lat="44.85874" lon="1.72383">
        <ele>327</ele>
        <time>2022-05-24T09:06:46Z</time>
      </trkpt>
      <trkpt lat="44.8587" lon="1.72382">
        <ele>327.2</ele>
        <time>2022-05-24T09:06:47Z</time>
      </trkpt>
      <trkpt lat="44.85867" lon="1.72382">
        <ele>327.4</ele>
        <time>2022-05-24T09:06:48Z</time>
      </trkpt>
      <trkpt lat="44.85863" lon="1.72382">
        <ele>327.6</ele>
        <time>2022-05-24T09:06:49Z</time>
      </trkpt>
      <trkpt lat="44.8586" lon="1.72382">
        <ele>327.9</ele>
        <time>2022-05-24T09:06:50Z</time>
      </trkpt>
      <trkpt lat="44.85857" lon="1.72382">
        <ele>328.1</ele>
        <time>2022-05-24T09:06:51Z</time>
      </trkpt>
      <trkpt lat="44.85854" lon="1.72383">
        <ele>328.3</ele>
        <time>2022-05-24T09:06:52Z</time>
      </trkpt>
      <trkpt lat="44.85851" lon="1.72383">
        <ele>328.5</ele>
        <time>2022-05-24T09:06:53Z</time>
      </trkpt>
      <trkpt lat="44.85847" lon="1.72383">
        <ele>328.8</ele>
        <time>2022-05-24T09:06:54Z</time>
      </trkpt>
      <trkpt lat="44.85844" lon="1.72384">
        <ele>329.1</ele>
        <time>2022-05-24T09:06:55Z</time>
      </trkpt>
      <trkpt lat="44.8584" lon="1.72385">
        <ele>329.4</ele>
        <time>2022-05-24T09:06:56Z</time>
      </trkpt>
      <trkpt lat="44.85836" lon="1.72386">
        <ele>329.7</ele>
        <time>2022-05-24T09:06:57Z</time>
      </trkpt>
      <trkpt lat="44.85833" lon="1.72387">
        <ele>330</ele>
        <time>2022-05-24T09:06:58Z</time>
      </trkpt>
      <trkpt lat="44.8583" lon="1.72388">
        <ele>330.2</ele>
        <time>2022-05-24T09:06:59Z</time>
      </trkpt>
      <trkpt lat="44.85826" lon="1.7239">
        <ele>330.5</ele>
        <time>2022-05-24T09:07:00Z</time>
      </trkpt>
      <trkpt lat="44.85823" lon="1.72391">
        <ele>330.8</ele>
        <time>2022-05-24T09:07:01Z</time>
      </trkpt>
      <trkpt lat="44.85819" lon="1.72392">
        <ele>331.1</ele>
        <time>2022-05-24T09:07:02Z</time>
      </trkpt>
      <trkpt lat="44.85816" lon="1.72393">
        <ele>331.3</ele>
        <time>2022-05-24T09:07:03Z</time>
      </trkpt>
      <trkpt lat="44.85813" lon="1.72394">
        <ele>331.6</ele>
        <time>2022-05-24T09:07:04Z</time>
      </trkpt>
      <trkpt lat="44.85809" lon="1.72394">
        <ele>331.9</ele>
        <time>2022-05-24T09:07:05Z</time>
      </trkpt>
      <trkpt lat="44.85808" lon="1.72394">
        <ele>332</ele>
        <time>2022-05-24T09:07:06Z</time>
      </trkpt>
      <trkpt lat="44.85807" lon="1.72394">
        <ele>332.2</ele>
        <time>2022-05-24T09:07:07Z</time>
      </trkpt>
      <trkpt lat="44.85806" lon="1.72395">
        <ele>332.5</ele>
        <time>2022-05-24T09:07:08Z</time>
      </trkpt>
      <trkpt lat="44.85806" lon="1.72398">
        <ele>332.4</ele>
        <time>2022-05-24T09:07:09Z</time>
      </trkpt>
      <trkpt lat="44.85806" lon="1.72401">
        <ele>332.3</ele>
        <time>2022-05-24T09:07:10Z</time>
      </trkpt>
      <trkpt lat="44.85808" lon="1.72406">
        <ele>332.1</ele>
        <time>2022-05-24T09:07:11Z</time>
      </trkpt>
      <trkpt lat="44.85809" lon="1.72411">
        <ele>331.9</ele>
        <time>2022-05-24T09:07:12Z</time>
      </trkpt>
      <trkpt lat="44.85811" lon="1.72416">
        <ele>331.8</ele>
        <time>2022-05-24T09:07:13Z</time>
      </trkpt>
      <trkpt lat="44.85812" lon="1.7242">
        <ele>331.7</ele>
        <time>2022-05-24T09:07:14Z</time>
      </trkpt>
      <trkpt lat="44.85812" lon="1.72425">
        <ele>331.5</ele>
        <time>2022-05-24T09:07:15Z</time>
      </trkpt>
      <trkpt lat="44.85813" lon="1.72431">
        <ele>331.4</ele>
        <time>2022-05-24T09:07:16Z</time>
      </trkpt>
      <trkpt lat="44.85813" lon="1.72436">
        <ele>331.3</ele>
        <time>2022-05-24T09:07:17Z</time>
      </trkpt>
      <trkpt lat="44.85814" lon="1.72441">
        <ele>331.2</ele>
        <time>2022-05-24T09:07:18Z</time>
      </trkpt>
      <trkpt lat="44.85814" lon="1.72447">
        <ele>331.1</ele>
        <time>2022-05-24T09:07:19Z</time>
      </trkpt>
      <trkpt lat="44.85815" lon="1.72452">
        <ele>331</ele>
        <time>2022-05-24T09:07:20Z</time>
      </trkpt>
      <trkpt lat="44.85816" lon="1.72458">
        <ele>330.9</ele>
        <time>2022-05-24T09:07:21Z</time>
      </trkpt>
      <trkpt lat="44.85816" lon="1.72464">
        <ele>330.8</ele>
        <time>2022-05-24T09:07:22Z</time>
      </trkpt>
      <trkpt lat="44.85816" lon="1.7247">
        <ele>330.6</ele>
        <time>2022-05-24T09:07:23Z</time>
      </trkpt>
      <trkpt lat="44.85817" lon="1.72477">
        <ele>330.5</ele>
        <time>2022-05-24T09:07:24Z</time>
      </trkpt>
      <trkpt lat="44.85817" lon="1.72483">
        <ele>330.4</ele>
        <time>2022-05-24T09:07:25Z</time>
      </trkpt>
      <trkpt lat="44.85817" lon="1.72489">
        <ele>330.2</ele>
        <time>2022-05-24T09:07:26Z</time>
      </trkpt>
      <trkpt lat="44.85818" lon="1.72495">
        <ele>330.1</ele>
        <time>2022-05-24T09:07:27Z</time>
      </trkpt>
      <trkpt lat="44.85818" lon="1.725">
        <ele>330</ele>
        <time>2022-05-24T09:07:28Z</time>
      </trkpt>
      <trkpt lat="44.85819" lon="1.72504">
        <ele>329.9</ele>
        <time>2022-05-24T09:07:29Z</time>
      </trkpt>
      <trkpt lat="44.8582" lon="1.72509">
        <ele>329.8</ele>
        <time>2022-05-24T09:07:30Z</time>
      </trkpt>
      <trkpt lat="44.8582" lon="1.72514">
        <ele>329.7</ele>
        <time>2022-05-24T09:07:31Z</time>
      </trkpt>
      <trkpt lat="44.85821" lon="1.72519">
        <ele>329.6</ele>
        <time>2022-05-24T09:07:32Z</time>
      </trkpt>
      <trkpt lat="44.85821" lon="1.72524">
        <ele>329.5</ele>
        <time>2022-05-24T09:07:33Z</time>
      </trkpt>
      <trkpt lat="44.85821" lon="1.72529">
        <ele>329.4</ele>
        <time>2022-05-24T09:07:34Z</time>
      </trkpt>
      <trkpt lat="44.85822" lon="1.72534">
        <ele>329.3</ele>
        <time>2022-05-24T09:07:35Z</time>
      </trkpt>
      <trkpt lat="44.85822" lon="1.72539">
        <ele>329.2</ele>
        <time>2022-05-24T09:07:36Z</time>
      </trkpt>
      <trkpt lat="44.85823" lon="1.72545">
        <ele>329.2</ele>
        <time>2022-05-24T09:07:37Z</time>
      </trkpt>
      <trkpt lat="44.85824" lon="1.72551">
        <ele>329.1</ele>
        <time>2022-05-24T09:07:38Z</time>
      </trkpt>
      <trkpt lat="44.85825" lon="1.72558">
        <ele>329</ele>
        <time>2022-05-24T09:07:39Z</time>
      </trkpt>
      <trkpt lat="44.85825" lon="1.72565">
        <ele>329</ele>
        <time>2022-05-24T09:07:40Z</time>
      </trkpt>
      <trkpt lat="44.85825" lon="1.7257">
        <ele>329</ele>
        <time>2022-05-24T09:07:41Z</time>
      </trkpt>
      <trkpt lat="44.85826" lon="1.72575">
        <ele>328.9</ele>
        <time>2022-05-24T09:07:42Z</time>
      </trkpt>
      <trkpt lat="44.85826" lon="1.72581">
        <ele>328.9</ele>
        <time>2022-05-24T09:07:43Z</time>
      </trkpt>
      <trkpt lat="44.85827" lon="1.72587">
        <ele>328.9</ele>
        <time>2022-05-24T09:07:44Z</time>
      </trkpt>
      <trkpt lat="44.85827" lon="1.72593">
        <ele>328.9</ele>
        <time>2022-05-24T09:07:45Z</time>
      </trkpt>
      <trkpt lat="44.85827" lon="1.726">
        <ele>328.9</ele>
        <time>2022-05-24T09:07:46Z</time>
      </trkpt>
      <trkpt lat="44.85827" lon="1.72606">
        <ele>328.9</ele>
        <time>2022-05-24T09:07:47Z</time>
      </trkpt>
      <trkpt lat="44.85827" lon="1.72612">
        <ele>329</ele>
        <time>2022-05-24T09:07:48Z</time>
      </trkpt>
      <trkpt lat="44.85828" lon="1.72621">
        <ele>329.1</ele>
        <time>2022-05-24T09:07:49Z</time>
      </trkpt>
      <trkpt lat="44.85829" lon="1.72628">
        <ele>329.1</ele>
        <time>2022-05-24T09:07:50Z</time>
      </trkpt>
      <trkpt lat="44.8583" lon="1.72635">
        <ele>329.1</ele>
        <time>2022-05-24T09:07:51Z</time>
      </trkpt>
      <trkpt lat="44.85832" lon="1.72641">
        <ele>329.2</ele>
        <time>2022-05-24T09:07:52Z</time>
      </trkpt>
      <trkpt lat="44.85832" lon="1.72647">
        <ele>329.2</ele>
        <time>2022-05-24T09:07:53Z</time>
      </trkpt>
      <trkpt lat="44.85834" lon="1.72652">
        <ele>329.3</ele>
        <time>2022-05-24T09:07:54Z</time>
      </trkpt>
      <trkpt lat="44.85833" lon="1.72657">
        <ele>329.3</ele>
        <time>2022-05-24T09:07:55Z</time>
      </trkpt>
      <trkpt lat="44.85834" lon="1.72663">
        <ele>329.4</ele>
        <time>2022-05-24T09:07:56Z</time>
      </trkpt>
      <trkpt lat="44.85835" lon="1.72669">
        <ele>329.5</ele>
        <time>2022-05-24T09:07:57Z</time>
      </trkpt>
      <trkpt lat="44.85836" lon="1.72674">
        <ele>329.5</ele>
        <time>2022-05-24T09:07:58Z</time>
      </trkpt>
      <trkpt lat="44.85838" lon="1.72679">
        <ele>329.6</ele>
        <time>2022-05-24T09:07:59Z</time>
      </trkpt>
      <trkpt lat="44.85839" lon="1.72683">
        <ele>329.7</ele>
        <time>2022-05-24T09:08:00Z</time>
      </trkpt>
      <trkpt lat="44.8584" lon="1.72689">
        <ele>329.8</ele>
        <time>2022-05-24T09:08:01Z</time>
      </trkpt>
      <trkpt lat="44.85841" lon="1.72695">
        <ele>329.9</ele>
        <time>2022-05-24T09:08:02Z</time>
      </trkpt>
      <trkpt lat="44.85843" lon="1.72701">
        <ele>330.1</ele>
        <time>2022-05-24T09:08:03Z</time>
      </trkpt>
      <trkpt lat="44.85844" lon="1.72705">
        <ele>330.2</ele>
        <time>2022-05-24T09:08:04Z</time>
      </trkpt>
      <trkpt lat="44.85845" lon="1.72709">
        <ele>330.3</ele>
        <time>2022-05-24T09:08:05Z</time>
      </trkpt>
      <trkpt lat="44.85846" lon="1.72714">
        <ele>330.3</ele>
        <time>2022-05-24T09:08:06Z</time>
      </trkpt>
      <trkpt lat="44.85848" lon="1.72718">
        <ele>330.4</ele>
        <time>2022-05-24T09:08:07Z</time>
      </trkpt>
      <trkpt lat="44.85849" lon="1.72723">
        <ele>330.5</ele>
        <time>2022-05-24T09:08:08Z</time>
      </trkpt>
      <trkpt lat="44.85851" lon="1.72728">
        <ele>330.7</ele>
        <time>2022-05-24T09:08:09Z</time>
      </trkpt>
      <trkpt lat="44.85852" lon="1.72733">
        <ele>330.8</ele>
        <time>2022-05-24T09:08:10Z</time>
      </trkpt>
      <trkpt lat="44.85854" lon="1.72739">
        <ele>331</ele>
        <time>2022-05-24T09:08:11Z</time>
      </trkpt>
      <trkpt lat="44.85855" lon="1.72744">
        <ele>331.1</ele>
        <time>2022-05-24T09:08:12Z</time>
      </trkpt>
      <trkpt lat="44.85857" lon="1.72749">
        <ele>331.3</ele>
        <time>2022-05-24T09:08:13Z</time>
      </trkpt>
      <trkpt lat="44.85858" lon="1.72753">
        <ele>331.4</ele>
        <time>2022-05-24T09:08:14Z</time>
      </trkpt>
      <trkpt lat="44.85859" lon="1.72757">
        <ele>331.5</ele>
        <time>2022-05-24T09:08:15Z</time>
      </trkpt>
      <trkpt lat="44.85861" lon="1.72761">
        <ele>331.7</ele>
        <time>2022-05-24T09:08:16Z</time>
      </trkpt>
      <trkpt lat="44.85862" lon="1.72765">
        <ele>331.8</ele>
        <time>2022-05-24T09:08:17Z</time>
      </trkpt>
      <trkpt lat="44.85863" lon="1.72769">
        <ele>332</ele>
        <time>2022-05-24T09:08:18Z</time>
      </trkpt>
      <trkpt lat="44.85863" lon="1.72774">
        <ele>332.1</ele>
        <time>2022-05-24T09:08:19Z</time>
      </trkpt>
      <trkpt lat="44.85864" lon="1.72778">
        <ele>332.3</ele>
        <time>2022-05-24T09:08:20Z</time>
      </trkpt>
      <trkpt lat="44.85864" lon="1.72782">
        <ele>332.4</ele>
        <time>2022-05-24T09:08:21Z</time>
      </trkpt>
      <trkpt lat="44.85864" lon="1.72787">
        <ele>332.5</ele>
        <time>2022-05-24T09:08:22Z</time>
      </trkpt>
      <trkpt lat="44.85865" lon="1.72792">
        <ele>332.7</ele>
        <time>2022-05-24T09:08:23Z</time>
      </trkpt>
      <trkpt lat="44.85866" lon="1.72797">
        <ele>332.8</ele>
        <time>2022-05-24T09:08:24Z</time>
      </trkpt>
      <trkpt lat="44.85866" lon="1.72801">
        <ele>332.9</ele>
        <time>2022-05-24T09:08:25Z</time>
      </trkpt>
      <trkpt lat="44.85866" lon="1.72805">
        <ele>333.1</ele>
        <time>2022-05-24T09:08:26Z</time>
      </trkpt>
      <trkpt lat="44.85866" lon="1.7281">
        <ele>333.2</ele>
        <time>2022-05-24T09:08:27Z</time>
      </trkpt>
      <trkpt lat="44.85865" lon="1.72814">
        <ele>333.3</ele>
        <time>2022-05-24T09:08:28Z</time>
      </trkpt>
      <trkpt lat="44.85863" lon="1.72819">
        <ele>333.5</ele>
        <time>2022-05-24T09:08:29Z</time>
      </trkpt>
      <trkpt lat="44.85863" lon="1.72821">
        <ele>333.6</ele>
        <time>2022-05-24T09:08:30Z</time>
      </trkpt>
      <trkpt lat="44.85862" lon="1.72825">
        <ele>333.7</ele>
        <time>2022-05-24T09:08:31Z</time>
      </trkpt>
      <trkpt lat="44.8586" lon="1.72828">
        <ele>333.9</ele>
        <time>2022-05-24T09:08:32Z</time>
      </trkpt>
      <trkpt lat="44.85859" lon="1.72832">
        <ele>334.1</ele>
        <time>2022-05-24T09:08:33Z</time>
      </trkpt>
      <trkpt lat="44.85858" lon="1.72836">
        <ele>334.3</ele>
        <time>2022-05-24T09:08:34Z</time>
      </trkpt>
      <trkpt lat="44.85856" lon="1.7284">
        <ele>334.6</ele>
        <time>2022-05-24T09:08:35Z</time>
      </trkpt>
      <trkpt lat="44.85854" lon="1.72844">
        <ele>334.8</ele>
        <time>2022-05-24T09:08:36Z</time>
      </trkpt>
      <trkpt lat="44.85852" lon="1.72848">
        <ele>335</ele>
        <time>2022-05-24T09:08:37Z</time>
      </trkpt>
      <trkpt lat="44.85851" lon="1.72851">
        <ele>335.2</ele>
        <time>2022-05-24T09:08:38Z</time>
      </trkpt>
      <trkpt lat="44.85849" lon="1.72855">
        <ele>335.5</ele>
        <time>2022-05-24T09:08:39Z</time>
      </trkpt>
      <trkpt lat="44.85848" lon="1.72857">
        <ele>335.6</ele>
        <time>2022-05-24T09:08:40Z</time>
      </trkpt>
      <trkpt lat="44.85847" lon="1.72862">
        <ele>335.9</ele>
        <time>2022-05-24T09:08:41Z</time>
      </trkpt>
      <trkpt lat="44.85846" lon="1.72863">
        <ele>336</ele>
        <time>2022-05-24T09:08:42Z</time>
      </trkpt>
      <trkpt lat="44.85845" lon="1.72868">
        <ele>336.3</ele>
        <time>2022-05-24T09:08:43Z</time>
      </trkpt>
      <trkpt lat="44.85844" lon="1.7287">
        <ele>336.3</ele>
        <time>2022-05-24T09:08:44Z</time>
      </trkpt>
      <trkpt lat="44.85838" lon="1.72881">
        <ele>337</ele>
        <time>2022-05-24T09:08:49Z</time>
      </trkpt>
      <trkpt lat="44.85834" lon="1.72888">
        <ele>337.4</ele>
        <time>2022-05-24T09:08:50Z</time>
      </trkpt>
      <trkpt lat="44.85831" lon="1.72892">
        <ele>337.7</ele>
        <time>2022-05-24T09:08:51Z</time>
      </trkpt>
      <trkpt lat="44.85828" lon="1.72895">
        <ele>337.9</ele>
        <time>2022-05-24T09:08:52Z</time>
      </trkpt>
      <trkpt lat="44.85828" lon="1.72895">
        <ele>338</ele>
        <time>2022-05-24T09:08:53Z</time>
      </trkpt>
      <trkpt lat="44.85826" lon="1.72896">
        <ele>338.1</ele>
        <time>2022-05-24T09:08:54Z</time>
      </trkpt>
      <trkpt lat="44.85825" lon="1.72896">
        <ele>338.2</ele>
        <time>2022-05-24T09:08:55Z</time>
      </trkpt>
      <trkpt lat="44.85824" lon="1.72896">
        <ele>338.3</ele>
        <time>2022-05-24T09:08:56Z</time>
      </trkpt>
      <trkpt lat="44.85823" lon="1.72895">
        <ele>338.4</ele>
        <time>2022-05-24T09:08:57Z</time>
      </trkpt>
      <trkpt lat="44.85821" lon="1.72895">
        <ele>338.5</ele>
        <time>2022-05-24T09:08:58Z</time>
      </trkpt>
      <trkpt lat="44.8582" lon="1.72895">
        <ele>338.7</ele>
        <time>2022-05-24T09:08:59Z</time>
      </trkpt>
      <trkpt lat="44.85818" lon="1.72895">
        <ele>338.8</ele>
        <time>2022-05-24T09:09:00Z</time>
      </trkpt>
      <trkpt lat="44.85817" lon="1.72895">
        <ele>338.9</ele>
        <time>2022-05-24T09:09:01Z</time>
      </trkpt>
      <trkpt lat="44.85817" lon="1.72895">
        <ele>338.9</ele>
        <time>2022-05-24T09:09:02Z</time>
      </trkpt>
      <trkpt lat="44.85816" lon="1.72894">
        <ele>338.9</ele>
        <time>2022-05-24T09:09:03Z</time>
      </trkpt>
      <trkpt lat="44.85816" lon="1.72894">
        <ele>339</ele>
        <time>2022-05-24T09:09:04Z</time>
      </trkpt>
      <trkpt lat="44.85816" lon="1.72894">
        <ele>339</ele>
        <time>2022-05-24T09:09:05Z</time>
      </trkpt>
      <trkpt lat="44.85816" lon="1.72894">
        <ele>339</ele>
        <time>2022-05-24T09:09:06Z</time>
      </trkpt>
      <trkpt lat="44.85815" lon="1.72894">
        <ele>339</ele>
        <time>2022-05-24T09:09:07Z</time>
      </trkpt>
      <trkpt lat="44.85815" lon="1.72894">
        <ele>339</ele>
        <time>2022-05-24T09:09:08Z</time>
      </trkpt>
      <trkpt lat="44.85815" lon="1.72894">
        <ele>339.1</ele>
        <time>2022-05-24T09:09:09Z</time>
      </trkpt>
      <trkpt lat="44.85815" lon="1.72894">
        <ele>339.1</ele>
        <time>2022-05-24T09:09:10Z</time>
      </trkpt>
      <trkpt lat="44.85814" lon="1.72894">
        <ele>339.1</ele>
        <time>2022-05-24T09:09:11Z</time>
      </trkpt>
      <trkpt lat="44.85814" lon="1.72894">
        <ele>339.1</ele>
        <time>2022-05-24T09:09:12Z</time>
      </trkpt>
      <trkpt lat="44.85814" lon="1.72894">
        <ele>339.2</ele>
        <time>2022-05-24T09:09:13Z</time>
      </trkpt>
      <trkpt lat="44.85814" lon="1.72893">
        <ele>339.2</ele>
        <time>2022-05-24T09:09:14Z</time>
      </trkpt>
      <trkpt lat="44.85813" lon="1.72893">
        <ele>339.2</ele>
        <time>2022-05-24T09:09:15Z</time>
      </trkpt>
      <trkpt lat="44.85813" lon="1.72893">
        <ele>339.2</ele>
        <time>2022-05-24T09:09:16Z</time>
      </trkpt>
      <trkpt lat="44.85813" lon="1.72893">
        <ele>339.3</ele>
        <time>2022-05-24T09:09:17Z</time>
      </trkpt>
      <trkpt lat="44.85813" lon="1.72893">
        <ele>339.3</ele>
        <time>2022-05-24T09:09:18Z</time>
      </trkpt>
      <trkpt lat="44.85812" lon="1.72893">
        <ele>339.3</ele>
        <time>2022-05-24T09:09:19Z</time>
      </trkpt>
      <trkpt lat="44.85812" lon="1.72893">
        <ele>339.3</ele>
        <time>2022-05-24T09:09:59Z</time>
      </trkpt>
      <trkpt lat="44.85812" lon="1.72893">
        <ele>339.3</ele>
        <time>2022-05-24T09:10:00Z</time>
      </trkpt>
      <trkpt lat="44.85812" lon="1.72893">
        <ele>339.4</ele>
        <time>2022-05-24T09:10:01Z</time>
      </trkpt>
      <trkpt lat="44.85808" lon="1.72891">
        <ele>339.7</ele>
        <time>2022-05-24T09:10:02Z</time>
      </trkpt>
      <trkpt lat="44.85806" lon="1.72891">
        <ele>339.8</ele>
        <time>2022-05-24T09:10:03Z</time>
      </trkpt>
      <trkpt lat="44.85803" lon="1.7289">
        <ele>340.1</ele>
        <time>2022-05-24T09:10:04Z</time>
      </trkpt>
      <trkpt lat="44.858" lon="1.72889">
        <ele>340.4</ele>
        <time>2022-05-24T09:10:05Z</time>
      </trkpt>
      <trkpt lat="44.85797" lon="1.72888">
        <ele>340.6</ele>
        <time>2022-05-24T09:10:06Z</time>
      </trkpt>
      <trkpt lat="44.85794" lon="1.72887">
        <ele>340.9</ele>
        <time>2022-05-24T09:10:07Z</time>
      </trkpt>
      <trkpt lat="44.8579" lon="1.72887">
        <ele>341.2</ele>
        <time>2022-05-24T09:10:08Z</time>
      </trkpt>
      <trkpt lat="44.85787" lon="1.72886">
        <ele>341.4</ele>
        <time>2022-05-24T09:10:09Z</time>
      </trkpt>
      <trkpt lat="44.85783" lon="1.72886">
        <ele>341.7</ele>
        <time>2022-05-24T09:10:10Z</time>
      </trkpt>
      <trkpt lat="44.8578" lon="1.72886">
        <ele>341.9</ele>
        <time>2022-05-24T09:10:11Z</time>
      </trkpt>
      <trkpt lat="44.85777" lon="1.72885">
        <ele>342.1</ele>
        <time>2022-05-24T09:10:12Z</time>
      </trkpt>
      <trkpt lat="44.85774" lon="1.72885">
        <ele>342.3</ele>
        <time>2022-05-24T09:10:13Z</time>
      </trkpt>
      <trkpt lat="44.85771" lon="1.72884">
        <ele>342.6</ele>
        <time>2022-05-24T09:10:14Z</time>
      </trkpt>
      <trkpt lat="44.85768" lon="1.72883">
        <ele>342.8</ele>
        <time>2022-05-24T09:10:15Z</time>
      </trkpt>
      <trkpt lat="44.85765" lon="1.72882">
        <ele>343</ele>
        <time>2022-05-24T09:10:16Z</time>
      </trkpt>
      <trkpt lat="44.85761" lon="1.72882">
        <ele>343.2</ele>
        <time>2022-05-24T09:10:17Z</time>
      </trkpt>
      <trkpt lat="44.85758" lon="1.72881">
        <ele>343.4</ele>
        <time>2022-05-24T09:10:18Z</time>
      </trkpt>
      <trkpt lat="44.85755" lon="1.72881">
        <ele>343.7</ele>
        <time>2022-05-24T09:10:19Z</time>
      </trkpt>
      <trkpt lat="44.85752" lon="1.7288">
        <ele>343.9</ele>
        <time>2022-05-24T09:10:20Z</time>
      </trkpt>
      <trkpt lat="44.85748" lon="1.7288">
        <ele>344.1</ele>
        <time>2022-05-24T09:10:21Z</time>
      </trkpt>
      <trkpt lat="44.85745" lon="1.72879">
        <ele>344.3</ele>
        <time>2022-05-24T09:10:22Z</time>
      </trkpt>
      <trkpt lat="44.85742" lon="1.72879">
        <ele>344.6</ele>
        <time>2022-05-24T09:10:23Z</time>
      </trkpt>
      <trkpt lat="44.85739" lon="1.72879">
        <ele>344.8</ele>
        <time>2022-05-24T09:10:24Z</time>
      </trkpt>
      <trkpt lat="44.85735" lon="1.72879">
        <ele>345.1</ele>
        <time>2022-05-24T09:10:25Z</time>
      </trkpt>
      <trkpt lat="44.85732" lon="1.72879">
        <ele>345.3</ele>
        <time>2022-05-24T09:10:26Z</time>
      </trkpt>
      <trkpt lat="44.85728" lon="1.72879">
        <ele>345.6</ele>
        <time>2022-05-24T09:10:27Z</time>
      </trkpt>
      <trkpt lat="44.85725" lon="1.72879">
        <ele>345.8</ele>
        <time>2022-05-24T09:10:28Z</time>
      </trkpt>
      <trkpt lat="44.85722" lon="1.72879">
        <ele>346.1</ele>
        <time>2022-05-24T09:10:29Z</time>
      </trkpt>
      <trkpt lat="44.85719" lon="1.72879">
        <ele>346.4</ele>
        <time>2022-05-24T09:10:30Z</time>
      </trkpt>
      <trkpt lat="44.85716" lon="1.72878">
        <ele>346.6</ele>
        <time>2022-05-24T09:10:31Z</time>
      </trkpt>
      <trkpt lat="44.85713" lon="1.72877">
        <ele>346.8</ele>
        <time>2022-05-24T09:10:32Z</time>
      </trkpt>
      <trkpt lat="44.8571" lon="1.72875">
        <ele>347</ele>
        <time>2022-05-24T09:10:33Z</time>
      </trkpt>
      <trkpt lat="44.85708" lon="1.72872">
        <ele>347.2</ele>
        <time>2022-05-24T09:10:34Z</time>
      </trkpt>
      <trkpt lat="44.85705" lon="1.7287">
        <ele>347.4</ele>
        <time>2022-05-24T09:10:35Z</time>
      </trkpt>
      <trkpt lat="44.85703" lon="1.72868">
        <ele>347.6</ele>
        <time>2022-05-24T09:10:36Z</time>
      </trkpt>
      <trkpt lat="44.85701" lon="1.72866">
        <ele>347.8</ele>
        <time>2022-05-24T09:10:37Z</time>
      </trkpt>
      <trkpt lat="44.85698" lon="1.72865">
        <ele>348</ele>
        <time>2022-05-24T09:10:38Z</time>
      </trkpt>
      <trkpt lat="44.85695" lon="1.72863">
        <ele>348.2</ele>
        <time>2022-05-24T09:10:39Z</time>
      </trkpt>
      <trkpt lat="44.85692" lon="1.7286">
        <ele>348.4</ele>
        <time>2022-05-24T09:10:40Z</time>
      </trkpt>
      <trkpt lat="44.85691" lon="1.7286">
        <ele>348.4</ele>
        <time>2022-05-24T09:10:41Z</time>
      </trkpt>
      <trkpt lat="44.85688" lon="1.7286">
        <ele>348.6</ele>
        <time>2022-05-24T09:10:42Z</time>
      </trkpt>
      <trkpt lat="44.85686" lon="1.72861">
        <ele>348.7</ele>
        <time>2022-05-24T09:10:43Z</time>
      </trkpt>
      <trkpt lat="44.85684" lon="1.72864">
        <ele>348.9</ele>
        <time>2022-05-24T09:10:44Z</time>
      </trkpt>
      <trkpt lat="44.85682" lon="1.72869">
        <ele>349</ele>
        <time>2022-05-24T09:10:45Z</time>
      </trkpt>
      <trkpt lat="44.85681" lon="1.72874">
        <ele>349.2</ele>
        <time>2022-05-24T09:10:46Z</time>
      </trkpt>
      <trkpt lat="44.85679" lon="1.72879">
        <ele>349.3</ele>
        <time>2022-05-24T09:10:47Z</time>
      </trkpt>
      <trkpt lat="44.85677" lon="1.72884">
        <ele>349.5</ele>
        <time>2022-05-24T09:10:48Z</time>
      </trkpt>
      <trkpt lat="44.85676" lon="1.72889">
        <ele>349.6</ele>
        <time>2022-05-24T09:10:49Z</time>
      </trkpt>
      <trkpt lat="44.85674" lon="1.72893">
        <ele>349.8</ele>
        <time>2022-05-24T09:10:50Z</time>
      </trkpt>
      <trkpt lat="44.85672" lon="1.72898">
        <ele>349.9</ele>
        <time>2022-05-24T09:10:51Z</time>
      </trkpt>
      <trkpt lat="44.8567" lon="1.72902">
        <ele>350</ele>
        <time>2022-05-24T09:10:52Z</time>
      </trkpt>
      <trkpt lat="44.85668" lon="1.72907">
        <ele>350.1</ele>
        <time>2022-05-24T09:10:53Z</time>
      </trkpt>
      <trkpt lat="44.85665" lon="1.72911">
        <ele>350.1</ele>
        <time>2022-05-24T09:10:54Z</time>
      </trkpt>
      <trkpt lat="44.85662" lon="1.72915">
        <ele>350.2</ele>
        <time>2022-05-24T09:10:55Z</time>
      </trkpt>
      <trkpt lat="44.85659" lon="1.72918">
        <ele>350.3</ele>
        <time>2022-05-24T09:10:56Z</time>
      </trkpt>
      <trkpt lat="44.85656" lon="1.7292">
        <ele>350.4</ele>
        <time>2022-05-24T09:10:57Z</time>
      </trkpt>
      <trkpt lat="44.85652" lon="1.72921">
        <ele>350.5</ele>
        <time>2022-05-24T09:10:58Z</time>
      </trkpt>
      <trkpt lat="44.85649" lon="1.72921">
        <ele>350.5</ele>
        <time>2022-05-24T09:10:59Z</time>
      </trkpt>
      <trkpt lat="44.85645" lon="1.72921">
        <ele>350.6</ele>
        <time>2022-05-24T09:11:00Z</time>
      </trkpt>
      <trkpt lat="44.85642" lon="1.72921">
        <ele>350.7</ele>
        <time>2022-05-24T09:11:01Z</time>
      </trkpt>
      <trkpt lat="44.85638" lon="1.7292">
        <ele>350.8</ele>
        <time>2022-05-24T09:11:02Z</time>
      </trkpt>
      <trkpt lat="44.85634" lon="1.72919">
        <ele>350.8</ele>
        <time>2022-05-24T09:11:03Z</time>
      </trkpt>
      <trkpt lat="44.85631" lon="1.72919">
        <ele>350.8</ele>
        <time>2022-05-24T09:11:04Z</time>
      </trkpt>
      <trkpt lat="44.85627" lon="1.72921">
        <ele>350.9</ele>
        <time>2022-05-24T09:11:05Z</time>
      </trkpt>
      <trkpt lat="44.85623" lon="1.72923">
        <ele>350.9</ele>
        <time>2022-05-24T09:11:06Z</time>
      </trkpt>
      <trkpt lat="44.85619" lon="1.72925">
        <ele>351</ele>
        <time>2022-05-24T09:11:07Z</time>
      </trkpt>
      <trkpt lat="44.85615" lon="1.72926">
        <ele>351</ele>
        <time>2022-05-24T09:11:08Z</time>
      </trkpt>
      <trkpt lat="44.85611" lon="1.72928">
        <ele>351</ele>
        <time>2022-05-24T09:11:09Z</time>
      </trkpt>
      <trkpt lat="44.85607" lon="1.7293">
        <ele>351</ele>
        <time>2022-05-24T09:11:10Z</time>
      </trkpt>
      <trkpt lat="44.85603" lon="1.72932">
        <ele>351</ele>
        <time>2022-05-24T09:11:11Z</time>
      </trkpt>
      <trkpt lat="44.85598" lon="1.72935">
        <ele>351.1</ele>
        <time>2022-05-24T09:11:12Z</time>
      </trkpt>
      <trkpt lat="44.85595" lon="1.72936">
        <ele>351.1</ele>
        <time>2022-05-24T09:11:13Z</time>
      </trkpt>
      <trkpt lat="44.85591" lon="1.72937">
        <ele>351</ele>
        <time>2022-05-24T09:11:14Z</time>
      </trkpt>
      <trkpt lat="44.85587" lon="1.72938">
        <ele>351</ele>
        <time>2022-05-24T09:11:15Z</time>
      </trkpt>
      <trkpt lat="44.85583" lon="1.7294">
        <ele>351</ele>
        <time>2022-05-24T09:11:16Z</time>
      </trkpt>
      <trkpt lat="44.8558" lon="1.72945">
        <ele>351</ele>
        <time>2022-05-24T09:11:17Z</time>
      </trkpt>
      <trkpt lat="44.85576" lon="1.72948">
        <ele>350.9</ele>
        <time>2022-05-24T09:11:18Z</time>
      </trkpt>
      <trkpt lat="44.85571" lon="1.72951">
        <ele>350.8</ele>
        <time>2022-05-24T09:11:19Z</time>
      </trkpt>
      <trkpt lat="44.85567" lon="1.72955">
        <ele>350.7</ele>
        <time>2022-05-24T09:11:20Z</time>
      </trkpt>
      <trkpt lat="44.85564" lon="1.72959">
        <ele>350.6</ele>
        <time>2022-05-24T09:11:21Z</time>
      </trkpt>
      <trkpt lat="44.85561" lon="1.72963">
        <ele>350.5</ele>
        <time>2022-05-24T09:11:22Z</time>
      </trkpt>
      <trkpt lat="44.8556" lon="1.72968">
        <ele>350.5</ele>
        <time>2022-05-24T09:11:23Z</time>
      </trkpt>
      <trkpt lat="44.8556" lon="1.72973">
        <ele>350.5</ele>
        <time>2022-05-24T09:11:24Z</time>
      </trkpt>
      <trkpt lat="44.85561" lon="1.72978">
        <ele>350.5</ele>
        <time>2022-05-24T09:11:25Z</time>
      </trkpt>
      <trkpt lat="44.85561" lon="1.72983">
        <ele>350.4</ele>
        <time>2022-05-24T09:11:26Z</time>
      </trkpt>
      <trkpt lat="44.8556" lon="1.72989">
        <ele>350.4</ele>
        <time>2022-05-24T09:11:27Z</time>
      </trkpt>
      <trkpt lat="44.8556" lon="1.72994">
        <ele>350.3</ele>
        <time>2022-05-24T09:11:28Z</time>
      </trkpt>
      <trkpt lat="44.8556" lon="1.73001">
        <ele>350.2</ele>
        <time>2022-05-24T09:11:29Z</time>
      </trkpt>
      <trkpt lat="44.8556" lon="1.73007">
        <ele>350</ele>
        <time>2022-05-24T09:11:30Z</time>
      </trkpt>
      <trkpt lat="44.8556" lon="1.73014">
        <ele>349.9</ele>
        <time>2022-05-24T09:11:31Z</time>
      </trkpt>
      <trkpt lat="44.85561" lon="1.73021">
        <ele>349.7</ele>
        <time>2022-05-24T09:11:32Z</time>
      </trkpt>
      <trkpt lat="44.85561" lon="1.73029">
        <ele>349.4</ele>
        <time>2022-05-24T09:11:33Z</time>
      </trkpt>
      <trkpt lat="44.85561" lon="1.73037">
        <ele>349.2</ele>
        <time>2022-05-24T09:11:34Z</time>
      </trkpt>
      <trkpt lat="44.85562" lon="1.73045">
        <ele>348.9</ele>
        <time>2022-05-24T09:11:35Z</time>
      </trkpt>
      <trkpt lat="44.85563" lon="1.73053">
        <ele>348.5</ele>
        <time>2022-05-24T09:11:36Z</time>
      </trkpt>
      <trkpt lat="44.85564" lon="1.73062">
        <ele>348.1</ele>
        <time>2022-05-24T09:11:37Z</time>
      </trkpt>
      <trkpt lat="44.85565" lon="1.73071">
        <ele>347.7</ele>
        <time>2022-05-24T09:11:38Z</time>
      </trkpt>
      <trkpt lat="44.85565" lon="1.73081">
        <ele>347.4</ele>
        <time>2022-05-24T09:11:39Z</time>
      </trkpt>
      <trkpt lat="44.85565" lon="1.73089">
        <ele>347.2</ele>
        <time>2022-05-24T09:11:40Z</time>
      </trkpt>
      <trkpt lat="44.85564" lon="1.73099">
        <ele>346.9</ele>
        <time>2022-05-24T09:11:41Z</time>
      </trkpt>
      <trkpt lat="44.85562" lon="1.73109">
        <ele>346.7</ele>
        <time>2022-05-24T09:11:42Z</time>
      </trkpt>
      <trkpt lat="44.85559" lon="1.73118">
        <ele>346.6</ele>
        <time>2022-05-24T09:11:43Z</time>
      </trkpt>
      <trkpt lat="44.85557" lon="1.73127">
        <ele>346.6</ele>
        <time>2022-05-24T09:11:44Z</time>
      </trkpt>
      <trkpt lat="44.85555" lon="1.73135">
        <ele>346.6</ele>
        <time>2022-05-24T09:11:45Z</time>
      </trkpt>
      <trkpt lat="44.85553" lon="1.73142">
        <ele>346.7</ele>
        <time>2022-05-24T09:11:46Z</time>
      </trkpt>
      <trkpt lat="44.85549" lon="1.73148">
        <ele>346.9</ele>
        <time>2022-05-24T09:11:47Z</time>
      </trkpt>
      <trkpt lat="44.85546" lon="1.73154">
        <ele>347.1</ele>
        <time>2022-05-24T09:11:48Z</time>
      </trkpt>
      <trkpt lat="44.85541" lon="1.7316">
        <ele>347.3</ele>
        <time>2022-05-24T09:11:49Z</time>
      </trkpt>
      <trkpt lat="44.85536" lon="1.73168">
        <ele>347.7</ele>
        <time>2022-05-24T09:11:50Z</time>
      </trkpt>
      <trkpt lat="44.85533" lon="1.73173">
        <ele>348</ele>
        <time>2022-05-24T09:11:51Z</time>
      </trkpt>
      <trkpt lat="44.85531" lon="1.73177">
        <ele>348.1</ele>
        <time>2022-05-24T09:11:52Z</time>
      </trkpt>
      <trkpt lat="44.85528" lon="1.73179">
        <ele>348.3</ele>
        <time>2022-05-24T09:11:53Z</time>
      </trkpt>
      <trkpt lat="44.85527" lon="1.73183">
        <ele>348.5</ele>
        <time>2022-05-24T09:11:54Z</time>
      </trkpt>
      <trkpt lat="44.85526" lon="1.73185">
        <ele>348.6</ele>
        <time>2022-05-24T09:11:55Z</time>
      </trkpt>
      <trkpt lat="44.85524" lon="1.73189">
        <ele>348.8</ele>
        <time>2022-05-24T09:11:56Z</time>
      </trkpt>
      <trkpt lat="44.85523" lon="1.73191">
        <ele>348.9</ele>
        <time>2022-05-24T09:11:57Z</time>
      </trkpt>
      <trkpt lat="44.85522" lon="1.73195">
        <ele>349.1</ele>
        <time>2022-05-24T09:11:58Z</time>
      </trkpt>
      <trkpt lat="44.85522" lon="1.73197">
        <ele>349.1</ele>
        <time>2022-05-24T09:11:59Z</time>
      </trkpt>
      <trkpt lat="44.85522" lon="1.73199">
        <ele>349.3</ele>
        <time>2022-05-24T09:12:00Z</time>
      </trkpt>
      <trkpt lat="44.85523" lon="1.73201">
        <ele>349.4</ele>
        <time>2022-05-24T09:12:01Z</time>
      </trkpt>
      <trkpt lat="44.85524" lon="1.73206">
        <ele>349.6</ele>
        <time>2022-05-24T09:12:02Z</time>
      </trkpt>
      <trkpt lat="44.85525" lon="1.73207">
        <ele>349.7</ele>
        <time>2022-05-24T09:12:03Z</time>
      </trkpt>
      <trkpt lat="44.85527" lon="1.73211">
        <ele>349.8</ele>
        <time>2022-05-24T09:12:04Z</time>
      </trkpt>
      <trkpt lat="44.85529" lon="1.73215">
        <ele>350</ele>
        <time>2022-05-24T09:12:05Z</time>
      </trkpt>
      <trkpt lat="44.85531" lon="1.7322">
        <ele>350.1</ele>
        <time>2022-05-24T09:12:06Z</time>
      </trkpt>
      <trkpt lat="44.85533" lon="1.73225">
        <ele>350.2</ele>
        <time>2022-05-24T09:12:07Z</time>
      </trkpt>
      <trkpt lat="44.85535" lon="1.7323">
        <ele>350.3</ele>
        <time>2022-05-24T09:12:08Z</time>
      </trkpt>
      <trkpt lat="44.85537" lon="1.73236">
        <ele>350.4</ele>
        <time>2022-05-24T09:12:09Z</time>
      </trkpt>
      <trkpt lat="44.85538" lon="1.73242">
        <ele>350.4</ele>
        <time>2022-05-24T09:12:10Z</time>
      </trkpt>
      <trkpt lat="44.85539" lon="1.73247">
        <ele>350.7</ele>
        <time>2022-05-24T09:12:11Z</time>
      </trkpt>
      <trkpt lat="44.85539" lon="1.73253">
        <ele>350.9</ele>
        <time>2022-05-24T09:12:12Z</time>
      </trkpt>
      <trkpt lat="44.85539" lon="1.73258">
        <ele>351.1</ele>
        <time>2022-05-24T09:12:13Z</time>
      </trkpt>
      <trkpt lat="44.85537" lon="1.73263">
        <ele>351.3</ele>
        <time>2022-05-24T09:12:14Z</time>
      </trkpt>
      <trkpt lat="44.85536" lon="1.73267">
        <ele>351.5</ele>
        <time>2022-05-24T09:12:15Z</time>
      </trkpt>
      <trkpt lat="44.85534" lon="1.73272">
        <ele>351.7</ele>
        <time>2022-05-24T09:12:16Z</time>
      </trkpt>
      <trkpt lat="44.85533" lon="1.73276">
        <ele>351.9</ele>
        <time>2022-05-24T09:12:17Z</time>
      </trkpt>
      <trkpt lat="44.85531" lon="1.7328">
        <ele>352.2</ele>
        <time>2022-05-24T09:12:18Z</time>
      </trkpt>
      <trkpt lat="44.8553" lon="1.73284">
        <ele>352.4</ele>
        <time>2022-05-24T09:12:19Z</time>
      </trkpt>
      <trkpt lat="44.85528" lon="1.73287">
        <ele>352.6</ele>
        <time>2022-05-24T09:12:20Z</time>
      </trkpt>
      <trkpt lat="44.85527" lon="1.73291">
        <ele>352.8</ele>
        <time>2022-05-24T09:12:21Z</time>
      </trkpt>
      <trkpt lat="44.85526" lon="1.73295">
        <ele>353.1</ele>
        <time>2022-05-24T09:12:22Z</time>
      </trkpt>
      <trkpt lat="44.85524" lon="1.73299">
        <ele>353.4</ele>
        <time>2022-05-24T09:12:23Z</time>
      </trkpt>
      <trkpt lat="44.85523" lon="1.73303">
        <ele>353.7</ele>
        <time>2022-05-24T09:12:24Z</time>
      </trkpt>
      <trkpt lat="44.85522" lon="1.73307">
        <ele>354</ele>
        <time>2022-05-24T09:12:25Z</time>
      </trkpt>
      <trkpt lat="44.85521" lon="1.73311">
        <ele>354.3</ele>
        <time>2022-05-24T09:12:26Z</time>
      </trkpt>
      <trkpt lat="44.8552" lon="1.73314">
        <ele>354.6</ele>
        <time>2022-05-24T09:12:27Z</time>
      </trkpt>
      <trkpt lat="44.85519" lon="1.73318">
        <ele>354.9</ele>
        <time>2022-05-24T09:12:28Z</time>
      </trkpt>
      <trkpt lat="44.85517" lon="1.73322">
        <ele>355.2</ele>
        <time>2022-05-24T09:12:29Z</time>
      </trkpt>
      <trkpt lat="44.85515" lon="1.73326">
        <ele>355.6</ele>
        <time>2022-05-24T09:12:30Z</time>
      </trkpt>
      <trkpt lat="44.85515" lon="1.73328">
        <ele>355.7</ele>
        <time>2022-05-24T09:12:31Z</time>
      </trkpt>
      <trkpt lat="44.85513" lon="1.73333">
        <ele>356.1</ele>
        <time>2022-05-24T09:12:32Z</time>
      </trkpt>
      <trkpt lat="44.85512" lon="1.73335">
        <ele>356.3</ele>
        <time>2022-05-24T09:12:33Z</time>
      </trkpt>
      <trkpt lat="44.85511" lon="1.7334">
        <ele>356.7</ele>
        <time>2022-05-24T09:12:34Z</time>
      </trkpt>
      <trkpt lat="44.8551" lon="1.73341">
        <ele>356.8</ele>
        <time>2022-05-24T09:12:35Z</time>
      </trkpt>
      <trkpt lat="44.85508" lon="1.73346">
        <ele>357.2</ele>
        <time>2022-05-24T09:12:36Z</time>
      </trkpt>
      <trkpt lat="44.85508" lon="1.73348">
        <ele>357.3</ele>
        <time>2022-05-24T09:12:37Z</time>
      </trkpt>
      <trkpt lat="44.85507" lon="1.73351">
        <ele>357.6</ele>
        <time>2022-05-24T09:12:38Z</time>
      </trkpt>
      <trkpt lat="44.85506" lon="1.73355">
        <ele>357.9</ele>
        <time>2022-05-24T09:12:39Z</time>
      </trkpt>
      <trkpt lat="44.85505" lon="1.73359">
        <ele>358.2</ele>
        <time>2022-05-24T09:12:40Z</time>
      </trkpt>
      <trkpt lat="44.85504" lon="1.73363">
        <ele>358.4</ele>
        <time>2022-05-24T09:12:41Z</time>
      </trkpt>
      <trkpt lat="44.85503" lon="1.73366">
        <ele>358.7</ele>
        <time>2022-05-24T09:12:42Z</time>
      </trkpt>
      <trkpt lat="44.85502" lon="1.7337">
        <ele>359</ele>
        <time>2022-05-24T09:12:43Z</time>
      </trkpt>
      <trkpt lat="44.85502" lon="1.73374">
        <ele>359.2</ele>
        <time>2022-05-24T09:12:44Z</time>
      </trkpt>
      <trkpt lat="44.85501" lon="1.73378">
        <ele>359.5</ele>
        <time>2022-05-24T09:12:45Z</time>
      </trkpt>
      <trkpt lat="44.855" lon="1.73382">
        <ele>359.7</ele>
        <time>2022-05-24T09:12:46Z</time>
      </trkpt>
      <trkpt lat="44.85499" lon="1.73385">
        <ele>359.9</ele>
        <time>2022-05-24T09:12:47Z</time>
      </trkpt>
      <trkpt lat="44.85498" lon="1.73391">
        <ele>360.3</ele>
        <time>2022-05-24T09:12:48Z</time>
      </trkpt>
      <trkpt lat="44.85497" lon="1.73392">
        <ele>360.4</ele>
        <time>2022-05-24T09:12:49Z</time>
      </trkpt>
      <trkpt lat="44.85496" lon="1.73396">
        <ele>360.7</ele>
        <time>2022-05-24T09:12:50Z</time>
      </trkpt>
      <trkpt lat="44.85495" lon="1.73402">
        <ele>361</ele>
        <time>2022-05-24T09:12:51Z</time>
      </trkpt>
      <trkpt lat="44.85495" lon="1.73404">
        <ele>361.1</ele>
        <time>2022-05-24T09:12:52Z</time>
      </trkpt>
      <trkpt lat="44.85493" lon="1.73409">
        <ele>361.4</ele>
        <time>2022-05-24T09:12:53Z</time>
      </trkpt>
      <trkpt lat="44.85493" lon="1.7341">
        <ele>361.5</ele>
        <time>2022-05-24T09:12:54Z</time>
      </trkpt>
      <trkpt lat="44.85492" lon="1.73414">
        <ele>361.7</ele>
        <time>2022-05-24T09:12:55Z</time>
      </trkpt>
      <trkpt lat="44.85492" lon="1.7342">
        <ele>362</ele>
        <time>2022-05-24T09:12:56Z</time>
      </trkpt>
      <trkpt lat="44.85492" lon="1.73421">
        <ele>362.1</ele>
        <time>2022-05-24T09:12:57Z</time>
      </trkpt>
      <trkpt lat="44.85493" lon="1.73427">
        <ele>362.3</ele>
        <time>2022-05-24T09:12:58Z</time>
      </trkpt>
      <trkpt lat="44.85493" lon="1.73429">
        <ele>362.4</ele>
        <time>2022-05-24T09:12:59Z</time>
      </trkpt>
      <trkpt lat="44.85494" lon="1.73433">
        <ele>362.5</ele>
        <time>2022-05-24T09:13:00Z</time>
      </trkpt>
      <trkpt lat="44.85494" lon="1.73437">
        <ele>362.7</ele>
        <time>2022-05-24T09:13:01Z</time>
      </trkpt>
      <trkpt lat="44.85495" lon="1.73441">
        <ele>362.8</ele>
        <time>2022-05-24T09:13:02Z</time>
      </trkpt>
      <trkpt lat="44.85496" lon="1.73445">
        <ele>363</ele>
        <time>2022-05-24T09:13:03Z</time>
      </trkpt>
      <trkpt lat="44.85497" lon="1.73449">
        <ele>363.1</ele>
        <time>2022-05-24T09:13:04Z</time>
      </trkpt>
      <trkpt lat="44.85499" lon="1.73453">
        <ele>363.2</ele>
        <time>2022-05-24T09:13:05Z</time>
      </trkpt>
      <trkpt lat="44.855" lon="1.73457">
        <ele>363.4</ele>
        <time>2022-05-24T09:13:06Z</time>
      </trkpt>
      <trkpt lat="44.855" lon="1.73461">
        <ele>363.6</ele>
        <time>2022-05-24T09:13:07Z</time>
      </trkpt>
      <trkpt lat="44.85501" lon="1.73466">
        <ele>363.7</ele>
        <time>2022-05-24T09:13:08Z</time>
      </trkpt>
      <trkpt lat="44.85502" lon="1.7347">
        <ele>363.8</ele>
        <time>2022-05-24T09:13:09Z</time>
      </trkpt>
      <trkpt lat="44.85502" lon="1.73475">
        <ele>364</ele>
        <time>2022-05-24T09:13:10Z</time>
      </trkpt>
      <trkpt lat="44.85502" lon="1.73477">
        <ele>364.1</ele>
        <time>2022-05-24T09:13:11Z</time>
      </trkpt>
      <trkpt lat="44.85501" lon="1.73481">
        <ele>364.2</ele>
        <time>2022-05-24T09:13:12Z</time>
      </trkpt>
      <trkpt lat="44.85501" lon="1.73486">
        <ele>364.3</ele>
        <time>2022-05-24T09:13:13Z</time>
      </trkpt>
      <trkpt lat="44.85501" lon="1.73491">
        <ele>364.4</ele>
        <time>2022-05-24T09:13:14Z</time>
      </trkpt>
      <trkpt lat="44.855" lon="1.73496">
        <ele>364.5</ele>
        <time>2022-05-24T09:13:15Z</time>
      </trkpt>
      <trkpt lat="44.85499" lon="1.73501">
        <ele>364.6</ele>
        <time>2022-05-24T09:13:16Z</time>
      </trkpt>
      <trkpt lat="44.85499" lon="1.73506">
        <ele>364.7</ele>
        <time>2022-05-24T09:13:17Z</time>
      </trkpt>
      <trkpt lat="44.85498" lon="1.73512">
        <ele>364.7</ele>
        <time>2022-05-24T09:13:18Z</time>
      </trkpt>
      <trkpt lat="44.85498" lon="1.73518">
        <ele>364.8</ele>
        <time>2022-05-24T09:13:19Z</time>
      </trkpt>
      <trkpt lat="44.85498" lon="1.73524">
        <ele>364.8</ele>
        <time>2022-05-24T09:13:20Z</time>
      </trkpt>
      <trkpt lat="44.85498" lon="1.7353">
        <ele>364.8</ele>
        <time>2022-05-24T09:13:21Z</time>
      </trkpt>
      <trkpt lat="44.85498" lon="1.73537">
        <ele>364.7</ele>
        <time>2022-05-24T09:13:22Z</time>
      </trkpt>
      <trkpt lat="44.85498" lon="1.73543">
        <ele>364.7</ele>
        <time>2022-05-24T09:13:23Z</time>
      </trkpt>
      <trkpt lat="44.85499" lon="1.7355">
        <ele>364.6</ele>
        <time>2022-05-24T09:13:24Z</time>
      </trkpt>
      <trkpt lat="44.85498" lon="1.73556">
        <ele>364.4</ele>
        <time>2022-05-24T09:13:25Z</time>
      </trkpt>
      <trkpt lat="44.85497" lon="1.73563">
        <ele>364.3</ele>
        <time>2022-05-24T09:13:26Z</time>
      </trkpt>
      <trkpt lat="44.85496" lon="1.7357">
        <ele>364.1</ele>
        <time>2022-05-24T09:13:27Z</time>
      </trkpt>
      <trkpt lat="44.85495" lon="1.73577">
        <ele>363.9</ele>
        <time>2022-05-24T09:13:28Z</time>
      </trkpt>
      <trkpt lat="44.85494" lon="1.73584">
        <ele>363.8</ele>
        <time>2022-05-24T09:13:29Z</time>
      </trkpt>
      <trkpt lat="44.85493" lon="1.73591">
        <ele>363.6</ele>
        <time>2022-05-24T09:13:30Z</time>
      </trkpt>
      <trkpt lat="44.85492" lon="1.73598">
        <ele>363.4</ele>
        <time>2022-05-24T09:13:31Z</time>
      </trkpt>
      <trkpt lat="44.8549" lon="1.73605">
        <ele>363.1</ele>
        <time>2022-05-24T09:13:32Z</time>
      </trkpt>
      <trkpt lat="44.85488" lon="1.73614">
        <ele>362.8</ele>
        <time>2022-05-24T09:13:33Z</time>
      </trkpt>
      <trkpt lat="44.85487" lon="1.73623">
        <ele>362.5</ele>
        <time>2022-05-24T09:13:34Z</time>
      </trkpt>
      <trkpt lat="44.85484" lon="1.73633">
        <ele>362.1</ele>
        <time>2022-05-24T09:13:35Z</time>
      </trkpt>
      <trkpt lat="44.85481" lon="1.73643">
        <ele>361.8</ele>
        <time>2022-05-24T09:13:36Z</time>
      </trkpt>
      <trkpt lat="44.85477" lon="1.73652">
        <ele>361.5</ele>
        <time>2022-05-24T09:13:37Z</time>
      </trkpt>
      <trkpt lat="44.85473" lon="1.7366">
        <ele>361.1</ele>
        <time>2022-05-24T09:13:38Z</time>
      </trkpt>
      <trkpt lat="44.85469" lon="1.73667">
        <ele>360.8</ele>
        <time>2022-05-24T09:13:39Z</time>
      </trkpt>
      <trkpt lat="44.85465" lon="1.73675">
        <ele>360.4</ele>
        <time>2022-05-24T09:13:40Z</time>
      </trkpt>
      <trkpt lat="44.8546" lon="1.73683">
        <ele>360</ele>
        <time>2022-05-24T09:13:41Z</time>
      </trkpt>
      <trkpt lat="44.85455" lon="1.73691">
        <ele>359.5</ele>
        <time>2022-05-24T09:13:42Z</time>
      </trkpt>
      <trkpt lat="44.85451" lon="1.73699">
        <ele>359</ele>
        <time>2022-05-24T09:13:43Z</time>
      </trkpt>
      <trkpt lat="44.85447" lon="1.73708">
        <ele>358.5</ele>
        <time>2022-05-24T09:13:44Z</time>
      </trkpt>
      <trkpt lat="44.85441" lon="1.73717">
        <ele>358</ele>
        <time>2022-05-24T09:13:45Z</time>
      </trkpt>
      <trkpt lat="44.85435" lon="1.73725">
        <ele>357.5</ele>
        <time>2022-05-24T09:13:46Z</time>
      </trkpt>
      <trkpt lat="44.85431" lon="1.73733">
        <ele>357</ele>
        <time>2022-05-24T09:13:47Z</time>
      </trkpt>
      <trkpt lat="44.85427" lon="1.73743">
        <ele>356.6</ele>
        <time>2022-05-24T09:13:48Z</time>
      </trkpt>
      <trkpt lat="44.85425" lon="1.73755">
        <ele>356.3</ele>
        <time>2022-05-24T09:13:49Z</time>
      </trkpt>
      <trkpt lat="44.85426" lon="1.73767">
        <ele>356</ele>
        <time>2022-05-24T09:13:50Z</time>
      </trkpt>
      <trkpt lat="44.85426" lon="1.73778">
        <ele>355.8</ele>
        <time>2022-05-24T09:13:51Z</time>
      </trkpt>
      <trkpt lat="44.85426" lon="1.73789">
        <ele>355.6</ele>
        <time>2022-05-24T09:13:52Z</time>
      </trkpt>
      <trkpt lat="44.85428" lon="1.73799">
        <ele>355.3</ele>
        <time>2022-05-24T09:13:53Z</time>
      </trkpt>
      <trkpt lat="44.85429" lon="1.73809">
        <ele>355</ele>
        <time>2022-05-24T09:13:54Z</time>
      </trkpt>
      <trkpt lat="44.8543" lon="1.73818">
        <ele>354.7</ele>
        <time>2022-05-24T09:13:55Z</time>
      </trkpt>
      <trkpt lat="44.85431" lon="1.73828">
        <ele>354.3</ele>
        <time>2022-05-24T09:13:56Z</time>
      </trkpt>
      <trkpt lat="44.85431" lon="1.73839">
        <ele>353.8</ele>
        <time>2022-05-24T09:13:57Z</time>
      </trkpt>
      <trkpt lat="44.85432" lon="1.7385">
        <ele>353.1</ele>
        <time>2022-05-24T09:13:58Z</time>
      </trkpt>
      <trkpt lat="44.85432" lon="1.73861">
        <ele>352.6</ele>
        <time>2022-05-24T09:13:59Z</time>
      </trkpt>
      <trkpt lat="44.85432" lon="1.73873">
        <ele>352.1</ele>
        <time>2022-05-24T09:14:00Z</time>
      </trkpt>
      <trkpt lat="44.85431" lon="1.73884">
        <ele>351.9</ele>
        <time>2022-05-24T09:14:01Z</time>
      </trkpt>
      <trkpt lat="44.85428" lon="1.73895">
        <ele>351.8</ele>
        <time>2022-05-24T09:14:02Z</time>
      </trkpt>
      <trkpt lat="44.85423" lon="1.73903">
        <ele>351.8</ele>
        <time>2022-05-24T09:14:03Z</time>
      </trkpt>
      <trkpt lat="44.85416" lon="1.73908">
        <ele>351.9</ele>
        <time>2022-05-24T09:14:04Z</time>
      </trkpt>
      <trkpt lat="44.85409" lon="1.73911">
        <ele>351.9</ele>
        <time>2022-05-24T09:14:05Z</time>
      </trkpt>
      <trkpt lat="44.85403" lon="1.73913">
        <ele>352</ele>
        <time>2022-05-24T09:14:06Z</time>
      </trkpt>
      <trkpt lat="44.85399" lon="1.73916">
        <ele>352</ele>
        <time>2022-05-24T09:14:07Z</time>
      </trkpt>
      <trkpt lat="44.85394" lon="1.73921">
        <ele>352</ele>
        <time>2022-05-24T09:14:08Z</time>
      </trkpt>
      <trkpt lat="44.85391" lon="1.73926">
        <ele>352</ele>
        <time>2022-05-24T09:14:09Z</time>
      </trkpt>
      <trkpt lat="44.85388" lon="1.73932">
        <ele>352</ele>
        <time>2022-05-24T09:14:10Z</time>
      </trkpt>
      <trkpt lat="44.85386" lon="1.73938">
        <ele>351.9</ele>
        <time>2022-05-24T09:14:11Z</time>
      </trkpt>
      <trkpt lat="44.85383" lon="1.73944">
        <ele>351.9</ele>
        <time>2022-05-24T09:14:12Z</time>
      </trkpt>
      <trkpt lat="44.85382" lon="1.73951">
        <ele>351.9</ele>
        <time>2022-05-24T09:14:13Z</time>
      </trkpt>
      <trkpt lat="44.8538" lon="1.73956">
        <ele>351.9</ele>
        <time>2022-05-24T09:14:14Z</time>
      </trkpt>
      <trkpt lat="44.85377" lon="1.7396">
        <ele>352</ele>
        <time>2022-05-24T09:14:15Z</time>
      </trkpt>
      <trkpt lat="44.85373" lon="1.73964">
        <ele>352.1</ele>
        <time>2022-05-24T09:14:16Z</time>
      </trkpt>
      <trkpt lat="44.85368" lon="1.73968">
        <ele>352.3</ele>
        <time>2022-05-24T09:14:17Z</time>
      </trkpt>
      <trkpt lat="44.85364" lon="1.73972">
        <ele>352.5</ele>
        <time>2022-05-24T09:14:18Z</time>
      </trkpt>
      <trkpt lat="44.85358" lon="1.73975">
        <ele>352.9</ele>
        <time>2022-05-24T09:14:19Z</time>
      </trkpt>
      <trkpt lat="44.85353" lon="1.73978">
        <ele>353.3</ele>
        <time>2022-05-24T09:14:20Z</time>
      </trkpt>
      <trkpt lat="44.85349" lon="1.73981">
        <ele>353.8</ele>
        <time>2022-05-24T09:14:21Z</time>
      </trkpt>
      <trkpt lat="44.85345" lon="1.73984">
        <ele>354.2</ele>
        <time>2022-05-24T09:14:22Z</time>
      </trkpt>
      <trkpt lat="44.85341" lon="1.73988">
        <ele>354.6</ele>
        <time>2022-05-24T09:14:23Z</time>
      </trkpt>
      <trkpt lat="44.85337" lon="1.73992">
        <ele>355.1</ele>
        <time>2022-05-24T09:14:24Z</time>
      </trkpt>
      <trkpt lat="44.85334" lon="1.73995">
        <ele>355.5</ele>
        <time>2022-05-24T09:14:25Z</time>
      </trkpt>
      <trkpt lat="44.85331" lon="1.73999">
        <ele>355.9</ele>
        <time>2022-05-24T09:14:26Z</time>
      </trkpt>
      <trkpt lat="44.85328" lon="1.74002">
        <ele>356.4</ele>
        <time>2022-05-24T09:14:27Z</time>
      </trkpt>
      <trkpt lat="44.85326" lon="1.74006">
        <ele>356.8</ele>
        <time>2022-05-24T09:14:28Z</time>
      </trkpt>
      <trkpt lat="44.85324" lon="1.7401">
        <ele>357.3</ele>
        <time>2022-05-24T09:14:29Z</time>
      </trkpt>
      <trkpt lat="44.85321" lon="1.74013">
        <ele>357.8</ele>
        <time>2022-05-24T09:14:30Z</time>
      </trkpt>
      <trkpt lat="44.85319" lon="1.74017">
        <ele>358.3</ele>
        <time>2022-05-24T09:14:31Z</time>
      </trkpt>
      <trkpt lat="44.85317" lon="1.74022">
        <ele>358.8</ele>
        <time>2022-05-24T09:14:32Z</time>
      </trkpt>
      <trkpt lat="44.85315" lon="1.74025">
        <ele>359.3</ele>
        <time>2022-05-24T09:14:33Z</time>
      </trkpt>
      <trkpt lat="44.85312" lon="1.74028">
        <ele>359.7</ele>
        <time>2022-05-24T09:14:34Z</time>
      </trkpt>
      <trkpt lat="44.8531" lon="1.74031">
        <ele>360.1</ele>
        <time>2022-05-24T09:14:35Z</time>
      </trkpt>
      <trkpt lat="44.85307" lon="1.74034">
        <ele>360.5</ele>
        <time>2022-05-24T09:14:36Z</time>
      </trkpt>
      <trkpt lat="44.85304" lon="1.74037">
        <ele>361</ele>
        <time>2022-05-24T09:14:37Z</time>
      </trkpt>
      <trkpt lat="44.85302" lon="1.74039">
        <ele>361.4</ele>
        <time>2022-05-24T09:14:38Z</time>
      </trkpt>
      <trkpt lat="44.85299" lon="1.74042">
        <ele>361.9</ele>
        <time>2022-05-24T09:14:39Z</time>
      </trkpt>
      <trkpt lat="44.85296" lon="1.74044">
        <ele>362.3</ele>
        <time>2022-05-24T09:14:40Z</time>
      </trkpt>
      <trkpt lat="44.85294" lon="1.74047">
        <ele>362.8</ele>
        <time>2022-05-24T09:14:41Z</time>
      </trkpt>
      <trkpt lat="44.85291" lon="1.74049">
        <ele>363.2</ele>
        <time>2022-05-24T09:14:42Z</time>
      </trkpt>
      <trkpt lat="44.85289" lon="1.74051">
        <ele>363.6</ele>
        <time>2022-05-24T09:14:43Z</time>
      </trkpt>
      <trkpt lat="44.85286" lon="1.74053">
        <ele>364.1</ele>
        <time>2022-05-24T09:14:44Z</time>
      </trkpt>
      <trkpt lat="44.85283" lon="1.74056">
        <ele>364.5</ele>
        <time>2022-05-24T09:14:45Z</time>
      </trkpt>
      <trkpt lat="44.85281" lon="1.74058">
        <ele>364.9</ele>
        <time>2022-05-24T09:14:46Z</time>
      </trkpt>
      <trkpt lat="44.85277" lon="1.7406">
        <ele>365.4</ele>
        <time>2022-05-24T09:14:47Z</time>
      </trkpt>
      <trkpt lat="44.85276" lon="1.74061">
        <ele>365.6</ele>
        <time>2022-05-24T09:14:48Z</time>
      </trkpt>
      <trkpt lat="44.85274" lon="1.74064">
        <ele>366</ele>
        <time>2022-05-24T09:14:49Z</time>
      </trkpt>
      <trkpt lat="44.85271" lon="1.74066">
        <ele>366.3</ele>
        <time>2022-05-24T09:14:50Z</time>
      </trkpt>
      <trkpt lat="44.85269" lon="1.74069">
        <ele>366.6</ele>
        <time>2022-05-24T09:14:51Z</time>
      </trkpt>
      <trkpt lat="44.85267" lon="1.74071">
        <ele>367</ele>
        <time>2022-05-24T09:14:52Z</time>
      </trkpt>
      <trkpt lat="44.85265" lon="1.74074">
        <ele>367.3</ele>
        <time>2022-05-24T09:14:53Z</time>
      </trkpt>
      <trkpt lat="44.85262" lon="1.74078">
        <ele>367.6</ele>
        <time>2022-05-24T09:14:54Z</time>
      </trkpt>
      <trkpt lat="44.8526" lon="1.74081">
        <ele>368</ele>
        <time>2022-05-24T09:14:55Z</time>
      </trkpt>
      <trkpt lat="44.85258" lon="1.74084">
        <ele>368.3</ele>
        <time>2022-05-24T09:14:56Z</time>
      </trkpt>
      <trkpt lat="44.85256" lon="1.74087">
        <ele>368.6</ele>
        <time>2022-05-24T09:14:57Z</time>
      </trkpt>
      <trkpt lat="44.85253" lon="1.7409">
        <ele>368.9</ele>
        <time>2022-05-24T09:14:58Z</time>
      </trkpt>
      <trkpt lat="44.85251" lon="1.74092">
        <ele>369.2</ele>
        <time>2022-05-24T09:14:59Z</time>
      </trkpt>
      <trkpt lat="44.85248" lon="1.74095">
        <ele>369.5</ele>
        <time>2022-05-24T09:15:00Z</time>
      </trkpt>
      <trkpt lat="44.85246" lon="1.74099">
        <ele>369.9</ele>
        <time>2022-05-24T09:15:01Z</time>
      </trkpt>
      <trkpt lat="44.85244" lon="1.74102">
        <ele>370.2</ele>
        <time>2022-05-24T09:15:02Z</time>
      </trkpt>
      <trkpt lat="44.85242" lon="1.74105">
        <ele>370.5</ele>
        <time>2022-05-24T09:15:03Z</time>
      </trkpt>
      <trkpt lat="44.8524" lon="1.74108">
        <ele>370.9</ele>
        <time>2022-05-24T09:15:04Z</time>
      </trkpt>
      <trkpt lat="44.85238" lon="1.74111">
        <ele>371.2</ele>
        <time>2022-05-24T09:15:05Z</time>
      </trkpt>
      <trkpt lat="44.85236" lon="1.74114">
        <ele>371.5</ele>
        <time>2022-05-24T09:15:06Z</time>
      </trkpt>
      <trkpt lat="44.85235" lon="1.74118">
        <ele>371.8</ele>
        <time>2022-05-24T09:15:07Z</time>
      </trkpt>
      <trkpt lat="44.85233" lon="1.74122">
        <ele>372.1</ele>
        <time>2022-05-24T09:15:08Z</time>
      </trkpt>
      <trkpt lat="44.85232" lon="1.74125">
        <ele>372.4</ele>
        <time>2022-05-24T09:15:09Z</time>
      </trkpt>
      <trkpt lat="44.8523" lon="1.74129">
        <ele>372.7</ele>
        <time>2022-05-24T09:15:10Z</time>
      </trkpt>
      <trkpt lat="44.85228" lon="1.74132">
        <ele>373</ele>
        <time>2022-05-24T09:15:11Z</time>
      </trkpt>
      <trkpt lat="44.85226" lon="1.74136">
        <ele>373.3</ele>
        <time>2022-05-24T09:15:12Z</time>
      </trkpt>
      <trkpt lat="44.85224" lon="1.74139">
        <ele>373.5</ele>
        <time>2022-05-24T09:15:13Z</time>
      </trkpt>
      <trkpt lat="44.85222" lon="1.74143">
        <ele>373.8</ele>
        <time>2022-05-24T09:15:14Z</time>
      </trkpt>
      <trkpt lat="44.8522" lon="1.74147">
        <ele>374</ele>
        <time>2022-05-24T09:15:15Z</time>
      </trkpt>
      <trkpt lat="44.85218" lon="1.74151">
        <ele>374.2</ele>
        <time>2022-05-24T09:15:16Z</time>
      </trkpt>
      <trkpt lat="44.85217" lon="1.74154">
        <ele>374.4</ele>
        <time>2022-05-24T09:15:17Z</time>
      </trkpt>
      <trkpt lat="44.85216" lon="1.74157">
        <ele>374.5</ele>
        <time>2022-05-24T09:15:18Z</time>
      </trkpt>
      <trkpt lat="44.85214" lon="1.74161">
        <ele>374.7</ele>
        <time>2022-05-24T09:15:19Z</time>
      </trkpt>
      <trkpt lat="44.85213" lon="1.74165">
        <ele>374.9</ele>
        <time>2022-05-24T09:15:20Z</time>
      </trkpt>
      <trkpt lat="44.85212" lon="1.74169">
        <ele>375.1</ele>
        <time>2022-05-24T09:15:21Z</time>
      </trkpt>
      <trkpt lat="44.8521" lon="1.74173">
        <ele>375.3</ele>
        <time>2022-05-24T09:15:22Z</time>
      </trkpt>
      <trkpt lat="44.85208" lon="1.74177">
        <ele>375.5</ele>
        <time>2022-05-24T09:15:23Z</time>
      </trkpt>
      <trkpt lat="44.85206" lon="1.74181">
        <ele>375.7</ele>
        <time>2022-05-24T09:15:24Z</time>
      </trkpt>
      <trkpt lat="44.85204" lon="1.74185">
        <ele>375.9</ele>
        <time>2022-05-24T09:15:25Z</time>
      </trkpt>
      <trkpt lat="44.85202" lon="1.74188">
        <ele>376.2</ele>
        <time>2022-05-24T09:15:26Z</time>
      </trkpt>
      <trkpt lat="44.852" lon="1.74192">
        <ele>376.4</ele>
        <time>2022-05-24T09:15:27Z</time>
      </trkpt>
      <trkpt lat="44.85198" lon="1.74196">
        <ele>376.6</ele>
        <time>2022-05-24T09:15:28Z</time>
      </trkpt>
      <trkpt lat="44.85196" lon="1.742">
        <ele>376.7</ele>
        <time>2022-05-24T09:15:29Z</time>
      </trkpt>
      <trkpt lat="44.85194" lon="1.74203">
        <ele>376.9</ele>
        <time>2022-05-24T09:15:30Z</time>
      </trkpt>
      <trkpt lat="44.85192" lon="1.74207">
        <ele>377.1</ele>
        <time>2022-05-24T09:15:31Z</time>
      </trkpt>
      <trkpt lat="44.8519" lon="1.74211">
        <ele>377.3</ele>
        <time>2022-05-24T09:15:32Z</time>
      </trkpt>
      <trkpt lat="44.85187" lon="1.74214">
        <ele>377.5</ele>
        <time>2022-05-24T09:15:33Z</time>
      </trkpt>
      <trkpt lat="44.85185" lon="1.74218">
        <ele>377.6</ele>
        <time>2022-05-24T09:15:34Z</time>
      </trkpt>
      <trkpt lat="44.85182" lon="1.74221">
        <ele>377.8</ele>
        <time>2022-05-24T09:15:35Z</time>
      </trkpt>
      <trkpt lat="44.85179" lon="1.74224">
        <ele>378</ele>
        <time>2022-05-24T09:15:36Z</time>
      </trkpt>
      <trkpt lat="44.85177" lon="1.74226">
        <ele>378.2</ele>
        <time>2022-05-24T09:15:37Z</time>
      </trkpt>
      <trkpt lat="44.85174" lon="1.74229">
        <ele>378.4</ele>
        <time>2022-05-24T09:15:38Z</time>
      </trkpt>
      <trkpt lat="44.85171" lon="1.74232">
        <ele>378.6</ele>
        <time>2022-05-24T09:15:39Z</time>
      </trkpt>
      <trkpt lat="44.85168" lon="1.74234">
        <ele>378.8</ele>
        <time>2022-05-24T09:15:40Z</time>
      </trkpt>
      <trkpt lat="44.85166" lon="1.74237">
        <ele>379</ele>
        <time>2022-05-24T09:15:41Z</time>
      </trkpt>
      <trkpt lat="44.85164" lon="1.74239">
        <ele>379.2</ele>
        <time>2022-05-24T09:15:42Z</time>
      </trkpt>
      <trkpt lat="44.85161" lon="1.74241">
        <ele>379.4</ele>
        <time>2022-05-24T09:15:43Z</time>
      </trkpt>
      <trkpt lat="44.85159" lon="1.74244">
        <ele>379.7</ele>
        <time>2022-05-24T09:15:44Z</time>
      </trkpt>
      <trkpt lat="44.85156" lon="1.74246">
        <ele>379.9</ele>
        <time>2022-05-24T09:15:45Z</time>
      </trkpt>
      <trkpt lat="44.85154" lon="1.74249">
        <ele>380.2</ele>
        <time>2022-05-24T09:15:46Z</time>
      </trkpt>
      <trkpt lat="44.85151" lon="1.74252">
        <ele>380.5</ele>
        <time>2022-05-24T09:15:47Z</time>
      </trkpt>
      <trkpt lat="44.85148" lon="1.74255">
        <ele>380.7</ele>
        <time>2022-05-24T09:15:48Z</time>
      </trkpt>
      <trkpt lat="44.85146" lon="1.74259">
        <ele>380.9</ele>
        <time>2022-05-24T09:15:49Z</time>
      </trkpt>
      <trkpt lat="44.85145" lon="1.74263">
        <ele>381.1</ele>
        <time>2022-05-24T09:15:50Z</time>
      </trkpt>
      <trkpt lat="44.85144" lon="1.74268">
        <ele>381.2</ele>
        <time>2022-05-24T09:15:51Z</time>
      </trkpt>
      <trkpt lat="44.85143" lon="1.74272">
        <ele>381.3</ele>
        <time>2022-05-24T09:15:52Z</time>
      </trkpt>
      <trkpt lat="44.85143" lon="1.74277">
        <ele>381.3</ele>
        <time>2022-05-24T09:15:53Z</time>
      </trkpt>
      <trkpt lat="44.85143" lon="1.74282">
        <ele>381.3</ele>
        <time>2022-05-24T09:15:54Z</time>
      </trkpt>
      <trkpt lat="44.85143" lon="1.74288">
        <ele>381.3</ele>
        <time>2022-05-24T09:15:55Z</time>
      </trkpt>
      <trkpt lat="44.85145" lon="1.74294">
        <ele>381.1</ele>
        <time>2022-05-24T09:15:56Z</time>
      </trkpt>
      <trkpt lat="44.85145" lon="1.74302">
        <ele>380.9</ele>
        <time>2022-05-24T09:15:57Z</time>
      </trkpt>
      <trkpt lat="44.85144" lon="1.74309">
        <ele>380.6</ele>
        <time>2022-05-24T09:15:58Z</time>
      </trkpt>
      <trkpt lat="44.85143" lon="1.74317">
        <ele>380.3</ele>
        <time>2022-05-24T09:15:59Z</time>
      </trkpt>
      <trkpt lat="44.85141" lon="1.74324">
        <ele>380</ele>
        <time>2022-05-24T09:16:00Z</time>
      </trkpt>
      <trkpt lat="44.8514" lon="1.74333">
        <ele>379.6</ele>
        <time>2022-05-24T09:16:01Z</time>
      </trkpt>
      <trkpt lat="44.85138" lon="1.74343">
        <ele>379.1</ele>
        <time>2022-05-24T09:16:02Z</time>
      </trkpt>
      <trkpt lat="44.85137" lon="1.74353">
        <ele>378.6</ele>
        <time>2022-05-24T09:16:03Z</time>
      </trkpt>
      <trkpt lat="44.85136" lon="1.74363">
        <ele>378.2</ele>
        <time>2022-05-24T09:16:04Z</time>
      </trkpt>
      <trkpt lat="44.85135" lon="1.74373">
        <ele>377.7</ele>
        <time>2022-05-24T09:16:05Z</time>
      </trkpt>
      <trkpt lat="44.85135" lon="1.74383">
        <ele>377.1</ele>
        <time>2022-05-24T09:16:06Z</time>
      </trkpt>
      <trkpt lat="44.85136" lon="1.74392">
        <ele>376.4</ele>
        <time>2022-05-24T09:16:07Z</time>
      </trkpt>
      <trkpt lat="44.85136" lon="1.74403">
        <ele>375.6</ele>
        <time>2022-05-24T09:16:08Z</time>
      </trkpt>
      <trkpt lat="44.85137" lon="1.74413">
        <ele>374.7</ele>
        <time>2022-05-24T09:16:09Z</time>
      </trkpt>
      <trkpt lat="44.85138" lon="1.74424">
        <ele>373.7</ele>
        <time>2022-05-24T09:16:10Z</time>
      </trkpt>
      <trkpt lat="44.85137" lon="1.74437">
        <ele>372.6</ele>
        <time>2022-05-24T09:16:11Z</time>
      </trkpt>
      <trkpt lat="44.85136" lon="1.74449">
        <ele>371.5</ele>
        <time>2022-05-24T09:16:12Z</time>
      </trkpt>
      <trkpt lat="44.85135" lon="1.7446">
        <ele>370.4</ele>
        <time>2022-05-24T09:16:13Z</time>
      </trkpt>
      <trkpt lat="44.85134" lon="1.74471">
        <ele>369.4</ele>
        <time>2022-05-24T09:16:14Z</time>
      </trkpt>
      <trkpt lat="44.85133" lon="1.74481">
        <ele>368.3</ele>
        <time>2022-05-24T09:16:15Z</time>
      </trkpt>
      <trkpt lat="44.85133" lon="1.74491">
        <ele>367.3</ele>
        <time>2022-05-24T09:16:16Z</time>
      </trkpt>
      <trkpt lat="44.85132" lon="1.74501">
        <ele>366.3</ele>
        <time>2022-05-24T09:16:17Z</time>
      </trkpt>
      <trkpt lat="44.85131" lon="1.7451">
        <ele>365.2</ele>
        <time>2022-05-24T09:16:18Z</time>
      </trkpt>
      <trkpt lat="44.8513" lon="1.74519">
        <ele>364.2</ele>
        <time>2022-05-24T09:16:19Z</time>
      </trkpt>
      <trkpt lat="44.85128" lon="1.74528">
        <ele>363.1</ele>
        <time>2022-05-24T09:16:20Z</time>
      </trkpt>
      <trkpt lat="44.85125" lon="1.74539">
        <ele>362</ele>
        <time>2022-05-24T09:16:21Z</time>
      </trkpt>
      <trkpt lat="44.85123" lon="1.74548">
        <ele>361.3</ele>
        <time>2022-05-24T09:16:22Z</time>
      </trkpt>
      <trkpt lat="44.85121" lon="1.74556">
        <ele>360.6</ele>
        <time>2022-05-24T09:16:23Z</time>
      </trkpt>
      <trkpt lat="44.85118" lon="1.74562">
        <ele>360.2</ele>
        <time>2022-05-24T09:16:24Z</time>
      </trkpt>
      <trkpt lat="44.85116" lon="1.74569">
        <ele>359.8</ele>
        <time>2022-05-24T09:16:25Z</time>
      </trkpt>
      <trkpt lat="44.85112" lon="1.74577">
        <ele>359.2</ele>
        <time>2022-05-24T09:16:26Z</time>
      </trkpt>
      <trkpt lat="44.85111" lon="1.74583">
        <ele>355.6</ele>
        <time>2022-05-24T09:16:27Z</time>
      </trkpt>
      <trkpt lat="44.85109" lon="1.7459">
        <ele>355.6</ele>
        <time>2022-05-24T09:16:28Z</time>
      </trkpt>
      <trkpt lat="44.85108" lon="1.74596">
        <ele>355.6</ele>
        <time>2022-05-24T09:16:29Z</time>
      </trkpt>
      <trkpt lat="44.85105" lon="1.74603">
        <ele>355.7</ele>
        <time>2022-05-24T09:16:30Z</time>
      </trkpt>
      <trkpt lat="44.85102" lon="1.74608">
        <ele>355.9</ele>
        <time>2022-05-24T09:16:31Z</time>
      </trkpt>
      <trkpt lat="44.85099" lon="1.74613">
        <ele>356</ele>
        <time>2022-05-24T09:16:32Z</time>
      </trkpt>
      <trkpt lat="44.85096" lon="1.74618">
        <ele>356.2</ele>
        <time>2022-05-24T09:16:33Z</time>
      </trkpt>
      <trkpt lat="44.85093" lon="1.74623">
        <ele>356.4</ele>
        <time>2022-05-24T09:16:34Z</time>
      </trkpt>
      <trkpt lat="44.85089" lon="1.74627">
        <ele>356.7</ele>
        <time>2022-05-24T09:16:35Z</time>
      </trkpt>
      <trkpt lat="44.85086" lon="1.7463">
        <ele>357</ele>
        <time>2022-05-24T09:16:36Z</time>
      </trkpt>
      <trkpt lat="44.85083" lon="1.74633">
        <ele>357.3</ele>
        <time>2022-05-24T09:16:37Z</time>
      </trkpt>
      <trkpt lat="44.8508" lon="1.74637">
        <ele>357.6</ele>
        <time>2022-05-24T09:16:38Z</time>
      </trkpt>
      <trkpt lat="44.85077" lon="1.74641">
        <ele>357.9</ele>
        <time>2022-05-24T09:16:39Z</time>
      </trkpt>
      <trkpt lat="44.85075" lon="1.74643">
        <ele>358.2</ele>
        <time>2022-05-24T09:16:40Z</time>
      </trkpt>
      <trkpt lat="44.85073" lon="1.74647">
        <ele>358.6</ele>
        <time>2022-05-24T09:16:41Z</time>
      </trkpt>
      <trkpt lat="44.85071" lon="1.7465">
        <ele>358.9</ele>
        <time>2022-05-24T09:16:42Z</time>
      </trkpt>
      <trkpt lat="44.85069" lon="1.74654">
        <ele>359.3</ele>
        <time>2022-05-24T09:16:43Z</time>
      </trkpt>
      <trkpt lat="44.85067" lon="1.74657">
        <ele>359.7</ele>
        <time>2022-05-24T09:16:44Z</time>
      </trkpt>
      <trkpt lat="44.85064" lon="1.74659">
        <ele>360.1</ele>
        <time>2022-05-24T09:16:45Z</time>
      </trkpt>
      <trkpt lat="44.85062" lon="1.74663">
        <ele>360.7</ele>
        <time>2022-05-24T09:16:46Z</time>
      </trkpt>
      <trkpt lat="44.85061" lon="1.74665">
        <ele>360.8</ele>
        <time>2022-05-24T09:16:47Z</time>
      </trkpt>
      <trkpt lat="44.85059" lon="1.74668">
        <ele>361.2</ele>
        <time>2022-05-24T09:16:48Z</time>
      </trkpt>
      <trkpt lat="44.85057" lon="1.74672">
        <ele>361.7</ele>
        <time>2022-05-24T09:16:49Z</time>
      </trkpt>
      <trkpt lat="44.85055" lon="1.74676">
        <ele>362.1</ele>
        <time>2022-05-24T09:16:50Z</time>
      </trkpt>
      <trkpt lat="44.85054" lon="1.74679">
        <ele>362.5</ele>
        <time>2022-05-24T09:16:51Z</time>
      </trkpt>
      <trkpt lat="44.85052" lon="1.74682">
        <ele>362.9</ele>
        <time>2022-05-24T09:16:52Z</time>
      </trkpt>
      <trkpt lat="44.85049" lon="1.74684">
        <ele>363.3</ele>
        <time>2022-05-24T09:16:53Z</time>
      </trkpt>
      <trkpt lat="44.85047" lon="1.74686">
        <ele>363.7</ele>
        <time>2022-05-24T09:16:54Z</time>
      </trkpt>
      <trkpt lat="44.85044" lon="1.74689">
        <ele>364.1</ele>
        <time>2022-05-24T09:16:55Z</time>
      </trkpt>
      <trkpt lat="44.85042" lon="1.74692">
        <ele>364.4</ele>
        <time>2022-05-24T09:16:56Z</time>
      </trkpt>
      <trkpt lat="44.8504" lon="1.74695">
        <ele>364.8</ele>
        <time>2022-05-24T09:16:57Z</time>
      </trkpt>
      <trkpt lat="44.85038" lon="1.74698">
        <ele>365.1</ele>
        <time>2022-05-24T09:16:58Z</time>
      </trkpt>
      <trkpt lat="44.85036" lon="1.74701">
        <ele>365.5</ele>
        <time>2022-05-24T09:16:59Z</time>
      </trkpt>
      <trkpt lat="44.85034" lon="1.74705">
        <ele>365.9</ele>
        <time>2022-05-24T09:17:00Z</time>
      </trkpt>
      <trkpt lat="44.85032" lon="1.74708">
        <ele>366.2</ele>
        <time>2022-05-24T09:17:01Z</time>
      </trkpt>
      <trkpt lat="44.8503" lon="1.7471">
        <ele>366.6</ele>
        <time>2022-05-24T09:17:02Z</time>
      </trkpt>
      <trkpt lat="44.85028" lon="1.74713">
        <ele>366.9</ele>
        <time>2022-05-24T09:17:03Z</time>
      </trkpt>
      <trkpt lat="44.85025" lon="1.74717">
        <ele>367.4</ele>
        <time>2022-05-24T09:17:04Z</time>
      </trkpt>
      <trkpt lat="44.85024" lon="1.74718">
        <ele>367.6</ele>
        <time>2022-05-24T09:17:05Z</time>
      </trkpt>
      <trkpt lat="44.85021" lon="1.74721">
        <ele>368</ele>
        <time>2022-05-24T09:17:06Z</time>
      </trkpt>
      <trkpt lat="44.8502" lon="1.74722">
        <ele>368.2</ele>
        <time>2022-05-24T09:17:07Z</time>
      </trkpt>
      <trkpt lat="44.85018" lon="1.74725">
        <ele>368.5</ele>
        <time>2022-05-24T09:17:08Z</time>
      </trkpt>
      <trkpt lat="44.85015" lon="1.74729">
        <ele>368.9</ele>
        <time>2022-05-24T09:17:09Z</time>
      </trkpt>
      <trkpt lat="44.85014" lon="1.7473">
        <ele>369.1</ele>
        <time>2022-05-24T09:17:10Z</time>
      </trkpt>
      <trkpt lat="44.85012" lon="1.74734">
        <ele>369.5</ele>
        <time>2022-05-24T09:17:11Z</time>
      </trkpt>
      <trkpt lat="44.85011" lon="1.74735">
        <ele>369.6</ele>
        <time>2022-05-24T09:17:12Z</time>
      </trkpt>
      <trkpt lat="44.85007" lon="1.74738">
        <ele>370</ele>
        <time>2022-05-24T09:17:13Z</time>
      </trkpt>
      <trkpt lat="44.85006" lon="1.74739">
        <ele>370.1</ele>
        <time>2022-05-24T09:17:14Z</time>
      </trkpt>
      <trkpt lat="44.85004" lon="1.74742">
        <ele>370.4</ele>
        <time>2022-05-24T09:17:15Z</time>
      </trkpt>
      <trkpt lat="44.85002" lon="1.74746">
        <ele>370.8</ele>
        <time>2022-05-24T09:17:16Z</time>
      </trkpt>
      <trkpt lat="44.85001" lon="1.74747">
        <ele>370.9</ele>
        <time>2022-05-24T09:17:17Z</time>
      </trkpt>
      <trkpt lat="44.84999" lon="1.74751">
        <ele>371.2</ele>
        <time>2022-05-24T09:17:18Z</time>
      </trkpt>
      <trkpt lat="44.84998" lon="1.74753">
        <ele>371.4</ele>
        <time>2022-05-24T09:17:19Z</time>
      </trkpt>
      <trkpt lat="44.84996" lon="1.74758">
        <ele>371.7</ele>
        <time>2022-05-24T09:17:20Z</time>
      </trkpt>
      <trkpt lat="44.84995" lon="1.74759">
        <ele>371.8</ele>
        <time>2022-05-24T09:17:21Z</time>
      </trkpt>
      <trkpt lat="44.84992" lon="1.74764">
        <ele>372.2</ele>
        <time>2022-05-24T09:17:22Z</time>
      </trkpt>
      <trkpt lat="44.84991" lon="1.74765">
        <ele>372.3</ele>
        <time>2022-05-24T09:17:23Z</time>
      </trkpt>
      <trkpt lat="44.84989" lon="1.74768">
        <ele>372.6</ele>
        <time>2022-05-24T09:17:24Z</time>
      </trkpt>
      <trkpt lat="44.84988" lon="1.74771">
        <ele>372.8</ele>
        <time>2022-05-24T09:17:25Z</time>
      </trkpt>
      <trkpt lat="44.84986" lon="1.74774">
        <ele>373</ele>
        <time>2022-05-24T09:17:26Z</time>
      </trkpt>
      <trkpt lat="44.84984" lon="1.74778">
        <ele>373.3</ele>
        <time>2022-05-24T09:17:27Z</time>
      </trkpt>
      <trkpt lat="44.84982" lon="1.74783">
        <ele>373.6</ele>
        <time>2022-05-24T09:17:28Z</time>
      </trkpt>
      <trkpt lat="44.84981" lon="1.74784">
        <ele>373.7</ele>
        <time>2022-05-24T09:17:29Z</time>
      </trkpt>
      <trkpt lat="44.8498" lon="1.74788">
        <ele>374</ele>
        <time>2022-05-24T09:17:30Z</time>
      </trkpt>
      <trkpt lat="44.84979" lon="1.74791">
        <ele>374.2</ele>
        <time>2022-05-24T09:17:31Z</time>
      </trkpt>
      <trkpt lat="44.84977" lon="1.74795">
        <ele>374.4</ele>
        <time>2022-05-24T09:17:32Z</time>
      </trkpt>
      <trkpt lat="44.84975" lon="1.74799">
        <ele>374.7</ele>
        <time>2022-05-24T09:17:33Z</time>
      </trkpt>
      <trkpt lat="44.84974" lon="1.74802">
        <ele>374.9</ele>
        <time>2022-05-24T09:17:34Z</time>
      </trkpt>
      <trkpt lat="44.84972" lon="1.74806">
        <ele>375.1</ele>
        <time>2022-05-24T09:17:35Z</time>
      </trkpt>
      <trkpt lat="44.84971" lon="1.74809">
        <ele>375.3</ele>
        <time>2022-05-24T09:17:36Z</time>
      </trkpt>
      <trkpt lat="44.84969" lon="1.74813">
        <ele>375.5</ele>
        <time>2022-05-24T09:17:37Z</time>
      </trkpt>
      <trkpt lat="44.84968" lon="1.74817">
        <ele>375.8</ele>
        <time>2022-05-24T09:17:38Z</time>
      </trkpt>
      <trkpt lat="44.84966" lon="1.74821">
        <ele>376</ele>
        <time>2022-05-24T09:17:39Z</time>
      </trkpt>
      <trkpt lat="44.84965" lon="1.74825">
        <ele>376.2</ele>
        <time>2022-05-24T09:17:40Z</time>
      </trkpt>
      <trkpt lat="44.84964" lon="1.74829">
        <ele>376.4</ele>
        <time>2022-05-24T09:17:41Z</time>
      </trkpt>
      <trkpt lat="44.84963" lon="1.74833">
        <ele>376.6</ele>
        <time>2022-05-24T09:17:42Z</time>
      </trkpt>
      <trkpt lat="44.84962" lon="1.74837">
        <ele>376.7</ele>
        <time>2022-05-24T09:17:43Z</time>
      </trkpt>
      <trkpt lat="44.84962" lon="1.74841">
        <ele>376.9</ele>
        <time>2022-05-24T09:17:44Z</time>
      </trkpt>
      <trkpt lat="44.84961" lon="1.74846">
        <ele>377</ele>
        <time>2022-05-24T09:17:45Z</time>
      </trkpt>
      <trkpt lat="44.84961" lon="1.74848">
        <ele>377.1</ele>
        <time>2022-05-24T09:17:46Z</time>
      </trkpt>
      <trkpt lat="44.8496" lon="1.74853">
        <ele>377.2</ele>
        <time>2022-05-24T09:17:47Z</time>
      </trkpt>
      <trkpt lat="44.84959" lon="1.74857">
        <ele>377.2</ele>
        <time>2022-05-24T09:17:48Z</time>
      </trkpt>
      <trkpt lat="44.84957" lon="1.74861">
        <ele>377.2</ele>
        <time>2022-05-24T09:17:49Z</time>
      </trkpt>
      <trkpt lat="44.84956" lon="1.74867">
        <ele>377.2</ele>
        <time>2022-05-24T09:17:50Z</time>
      </trkpt>
      <trkpt lat="44.84955" lon="1.74872">
        <ele>377.2</ele>
        <time>2022-05-24T09:17:51Z</time>
      </trkpt>
      <trkpt lat="44.84953" lon="1.74878">
        <ele>377.1</ele>
        <time>2022-05-24T09:17:52Z</time>
      </trkpt>
      <trkpt lat="44.84952" lon="1.74884">
        <ele>376.9</ele>
        <time>2022-05-24T09:17:53Z</time>
      </trkpt>
      <trkpt lat="44.84951" lon="1.7489">
        <ele>376.7</ele>
        <time>2022-05-24T09:17:54Z</time>
      </trkpt>
      <trkpt lat="44.84951" lon="1.74898">
        <ele>376.4</ele>
        <time>2022-05-24T09:17:55Z</time>
      </trkpt>
      <trkpt lat="44.8495" lon="1.74905">
        <ele>376</ele>
        <time>2022-05-24T09:17:56Z</time>
      </trkpt>
      <trkpt lat="44.84951" lon="1.74913">
        <ele>375.7</ele>
        <time>2022-05-24T09:17:57Z</time>
      </trkpt>
      <trkpt lat="44.84951" lon="1.74921">
        <ele>375.3</ele>
        <time>2022-05-24T09:17:58Z</time>
      </trkpt>
      <trkpt lat="44.84951" lon="1.7493">
        <ele>374.9</ele>
        <time>2022-05-24T09:17:59Z</time>
      </trkpt>
      <trkpt lat="44.84951" lon="1.74939">
        <ele>374.4</ele>
        <time>2022-05-24T09:18:00Z</time>
      </trkpt>
      <trkpt lat="44.84951" lon="1.74949">
        <ele>374</ele>
        <time>2022-05-24T09:18:01Z</time>
      </trkpt>
      <trkpt lat="44.84952" lon="1.74959">
        <ele>373.4</ele>
        <time>2022-05-24T09:18:02Z</time>
      </trkpt>
      <trkpt lat="44.84952" lon="1.74969">
        <ele>372.9</ele>
        <time>2022-05-24T09:18:03Z</time>
      </trkpt>
      <trkpt lat="44.84951" lon="1.7498">
        <ele>372.3</ele>
        <time>2022-05-24T09:18:04Z</time>
      </trkpt>
      <trkpt lat="44.84951" lon="1.74991">
        <ele>371.7</ele>
        <time>2022-05-24T09:18:05Z</time>
      </trkpt>
      <trkpt lat="44.8495" lon="1.75002">
        <ele>371.1</ele>
        <time>2022-05-24T09:18:06Z</time>
      </trkpt>
      <trkpt lat="44.84949" lon="1.75012">
        <ele>370.6</ele>
        <time>2022-05-24T09:18:07Z</time>
      </trkpt>
      <trkpt lat="44.84947" lon="1.75023">
        <ele>369.9</ele>
        <time>2022-05-24T09:18:08Z</time>
      </trkpt>
      <trkpt lat="44.84946" lon="1.75034">
        <ele>369.3</ele>
        <time>2022-05-24T09:18:09Z</time>
      </trkpt>
      <trkpt lat="44.84946" lon="1.75044">
        <ele>368.8</ele>
        <time>2022-05-24T09:18:10Z</time>
      </trkpt>
      <trkpt lat="44.84947" lon="1.75054">
        <ele>368.5</ele>
        <time>2022-05-24T09:18:11Z</time>
      </trkpt>
      <trkpt lat="44.8495" lon="1.75063">
        <ele>368.2</ele>
        <time>2022-05-24T09:18:12Z</time>
      </trkpt>
      <trkpt lat="44.84956" lon="1.7507">
        <ele>367.9</ele>
        <time>2022-05-24T09:18:13Z</time>
      </trkpt>
      <trkpt lat="44.84961" lon="1.75077">
        <ele>367.6</ele>
        <time>2022-05-24T09:18:14Z</time>
      </trkpt>
      <trkpt lat="44.84966" lon="1.75084">
        <ele>367.3</ele>
        <time>2022-05-24T09:18:15Z</time>
      </trkpt>
      <trkpt lat="44.8497" lon="1.75093">
        <ele>367</ele>
        <time>2022-05-24T09:18:16Z</time>
      </trkpt>
      <trkpt lat="44.84974" lon="1.75102">
        <ele>366.6</ele>
        <time>2022-05-24T09:18:17Z</time>
      </trkpt>
      <trkpt lat="44.84979" lon="1.75111">
        <ele>366.2</ele>
        <time>2022-05-24T09:18:18Z</time>
      </trkpt>
      <trkpt lat="44.84983" lon="1.7512">
        <ele>365.8</ele>
        <time>2022-05-24T09:18:19Z</time>
      </trkpt>
      <trkpt lat="44.84987" lon="1.75129">
        <ele>365.3</ele>
        <time>2022-05-24T09:18:20Z</time>
      </trkpt>
      <trkpt lat="44.84991" lon="1.75138">
        <ele>364.9</ele>
        <time>2022-05-24T09:18:21Z</time>
      </trkpt>
      <trkpt lat="44.84993" lon="1.75147">
        <ele>364.4</ele>
        <time>2022-05-24T09:18:22Z</time>
      </trkpt>
      <trkpt lat="44.84995" lon="1.75158">
        <ele>363.8</ele>
        <time>2022-05-24T09:18:23Z</time>
      </trkpt>
      <trkpt lat="44.84996" lon="1.75168">
        <ele>363.2</ele>
        <time>2022-05-24T09:18:24Z</time>
      </trkpt>
      <trkpt lat="44.84996" lon="1.75181">
        <ele>362.6</ele>
        <time>2022-05-24T09:18:25Z</time>
      </trkpt>
      <trkpt lat="44.84997" lon="1.75192">
        <ele>362</ele>
        <time>2022-05-24T09:18:26Z</time>
      </trkpt>
      <trkpt lat="44.84998" lon="1.75205">
        <ele>361.4</ele>
        <time>2022-05-24T09:18:27Z</time>
      </trkpt>
      <trkpt lat="44.84998" lon="1.75218">
        <ele>360.9</ele>
        <time>2022-05-24T09:18:28Z</time>
      </trkpt>
      <trkpt lat="44.84999" lon="1.7523">
        <ele>360.5</ele>
        <time>2022-05-24T09:18:29Z</time>
      </trkpt>
      <trkpt lat="44.84999" lon="1.75242">
        <ele>360</ele>
        <time>2022-05-24T09:18:30Z</time>
      </trkpt>
      <trkpt lat="44.84999" lon="1.75254">
        <ele>359.6</ele>
        <time>2022-05-24T09:18:31Z</time>
      </trkpt>
      <trkpt lat="44.84997" lon="1.75268">
        <ele>359.3</ele>
        <time>2022-05-24T09:18:32Z</time>
      </trkpt>
      <trkpt lat="44.84994" lon="1.75281">
        <ele>359.1</ele>
        <time>2022-05-24T09:18:33Z</time>
      </trkpt>
      <trkpt lat="44.8499" lon="1.75293">
        <ele>358.9</ele>
        <time>2022-05-24T09:18:34Z</time>
      </trkpt>
      <trkpt lat="44.84985" lon="1.75305">
        <ele>358.8</ele>
        <time>2022-05-24T09:18:35Z</time>
      </trkpt>
      <trkpt lat="44.84981" lon="1.75315">
        <ele>358.6</ele>
        <time>2022-05-24T09:18:36Z</time>
      </trkpt>
      <trkpt lat="44.84977" lon="1.75324">
        <ele>358.4</ele>
        <time>2022-05-24T09:18:37Z</time>
      </trkpt>
      <trkpt lat="44.84973" lon="1.75332">
        <ele>358.2</ele>
        <time>2022-05-24T09:18:38Z</time>
      </trkpt>
      <trkpt lat="44.84968" lon="1.75341">
        <ele>357.9</ele>
        <time>2022-05-24T09:18:39Z</time>
      </trkpt>
      <trkpt lat="44.84964" lon="1.75349">
        <ele>357.5</ele>
        <time>2022-05-24T09:18:40Z</time>
      </trkpt>
      <trkpt lat="44.84958" lon="1.75358">
        <ele>357</ele>
        <time>2022-05-24T09:18:41Z</time>
      </trkpt>
      <trkpt lat="44.84952" lon="1.75367">
        <ele>356.3</ele>
        <time>2022-05-24T09:18:42Z</time>
      </trkpt>
      <trkpt lat="44.84946" lon="1.75376">
        <ele>355.5</ele>
        <time>2022-05-24T09:18:43Z</time>
      </trkpt>
      <trkpt lat="44.84938" lon="1.75384">
        <ele>354.7</ele>
        <time>2022-05-24T09:18:44Z</time>
      </trkpt>
      <trkpt lat="44.84932" lon="1.75391">
        <ele>354</ele>
        <time>2022-05-24T09:18:45Z</time>
      </trkpt>
      <trkpt lat="44.84925" lon="1.75399">
        <ele>353.4</ele>
        <time>2022-05-24T09:18:46Z</time>
      </trkpt>
      <trkpt lat="44.8492" lon="1.75409">
        <ele>353</ele>
        <time>2022-05-24T09:18:47Z</time>
      </trkpt>
      <trkpt lat="44.84916" lon="1.7542">
        <ele>352.8</ele>
        <time>2022-05-24T09:18:48Z</time>
      </trkpt>
      <trkpt lat="44.84914" lon="1.75431">
        <ele>352.8</ele>
        <time>2022-05-24T09:18:49Z</time>
      </trkpt>
      <trkpt lat="44.84913" lon="1.75442">
        <ele>352.9</ele>
        <time>2022-05-24T09:18:50Z</time>
      </trkpt>
      <trkpt lat="44.84912" lon="1.75452">
        <ele>353</ele>
        <time>2022-05-24T09:18:51Z</time>
      </trkpt>
      <trkpt lat="44.84911" lon="1.75462">
        <ele>353.2</ele>
        <time>2022-05-24T09:18:52Z</time>
      </trkpt>
      <trkpt lat="44.84911" lon="1.75471">
        <ele>353.4</ele>
        <time>2022-05-24T09:18:53Z</time>
      </trkpt>
      <trkpt lat="44.84911" lon="1.75478">
        <ele>353.7</ele>
        <time>2022-05-24T09:18:54Z</time>
      </trkpt>
      <trkpt lat="44.8491" lon="1.75486">
        <ele>353.9</ele>
        <time>2022-05-24T09:18:55Z</time>
      </trkpt>
      <trkpt lat="44.84909" lon="1.75493">
        <ele>354.1</ele>
        <time>2022-05-24T09:18:56Z</time>
      </trkpt>
      <trkpt lat="44.84908" lon="1.75501">
        <ele>354.4</ele>
        <time>2022-05-24T09:18:57Z</time>
      </trkpt>
      <trkpt lat="44.84906" lon="1.75509">
        <ele>354.6</ele>
        <time>2022-05-24T09:18:58Z</time>
      </trkpt>
      <trkpt lat="44.84904" lon="1.75515">
        <ele>354.7</ele>
        <time>2022-05-24T09:18:59Z</time>
      </trkpt>
      <trkpt lat="44.84902" lon="1.75523">
        <ele>354.9</ele>
        <time>2022-05-24T09:19:00Z</time>
      </trkpt>
      <trkpt lat="44.84901" lon="1.7553">
        <ele>355</ele>
        <time>2022-05-24T09:19:01Z</time>
      </trkpt>
      <trkpt lat="44.849" lon="1.75536">
        <ele>355.1</ele>
        <time>2022-05-24T09:19:02Z</time>
      </trkpt>
      <trkpt lat="44.849" lon="1.75543">
        <ele>355.1</ele>
        <time>2022-05-24T09:19:03Z</time>
      </trkpt>
      <trkpt lat="44.849" lon="1.7555">
        <ele>355.2</ele>
        <time>2022-05-24T09:19:04Z</time>
      </trkpt>
      <trkpt lat="44.84899" lon="1.75556">
        <ele>355.2</ele>
        <time>2022-05-24T09:19:05Z</time>
      </trkpt>
      <trkpt lat="44.84899" lon="1.75563">
        <ele>355.3</ele>
        <time>2022-05-24T09:19:06Z</time>
      </trkpt>
      <trkpt lat="44.84898" lon="1.7557">
        <ele>355.3</ele>
        <time>2022-05-24T09:19:07Z</time>
      </trkpt>
      <trkpt lat="44.84897" lon="1.75577">
        <ele>355.3</ele>
        <time>2022-05-24T09:19:08Z</time>
      </trkpt>
      <trkpt lat="44.84897" lon="1.75585">
        <ele>355.2</ele>
        <time>2022-05-24T09:19:09Z</time>
      </trkpt>
      <trkpt lat="44.84896" lon="1.75592">
        <ele>355.2</ele>
        <time>2022-05-24T09:19:10Z</time>
      </trkpt>
      <trkpt lat="44.84896" lon="1.756">
        <ele>355.2</ele>
        <time>2022-05-24T09:19:11Z</time>
      </trkpt>
      <trkpt lat="44.84894" lon="1.75608">
        <ele>355.1</ele>
        <time>2022-05-24T09:19:12Z</time>
      </trkpt>
      <trkpt lat="44.84892" lon="1.75615">
        <ele>355.1</ele>
        <time>2022-05-24T09:19:13Z</time>
      </trkpt>
      <trkpt lat="44.84891" lon="1.75624">
        <ele>355.2</ele>
        <time>2022-05-24T09:19:14Z</time>
      </trkpt>
      <trkpt lat="44.84891" lon="1.75638">
        <ele>355.2</ele>
        <time>2022-05-24T09:19:16Z</time>
      </trkpt>
      <trkpt lat="44.84894" lon="1.75644">
        <ele>355.7</ele>
        <time>2022-05-24T09:19:17Z</time>
      </trkpt>
      <trkpt lat="44.84898" lon="1.75648">
        <ele>355.9</ele>
        <time>2022-05-24T09:19:18Z</time>
      </trkpt>
      <trkpt lat="44.84902" lon="1.75651">
        <ele>356.1</ele>
        <time>2022-05-24T09:19:19Z</time>
      </trkpt>
      <trkpt lat="44.84907" lon="1.75652">
        <ele>356.4</ele>
        <time>2022-05-24T09:19:20Z</time>
      </trkpt>
      <trkpt lat="44.84912" lon="1.75652">
        <ele>356.7</ele>
        <time>2022-05-24T09:19:21Z</time>
      </trkpt>
      <trkpt lat="44.84917" lon="1.75653">
        <ele>357</ele>
        <time>2022-05-24T09:19:22Z</time>
      </trkpt>
      <trkpt lat="44.8492" lon="1.75656">
        <ele>357.2</ele>
        <time>2022-05-24T09:19:23Z</time>
      </trkpt>
      <trkpt lat="44.84923" lon="1.75661">
        <ele>357.5</ele>
        <time>2022-05-24T09:19:24Z</time>
      </trkpt>
      <trkpt lat="44.84935" lon="1.75676">
        <ele>358.6</ele>
        <time>2022-05-24T09:19:28Z</time>
      </trkpt>
      <trkpt lat="44.84942" lon="1.75686">
        <ele>359.3</ele>
        <time>2022-05-24T09:19:30Z</time>
      </trkpt>
      <trkpt lat="44.84945" lon="1.75691">
        <ele>359.6</ele>
        <time>2022-05-24T09:19:31Z</time>
      </trkpt>
      <trkpt lat="44.84948" lon="1.75696">
        <ele>360</ele>
        <time>2022-05-24T09:19:32Z</time>
      </trkpt>
      <trkpt lat="44.84951" lon="1.75699">
        <ele>360.3</ele>
        <time>2022-05-24T09:19:33Z</time>
      </trkpt>
      <trkpt lat="44.84953" lon="1.75703">
        <ele>360.5</ele>
        <time>2022-05-24T09:19:34Z</time>
      </trkpt>
      <trkpt lat="44.84957" lon="1.75707">
        <ele>360.9</ele>
        <time>2022-05-24T09:19:35Z</time>
      </trkpt>
      <trkpt lat="44.84961" lon="1.75712">
        <ele>361.2</ele>
        <time>2022-05-24T09:19:36Z</time>
      </trkpt>
      <trkpt lat="44.84963" lon="1.75715">
        <ele>361.5</ele>
        <time>2022-05-24T09:19:37Z</time>
      </trkpt>
      <trkpt lat="44.84965" lon="1.75719">
        <ele>361.7</ele>
        <time>2022-05-24T09:19:38Z</time>
      </trkpt>
      <trkpt lat="44.84967" lon="1.75724">
        <ele>362</ele>
        <time>2022-05-24T09:19:39Z</time>
      </trkpt>
      <trkpt lat="44.8497" lon="1.75729">
        <ele>362.3</ele>
        <time>2022-05-24T09:19:40Z</time>
      </trkpt>
      <trkpt lat="44.84972" lon="1.75734">
        <ele>362.6</ele>
        <time>2022-05-24T09:19:41Z</time>
      </trkpt>
      <trkpt lat="44.84975" lon="1.75739">
        <ele>362.9</ele>
        <time>2022-05-24T09:19:42Z</time>
      </trkpt>
      <trkpt lat="44.84977" lon="1.75744">
        <ele>363.2</ele>
        <time>2022-05-24T09:19:43Z</time>
      </trkpt>
      <trkpt lat="44.84979" lon="1.75748">
        <ele>363.4</ele>
        <time>2022-05-24T09:19:44Z</time>
      </trkpt>
      <trkpt lat="44.84981" lon="1.75754">
        <ele>363.6</ele>
        <time>2022-05-24T09:19:45Z</time>
      </trkpt>
      <trkpt lat="44.84984" lon="1.7576">
        <ele>363.9</ele>
        <time>2022-05-24T09:19:46Z</time>
      </trkpt>
      <trkpt lat="44.84986" lon="1.75765">
        <ele>364.1</ele>
        <time>2022-05-24T09:19:47Z</time>
      </trkpt>
      <trkpt lat="44.84988" lon="1.75771">
        <ele>364.3</ele>
        <time>2022-05-24T09:19:48Z</time>
      </trkpt>
      <trkpt lat="44.8499" lon="1.75777">
        <ele>364.5</ele>
        <time>2022-05-24T09:19:49Z</time>
      </trkpt>
      <trkpt lat="44.84992" lon="1.75783">
        <ele>364.6</ele>
        <time>2022-05-24T09:19:50Z</time>
      </trkpt>
      <trkpt lat="44.84995" lon="1.7579">
        <ele>364.8</ele>
        <time>2022-05-24T09:19:51Z</time>
      </trkpt>
      <trkpt lat="44.84996" lon="1.75796">
        <ele>364.9</ele>
        <time>2022-05-24T09:19:52Z</time>
      </trkpt>
      <trkpt lat="44.84998" lon="1.75802">
        <ele>365.1</ele>
        <time>2022-05-24T09:19:53Z</time>
      </trkpt>
      <trkpt lat="44.85" lon="1.75808">
        <ele>365.2</ele>
        <time>2022-05-24T09:19:54Z</time>
      </trkpt>
      <trkpt lat="44.85002" lon="1.75814">
        <ele>365.3</ele>
        <time>2022-05-24T09:19:55Z</time>
      </trkpt>
      <trkpt lat="44.85004" lon="1.75819">
        <ele>365.5</ele>
        <time>2022-05-24T09:19:56Z</time>
      </trkpt>
      <trkpt lat="44.85006" lon="1.75824">
        <ele>365.7</ele>
        <time>2022-05-24T09:19:57Z</time>
      </trkpt>
      <trkpt lat="44.85008" lon="1.75831">
        <ele>365.8</ele>
        <time>2022-05-24T09:19:58Z</time>
      </trkpt>
      <trkpt lat="44.8501" lon="1.75836">
        <ele>366</ele>
        <time>2022-05-24T09:19:59Z</time>
      </trkpt>
      <trkpt lat="44.85013" lon="1.75841">
        <ele>366.1</ele>
        <time>2022-05-24T09:20:00Z</time>
      </trkpt>
      <trkpt lat="44.85016" lon="1.75846">
        <ele>366.1</ele>
        <time>2022-05-24T09:20:01Z</time>
      </trkpt>
      <trkpt lat="44.85019" lon="1.75851">
        <ele>366.2</ele>
        <time>2022-05-24T09:20:02Z</time>
      </trkpt>
      <trkpt lat="44.85021" lon="1.75856">
        <ele>366.2</ele>
        <time>2022-05-24T09:20:03Z</time>
      </trkpt>
      <trkpt lat="44.85024" lon="1.75861">
        <ele>366.1</ele>
        <time>2022-05-24T09:20:04Z</time>
      </trkpt>
      <trkpt lat="44.85027" lon="1.75866">
        <ele>366.1</ele>
        <time>2022-05-24T09:20:05Z</time>
      </trkpt>
      <trkpt lat="44.85031" lon="1.75871">
        <ele>366</ele>
        <time>2022-05-24T09:20:06Z</time>
      </trkpt>
      <trkpt lat="44.85035" lon="1.75875">
        <ele>365.8</ele>
        <time>2022-05-24T09:20:07Z</time>
      </trkpt>
      <trkpt lat="44.85039" lon="1.7588">
        <ele>365.6</ele>
        <time>2022-05-24T09:20:08Z</time>
      </trkpt>
      <trkpt lat="44.85044" lon="1.75887">
        <ele>365.3</ele>
        <time>2022-05-24T09:20:09Z</time>
      </trkpt>
      <trkpt lat="44.85049" lon="1.75893">
        <ele>365</ele>
        <time>2022-05-24T09:20:10Z</time>
      </trkpt>
      <trkpt lat="44.85053" lon="1.75899">
        <ele>364.7</ele>
        <time>2022-05-24T09:20:11Z</time>
      </trkpt>
      <trkpt lat="44.85057" lon="1.75907">
        <ele>364.3</ele>
        <time>2022-05-24T09:20:12Z</time>
      </trkpt>
      <trkpt lat="44.85062" lon="1.75914">
        <ele>363.9</ele>
        <time>2022-05-24T09:20:13Z</time>
      </trkpt>
      <trkpt lat="44.85066" lon="1.75921">
        <ele>363.6</ele>
        <time>2022-05-24T09:20:14Z</time>
      </trkpt>
      <trkpt lat="44.85071" lon="1.75928">
        <ele>363.4</ele>
        <time>2022-05-24T09:20:15Z</time>
      </trkpt>
      <trkpt lat="44.85076" lon="1.75935">
        <ele>363.2</ele>
        <time>2022-05-24T09:20:16Z</time>
      </trkpt>
      <trkpt lat="44.85081" lon="1.75943">
        <ele>363</ele>
        <time>2022-05-24T09:20:17Z</time>
      </trkpt>
      <trkpt lat="44.85086" lon="1.7595">
        <ele>363</ele>
        <time>2022-05-24T09:20:18Z</time>
      </trkpt>
      <trkpt lat="44.85091" lon="1.75955">
        <ele>363</ele>
        <time>2022-05-24T09:20:19Z</time>
      </trkpt>
      <trkpt lat="44.85096" lon="1.75961">
        <ele>363.1</ele>
        <time>2022-05-24T09:20:20Z</time>
      </trkpt>
      <trkpt lat="44.851" lon="1.75966">
        <ele>363.3</ele>
        <time>2022-05-24T09:20:21Z</time>
      </trkpt>
      <trkpt lat="44.85105" lon="1.75972">
        <ele>363.5</ele>
        <time>2022-05-24T09:20:22Z</time>
      </trkpt>
      <trkpt lat="44.85109" lon="1.75979">
        <ele>363.8</ele>
        <time>2022-05-24T09:20:23Z</time>
      </trkpt>
      <trkpt lat="44.85113" lon="1.75985">
        <ele>364.1</ele>
        <time>2022-05-24T09:20:24Z</time>
      </trkpt>
      <trkpt lat="44.85117" lon="1.75991">
        <ele>364.4</ele>
        <time>2022-05-24T09:20:25Z</time>
      </trkpt>
      <trkpt lat="44.8512" lon="1.75997">
        <ele>364.7</ele>
        <time>2022-05-24T09:20:26Z</time>
      </trkpt>
      <trkpt lat="44.85126" lon="1.7601">
        <ele>365.3</ele>
        <time>2022-05-24T09:20:28Z</time>
      </trkpt>
      <trkpt lat="44.8513" lon="1.76016">
        <ele>365.6</ele>
        <time>2022-05-24T09:20:29Z</time>
      </trkpt>
      <trkpt lat="44.85134" lon="1.7602">
        <ele>365.8</ele>
        <time>2022-05-24T09:20:30Z</time>
      </trkpt>
      <trkpt lat="44.85137" lon="1.76024">
        <ele>366</ele>
        <time>2022-05-24T09:20:31Z</time>
      </trkpt>
      <trkpt lat="44.8514" lon="1.76029">
        <ele>366.1</ele>
        <time>2022-05-24T09:20:32Z</time>
      </trkpt>
      <trkpt lat="44.85144" lon="1.76034">
        <ele>366.3</ele>
        <time>2022-05-24T09:20:33Z</time>
      </trkpt>
      <trkpt lat="44.85147" lon="1.76039">
        <ele>366.4</ele>
        <time>2022-05-24T09:20:34Z</time>
      </trkpt>
      <trkpt lat="44.8515" lon="1.76044">
        <ele>366.4</ele>
        <time>2022-05-24T09:20:35Z</time>
      </trkpt>
      <trkpt lat="44.85153" lon="1.76049">
        <ele>366.4</ele>
        <time>2022-05-24T09:20:36Z</time>
      </trkpt>
      <trkpt lat="44.85158" lon="1.76054">
        <ele>366.4</ele>
        <time>2022-05-24T09:20:37Z</time>
      </trkpt>
      <trkpt lat="44.85162" lon="1.76058">
        <ele>366.4</ele>
        <time>2022-05-24T09:20:38Z</time>
      </trkpt>
      <trkpt lat="44.85167" lon="1.76061">
        <ele>366.4</ele>
        <time>2022-05-24T09:20:39Z</time>
      </trkpt>
      <trkpt lat="44.85171" lon="1.76066">
        <ele>366.2</ele>
        <time>2022-05-24T09:20:40Z</time>
      </trkpt>
      <trkpt lat="44.85177" lon="1.76072">
        <ele>366.1</ele>
        <time>2022-05-24T09:20:41Z</time>
      </trkpt>
      <trkpt lat="44.85181" lon="1.76078">
        <ele>365.9</ele>
        <time>2022-05-24T09:20:42Z</time>
      </trkpt>
      <trkpt lat="44.85184" lon="1.76083">
        <ele>365.7</ele>
        <time>2022-05-24T09:20:43Z</time>
      </trkpt>
      <trkpt lat="44.85188" lon="1.76088">
        <ele>365.5</ele>
        <time>2022-05-24T09:20:44Z</time>
      </trkpt>
      <trkpt lat="44.85193" lon="1.76093">
        <ele>365.2</ele>
        <time>2022-05-24T09:20:45Z</time>
      </trkpt>
      <trkpt lat="44.85197" lon="1.76098">
        <ele>364.9</ele>
        <time>2022-05-24T09:20:46Z</time>
      </trkpt>
      <trkpt lat="44.85202" lon="1.76104">
        <ele>364.5</ele>
        <time>2022-05-24T09:20:47Z</time>
      </trkpt>
      <trkpt lat="44.85207" lon="1.76109">
        <ele>364.1</ele>
        <time>2022-05-24T09:20:48Z</time>
      </trkpt>
      <trkpt lat="44.85212" lon="1.76116">
        <ele>363.7</ele>
        <time>2022-05-24T09:20:49Z</time>
      </trkpt>
      <trkpt lat="44.85218" lon="1.76122">
        <ele>363.3</ele>
        <time>2022-05-24T09:20:50Z</time>
      </trkpt>
      <trkpt lat="44.85223" lon="1.76129">
        <ele>363</ele>
        <time>2022-05-24T09:20:51Z</time>
      </trkpt>
      <trkpt lat="44.85229" lon="1.76136">
        <ele>362.7</ele>
        <time>2022-05-24T09:20:52Z</time>
      </trkpt>
      <trkpt lat="44.85235" lon="1.76142">
        <ele>362.5</ele>
        <time>2022-05-24T09:20:53Z</time>
      </trkpt>
      <trkpt lat="44.8524" lon="1.76147">
        <ele>362.2</ele>
        <time>2022-05-24T09:20:54Z</time>
      </trkpt>
      <trkpt lat="44.85245" lon="1.76152">
        <ele>362.1</ele>
        <time>2022-05-24T09:20:55Z</time>
      </trkpt>
      <trkpt lat="44.8525" lon="1.76159">
        <ele>361.9</ele>
        <time>2022-05-24T09:20:56Z</time>
      </trkpt>
      <trkpt lat="44.85253" lon="1.76167">
        <ele>361.7</ele>
        <time>2022-05-24T09:20:57Z</time>
      </trkpt>
      <trkpt lat="44.85256" lon="1.76175">
        <ele>361.6</ele>
        <time>2022-05-24T09:20:58Z</time>
      </trkpt>
      <trkpt lat="44.85259" lon="1.76183">
        <ele>361.4</ele>
        <time>2022-05-24T09:20:59Z</time>
      </trkpt>
      <trkpt lat="44.85262" lon="1.76191">
        <ele>361.3</ele>
        <time>2022-05-24T09:21:00Z</time>
      </trkpt>
      <trkpt lat="44.85265" lon="1.762">
        <ele>361.2</ele>
        <time>2022-05-24T09:21:01Z</time>
      </trkpt>
      <trkpt lat="44.85269" lon="1.76208">
        <ele>361.2</ele>
        <time>2022-05-24T09:21:02Z</time>
      </trkpt>
      <trkpt lat="44.85272" lon="1.76215">
        <ele>361.3</ele>
        <time>2022-05-24T09:21:03Z</time>
      </trkpt>
      <trkpt lat="44.85277" lon="1.76223">
        <ele>361.5</ele>
        <time>2022-05-24T09:21:04Z</time>
      </trkpt>
      <trkpt lat="44.85282" lon="1.76229">
        <ele>361.8</ele>
        <time>2022-05-24T09:21:05Z</time>
      </trkpt>
      <trkpt lat="44.85286" lon="1.76236">
        <ele>362.1</ele>
        <time>2022-05-24T09:21:06Z</time>
      </trkpt>
      <trkpt lat="44.85289" lon="1.7624">
        <ele>362.4</ele>
        <time>2022-05-24T09:21:07Z</time>
      </trkpt>
      <trkpt lat="44.85293" lon="1.76245">
        <ele>362.7</ele>
        <time>2022-05-24T09:21:08Z</time>
      </trkpt>
      <trkpt lat="44.85296" lon="1.7625">
        <ele>363</ele>
        <time>2022-05-24T09:21:09Z</time>
      </trkpt>
      <trkpt lat="44.85298" lon="1.76256">
        <ele>363.3</ele>
        <time>2022-05-24T09:21:10Z</time>
      </trkpt>
      <trkpt lat="44.85301" lon="1.76261">
        <ele>363.7</ele>
        <time>2022-05-24T09:21:11Z</time>
      </trkpt>
      <trkpt lat="44.85303" lon="1.76266">
        <ele>364.1</ele>
        <time>2022-05-24T09:21:12Z</time>
      </trkpt>
      <trkpt lat="44.85305" lon="1.76272">
        <ele>364.5</ele>
        <time>2022-05-24T09:21:13Z</time>
      </trkpt>
      <trkpt lat="44.85307" lon="1.76276">
        <ele>364.8</ele>
        <time>2022-05-24T09:21:14Z</time>
      </trkpt>
      <trkpt lat="44.85309" lon="1.7628">
        <ele>365.1</ele>
        <time>2022-05-24T09:21:15Z</time>
      </trkpt>
      <trkpt lat="44.85311" lon="1.76284">
        <ele>365.5</ele>
        <time>2022-05-24T09:21:16Z</time>
      </trkpt>
      <trkpt lat="44.85313" lon="1.76289">
        <ele>365.9</ele>
        <time>2022-05-24T09:21:17Z</time>
      </trkpt>
      <trkpt lat="44.85315" lon="1.76294">
        <ele>366.3</ele>
        <time>2022-05-24T09:21:18Z</time>
      </trkpt>
      <trkpt lat="44.85316" lon="1.76299">
        <ele>366.7</ele>
        <time>2022-05-24T09:21:19Z</time>
      </trkpt>
      <trkpt lat="44.85316" lon="1.76301">
        <ele>366.8</ele>
        <time>2022-05-24T09:21:20Z</time>
      </trkpt>
      <trkpt lat="44.85317" lon="1.76306">
        <ele>367.3</ele>
        <time>2022-05-24T09:21:21Z</time>
      </trkpt>
      <trkpt lat="44.85318" lon="1.76308">
        <ele>367.4</ele>
        <time>2022-05-24T09:21:22Z</time>
      </trkpt>
      <trkpt lat="44.85319" lon="1.76313">
        <ele>367.8</ele>
        <time>2022-05-24T09:21:23Z</time>
      </trkpt>
      <trkpt lat="44.8532" lon="1.76315">
        <ele>368</ele>
        <time>2022-05-24T09:21:24Z</time>
      </trkpt>
      <trkpt lat="44.85322" lon="1.76318">
        <ele>368.3</ele>
        <time>2022-05-24T09:21:25Z</time>
      </trkpt>
      <trkpt lat="44.85324" lon="1.76322">
        <ele>368.7</ele>
        <time>2022-05-24T09:21:26Z</time>
      </trkpt>
      <trkpt lat="44.85325" lon="1.76326">
        <ele>369</ele>
        <time>2022-05-24T09:21:27Z</time>
      </trkpt>
      <trkpt lat="44.85327" lon="1.76331">
        <ele>369.4</ele>
        <time>2022-05-24T09:21:28Z</time>
      </trkpt>
      <trkpt lat="44.85327" lon="1.76332">
        <ele>369.5</ele>
        <time>2022-05-24T09:21:29Z</time>
      </trkpt>
      <trkpt lat="44.85328" lon="1.76338">
        <ele>369.9</ele>
        <time>2022-05-24T09:21:30Z</time>
      </trkpt>
      <trkpt lat="44.85328" lon="1.7634">
        <ele>370.1</ele>
        <time>2022-05-24T09:21:31Z</time>
      </trkpt>
      <trkpt lat="44.85329" lon="1.76345">
        <ele>370.4</ele>
        <time>2022-05-24T09:21:32Z</time>
      </trkpt>
      <trkpt lat="44.85331" lon="1.76349">
        <ele>370.8</ele>
        <time>2022-05-24T09:21:33Z</time>
      </trkpt>
      <trkpt lat="44.85332" lon="1.76352">
        <ele>371.1</ele>
        <time>2022-05-24T09:21:34Z</time>
      </trkpt>
      <trkpt lat="44.85334" lon="1.76358">
        <ele>371.6</ele>
        <time>2022-05-24T09:21:35Z</time>
      </trkpt>
      <trkpt lat="44.85334" lon="1.76359">
        <ele>371.7</ele>
        <time>2022-05-24T09:21:36Z</time>
      </trkpt>
      <trkpt lat="44.85334" lon="1.76364">
        <ele>372.1</ele>
        <time>2022-05-24T09:21:37Z</time>
      </trkpt>
      <trkpt lat="44.85335" lon="1.76365">
        <ele>372.2</ele>
        <time>2022-05-24T09:21:38Z</time>
      </trkpt>
      <trkpt lat="44.85335" lon="1.76369">
        <ele>372.5</ele>
        <time>2022-05-24T09:21:39Z</time>
      </trkpt>
      <trkpt lat="44.85335" lon="1.7637">
        <ele>372.6</ele>
        <time>2022-05-24T09:21:40Z</time>
      </trkpt>
      <trkpt lat="44.85336" lon="1.76375">
        <ele>373</ele>
        <time>2022-05-24T09:21:41Z</time>
      </trkpt>
      <trkpt lat="44.85337" lon="1.76376">
        <ele>373.1</ele>
        <time>2022-05-24T09:21:42Z</time>
      </trkpt>
      <trkpt lat="44.85337" lon="1.76381">
        <ele>373.6</ele>
        <time>2022-05-24T09:21:43Z</time>
      </trkpt>
      <trkpt lat="44.85338" lon="1.76383">
        <ele>373.7</ele>
        <time>2022-05-24T09:21:44Z</time>
      </trkpt>
      <trkpt lat="44.85339" lon="1.76388">
        <ele>374.2</ele>
        <time>2022-05-24T09:21:45Z</time>
      </trkpt>
      <trkpt lat="44.85339" lon="1.7639">
        <ele>374.4</ele>
        <time>2022-05-24T09:21:46Z</time>
      </trkpt>
      <trkpt lat="44.8534" lon="1.76394">
        <ele>374.8</ele>
        <time>2022-05-24T09:21:47Z</time>
      </trkpt>
      <trkpt lat="44.8534" lon="1.76395">
        <ele>374.9</ele>
        <time>2022-05-24T09:21:48Z</time>
      </trkpt>
      <trkpt lat="44.8534" lon="1.76397">
        <ele>375.1</ele>
        <time>2022-05-24T09:21:49Z</time>
      </trkpt>
      <trkpt lat="44.85342" lon="1.76399">
        <ele>375.4</ele>
        <time>2022-05-24T09:21:50Z</time>
      </trkpt>
      <trkpt lat="44.85344" lon="1.76401">
        <ele>375.8</ele>
        <time>2022-05-24T09:21:51Z</time>
      </trkpt>
      <trkpt lat="44.85344" lon="1.76402">
        <ele>375.9</ele>
        <time>2022-05-24T09:21:52Z</time>
      </trkpt>
      <trkpt lat="44.85346" lon="1.76404">
        <ele>376.2</ele>
        <time>2022-05-24T09:21:53Z</time>
      </trkpt>
      <trkpt lat="44.85347" lon="1.76405">
        <ele>376.4</ele>
        <time>2022-05-24T09:21:54Z</time>
      </trkpt>
      <trkpt lat="44.85348" lon="1.76407">
        <ele>376.6</ele>
        <time>2022-05-24T09:21:55Z</time>
      </trkpt>
      <trkpt lat="44.85348" lon="1.76409">
        <ele>376.8</ele>
        <time>2022-05-24T09:21:56Z</time>
      </trkpt>
      <trkpt lat="44.85349" lon="1.7641">
        <ele>377</ele>
        <time>2022-05-24T09:21:57Z</time>
      </trkpt>
      <trkpt lat="44.8535" lon="1.76412">
        <ele>377.3</ele>
        <time>2022-05-24T09:21:58Z</time>
      </trkpt>
      <trkpt lat="44.85352" lon="1.76413">
        <ele>377.5</ele>
        <time>2022-05-24T09:21:59Z</time>
      </trkpt>
      <trkpt lat="44.85353" lon="1.76414">
        <ele>377.8</ele>
        <time>2022-05-24T09:22:00Z</time>
      </trkpt>
      <trkpt lat="44.85354" lon="1.76416">
        <ele>378</ele>
        <time>2022-05-24T09:22:01Z</time>
      </trkpt>
      <trkpt lat="44.85355" lon="1.76417">
        <ele>378.2</ele>
        <time>2022-05-24T09:22:02Z</time>
      </trkpt>
      <trkpt lat="44.85356" lon="1.76419">
        <ele>378.4</ele>
        <time>2022-05-24T09:22:03Z</time>
      </trkpt>
      <trkpt lat="44.85357" lon="1.7642">
        <ele>378.6</ele>
        <time>2022-05-24T09:22:04Z</time>
      </trkpt>
      <trkpt lat="44.85359" lon="1.76422">
        <ele>378.9</ele>
        <time>2022-05-24T09:22:05Z</time>
      </trkpt>
      <trkpt lat="44.8536" lon="1.76423">
        <ele>379.1</ele>
        <time>2022-05-24T09:22:06Z</time>
      </trkpt>
      <trkpt lat="44.85361" lon="1.76425">
        <ele>379.3</ele>
        <time>2022-05-24T09:22:07Z</time>
      </trkpt>
      <trkpt lat="44.85362" lon="1.76426">
        <ele>379.5</ele>
        <time>2022-05-24T09:22:08Z</time>
      </trkpt>
      <trkpt lat="44.85363" lon="1.76428">
        <ele>379.7</ele>
        <time>2022-05-24T09:22:09Z</time>
      </trkpt>
      <trkpt lat="44.85364" lon="1.7643">
        <ele>380</ele>
        <time>2022-05-24T09:22:10Z</time>
      </trkpt>
      <trkpt lat="44.85366" lon="1.76433">
        <ele>380.4</ele>
        <time>2022-05-24T09:22:11Z</time>
      </trkpt>
      <trkpt lat="44.85367" lon="1.76434">
        <ele>380.5</ele>
        <time>2022-05-24T09:22:12Z</time>
      </trkpt>
      <trkpt lat="44.85369" lon="1.76437">
        <ele>380.9</ele>
        <time>2022-05-24T09:22:13Z</time>
      </trkpt>
      <trkpt lat="44.85369" lon="1.76438">
        <ele>381</ele>
        <time>2022-05-24T09:22:14Z</time>
      </trkpt>
      <trkpt lat="44.85372" lon="1.76441">
        <ele>381.4</ele>
        <time>2022-05-24T09:22:15Z</time>
      </trkpt>
      <trkpt lat="44.85372" lon="1.76442">
        <ele>381.5</ele>
        <time>2022-05-24T09:22:16Z</time>
      </trkpt>
      <trkpt lat="44.85374" lon="1.76445">
        <ele>381.9</ele>
        <time>2022-05-24T09:22:17Z</time>
      </trkpt>
      <trkpt lat="44.85375" lon="1.76446">
        <ele>382</ele>
        <time>2022-05-24T09:22:18Z</time>
      </trkpt>
      <trkpt lat="44.85377" lon="1.76449">
        <ele>382.3</ele>
        <time>2022-05-24T09:22:19Z</time>
      </trkpt>
      <trkpt lat="44.85378" lon="1.76451">
        <ele>382.4</ele>
        <time>2022-05-24T09:22:20Z</time>
      </trkpt>
      <trkpt lat="44.85379" lon="1.76454">
        <ele>382.8</ele>
        <time>2022-05-24T09:22:21Z</time>
      </trkpt>
      <trkpt lat="44.8538" lon="1.76455">
        <ele>382.9</ele>
        <time>2022-05-24T09:22:22Z</time>
      </trkpt>
      <trkpt lat="44.85381" lon="1.76458">
        <ele>383.2</ele>
        <time>2022-05-24T09:22:23Z</time>
      </trkpt>
      <trkpt lat="44.85382" lon="1.76459">
        <ele>383.3</ele>
        <time>2022-05-24T09:22:24Z</time>
      </trkpt>
      <trkpt lat="44.85384" lon="1.76462">
        <ele>383.6</ele>
        <time>2022-05-24T09:22:25Z</time>
      </trkpt>
      <trkpt lat="44.85384" lon="1.76463">
        <ele>383.7</ele>
        <time>2022-05-24T09:22:26Z</time>
      </trkpt>
      <trkpt lat="44.85386" lon="1.76465">
        <ele>383.9</ele>
        <time>2022-05-24T09:22:27Z</time>
      </trkpt>
      <trkpt lat="44.85387" lon="1.76466">
        <ele>384.1</ele>
        <time>2022-05-24T09:22:28Z</time>
      </trkpt>
      <trkpt lat="44.85388" lon="1.76468">
        <ele>384.3</ele>
        <time>2022-05-24T09:22:29Z</time>
      </trkpt>
      <trkpt lat="44.8539" lon="1.7647">
        <ele>384.5</ele>
        <time>2022-05-24T09:22:30Z</time>
      </trkpt>
      <trkpt lat="44.85392" lon="1.76473">
        <ele>384.9</ele>
        <time>2022-05-24T09:22:31Z</time>
      </trkpt>
      <trkpt lat="44.85392" lon="1.76474">
        <ele>385</ele>
        <time>2022-05-24T09:22:32Z</time>
      </trkpt>
      <trkpt lat="44.85393" lon="1.76476">
        <ele>385.2</ele>
        <time>2022-05-24T09:22:33Z</time>
      </trkpt>
      <trkpt lat="44.85394" lon="1.76478">
        <ele>385.4</ele>
        <time>2022-05-24T09:22:34Z</time>
      </trkpt>
      <trkpt lat="44.85395" lon="1.7648">
        <ele>385.6</ele>
        <time>2022-05-24T09:22:35Z</time>
      </trkpt>
      <trkpt lat="44.85396" lon="1.76482">
        <ele>385.8</ele>
        <time>2022-05-24T09:22:36Z</time>
      </trkpt>
      <trkpt lat="44.85397" lon="1.76484">
        <ele>385.9</ele>
        <time>2022-05-24T09:22:37Z</time>
      </trkpt>
      <trkpt lat="44.85399" lon="1.76485">
        <ele>386.1</ele>
        <time>2022-05-24T09:22:38Z</time>
      </trkpt>
      <trkpt lat="44.85401" lon="1.76488">
        <ele>386.5</ele>
        <time>2022-05-24T09:22:39Z</time>
      </trkpt>
      <trkpt lat="44.85402" lon="1.76489">
        <ele>386.6</ele>
        <time>2022-05-24T09:22:40Z</time>
      </trkpt>
      <trkpt lat="44.85404" lon="1.76492">
        <ele>386.9</ele>
        <time>2022-05-24T09:22:41Z</time>
      </trkpt>
      <trkpt lat="44.85404" lon="1.76493">
        <ele>387</ele>
        <time>2022-05-24T09:22:42Z</time>
      </trkpt>
      <trkpt lat="44.85406" lon="1.76496">
        <ele>387.3</ele>
        <time>2022-05-24T09:22:43Z</time>
      </trkpt>
      <trkpt lat="44.85406" lon="1.76498">
        <ele>387.4</ele>
        <time>2022-05-24T09:22:44Z</time>
      </trkpt>
      <trkpt lat="44.85408" lon="1.76502">
        <ele>387.8</ele>
        <time>2022-05-24T09:22:45Z</time>
      </trkpt>
      <trkpt lat="44.85409" lon="1.76503">
        <ele>387.9</ele>
        <time>2022-05-24T09:22:46Z</time>
      </trkpt>
      <trkpt lat="44.85411" lon="1.76507">
        <ele>388.3</ele>
        <time>2022-05-24T09:22:47Z</time>
      </trkpt>
      <trkpt lat="44.85412" lon="1.76508">
        <ele>388.4</ele>
        <time>2022-05-24T09:22:48Z</time>
      </trkpt>
      <trkpt lat="44.85414" lon="1.76511">
        <ele>388.7</ele>
        <time>2022-05-24T09:22:49Z</time>
      </trkpt>
      <trkpt lat="44.85415" lon="1.76512">
        <ele>388.8</ele>
        <time>2022-05-24T09:22:50Z</time>
      </trkpt>
      <trkpt lat="44.85416" lon="1.76514">
        <ele>389</ele>
        <time>2022-05-24T09:22:51Z</time>
      </trkpt>
      <trkpt lat="44.85418" lon="1.76515">
        <ele>389.2</ele>
        <time>2022-05-24T09:22:52Z</time>
      </trkpt>
      <trkpt lat="44.85419" lon="1.76515">
        <ele>389.3</ele>
        <time>2022-05-24T09:22:53Z</time>
      </trkpt>
      <trkpt lat="44.85421" lon="1.76515">
        <ele>389.2</ele>
        <time>2022-05-24T09:22:54Z</time>
      </trkpt>
      <trkpt lat="44.85422" lon="1.76511">
        <ele>389.1</ele>
        <time>2022-05-24T09:22:55Z</time>
      </trkpt>
      <trkpt lat="44.85423" lon="1.76509">
        <ele>389</ele>
        <time>2022-05-24T09:22:56Z</time>
      </trkpt>
      <trkpt lat="44.85423" lon="1.76505">
        <ele>388.9</ele>
        <time>2022-05-24T09:22:57Z</time>
      </trkpt>
      <trkpt lat="44.85423" lon="1.765">
        <ele>388.8</ele>
        <time>2022-05-24T09:22:58Z</time>
      </trkpt>
      <trkpt lat="44.85423" lon="1.76496">
        <ele>388.7</ele>
        <time>2022-05-24T09:22:59Z</time>
      </trkpt>
      <trkpt lat="44.85424" lon="1.76491">
        <ele>388.6</ele>
        <time>2022-05-24T09:23:00Z</time>
      </trkpt>
      <trkpt lat="44.85425" lon="1.76485">
        <ele>388.5</ele>
        <time>2022-05-24T09:23:01Z</time>
      </trkpt>
      <trkpt lat="44.85427" lon="1.7648">
        <ele>388.4</ele>
        <time>2022-05-24T09:23:02Z</time>
      </trkpt>
      <trkpt lat="44.85428" lon="1.76474">
        <ele>388.3</ele>
        <time>2022-05-24T09:23:03Z</time>
      </trkpt>
      <trkpt lat="44.8543" lon="1.76469">
        <ele>388.2</ele>
        <time>2022-05-24T09:23:04Z</time>
      </trkpt>
      <trkpt lat="44.85432" lon="1.76464">
        <ele>388.1</ele>
        <time>2022-05-24T09:23:05Z</time>
      </trkpt>
      <trkpt lat="44.85433" lon="1.76459">
        <ele>388</ele>
        <time>2022-05-24T09:23:06Z</time>
      </trkpt>
      <trkpt lat="44.85435" lon="1.76455">
        <ele>388</ele>
        <time>2022-05-24T09:23:07Z</time>
      </trkpt>
      <trkpt lat="44.85437" lon="1.7645">
        <ele>387.9</ele>
        <time>2022-05-24T09:23:08Z</time>
      </trkpt>
      <trkpt lat="44.85438" lon="1.76445">
        <ele>387.9</ele>
        <time>2022-05-24T09:23:09Z</time>
      </trkpt>
      <trkpt lat="44.8544" lon="1.7644">
        <ele>387.8</ele>
        <time>2022-05-24T09:23:10Z</time>
      </trkpt>
      <trkpt lat="44.85442" lon="1.76435">
        <ele>387.7</ele>
        <time>2022-05-24T09:23:11Z</time>
      </trkpt>
      <trkpt lat="44.85443" lon="1.76429">
        <ele>387.7</ele>
        <time>2022-05-24T09:23:12Z</time>
      </trkpt>
      <trkpt lat="44.85445" lon="1.76422">
        <ele>387.6</ele>
        <time>2022-05-24T09:23:13Z</time>
      </trkpt>
      <trkpt lat="44.85446" lon="1.76415">
        <ele>387.6</ele>
        <time>2022-05-24T09:23:14Z</time>
      </trkpt>
      <trkpt lat="44.85448" lon="1.76409">
        <ele>387.5</ele>
        <time>2022-05-24T09:23:15Z</time>
      </trkpt>
      <trkpt lat="44.8545" lon="1.76402">
        <ele>387.5</ele>
        <time>2022-05-24T09:23:16Z</time>
      </trkpt>
      <trkpt lat="44.85452" lon="1.76395">
        <ele>387.4</ele>
        <time>2022-05-24T09:23:17Z</time>
      </trkpt>
      <trkpt lat="44.85454" lon="1.76389">
        <ele>387.4</ele>
        <time>2022-05-24T09:23:18Z</time>
      </trkpt>
      <trkpt lat="44.85455" lon="1.76383">
        <ele>387.4</ele>
        <time>2022-05-24T09:23:19Z</time>
      </trkpt>
      <trkpt lat="44.85457" lon="1.76378">
        <ele>387.4</ele>
        <time>2022-05-24T09:23:20Z</time>
      </trkpt>
      <trkpt lat="44.85458" lon="1.76371">
        <ele>387.3</ele>
        <time>2022-05-24T09:23:21Z</time>
      </trkpt>
      <trkpt lat="44.8546" lon="1.76365">
        <ele>387.3</ele>
        <time>2022-05-24T09:23:22Z</time>
      </trkpt>
      <trkpt lat="44.85463" lon="1.76358">
        <ele>387.3</ele>
        <time>2022-05-24T09:23:23Z</time>
      </trkpt>
      <trkpt lat="44.85465" lon="1.7635">
        <ele>387.3</ele>
        <time>2022-05-24T09:23:24Z</time>
      </trkpt>
      <trkpt lat="44.85466" lon="1.76344">
        <ele>387.3</ele>
        <time>2022-05-24T09:23:25Z</time>
      </trkpt>
      <trkpt lat="44.85467" lon="1.76337">
        <ele>387.3</ele>
        <time>2022-05-24T09:23:26Z</time>
      </trkpt>
      <trkpt lat="44.85468" lon="1.7633">
        <ele>387.3</ele>
        <time>2022-05-24T09:23:27Z</time>
      </trkpt>
      <trkpt lat="44.85471" lon="1.76323">
        <ele>387.3</ele>
        <time>2022-05-24T09:23:28Z</time>
      </trkpt>
      <trkpt lat="44.85473" lon="1.76316">
        <ele>387.3</ele>
        <time>2022-05-24T09:23:29Z</time>
      </trkpt>
      <trkpt lat="44.85474" lon="1.7631">
        <ele>387.3</ele>
        <time>2022-05-24T09:23:30Z</time>
      </trkpt>
      <trkpt lat="44.85475" lon="1.76302">
        <ele>387.3</ele>
        <time>2022-05-24T09:23:31Z</time>
      </trkpt>
      <trkpt lat="44.85476" lon="1.76295">
        <ele>387.3</ele>
        <time>2022-05-24T09:23:32Z</time>
      </trkpt>
      <trkpt lat="44.85478" lon="1.76287">
        <ele>387.3</ele>
        <time>2022-05-24T09:23:33Z</time>
      </trkpt>
      <trkpt lat="44.8548" lon="1.7628">
        <ele>387.3</ele>
        <time>2022-05-24T09:23:34Z</time>
      </trkpt>
      <trkpt lat="44.85482" lon="1.76272">
        <ele>387.3</ele>
        <time>2022-05-24T09:23:35Z</time>
      </trkpt>
      <trkpt lat="44.85484" lon="1.76265">
        <ele>387.3</ele>
        <time>2022-05-24T09:23:36Z</time>
      </trkpt>
      <trkpt lat="44.85486" lon="1.76257">
        <ele>387.3</ele>
        <time>2022-05-24T09:23:37Z</time>
      </trkpt>
      <trkpt lat="44.85488" lon="1.7625">
        <ele>387.4</ele>
        <time>2022-05-24T09:23:38Z</time>
      </trkpt>
      <trkpt lat="44.85491" lon="1.76243">
        <ele>387.4</ele>
        <time>2022-05-24T09:23:39Z</time>
      </trkpt>
      <trkpt lat="44.85493" lon="1.76236">
        <ele>387.4</ele>
        <time>2022-05-24T09:23:40Z</time>
      </trkpt>
      <trkpt lat="44.85494" lon="1.76229">
        <ele>387.4</ele>
        <time>2022-05-24T09:23:41Z</time>
      </trkpt>
      <trkpt lat="44.85496" lon="1.76222">
        <ele>387.4</ele>
        <time>2022-05-24T09:23:42Z</time>
      </trkpt>
      <trkpt lat="44.85498" lon="1.76215">
        <ele>387.4</ele>
        <time>2022-05-24T09:23:43Z</time>
      </trkpt>
      <trkpt lat="44.855" lon="1.76207">
        <ele>387.4</ele>
        <time>2022-05-24T09:23:44Z</time>
      </trkpt>
      <trkpt lat="44.85501" lon="1.762">
        <ele>387.4</ele>
        <time>2022-05-24T09:23:45Z</time>
      </trkpt>
      <trkpt lat="44.85502" lon="1.76191">
        <ele>387.3</ele>
        <time>2022-05-24T09:23:46Z</time>
      </trkpt>
      <trkpt lat="44.85503" lon="1.76183">
        <ele>387.2</ele>
        <time>2022-05-24T09:23:47Z</time>
      </trkpt>
      <trkpt lat="44.85504" lon="1.76175">
        <ele>387.1</ele>
        <time>2022-05-24T09:23:48Z</time>
      </trkpt>
      <trkpt lat="44.85504" lon="1.76168">
        <ele>387</ele>
        <time>2022-05-24T09:23:49Z</time>
      </trkpt>
      <trkpt lat="44.85505" lon="1.7616">
        <ele>386.9</ele>
        <time>2022-05-24T09:23:50Z</time>
      </trkpt>
      <trkpt lat="44.85505" lon="1.76152">
        <ele>386.8</ele>
        <time>2022-05-24T09:23:51Z</time>
      </trkpt>
      <trkpt lat="44.85506" lon="1.76144">
        <ele>386.6</ele>
        <time>2022-05-24T09:23:52Z</time>
      </trkpt>
      <trkpt lat="44.85507" lon="1.76136">
        <ele>386.5</ele>
        <time>2022-05-24T09:23:53Z</time>
      </trkpt>
      <trkpt lat="44.85507" lon="1.76128">
        <ele>386.4</ele>
        <time>2022-05-24T09:23:54Z</time>
      </trkpt>
      <trkpt lat="44.85509" lon="1.76119">
        <ele>386.3</ele>
        <time>2022-05-24T09:23:55Z</time>
      </trkpt>
      <trkpt lat="44.8551" lon="1.76111">
        <ele>386.2</ele>
        <time>2022-05-24T09:23:56Z</time>
      </trkpt>
      <trkpt lat="44.85511" lon="1.76103">
        <ele>386.2</ele>
        <time>2022-05-24T09:23:57Z</time>
      </trkpt>
      <trkpt lat="44.85513" lon="1.76096">
        <ele>386.1</ele>
        <time>2022-05-24T09:23:58Z</time>
      </trkpt>
      <trkpt lat="44.85516" lon="1.76091">
        <ele>386.1</ele>
        <time>2022-05-24T09:23:59Z</time>
      </trkpt>
      <trkpt lat="44.85518" lon="1.76084">
        <ele>386.1</ele>
        <time>2022-05-24T09:24:00Z</time>
      </trkpt>
      <trkpt lat="44.8552" lon="1.76078">
        <ele>386</ele>
        <time>2022-05-24T09:24:01Z</time>
      </trkpt>
      <trkpt lat="44.85523" lon="1.76071">
        <ele>385.9</ele>
        <time>2022-05-24T09:24:02Z</time>
      </trkpt>
      <trkpt lat="44.85526" lon="1.76064">
        <ele>385.9</ele>
        <time>2022-05-24T09:24:03Z</time>
      </trkpt>
      <trkpt lat="44.85528" lon="1.76057">
        <ele>385.8</ele>
        <time>2022-05-24T09:24:04Z</time>
      </trkpt>
      <trkpt lat="44.85531" lon="1.7605">
        <ele>385.7</ele>
        <time>2022-05-24T09:24:05Z</time>
      </trkpt>
      <trkpt lat="44.85533" lon="1.76042">
        <ele>385.5</ele>
        <time>2022-05-24T09:24:06Z</time>
      </trkpt>
      <trkpt lat="44.85536" lon="1.76034">
        <ele>385.4</ele>
        <time>2022-05-24T09:24:07Z</time>
      </trkpt>
      <trkpt lat="44.85538" lon="1.76025">
        <ele>385.2</ele>
        <time>2022-05-24T09:24:08Z</time>
      </trkpt>
      <trkpt lat="44.85541" lon="1.76017">
        <ele>385</ele>
        <time>2022-05-24T09:24:09Z</time>
      </trkpt>
      <trkpt lat="44.85543" lon="1.7601">
        <ele>384.8</ele>
        <time>2022-05-24T09:24:10Z</time>
      </trkpt>
      <trkpt lat="44.85546" lon="1.76002">
        <ele>384.5</ele>
        <time>2022-05-24T09:24:11Z</time>
      </trkpt>
      <trkpt lat="44.85548" lon="1.75994">
        <ele>384.2</ele>
        <time>2022-05-24T09:24:12Z</time>
      </trkpt>
      <trkpt lat="44.8555" lon="1.75985">
        <ele>383.9</ele>
        <time>2022-05-24T09:24:13Z</time>
      </trkpt>
      <trkpt lat="44.85552" lon="1.75977">
        <ele>383.5</ele>
        <time>2022-05-24T09:24:14Z</time>
      </trkpt>
      <trkpt lat="44.85553" lon="1.75969">
        <ele>383.1</ele>
        <time>2022-05-24T09:24:15Z</time>
      </trkpt>
      <trkpt lat="44.85555" lon="1.7596">
        <ele>382.6</ele>
        <time>2022-05-24T09:24:16Z</time>
      </trkpt>
      <trkpt lat="44.85556" lon="1.7595">
        <ele>382.2</ele>
        <time>2022-05-24T09:24:17Z</time>
      </trkpt>
      <trkpt lat="44.85558" lon="1.75941">
        <ele>381.8</ele>
        <time>2022-05-24T09:24:18Z</time>
      </trkpt>
      <trkpt lat="44.8556" lon="1.75931">
        <ele>381.3</ele>
        <time>2022-05-24T09:24:19Z</time>
      </trkpt>
      <trkpt lat="44.85562" lon="1.75921">
        <ele>380.8</ele>
        <time>2022-05-24T09:24:20Z</time>
      </trkpt>
      <trkpt lat="44.85564" lon="1.75912">
        <ele>380.4</ele>
        <time>2022-05-24T09:24:21Z</time>
      </trkpt>
      <trkpt lat="44.85566" lon="1.75902">
        <ele>379.9</ele>
        <time>2022-05-24T09:24:22Z</time>
      </trkpt>
      <trkpt lat="44.85568" lon="1.75893">
        <ele>379.4</ele>
        <time>2022-05-24T09:24:23Z</time>
      </trkpt>
      <trkpt lat="44.8557" lon="1.75884">
        <ele>378.8</ele>
        <time>2022-05-24T09:24:24Z</time>
      </trkpt>
      <trkpt lat="44.85573" lon="1.75874">
        <ele>378.2</ele>
        <time>2022-05-24T09:24:25Z</time>
      </trkpt>
      <trkpt lat="44.85575" lon="1.75864">
        <ele>377.6</ele>
        <time>2022-05-24T09:24:26Z</time>
      </trkpt>
      <trkpt lat="44.85578" lon="1.75854">
        <ele>376.9</ele>
        <time>2022-05-24T09:24:27Z</time>
      </trkpt>
      <trkpt lat="44.85581" lon="1.75844">
        <ele>376.3</ele>
        <time>2022-05-24T09:24:28Z</time>
      </trkpt>
      <trkpt lat="44.85583" lon="1.75834">
        <ele>375.7</ele>
        <time>2022-05-24T09:24:29Z</time>
      </trkpt>
      <trkpt lat="44.85586" lon="1.75824">
        <ele>375.1</ele>
        <time>2022-05-24T09:24:30Z</time>
      </trkpt>
      <trkpt lat="44.85589" lon="1.75814">
        <ele>374.5</ele>
        <time>2022-05-24T09:24:31Z</time>
      </trkpt>
      <trkpt lat="44.85592" lon="1.75804">
        <ele>373.9</ele>
        <time>2022-05-24T09:24:32Z</time>
      </trkpt>
      <trkpt lat="44.85594" lon="1.75793">
        <ele>373.2</ele>
        <time>2022-05-24T09:24:33Z</time>
      </trkpt>
      <trkpt lat="44.85595" lon="1.75783">
        <ele>372.6</ele>
        <time>2022-05-24T09:24:34Z</time>
      </trkpt>
      <trkpt lat="44.85596" lon="1.75772">
        <ele>372.1</ele>
        <time>2022-05-24T09:24:35Z</time>
      </trkpt>
      <trkpt lat="44.85597" lon="1.75761">
        <ele>371.5</ele>
        <time>2022-05-24T09:24:36Z</time>
      </trkpt>
      <trkpt lat="44.85598" lon="1.75749">
        <ele>370.9</ele>
        <time>2022-05-24T09:24:37Z</time>
      </trkpt>
      <trkpt lat="44.856" lon="1.75738">
        <ele>370.2</ele>
        <time>2022-05-24T09:24:38Z</time>
      </trkpt>
      <trkpt lat="44.85602" lon="1.75726">
        <ele>369.6</ele>
        <time>2022-05-24T09:24:39Z</time>
      </trkpt>
      <trkpt lat="44.85605" lon="1.75714">
        <ele>369</ele>
        <time>2022-05-24T09:24:40Z</time>
      </trkpt>
      <trkpt lat="44.85607" lon="1.75702">
        <ele>368.3</ele>
        <time>2022-05-24T09:24:41Z</time>
      </trkpt>
      <trkpt lat="44.8561" lon="1.75689">
        <ele>367.7</ele>
        <time>2022-05-24T09:24:42Z</time>
      </trkpt>
      <trkpt lat="44.85612" lon="1.75677">
        <ele>367.2</ele>
        <time>2022-05-24T09:24:43Z</time>
      </trkpt>
      <trkpt lat="44.85614" lon="1.75666">
        <ele>366.7</ele>
        <time>2022-05-24T09:24:44Z</time>
      </trkpt>
      <trkpt lat="44.85617" lon="1.75654">
        <ele>366.2</ele>
        <time>2022-05-24T09:24:45Z</time>
      </trkpt>
      <trkpt lat="44.8562" lon="1.75643">
        <ele>365.7</ele>
        <time>2022-05-24T09:24:46Z</time>
      </trkpt>
      <trkpt lat="44.85623" lon="1.75632">
        <ele>365.4</ele>
        <time>2022-05-24T09:24:47Z</time>
      </trkpt>
      <trkpt lat="44.85627" lon="1.75621">
        <ele>365</ele>
        <time>2022-05-24T09:24:48Z</time>
      </trkpt>
      <trkpt lat="44.8563" lon="1.7561">
        <ele>364.6</ele>
        <time>2022-05-24T09:24:49Z</time>
      </trkpt>
      <trkpt lat="44.85633" lon="1.75599">
        <ele>364.3</ele>
        <time>2022-05-24T09:24:50Z</time>
      </trkpt>
      <trkpt lat="44.85636" lon="1.75589">
        <ele>364</ele>
        <time>2022-05-24T09:24:51Z</time>
      </trkpt>
      <trkpt lat="44.85639" lon="1.75579">
        <ele>363.7</ele>
        <time>2022-05-24T09:24:52Z</time>
      </trkpt>
      <trkpt lat="44.85641" lon="1.75568">
        <ele>363.4</ele>
        <time>2022-05-24T09:24:53Z</time>
      </trkpt>
      <trkpt lat="44.85643" lon="1.75558">
        <ele>363</ele>
        <time>2022-05-24T09:24:54Z</time>
      </trkpt>
      <trkpt lat="44.85646" lon="1.75548">
        <ele>362.6</ele>
        <time>2022-05-24T09:24:55Z</time>
      </trkpt>
      <trkpt lat="44.85648" lon="1.75538">
        <ele>362.2</ele>
        <time>2022-05-24T09:24:56Z</time>
      </trkpt>
      <trkpt lat="44.85649" lon="1.75527">
        <ele>361.8</ele>
        <time>2022-05-24T09:24:57Z</time>
      </trkpt>
      <trkpt lat="44.8565" lon="1.75516">
        <ele>361.4</ele>
        <time>2022-05-24T09:24:58Z</time>
      </trkpt>
      <trkpt lat="44.85651" lon="1.75505">
        <ele>360.8</ele>
        <time>2022-05-24T09:24:59Z</time>
      </trkpt>
      <trkpt lat="44.85651" lon="1.75493">
        <ele>360.3</ele>
        <time>2022-05-24T09:25:00Z</time>
      </trkpt>
      <trkpt lat="44.85652" lon="1.75481">
        <ele>359.7</ele>
        <time>2022-05-24T09:25:01Z</time>
      </trkpt>
      <trkpt lat="44.85653" lon="1.75469">
        <ele>359</ele>
        <time>2022-05-24T09:25:02Z</time>
      </trkpt>
      <trkpt lat="44.85654" lon="1.75457">
        <ele>358.4</ele>
        <time>2022-05-24T09:25:03Z</time>
      </trkpt>
      <trkpt lat="44.85656" lon="1.75445">
        <ele>357.8</ele>
        <time>2022-05-24T09:25:04Z</time>
      </trkpt>
      <trkpt lat="44.85658" lon="1.75432">
        <ele>357.3</ele>
        <time>2022-05-24T09:25:05Z</time>
      </trkpt>
      <trkpt lat="44.85661" lon="1.75421">
        <ele>356.8</ele>
        <time>2022-05-24T09:25:06Z</time>
      </trkpt>
      <trkpt lat="44.85665" lon="1.7541">
        <ele>356.3</ele>
        <time>2022-05-24T09:25:07Z</time>
      </trkpt>
      <trkpt lat="44.8567" lon="1.75399">
        <ele>355.9</ele>
        <time>2022-05-24T09:25:08Z</time>
      </trkpt>
      <trkpt lat="44.85674" lon="1.75389">
        <ele>355.4</ele>
        <time>2022-05-24T09:25:09Z</time>
      </trkpt>
      <trkpt lat="44.85678" lon="1.75378">
        <ele>355</ele>
        <time>2022-05-24T09:25:10Z</time>
      </trkpt>
      <trkpt lat="44.85682" lon="1.75368">
        <ele>354.5</ele>
        <time>2022-05-24T09:25:11Z</time>
      </trkpt>
      <trkpt lat="44.85685" lon="1.75356">
        <ele>354.1</ele>
        <time>2022-05-24T09:25:12Z</time>
      </trkpt>
      <trkpt lat="44.85688" lon="1.75344">
        <ele>353.6</ele>
        <time>2022-05-24T09:25:13Z</time>
      </trkpt>
      <trkpt lat="44.85691" lon="1.75334">
        <ele>353.1</ele>
        <time>2022-05-24T09:25:14Z</time>
      </trkpt>
      <trkpt lat="44.85695" lon="1.75324">
        <ele>352.6</ele>
        <time>2022-05-24T09:25:15Z</time>
      </trkpt>
      <trkpt lat="44.85698" lon="1.75313">
        <ele>352.2</ele>
        <time>2022-05-24T09:25:16Z</time>
      </trkpt>
      <trkpt lat="44.85702" lon="1.75303">
        <ele>351.7</ele>
        <time>2022-05-24T09:25:17Z</time>
      </trkpt>
      <trkpt lat="44.85706" lon="1.75292">
        <ele>351.2</ele>
        <time>2022-05-24T09:25:18Z</time>
      </trkpt>
      <trkpt lat="44.85708" lon="1.75282">
        <ele>350.8</ele>
        <time>2022-05-24T09:25:19Z</time>
      </trkpt>
      <trkpt lat="44.85711" lon="1.75273">
        <ele>350.5</ele>
        <time>2022-05-24T09:25:20Z</time>
      </trkpt>
      <trkpt lat="44.85716" lon="1.75265">
        <ele>350.2</ele>
        <time>2022-05-24T09:25:21Z</time>
      </trkpt>
      <trkpt lat="44.8572" lon="1.75259">
        <ele>349.9</ele>
        <time>2022-05-24T09:25:22Z</time>
      </trkpt>
      <trkpt lat="44.85724" lon="1.75254">
        <ele>349.8</ele>
        <time>2022-05-24T09:25:23Z</time>
      </trkpt>
      <trkpt lat="44.85727" lon="1.75249">
        <ele>349.8</ele>
        <time>2022-05-24T09:25:24Z</time>
      </trkpt>
      <trkpt lat="44.85728" lon="1.75245">
        <ele>349.8</ele>
        <time>2022-05-24T09:25:25Z</time>
      </trkpt>
      <trkpt lat="44.85728" lon="1.7524">
        <ele>349.7</ele>
        <time>2022-05-24T09:25:26Z</time>
      </trkpt>
      <trkpt lat="44.85728" lon="1.75239">
        <ele>349.7</ele>
        <time>2022-05-24T09:25:27Z</time>
      </trkpt>
      <trkpt lat="44.8573" lon="1.75236">
        <ele>349.7</ele>
        <time>2022-05-24T09:25:28Z</time>
      </trkpt>
      <trkpt lat="44.85733" lon="1.75236">
        <ele>349.7</ele>
        <time>2022-05-24T09:25:29Z</time>
      </trkpt>
      <trkpt lat="44.85736" lon="1.75239">
        <ele>349.7</ele>
        <time>2022-05-24T09:25:30Z</time>
      </trkpt>
      <trkpt lat="44.85738" lon="1.75244">
        <ele>349.6</ele>
        <time>2022-05-24T09:25:31Z</time>
      </trkpt>
      <trkpt lat="44.85739" lon="1.75249">
        <ele>349.6</ele>
        <time>2022-05-24T09:25:32Z</time>
      </trkpt>
      <trkpt lat="44.85738" lon="1.75254">
        <ele>349.6</ele>
        <time>2022-05-24T09:25:33Z</time>
      </trkpt>
      <trkpt lat="44.85738" lon="1.75259">
        <ele>349.6</ele>
        <time>2022-05-24T09:25:34Z</time>
      </trkpt>
      <trkpt lat="44.85738" lon="1.75264">
        <ele>349.6</ele>
        <time>2022-05-24T09:25:35Z</time>
      </trkpt>
      <trkpt lat="44.8574" lon="1.75269">
        <ele>349.6</ele>
        <time>2022-05-24T09:25:36Z</time>
      </trkpt>
      <trkpt lat="44.85741" lon="1.75274">
        <ele>349.6</ele>
        <time>2022-05-24T09:25:37Z</time>
      </trkpt>
      <trkpt lat="44.85744" lon="1.75279">
        <ele>349.7</ele>
        <time>2022-05-24T09:25:38Z</time>
      </trkpt>
      <trkpt lat="44.85748" lon="1.75283">
        <ele>349.8</ele>
        <time>2022-05-24T09:25:39Z</time>
      </trkpt>
      <trkpt lat="44.85753" lon="1.75287">
        <ele>349.9</ele>
        <time>2022-05-24T09:25:40Z</time>
      </trkpt>
      <trkpt lat="44.85758" lon="1.7529">
        <ele>350.1</ele>
        <time>2022-05-24T09:25:41Z</time>
      </trkpt>
      <trkpt lat="44.85763" lon="1.75294">
        <ele>350.3</ele>
        <time>2022-05-24T09:25:42Z</time>
      </trkpt>
      <trkpt lat="44.85768" lon="1.75298">
        <ele>350.6</ele>
        <time>2022-05-24T09:25:43Z</time>
      </trkpt>
      <trkpt lat="44.85773" lon="1.75302">
        <ele>350.8</ele>
        <time>2022-05-24T09:25:44Z</time>
      </trkpt>
      <trkpt lat="44.85778" lon="1.75305">
        <ele>351.1</ele>
        <time>2022-05-24T09:25:45Z</time>
      </trkpt>
      <trkpt lat="44.85783" lon="1.75308">
        <ele>351.4</ele>
        <time>2022-05-24T09:25:46Z</time>
      </trkpt>
      <trkpt lat="44.85787" lon="1.75311">
        <ele>351.8</ele>
        <time>2022-05-24T09:25:47Z</time>
      </trkpt>
      <trkpt lat="44.85792" lon="1.75313">
        <ele>352.1</ele>
        <time>2022-05-24T09:25:48Z</time>
      </trkpt>
      <trkpt lat="44.85796" lon="1.75316">
        <ele>352.5</ele>
        <time>2022-05-24T09:25:49Z</time>
      </trkpt>
      <trkpt lat="44.858" lon="1.75321">
        <ele>352.9</ele>
        <time>2022-05-24T09:25:50Z</time>
      </trkpt>
      <trkpt lat="44.85803" lon="1.75325">
        <ele>353.2</ele>
        <time>2022-05-24T09:25:51Z</time>
      </trkpt>
      <trkpt lat="44.85807" lon="1.75329">
        <ele>353.6</ele>
        <time>2022-05-24T09:25:52Z</time>
      </trkpt>
      <trkpt lat="44.85811" lon="1.75331">
        <ele>353.9</ele>
        <time>2022-05-24T09:25:53Z</time>
      </trkpt>
      <trkpt lat="44.85816" lon="1.75334">
        <ele>354.2</ele>
        <time>2022-05-24T09:25:54Z</time>
      </trkpt>
      <trkpt lat="44.8582" lon="1.75337">
        <ele>354.6</ele>
        <time>2022-05-24T09:25:55Z</time>
      </trkpt>
      <trkpt lat="44.85824" lon="1.75338">
        <ele>354.9</ele>
        <time>2022-05-24T09:25:56Z</time>
      </trkpt>
      <trkpt lat="44.85828" lon="1.7534">
        <ele>355.2</ele>
        <time>2022-05-24T09:25:57Z</time>
      </trkpt>
      <trkpt lat="44.85831" lon="1.75343">
        <ele>355.5</ele>
        <time>2022-05-24T09:25:58Z</time>
      </trkpt>
      <trkpt lat="44.85835" lon="1.75345">
        <ele>355.8</ele>
        <time>2022-05-24T09:25:59Z</time>
      </trkpt>
      <trkpt lat="44.85838" lon="1.75347">
        <ele>356.1</ele>
        <time>2022-05-24T09:26:00Z</time>
      </trkpt>
      <trkpt lat="44.85842" lon="1.75348">
        <ele>356.4</ele>
        <time>2022-05-24T09:26:01Z</time>
      </trkpt>
      <trkpt lat="44.85846" lon="1.75351">
        <ele>356.7</ele>
        <time>2022-05-24T09:26:02Z</time>
      </trkpt>
      <trkpt lat="44.8585" lon="1.75353">
        <ele>357</ele>
        <time>2022-05-24T09:26:03Z</time>
      </trkpt>
      <trkpt lat="44.85853" lon="1.75355">
        <ele>357.3</ele>
        <time>2022-05-24T09:26:04Z</time>
      </trkpt>
      <trkpt lat="44.85857" lon="1.75356">
        <ele>357.5</ele>
        <time>2022-05-24T09:26:05Z</time>
      </trkpt>
      <trkpt lat="44.85861" lon="1.75357">
        <ele>357.7</ele>
        <time>2022-05-24T09:26:06Z</time>
      </trkpt>
      <trkpt lat="44.85864" lon="1.75357">
        <ele>357.9</ele>
        <time>2022-05-24T09:26:07Z</time>
      </trkpt>
      <trkpt lat="44.85867" lon="1.75358">
        <ele>358.1</ele>
        <time>2022-05-24T09:26:08Z</time>
      </trkpt>
      <trkpt lat="44.85871" lon="1.75358">
        <ele>358.3</ele>
        <time>2022-05-24T09:26:09Z</time>
      </trkpt>
      <trkpt lat="44.85874" lon="1.75359">
        <ele>358.4</ele>
        <time>2022-05-24T09:26:10Z</time>
      </trkpt>
      <trkpt lat="44.85878" lon="1.7536">
        <ele>358.6</ele>
        <time>2022-05-24T09:26:11Z</time>
      </trkpt>
      <trkpt lat="44.85882" lon="1.75361">
        <ele>358.7</ele>
        <time>2022-05-24T09:26:12Z</time>
      </trkpt>
      <trkpt lat="44.85886" lon="1.75363">
        <ele>358.8</ele>
        <time>2022-05-24T09:26:13Z</time>
      </trkpt>
      <trkpt lat="44.8589" lon="1.75364">
        <ele>358.9</ele>
        <time>2022-05-24T09:26:14Z</time>
      </trkpt>
      <trkpt lat="44.85894" lon="1.75365">
        <ele>358.9</ele>
        <time>2022-05-24T09:26:15Z</time>
      </trkpt>
      <trkpt lat="44.85898" lon="1.75367">
        <ele>359</ele>
        <time>2022-05-24T09:26:16Z</time>
      </trkpt>
      <trkpt lat="44.85902" lon="1.75367">
        <ele>359</ele>
        <time>2022-05-24T09:26:17Z</time>
      </trkpt>
      <trkpt lat="44.85906" lon="1.75368">
        <ele>358.9</ele>
        <time>2022-05-24T09:26:18Z</time>
      </trkpt>
      <trkpt lat="44.8591" lon="1.7537">
        <ele>358.9</ele>
        <time>2022-05-24T09:26:19Z</time>
      </trkpt>
      <trkpt lat="44.85914" lon="1.75371">
        <ele>358.8</ele>
        <time>2022-05-24T09:26:20Z</time>
      </trkpt>
      <trkpt lat="44.85918" lon="1.75373">
        <ele>358.7</ele>
        <time>2022-05-24T09:26:21Z</time>
      </trkpt>
      <trkpt lat="44.85923" lon="1.75374">
        <ele>358.5</ele>
        <time>2022-05-24T09:26:22Z</time>
      </trkpt>
      <trkpt lat="44.85927" lon="1.75376">
        <ele>358.3</ele>
        <time>2022-05-24T09:26:23Z</time>
      </trkpt>
      <trkpt lat="44.85931" lon="1.75378">
        <ele>358.2</ele>
        <time>2022-05-24T09:26:24Z</time>
      </trkpt>
      <trkpt lat="44.85935" lon="1.7538">
        <ele>358</ele>
        <time>2022-05-24T09:26:25Z</time>
      </trkpt>
      <trkpt lat="44.85939" lon="1.75384">
        <ele>357.8</ele>
        <time>2022-05-24T09:26:26Z</time>
      </trkpt>
      <trkpt lat="44.85944" lon="1.75388">
        <ele>357.5</ele>
        <time>2022-05-24T09:26:27Z</time>
      </trkpt>
      <trkpt lat="44.85949" lon="1.75393">
        <ele>357.2</ele>
        <time>2022-05-24T09:26:28Z</time>
      </trkpt>
      <trkpt lat="44.85953" lon="1.75397">
        <ele>357</ele>
        <time>2022-05-24T09:26:29Z</time>
      </trkpt>
      <trkpt lat="44.85958" lon="1.75403">
        <ele>356.6</ele>
        <time>2022-05-24T09:26:30Z</time>
      </trkpt>
      <trkpt lat="44.85963" lon="1.75409">
        <ele>356.3</ele>
        <time>2022-05-24T09:26:31Z</time>
      </trkpt>
      <trkpt lat="44.85969" lon="1.75416">
        <ele>355.9</ele>
        <time>2022-05-24T09:26:32Z</time>
      </trkpt>
      <trkpt lat="44.85974" lon="1.75421">
        <ele>355.6</ele>
        <time>2022-05-24T09:26:33Z</time>
      </trkpt>
      <trkpt lat="44.8598" lon="1.75426">
        <ele>355.4</ele>
        <time>2022-05-24T09:26:34Z</time>
      </trkpt>
      <trkpt lat="44.85985" lon="1.75431">
        <ele>355.1</ele>
        <time>2022-05-24T09:26:35Z</time>
      </trkpt>
      <trkpt lat="44.8599" lon="1.75435">
        <ele>355</ele>
        <time>2022-05-24T09:26:36Z</time>
      </trkpt>
      <trkpt lat="44.85994" lon="1.7544">
        <ele>355</ele>
        <time>2022-05-24T09:26:37Z</time>
      </trkpt>
      <trkpt lat="44.85997" lon="1.75446">
        <ele>355</ele>
        <time>2022-05-24T09:26:38Z</time>
      </trkpt>
      <trkpt lat="44.85998" lon="1.75452">
        <ele>355</ele>
        <time>2022-05-24T09:26:39Z</time>
      </trkpt>
      <trkpt lat="44.85998" lon="1.7546">
        <ele>355.1</ele>
        <time>2022-05-24T09:26:40Z</time>
      </trkpt>
      <trkpt lat="44.85997" lon="1.75468">
        <ele>355.1</ele>
        <time>2022-05-24T09:26:41Z</time>
      </trkpt>
      <trkpt lat="44.85997" lon="1.75475">
        <ele>355.2</ele>
        <time>2022-05-24T09:26:42Z</time>
      </trkpt>
      <trkpt lat="44.85996" lon="1.75483">
        <ele>355.4</ele>
        <time>2022-05-24T09:26:43Z</time>
      </trkpt>
      <trkpt lat="44.85995" lon="1.75491">
        <ele>355.5</ele>
        <time>2022-05-24T09:26:44Z</time>
      </trkpt>
      <trkpt lat="44.85994" lon="1.75499">
        <ele>355.7</ele>
        <time>2022-05-24T09:26:45Z</time>
      </trkpt>
      <trkpt lat="44.85993" lon="1.75506">
        <ele>356</ele>
        <time>2022-05-24T09:26:46Z</time>
      </trkpt>
      <trkpt lat="44.85992" lon="1.75513">
        <ele>356.2</ele>
        <time>2022-05-24T09:26:47Z</time>
      </trkpt>
      <trkpt lat="44.8599" lon="1.75521">
        <ele>356.4</ele>
        <time>2022-05-24T09:26:48Z</time>
      </trkpt>
      <trkpt lat="44.85989" lon="1.75528">
        <ele>356.7</ele>
        <time>2022-05-24T09:26:49Z</time>
      </trkpt>
      <trkpt lat="44.85989" lon="1.75535">
        <ele>356.9</ele>
        <time>2022-05-24T09:26:50Z</time>
      </trkpt>
      <trkpt lat="44.85988" lon="1.75542">
        <ele>357.2</ele>
        <time>2022-05-24T09:26:51Z</time>
      </trkpt>
      <trkpt lat="44.85987" lon="1.75549">
        <ele>357.4</ele>
        <time>2022-05-24T09:26:52Z</time>
      </trkpt>
      <trkpt lat="44.85987" lon="1.75555">
        <ele>357.6</ele>
        <time>2022-05-24T09:26:53Z</time>
      </trkpt>
      <trkpt lat="44.85987" lon="1.75562">
        <ele>357.8</ele>
        <time>2022-05-24T09:26:54Z</time>
      </trkpt>
      <trkpt lat="44.85987" lon="1.75568">
        <ele>357.9</ele>
        <time>2022-05-24T09:26:55Z</time>
      </trkpt>
      <trkpt lat="44.85987" lon="1.75574">
        <ele>358.1</ele>
        <time>2022-05-24T09:26:56Z</time>
      </trkpt>
      <trkpt lat="44.85988" lon="1.7558">
        <ele>358.1</ele>
        <time>2022-05-24T09:26:57Z</time>
      </trkpt>
      <trkpt lat="44.85988" lon="1.75586">
        <ele>358.2</ele>
        <time>2022-05-24T09:26:58Z</time>
      </trkpt>
      <trkpt lat="44.85988" lon="1.75592">
        <ele>358.2</ele>
        <time>2022-05-24T09:26:59Z</time>
      </trkpt>
      <trkpt lat="44.85989" lon="1.75598">
        <ele>358.3</ele>
        <time>2022-05-24T09:27:00Z</time>
      </trkpt>
      <trkpt lat="44.8599" lon="1.75606">
        <ele>358.3</ele>
        <time>2022-05-24T09:27:01Z</time>
      </trkpt>
      <trkpt lat="44.85991" lon="1.75613">
        <ele>358.3</ele>
        <time>2022-05-24T09:27:02Z</time>
      </trkpt>
      <trkpt lat="44.8599" lon="1.75619">
        <ele>358.3</ele>
        <time>2022-05-24T09:27:03Z</time>
      </trkpt>
      <trkpt lat="44.8599" lon="1.75626">
        <ele>358.2</ele>
        <time>2022-05-24T09:27:04Z</time>
      </trkpt>
      <trkpt lat="44.8599" lon="1.75634">
        <ele>358.2</ele>
        <time>2022-05-24T09:27:05Z</time>
      </trkpt>
      <trkpt lat="44.85988" lon="1.75641">
        <ele>358.2</ele>
        <time>2022-05-24T09:27:06Z</time>
      </trkpt>
      <trkpt lat="44.85986" lon="1.75648">
        <ele>358.2</ele>
        <time>2022-05-24T09:27:07Z</time>
      </trkpt>
      <trkpt lat="44.85984" lon="1.75655">
        <ele>358.2</ele>
        <time>2022-05-24T09:27:08Z</time>
      </trkpt>
      <trkpt lat="44.85983" lon="1.75663">
        <ele>358.1</ele>
        <time>2022-05-24T09:27:09Z</time>
      </trkpt>
      <trkpt lat="44.85981" lon="1.75672">
        <ele>358</ele>
        <time>2022-05-24T09:27:10Z</time>
      </trkpt>
      <trkpt lat="44.85979" lon="1.75679">
        <ele>357.9</ele>
        <time>2022-05-24T09:27:11Z</time>
      </trkpt>
      <trkpt lat="44.85978" lon="1.75686">
        <ele>357.8</ele>
        <time>2022-05-24T09:27:12Z</time>
      </trkpt>
      <trkpt lat="44.85976" lon="1.75694">
        <ele>357.6</ele>
        <time>2022-05-24T09:27:13Z</time>
      </trkpt>
      <trkpt lat="44.85974" lon="1.75702">
        <ele>357.5</ele>
        <time>2022-05-24T09:27:14Z</time>
      </trkpt>
      <trkpt lat="44.8597" lon="1.7571">
        <ele>357.2</ele>
        <time>2022-05-24T09:27:15Z</time>
      </trkpt>
      <trkpt lat="44.85966" lon="1.75719">
        <ele>356.9</ele>
        <time>2022-05-24T09:27:16Z</time>
      </trkpt>
      <trkpt lat="44.85964" lon="1.75728">
        <ele>356.7</ele>
        <time>2022-05-24T09:27:17Z</time>
      </trkpt>
      <trkpt lat="44.85962" lon="1.75737">
        <ele>356.4</ele>
        <time>2022-05-24T09:27:18Z</time>
      </trkpt>
      <trkpt lat="44.85962" lon="1.75745">
        <ele>356.2</ele>
        <time>2022-05-24T09:27:19Z</time>
      </trkpt>
      <trkpt lat="44.85962" lon="1.75753">
        <ele>355.9</ele>
        <time>2022-05-24T09:27:20Z</time>
      </trkpt>
      <trkpt lat="44.85963" lon="1.7576">
        <ele>355.6</ele>
        <time>2022-05-24T09:27:21Z</time>
      </trkpt>
      <trkpt lat="44.85964" lon="1.75768">
        <ele>355.3</ele>
        <time>2022-05-24T09:27:22Z</time>
      </trkpt>
      <trkpt lat="44.85965" lon="1.75777">
        <ele>355</ele>
        <time>2022-05-24T09:27:23Z</time>
      </trkpt>
      <trkpt lat="44.85965" lon="1.75786">
        <ele>354.7</ele>
        <time>2022-05-24T09:27:24Z</time>
      </trkpt>
      <trkpt lat="44.85966" lon="1.75795">
        <ele>354.4</ele>
        <time>2022-05-24T09:27:25Z</time>
      </trkpt>
      <trkpt lat="44.85967" lon="1.75804">
        <ele>354</ele>
        <time>2022-05-24T09:27:26Z</time>
      </trkpt>
      <trkpt lat="44.85968" lon="1.75814">
        <ele>353.6</ele>
        <time>2022-05-24T09:27:27Z</time>
      </trkpt>
      <trkpt lat="44.85969" lon="1.75824">
        <ele>353.3</ele>
        <time>2022-05-24T09:27:28Z</time>
      </trkpt>
      <trkpt lat="44.85971" lon="1.75834">
        <ele>353</ele>
        <time>2022-05-24T09:27:29Z</time>
      </trkpt>
      <trkpt lat="44.85973" lon="1.75844">
        <ele>352.9</ele>
        <time>2022-05-24T09:27:30Z</time>
      </trkpt>
      <trkpt lat="44.85975" lon="1.75854">
        <ele>353</ele>
        <time>2022-05-24T09:27:31Z</time>
      </trkpt>
      <trkpt lat="44.85977" lon="1.75865">
        <ele>353.2</ele>
        <time>2022-05-24T09:27:32Z</time>
      </trkpt>
      <trkpt lat="44.85978" lon="1.75875">
        <ele>353.4</ele>
        <time>2022-05-24T09:27:33Z</time>
      </trkpt>
      <trkpt lat="44.8598" lon="1.75884">
        <ele>353.7</ele>
        <time>2022-05-24T09:27:34Z</time>
      </trkpt>
      <trkpt lat="44.85981" lon="1.75892">
        <ele>354</ele>
        <time>2022-05-24T09:27:35Z</time>
      </trkpt>
      <trkpt lat="44.85982" lon="1.759">
        <ele>354.4</ele>
        <time>2022-05-24T09:27:36Z</time>
      </trkpt>
      <trkpt lat="44.85983" lon="1.75907">
        <ele>354.7</ele>
        <time>2022-05-24T09:27:37Z</time>
      </trkpt>
      <trkpt lat="44.85982" lon="1.75915">
        <ele>355.1</ele>
        <time>2022-05-24T09:27:38Z</time>
      </trkpt>
      <trkpt lat="44.85983" lon="1.75922">
        <ele>355.6</ele>
        <time>2022-05-24T09:27:39Z</time>
      </trkpt>
      <trkpt lat="44.85983" lon="1.75929">
        <ele>356</ele>
        <time>2022-05-24T09:27:40Z</time>
      </trkpt>
      <trkpt lat="44.85984" lon="1.75936">
        <ele>356.4</ele>
        <time>2022-05-24T09:27:41Z</time>
      </trkpt>
      <trkpt lat="44.85984" lon="1.75942">
        <ele>356.8</ele>
        <time>2022-05-24T09:27:42Z</time>
      </trkpt>
      <trkpt lat="44.85983" lon="1.75949">
        <ele>357.3</ele>
        <time>2022-05-24T09:27:43Z</time>
      </trkpt>
      <trkpt lat="44.85982" lon="1.75954">
        <ele>357.7</ele>
        <time>2022-05-24T09:27:44Z</time>
      </trkpt>
      <trkpt lat="44.85983" lon="1.7596">
        <ele>358.1</ele>
        <time>2022-05-24T09:27:45Z</time>
      </trkpt>
      <trkpt lat="44.85985" lon="1.75965">
        <ele>358.5</ele>
        <time>2022-05-24T09:27:46Z</time>
      </trkpt>
      <trkpt lat="44.85985" lon="1.7597">
        <ele>358.9</ele>
        <time>2022-05-24T09:27:47Z</time>
      </trkpt>
      <trkpt lat="44.85985" lon="1.75974">
        <ele>359.2</ele>
        <time>2022-05-24T09:27:48Z</time>
      </trkpt>
      <trkpt lat="44.85985" lon="1.75979">
        <ele>359.5</ele>
        <time>2022-05-24T09:27:49Z</time>
      </trkpt>
      <trkpt lat="44.85986" lon="1.75983">
        <ele>359.7</ele>
        <time>2022-05-24T09:27:50Z</time>
      </trkpt>
      <trkpt lat="44.85987" lon="1.75988">
        <ele>360</ele>
        <time>2022-05-24T09:27:51Z</time>
      </trkpt>
      <trkpt lat="44.85988" lon="1.75992">
        <ele>360.2</ele>
        <time>2022-05-24T09:27:52Z</time>
      </trkpt>
      <trkpt lat="44.8599" lon="1.75997">
        <ele>360.5</ele>
        <time>2022-05-24T09:27:53Z</time>
      </trkpt>
      <trkpt lat="44.85991" lon="1.76002">
        <ele>360.8</ele>
        <time>2022-05-24T09:27:54Z</time>
      </trkpt>
      <trkpt lat="44.85993" lon="1.76007">
        <ele>361</ele>
        <time>2022-05-24T09:27:55Z</time>
      </trkpt>
      <trkpt lat="44.85994" lon="1.76011">
        <ele>361.3</ele>
        <time>2022-05-24T09:27:56Z</time>
      </trkpt>
      <trkpt lat="44.85996" lon="1.76016">
        <ele>361.5</ele>
        <time>2022-05-24T09:27:57Z</time>
      </trkpt>
      <trkpt lat="44.85998" lon="1.7602">
        <ele>361.8</ele>
        <time>2022-05-24T09:27:58Z</time>
      </trkpt>
      <trkpt lat="44.85999" lon="1.76025">
        <ele>362</ele>
        <time>2022-05-24T09:27:59Z</time>
      </trkpt>
      <trkpt lat="44.86" lon="1.76029">
        <ele>362.2</ele>
        <time>2022-05-24T09:28:00Z</time>
      </trkpt>
      <trkpt lat="44.86002" lon="1.76034">
        <ele>362.5</ele>
        <time>2022-05-24T09:28:01Z</time>
      </trkpt>
      <trkpt lat="44.86003" lon="1.76039">
        <ele>362.7</ele>
        <time>2022-05-24T09:28:02Z</time>
      </trkpt>
      <trkpt lat="44.86004" lon="1.76044">
        <ele>362.9</ele>
        <time>2022-05-24T09:28:03Z</time>
      </trkpt>
      <trkpt lat="44.86006" lon="1.76049">
        <ele>363.1</ele>
        <time>2022-05-24T09:28:04Z</time>
      </trkpt>
      <trkpt lat="44.86008" lon="1.76054">
        <ele>363.3</ele>
        <time>2022-05-24T09:28:05Z</time>
      </trkpt>
      <trkpt lat="44.8601" lon="1.76058">
        <ele>363.5</ele>
        <time>2022-05-24T09:28:06Z</time>
      </trkpt>
      <trkpt lat="44.86012" lon="1.76062">
        <ele>363.7</ele>
        <time>2022-05-24T09:28:07Z</time>
      </trkpt>
      <trkpt lat="44.86014" lon="1.76066">
        <ele>363.9</ele>
        <time>2022-05-24T09:28:08Z</time>
      </trkpt>
      <trkpt lat="44.86017" lon="1.7607">
        <ele>364.1</ele>
        <time>2022-05-24T09:28:09Z</time>
      </trkpt>
      <trkpt lat="44.8602" lon="1.76075">
        <ele>364.3</ele>
        <time>2022-05-24T09:28:10Z</time>
      </trkpt>
      <trkpt lat="44.86024" lon="1.76079">
        <ele>364.6</ele>
        <time>2022-05-24T09:28:11Z</time>
      </trkpt>
      <trkpt lat="44.86028" lon="1.76084">
        <ele>364.8</ele>
        <time>2022-05-24T09:28:12Z</time>
      </trkpt>
      <trkpt lat="44.86031" lon="1.76088">
        <ele>365</ele>
        <time>2022-05-24T09:28:13Z</time>
      </trkpt>
      <trkpt lat="44.86034" lon="1.76092">
        <ele>365.3</ele>
        <time>2022-05-24T09:28:14Z</time>
      </trkpt>
      <trkpt lat="44.86037" lon="1.76096">
        <ele>365.5</ele>
        <time>2022-05-24T09:28:15Z</time>
      </trkpt>
      <trkpt lat="44.86039" lon="1.76101">
        <ele>365.8</ele>
        <time>2022-05-24T09:28:16Z</time>
      </trkpt>
      <trkpt lat="44.86042" lon="1.76105">
        <ele>366</ele>
        <time>2022-05-24T09:28:17Z</time>
      </trkpt>
      <trkpt lat="44.86044" lon="1.76109">
        <ele>366.2</ele>
        <time>2022-05-24T09:28:18Z</time>
      </trkpt>
      <trkpt lat="44.86046" lon="1.76114">
        <ele>366.4</ele>
        <time>2022-05-24T09:28:19Z</time>
      </trkpt>
      <trkpt lat="44.86048" lon="1.76118">
        <ele>366.7</ele>
        <time>2022-05-24T09:28:20Z</time>
      </trkpt>
      <trkpt lat="44.8605" lon="1.76122">
        <ele>366.9</ele>
        <time>2022-05-24T09:28:21Z</time>
      </trkpt>
      <trkpt lat="44.86052" lon="1.76126">
        <ele>367.1</ele>
        <time>2022-05-24T09:28:22Z</time>
      </trkpt>
      <trkpt lat="44.86054" lon="1.7613">
        <ele>367.4</ele>
        <time>2022-05-24T09:28:23Z</time>
      </trkpt>
      <trkpt lat="44.86055" lon="1.76134">
        <ele>367.6</ele>
        <time>2022-05-24T09:28:24Z</time>
      </trkpt>
      <trkpt lat="44.86057" lon="1.76138">
        <ele>367.8</ele>
        <time>2022-05-24T09:28:25Z</time>
      </trkpt>
      <trkpt lat="44.86058" lon="1.76142">
        <ele>368</ele>
        <time>2022-05-24T09:28:26Z</time>
      </trkpt>
      <trkpt lat="44.8606" lon="1.76146">
        <ele>368.3</ele>
        <time>2022-05-24T09:28:27Z</time>
      </trkpt>
      <trkpt lat="44.86061" lon="1.76149">
        <ele>368.5</ele>
        <time>2022-05-24T09:28:28Z</time>
      </trkpt>
      <trkpt lat="44.86063" lon="1.76153">
        <ele>368.7</ele>
        <time>2022-05-24T09:28:29Z</time>
      </trkpt>
      <trkpt lat="44.86064" lon="1.76157">
        <ele>368.9</ele>
        <time>2022-05-24T09:28:30Z</time>
      </trkpt>
      <trkpt lat="44.86066" lon="1.7616">
        <ele>369.1</ele>
        <time>2022-05-24T09:28:31Z</time>
      </trkpt>
      <trkpt lat="44.86067" lon="1.76164">
        <ele>369.3</ele>
        <time>2022-05-24T09:28:32Z</time>
      </trkpt>
      <trkpt lat="44.86068" lon="1.76168">
        <ele>369.5</ele>
        <time>2022-05-24T09:28:33Z</time>
      </trkpt>
      <trkpt lat="44.8607" lon="1.76171">
        <ele>369.7</ele>
        <time>2022-05-24T09:28:34Z</time>
      </trkpt>
      <trkpt lat="44.86072" lon="1.76175">
        <ele>369.9</ele>
        <time>2022-05-24T09:28:35Z</time>
      </trkpt>
      <trkpt lat="44.86074" lon="1.76178">
        <ele>370.1</ele>
        <time>2022-05-24T09:28:36Z</time>
      </trkpt>
      <trkpt lat="44.86075" lon="1.76182">
        <ele>370.3</ele>
        <time>2022-05-24T09:28:37Z</time>
      </trkpt>
      <trkpt lat="44.86077" lon="1.76186">
        <ele>370.5</ele>
        <time>2022-05-24T09:28:38Z</time>
      </trkpt>
      <trkpt lat="44.86078" lon="1.7619">
        <ele>370.7</ele>
        <time>2022-05-24T09:28:39Z</time>
      </trkpt>
      <trkpt lat="44.8608" lon="1.76194">
        <ele>371</ele>
        <time>2022-05-24T09:28:40Z</time>
      </trkpt>
      <trkpt lat="44.86082" lon="1.76198">
        <ele>371.2</ele>
        <time>2022-05-24T09:28:41Z</time>
      </trkpt>
      <trkpt lat="44.86083" lon="1.76201">
        <ele>371.4</ele>
        <time>2022-05-24T09:28:42Z</time>
      </trkpt>
      <trkpt lat="44.86085" lon="1.76204">
        <ele>371.5</ele>
        <time>2022-05-24T09:28:43Z</time>
      </trkpt>
      <trkpt lat="44.86087" lon="1.76208">
        <ele>371.7</ele>
        <time>2022-05-24T09:28:44Z</time>
      </trkpt>
      <trkpt lat="44.86088" lon="1.76211">
        <ele>371.9</ele>
        <time>2022-05-24T09:28:45Z</time>
      </trkpt>
      <trkpt lat="44.8609" lon="1.76214">
        <ele>372.1</ele>
        <time>2022-05-24T09:28:46Z</time>
      </trkpt>
      <trkpt lat="44.86091" lon="1.76218">
        <ele>372.4</ele>
        <time>2022-05-24T09:28:47Z</time>
      </trkpt>
      <trkpt lat="44.86092" lon="1.76222">
        <ele>372.6</ele>
        <time>2022-05-24T09:28:48Z</time>
      </trkpt>
      <trkpt lat="44.86094" lon="1.76226">
        <ele>372.8</ele>
        <time>2022-05-24T09:28:49Z</time>
      </trkpt>
      <trkpt lat="44.86095" lon="1.7623">
        <ele>373</ele>
        <time>2022-05-24T09:28:50Z</time>
      </trkpt>
      <trkpt lat="44.86097" lon="1.76233">
        <ele>373.3</ele>
        <time>2022-05-24T09:28:51Z</time>
      </trkpt>
      <trkpt lat="44.86098" lon="1.76237">
        <ele>373.5</ele>
        <time>2022-05-24T09:28:52Z</time>
      </trkpt>
      <trkpt lat="44.861" lon="1.7624">
        <ele>373.7</ele>
        <time>2022-05-24T09:28:53Z</time>
      </trkpt>
      <trkpt lat="44.86101" lon="1.76243">
        <ele>373.9</ele>
        <time>2022-05-24T09:28:54Z</time>
      </trkpt>
      <trkpt lat="44.86103" lon="1.76247">
        <ele>374.1</ele>
        <time>2022-05-24T09:28:55Z</time>
      </trkpt>
      <trkpt lat="44.86104" lon="1.76251">
        <ele>374.3</ele>
        <time>2022-05-24T09:28:56Z</time>
      </trkpt>
      <trkpt lat="44.86106" lon="1.76255">
        <ele>374.5</ele>
        <time>2022-05-24T09:28:57Z</time>
      </trkpt>
      <trkpt lat="44.86107" lon="1.76259">
        <ele>374.7</ele>
        <time>2022-05-24T09:28:58Z</time>
      </trkpt>
      <trkpt lat="44.86109" lon="1.76262">
        <ele>374.9</ele>
        <time>2022-05-24T09:28:59Z</time>
      </trkpt>
      <trkpt lat="44.86111" lon="1.76266">
        <ele>375.1</ele>
        <time>2022-05-24T09:29:00Z</time>
      </trkpt>
      <trkpt lat="44.86113" lon="1.76269">
        <ele>375.3</ele>
        <time>2022-05-24T09:29:01Z</time>
      </trkpt>
      <trkpt lat="44.86114" lon="1.76273">
        <ele>375.5</ele>
        <time>2022-05-24T09:29:02Z</time>
      </trkpt>
      <trkpt lat="44.86116" lon="1.76276">
        <ele>375.7</ele>
        <time>2022-05-24T09:29:03Z</time>
      </trkpt>
      <trkpt lat="44.86118" lon="1.7628">
        <ele>375.9</ele>
        <time>2022-05-24T09:29:04Z</time>
      </trkpt>
      <trkpt lat="44.8612" lon="1.76283">
        <ele>376.1</ele>
        <time>2022-05-24T09:29:05Z</time>
      </trkpt>
      <trkpt lat="44.86122" lon="1.76287">
        <ele>376.3</ele>
        <time>2022-05-24T09:29:06Z</time>
      </trkpt>
      <trkpt lat="44.86124" lon="1.7629">
        <ele>376.5</ele>
        <time>2022-05-24T09:29:07Z</time>
      </trkpt>
      <trkpt lat="44.86126" lon="1.76294">
        <ele>376.7</ele>
        <time>2022-05-24T09:29:08Z</time>
      </trkpt>
      <trkpt lat="44.86128" lon="1.76297">
        <ele>376.9</ele>
        <time>2022-05-24T09:29:09Z</time>
      </trkpt>
      <trkpt lat="44.8613" lon="1.763">
        <ele>377.1</ele>
        <time>2022-05-24T09:29:10Z</time>
      </trkpt>
      <trkpt lat="44.86132" lon="1.76304">
        <ele>377.3</ele>
        <time>2022-05-24T09:29:11Z</time>
      </trkpt>
      <trkpt lat="44.86134" lon="1.76308">
        <ele>377.6</ele>
        <time>2022-05-24T09:29:12Z</time>
      </trkpt>
      <trkpt lat="44.86135" lon="1.7631">
        <ele>377.7</ele>
        <time>2022-05-24T09:29:13Z</time>
      </trkpt>
      <trkpt lat="44.86136" lon="1.76313">
        <ele>377.9</ele>
        <time>2022-05-24T09:29:14Z</time>
      </trkpt>
      <trkpt lat="44.86138" lon="1.76317">
        <ele>378.1</ele>
        <time>2022-05-24T09:29:15Z</time>
      </trkpt>
      <trkpt lat="44.86139" lon="1.7632">
        <ele>378.3</ele>
        <time>2022-05-24T09:29:16Z</time>
      </trkpt>
      <trkpt lat="44.86141" lon="1.76324">
        <ele>378.5</ele>
        <time>2022-05-24T09:29:17Z</time>
      </trkpt>
      <trkpt lat="44.86143" lon="1.76328">
        <ele>378.7</ele>
        <time>2022-05-24T09:29:18Z</time>
      </trkpt>
      <trkpt lat="44.86144" lon="1.76332">
        <ele>378.9</ele>
        <time>2022-05-24T09:29:19Z</time>
      </trkpt>
      <trkpt lat="44.86146" lon="1.76336">
        <ele>379.1</ele>
        <time>2022-05-24T09:29:20Z</time>
      </trkpt>
      <trkpt lat="44.86147" lon="1.76339">
        <ele>379.4</ele>
        <time>2022-05-24T09:29:21Z</time>
      </trkpt>
      <trkpt lat="44.86149" lon="1.76343">
        <ele>379.6</ele>
        <time>2022-05-24T09:29:22Z</time>
      </trkpt>
      <trkpt lat="44.86151" lon="1.76347">
        <ele>379.8</ele>
        <time>2022-05-24T09:29:23Z</time>
      </trkpt>
      <trkpt lat="44.86152" lon="1.76351">
        <ele>380</ele>
        <time>2022-05-24T09:29:24Z</time>
      </trkpt>
      <trkpt lat="44.86154" lon="1.76355">
        <ele>380.2</ele>
        <time>2022-05-24T09:29:25Z</time>
      </trkpt>
      <trkpt lat="44.86155" lon="1.76358">
        <ele>380.4</ele>
        <time>2022-05-24T09:29:26Z</time>
      </trkpt>
      <trkpt lat="44.86157" lon="1.76363">
        <ele>380.7</ele>
        <time>2022-05-24T09:29:27Z</time>
      </trkpt>
      <trkpt lat="44.86158" lon="1.76364">
        <ele>380.7</ele>
        <time>2022-05-24T09:29:28Z</time>
      </trkpt>
      <trkpt lat="44.8616" lon="1.76369">
        <ele>381</ele>
        <time>2022-05-24T09:29:29Z</time>
      </trkpt>
      <trkpt lat="44.86161" lon="1.76371">
        <ele>381.1</ele>
        <time>2022-05-24T09:29:30Z</time>
      </trkpt>
      <trkpt lat="44.86163" lon="1.76374">
        <ele>381.3</ele>
        <time>2022-05-24T09:29:31Z</time>
      </trkpt>
      <trkpt lat="44.86169" lon="1.76389">
        <ele>382.1</ele>
        <time>2022-05-24T09:29:36Z</time>
      </trkpt>
      <trkpt lat="44.86174" lon="1.76399">
        <ele>382.6</ele>
        <time>2022-05-24T09:29:38Z</time>
      </trkpt>
      <trkpt lat="44.86175" lon="1.76404">
        <ele>382.8</ele>
        <time>2022-05-24T09:29:39Z</time>
      </trkpt>
      <trkpt lat="44.86176" lon="1.76408">
        <ele>383</ele>
        <time>2022-05-24T09:29:40Z</time>
      </trkpt>
      <trkpt lat="44.86178" lon="1.76412">
        <ele>383.2</ele>
        <time>2022-05-24T09:29:41Z</time>
      </trkpt>
      <trkpt lat="44.86179" lon="1.76416">
        <ele>383.3</ele>
        <time>2022-05-24T09:29:42Z</time>
      </trkpt>
      <trkpt lat="44.8618" lon="1.7642">
        <ele>383.5</ele>
        <time>2022-05-24T09:29:43Z</time>
      </trkpt>
      <trkpt lat="44.86181" lon="1.76424">
        <ele>383.6</ele>
        <time>2022-05-24T09:29:44Z</time>
      </trkpt>
      <trkpt lat="44.86183" lon="1.76428">
        <ele>383.8</ele>
        <time>2022-05-24T09:29:45Z</time>
      </trkpt>
      <trkpt lat="44.86184" lon="1.76432">
        <ele>384</ele>
        <time>2022-05-24T09:29:46Z</time>
      </trkpt>
      <trkpt lat="44.86186" lon="1.76436">
        <ele>384.1</ele>
        <time>2022-05-24T09:29:47Z</time>
      </trkpt>
      <trkpt lat="44.86187" lon="1.76441">
        <ele>384.2</ele>
        <time>2022-05-24T09:29:48Z</time>
      </trkpt>
      <trkpt lat="44.86188" lon="1.76445">
        <ele>384.4</ele>
        <time>2022-05-24T09:29:49Z</time>
      </trkpt>
      <trkpt lat="44.8619" lon="1.76449">
        <ele>384.5</ele>
        <time>2022-05-24T09:29:50Z</time>
      </trkpt>
      <trkpt lat="44.86191" lon="1.76453">
        <ele>384.6</ele>
        <time>2022-05-24T09:29:51Z</time>
      </trkpt>
      <trkpt lat="44.86193" lon="1.76457">
        <ele>384.8</ele>
        <time>2022-05-24T09:29:52Z</time>
      </trkpt>
      <trkpt lat="44.86194" lon="1.76461">
        <ele>384.9</ele>
        <time>2022-05-24T09:29:53Z</time>
      </trkpt>
      <trkpt lat="44.86196" lon="1.76465">
        <ele>385.1</ele>
        <time>2022-05-24T09:29:54Z</time>
      </trkpt>
      <trkpt lat="44.86197" lon="1.76469">
        <ele>385.2</ele>
        <time>2022-05-24T09:29:55Z</time>
      </trkpt>
      <trkpt lat="44.86198" lon="1.76474">
        <ele>385.3</ele>
        <time>2022-05-24T09:29:56Z</time>
      </trkpt>
      <trkpt lat="44.862" lon="1.76478">
        <ele>385.4</ele>
        <time>2022-05-24T09:29:57Z</time>
      </trkpt>
      <trkpt lat="44.86201" lon="1.76483">
        <ele>385.5</ele>
        <time>2022-05-24T09:29:58Z</time>
      </trkpt>
      <trkpt lat="44.86202" lon="1.76487">
        <ele>385.6</ele>
        <time>2022-05-24T09:29:59Z</time>
      </trkpt>
      <trkpt lat="44.86204" lon="1.76492">
        <ele>385.7</ele>
        <time>2022-05-24T09:30:00Z</time>
      </trkpt>
      <trkpt lat="44.86205" lon="1.76497">
        <ele>385.8</ele>
        <time>2022-05-24T09:30:01Z</time>
      </trkpt>
      <trkpt lat="44.86207" lon="1.76502">
        <ele>385.8</ele>
        <time>2022-05-24T09:30:02Z</time>
      </trkpt>
      <trkpt lat="44.86208" lon="1.76507">
        <ele>385.9</ele>
        <time>2022-05-24T09:30:03Z</time>
      </trkpt>
      <trkpt lat="44.8621" lon="1.76512">
        <ele>385.9</ele>
        <time>2022-05-24T09:30:04Z</time>
      </trkpt>
      <trkpt lat="44.86212" lon="1.76518">
        <ele>385.9</ele>
        <time>2022-05-24T09:30:05Z</time>
      </trkpt>
      <trkpt lat="44.86214" lon="1.76523">
        <ele>385.9</ele>
        <time>2022-05-24T09:30:06Z</time>
      </trkpt>
      <trkpt lat="44.86216" lon="1.76528">
        <ele>385.9</ele>
        <time>2022-05-24T09:30:07Z</time>
      </trkpt>
      <trkpt lat="44.86219" lon="1.76534">
        <ele>385.8</ele>
        <time>2022-05-24T09:30:08Z</time>
      </trkpt>
      <trkpt lat="44.86221" lon="1.76539">
        <ele>385.7</ele>
        <time>2022-05-24T09:30:09Z</time>
      </trkpt>
      <trkpt lat="44.86223" lon="1.76545">
        <ele>385.6</ele>
        <time>2022-05-24T09:30:10Z</time>
      </trkpt>
      <trkpt lat="44.86225" lon="1.7655">
        <ele>385.5</ele>
        <time>2022-05-24T09:30:11Z</time>
      </trkpt>
      <trkpt lat="44.86228" lon="1.76558">
        <ele>385.2</ele>
        <time>2022-05-24T09:30:12Z</time>
      </trkpt>
      <trkpt lat="44.86231" lon="1.76564">
        <ele>384.9</ele>
        <time>2022-05-24T09:30:13Z</time>
      </trkpt>
      <trkpt lat="44.86234" lon="1.7657">
        <ele>384.7</ele>
        <time>2022-05-24T09:30:14Z</time>
      </trkpt>
      <trkpt lat="44.86236" lon="1.76575">
        <ele>384.5</ele>
        <time>2022-05-24T09:30:15Z</time>
      </trkpt>
      <trkpt lat="44.86238" lon="1.76582">
        <ele>384.3</ele>
        <time>2022-05-24T09:30:16Z</time>
      </trkpt>
      <trkpt lat="44.8624" lon="1.76588">
        <ele>384.1</ele>
        <time>2022-05-24T09:30:17Z</time>
      </trkpt>
      <trkpt lat="44.86242" lon="1.76595">
        <ele>383.9</ele>
        <time>2022-05-24T09:30:18Z</time>
      </trkpt>
      <trkpt lat="44.86244" lon="1.76603">
        <ele>383.6</ele>
        <time>2022-05-24T09:30:19Z</time>
      </trkpt>
      <trkpt lat="44.86246" lon="1.7661">
        <ele>383.4</ele>
        <time>2022-05-24T09:30:20Z</time>
      </trkpt>
      <trkpt lat="44.86249" lon="1.76617">
        <ele>383.1</ele>
        <time>2022-05-24T09:30:21Z</time>
      </trkpt>
      <trkpt lat="44.86251" lon="1.76624">
        <ele>382.9</ele>
        <time>2022-05-24T09:30:22Z</time>
      </trkpt>
      <trkpt lat="44.86254" lon="1.76631">
        <ele>382.7</ele>
        <time>2022-05-24T09:30:23Z</time>
      </trkpt>
      <trkpt lat="44.86256" lon="1.76638">
        <ele>382.5</ele>
        <time>2022-05-24T09:30:24Z</time>
      </trkpt>
      <trkpt lat="44.86258" lon="1.76646">
        <ele>382.3</ele>
        <time>2022-05-24T09:30:25Z</time>
      </trkpt>
      <trkpt lat="44.8626" lon="1.76653">
        <ele>382.1</ele>
        <time>2022-05-24T09:30:26Z</time>
      </trkpt>
      <trkpt lat="44.86261" lon="1.76661">
        <ele>381.9</ele>
        <time>2022-05-24T09:30:27Z</time>
      </trkpt>
      <trkpt lat="44.86262" lon="1.76669">
        <ele>381.8</ele>
        <time>2022-05-24T09:30:28Z</time>
      </trkpt>
      <trkpt lat="44.86264" lon="1.76676">
        <ele>381.6</ele>
        <time>2022-05-24T09:30:29Z</time>
      </trkpt>
      <trkpt lat="44.86265" lon="1.76684">
        <ele>381.4</ele>
        <time>2022-05-24T09:30:30Z</time>
      </trkpt>
      <trkpt lat="44.86265" lon="1.76692">
        <ele>381.2</ele>
        <time>2022-05-24T09:30:31Z</time>
      </trkpt>
      <trkpt lat="44.86266" lon="1.76701">
        <ele>381</ele>
        <time>2022-05-24T09:30:32Z</time>
      </trkpt>
      <trkpt lat="44.86267" lon="1.7671">
        <ele>380.8</ele>
        <time>2022-05-24T09:30:33Z</time>
      </trkpt>
      <trkpt lat="44.86268" lon="1.76719">
        <ele>380.5</ele>
        <time>2022-05-24T09:30:34Z</time>
      </trkpt>
      <trkpt lat="44.8627" lon="1.76728">
        <ele>380.3</ele>
        <time>2022-05-24T09:30:35Z</time>
      </trkpt>
      <trkpt lat="44.86271" lon="1.76737">
        <ele>380</ele>
        <time>2022-05-24T09:30:36Z</time>
      </trkpt>
      <trkpt lat="44.86272" lon="1.76746">
        <ele>379.8</ele>
        <time>2022-05-24T09:30:37Z</time>
      </trkpt>
      <trkpt lat="44.86273" lon="1.76755">
        <ele>379.5</ele>
        <time>2022-05-24T09:30:38Z</time>
      </trkpt>
      <trkpt lat="44.86273" lon="1.76765">
        <ele>379.2</ele>
        <time>2022-05-24T09:30:39Z</time>
      </trkpt>
      <trkpt lat="44.86273" lon="1.76774">
        <ele>379</ele>
        <time>2022-05-24T09:30:40Z</time>
      </trkpt>
      <trkpt lat="44.86275" lon="1.76782">
        <ele>378.7</ele>
        <time>2022-05-24T09:30:41Z</time>
      </trkpt>
      <trkpt lat="44.86277" lon="1.7679">
        <ele>378.4</ele>
        <time>2022-05-24T09:30:42Z</time>
      </trkpt>
      <trkpt lat="44.86278" lon="1.76799">
        <ele>378.1</ele>
        <time>2022-05-24T09:30:43Z</time>
      </trkpt>
      <trkpt lat="44.86278" lon="1.76808">
        <ele>377.8</ele>
        <time>2022-05-24T09:30:44Z</time>
      </trkpt>
      <trkpt lat="44.86279" lon="1.76817">
        <ele>377.4</ele>
        <time>2022-05-24T09:30:45Z</time>
      </trkpt>
      <trkpt lat="44.86281" lon="1.76825">
        <ele>377.1</ele>
        <time>2022-05-24T09:30:46Z</time>
      </trkpt>
      <trkpt lat="44.86282" lon="1.76834">
        <ele>376.7</ele>
        <time>2022-05-24T09:30:47Z</time>
      </trkpt>
      <trkpt lat="44.86283" lon="1.76844">
        <ele>376.3</ele>
        <time>2022-05-24T09:30:48Z</time>
      </trkpt>
      <trkpt lat="44.86286" lon="1.76853">
        <ele>376</ele>
        <time>2022-05-24T09:30:49Z</time>
      </trkpt>
      <trkpt lat="44.86289" lon="1.76862">
        <ele>375.6</ele>
        <time>2022-05-24T09:30:50Z</time>
      </trkpt>
      <trkpt lat="44.86292" lon="1.76871">
        <ele>375.4</ele>
        <time>2022-05-24T09:30:51Z</time>
      </trkpt>
      <trkpt lat="44.86294" lon="1.76879">
        <ele>375.1</ele>
        <time>2022-05-24T09:30:52Z</time>
      </trkpt>
      <trkpt lat="44.86296" lon="1.76888">
        <ele>374.9</ele>
        <time>2022-05-24T09:30:53Z</time>
      </trkpt>
      <trkpt lat="44.86298" lon="1.76897">
        <ele>374.7</ele>
        <time>2022-05-24T09:30:54Z</time>
      </trkpt>
      <trkpt lat="44.86301" lon="1.76906">
        <ele>374.4</ele>
        <time>2022-05-24T09:30:55Z</time>
      </trkpt>
      <trkpt lat="44.86303" lon="1.76916">
        <ele>374.2</ele>
        <time>2022-05-24T09:30:56Z</time>
      </trkpt>
      <trkpt lat="44.86305" lon="1.76925">
        <ele>374</ele>
        <time>2022-05-24T09:30:57Z</time>
      </trkpt>
      <trkpt lat="44.86305" lon="1.76935">
        <ele>373.7</ele>
        <time>2022-05-24T09:30:58Z</time>
      </trkpt>
      <trkpt lat="44.86305" lon="1.76945">
        <ele>373.4</ele>
        <time>2022-05-24T09:30:59Z</time>
      </trkpt>
      <trkpt lat="44.86307" lon="1.76955">
        <ele>373.1</ele>
        <time>2022-05-24T09:31:00Z</time>
      </trkpt>
      <trkpt lat="44.8631" lon="1.76962">
        <ele>372.7</ele>
        <time>2022-05-24T09:31:01Z</time>
      </trkpt>
      <trkpt lat="44.86315" lon="1.76968">
        <ele>372.4</ele>
        <time>2022-05-24T09:31:02Z</time>
      </trkpt>
      <trkpt lat="44.8632" lon="1.76973">
        <ele>372.2</ele>
        <time>2022-05-24T09:31:03Z</time>
      </trkpt>
      <trkpt lat="44.86327" lon="1.76979">
        <ele>371.9</ele>
        <time>2022-05-24T09:31:04Z</time>
      </trkpt>
      <trkpt lat="44.86334" lon="1.76982">
        <ele>371.6</ele>
        <time>2022-05-24T09:31:05Z</time>
      </trkpt>
      <trkpt lat="44.8634" lon="1.76986">
        <ele>371.4</ele>
        <time>2022-05-24T09:31:06Z</time>
      </trkpt>
      <trkpt lat="44.86345" lon="1.7699">
        <ele>371.1</ele>
        <time>2022-05-24T09:31:07Z</time>
      </trkpt>
      <trkpt lat="44.86352" lon="1.76992">
        <ele>370.9</ele>
        <time>2022-05-24T09:31:08Z</time>
      </trkpt>
      <trkpt lat="44.86359" lon="1.76993">
        <ele>370.6</ele>
        <time>2022-05-24T09:31:09Z</time>
      </trkpt>
      <trkpt lat="44.86364" lon="1.76993">
        <ele>370.3</ele>
        <time>2022-05-24T09:31:10Z</time>
      </trkpt>
      <trkpt lat="44.86369" lon="1.76996">
        <ele>370</ele>
        <time>2022-05-24T09:31:11Z</time>
      </trkpt>
      <trkpt lat="44.86372" lon="1.77001">
        <ele>369.8</ele>
        <time>2022-05-24T09:31:12Z</time>
      </trkpt>
      <trkpt lat="44.86373" lon="1.77007">
        <ele>369.4</ele>
        <time>2022-05-24T09:31:13Z</time>
      </trkpt>
      <trkpt lat="44.86374" lon="1.77014">
        <ele>368.9</ele>
        <time>2022-05-24T09:31:14Z</time>
      </trkpt>
      <trkpt lat="44.86371" lon="1.77021">
        <ele>368.4</ele>
        <time>2022-05-24T09:31:15Z</time>
      </trkpt>
      <trkpt lat="44.86366" lon="1.77027">
        <ele>367.8</ele>
        <time>2022-05-24T09:31:16Z</time>
      </trkpt>
      <trkpt lat="44.86362" lon="1.77034">
        <ele>367.2</ele>
        <time>2022-05-24T09:31:17Z</time>
      </trkpt>
      <trkpt lat="44.86359" lon="1.77042">
        <ele>366.5</ele>
        <time>2022-05-24T09:31:18Z</time>
      </trkpt>
      <trkpt lat="44.86355" lon="1.77052">
        <ele>365.7</ele>
        <time>2022-05-24T09:31:19Z</time>
      </trkpt>
      <trkpt lat="44.86352" lon="1.77063">
        <ele>364.8</ele>
        <time>2022-05-24T09:31:20Z</time>
      </trkpt>
      <trkpt lat="44.86352" lon="1.77075">
        <ele>363.8</ele>
        <time>2022-05-24T09:31:21Z</time>
      </trkpt>
      <trkpt lat="44.86352" lon="1.77087">
        <ele>362.9</ele>
        <time>2022-05-24T09:31:22Z</time>
      </trkpt>
      <trkpt lat="44.86352" lon="1.771">
        <ele>362</ele>
        <time>2022-05-24T09:31:23Z</time>
      </trkpt>
      <trkpt lat="44.86352" lon="1.77113">
        <ele>361.3</ele>
        <time>2022-05-24T09:31:24Z</time>
      </trkpt>
      <trkpt lat="44.86351" lon="1.77125">
        <ele>360.8</ele>
        <time>2022-05-24T09:31:25Z</time>
      </trkpt>
      <trkpt lat="44.8635" lon="1.77137">
        <ele>360.4</ele>
        <time>2022-05-24T09:31:26Z</time>
      </trkpt>
      <trkpt lat="44.8635" lon="1.77149">
        <ele>360.2</ele>
        <time>2022-05-24T09:31:27Z</time>
      </trkpt>
      <trkpt lat="44.86349" lon="1.7716">
        <ele>360.1</ele>
        <time>2022-05-24T09:31:28Z</time>
      </trkpt>
      <trkpt lat="44.86347" lon="1.77171">
        <ele>360.1</ele>
        <time>2022-05-24T09:31:29Z</time>
      </trkpt>
      <trkpt lat="44.86344" lon="1.77182">
        <ele>360.2</ele>
        <time>2022-05-24T09:31:30Z</time>
      </trkpt>
      <trkpt lat="44.86341" lon="1.77191">
        <ele>360.2</ele>
        <time>2022-05-24T09:31:31Z</time>
      </trkpt>
      <trkpt lat="44.86338" lon="1.77199">
        <ele>360.3</ele>
        <time>2022-05-24T09:31:32Z</time>
      </trkpt>
      <trkpt lat="44.86336" lon="1.77206">
        <ele>360.4</ele>
        <time>2022-05-24T09:31:33Z</time>
      </trkpt>
      <trkpt lat="44.86334" lon="1.77214">
        <ele>360.4</ele>
        <time>2022-05-24T09:31:34Z</time>
      </trkpt>
      <trkpt lat="44.86332" lon="1.77222">
        <ele>360.5</ele>
        <time>2022-05-24T09:31:35Z</time>
      </trkpt>
      <trkpt lat="44.8633" lon="1.77231">
        <ele>360.5</ele>
        <time>2022-05-24T09:31:36Z</time>
      </trkpt>
      <trkpt lat="44.86328" lon="1.77239">
        <ele>360.5</ele>
        <time>2022-05-24T09:31:37Z</time>
      </trkpt>
      <trkpt lat="44.86324" lon="1.77247">
        <ele>360.4</ele>
        <time>2022-05-24T09:31:38Z</time>
      </trkpt>
      <trkpt lat="44.86321" lon="1.77257">
        <ele>360.4</ele>
        <time>2022-05-24T09:31:39Z</time>
      </trkpt>
      <trkpt lat="44.86319" lon="1.77266">
        <ele>360.4</ele>
        <time>2022-05-24T09:31:40Z</time>
      </trkpt>
      <trkpt lat="44.86316" lon="1.77274">
        <ele>360.3</ele>
        <time>2022-05-24T09:31:41Z</time>
      </trkpt>
      <trkpt lat="44.86313" lon="1.77283">
        <ele>360.3</ele>
        <time>2022-05-24T09:31:42Z</time>
      </trkpt>
      <trkpt lat="44.8631" lon="1.7729">
        <ele>360.2</ele>
        <time>2022-05-24T09:31:43Z</time>
      </trkpt>
      <trkpt lat="44.86308" lon="1.77299">
        <ele>360.2</ele>
        <time>2022-05-24T09:31:44Z</time>
      </trkpt>
      <trkpt lat="44.86305" lon="1.77307">
        <ele>360.2</ele>
        <time>2022-05-24T09:31:45Z</time>
      </trkpt>
      <trkpt lat="44.86303" lon="1.77315">
        <ele>360.2</ele>
        <time>2022-05-24T09:31:46Z</time>
      </trkpt>
      <trkpt lat="44.86301" lon="1.77323">
        <ele>360.2</ele>
        <time>2022-05-24T09:31:47Z</time>
      </trkpt>
      <trkpt lat="44.86298" lon="1.77332">
        <ele>360.3</ele>
        <time>2022-05-24T09:31:48Z</time>
      </trkpt>
      <trkpt lat="44.86297" lon="1.77341">
        <ele>360.4</ele>
        <time>2022-05-24T09:31:49Z</time>
      </trkpt>
      <trkpt lat="44.86295" lon="1.77351">
        <ele>360.4</ele>
        <time>2022-05-24T09:31:50Z</time>
      </trkpt>
      <trkpt lat="44.86295" lon="1.77359">
        <ele>360.4</ele>
        <time>2022-05-24T09:31:51Z</time>
      </trkpt>
      <trkpt lat="44.86295" lon="1.77368">
        <ele>360.4</ele>
        <time>2022-05-24T09:31:52Z</time>
      </trkpt>
      <trkpt lat="44.86295" lon="1.77378">
        <ele>360.4</ele>
        <time>2022-05-24T09:31:53Z</time>
      </trkpt>
      <trkpt lat="44.86295" lon="1.77387">
        <ele>360.3</ele>
        <time>2022-05-24T09:31:54Z</time>
      </trkpt>
      <trkpt lat="44.86294" lon="1.77396">
        <ele>360.1</ele>
        <time>2022-05-24T09:31:55Z</time>
      </trkpt>
      <trkpt lat="44.86291" lon="1.77406">
        <ele>360</ele>
        <time>2022-05-24T09:31:56Z</time>
      </trkpt>
      <trkpt lat="44.86289" lon="1.77415">
        <ele>359.8</ele>
        <time>2022-05-24T09:31:57Z</time>
      </trkpt>
      <trkpt lat="44.86289" lon="1.77425">
        <ele>359.6</ele>
        <time>2022-05-24T09:31:58Z</time>
      </trkpt>
      <trkpt lat="44.86287" lon="1.77435">
        <ele>359.4</ele>
        <time>2022-05-24T09:31:59Z</time>
      </trkpt>
      <trkpt lat="44.86286" lon="1.77444">
        <ele>359.3</ele>
        <time>2022-05-24T09:32:00Z</time>
      </trkpt>
      <trkpt lat="44.86287" lon="1.77453">
        <ele>359.2</ele>
        <time>2022-05-24T09:32:01Z</time>
      </trkpt>
      <trkpt lat="44.86288" lon="1.77461">
        <ele>359</ele>
        <time>2022-05-24T09:32:02Z</time>
      </trkpt>
      <trkpt lat="44.86287" lon="1.7747">
        <ele>359</ele>
        <time>2022-05-24T09:32:03Z</time>
      </trkpt>
      <trkpt lat="44.86286" lon="1.77479">
        <ele>358.9</ele>
        <time>2022-05-24T09:32:04Z</time>
      </trkpt>
      <trkpt lat="44.86286" lon="1.77488">
        <ele>358.8</ele>
        <time>2022-05-24T09:32:05Z</time>
      </trkpt>
      <trkpt lat="44.86287" lon="1.77497">
        <ele>358.8</ele>
        <time>2022-05-24T09:32:06Z</time>
      </trkpt>
      <trkpt lat="44.86288" lon="1.77507">
        <ele>358.7</ele>
        <time>2022-05-24T09:32:07Z</time>
      </trkpt>
      <trkpt lat="44.86288" lon="1.77516">
        <ele>358.7</ele>
        <time>2022-05-24T09:32:08Z</time>
      </trkpt>
      <trkpt lat="44.86288" lon="1.77527">
        <ele>358.8</ele>
        <time>2022-05-24T09:32:09Z</time>
      </trkpt>
      <trkpt lat="44.86288" lon="1.77536">
        <ele>358.9</ele>
        <time>2022-05-24T09:32:10Z</time>
      </trkpt>
      <trkpt lat="44.8629" lon="1.77545">
        <ele>359</ele>
        <time>2022-05-24T09:32:11Z</time>
      </trkpt>
      <trkpt lat="44.86291" lon="1.77554">
        <ele>359.2</ele>
        <time>2022-05-24T09:32:12Z</time>
      </trkpt>
      <trkpt lat="44.86293" lon="1.77562">
        <ele>359.4</ele>
        <time>2022-05-24T09:32:13Z</time>
      </trkpt>
      <trkpt lat="44.86293" lon="1.77569">
        <ele>359.6</ele>
        <time>2022-05-24T09:32:14Z</time>
      </trkpt>
      <trkpt lat="44.86292" lon="1.77577">
        <ele>359.8</ele>
        <time>2022-05-24T09:32:15Z</time>
      </trkpt>
      <trkpt lat="44.86292" lon="1.77585">
        <ele>360</ele>
        <time>2022-05-24T09:32:16Z</time>
      </trkpt>
      <trkpt lat="44.86291" lon="1.77593">
        <ele>360.2</ele>
        <time>2022-05-24T09:32:17Z</time>
      </trkpt>
      <trkpt lat="44.86289" lon="1.776">
        <ele>360.4</ele>
        <time>2022-05-24T09:32:18Z</time>
      </trkpt>
      <trkpt lat="44.86287" lon="1.77608">
        <ele>360.5</ele>
        <time>2022-05-24T09:32:19Z</time>
      </trkpt>
      <trkpt lat="44.86285" lon="1.77616">
        <ele>360.5</ele>
        <time>2022-05-24T09:32:20Z</time>
      </trkpt>
      <trkpt lat="44.86284" lon="1.77623">
        <ele>360.5</ele>
        <time>2022-05-24T09:32:21Z</time>
      </trkpt>
      <trkpt lat="44.86282" lon="1.7763">
        <ele>360.4</ele>
        <time>2022-05-24T09:32:22Z</time>
      </trkpt>
      <trkpt lat="44.8628" lon="1.77637">
        <ele>360.3</ele>
        <time>2022-05-24T09:32:23Z</time>
      </trkpt>
      <trkpt lat="44.86278" lon="1.77645">
        <ele>360.1</ele>
        <time>2022-05-24T09:32:24Z</time>
      </trkpt>
      <trkpt lat="44.86275" lon="1.77653">
        <ele>359.7</ele>
        <time>2022-05-24T09:32:25Z</time>
      </trkpt>
      <trkpt lat="44.86273" lon="1.77662">
        <ele>359.3</ele>
        <time>2022-05-24T09:32:26Z</time>
      </trkpt>
      <trkpt lat="44.86271" lon="1.7767">
        <ele>358.9</ele>
        <time>2022-05-24T09:32:27Z</time>
      </trkpt>
      <trkpt lat="44.8627" lon="1.77679">
        <ele>358.6</ele>
        <time>2022-05-24T09:32:28Z</time>
      </trkpt>
      <trkpt lat="44.86268" lon="1.77688">
        <ele>358.3</ele>
        <time>2022-05-24T09:32:29Z</time>
      </trkpt>
      <trkpt lat="44.86266" lon="1.77697">
        <ele>358</ele>
        <time>2022-05-24T09:32:30Z</time>
      </trkpt>
      <trkpt lat="44.86264" lon="1.77706">
        <ele>357.9</ele>
        <time>2022-05-24T09:32:31Z</time>
      </trkpt>
      <trkpt lat="44.86261" lon="1.77714">
        <ele>357.9</ele>
        <time>2022-05-24T09:32:32Z</time>
      </trkpt>
      <trkpt lat="44.86259" lon="1.77722">
        <ele>357.9</ele>
        <time>2022-05-24T09:32:33Z</time>
      </trkpt>
      <trkpt lat="44.86256" lon="1.77732">
        <ele>357.9</ele>
        <time>2022-05-24T09:32:34Z</time>
      </trkpt>
      <trkpt lat="44.86254" lon="1.77741">
        <ele>358</ele>
        <time>2022-05-24T09:32:35Z</time>
      </trkpt>
      <trkpt lat="44.86254" lon="1.77749">
        <ele>358</ele>
        <time>2022-05-24T09:32:36Z</time>
      </trkpt>
      <trkpt lat="44.86254" lon="1.77757">
        <ele>358.1</ele>
        <time>2022-05-24T09:32:37Z</time>
      </trkpt>
      <trkpt lat="44.86253" lon="1.77764">
        <ele>358.1</ele>
        <time>2022-05-24T09:32:38Z</time>
      </trkpt>
      <trkpt lat="44.86253" lon="1.77773">
        <ele>358.2</ele>
        <time>2022-05-24T09:32:39Z</time>
      </trkpt>
      <trkpt lat="44.86253" lon="1.7778">
        <ele>358.2</ele>
        <time>2022-05-24T09:32:40Z</time>
      </trkpt>
      <trkpt lat="44.86253" lon="1.77789">
        <ele>358.2</ele>
        <time>2022-05-24T09:32:41Z</time>
      </trkpt>
      <trkpt lat="44.86254" lon="1.77797">
        <ele>358.3</ele>
        <time>2022-05-24T09:32:42Z</time>
      </trkpt>
      <trkpt lat="44.86254" lon="1.77806">
        <ele>358.3</ele>
        <time>2022-05-24T09:32:43Z</time>
      </trkpt>
      <trkpt lat="44.86255" lon="1.77812">
        <ele>358.3</ele>
        <time>2022-05-24T09:32:44Z</time>
      </trkpt>
      <trkpt lat="44.86255" lon="1.77819">
        <ele>358.4</ele>
        <time>2022-05-24T09:32:45Z</time>
      </trkpt>
      <trkpt lat="44.86256" lon="1.77828">
        <ele>358.4</ele>
        <time>2022-05-24T09:32:46Z</time>
      </trkpt>
      <trkpt lat="44.86257" lon="1.77837">
        <ele>358.5</ele>
        <time>2022-05-24T09:32:47Z</time>
      </trkpt>
      <trkpt lat="44.86257" lon="1.77845">
        <ele>358.5</ele>
        <time>2022-05-24T09:32:48Z</time>
      </trkpt>
      <trkpt lat="44.86255" lon="1.77851">
        <ele>358.6</ele>
        <time>2022-05-24T09:32:49Z</time>
      </trkpt>
      <trkpt lat="44.86252" lon="1.77857">
        <ele>358.5</ele>
        <time>2022-05-24T09:32:50Z</time>
      </trkpt>
      <trkpt lat="44.8625" lon="1.77863">
        <ele>358.5</ele>
        <time>2022-05-24T09:32:51Z</time>
      </trkpt>
      <trkpt lat="44.86252" lon="1.77866">
        <ele>358.4</ele>
        <time>2022-05-24T09:32:52Z</time>
      </trkpt>
      <trkpt lat="44.86254" lon="1.77871">
        <ele>357.8</ele>
        <time>2022-05-24T09:32:53Z</time>
      </trkpt>
      <trkpt lat="44.8626" lon="1.77874">
        <ele>357.4</ele>
        <time>2022-05-24T09:32:54Z</time>
      </trkpt>
      <trkpt lat="44.86266" lon="1.77876">
        <ele>357</ele>
        <time>2022-05-24T09:32:55Z</time>
      </trkpt>
      <trkpt lat="44.86271" lon="1.7788">
        <ele>356.6</ele>
        <time>2022-05-24T09:32:56Z</time>
      </trkpt>
      <trkpt lat="44.86276" lon="1.77885">
        <ele>356.2</ele>
        <time>2022-05-24T09:32:57Z</time>
      </trkpt>
      <trkpt lat="44.86282" lon="1.77891">
        <ele>355.9</ele>
        <time>2022-05-24T09:32:58Z</time>
      </trkpt>
      <trkpt lat="44.86288" lon="1.77897">
        <ele>355.6</ele>
        <time>2022-05-24T09:32:59Z</time>
      </trkpt>
      <trkpt lat="44.86293" lon="1.77904">
        <ele>355.3</ele>
        <time>2022-05-24T09:33:00Z</time>
      </trkpt>
      <trkpt lat="44.86298" lon="1.77911">
        <ele>355.1</ele>
        <time>2022-05-24T09:33:01Z</time>
      </trkpt>
      <trkpt lat="44.86303" lon="1.77916">
        <ele>354.8</ele>
        <time>2022-05-24T09:33:02Z</time>
      </trkpt>
      <trkpt lat="44.86308" lon="1.77923">
        <ele>354.5</ele>
        <time>2022-05-24T09:33:03Z</time>
      </trkpt>
      <trkpt lat="44.86312" lon="1.77929">
        <ele>354.3</ele>
        <time>2022-05-24T09:33:04Z</time>
      </trkpt>
      <trkpt lat="44.86317" lon="1.77936">
        <ele>353.9</ele>
        <time>2022-05-24T09:33:05Z</time>
      </trkpt>
      <trkpt lat="44.86322" lon="1.77943">
        <ele>353.6</ele>
        <time>2022-05-24T09:33:06Z</time>
      </trkpt>
      <trkpt lat="44.86327" lon="1.7795">
        <ele>353.1</ele>
        <time>2022-05-24T09:33:07Z</time>
      </trkpt>
      <trkpt lat="44.86331" lon="1.77955">
        <ele>352.7</ele>
        <time>2022-05-24T09:33:08Z</time>
      </trkpt>
      <trkpt lat="44.86337" lon="1.77961">
        <ele>352.2</ele>
        <time>2022-05-24T09:33:09Z</time>
      </trkpt>
      <trkpt lat="44.86342" lon="1.77968">
        <ele>351.6</ele>
        <time>2022-05-24T09:33:10Z</time>
      </trkpt>
      <trkpt lat="44.86349" lon="1.77974">
        <ele>351</ele>
        <time>2022-05-24T09:33:11Z</time>
      </trkpt>
      <trkpt lat="44.86357" lon="1.7798">
        <ele>350.3</ele>
        <time>2022-05-24T09:33:12Z</time>
      </trkpt>
      <trkpt lat="44.86364" lon="1.77986">
        <ele>349.7</ele>
        <time>2022-05-24T09:33:13Z</time>
      </trkpt>
      <trkpt lat="44.86371" lon="1.77993">
        <ele>349.2</ele>
        <time>2022-05-24T09:33:14Z</time>
      </trkpt>
      <trkpt lat="44.86378" lon="1.77999">
        <ele>348.7</ele>
        <time>2022-05-24T09:33:15Z</time>
      </trkpt>
      <trkpt lat="44.86387" lon="1.78005">
        <ele>348.2</ele>
        <time>2022-05-24T09:33:16Z</time>
      </trkpt>
      <trkpt lat="44.86394" lon="1.78011">
        <ele>347.7</ele>
        <time>2022-05-24T09:33:17Z</time>
      </trkpt>
      <trkpt lat="44.86401" lon="1.78017">
        <ele>347.3</ele>
        <time>2022-05-24T09:33:18Z</time>
      </trkpt>
      <trkpt lat="44.86408" lon="1.78025">
        <ele>346.7</ele>
        <time>2022-05-24T09:33:19Z</time>
      </trkpt>
      <trkpt lat="44.86413" lon="1.78033">
        <ele>346.3</ele>
        <time>2022-05-24T09:33:20Z</time>
      </trkpt>
      <trkpt lat="44.86417" lon="1.78041">
        <ele>345.8</ele>
        <time>2022-05-24T09:33:21Z</time>
      </trkpt>
      <trkpt lat="44.86421" lon="1.78051">
        <ele>345.2</ele>
        <time>2022-05-24T09:33:22Z</time>
      </trkpt>
      <trkpt lat="44.86425" lon="1.78061">
        <ele>344.7</ele>
        <time>2022-05-24T09:33:23Z</time>
      </trkpt>
      <trkpt lat="44.86429" lon="1.78071">
        <ele>344.2</ele>
        <time>2022-05-24T09:33:24Z</time>
      </trkpt>
      <trkpt lat="44.86435" lon="1.78081">
        <ele>343.7</ele>
        <time>2022-05-24T09:33:25Z</time>
      </trkpt>
      <trkpt lat="44.86441" lon="1.78091">
        <ele>343.2</ele>
        <time>2022-05-24T09:33:26Z</time>
      </trkpt>
      <trkpt lat="44.86446" lon="1.781">
        <ele>342.9</ele>
        <time>2022-05-24T09:33:27Z</time>
      </trkpt>
      <trkpt lat="44.86452" lon="1.7811">
        <ele>342.5</ele>
        <time>2022-05-24T09:33:28Z</time>
      </trkpt>
      <trkpt lat="44.86456" lon="1.7812">
        <ele>342.2</ele>
        <time>2022-05-24T09:33:29Z</time>
      </trkpt>
      <trkpt lat="44.8646" lon="1.78131">
        <ele>341.9</ele>
        <time>2022-05-24T09:33:30Z</time>
      </trkpt>
      <trkpt lat="44.86464" lon="1.78142">
        <ele>341.6</ele>
        <time>2022-05-24T09:33:31Z</time>
      </trkpt>
      <trkpt lat="44.86466" lon="1.78152">
        <ele>341.4</ele>
        <time>2022-05-24T09:33:32Z</time>
      </trkpt>
      <trkpt lat="44.86467" lon="1.78161">
        <ele>341.2</ele>
        <time>2022-05-24T09:33:33Z</time>
      </trkpt>
      <trkpt lat="44.86468" lon="1.78171">
        <ele>341</ele>
        <time>2022-05-24T09:33:34Z</time>
      </trkpt>
      <trkpt lat="44.86469" lon="1.78181">
        <ele>340.8</ele>
        <time>2022-05-24T09:33:35Z</time>
      </trkpt>
      <trkpt lat="44.86469" lon="1.78192">
        <ele>340.6</ele>
        <time>2022-05-24T09:33:36Z</time>
      </trkpt>
      <trkpt lat="44.86468" lon="1.78201">
        <ele>340.4</ele>
        <time>2022-05-24T09:33:37Z</time>
      </trkpt>
      <trkpt lat="44.86468" lon="1.78211">
        <ele>340.2</ele>
        <time>2022-05-24T09:33:38Z</time>
      </trkpt>
      <trkpt lat="44.86467" lon="1.7822">
        <ele>340</ele>
        <time>2022-05-24T09:33:39Z</time>
      </trkpt>
      <trkpt lat="44.86466" lon="1.78229">
        <ele>339.7</ele>
        <time>2022-05-24T09:33:40Z</time>
      </trkpt>
      <trkpt lat="44.86466" lon="1.78239">
        <ele>339.5</ele>
        <time>2022-05-24T09:33:41Z</time>
      </trkpt>
      <trkpt lat="44.86466" lon="1.78248">
        <ele>339.2</ele>
        <time>2022-05-24T09:33:42Z</time>
      </trkpt>
      <trkpt lat="44.86464" lon="1.78258">
        <ele>338.8</ele>
        <time>2022-05-24T09:33:43Z</time>
      </trkpt>
      <trkpt lat="44.86464" lon="1.78268">
        <ele>338.4</ele>
        <time>2022-05-24T09:33:44Z</time>
      </trkpt>
      <trkpt lat="44.86464" lon="1.78278">
        <ele>338</ele>
        <time>2022-05-24T09:33:45Z</time>
      </trkpt>
      <trkpt lat="44.86463" lon="1.78289">
        <ele>337.5</ele>
        <time>2022-05-24T09:33:46Z</time>
      </trkpt>
      <trkpt lat="44.86461" lon="1.78301">
        <ele>337</ele>
        <time>2022-05-24T09:33:47Z</time>
      </trkpt>
      <trkpt lat="44.8646" lon="1.78312">
        <ele>336.4</ele>
        <time>2022-05-24T09:33:48Z</time>
      </trkpt>
      <trkpt lat="44.86455" lon="1.78325">
        <ele>335.6</ele>
        <time>2022-05-24T09:33:49Z</time>
      </trkpt>
      <trkpt lat="44.8645" lon="1.78335">
        <ele>334.9</ele>
        <time>2022-05-24T09:33:50Z</time>
      </trkpt>
      <trkpt lat="44.86444" lon="1.78345">
        <ele>334.2</ele>
        <time>2022-05-24T09:33:51Z</time>
      </trkpt>
      <trkpt lat="44.86436" lon="1.78355">
        <ele>333.7</ele>
        <time>2022-05-24T09:33:52Z</time>
      </trkpt>
      <trkpt lat="44.86432" lon="1.78367">
        <ele>333.4</ele>
        <time>2022-05-24T09:33:53Z</time>
      </trkpt>
      <trkpt lat="44.8643" lon="1.78378">
        <ele>333.3</ele>
        <time>2022-05-24T09:33:54Z</time>
      </trkpt>
      <trkpt lat="44.8643" lon="1.78389">
        <ele>333.2</ele>
        <time>2022-05-24T09:33:55Z</time>
      </trkpt>
      <trkpt lat="44.8643" lon="1.78399">
        <ele>333.2</ele>
        <time>2022-05-24T09:33:56Z</time>
      </trkpt>
      <trkpt lat="44.8643" lon="1.78409">
        <ele>333.3</ele>
        <time>2022-05-24T09:33:57Z</time>
      </trkpt>
      <trkpt lat="44.86431" lon="1.7842">
        <ele>333.5</ele>
        <time>2022-05-24T09:33:58Z</time>
      </trkpt>
      <trkpt lat="44.86432" lon="1.78429">
        <ele>333.8</ele>
        <time>2022-05-24T09:33:59Z</time>
      </trkpt>
      <trkpt lat="44.86433" lon="1.78437">
        <ele>334.2</ele>
        <time>2022-05-24T09:34:00Z</time>
      </trkpt>
      <trkpt lat="44.86435" lon="1.78445">
        <ele>334.6</ele>
        <time>2022-05-24T09:34:01Z</time>
      </trkpt>
      <trkpt lat="44.86436" lon="1.78452">
        <ele>335.1</ele>
        <time>2022-05-24T09:34:02Z</time>
      </trkpt>
      <trkpt lat="44.86436" lon="1.78458">
        <ele>335.5</ele>
        <time>2022-05-24T09:34:03Z</time>
      </trkpt>
      <trkpt lat="44.86437" lon="1.78464">
        <ele>336</ele>
        <time>2022-05-24T09:34:04Z</time>
      </trkpt>
      <trkpt lat="44.86438" lon="1.7847">
        <ele>336.3</ele>
        <time>2022-05-24T09:34:05Z</time>
      </trkpt>
      <trkpt lat="44.86438" lon="1.78475">
        <ele>336.7</ele>
        <time>2022-05-24T09:34:06Z</time>
      </trkpt>
      <trkpt lat="44.86439" lon="1.7848">
        <ele>337.1</ele>
        <time>2022-05-24T09:34:07Z</time>
      </trkpt>
      <trkpt lat="44.8644" lon="1.78485">
        <ele>337.5</ele>
        <time>2022-05-24T09:34:08Z</time>
      </trkpt>
      <trkpt lat="44.8644" lon="1.7849">
        <ele>337.8</ele>
        <time>2022-05-24T09:34:09Z</time>
      </trkpt>
      <trkpt lat="44.86441" lon="1.78494">
        <ele>338.1</ele>
        <time>2022-05-24T09:34:10Z</time>
      </trkpt>
      <trkpt lat="44.86441" lon="1.78499">
        <ele>338.4</ele>
        <time>2022-05-24T09:34:11Z</time>
      </trkpt>
      <trkpt lat="44.86441" lon="1.78505">
        <ele>338.7</ele>
        <time>2022-05-24T09:34:12Z</time>
      </trkpt>
      <trkpt lat="44.86441" lon="1.7851">
        <ele>339.1</ele>
        <time>2022-05-24T09:34:13Z</time>
      </trkpt>
      <trkpt lat="44.86441" lon="1.78516">
        <ele>339.3</ele>
        <time>2022-05-24T09:34:14Z</time>
      </trkpt>
      <trkpt lat="44.86441" lon="1.78521">
        <ele>339.6</ele>
        <time>2022-05-24T09:34:15Z</time>
      </trkpt>
      <trkpt lat="44.8644" lon="1.78526">
        <ele>339.8</ele>
        <time>2022-05-24T09:34:16Z</time>
      </trkpt>
      <trkpt lat="44.8644" lon="1.78531">
        <ele>340</ele>
        <time>2022-05-24T09:34:17Z</time>
      </trkpt>
      <trkpt lat="44.86439" lon="1.78537">
        <ele>340.2</ele>
        <time>2022-05-24T09:34:18Z</time>
      </trkpt>
      <trkpt lat="44.86439" lon="1.78542">
        <ele>340.3</ele>
        <time>2022-05-24T09:34:19Z</time>
      </trkpt>
      <trkpt lat="44.86439" lon="1.78547">
        <ele>340.4</ele>
        <time>2022-05-24T09:34:20Z</time>
      </trkpt>
      <trkpt lat="44.86438" lon="1.78552">
        <ele>340.5</ele>
        <time>2022-05-24T09:34:21Z</time>
      </trkpt>
      <trkpt lat="44.86437" lon="1.78557">
        <ele>340.6</ele>
        <time>2022-05-24T09:34:22Z</time>
      </trkpt>
      <trkpt lat="44.86436" lon="1.78563">
        <ele>340.6</ele>
        <time>2022-05-24T09:34:23Z</time>
      </trkpt>
      <trkpt lat="44.86434" lon="1.78569">
        <ele>340.6</ele>
        <time>2022-05-24T09:34:24Z</time>
      </trkpt>
      <trkpt lat="44.86433" lon="1.78575">
        <ele>340.6</ele>
        <time>2022-05-24T09:34:25Z</time>
      </trkpt>
      <trkpt lat="44.86431" lon="1.78581">
        <ele>340.6</ele>
        <time>2022-05-24T09:34:26Z</time>
      </trkpt>
      <trkpt lat="44.86429" lon="1.78588">
        <ele>340.6</ele>
        <time>2022-05-24T09:34:27Z</time>
      </trkpt>
      <trkpt lat="44.86427" lon="1.78594">
        <ele>340.5</ele>
        <time>2022-05-24T09:34:28Z</time>
      </trkpt>
      <trkpt lat="44.86425" lon="1.786">
        <ele>340.5</ele>
        <time>2022-05-24T09:34:29Z</time>
      </trkpt>
      <trkpt lat="44.86421" lon="1.78606">
        <ele>340.4</ele>
        <time>2022-05-24T09:34:30Z</time>
      </trkpt>
      <trkpt lat="44.86418" lon="1.78611">
        <ele>340.4</ele>
        <time>2022-05-24T09:34:31Z</time>
      </trkpt>
      <trkpt lat="44.86415" lon="1.78617">
        <ele>340.4</ele>
        <time>2022-05-24T09:34:32Z</time>
      </trkpt>
      <trkpt lat="44.86413" lon="1.78622">
        <ele>340.4</ele>
        <time>2022-05-24T09:34:33Z</time>
      </trkpt>
      <trkpt lat="44.8641" lon="1.78628">
        <ele>340.4</ele>
        <time>2022-05-24T09:34:34Z</time>
      </trkpt>
      <trkpt lat="44.86406" lon="1.78636">
        <ele>340.4</ele>
        <time>2022-05-24T09:34:35Z</time>
      </trkpt>
      <trkpt lat="44.86402" lon="1.78644">
        <ele>340.5</ele>
        <time>2022-05-24T09:34:36Z</time>
      </trkpt>
      <trkpt lat="44.86401" lon="1.78651">
        <ele>340.5</ele>
        <time>2022-05-24T09:34:37Z</time>
      </trkpt>
      <trkpt lat="44.86399" lon="1.78675">
        <ele>340.5</ele>
        <time>2022-05-24T09:34:42Z</time>
      </trkpt>
      <trkpt lat="44.86398" lon="1.7869">
        <ele>340.6</ele>
        <time>2022-05-24T09:34:43Z</time>
      </trkpt>
      <trkpt lat="44.86397" lon="1.787">
        <ele>340.6</ele>
        <time>2022-05-24T09:34:44Z</time>
      </trkpt>
      <trkpt lat="44.86396" lon="1.78708">
        <ele>340.5</ele>
        <time>2022-05-24T09:34:45Z</time>
      </trkpt>
      <trkpt lat="44.86396" lon="1.78715">
        <ele>340.3</ele>
        <time>2022-05-24T09:34:46Z</time>
      </trkpt>
      <trkpt lat="44.86395" lon="1.78723">
        <ele>340.1</ele>
        <time>2022-05-24T09:34:47Z</time>
      </trkpt>
      <trkpt lat="44.86395" lon="1.7873">
        <ele>339.9</ele>
        <time>2022-05-24T09:34:48Z</time>
      </trkpt>
      <trkpt lat="44.86395" lon="1.78739">
        <ele>339.5</ele>
        <time>2022-05-24T09:34:49Z</time>
      </trkpt>
      <trkpt lat="44.86397" lon="1.78748">
        <ele>339.1</ele>
        <time>2022-05-24T09:34:50Z</time>
      </trkpt>
      <trkpt lat="44.86398" lon="1.78755">
        <ele>338.7</ele>
        <time>2022-05-24T09:34:51Z</time>
      </trkpt>
      <trkpt lat="44.86398" lon="1.78764">
        <ele>338.2</ele>
        <time>2022-05-24T09:34:52Z</time>
      </trkpt>
      <trkpt lat="44.864" lon="1.78771">
        <ele>337.8</ele>
        <time>2022-05-24T09:34:53Z</time>
      </trkpt>
      <trkpt lat="44.86404" lon="1.78777">
        <ele>337.4</ele>
        <time>2022-05-24T09:34:54Z</time>
      </trkpt>
      <trkpt lat="44.86406" lon="1.78784">
        <ele>337</ele>
        <time>2022-05-24T09:34:55Z</time>
      </trkpt>
      <trkpt lat="44.86409" lon="1.78791">
        <ele>336.6</ele>
        <time>2022-05-24T09:34:56Z</time>
      </trkpt>
      <trkpt lat="44.86412" lon="1.78799">
        <ele>336.4</ele>
        <time>2022-05-24T09:34:57Z</time>
      </trkpt>
      <trkpt lat="44.86416" lon="1.78806">
        <ele>336.2</ele>
        <time>2022-05-24T09:34:58Z</time>
      </trkpt>
      <trkpt lat="44.8642" lon="1.78813">
        <ele>336.1</ele>
        <time>2022-05-24T09:34:59Z</time>
      </trkpt>
      <trkpt lat="44.86425" lon="1.78819">
        <ele>336</ele>
        <time>2022-05-24T09:35:00Z</time>
      </trkpt>
      <trkpt lat="44.86429" lon="1.78822">
        <ele>336</ele>
        <time>2022-05-24T09:35:01Z</time>
      </trkpt>
      <trkpt lat="44.86434" lon="1.78824">
        <ele>336.1</ele>
        <time>2022-05-24T09:35:02Z</time>
      </trkpt>
      <trkpt lat="44.86439" lon="1.78828">
        <ele>336.2</ele>
        <time>2022-05-24T09:35:03Z</time>
      </trkpt>
      <trkpt lat="44.86444" lon="1.78833">
        <ele>336.3</ele>
        <time>2022-05-24T09:35:04Z</time>
      </trkpt>
      <trkpt lat="44.8645" lon="1.78838">
        <ele>336.6</ele>
        <time>2022-05-24T09:35:05Z</time>
      </trkpt>
      <trkpt lat="44.86454" lon="1.78845">
        <ele>336.9</ele>
        <time>2022-05-24T09:35:06Z</time>
      </trkpt>
      <trkpt lat="44.86456" lon="1.7885">
        <ele>337.1</ele>
        <time>2022-05-24T09:35:07Z</time>
      </trkpt>
      <trkpt lat="44.86458" lon="1.78854">
        <ele>337.3</ele>
        <time>2022-05-24T09:35:08Z</time>
      </trkpt>
      <trkpt lat="44.86462" lon="1.78858">
        <ele>337.6</ele>
        <time>2022-05-24T09:35:09Z</time>
      </trkpt>
      <trkpt lat="44.86465" lon="1.78862">
        <ele>337.8</ele>
        <time>2022-05-24T09:35:10Z</time>
      </trkpt>
      <trkpt lat="44.86469" lon="1.78868">
        <ele>338.1</ele>
        <time>2022-05-24T09:35:11Z</time>
      </trkpt>
      <trkpt lat="44.86471" lon="1.78872">
        <ele>338.4</ele>
        <time>2022-05-24T09:35:12Z</time>
      </trkpt>
      <trkpt lat="44.86474" lon="1.78876">
        <ele>338.6</ele>
        <time>2022-05-24T09:35:13Z</time>
      </trkpt>
      <trkpt lat="44.86476" lon="1.78878">
        <ele>338.8</ele>
        <time>2022-05-24T09:35:14Z</time>
      </trkpt>
      <trkpt lat="44.86479" lon="1.78882">
        <ele>339</ele>
        <time>2022-05-24T09:35:15Z</time>
      </trkpt>
      <trkpt lat="44.86481" lon="1.78885">
        <ele>339.2</ele>
        <time>2022-05-24T09:35:16Z</time>
      </trkpt>
      <trkpt lat="44.86483" lon="1.78889">
        <ele>339.4</ele>
        <time>2022-05-24T09:35:17Z</time>
      </trkpt>
      <trkpt lat="44.86486" lon="1.78893">
        <ele>339.6</ele>
        <time>2022-05-24T09:35:18Z</time>
      </trkpt>
      <trkpt lat="44.86488" lon="1.78897">
        <ele>339.8</ele>
        <time>2022-05-24T09:35:19Z</time>
      </trkpt>
      <trkpt lat="44.8649" lon="1.789">
        <ele>340</ele>
        <time>2022-05-24T09:35:20Z</time>
      </trkpt>
      <trkpt lat="44.86493" lon="1.78903">
        <ele>340.1</ele>
        <time>2022-05-24T09:35:21Z</time>
      </trkpt>
      <trkpt lat="44.86495" lon="1.78907">
        <ele>340.3</ele>
        <time>2022-05-24T09:35:22Z</time>
      </trkpt>
      <trkpt lat="44.86497" lon="1.78911">
        <ele>340.4</ele>
        <time>2022-05-24T09:35:23Z</time>
      </trkpt>
      <trkpt lat="44.86499" lon="1.78916">
        <ele>340.5</ele>
        <time>2022-05-24T09:35:24Z</time>
      </trkpt>
      <trkpt lat="44.86499" lon="1.78921">
        <ele>340.6</ele>
        <time>2022-05-24T09:35:25Z</time>
      </trkpt>
      <trkpt lat="44.86498" lon="1.78927">
        <ele>340.6</ele>
        <time>2022-05-24T09:35:26Z</time>
      </trkpt>
      <trkpt lat="44.86497" lon="1.78933">
        <ele>340.6</ele>
        <time>2022-05-24T09:35:27Z</time>
      </trkpt>
      <trkpt lat="44.86495" lon="1.78939">
        <ele>340.6</ele>
        <time>2022-05-24T09:35:28Z</time>
      </trkpt>
      <trkpt lat="44.86494" lon="1.78945">
        <ele>340.5</ele>
        <time>2022-05-24T09:35:29Z</time>
      </trkpt>
      <trkpt lat="44.86493" lon="1.78951">
        <ele>340.4</ele>
        <time>2022-05-24T09:35:30Z</time>
      </trkpt>
      <trkpt lat="44.86491" lon="1.78958">
        <ele>340.2</ele>
        <time>2022-05-24T09:35:31Z</time>
      </trkpt>
      <trkpt lat="44.8649" lon="1.78964">
        <ele>340</ele>
        <time>2022-05-24T09:35:32Z</time>
      </trkpt>
      <trkpt lat="44.86489" lon="1.7897">
        <ele>339.8</ele>
        <time>2022-05-24T09:35:33Z</time>
      </trkpt>
      <trkpt lat="44.86489" lon="1.78977">
        <ele>339.6</ele>
        <time>2022-05-24T09:35:34Z</time>
      </trkpt>
      <trkpt lat="44.86489" lon="1.78983">
        <ele>339.3</ele>
        <time>2022-05-24T09:35:35Z</time>
      </trkpt>
      <trkpt lat="44.86489" lon="1.78989">
        <ele>339.1</ele>
        <time>2022-05-24T09:35:36Z</time>
      </trkpt>
      <trkpt lat="44.86489" lon="1.78996">
        <ele>338.9</ele>
        <time>2022-05-24T09:35:37Z</time>
      </trkpt>
      <trkpt lat="44.86492" lon="1.79002">
        <ele>338.6</ele>
        <time>2022-05-24T09:35:38Z</time>
      </trkpt>
      <trkpt lat="44.86495" lon="1.79008">
        <ele>338.4</ele>
        <time>2022-05-24T09:35:39Z</time>
      </trkpt>
      <trkpt lat="44.86498" lon="1.79014">
        <ele>338.2</ele>
        <time>2022-05-24T09:35:40Z</time>
      </trkpt>
      <trkpt lat="44.86502" lon="1.79021">
        <ele>337.9</ele>
        <time>2022-05-24T09:35:41Z</time>
      </trkpt>
      <trkpt lat="44.86506" lon="1.79027">
        <ele>337.7</ele>
        <time>2022-05-24T09:35:42Z</time>
      </trkpt>
      <trkpt lat="44.86509" lon="1.79033">
        <ele>337.4</ele>
        <time>2022-05-24T09:35:43Z</time>
      </trkpt>
      <trkpt lat="44.86513" lon="1.79039">
        <ele>337</ele>
        <time>2022-05-24T09:35:44Z</time>
      </trkpt>
      <trkpt lat="44.86516" lon="1.79045">
        <ele>336.6</ele>
        <time>2022-05-24T09:35:45Z</time>
      </trkpt>
      <trkpt lat="44.86518" lon="1.79052">
        <ele>336.1</ele>
        <time>2022-05-24T09:35:46Z</time>
      </trkpt>
      <trkpt lat="44.86521" lon="1.79058">
        <ele>335.6</ele>
        <time>2022-05-24T09:35:47Z</time>
      </trkpt>
      <trkpt lat="44.86523" lon="1.79065">
        <ele>335</ele>
        <time>2022-05-24T09:35:48Z</time>
      </trkpt>
      <trkpt lat="44.86526" lon="1.79073">
        <ele>334.4</ele>
        <time>2022-05-24T09:35:49Z</time>
      </trkpt>
      <trkpt lat="44.86531" lon="1.7908">
        <ele>333.7</ele>
        <time>2022-05-24T09:35:50Z</time>
      </trkpt>
      <trkpt lat="44.86536" lon="1.79087">
        <ele>332.9</ele>
        <time>2022-05-24T09:35:51Z</time>
      </trkpt>
      <trkpt lat="44.86541" lon="1.79093">
        <ele>332.2</ele>
        <time>2022-05-24T09:35:52Z</time>
      </trkpt>
      <trkpt lat="44.86544" lon="1.791">
        <ele>331.6</ele>
        <time>2022-05-24T09:35:53Z</time>
      </trkpt>
      <trkpt lat="44.8655" lon="1.79114">
        <ele>330.4</ele>
        <time>2022-05-24T09:35:57Z</time>
      </trkpt>
      <trkpt lat="44.86552" lon="1.79145">
        <ele>328.9</ele>
        <time>2022-05-24T09:35:58Z</time>
      </trkpt>
      <trkpt lat="44.86554" lon="1.79151">
        <ele>328.8</ele>
        <time>2022-05-24T09:35:59Z</time>
      </trkpt>
      <trkpt lat="44.86557" lon="1.7916">
        <ele>328.6</ele>
        <time>2022-05-24T09:36:00Z</time>
      </trkpt>
      <trkpt lat="44.86561" lon="1.79168">
        <ele>328.5</ele>
        <time>2022-05-24T09:36:01Z</time>
      </trkpt>
      <trkpt lat="44.86565" lon="1.79174">
        <ele>328.5</ele>
        <time>2022-05-24T09:36:02Z</time>
      </trkpt>
      <trkpt lat="44.86568" lon="1.79181">
        <ele>328.6</ele>
        <time>2022-05-24T09:36:03Z</time>
      </trkpt>
      <trkpt lat="44.8657" lon="1.79188">
        <ele>328.7</ele>
        <time>2022-05-24T09:36:04Z</time>
      </trkpt>
      <trkpt lat="44.86572" lon="1.79194">
        <ele>328.8</ele>
        <time>2022-05-24T09:36:05Z</time>
      </trkpt>
      <trkpt lat="44.86573" lon="1.79201">
        <ele>329</ele>
        <time>2022-05-24T09:36:06Z</time>
      </trkpt>
      <trkpt lat="44.86575" lon="1.79208">
        <ele>329.2</ele>
        <time>2022-05-24T09:36:07Z</time>
      </trkpt>
      <trkpt lat="44.86577" lon="1.79214">
        <ele>329.5</ele>
        <time>2022-05-24T09:36:08Z</time>
      </trkpt>
      <trkpt lat="44.8658" lon="1.7922">
        <ele>329.8</ele>
        <time>2022-05-24T09:36:09Z</time>
      </trkpt>
      <trkpt lat="44.86582" lon="1.79226">
        <ele>330.2</ele>
        <time>2022-05-24T09:36:10Z</time>
      </trkpt>
      <trkpt lat="44.86584" lon="1.79232">
        <ele>330.6</ele>
        <time>2022-05-24T09:36:11Z</time>
      </trkpt>
      <trkpt lat="44.86587" lon="1.79238">
        <ele>331</ele>
        <time>2022-05-24T09:36:12Z</time>
      </trkpt>
      <trkpt lat="44.86589" lon="1.79243">
        <ele>331.3</ele>
        <time>2022-05-24T09:36:13Z</time>
      </trkpt>
      <trkpt lat="44.86589" lon="1.79244">
        <ele>331.4</ele>
        <time>2022-05-24T09:36:14Z</time>
      </trkpt>
      <trkpt lat="44.8659" lon="1.79249">
        <ele>331.7</ele>
        <time>2022-05-24T09:36:15Z</time>
      </trkpt>
      <trkpt lat="44.86591" lon="1.79254">
        <ele>332.1</ele>
        <time>2022-05-24T09:36:16Z</time>
      </trkpt>
      <trkpt lat="44.86592" lon="1.79256">
        <ele>332.2</ele>
        <time>2022-05-24T09:36:17Z</time>
      </trkpt>
      <trkpt lat="44.86592" lon="1.79259">
        <ele>332.5</ele>
        <time>2022-05-24T09:36:18Z</time>
      </trkpt>
      <trkpt lat="44.86594" lon="1.79265">
        <ele>332.8</ele>
        <time>2022-05-24T09:36:19Z</time>
      </trkpt>
      <trkpt lat="44.86594" lon="1.79267">
        <ele>333</ele>
        <time>2022-05-24T09:36:20Z</time>
      </trkpt>
      <trkpt lat="44.86595" lon="1.79271">
        <ele>333.3</ele>
        <time>2022-05-24T09:36:21Z</time>
      </trkpt>
      <trkpt lat="44.86596" lon="1.79275">
        <ele>333.6</ele>
        <time>2022-05-24T09:36:22Z</time>
      </trkpt>
      <trkpt lat="44.86598" lon="1.79279">
        <ele>333.9</ele>
        <time>2022-05-24T09:36:23Z</time>
      </trkpt>
      <trkpt lat="44.86599" lon="1.79284">
        <ele>334.2</ele>
        <time>2022-05-24T09:36:24Z</time>
      </trkpt>
      <trkpt lat="44.86601" lon="1.79288">
        <ele>334.6</ele>
        <time>2022-05-24T09:36:25Z</time>
      </trkpt>
      <trkpt lat="44.86603" lon="1.79292">
        <ele>334.9</ele>
        <time>2022-05-24T09:36:26Z</time>
      </trkpt>
      <trkpt lat="44.86604" lon="1.79296">
        <ele>335.2</ele>
        <time>2022-05-24T09:36:27Z</time>
      </trkpt>
      <trkpt lat="44.86605" lon="1.793">
        <ele>335.5</ele>
        <time>2022-05-24T09:36:28Z</time>
      </trkpt>
      <trkpt lat="44.86607" lon="1.79304">
        <ele>335.7</ele>
        <time>2022-05-24T09:36:29Z</time>
      </trkpt>
      <trkpt lat="44.86608" lon="1.79308">
        <ele>336</ele>
        <time>2022-05-24T09:36:30Z</time>
      </trkpt>
      <trkpt lat="44.86609" lon="1.79312">
        <ele>336.3</ele>
        <time>2022-05-24T09:36:31Z</time>
      </trkpt>
      <trkpt lat="44.8661" lon="1.79316">
        <ele>336.6</ele>
        <time>2022-05-24T09:36:32Z</time>
      </trkpt>
      <trkpt lat="44.8661" lon="1.7932">
        <ele>336.8</ele>
        <time>2022-05-24T09:36:33Z</time>
      </trkpt>
      <trkpt lat="44.86611" lon="1.79324">
        <ele>337.1</ele>
        <time>2022-05-24T09:36:34Z</time>
      </trkpt>
      <trkpt lat="44.86612" lon="1.79328">
        <ele>337.3</ele>
        <time>2022-05-24T09:36:35Z</time>
      </trkpt>
      <trkpt lat="44.86613" lon="1.79332">
        <ele>337.6</ele>
        <time>2022-05-24T09:36:36Z</time>
      </trkpt>
      <trkpt lat="44.86615" lon="1.79335">
        <ele>337.9</ele>
        <time>2022-05-24T09:36:37Z</time>
      </trkpt>
      <trkpt lat="44.86616" lon="1.79339">
        <ele>338.1</ele>
        <time>2022-05-24T09:36:38Z</time>
      </trkpt>
      <trkpt lat="44.86618" lon="1.79341">
        <ele>338.4</ele>
        <time>2022-05-24T09:36:39Z</time>
      </trkpt>
      <trkpt lat="44.86621" lon="1.79344">
        <ele>338.7</ele>
        <time>2022-05-24T09:36:40Z</time>
      </trkpt>
      <trkpt lat="44.86623" lon="1.79346">
        <ele>338.9</ele>
        <time>2022-05-24T09:36:41Z</time>
      </trkpt>
      <trkpt lat="44.86626" lon="1.79349">
        <ele>339.3</ele>
        <time>2022-05-24T09:36:42Z</time>
      </trkpt>
      <trkpt lat="44.86627" lon="1.7935">
        <ele>339.4</ele>
        <time>2022-05-24T09:36:43Z</time>
      </trkpt>
      <trkpt lat="44.86629" lon="1.79353">
        <ele>339.7</ele>
        <time>2022-05-24T09:36:44Z</time>
      </trkpt>
      <trkpt lat="44.8663" lon="1.79356">
        <ele>339.9</ele>
        <time>2022-05-24T09:36:45Z</time>
      </trkpt>
      <trkpt lat="44.86632" lon="1.7936">
        <ele>340.2</ele>
        <time>2022-05-24T09:36:46Z</time>
      </trkpt>
      <trkpt lat="44.86635" lon="1.79364">
        <ele>340.6</ele>
        <time>2022-05-24T09:36:47Z</time>
      </trkpt>
      <trkpt lat="44.86635" lon="1.79365">
        <ele>340.7</ele>
        <time>2022-05-24T09:36:48Z</time>
      </trkpt>
      <trkpt lat="44.86638" lon="1.7937">
        <ele>341</ele>
        <time>2022-05-24T09:36:49Z</time>
      </trkpt>
      <trkpt lat="44.86638" lon="1.79371">
        <ele>341.1</ele>
        <time>2022-05-24T09:36:50Z</time>
      </trkpt>
      <trkpt lat="44.86641" lon="1.79375">
        <ele>341.4</ele>
        <time>2022-05-24T09:36:51Z</time>
      </trkpt>
      <trkpt lat="44.86642" lon="1.79377">
        <ele>341.5</ele>
        <time>2022-05-24T09:36:52Z</time>
      </trkpt>
      <trkpt lat="44.86643" lon="1.7938">
        <ele>341.8</ele>
        <time>2022-05-24T09:36:53Z</time>
      </trkpt>
      <trkpt lat="44.86646" lon="1.79385">
        <ele>342.1</ele>
        <time>2022-05-24T09:36:54Z</time>
      </trkpt>
      <trkpt lat="44.86646" lon="1.79386">
        <ele>342.2</ele>
        <time>2022-05-24T09:36:55Z</time>
      </trkpt>
      <trkpt lat="44.86648" lon="1.79391">
        <ele>342.5</ele>
        <time>2022-05-24T09:36:56Z</time>
      </trkpt>
      <trkpt lat="44.86649" lon="1.79393">
        <ele>342.6</ele>
        <time>2022-05-24T09:36:57Z</time>
      </trkpt>
      <trkpt lat="44.8665" lon="1.79398">
        <ele>343</ele>
        <time>2022-05-24T09:36:58Z</time>
      </trkpt>
      <trkpt lat="44.8665" lon="1.794">
        <ele>343.1</ele>
        <time>2022-05-24T09:36:59Z</time>
      </trkpt>
      <trkpt lat="44.86652" lon="1.79404">
        <ele>343.4</ele>
        <time>2022-05-24T09:37:00Z</time>
      </trkpt>
      <trkpt lat="44.86653" lon="1.79406">
        <ele>343.5</ele>
        <time>2022-05-24T09:37:01Z</time>
      </trkpt>
      <trkpt lat="44.86654" lon="1.79411">
        <ele>343.8</ele>
        <time>2022-05-24T09:37:02Z</time>
      </trkpt>
      <trkpt lat="44.86655" lon="1.79413">
        <ele>344</ele>
        <time>2022-05-24T09:37:03Z</time>
      </trkpt>
      <trkpt lat="44.86657" lon="1.79417">
        <ele>344.3</ele>
        <time>2022-05-24T09:37:04Z</time>
      </trkpt>
      <trkpt lat="44.86657" lon="1.79419">
        <ele>344.4</ele>
        <time>2022-05-24T09:37:05Z</time>
      </trkpt>
      <trkpt lat="44.86658" lon="1.79423">
        <ele>344.6</ele>
        <time>2022-05-24T09:37:06Z</time>
      </trkpt>
      <trkpt lat="44.86659" lon="1.79426">
        <ele>344.9</ele>
        <time>2022-05-24T09:37:07Z</time>
      </trkpt>
      <trkpt lat="44.8666" lon="1.7943">
        <ele>345.1</ele>
        <time>2022-05-24T09:37:08Z</time>
      </trkpt>
      <trkpt lat="44.8666" lon="1.79434">
        <ele>345.3</ele>
        <time>2022-05-24T09:37:09Z</time>
      </trkpt>
      <trkpt lat="44.86661" lon="1.79439">
        <ele>345.6</ele>
        <time>2022-05-24T09:37:10Z</time>
      </trkpt>
      <trkpt lat="44.86661" lon="1.79442">
        <ele>345.8</ele>
        <time>2022-05-24T09:37:11Z</time>
      </trkpt>
      <trkpt lat="44.86662" lon="1.79448">
        <ele>346.1</ele>
        <time>2022-05-24T09:37:12Z</time>
      </trkpt>
      <trkpt lat="44.86662" lon="1.7945">
        <ele>346.2</ele>
        <time>2022-05-24T09:37:13Z</time>
      </trkpt>
      <trkpt lat="44.86663" lon="1.79455">
        <ele>346.4</ele>
        <time>2022-05-24T09:37:14Z</time>
      </trkpt>
      <trkpt lat="44.86663" lon="1.79457">
        <ele>346.5</ele>
        <time>2022-05-24T09:37:15Z</time>
      </trkpt>
      <trkpt lat="44.86663" lon="1.79462">
        <ele>346.8</ele>
        <time>2022-05-24T09:37:16Z</time>
      </trkpt>
      <trkpt lat="44.86663" lon="1.79464">
        <ele>346.9</ele>
        <time>2022-05-24T09:37:17Z</time>
      </trkpt>
      <trkpt lat="44.86663" lon="1.79468">
        <ele>347</ele>
        <time>2022-05-24T09:37:18Z</time>
      </trkpt>
      <trkpt lat="44.86664" lon="1.79473">
        <ele>347.2</ele>
        <time>2022-05-24T09:37:19Z</time>
      </trkpt>
      <trkpt lat="44.86664" lon="1.79477">
        <ele>347.4</ele>
        <time>2022-05-24T09:37:20Z</time>
      </trkpt>
      <trkpt lat="44.86664" lon="1.79481">
        <ele>347.5</ele>
        <time>2022-05-24T09:37:21Z</time>
      </trkpt>
      <trkpt lat="44.86665" lon="1.79485">
        <ele>347.6</ele>
        <time>2022-05-24T09:37:22Z</time>
      </trkpt>
      <trkpt lat="44.86665" lon="1.79489">
        <ele>347.7</ele>
        <time>2022-05-24T09:37:23Z</time>
      </trkpt>
      <trkpt lat="44.86666" lon="1.79494">
        <ele>347.9</ele>
        <time>2022-05-24T09:37:24Z</time>
      </trkpt>
      <trkpt lat="44.86666" lon="1.79499">
        <ele>348</ele>
        <time>2022-05-24T09:37:25Z</time>
      </trkpt>
      <trkpt lat="44.86666" lon="1.79503">
        <ele>348.1</ele>
        <time>2022-05-24T09:37:26Z</time>
      </trkpt>
      <trkpt lat="44.86665" lon="1.79507">
        <ele>348.1</ele>
        <time>2022-05-24T09:37:27Z</time>
      </trkpt>
      <trkpt lat="44.86665" lon="1.79511">
        <ele>348.2</ele>
        <time>2022-05-24T09:37:28Z</time>
      </trkpt>
      <trkpt lat="44.86665" lon="1.79515">
        <ele>348.3</ele>
        <time>2022-05-24T09:37:29Z</time>
      </trkpt>
      <trkpt lat="44.86664" lon="1.79519">
        <ele>348.3</ele>
        <time>2022-05-24T09:37:30Z</time>
      </trkpt>
      <trkpt lat="44.86664" lon="1.79524">
        <ele>348.4</ele>
        <time>2022-05-24T09:37:31Z</time>
      </trkpt>
      <trkpt lat="44.86665" lon="1.79529">
        <ele>348.4</ele>
        <time>2022-05-24T09:37:32Z</time>
      </trkpt>
      <trkpt lat="44.86665" lon="1.79535">
        <ele>348.5</ele>
        <time>2022-05-24T09:37:33Z</time>
      </trkpt>
      <trkpt lat="44.86665" lon="1.79541">
        <ele>348.5</ele>
        <time>2022-05-24T09:37:34Z</time>
      </trkpt>
      <trkpt lat="44.86666" lon="1.79547">
        <ele>348.5</ele>
        <time>2022-05-24T09:37:35Z</time>
      </trkpt>
      <trkpt lat="44.86667" lon="1.79553">
        <ele>348.5</ele>
        <time>2022-05-24T09:37:36Z</time>
      </trkpt>
      <trkpt lat="44.86669" lon="1.79559">
        <ele>348.5</ele>
        <time>2022-05-24T09:37:37Z</time>
      </trkpt>
      <trkpt lat="44.86671" lon="1.79564">
        <ele>348.5</ele>
        <time>2022-05-24T09:37:38Z</time>
      </trkpt>
      <trkpt lat="44.86673" lon="1.79568">
        <ele>348.4</ele>
        <time>2022-05-24T09:37:39Z</time>
      </trkpt>
      <trkpt lat="44.86677" lon="1.79573">
        <ele>348.4</ele>
        <time>2022-05-24T09:37:40Z</time>
      </trkpt>
      <trkpt lat="44.86681" lon="1.79579">
        <ele>348.4</ele>
        <time>2022-05-24T09:37:41Z</time>
      </trkpt>
      <trkpt lat="44.86685" lon="1.79583">
        <ele>348.4</ele>
        <time>2022-05-24T09:37:42Z</time>
      </trkpt>
      <trkpt lat="44.8669" lon="1.79588">
        <ele>348.4</ele>
        <time>2022-05-24T09:37:43Z</time>
      </trkpt>
      <trkpt lat="44.86694" lon="1.79594">
        <ele>348.4</ele>
        <time>2022-05-24T09:37:44Z</time>
      </trkpt>
      <trkpt lat="44.86698" lon="1.79599">
        <ele>348.4</ele>
        <time>2022-05-24T09:37:45Z</time>
      </trkpt>
      <trkpt lat="44.86702" lon="1.79604">
        <ele>348.4</ele>
        <time>2022-05-24T09:37:46Z</time>
      </trkpt>
      <trkpt lat="44.86706" lon="1.79609">
        <ele>348.4</ele>
        <time>2022-05-24T09:37:47Z</time>
      </trkpt>
      <trkpt lat="44.86709" lon="1.79614">
        <ele>348.4</ele>
        <time>2022-05-24T09:37:48Z</time>
      </trkpt>
      <trkpt lat="44.86712" lon="1.79618">
        <ele>348.5</ele>
        <time>2022-05-24T09:37:49Z</time>
      </trkpt>
      <trkpt lat="44.86714" lon="1.79623">
        <ele>348.5</ele>
        <time>2022-05-24T09:37:50Z</time>
      </trkpt>
      <trkpt lat="44.86718" lon="1.79628">
        <ele>348.6</ele>
        <time>2022-05-24T09:37:51Z</time>
      </trkpt>
      <trkpt lat="44.86722" lon="1.79633">
        <ele>348.7</ele>
        <time>2022-05-24T09:37:52Z</time>
      </trkpt>
      <trkpt lat="44.86725" lon="1.79638">
        <ele>348.7</ele>
        <time>2022-05-24T09:37:53Z</time>
      </trkpt>
      <trkpt lat="44.86729" lon="1.79643">
        <ele>348.7</ele>
        <time>2022-05-24T09:37:54Z</time>
      </trkpt>
      <trkpt lat="44.86732" lon="1.79648">
        <ele>348.8</ele>
        <time>2022-05-24T09:37:55Z</time>
      </trkpt>
      <trkpt lat="44.86736" lon="1.79654">
        <ele>348.8</ele>
        <time>2022-05-24T09:37:56Z</time>
      </trkpt>
      <trkpt lat="44.86739" lon="1.79659">
        <ele>348.8</ele>
        <time>2022-05-24T09:37:57Z</time>
      </trkpt>
      <trkpt lat="44.86743" lon="1.79664">
        <ele>348.8</ele>
        <time>2022-05-24T09:37:58Z</time>
      </trkpt>
      <trkpt lat="44.86747" lon="1.7967">
        <ele>348.8</ele>
        <time>2022-05-24T09:37:59Z</time>
      </trkpt>
      <trkpt lat="44.86751" lon="1.79676">
        <ele>348.8</ele>
        <time>2022-05-24T09:38:00Z</time>
      </trkpt>
      <trkpt lat="44.86755" lon="1.79683">
        <ele>348.8</ele>
        <time>2022-05-24T09:38:01Z</time>
      </trkpt>
      <trkpt lat="44.86759" lon="1.79689">
        <ele>348.8</ele>
        <time>2022-05-24T09:38:02Z</time>
      </trkpt>
      <trkpt lat="44.86763" lon="1.79695">
        <ele>348.9</ele>
        <time>2022-05-24T09:38:03Z</time>
      </trkpt>
      <trkpt lat="44.86765" lon="1.797">
        <ele>348.9</ele>
        <time>2022-05-24T09:38:04Z</time>
      </trkpt>
      <trkpt lat="44.86769" lon="1.79705">
        <ele>349</ele>
        <time>2022-05-24T09:38:05Z</time>
      </trkpt>
      <trkpt lat="44.86772" lon="1.79711">
        <ele>349.1</ele>
        <time>2022-05-24T09:38:06Z</time>
      </trkpt>
      <trkpt lat="44.86776" lon="1.79718">
        <ele>349.2</ele>
        <time>2022-05-24T09:38:07Z</time>
      </trkpt>
      <trkpt lat="44.86778" lon="1.79723">
        <ele>349.2</ele>
        <time>2022-05-24T09:38:08Z</time>
      </trkpt>
      <trkpt lat="44.8678" lon="1.7973">
        <ele>349.2</ele>
        <time>2022-05-24T09:38:09Z</time>
      </trkpt>
      <trkpt lat="44.86782" lon="1.79736">
        <ele>349.2</ele>
        <time>2022-05-24T09:38:10Z</time>
      </trkpt>
      <trkpt lat="44.86785" lon="1.79741">
        <ele>349.2</ele>
        <time>2022-05-24T09:38:11Z</time>
      </trkpt>
      <trkpt lat="44.86789" lon="1.79746">
        <ele>349.2</ele>
        <time>2022-05-24T09:38:12Z</time>
      </trkpt>
      <trkpt lat="44.86793" lon="1.7975">
        <ele>349.2</ele>
        <time>2022-05-24T09:38:13Z</time>
      </trkpt>
      <trkpt lat="44.86797" lon="1.79756">
        <ele>349.2</ele>
        <time>2022-05-24T09:38:14Z</time>
      </trkpt>
      <trkpt lat="44.86802" lon="1.79761">
        <ele>349.2</ele>
        <time>2022-05-24T09:38:15Z</time>
      </trkpt>
      <trkpt lat="44.86806" lon="1.79765">
        <ele>349.2</ele>
        <time>2022-05-24T09:38:16Z</time>
      </trkpt>
      <trkpt lat="44.86812" lon="1.7977">
        <ele>349.1</ele>
        <time>2022-05-24T09:38:17Z</time>
      </trkpt>
      <trkpt lat="44.86817" lon="1.79775">
        <ele>349.1</ele>
        <time>2022-05-24T09:38:18Z</time>
      </trkpt>
      <trkpt lat="44.86821" lon="1.79779">
        <ele>349</ele>
        <time>2022-05-24T09:38:19Z</time>
      </trkpt>
      <trkpt lat="44.86827" lon="1.79783">
        <ele>349</ele>
        <time>2022-05-24T09:38:20Z</time>
      </trkpt>
      <trkpt lat="44.86832" lon="1.79786">
        <ele>349</ele>
        <time>2022-05-24T09:38:21Z</time>
      </trkpt>
      <trkpt lat="44.86838" lon="1.79789">
        <ele>349</ele>
        <time>2022-05-24T09:38:22Z</time>
      </trkpt>
      <trkpt lat="44.86843" lon="1.79794">
        <ele>349.1</ele>
        <time>2022-05-24T09:38:23Z</time>
      </trkpt>
      <trkpt lat="44.86848" lon="1.79798">
        <ele>349.2</ele>
        <time>2022-05-24T09:38:24Z</time>
      </trkpt>
      <trkpt lat="44.86854" lon="1.79801">
        <ele>349.3</ele>
        <time>2022-05-24T09:38:25Z</time>
      </trkpt>
      <trkpt lat="44.86859" lon="1.79804">
        <ele>349.3</ele>
        <time>2022-05-24T09:38:26Z</time>
      </trkpt>
      <trkpt lat="44.86863" lon="1.79809">
        <ele>349.4</ele>
        <time>2022-05-24T09:38:27Z</time>
      </trkpt>
      <trkpt lat="44.86868" lon="1.79813">
        <ele>349.5</ele>
        <time>2022-05-24T09:38:28Z</time>
      </trkpt>
      <trkpt lat="44.86873" lon="1.7982">
        <ele>349.6</ele>
        <time>2022-05-24T09:38:29Z</time>
      </trkpt>
      <trkpt lat="44.86878" lon="1.79825">
        <ele>349.7</ele>
        <time>2022-05-24T09:38:30Z</time>
      </trkpt>
      <trkpt lat="44.86882" lon="1.79829">
        <ele>349.7</ele>
        <time>2022-05-24T09:38:31Z</time>
      </trkpt>
      <trkpt lat="44.86886" lon="1.79833">
        <ele>349.7</ele>
        <time>2022-05-24T09:38:32Z</time>
      </trkpt>
      <trkpt lat="44.8689" lon="1.79839">
        <ele>349.6</ele>
        <time>2022-05-24T09:38:33Z</time>
      </trkpt>
      <trkpt lat="44.86894" lon="1.79845">
        <ele>349.6</ele>
        <time>2022-05-24T09:38:34Z</time>
      </trkpt>
      <trkpt lat="44.86898" lon="1.7985">
        <ele>349.5</ele>
        <time>2022-05-24T09:38:35Z</time>
      </trkpt>
      <trkpt lat="44.86902" lon="1.79855">
        <ele>349.3</ele>
        <time>2022-05-24T09:38:36Z</time>
      </trkpt>
      <trkpt lat="44.86907" lon="1.7986">
        <ele>349.1</ele>
        <time>2022-05-24T09:38:37Z</time>
      </trkpt>
      <trkpt lat="44.86911" lon="1.79865">
        <ele>348.9</ele>
        <time>2022-05-24T09:38:38Z</time>
      </trkpt>
      <trkpt lat="44.86915" lon="1.7987">
        <ele>348.6</ele>
        <time>2022-05-24T09:38:39Z</time>
      </trkpt>
      <trkpt lat="44.8692" lon="1.79875">
        <ele>348.3</ele>
        <time>2022-05-24T09:38:40Z</time>
      </trkpt>
      <trkpt lat="44.86925" lon="1.7988">
        <ele>347.9</ele>
        <time>2022-05-24T09:38:41Z</time>
      </trkpt>
      <trkpt lat="44.86929" lon="1.79888">
        <ele>347.4</ele>
        <time>2022-05-24T09:38:42Z</time>
      </trkpt>
      <trkpt lat="44.86934" lon="1.79895">
        <ele>346.9</ele>
        <time>2022-05-24T09:38:43Z</time>
      </trkpt>
      <trkpt lat="44.86939" lon="1.79903">
        <ele>346.4</ele>
        <time>2022-05-24T09:38:44Z</time>
      </trkpt>
      <trkpt lat="44.86944" lon="1.79911">
        <ele>345.9</ele>
        <time>2022-05-24T09:38:45Z</time>
      </trkpt>
      <trkpt lat="44.86949" lon="1.79919">
        <ele>345.4</ele>
        <time>2022-05-24T09:38:46Z</time>
      </trkpt>
      <trkpt lat="44.86954" lon="1.79927">
        <ele>344.8</ele>
        <time>2022-05-24T09:38:47Z</time>
      </trkpt>
      <trkpt lat="44.86959" lon="1.79934">
        <ele>344.4</ele>
        <time>2022-05-24T09:38:48Z</time>
      </trkpt>
      <trkpt lat="44.86964" lon="1.79939">
        <ele>344</ele>
        <time>2022-05-24T09:38:49Z</time>
      </trkpt>
      <trkpt lat="44.86971" lon="1.79941">
        <ele>344</ele>
        <time>2022-05-24T09:38:50Z</time>
      </trkpt>
      <trkpt lat="44.86977" lon="1.79939">
        <ele>344.4</ele>
        <time>2022-05-24T09:38:51Z</time>
      </trkpt>
      <trkpt lat="44.86983" lon="1.79936">
        <ele>344.7</ele>
        <time>2022-05-24T09:38:52Z</time>
      </trkpt>
      <trkpt lat="44.86988" lon="1.79932">
        <ele>344.9</ele>
        <time>2022-05-24T09:38:53Z</time>
      </trkpt>
      <trkpt lat="44.86992" lon="1.79928">
        <ele>345.1</ele>
        <time>2022-05-24T09:38:54Z</time>
      </trkpt>
      <trkpt lat="44.86996" lon="1.79924">
        <ele>345.3</ele>
        <time>2022-05-24T09:38:55Z</time>
      </trkpt>
      <trkpt lat="44.87" lon="1.79921">
        <ele>345.5</ele>
        <time>2022-05-24T09:38:56Z</time>
      </trkpt>
      <trkpt lat="44.87005" lon="1.79917">
        <ele>345.7</ele>
        <time>2022-05-24T09:38:57Z</time>
      </trkpt>
      <trkpt lat="44.87009" lon="1.79914">
        <ele>345.9</ele>
        <time>2022-05-24T09:38:58Z</time>
      </trkpt>
      <trkpt lat="44.87013" lon="1.7991">
        <ele>346</ele>
        <time>2022-05-24T09:38:59Z</time>
      </trkpt>
      <trkpt lat="44.87016" lon="1.79904">
        <ele>346</ele>
        <time>2022-05-24T09:39:00Z</time>
      </trkpt>
      <trkpt lat="44.87019" lon="1.79898">
        <ele>346.1</ele>
        <time>2022-05-24T09:39:01Z</time>
      </trkpt>
      <trkpt lat="44.87022" lon="1.79892">
        <ele>346.1</ele>
        <time>2022-05-24T09:39:02Z</time>
      </trkpt>
      <trkpt lat="44.87024" lon="1.79885">
        <ele>346.2</ele>
        <time>2022-05-24T09:39:03Z</time>
      </trkpt>
      <trkpt lat="44.87026" lon="1.79877">
        <ele>346.2</ele>
        <time>2022-05-24T09:39:04Z</time>
      </trkpt>
      <trkpt lat="44.87028" lon="1.7987">
        <ele>346.2</ele>
        <time>2022-05-24T09:39:05Z</time>
      </trkpt>
      <trkpt lat="44.87029" lon="1.79863">
        <ele>346.1</ele>
        <time>2022-05-24T09:39:06Z</time>
      </trkpt>
      <trkpt lat="44.8703" lon="1.79856">
        <ele>346</ele>
        <time>2022-05-24T09:39:07Z</time>
      </trkpt>
      <trkpt lat="44.87032" lon="1.79848">
        <ele>345.8</ele>
        <time>2022-05-24T09:39:08Z</time>
      </trkpt>
      <trkpt lat="44.87033" lon="1.79839">
        <ele>345.5</ele>
        <time>2022-05-24T09:39:09Z</time>
      </trkpt>
      <trkpt lat="44.87035" lon="1.79831">
        <ele>345.3</ele>
        <time>2022-05-24T09:39:10Z</time>
      </trkpt>
      <trkpt lat="44.87037" lon="1.7982">
        <ele>344.9</ele>
        <time>2022-05-24T09:39:11Z</time>
      </trkpt>
      <trkpt lat="44.87038" lon="1.7981">
        <ele>344.6</ele>
        <time>2022-05-24T09:39:12Z</time>
      </trkpt>
      <trkpt lat="44.87038" lon="1.79801">
        <ele>344.3</ele>
        <time>2022-05-24T09:39:13Z</time>
      </trkpt>
      <trkpt lat="44.87039" lon="1.79791">
        <ele>344.1</ele>
        <time>2022-05-24T09:39:14Z</time>
      </trkpt>
      <trkpt lat="44.87039" lon="1.79783">
        <ele>343.9</ele>
        <time>2022-05-24T09:39:15Z</time>
      </trkpt>
      <trkpt lat="44.87037" lon="1.79774">
        <ele>343.7</ele>
        <time>2022-05-24T09:39:16Z</time>
      </trkpt>
      <trkpt lat="44.87034" lon="1.79768">
        <ele>343.6</ele>
        <time>2022-05-24T09:39:17Z</time>
      </trkpt>
      <trkpt lat="44.8703" lon="1.79763">
        <ele>343.5</ele>
        <time>2022-05-24T09:39:18Z</time>
      </trkpt>
      <trkpt lat="44.87025" lon="1.79759">
        <ele>343.3</ele>
        <time>2022-05-24T09:39:19Z</time>
      </trkpt>
      <trkpt lat="44.87021" lon="1.79753">
        <ele>343.2</ele>
        <time>2022-05-24T09:39:20Z</time>
      </trkpt>
      <trkpt lat="44.87018" lon="1.79746">
        <ele>343</ele>
        <time>2022-05-24T09:39:21Z</time>
      </trkpt>
      <trkpt lat="44.87015" lon="1.79737">
        <ele>342.8</ele>
        <time>2022-05-24T09:39:22Z</time>
      </trkpt>
      <trkpt lat="44.87016" lon="1.79728">
        <ele>342.7</ele>
        <time>2022-05-24T09:39:23Z</time>
      </trkpt>
      <trkpt lat="44.87017" lon="1.7972">
        <ele>342.6</ele>
        <time>2022-05-24T09:39:24Z</time>
      </trkpt>
      <trkpt lat="44.87018" lon="1.79711">
        <ele>342.5</ele>
        <time>2022-05-24T09:39:25Z</time>
      </trkpt>
      <trkpt lat="44.8702" lon="1.79701">
        <ele>342.4</ele>
        <time>2022-05-24T09:39:26Z</time>
      </trkpt>
      <trkpt lat="44.87023" lon="1.79692">
        <ele>342.4</ele>
        <time>2022-05-24T09:39:27Z</time>
      </trkpt>
      <trkpt lat="44.87026" lon="1.79684">
        <ele>342.4</ele>
        <time>2022-05-24T09:39:28Z</time>
      </trkpt>
      <trkpt lat="44.87028" lon="1.79677">
        <ele>342.5</ele>
        <time>2022-05-24T09:39:29Z</time>
      </trkpt>
      <trkpt lat="44.8703" lon="1.79669">
        <ele>342.5</ele>
        <time>2022-05-24T09:39:30Z</time>
      </trkpt>
      <trkpt lat="44.87032" lon="1.79661">
        <ele>342.6</ele>
        <time>2022-05-24T09:39:31Z</time>
      </trkpt>
      <trkpt lat="44.87034" lon="1.79653">
        <ele>342.7</ele>
        <time>2022-05-24T09:39:32Z</time>
      </trkpt>
      <trkpt lat="44.87037" lon="1.79645">
        <ele>342.9</ele>
        <time>2022-05-24T09:39:33Z</time>
      </trkpt>
      <trkpt lat="44.87039" lon="1.79637">
        <ele>343.1</ele>
        <time>2022-05-24T09:39:34Z</time>
      </trkpt>
      <trkpt lat="44.8704" lon="1.7963">
        <ele>343.3</ele>
        <time>2022-05-24T09:39:35Z</time>
      </trkpt>
      <trkpt lat="44.87038" lon="1.79623">
        <ele>343.5</ele>
        <time>2022-05-24T09:39:36Z</time>
      </trkpt>
      <trkpt lat="44.87036" lon="1.79617">
        <ele>343.6</ele>
        <time>2022-05-24T09:39:37Z</time>
      </trkpt>
      <trkpt lat="44.87033" lon="1.79611">
        <ele>343.8</ele>
        <time>2022-05-24T09:39:38Z</time>
      </trkpt>
      <trkpt lat="44.87031" lon="1.79606">
        <ele>343.9</ele>
        <time>2022-05-24T09:39:39Z</time>
      </trkpt>
      <trkpt lat="44.87029" lon="1.796">
        <ele>344</ele>
        <time>2022-05-24T09:39:40Z</time>
      </trkpt>
      <trkpt lat="44.87026" lon="1.79594">
        <ele>344.2</ele>
        <time>2022-05-24T09:39:41Z</time>
      </trkpt>
      <trkpt lat="44.87022" lon="1.79588">
        <ele>344.4</ele>
        <time>2022-05-24T09:39:42Z</time>
      </trkpt>
      <trkpt lat="44.87018" lon="1.79584">
        <ele>344.6</ele>
        <time>2022-05-24T09:39:43Z</time>
      </trkpt>
      <trkpt lat="44.87014" lon="1.79579">
        <ele>344.9</ele>
        <time>2022-05-24T09:39:44Z</time>
      </trkpt>
      <trkpt lat="44.87011" lon="1.79574">
        <ele>345.1</ele>
        <time>2022-05-24T09:39:45Z</time>
      </trkpt>
      <trkpt lat="44.87009" lon="1.79568">
        <ele>345.4</ele>
        <time>2022-05-24T09:39:46Z</time>
      </trkpt>
      <trkpt lat="44.87007" lon="1.79562">
        <ele>345.7</ele>
        <time>2022-05-24T09:39:47Z</time>
      </trkpt>
      <trkpt lat="44.87005" lon="1.79557">
        <ele>346</ele>
        <time>2022-05-24T09:39:48Z</time>
      </trkpt>
      <trkpt lat="44.87003" lon="1.79553">
        <ele>346.2</ele>
        <time>2022-05-24T09:39:49Z</time>
      </trkpt>
      <trkpt lat="44.87" lon="1.79549">
        <ele>346.4</ele>
        <time>2022-05-24T09:39:50Z</time>
      </trkpt>
      <trkpt lat="44.86999" lon="1.79544">
        <ele>346.6</ele>
        <time>2022-05-24T09:39:51Z</time>
      </trkpt>
      <trkpt lat="44.86999" lon="1.79538">
        <ele>346.8</ele>
        <time>2022-05-24T09:39:52Z</time>
      </trkpt>
      <trkpt lat="44.87001" lon="1.79533">
        <ele>347.1</ele>
        <time>2022-05-24T09:39:53Z</time>
      </trkpt>
      <trkpt lat="44.87004" lon="1.79527">
        <ele>347.3</ele>
        <time>2022-05-24T09:39:54Z</time>
      </trkpt>
      <trkpt lat="44.87007" lon="1.79521">
        <ele>347.5</ele>
        <time>2022-05-24T09:39:55Z</time>
      </trkpt>
      <trkpt lat="44.8701" lon="1.79516">
        <ele>347.7</ele>
        <time>2022-05-24T09:39:56Z</time>
      </trkpt>
      <trkpt lat="44.87014" lon="1.79511">
        <ele>347.8</ele>
        <time>2022-05-24T09:39:57Z</time>
      </trkpt>
      <trkpt lat="44.87017" lon="1.79506">
        <ele>347.9</ele>
        <time>2022-05-24T09:39:58Z</time>
      </trkpt>
      <trkpt lat="44.8702" lon="1.79501">
        <ele>347.9</ele>
        <time>2022-05-24T09:39:59Z</time>
      </trkpt>
      <trkpt lat="44.87023" lon="1.79496">
        <ele>347.9</ele>
        <time>2022-05-24T09:40:00Z</time>
      </trkpt>
      <trkpt lat="44.87025" lon="1.79491">
        <ele>347.9</ele>
        <time>2022-05-24T09:40:01Z</time>
      </trkpt>
      <trkpt lat="44.87027" lon="1.79485">
        <ele>347.8</ele>
        <time>2022-05-24T09:40:02Z</time>
      </trkpt>
      <trkpt lat="44.8703" lon="1.79478">
        <ele>347.7</ele>
        <time>2022-05-24T09:40:03Z</time>
      </trkpt>
      <trkpt lat="44.87031" lon="1.79471">
        <ele>347.5</ele>
        <time>2022-05-24T09:40:04Z</time>
      </trkpt>
      <trkpt lat="44.87033" lon="1.79464">
        <ele>347.4</ele>
        <time>2022-05-24T09:40:05Z</time>
      </trkpt>
      <trkpt lat="44.87034" lon="1.79457">
        <ele>347.2</ele>
        <time>2022-05-24T09:40:06Z</time>
      </trkpt>
      <trkpt lat="44.87035" lon="1.79449">
        <ele>347</ele>
        <time>2022-05-24T09:40:07Z</time>
      </trkpt>
      <trkpt lat="44.87036" lon="1.79442">
        <ele>346.8</ele>
        <time>2022-05-24T09:40:08Z</time>
      </trkpt>
      <trkpt lat="44.87038" lon="1.79435">
        <ele>346.6</ele>
        <time>2022-05-24T09:40:09Z</time>
      </trkpt>
      <trkpt lat="44.87039" lon="1.79426">
        <ele>346.3</ele>
        <time>2022-05-24T09:40:10Z</time>
      </trkpt>
      <trkpt lat="44.8704" lon="1.79417">
        <ele>346.1</ele>
        <time>2022-05-24T09:40:11Z</time>
      </trkpt>
      <trkpt lat="44.8704" lon="1.79409">
        <ele>345.9</ele>
        <time>2022-05-24T09:40:12Z</time>
      </trkpt>
      <trkpt lat="44.8704" lon="1.794">
        <ele>345.7</ele>
        <time>2022-05-24T09:40:13Z</time>
      </trkpt>
      <trkpt lat="44.87041" lon="1.79393">
        <ele>345.5</ele>
        <time>2022-05-24T09:40:14Z</time>
      </trkpt>
      <trkpt lat="44.87042" lon="1.79386">
        <ele>345.3</ele>
        <time>2022-05-24T09:40:15Z</time>
      </trkpt>
      <trkpt lat="44.87044" lon="1.79378">
        <ele>345</ele>
        <time>2022-05-24T09:40:16Z</time>
      </trkpt>
      <trkpt lat="44.87045" lon="1.79371">
        <ele>344.8</ele>
        <time>2022-05-24T09:40:17Z</time>
      </trkpt>
      <trkpt lat="44.87047" lon="1.79364">
        <ele>344.7</ele>
        <time>2022-05-24T09:40:18Z</time>
      </trkpt>
      <trkpt lat="44.87049" lon="1.79358">
        <ele>344.5</ele>
        <time>2022-05-24T09:40:19Z</time>
      </trkpt>
      <trkpt lat="44.8705" lon="1.79351">
        <ele>344.4</ele>
        <time>2022-05-24T09:40:20Z</time>
      </trkpt>
      <trkpt lat="44.8705" lon="1.79344">
        <ele>344.2</ele>
        <time>2022-05-24T09:40:21Z</time>
      </trkpt>
      <trkpt lat="44.87051" lon="1.79337">
        <ele>344.1</ele>
        <time>2022-05-24T09:40:22Z</time>
      </trkpt>
      <trkpt lat="44.87052" lon="1.79331">
        <ele>344</ele>
        <time>2022-05-24T09:40:23Z</time>
      </trkpt>
      <trkpt lat="44.87053" lon="1.79324">
        <ele>343.9</ele>
        <time>2022-05-24T09:40:24Z</time>
      </trkpt>
      <trkpt lat="44.87055" lon="1.79317">
        <ele>343.9</ele>
        <time>2022-05-24T09:40:25Z</time>
      </trkpt>
      <trkpt lat="44.87055" lon="1.7931">
        <ele>343.9</ele>
        <time>2022-05-24T09:40:26Z</time>
      </trkpt>
      <trkpt lat="44.87057" lon="1.79304">
        <ele>343.8</ele>
        <time>2022-05-24T09:40:27Z</time>
      </trkpt>
      <trkpt lat="44.87057" lon="1.79295">
        <ele>343.8</ele>
        <time>2022-05-24T09:40:28Z</time>
      </trkpt>
      <trkpt lat="44.87058" lon="1.79286">
        <ele>343.8</ele>
        <time>2022-05-24T09:40:29Z</time>
      </trkpt>
      <trkpt lat="44.87058" lon="1.79278">
        <ele>343.7</ele>
        <time>2022-05-24T09:40:30Z</time>
      </trkpt>
      <trkpt lat="44.87057" lon="1.7927">
        <ele>343.7</ele>
        <time>2022-05-24T09:40:31Z</time>
      </trkpt>
      <trkpt lat="44.87055" lon="1.79261">
        <ele>343.6</ele>
        <time>2022-05-24T09:40:32Z</time>
      </trkpt>
      <trkpt lat="44.87054" lon="1.79252">
        <ele>343.4</ele>
        <time>2022-05-24T09:40:33Z</time>
      </trkpt>
      <trkpt lat="44.87054" lon="1.79243">
        <ele>343.3</ele>
        <time>2022-05-24T09:40:34Z</time>
      </trkpt>
      <trkpt lat="44.87054" lon="1.79234">
        <ele>343</ele>
        <time>2022-05-24T09:40:35Z</time>
      </trkpt>
      <trkpt lat="44.87054" lon="1.79227">
        <ele>342.7</ele>
        <time>2022-05-24T09:40:36Z</time>
      </trkpt>
      <trkpt lat="44.87055" lon="1.79221">
        <ele>342.5</ele>
        <time>2022-05-24T09:40:37Z</time>
      </trkpt>
      <trkpt lat="44.87056" lon="1.79215">
        <ele>342.2</ele>
        <time>2022-05-24T09:40:38Z</time>
      </trkpt>
      <trkpt lat="44.87057" lon="1.79208">
        <ele>341.7</ele>
        <time>2022-05-24T09:40:39Z</time>
      </trkpt>
      <trkpt lat="44.87059" lon="1.79201">
        <ele>341.3</ele>
        <time>2022-05-24T09:40:40Z</time>
      </trkpt>
      <trkpt lat="44.87062" lon="1.79194">
        <ele>340.8</ele>
        <time>2022-05-24T09:40:41Z</time>
      </trkpt>
      <trkpt lat="44.87063" lon="1.79186">
        <ele>340.4</ele>
        <time>2022-05-24T09:40:42Z</time>
      </trkpt>
      <trkpt lat="44.87064" lon="1.79177">
        <ele>340.1</ele>
        <time>2022-05-24T09:40:43Z</time>
      </trkpt>
      <trkpt lat="44.87065" lon="1.79168">
        <ele>339.8</ele>
        <time>2022-05-24T09:40:44Z</time>
      </trkpt>
      <trkpt lat="44.87066" lon="1.7916">
        <ele>339.5</ele>
        <time>2022-05-24T09:40:45Z</time>
      </trkpt>
      <trkpt lat="44.87068" lon="1.79152">
        <ele>339.2</ele>
        <time>2022-05-24T09:40:46Z</time>
      </trkpt>
      <trkpt lat="44.87069" lon="1.79145">
        <ele>338.9</ele>
        <time>2022-05-24T09:40:47Z</time>
      </trkpt>
      <trkpt lat="44.87069" lon="1.79137">
        <ele>338.6</ele>
        <time>2022-05-24T09:40:48Z</time>
      </trkpt>
      <trkpt lat="44.8707" lon="1.79128">
        <ele>338.3</ele>
        <time>2022-05-24T09:40:49Z</time>
      </trkpt>
      <trkpt lat="44.87069" lon="1.79119">
        <ele>337.8</ele>
        <time>2022-05-24T09:40:50Z</time>
      </trkpt>
      <trkpt lat="44.87068" lon="1.79109">
        <ele>337.3</ele>
        <time>2022-05-24T09:40:51Z</time>
      </trkpt>
      <trkpt lat="44.87067" lon="1.79099">
        <ele>336.7</ele>
        <time>2022-05-24T09:40:52Z</time>
      </trkpt>
      <trkpt lat="44.87066" lon="1.7909">
        <ele>336.1</ele>
        <time>2022-05-24T09:40:53Z</time>
      </trkpt>
      <trkpt lat="44.87067" lon="1.7908">
        <ele>335.4</ele>
        <time>2022-05-24T09:40:54Z</time>
      </trkpt>
      <trkpt lat="44.87068" lon="1.79069">
        <ele>334.7</ele>
        <time>2022-05-24T09:40:55Z</time>
      </trkpt>
      <trkpt lat="44.8707" lon="1.79061">
        <ele>334.2</ele>
        <time>2022-05-24T09:40:56Z</time>
      </trkpt>
      <trkpt lat="44.87072" lon="1.79053">
        <ele>333.7</ele>
        <time>2022-05-24T09:40:57Z</time>
      </trkpt>
      <trkpt lat="44.87074" lon="1.79044">
        <ele>333.2</ele>
        <time>2022-05-24T09:40:58Z</time>
      </trkpt>
      <trkpt lat="44.87075" lon="1.79036">
        <ele>332.7</ele>
        <time>2022-05-24T09:40:59Z</time>
      </trkpt>
      <trkpt lat="44.87075" lon="1.79026">
        <ele>332</ele>
        <time>2022-05-24T09:41:00Z</time>
      </trkpt>
      <trkpt lat="44.87075" lon="1.79015">
        <ele>331.3</ele>
        <time>2022-05-24T09:41:01Z</time>
      </trkpt>
      <trkpt lat="44.87075" lon="1.79005">
        <ele>330.4</ele>
        <time>2022-05-24T09:41:02Z</time>
      </trkpt>
      <trkpt lat="44.87075" lon="1.78994">
        <ele>329.6</ele>
        <time>2022-05-24T09:41:03Z</time>
      </trkpt>
      <trkpt lat="44.87075" lon="1.78986">
        <ele>329</ele>
        <time>2022-05-24T09:41:04Z</time>
      </trkpt>
      <trkpt lat="44.87076" lon="1.78978">
        <ele>328.4</ele>
        <time>2022-05-24T09:41:05Z</time>
      </trkpt>
      <trkpt lat="44.87076" lon="1.7897">
        <ele>327.8</ele>
        <time>2022-05-24T09:41:06Z</time>
      </trkpt>
      <trkpt lat="44.87077" lon="1.78961">
        <ele>327.1</ele>
        <time>2022-05-24T09:41:07Z</time>
      </trkpt>
      <trkpt lat="44.87078" lon="1.78951">
        <ele>326.4</ele>
        <time>2022-05-24T09:41:08Z</time>
      </trkpt>
      <trkpt lat="44.87079" lon="1.78942">
        <ele>325.9</ele>
        <time>2022-05-24T09:41:09Z</time>
      </trkpt>
      <trkpt lat="44.8708" lon="1.78935">
        <ele>325.4</ele>
        <time>2022-05-24T09:41:10Z</time>
      </trkpt>
      <trkpt lat="44.87081" lon="1.78927">
        <ele>324.9</ele>
        <time>2022-05-24T09:41:11Z</time>
      </trkpt>
      <trkpt lat="44.87083" lon="1.78918">
        <ele>324.3</ele>
        <time>2022-05-24T09:41:12Z</time>
      </trkpt>
      <trkpt lat="44.87086" lon="1.78909">
        <ele>323.7</ele>
        <time>2022-05-24T09:41:13Z</time>
      </trkpt>
      <trkpt lat="44.87088" lon="1.789">
        <ele>323.2</ele>
        <time>2022-05-24T09:41:14Z</time>
      </trkpt>
      <trkpt lat="44.87091" lon="1.78892">
        <ele>322.7</ele>
        <time>2022-05-24T09:41:15Z</time>
      </trkpt>
      <trkpt lat="44.87093" lon="1.78884">
        <ele>322.2</ele>
        <time>2022-05-24T09:41:16Z</time>
      </trkpt>
      <trkpt lat="44.87097" lon="1.78878">
        <ele>321.8</ele>
        <time>2022-05-24T09:41:17Z</time>
      </trkpt>
      <trkpt lat="44.87101" lon="1.78871">
        <ele>321.5</ele>
        <time>2022-05-24T09:41:18Z</time>
      </trkpt>
      <trkpt lat="44.87104" lon="1.78864">
        <ele>321.1</ele>
        <time>2022-05-24T09:41:19Z</time>
      </trkpt>
      <trkpt lat="44.87108" lon="1.78858">
        <ele>320.9</ele>
        <time>2022-05-24T09:41:20Z</time>
      </trkpt>
      <trkpt lat="44.87112" lon="1.78852">
        <ele>320.6</ele>
        <time>2022-05-24T09:41:21Z</time>
      </trkpt>
      <trkpt lat="44.87115" lon="1.78846">
        <ele>320.5</ele>
        <time>2022-05-24T09:41:22Z</time>
      </trkpt>
      <trkpt lat="44.87119" lon="1.78839">
        <ele>320.3</ele>
        <time>2022-05-24T09:41:23Z</time>
      </trkpt>
      <trkpt lat="44.87127" lon="1.78818">
        <ele>319.8</ele>
        <time>2022-05-24T09:41:28Z</time>
      </trkpt>
      <trkpt lat="44.87132" lon="1.78806">
        <ele>319.8</ele>
        <time>2022-05-24T09:41:29Z</time>
      </trkpt>
      <trkpt lat="44.87133" lon="1.78799">
        <ele>320</ele>
        <time>2022-05-24T09:41:30Z</time>
      </trkpt>
      <trkpt lat="44.87134" lon="1.78795">
        <ele>320.1</ele>
        <time>2022-05-24T09:41:31Z</time>
      </trkpt>
      <trkpt lat="44.87135" lon="1.78791">
        <ele>320.3</ele>
        <time>2022-05-24T09:41:32Z</time>
      </trkpt>
      <trkpt lat="44.87136" lon="1.78789">
        <ele>320.3</ele>
        <time>2022-05-24T09:41:33Z</time>
      </trkpt>
      <trkpt lat="44.87136" lon="1.78787">
        <ele>320.4</ele>
        <time>2022-05-24T09:41:34Z</time>
      </trkpt>
      <trkpt lat="44.87137" lon="1.78786">
        <ele>320.4</ele>
        <time>2022-05-24T09:41:35Z</time>
      </trkpt>
      <trkpt lat="44.87137" lon="1.78783">
        <ele>320.5</ele>
        <time>2022-05-24T09:41:36Z</time>
      </trkpt>
      <trkpt lat="44.87137" lon="1.78783">
        <ele>320.5</ele>
        <time>2022-05-24T09:41:37Z</time>
      </trkpt>
      <trkpt lat="44.87138" lon="1.78783">
        <ele>320.6</ele>
        <time>2022-05-24T09:41:38Z</time>
      </trkpt>
      <trkpt lat="44.87138" lon="1.78782">
        <ele>320.6</ele>
        <time>2022-05-24T09:41:39Z</time>
      </trkpt>
      <trkpt lat="44.87138" lon="1.78782">
        <ele>320.6</ele>
        <time>2022-05-24T09:41:40Z</time>
      </trkpt>
      <trkpt lat="44.87138" lon="1.78782">
        <ele>320.6</ele>
        <time>2022-05-24T09:41:41Z</time>
      </trkpt>
      <trkpt lat="44.87138" lon="1.78781">
        <ele>320.6</ele>
        <time>2022-05-24T09:41:42Z</time>
      </trkpt>
      <trkpt lat="44.87138" lon="1.78781">
        <ele>320.6</ele>
        <time>2022-05-24T09:41:43Z</time>
      </trkpt>
      <trkpt lat="44.87138" lon="1.78781">
        <ele>320.7</ele>
        <time>2022-05-24T09:41:44Z</time>
      </trkpt>
      <trkpt lat="44.87139" lon="1.7878">
        <ele>320.7</ele>
        <time>2022-05-24T09:41:45Z</time>
      </trkpt>
      <trkpt lat="44.87139" lon="1.7878">
        <ele>320.7</ele>
        <time>2022-05-24T09:41:46Z</time>
      </trkpt>
      <trkpt lat="44.87139" lon="1.7878">
        <ele>320.7</ele>
        <time>2022-05-24T09:41:47Z</time>
      </trkpt>
      <trkpt lat="44.87139" lon="1.78779">
        <ele>320.7</ele>
        <time>2022-05-24T09:41:48Z</time>
      </trkpt>
      <trkpt lat="44.87139" lon="1.78779">
        <ele>320.7</ele>
        <time>2022-05-24T09:41:49Z</time>
      </trkpt>
      <trkpt lat="44.87141" lon="1.78774">
        <ele>320.9</ele>
        <time>2022-05-24T09:41:50Z</time>
      </trkpt>
      <trkpt lat="44.87141" lon="1.78772">
        <ele>321</ele>
        <time>2022-05-24T09:41:51Z</time>
      </trkpt>
      <trkpt lat="44.87143" lon="1.78769">
        <ele>321.1</ele>
        <time>2022-05-24T09:41:52Z</time>
      </trkpt>
      <trkpt lat="44.87144" lon="1.78765">
        <ele>321.3</ele>
        <time>2022-05-24T09:41:53Z</time>
      </trkpt>
      <trkpt lat="44.87146" lon="1.78762">
        <ele>321.5</ele>
        <time>2022-05-24T09:41:54Z</time>
      </trkpt>
      <trkpt lat="44.87149" lon="1.78757">
        <ele>321.7</ele>
        <time>2022-05-24T09:41:55Z</time>
      </trkpt>
      <trkpt lat="44.87152" lon="1.78752">
        <ele>321.9</ele>
        <time>2022-05-24T09:41:56Z</time>
      </trkpt>
      <trkpt lat="44.87155" lon="1.78748">
        <ele>322.2</ele>
        <time>2022-05-24T09:41:57Z</time>
      </trkpt>
      <trkpt lat="44.87158" lon="1.78743">
        <ele>322.5</ele>
        <time>2022-05-24T09:41:58Z</time>
      </trkpt>
      <trkpt lat="44.87162" lon="1.78738">
        <ele>322.9</ele>
        <time>2022-05-24T09:41:59Z</time>
      </trkpt>
      <trkpt lat="44.87165" lon="1.78733">
        <ele>323.1</ele>
        <time>2022-05-24T09:42:00Z</time>
      </trkpt>
      <trkpt lat="44.87167" lon="1.78729">
        <ele>323.5</ele>
        <time>2022-05-24T09:42:01Z</time>
      </trkpt>
      <trkpt lat="44.87171" lon="1.78724">
        <ele>323.9</ele>
        <time>2022-05-24T09:42:02Z</time>
      </trkpt>
      <trkpt lat="44.87174" lon="1.7872">
        <ele>324.2</ele>
        <time>2022-05-24T09:42:03Z</time>
      </trkpt>
      <trkpt lat="44.87176" lon="1.78716">
        <ele>324.5</ele>
        <time>2022-05-24T09:42:04Z</time>
      </trkpt>
      <trkpt lat="44.87179" lon="1.78711">
        <ele>324.9</ele>
        <time>2022-05-24T09:42:05Z</time>
      </trkpt>
      <trkpt lat="44.87181" lon="1.78706">
        <ele>325.2</ele>
        <time>2022-05-24T09:42:06Z</time>
      </trkpt>
      <trkpt lat="44.87184" lon="1.78701">
        <ele>325.5</ele>
        <time>2022-05-24T09:42:07Z</time>
      </trkpt>
      <trkpt lat="44.87187" lon="1.78697">
        <ele>325.8</ele>
        <time>2022-05-24T09:42:08Z</time>
      </trkpt>
      <trkpt lat="44.87189" lon="1.78693">
        <ele>326</ele>
        <time>2022-05-24T09:42:09Z</time>
      </trkpt>
      <trkpt lat="44.87191" lon="1.7869">
        <ele>326.3</ele>
        <time>2022-05-24T09:42:10Z</time>
      </trkpt>
      <trkpt lat="44.87194" lon="1.78688">
        <ele>326.5</ele>
        <time>2022-05-24T09:42:11Z</time>
      </trkpt>
      <trkpt lat="44.87198" lon="1.78688">
        <ele>326.7</ele>
        <time>2022-05-24T09:42:12Z</time>
      </trkpt>
      <trkpt lat="44.87202" lon="1.78689">
        <ele>327</ele>
        <time>2022-05-24T09:42:13Z</time>
      </trkpt>
      <trkpt lat="44.87205" lon="1.78689">
        <ele>327.2</ele>
        <time>2022-05-24T09:42:14Z</time>
      </trkpt>
      <trkpt lat="44.87208" lon="1.78687">
        <ele>327.5</ele>
        <time>2022-05-24T09:42:15Z</time>
      </trkpt>
      <trkpt lat="44.87211" lon="1.78684">
        <ele>327.7</ele>
        <time>2022-05-24T09:42:16Z</time>
      </trkpt>
      <trkpt lat="44.87214" lon="1.7868">
        <ele>328</ele>
        <time>2022-05-24T09:42:17Z</time>
      </trkpt>
      <trkpt lat="44.87217" lon="1.78677">
        <ele>328.3</ele>
        <time>2022-05-24T09:42:18Z</time>
      </trkpt>
      <trkpt lat="44.8722" lon="1.78673">
        <ele>328.6</ele>
        <time>2022-05-24T09:42:19Z</time>
      </trkpt>
      <trkpt lat="44.87223" lon="1.7867">
        <ele>329</ele>
        <time>2022-05-24T09:42:20Z</time>
      </trkpt>
      <trkpt lat="44.87227" lon="1.78665">
        <ele>329.4</ele>
        <time>2022-05-24T09:42:21Z</time>
      </trkpt>
      <trkpt lat="44.8723" lon="1.7866">
        <ele>329.7</ele>
        <time>2022-05-24T09:42:22Z</time>
      </trkpt>
      <trkpt lat="44.87233" lon="1.78657">
        <ele>330</ele>
        <time>2022-05-24T09:42:23Z</time>
      </trkpt>
      <trkpt lat="44.87236" lon="1.78654">
        <ele>330.3</ele>
        <time>2022-05-24T09:42:24Z</time>
      </trkpt>
      <trkpt lat="44.87238" lon="1.78651">
        <ele>330.5</ele>
        <time>2022-05-24T09:42:25Z</time>
      </trkpt>
      <trkpt lat="44.8724" lon="1.78648">
        <ele>330.7</ele>
        <time>2022-05-24T09:42:26Z</time>
      </trkpt>
      <trkpt lat="44.87243" lon="1.78646">
        <ele>331</ele>
        <time>2022-05-24T09:42:27Z</time>
      </trkpt>
      <trkpt lat="44.87245" lon="1.78642">
        <ele>331.3</ele>
        <time>2022-05-24T09:42:28Z</time>
      </trkpt>
      <trkpt lat="44.87248" lon="1.78639">
        <ele>331.6</ele>
        <time>2022-05-24T09:42:29Z</time>
      </trkpt>
      <trkpt lat="44.87251" lon="1.78636">
        <ele>331.8</ele>
        <time>2022-05-24T09:42:30Z</time>
      </trkpt>
      <trkpt lat="44.87253" lon="1.78632">
        <ele>332.1</ele>
        <time>2022-05-24T09:42:31Z</time>
      </trkpt>
      <trkpt lat="44.87254" lon="1.78629">
        <ele>332.3</ele>
        <time>2022-05-24T09:42:32Z</time>
      </trkpt>
      <trkpt lat="44.87257" lon="1.78625">
        <ele>332.6</ele>
        <time>2022-05-24T09:42:33Z</time>
      </trkpt>
      <trkpt lat="44.87259" lon="1.78621">
        <ele>332.9</ele>
        <time>2022-05-24T09:42:34Z</time>
      </trkpt>
      <trkpt lat="44.87262" lon="1.78617">
        <ele>333.2</ele>
        <time>2022-05-24T09:42:35Z</time>
      </trkpt>
      <trkpt lat="44.87264" lon="1.78614">
        <ele>333.5</ele>
        <time>2022-05-24T09:42:36Z</time>
      </trkpt>
      <trkpt lat="44.87266" lon="1.7861">
        <ele>333.8</ele>
        <time>2022-05-24T09:42:37Z</time>
      </trkpt>
      <trkpt lat="44.87268" lon="1.78606">
        <ele>334.1</ele>
        <time>2022-05-24T09:42:38Z</time>
      </trkpt>
      <trkpt lat="44.8727" lon="1.78602">
        <ele>334.4</ele>
        <time>2022-05-24T09:42:39Z</time>
      </trkpt>
      <trkpt lat="44.87273" lon="1.78598">
        <ele>334.6</ele>
        <time>2022-05-24T09:42:40Z</time>
      </trkpt>
      <trkpt lat="44.87275" lon="1.78593">
        <ele>334.9</ele>
        <time>2022-05-24T09:42:41Z</time>
      </trkpt>
      <trkpt lat="44.87276" lon="1.78591">
        <ele>335</ele>
        <time>2022-05-24T09:42:42Z</time>
      </trkpt>
      <trkpt lat="44.87277" lon="1.78586">
        <ele>335.2</ele>
        <time>2022-05-24T09:42:43Z</time>
      </trkpt>
      <trkpt lat="44.87278" lon="1.78581">
        <ele>335.4</ele>
        <time>2022-05-24T09:42:44Z</time>
      </trkpt>
      <trkpt lat="44.87279" lon="1.78576">
        <ele>335.6</ele>
        <time>2022-05-24T09:42:45Z</time>
      </trkpt>
      <trkpt lat="44.87281" lon="1.78572">
        <ele>335.7</ele>
        <time>2022-05-24T09:42:46Z</time>
      </trkpt>
      <trkpt lat="44.87283" lon="1.78567">
        <ele>335.9</ele>
        <time>2022-05-24T09:42:47Z</time>
      </trkpt>
      <trkpt lat="44.87285" lon="1.78562">
        <ele>336</ele>
        <time>2022-05-24T09:42:48Z</time>
      </trkpt>
      <trkpt lat="44.87288" lon="1.78557">
        <ele>336.2</ele>
        <time>2022-05-24T09:42:49Z</time>
      </trkpt>
      <trkpt lat="44.87291" lon="1.78553">
        <ele>336.3</ele>
        <time>2022-05-24T09:42:50Z</time>
      </trkpt>
      <trkpt lat="44.87293" lon="1.78549">
        <ele>336.3</ele>
        <time>2022-05-24T09:42:51Z</time>
      </trkpt>
      <trkpt lat="44.87294" lon="1.78546">
        <ele>336.3</ele>
        <time>2022-05-24T09:42:52Z</time>
      </trkpt>
      <trkpt lat="44.87296" lon="1.78541">
        <ele>336.3</ele>
        <time>2022-05-24T09:42:53Z</time>
      </trkpt>
      <trkpt lat="44.87296" lon="1.78535">
        <ele>336.3</ele>
        <time>2022-05-24T09:42:54Z</time>
      </trkpt>
      <trkpt lat="44.87295" lon="1.78527">
        <ele>336.2</ele>
        <time>2022-05-24T09:42:55Z</time>
      </trkpt>
      <trkpt lat="44.87293" lon="1.7852">
        <ele>336.1</ele>
        <time>2022-05-24T09:42:56Z</time>
      </trkpt>
      <trkpt lat="44.87291" lon="1.78513">
        <ele>336</ele>
        <time>2022-05-24T09:42:57Z</time>
      </trkpt>
      <trkpt lat="44.87291" lon="1.78505">
        <ele>335.9</ele>
        <time>2022-05-24T09:42:58Z</time>
      </trkpt>
      <trkpt lat="44.87292" lon="1.78499">
        <ele>335.8</ele>
        <time>2022-05-24T09:42:59Z</time>
      </trkpt>
      <trkpt lat="44.87294" lon="1.78493">
        <ele>335.7</ele>
        <time>2022-05-24T09:43:00Z</time>
      </trkpt>
      <trkpt lat="44.87295" lon="1.78486">
        <ele>335.7</ele>
        <time>2022-05-24T09:43:01Z</time>
      </trkpt>
      <trkpt lat="44.87294" lon="1.7848">
        <ele>335.7</ele>
        <time>2022-05-24T09:43:02Z</time>
      </trkpt>
      <trkpt lat="44.87294" lon="1.78473">
        <ele>335.7</ele>
        <time>2022-05-24T09:43:03Z</time>
      </trkpt>
      <trkpt lat="44.87294" lon="1.78465">
        <ele>335.7</ele>
        <time>2022-05-24T09:43:04Z</time>
      </trkpt>
      <trkpt lat="44.87296" lon="1.78456">
        <ele>335.7</ele>
        <time>2022-05-24T09:43:05Z</time>
      </trkpt>
      <trkpt lat="44.87298" lon="1.78447">
        <ele>335.7</ele>
        <time>2022-05-24T09:43:06Z</time>
      </trkpt>
      <trkpt lat="44.87298" lon="1.78439">
        <ele>335.7</ele>
        <time>2022-05-24T09:43:07Z</time>
      </trkpt>
      <trkpt lat="44.87298" lon="1.78431">
        <ele>335.6</ele>
        <time>2022-05-24T09:43:08Z</time>
      </trkpt>
      <trkpt lat="44.87298" lon="1.78421">
        <ele>335.6</ele>
        <time>2022-05-24T09:43:09Z</time>
      </trkpt>
      <trkpt lat="44.87298" lon="1.78414">
        <ele>335.6</ele>
        <time>2022-05-24T09:43:10Z</time>
      </trkpt>
      <trkpt lat="44.87299" lon="1.78405">
        <ele>335.6</ele>
        <time>2022-05-24T09:43:11Z</time>
      </trkpt>
      <trkpt lat="44.87299" lon="1.78395">
        <ele>335.6</ele>
        <time>2022-05-24T09:43:12Z</time>
      </trkpt>
      <trkpt lat="44.87298" lon="1.78384">
        <ele>335.7</ele>
        <time>2022-05-24T09:43:13Z</time>
      </trkpt>
      <trkpt lat="44.873" lon="1.78375">
        <ele>335.7</ele>
        <time>2022-05-24T09:43:14Z</time>
      </trkpt>
      <trkpt lat="44.87302" lon="1.78366">
        <ele>335.7</ele>
        <time>2022-05-24T09:43:15Z</time>
      </trkpt>
      <trkpt lat="44.87304" lon="1.78358">
        <ele>335.8</ele>
        <time>2022-05-24T09:43:16Z</time>
      </trkpt>
      <trkpt lat="44.87306" lon="1.7835">
        <ele>335.8</ele>
        <time>2022-05-24T09:43:17Z</time>
      </trkpt>
      <trkpt lat="44.87306" lon="1.78342">
        <ele>335.9</ele>
        <time>2022-05-24T09:43:18Z</time>
      </trkpt>
      <trkpt lat="44.87307" lon="1.78335">
        <ele>336</ele>
        <time>2022-05-24T09:43:19Z</time>
      </trkpt>
      <trkpt lat="44.87308" lon="1.78327">
        <ele>336</ele>
        <time>2022-05-24T09:43:20Z</time>
      </trkpt>
      <trkpt lat="44.87307" lon="1.7832">
        <ele>336.1</ele>
        <time>2022-05-24T09:43:21Z</time>
      </trkpt>
      <trkpt lat="44.87306" lon="1.78311">
        <ele>336.1</ele>
        <time>2022-05-24T09:43:22Z</time>
      </trkpt>
      <trkpt lat="44.87304" lon="1.78302">
        <ele>336.2</ele>
        <time>2022-05-24T09:43:23Z</time>
      </trkpt>
      <trkpt lat="44.87305" lon="1.78292">
        <ele>336.4</ele>
        <time>2022-05-24T09:43:24Z</time>
      </trkpt>
      <trkpt lat="44.87305" lon="1.78283">
        <ele>336.5</ele>
        <time>2022-05-24T09:43:25Z</time>
      </trkpt>
      <trkpt lat="44.87306" lon="1.78273">
        <ele>336.6</ele>
        <time>2022-05-24T09:43:26Z</time>
      </trkpt>
      <trkpt lat="44.87306" lon="1.78264">
        <ele>336.7</ele>
        <time>2022-05-24T09:43:27Z</time>
      </trkpt>
      <trkpt lat="44.87306" lon="1.78257">
        <ele>336.8</ele>
        <time>2022-05-24T09:43:28Z</time>
      </trkpt>
      <trkpt lat="44.87306" lon="1.78251">
        <ele>336.9</ele>
        <time>2022-05-24T09:43:29Z</time>
      </trkpt>
      <trkpt lat="44.87306" lon="1.78242">
        <ele>337</ele>
        <time>2022-05-24T09:43:30Z</time>
      </trkpt>
      <trkpt lat="44.87306" lon="1.78234">
        <ele>337.1</ele>
        <time>2022-05-24T09:43:31Z</time>
      </trkpt>
      <trkpt lat="44.87306" lon="1.78226">
        <ele>337.2</ele>
        <time>2022-05-24T09:43:32Z</time>
      </trkpt>
      <trkpt lat="44.87307" lon="1.78219">
        <ele>337.2</ele>
        <time>2022-05-24T09:43:33Z</time>
      </trkpt>
      <trkpt lat="44.87308" lon="1.78212">
        <ele>337.3</ele>
        <time>2022-05-24T09:43:34Z</time>
      </trkpt>
      <trkpt lat="44.87308" lon="1.78205">
        <ele>337.3</ele>
        <time>2022-05-24T09:43:35Z</time>
      </trkpt>
      <trkpt lat="44.87309" lon="1.78197">
        <ele>337.4</ele>
        <time>2022-05-24T09:43:36Z</time>
      </trkpt>
      <trkpt lat="44.8731" lon="1.78189">
        <ele>337.4</ele>
        <time>2022-05-24T09:43:37Z</time>
      </trkpt>
      <trkpt lat="44.87311" lon="1.78181">
        <ele>337.4</ele>
        <time>2022-05-24T09:43:38Z</time>
      </trkpt>
      <trkpt lat="44.87312" lon="1.78174">
        <ele>337.3</ele>
        <time>2022-05-24T09:43:39Z</time>
      </trkpt>
      <trkpt lat="44.87313" lon="1.78166">
        <ele>337.3</ele>
        <time>2022-05-24T09:43:40Z</time>
      </trkpt>
      <trkpt lat="44.87314" lon="1.78159">
        <ele>337.2</ele>
        <time>2022-05-24T09:43:41Z</time>
      </trkpt>
      <trkpt lat="44.87316" lon="1.78151">
        <ele>337</ele>
        <time>2022-05-24T09:43:42Z</time>
      </trkpt>
      <trkpt lat="44.87317" lon="1.78143">
        <ele>336.8</ele>
        <time>2022-05-24T09:43:43Z</time>
      </trkpt>
      <trkpt lat="44.87317" lon="1.78136">
        <ele>336.5</ele>
        <time>2022-05-24T09:43:44Z</time>
      </trkpt>
      <trkpt lat="44.87317" lon="1.78127">
        <ele>336.2</ele>
        <time>2022-05-24T09:43:45Z</time>
      </trkpt>
      <trkpt lat="44.87317" lon="1.78118">
        <ele>335.8</ele>
        <time>2022-05-24T09:43:46Z</time>
      </trkpt>
      <trkpt lat="44.87317" lon="1.78109">
        <ele>335.4</ele>
        <time>2022-05-24T09:43:47Z</time>
      </trkpt>
      <trkpt lat="44.87317" lon="1.78099">
        <ele>335</ele>
        <time>2022-05-24T09:43:48Z</time>
      </trkpt>
      <trkpt lat="44.87318" lon="1.78089">
        <ele>334.4</ele>
        <time>2022-05-24T09:43:49Z</time>
      </trkpt>
      <trkpt lat="44.87319" lon="1.78079">
        <ele>333.8</ele>
        <time>2022-05-24T09:43:50Z</time>
      </trkpt>
      <trkpt lat="44.87321" lon="1.78069">
        <ele>333</ele>
        <time>2022-05-24T09:43:51Z</time>
      </trkpt>
      <trkpt lat="44.87324" lon="1.78059">
        <ele>332.2</ele>
        <time>2022-05-24T09:43:52Z</time>
      </trkpt>
      <trkpt lat="44.87327" lon="1.78048">
        <ele>331.3</ele>
        <time>2022-05-24T09:43:53Z</time>
      </trkpt>
      <trkpt lat="44.87329" lon="1.78036">
        <ele>330.4</ele>
        <time>2022-05-24T09:43:54Z</time>
      </trkpt>
      <trkpt lat="44.87331" lon="1.78024">
        <ele>329.5</ele>
        <time>2022-05-24T09:43:55Z</time>
      </trkpt>
      <trkpt lat="44.87333" lon="1.78012">
        <ele>328.8</ele>
        <time>2022-05-24T09:43:56Z</time>
      </trkpt>
      <trkpt lat="44.87335" lon="1.78003">
        <ele>328.2</ele>
        <time>2022-05-24T09:43:57Z</time>
      </trkpt>
      <trkpt lat="44.87341" lon="1.77994">
        <ele>327.6</ele>
        <time>2022-05-24T09:43:58Z</time>
      </trkpt>
      <trkpt lat="44.87347" lon="1.77986">
        <ele>327.2</ele>
        <time>2022-05-24T09:43:59Z</time>
      </trkpt>
      <trkpt lat="44.87355" lon="1.77978">
        <ele>327.1</ele>
        <time>2022-05-24T09:44:00Z</time>
      </trkpt>
      <trkpt lat="44.8736" lon="1.77969">
        <ele>327.2</ele>
        <time>2022-05-24T09:44:01Z</time>
      </trkpt>
      <trkpt lat="44.87364" lon="1.77959">
        <ele>327.3</ele>
        <time>2022-05-24T09:44:02Z</time>
      </trkpt>
      <trkpt lat="44.87367" lon="1.77949">
        <ele>327.6</ele>
        <time>2022-05-24T09:44:03Z</time>
      </trkpt>
      <trkpt lat="44.87368" lon="1.77941">
        <ele>327.8</ele>
        <time>2022-05-24T09:44:04Z</time>
      </trkpt>
      <trkpt lat="44.8737" lon="1.77933">
        <ele>328</ele>
        <time>2022-05-24T09:44:05Z</time>
      </trkpt>
      <trkpt lat="44.87371" lon="1.77924">
        <ele>328.3</ele>
        <time>2022-05-24T09:44:06Z</time>
      </trkpt>
      <trkpt lat="44.87371" lon="1.77915">
        <ele>328.6</ele>
        <time>2022-05-24T09:44:07Z</time>
      </trkpt>
      <trkpt lat="44.87371" lon="1.77908">
        <ele>328.8</ele>
        <time>2022-05-24T09:44:08Z</time>
      </trkpt>
      <trkpt lat="44.87372" lon="1.77899">
        <ele>329.1</ele>
        <time>2022-05-24T09:44:09Z</time>
      </trkpt>
      <trkpt lat="44.87373" lon="1.77891">
        <ele>329.3</ele>
        <time>2022-05-24T09:44:10Z</time>
      </trkpt>
      <trkpt lat="44.87374" lon="1.77882">
        <ele>329.5</ele>
        <time>2022-05-24T09:44:11Z</time>
      </trkpt>
      <trkpt lat="44.87376" lon="1.77874">
        <ele>329.8</ele>
        <time>2022-05-24T09:44:12Z</time>
      </trkpt>
      <trkpt lat="44.87377" lon="1.77866">
        <ele>330</ele>
        <time>2022-05-24T09:44:13Z</time>
      </trkpt>
      <trkpt lat="44.87377" lon="1.77858">
        <ele>330.3</ele>
        <time>2022-05-24T09:44:14Z</time>
      </trkpt>
      <trkpt lat="44.87378" lon="1.77852">
        <ele>330.5</ele>
        <time>2022-05-24T09:44:15Z</time>
      </trkpt>
      <trkpt lat="44.87378" lon="1.77845">
        <ele>330.8</ele>
        <time>2022-05-24T09:44:16Z</time>
      </trkpt>
      <trkpt lat="44.87378" lon="1.77838">
        <ele>331</ele>
        <time>2022-05-24T09:44:17Z</time>
      </trkpt>
      <trkpt lat="44.87377" lon="1.7783">
        <ele>331.3</ele>
        <time>2022-05-24T09:44:18Z</time>
      </trkpt>
      <trkpt lat="44.87377" lon="1.77823">
        <ele>331.7</ele>
        <time>2022-05-24T09:44:19Z</time>
      </trkpt>
      <trkpt lat="44.87378" lon="1.77816">
        <ele>332</ele>
        <time>2022-05-24T09:44:20Z</time>
      </trkpt>
      <trkpt lat="44.8738" lon="1.7781">
        <ele>332.3</ele>
        <time>2022-05-24T09:44:21Z</time>
      </trkpt>
      <trkpt lat="44.87384" lon="1.77805">
        <ele>332.5</ele>
        <time>2022-05-24T09:44:22Z</time>
      </trkpt>
      <trkpt lat="44.87388" lon="1.77803">
        <ele>332.3</ele>
        <time>2022-05-24T09:44:23Z</time>
      </trkpt>
      <trkpt lat="44.87391" lon="1.77805">
        <ele>332.1</ele>
        <time>2022-05-24T09:44:24Z</time>
      </trkpt>
      <trkpt lat="44.87394" lon="1.77808">
        <ele>331.9</ele>
        <time>2022-05-24T09:44:25Z</time>
      </trkpt>
      <trkpt lat="44.87398" lon="1.77813">
        <ele>331.6</ele>
        <time>2022-05-24T09:44:26Z</time>
      </trkpt>
      <trkpt lat="44.87401" lon="1.7782">
        <ele>331.4</ele>
        <time>2022-05-24T09:44:27Z</time>
      </trkpt>
      <trkpt lat="44.87404" lon="1.77826">
        <ele>331.1</ele>
        <time>2022-05-24T09:44:28Z</time>
      </trkpt>
      <trkpt lat="44.87408" lon="1.77831">
        <ele>330.9</ele>
        <time>2022-05-24T09:44:29Z</time>
      </trkpt>
      <trkpt lat="44.87413" lon="1.77836">
        <ele>330.7</ele>
        <time>2022-05-24T09:44:30Z</time>
      </trkpt>
      <trkpt lat="44.87417" lon="1.77842">
        <ele>330.5</ele>
        <time>2022-05-24T09:44:31Z</time>
      </trkpt>
      <trkpt lat="44.87421" lon="1.77847">
        <ele>330.3</ele>
        <time>2022-05-24T09:44:32Z</time>
      </trkpt>
      <trkpt lat="44.87426" lon="1.77853">
        <ele>330.2</ele>
        <time>2022-05-24T09:44:33Z</time>
      </trkpt>
      <trkpt lat="44.8743" lon="1.77859">
        <ele>330</ele>
        <time>2022-05-24T09:44:34Z</time>
      </trkpt>
      <trkpt lat="44.87435" lon="1.77864">
        <ele>329.9</ele>
        <time>2022-05-24T09:44:35Z</time>
      </trkpt>
      <trkpt lat="44.8744" lon="1.7787">
        <ele>329.8</ele>
        <time>2022-05-24T09:44:36Z</time>
      </trkpt>
      <trkpt lat="44.87445" lon="1.77877">
        <ele>329.7</ele>
        <time>2022-05-24T09:44:37Z</time>
      </trkpt>
      <trkpt lat="44.87448" lon="1.77883">
        <ele>329.7</ele>
        <time>2022-05-24T09:44:38Z</time>
      </trkpt>
      <trkpt lat="44.87451" lon="1.77889">
        <ele>329.8</ele>
        <time>2022-05-24T09:44:39Z</time>
      </trkpt>
      <trkpt lat="44.87454" lon="1.77897">
        <ele>329.9</ele>
        <time>2022-05-24T09:44:40Z</time>
      </trkpt>
      <trkpt lat="44.87457" lon="1.77906">
        <ele>330</ele>
        <time>2022-05-24T09:44:41Z</time>
      </trkpt>
      <trkpt lat="44.8746" lon="1.77916">
        <ele>330.3</ele>
        <time>2022-05-24T09:44:42Z</time>
      </trkpt>
      <trkpt lat="44.87462" lon="1.77924">
        <ele>330.5</ele>
        <time>2022-05-24T09:44:43Z</time>
      </trkpt>
      <trkpt lat="44.87463" lon="1.77932">
        <ele>330.7</ele>
        <time>2022-05-24T09:44:44Z</time>
      </trkpt>
      <trkpt lat="44.87464" lon="1.77939">
        <ele>330.9</ele>
        <time>2022-05-24T09:44:45Z</time>
      </trkpt>
      <trkpt lat="44.87465" lon="1.77945">
        <ele>331</ele>
        <time>2022-05-24T09:44:46Z</time>
      </trkpt>
      <trkpt lat="44.87466" lon="1.77951">
        <ele>331.2</ele>
        <time>2022-05-24T09:44:47Z</time>
      </trkpt>
      <trkpt lat="44.87467" lon="1.77956">
        <ele>331.3</ele>
        <time>2022-05-24T09:44:48Z</time>
      </trkpt>
      <trkpt lat="44.87468" lon="1.77962">
        <ele>331.5</ele>
        <time>2022-05-24T09:44:49Z</time>
      </trkpt>
      <trkpt lat="44.87469" lon="1.77968">
        <ele>331.7</ele>
        <time>2022-05-24T09:44:50Z</time>
      </trkpt>
      <trkpt lat="44.87469" lon="1.77975">
        <ele>331.9</ele>
        <time>2022-05-24T09:44:51Z</time>
      </trkpt>
      <trkpt lat="44.8747" lon="1.77982">
        <ele>332.1</ele>
        <time>2022-05-24T09:44:52Z</time>
      </trkpt>
      <trkpt lat="44.87472" lon="1.77988">
        <ele>332.3</ele>
        <time>2022-05-24T09:44:53Z</time>
      </trkpt>
      <trkpt lat="44.87474" lon="1.77994">
        <ele>332.5</ele>
        <time>2022-05-24T09:44:54Z</time>
      </trkpt>
      <trkpt lat="44.87475" lon="1.77999">
        <ele>332.7</ele>
        <time>2022-05-24T09:44:55Z</time>
      </trkpt>
      <trkpt lat="44.87477" lon="1.78003">
        <ele>332.9</ele>
        <time>2022-05-24T09:44:56Z</time>
      </trkpt>
      <trkpt lat="44.8748" lon="1.78008">
        <ele>333.2</ele>
        <time>2022-05-24T09:44:57Z</time>
      </trkpt>
      <trkpt lat="44.87482" lon="1.78013">
        <ele>333.4</ele>
        <time>2022-05-24T09:44:58Z</time>
      </trkpt>
      <trkpt lat="44.87484" lon="1.78017">
        <ele>333.6</ele>
        <time>2022-05-24T09:44:59Z</time>
      </trkpt>
      <trkpt lat="44.87487" lon="1.78023">
        <ele>333.9</ele>
        <time>2022-05-24T09:45:00Z</time>
      </trkpt>
      <trkpt lat="44.8749" lon="1.78029">
        <ele>334.1</ele>
        <time>2022-05-24T09:45:01Z</time>
      </trkpt>
      <trkpt lat="44.87492" lon="1.78034">
        <ele>334.4</ele>
        <time>2022-05-24T09:45:02Z</time>
      </trkpt>
      <trkpt lat="44.87495" lon="1.78038">
        <ele>334.6</ele>
        <time>2022-05-24T09:45:03Z</time>
      </trkpt>
      <trkpt lat="44.87497" lon="1.78042">
        <ele>334.8</ele>
        <time>2022-05-24T09:45:04Z</time>
      </trkpt>
      <trkpt lat="44.875" lon="1.78046">
        <ele>335.1</ele>
        <time>2022-05-24T09:45:05Z</time>
      </trkpt>
      <trkpt lat="44.87503" lon="1.78051">
        <ele>335.3</ele>
        <time>2022-05-24T09:45:06Z</time>
      </trkpt>
      <trkpt lat="44.87505" lon="1.78055">
        <ele>335.6</ele>
        <time>2022-05-24T09:45:07Z</time>
      </trkpt>
      <trkpt lat="44.87507" lon="1.78059">
        <ele>335.8</ele>
        <time>2022-05-24T09:45:08Z</time>
      </trkpt>
      <trkpt lat="44.87509" lon="1.78064">
        <ele>336</ele>
        <time>2022-05-24T09:45:09Z</time>
      </trkpt>
      <trkpt lat="44.87511" lon="1.78068">
        <ele>336.3</ele>
        <time>2022-05-24T09:45:10Z</time>
      </trkpt>
      <trkpt lat="44.87513" lon="1.78072">
        <ele>336.5</ele>
        <time>2022-05-24T09:45:11Z</time>
      </trkpt>
      <trkpt lat="44.87515" lon="1.78076">
        <ele>336.8</ele>
        <time>2022-05-24T09:45:12Z</time>
      </trkpt>
      <trkpt lat="44.87518" lon="1.7808">
        <ele>337.1</ele>
        <time>2022-05-24T09:45:13Z</time>
      </trkpt>
      <trkpt lat="44.8752" lon="1.78084">
        <ele>337.3</ele>
        <time>2022-05-24T09:45:14Z</time>
      </trkpt>
      <trkpt lat="44.87522" lon="1.78088">
        <ele>337.6</ele>
        <time>2022-05-24T09:45:15Z</time>
      </trkpt>
      <trkpt lat="44.87525" lon="1.78091">
        <ele>337.9</ele>
        <time>2022-05-24T09:45:16Z</time>
      </trkpt>
      <trkpt lat="44.87528" lon="1.78095">
        <ele>338.2</ele>
        <time>2022-05-24T09:45:17Z</time>
      </trkpt>
      <trkpt lat="44.87531" lon="1.78098">
        <ele>338.4</ele>
        <time>2022-05-24T09:45:18Z</time>
      </trkpt>
      <trkpt lat="44.87534" lon="1.78101">
        <ele>338.7</ele>
        <time>2022-05-24T09:45:19Z</time>
      </trkpt>
      <trkpt lat="44.87535" lon="1.78101">
        <ele>338.8</ele>
        <time>2022-05-24T09:45:20Z</time>
      </trkpt>
      <trkpt lat="44.87538" lon="1.78102">
        <ele>339</ele>
        <time>2022-05-24T09:45:21Z</time>
      </trkpt>
      <trkpt lat="44.87541" lon="1.78103">
        <ele>339.2</ele>
        <time>2022-05-24T09:45:22Z</time>
      </trkpt>
      <trkpt lat="44.87544" lon="1.78104">
        <ele>339.4</ele>
        <time>2022-05-24T09:45:23Z</time>
      </trkpt>
      <trkpt lat="44.87547" lon="1.78105">
        <ele>339.6</ele>
        <time>2022-05-24T09:45:24Z</time>
      </trkpt>
      <trkpt lat="44.8755" lon="1.78106">
        <ele>339.8</ele>
        <time>2022-05-24T09:45:25Z</time>
      </trkpt>
      <trkpt lat="44.87554" lon="1.78108">
        <ele>340</ele>
        <time>2022-05-24T09:45:26Z</time>
      </trkpt>
      <trkpt lat="44.87558" lon="1.7811">
        <ele>340.3</ele>
        <time>2022-05-24T09:45:27Z</time>
      </trkpt>
      <trkpt lat="44.87561" lon="1.78112">
        <ele>340.5</ele>
        <time>2022-05-24T09:45:28Z</time>
      </trkpt>
      <trkpt lat="44.87564" lon="1.78114">
        <ele>340.7</ele>
        <time>2022-05-24T09:45:29Z</time>
      </trkpt>
      <trkpt lat="44.87568" lon="1.78117">
        <ele>340.9</ele>
        <time>2022-05-24T09:45:30Z</time>
      </trkpt>
      <trkpt lat="44.87571" lon="1.7812">
        <ele>341.1</ele>
        <time>2022-05-24T09:45:31Z</time>
      </trkpt>
      <trkpt lat="44.87574" lon="1.78122">
        <ele>341.3</ele>
        <time>2022-05-24T09:45:32Z</time>
      </trkpt>
      <trkpt lat="44.87576" lon="1.78125">
        <ele>341.5</ele>
        <time>2022-05-24T09:45:33Z</time>
      </trkpt>
      <trkpt lat="44.87579" lon="1.78127">
        <ele>341.6</ele>
        <time>2022-05-24T09:45:34Z</time>
      </trkpt>
      <trkpt lat="44.87581" lon="1.7813">
        <ele>341.8</ele>
        <time>2022-05-24T09:45:35Z</time>
      </trkpt>
      <trkpt lat="44.87583" lon="1.78133">
        <ele>342</ele>
        <time>2022-05-24T09:45:36Z</time>
      </trkpt>
      <trkpt lat="44.87586" lon="1.78136">
        <ele>342.2</ele>
        <time>2022-05-24T09:45:37Z</time>
      </trkpt>
      <trkpt lat="44.87589" lon="1.7814">
        <ele>342.4</ele>
        <time>2022-05-24T09:45:38Z</time>
      </trkpt>
      <trkpt lat="44.8759" lon="1.78141">
        <ele>342.5</ele>
        <time>2022-05-24T09:45:39Z</time>
      </trkpt>
      <trkpt lat="44.87592" lon="1.78144">
        <ele>342.7</ele>
        <time>2022-05-24T09:45:40Z</time>
      </trkpt>
      <trkpt lat="44.87595" lon="1.78147">
        <ele>342.9</ele>
        <time>2022-05-24T09:45:41Z</time>
      </trkpt>
      <trkpt lat="44.87598" lon="1.7815">
        <ele>343.1</ele>
        <time>2022-05-24T09:45:42Z</time>
      </trkpt>
      <trkpt lat="44.876" lon="1.78154">
        <ele>343.3</ele>
        <time>2022-05-24T09:45:43Z</time>
      </trkpt>
      <trkpt lat="44.87602" lon="1.78157">
        <ele>343.5</ele>
        <time>2022-05-24T09:45:44Z</time>
      </trkpt>
      <trkpt lat="44.87604" lon="1.78161">
        <ele>343.7</ele>
        <time>2022-05-24T09:45:45Z</time>
      </trkpt>
      <trkpt lat="44.87607" lon="1.78165">
        <ele>343.9</ele>
        <time>2022-05-24T09:45:46Z</time>
      </trkpt>
      <trkpt lat="44.8761" lon="1.78169">
        <ele>344.1</ele>
        <time>2022-05-24T09:45:47Z</time>
      </trkpt>
      <trkpt lat="44.87612" lon="1.78172">
        <ele>344.3</ele>
        <time>2022-05-24T09:45:48Z</time>
      </trkpt>
      <trkpt lat="44.87615" lon="1.78175">
        <ele>344.6</ele>
        <time>2022-05-24T09:45:49Z</time>
      </trkpt>
      <trkpt lat="44.87618" lon="1.78178">
        <ele>344.8</ele>
        <time>2022-05-24T09:45:50Z</time>
      </trkpt>
      <trkpt lat="44.8762" lon="1.78181">
        <ele>345</ele>
        <time>2022-05-24T09:45:51Z</time>
      </trkpt>
      <trkpt lat="44.87623" lon="1.78183">
        <ele>345.2</ele>
        <time>2022-05-24T09:45:52Z</time>
      </trkpt>
      <trkpt lat="44.87626" lon="1.78187">
        <ele>345.5</ele>
        <time>2022-05-24T09:45:53Z</time>
      </trkpt>
      <trkpt lat="44.87629" lon="1.7819">
        <ele>345.8</ele>
        <time>2022-05-24T09:45:54Z</time>
      </trkpt>
      <trkpt lat="44.87632" lon="1.78193">
        <ele>346</ele>
        <time>2022-05-24T09:45:55Z</time>
      </trkpt>
      <trkpt lat="44.87634" lon="1.78196">
        <ele>346.2</ele>
        <time>2022-05-24T09:45:56Z</time>
      </trkpt>
      <trkpt lat="44.87636" lon="1.78199">
        <ele>346.4</ele>
        <time>2022-05-24T09:45:57Z</time>
      </trkpt>
      <trkpt lat="44.87638" lon="1.78202">
        <ele>346.6</ele>
        <time>2022-05-24T09:45:58Z</time>
      </trkpt>
      <trkpt lat="44.87641" lon="1.78206">
        <ele>346.8</ele>
        <time>2022-05-24T09:45:59Z</time>
      </trkpt>
      <trkpt lat="44.87643" lon="1.78209">
        <ele>347</ele>
        <time>2022-05-24T09:46:00Z</time>
      </trkpt>
      <trkpt lat="44.87646" lon="1.78213">
        <ele>347.3</ele>
        <time>2022-05-24T09:46:01Z</time>
      </trkpt>
      <trkpt lat="44.87647" lon="1.78214">
        <ele>347.4</ele>
        <time>2022-05-24T09:46:02Z</time>
      </trkpt>
      <trkpt lat="44.8765" lon="1.78217">
        <ele>347.6</ele>
        <time>2022-05-24T09:46:03Z</time>
      </trkpt>
      <trkpt lat="44.87652" lon="1.78219">
        <ele>347.8</ele>
        <time>2022-05-24T09:46:04Z</time>
      </trkpt>
      <trkpt lat="44.87655" lon="1.78221">
        <ele>347.9</ele>
        <time>2022-05-24T09:46:05Z</time>
      </trkpt>
      <trkpt lat="44.87656" lon="1.78222">
        <ele>348</ele>
        <time>2022-05-24T09:46:06Z</time>
      </trkpt>
      <trkpt lat="44.8766" lon="1.78224">
        <ele>348.2</ele>
        <time>2022-05-24T09:46:07Z</time>
      </trkpt>
      <trkpt lat="44.87661" lon="1.78226">
        <ele>348.3</ele>
        <time>2022-05-24T09:46:08Z</time>
      </trkpt>
      <trkpt lat="44.87665" lon="1.78228">
        <ele>348.5</ele>
        <time>2022-05-24T09:46:09Z</time>
      </trkpt>
      <trkpt lat="44.87668" lon="1.78231">
        <ele>348.7</ele>
        <time>2022-05-24T09:46:10Z</time>
      </trkpt>
      <trkpt lat="44.87672" lon="1.78233">
        <ele>348.9</ele>
        <time>2022-05-24T09:46:11Z</time>
      </trkpt>
      <trkpt lat="44.87675" lon="1.78235">
        <ele>349.1</ele>
        <time>2022-05-24T09:46:12Z</time>
      </trkpt>
      <trkpt lat="44.87679" lon="1.78238">
        <ele>349.3</ele>
        <time>2022-05-24T09:46:13Z</time>
      </trkpt>
      <trkpt lat="44.87682" lon="1.7824">
        <ele>349.5</ele>
        <time>2022-05-24T09:46:14Z</time>
      </trkpt>
      <trkpt lat="44.87686" lon="1.78241">
        <ele>349.7</ele>
        <time>2022-05-24T09:46:15Z</time>
      </trkpt>
      <trkpt lat="44.8769" lon="1.78243">
        <ele>349.8</ele>
        <time>2022-05-24T09:46:16Z</time>
      </trkpt>
      <trkpt lat="44.87693" lon="1.78245">
        <ele>349.9</ele>
        <time>2022-05-24T09:46:17Z</time>
      </trkpt>
      <trkpt lat="44.87697" lon="1.78247">
        <ele>350</ele>
        <time>2022-05-24T09:46:18Z</time>
      </trkpt>
      <trkpt lat="44.877" lon="1.78249">
        <ele>350.1</ele>
        <time>2022-05-24T09:46:19Z</time>
      </trkpt>
      <trkpt lat="44.87703" lon="1.78252">
        <ele>350.3</ele>
        <time>2022-05-24T09:46:20Z</time>
      </trkpt>
      <trkpt lat="44.87707" lon="1.78255">
        <ele>350.4</ele>
        <time>2022-05-24T09:46:21Z</time>
      </trkpt>
      <trkpt lat="44.87709" lon="1.78257">
        <ele>350.5</ele>
        <time>2022-05-24T09:46:22Z</time>
      </trkpt>
      <trkpt lat="44.87711" lon="1.7826">
        <ele>350.6</ele>
        <time>2022-05-24T09:46:23Z</time>
      </trkpt>
      <trkpt lat="44.87714" lon="1.78263">
        <ele>350.7</ele>
        <time>2022-05-24T09:46:24Z</time>
      </trkpt>
      <trkpt lat="44.87716" lon="1.78266">
        <ele>350.8</ele>
        <time>2022-05-24T09:46:25Z</time>
      </trkpt>
      <trkpt lat="44.8772" lon="1.78268">
        <ele>350.9</ele>
        <time>2022-05-24T09:46:26Z</time>
      </trkpt>
      <trkpt lat="44.87724" lon="1.78271">
        <ele>351</ele>
        <time>2022-05-24T09:46:27Z</time>
      </trkpt>
      <trkpt lat="44.87728" lon="1.78273">
        <ele>351.1</ele>
        <time>2022-05-24T09:46:28Z</time>
      </trkpt>
      <trkpt lat="44.87732" lon="1.78275">
        <ele>351.2</ele>
        <time>2022-05-24T09:46:29Z</time>
      </trkpt>
      <trkpt lat="44.87737" lon="1.78277">
        <ele>351.2</ele>
        <time>2022-05-24T09:46:30Z</time>
      </trkpt>
      <trkpt lat="44.87741" lon="1.78279">
        <ele>351.3</ele>
        <time>2022-05-24T09:46:31Z</time>
      </trkpt>
      <trkpt lat="44.87746" lon="1.78282">
        <ele>351.3</ele>
        <time>2022-05-24T09:46:32Z</time>
      </trkpt>
      <trkpt lat="44.87751" lon="1.78285">
        <ele>351.3</ele>
        <time>2022-05-24T09:46:33Z</time>
      </trkpt>
      <trkpt lat="44.87756" lon="1.78289">
        <ele>351.3</ele>
        <time>2022-05-24T09:46:34Z</time>
      </trkpt>
      <trkpt lat="44.87761" lon="1.78292">
        <ele>351.3</ele>
        <time>2022-05-24T09:46:35Z</time>
      </trkpt>
      <trkpt lat="44.87766" lon="1.78295">
        <ele>351.3</ele>
        <time>2022-05-24T09:46:36Z</time>
      </trkpt>
      <trkpt lat="44.87771" lon="1.78298">
        <ele>351.3</ele>
        <time>2022-05-24T09:46:37Z</time>
      </trkpt>
      <trkpt lat="44.87775" lon="1.78302">
        <ele>351.2</ele>
        <time>2022-05-24T09:46:38Z</time>
      </trkpt>
      <trkpt lat="44.8778" lon="1.78306">
        <ele>351.1</ele>
        <time>2022-05-24T09:46:39Z</time>
      </trkpt>
      <trkpt lat="44.87785" lon="1.78309">
        <ele>351</ele>
        <time>2022-05-24T09:46:40Z</time>
      </trkpt>
      <trkpt lat="44.8779" lon="1.78311">
        <ele>350.9</ele>
        <time>2022-05-24T09:46:41Z</time>
      </trkpt>
      <trkpt lat="44.87796" lon="1.78313">
        <ele>350.8</ele>
        <time>2022-05-24T09:46:42Z</time>
      </trkpt>
      <trkpt lat="44.87801" lon="1.78314">
        <ele>350.7</ele>
        <time>2022-05-24T09:46:43Z</time>
      </trkpt>
      <trkpt lat="44.87807" lon="1.78312">
        <ele>350.7</ele>
        <time>2022-05-24T09:46:44Z</time>
      </trkpt>
      <trkpt lat="44.8781" lon="1.78307">
        <ele>350.7</ele>
        <time>2022-05-24T09:46:45Z</time>
      </trkpt>
      <trkpt lat="44.87812" lon="1.78301">
        <ele>351.5</ele>
        <time>2022-05-24T09:46:46Z</time>
      </trkpt>
      <trkpt lat="44.87812" lon="1.78294">
        <ele>351.5</ele>
        <time>2022-05-24T09:46:47Z</time>
      </trkpt>
      <trkpt lat="44.87814" lon="1.78287">
        <ele>351.2</ele>
        <time>2022-05-24T09:46:48Z</time>
      </trkpt>
      <trkpt lat="44.87816" lon="1.7828">
        <ele>351.2</ele>
        <time>2022-05-24T09:46:49Z</time>
      </trkpt>
      <trkpt lat="44.87817" lon="1.78273">
        <ele>351.2</ele>
        <time>2022-05-24T09:46:50Z</time>
      </trkpt>
      <trkpt lat="44.87818" lon="1.78265">
        <ele>351.2</ele>
        <time>2022-05-24T09:46:51Z</time>
      </trkpt>
      <trkpt lat="44.87817" lon="1.78256">
        <ele>351.2</ele>
        <time>2022-05-24T09:46:52Z</time>
      </trkpt>
      <trkpt lat="44.87816" lon="1.78247">
        <ele>351</ele>
        <time>2022-05-24T09:46:53Z</time>
      </trkpt>
      <trkpt lat="44.87814" lon="1.78238">
        <ele>351</ele>
        <time>2022-05-24T09:46:54Z</time>
      </trkpt>
      <trkpt lat="44.87812" lon="1.78228">
        <ele>350.7</ele>
        <time>2022-05-24T09:46:55Z</time>
      </trkpt>
      <trkpt lat="44.87809" lon="1.78218">
        <ele>349.8</ele>
        <time>2022-05-24T09:46:56Z</time>
      </trkpt>
      <trkpt lat="44.87806" lon="1.78208">
        <ele>349.8</ele>
        <time>2022-05-24T09:46:57Z</time>
      </trkpt>
      <trkpt lat="44.87805" lon="1.78197">
        <ele>348.9</ele>
        <time>2022-05-24T09:46:58Z</time>
      </trkpt>
      <trkpt lat="44.87804" lon="1.78187">
        <ele>348.9</ele>
        <time>2022-05-24T09:46:59Z</time>
      </trkpt>
      <trkpt lat="44.87805" lon="1.78177">
        <ele>347.9</ele>
        <time>2022-05-24T09:47:00Z</time>
      </trkpt>
      <trkpt lat="44.87805" lon="1.78167">
        <ele>346.6</ele>
        <time>2022-05-24T09:47:01Z</time>
      </trkpt>
      <trkpt lat="44.87803" lon="1.78156">
        <ele>346.6</ele>
        <time>2022-05-24T09:47:02Z</time>
      </trkpt>
      <trkpt lat="44.87801" lon="1.78146">
        <ele>345.5</ele>
        <time>2022-05-24T09:47:03Z</time>
      </trkpt>
      <trkpt lat="44.87797" lon="1.78135">
        <ele>345.5</ele>
        <time>2022-05-24T09:47:04Z</time>
      </trkpt>
      <trkpt lat="44.87792" lon="1.78124">
        <ele>344.6</ele>
        <time>2022-05-24T09:47:05Z</time>
      </trkpt>
      <trkpt lat="44.8779" lon="1.78113">
        <ele>343.6</ele>
        <time>2022-05-24T09:47:06Z</time>
      </trkpt>
      <trkpt lat="44.87789" lon="1.78102">
        <ele>344</ele>
        <time>2022-05-24T09:47:07Z</time>
      </trkpt>
      <trkpt lat="44.87787" lon="1.78093">
        <ele>342.9</ele>
        <time>2022-05-24T09:47:08Z</time>
      </trkpt>
      <trkpt lat="44.87783" lon="1.78084">
        <ele>342.9</ele>
        <time>2022-05-24T09:47:09Z</time>
      </trkpt>
      <trkpt lat="44.87778" lon="1.78076">
        <ele>341.1</ele>
        <time>2022-05-24T09:47:10Z</time>
      </trkpt>
      <trkpt lat="44.87772" lon="1.78067">
        <ele>341.5</ele>
        <time>2022-05-24T09:47:11Z</time>
      </trkpt>
      <trkpt lat="44.87765" lon="1.78057">
        <ele>339.7</ele>
        <time>2022-05-24T09:47:12Z</time>
      </trkpt>
      <trkpt lat="44.87757" lon="1.78048">
        <ele>339.9</ele>
        <time>2022-05-24T09:47:13Z</time>
      </trkpt>
      <trkpt lat="44.87751" lon="1.78039">
        <ele>338.3</ele>
        <time>2022-05-24T09:47:14Z</time>
      </trkpt>
      <trkpt lat="44.87744" lon="1.78029">
        <ele>336.6</ele>
        <time>2022-05-24T09:47:15Z</time>
      </trkpt>
      <trkpt lat="44.87737" lon="1.78018">
        <ele>336.7</ele>
        <time>2022-05-24T09:47:16Z</time>
      </trkpt>
      <trkpt lat="44.8773" lon="1.78008">
        <ele>335.3</ele>
        <time>2022-05-24T09:47:17Z</time>
      </trkpt>
      <trkpt lat="44.87722" lon="1.77998">
        <ele>335.3</ele>
        <time>2022-05-24T09:47:18Z</time>
      </trkpt>
      <trkpt lat="44.87715" lon="1.77988">
        <ele>333.7</ele>
        <time>2022-05-24T09:47:19Z</time>
      </trkpt>
      <trkpt lat="44.87708" lon="1.77978">
        <ele>332.4</ele>
        <time>2022-05-24T09:47:20Z</time>
      </trkpt>
      <trkpt lat="44.87701" lon="1.77968">
        <ele>332.3</ele>
        <time>2022-05-24T09:47:21Z</time>
      </trkpt>
      <trkpt lat="44.87695" lon="1.77959">
        <ele>331.1</ele>
        <time>2022-05-24T09:47:22Z</time>
      </trkpt>
      <trkpt lat="44.8769" lon="1.7795">
        <ele>331.1</ele>
        <time>2022-05-24T09:47:23Z</time>
      </trkpt>
      <trkpt lat="44.87685" lon="1.77941">
        <ele>329.8</ele>
        <time>2022-05-24T09:47:24Z</time>
      </trkpt>
      <trkpt lat="44.8768" lon="1.77932">
        <ele>329.8</ele>
        <time>2022-05-24T09:47:25Z</time>
      </trkpt>
      <trkpt lat="44.87677" lon="1.77922">
        <ele>328.4</ele>
        <time>2022-05-24T09:47:26Z</time>
      </trkpt>
      <trkpt lat="44.87674" lon="1.77914">
        <ele>328.5</ele>
        <time>2022-05-24T09:47:27Z</time>
      </trkpt>
      <trkpt lat="44.87671" lon="1.77905">
        <ele>327.6</ele>
        <time>2022-05-24T09:47:28Z</time>
      </trkpt>
      <trkpt lat="44.87668" lon="1.77896">
        <ele>327.6</ele>
        <time>2022-05-24T09:47:29Z</time>
      </trkpt>
      <trkpt lat="44.87666" lon="1.77888">
        <ele>326.4</ele>
        <time>2022-05-24T09:47:30Z</time>
      </trkpt>
      <trkpt lat="44.87663" lon="1.77879">
        <ele>326.4</ele>
        <time>2022-05-24T09:47:31Z</time>
      </trkpt>
      <trkpt lat="44.8766" lon="1.7787">
        <ele>325.6</ele>
        <time>2022-05-24T09:47:32Z</time>
      </trkpt>
      <trkpt lat="44.87658" lon="1.77862">
        <ele>325.6</ele>
        <time>2022-05-24T09:47:33Z</time>
      </trkpt>
      <trkpt lat="44.87656" lon="1.77854">
        <ele>324.6</ele>
        <time>2022-05-24T09:47:34Z</time>
      </trkpt>
      <trkpt lat="44.87656" lon="1.77846">
        <ele>324.6</ele>
        <time>2022-05-24T09:47:35Z</time>
      </trkpt>
      <trkpt lat="44.87655" lon="1.77838">
        <ele>323.3</ele>
        <time>2022-05-24T09:47:36Z</time>
      </trkpt>
      <trkpt lat="44.87653" lon="1.7783">
        <ele>323.3</ele>
        <time>2022-05-24T09:47:37Z</time>
      </trkpt>
      <trkpt lat="44.87652" lon="1.77821">
        <ele>322.9</ele>
        <time>2022-05-24T09:47:38Z</time>
      </trkpt>
      <trkpt lat="44.87651" lon="1.77813">
        <ele>322.9</ele>
        <time>2022-05-24T09:47:39Z</time>
      </trkpt>
      <trkpt lat="44.87649" lon="1.77805">
        <ele>322.8</ele>
        <time>2022-05-24T09:47:40Z</time>
      </trkpt>
      <trkpt lat="44.87649" lon="1.77798">
        <ele>322.8</ele>
        <time>2022-05-24T09:47:41Z</time>
      </trkpt>
      <trkpt lat="44.87647" lon="1.77789">
        <ele>322.7</ele>
        <time>2022-05-24T09:47:42Z</time>
      </trkpt>
      <trkpt lat="44.87646" lon="1.7778">
        <ele>322.7</ele>
        <time>2022-05-24T09:47:43Z</time>
      </trkpt>
      <trkpt lat="44.87644" lon="1.77772">
        <ele>322.6</ele>
        <time>2022-05-24T09:47:44Z</time>
      </trkpt>
      <trkpt lat="44.87641" lon="1.77764">
        <ele>322.8</ele>
        <time>2022-05-24T09:47:45Z</time>
      </trkpt>
      <trkpt lat="44.87638" lon="1.77756">
        <ele>322.8</ele>
        <time>2022-05-24T09:47:46Z</time>
      </trkpt>
      <trkpt lat="44.87636" lon="1.77746">
        <ele>322.9</ele>
        <time>2022-05-24T09:47:47Z</time>
      </trkpt>
      <trkpt lat="44.87635" lon="1.77737">
        <ele>322.9</ele>
        <time>2022-05-24T09:47:48Z</time>
      </trkpt>
      <trkpt lat="44.87633" lon="1.77727">
        <ele>322.9</ele>
        <time>2022-05-24T09:47:49Z</time>
      </trkpt>
      <trkpt lat="44.87631" lon="1.7772">
        <ele>322.9</ele>
        <time>2022-05-24T09:47:50Z</time>
      </trkpt>
      <trkpt lat="44.87629" lon="1.77713">
        <ele>323.3</ele>
        <time>2022-05-24T09:47:51Z</time>
      </trkpt>
      <trkpt lat="44.87627" lon="1.77703">
        <ele>323.5</ele>
        <time>2022-05-24T09:47:52Z</time>
      </trkpt>
      <trkpt lat="44.87626" lon="1.77696">
        <ele>323.5</ele>
        <time>2022-05-24T09:47:53Z</time>
      </trkpt>
      <trkpt lat="44.87625" lon="1.7769">
        <ele>323.5</ele>
        <time>2022-05-24T09:47:54Z</time>
      </trkpt>
      <trkpt lat="44.87624" lon="1.77681">
        <ele>323.8</ele>
        <time>2022-05-24T09:47:55Z</time>
      </trkpt>
      <trkpt lat="44.87621" lon="1.77672">
        <ele>323.8</ele>
        <time>2022-05-24T09:47:56Z</time>
      </trkpt>
      <trkpt lat="44.87617" lon="1.77665">
        <ele>324.4</ele>
        <time>2022-05-24T09:47:57Z</time>
      </trkpt>
      <trkpt lat="44.87613" lon="1.77658">
        <ele>324.4</ele>
        <time>2022-05-24T09:47:58Z</time>
      </trkpt>
      <trkpt lat="44.87609" lon="1.77651">
        <ele>325</ele>
        <time>2022-05-24T09:47:59Z</time>
      </trkpt>
      <trkpt lat="44.87607" lon="1.77643">
        <ele>325</ele>
        <time>2022-05-24T09:48:00Z</time>
      </trkpt>
      <trkpt lat="44.87605" lon="1.77635">
        <ele>325.9</ele>
        <time>2022-05-24T09:48:01Z</time>
      </trkpt>
      <trkpt lat="44.87605" lon="1.77627">
        <ele>325.9</ele>
        <time>2022-05-24T09:48:02Z</time>
      </trkpt>
      <trkpt lat="44.87604" lon="1.77621">
        <ele>325.9</ele>
        <time>2022-05-24T09:48:03Z</time>
      </trkpt>
      <trkpt lat="44.87603" lon="1.77613">
        <ele>326.8</ele>
        <time>2022-05-24T09:48:04Z</time>
      </trkpt>
      <trkpt lat="44.87602" lon="1.77606">
        <ele>326.8</ele>
        <time>2022-05-24T09:48:05Z</time>
      </trkpt>
      <trkpt lat="44.876" lon="1.77601">
        <ele>327.9</ele>
        <time>2022-05-24T09:48:06Z</time>
      </trkpt>
      <trkpt lat="44.87599" lon="1.77597">
        <ele>327.9</ele>
        <time>2022-05-24T09:48:07Z</time>
      </trkpt>
      <trkpt lat="44.87598" lon="1.77591">
        <ele>327.9</ele>
        <time>2022-05-24T09:48:08Z</time>
      </trkpt>
      <trkpt lat="44.87596" lon="1.77585">
        <ele>327.9</ele>
        <time>2022-05-24T09:48:09Z</time>
      </trkpt>
      <trkpt lat="44.87595" lon="1.77579">
        <ele>329.4</ele>
        <time>2022-05-24T09:48:10Z</time>
      </trkpt>
      <trkpt lat="44.87594" lon="1.77576">
        <ele>329.9</ele>
        <time>2022-05-24T09:48:11Z</time>
      </trkpt>
      <trkpt lat="44.87594" lon="1.77571">
        <ele>329.9</ele>
        <time>2022-05-24T09:48:12Z</time>
      </trkpt>
      <trkpt lat="44.87593" lon="1.77565">
        <ele>331</ele>
        <time>2022-05-24T09:48:13Z</time>
      </trkpt>
      <trkpt lat="44.87594" lon="1.77558">
        <ele>331.1</ele>
        <time>2022-05-24T09:48:14Z</time>
      </trkpt>
      <trkpt lat="44.87595" lon="1.77552">
        <ele>330.7</ele>
        <time>2022-05-24T09:48:15Z</time>
      </trkpt>
      <trkpt lat="44.87595" lon="1.77546">
        <ele>332.1</ele>
        <time>2022-05-24T09:48:16Z</time>
      </trkpt>
      <trkpt lat="44.87595" lon="1.77541">
        <ele>332.1</ele>
        <time>2022-05-24T09:48:17Z</time>
      </trkpt>
      <trkpt lat="44.87596" lon="1.77535">
        <ele>332.1</ele>
        <time>2022-05-24T09:48:18Z</time>
      </trkpt>
      <trkpt lat="44.87597" lon="1.7753">
        <ele>333.6</ele>
        <time>2022-05-24T09:48:19Z</time>
      </trkpt>
      <trkpt lat="44.87598" lon="1.77525">
        <ele>333.7</ele>
        <time>2022-05-24T09:48:20Z</time>
      </trkpt>
      <trkpt lat="44.87599" lon="1.7752">
        <ele>333.7</ele>
        <time>2022-05-24T09:48:21Z</time>
      </trkpt>
      <trkpt lat="44.876" lon="1.77516">
        <ele>333.7</ele>
        <time>2022-05-24T09:48:22Z</time>
      </trkpt>
      <trkpt lat="44.876" lon="1.77511">
        <ele>335.3</ele>
        <time>2022-05-24T09:48:23Z</time>
      </trkpt>
      <trkpt lat="44.87601" lon="1.77506">
        <ele>335.3</ele>
        <time>2022-05-24T09:48:24Z</time>
      </trkpt>
      <trkpt lat="44.87601" lon="1.77504">
        <ele>335.3</ele>
        <time>2022-05-24T09:48:25Z</time>
      </trkpt>
      <trkpt lat="44.87601" lon="1.775">
        <ele>335.3</ele>
        <time>2022-05-24T09:48:26Z</time>
      </trkpt>
      <trkpt lat="44.876" lon="1.77495">
        <ele>337.3</ele>
        <time>2022-05-24T09:48:27Z</time>
      </trkpt>
      <trkpt lat="44.876" lon="1.7749">
        <ele>337.3</ele>
        <time>2022-05-24T09:48:28Z</time>
      </trkpt>
      <trkpt lat="44.87599" lon="1.77487">
        <ele>337.3</ele>
        <time>2022-05-24T09:48:29Z</time>
      </trkpt>
      <trkpt lat="44.87598" lon="1.77477">
        <ele>339.3</ele>
        <time>2022-05-24T09:48:31Z</time>
      </trkpt>
      <trkpt lat="44.87597" lon="1.77472">
        <ele>339.3</ele>
        <time>2022-05-24T09:48:32Z</time>
      </trkpt>
      <trkpt lat="44.87596" lon="1.77467">
        <ele>339.3</ele>
        <time>2022-05-24T09:48:33Z</time>
      </trkpt>
      <trkpt lat="44.87594" lon="1.77461">
        <ele>340.6</ele>
        <time>2022-05-24T09:48:34Z</time>
      </trkpt>
      <trkpt lat="44.87592" lon="1.77456">
        <ele>340.6</ele>
        <time>2022-05-24T09:48:35Z</time>
      </trkpt>
      <trkpt lat="44.8759" lon="1.77451">
        <ele>340.6</ele>
        <time>2022-05-24T09:48:36Z</time>
      </trkpt>
      <trkpt lat="44.87587" lon="1.77447">
        <ele>340.6</ele>
        <time>2022-05-24T09:48:37Z</time>
      </trkpt>
      <trkpt lat="44.87585" lon="1.77444">
        <ele>342.9</ele>
        <time>2022-05-24T09:48:38Z</time>
      </trkpt>
      <trkpt lat="44.87582" lon="1.7744">
        <ele>342.1</ele>
        <time>2022-05-24T09:48:39Z</time>
      </trkpt>
      <trkpt lat="44.87579" lon="1.77438">
        <ele>342.1</ele>
        <time>2022-05-24T09:48:40Z</time>
      </trkpt>
      <trkpt lat="44.87576" lon="1.77436">
        <ele>342.1</ele>
        <time>2022-05-24T09:48:41Z</time>
      </trkpt>
      <trkpt lat="44.87575" lon="1.77435">
        <ele>342.1</ele>
        <time>2022-05-24T09:48:42Z</time>
      </trkpt>
      <trkpt lat="44.87572" lon="1.77432">
        <ele>342.1</ele>
        <time>2022-05-24T09:48:43Z</time>
      </trkpt>
      <trkpt lat="44.87571" lon="1.77431">
        <ele>342.1</ele>
        <time>2022-05-24T09:48:44Z</time>
      </trkpt>
      <trkpt lat="44.87569" lon="1.77429">
        <ele>343.5</ele>
        <time>2022-05-24T09:48:45Z</time>
      </trkpt>
      <trkpt lat="44.87568" lon="1.77428">
        <ele>343.5</ele>
        <time>2022-05-24T09:48:46Z</time>
      </trkpt>
      <trkpt lat="44.87567" lon="1.77427">
        <ele>343.5</ele>
        <time>2022-05-24T09:48:47Z</time>
      </trkpt>
      <trkpt lat="44.87566" lon="1.77425">
        <ele>343.5</ele>
        <time>2022-05-24T09:48:48Z</time>
      </trkpt>
      <trkpt lat="44.87564" lon="1.77423">
        <ele>343.6</ele>
        <time>2022-05-24T09:48:49Z</time>
      </trkpt>
      <trkpt lat="44.87563" lon="1.77422">
        <ele>343.6</ele>
        <time>2022-05-24T09:48:50Z</time>
      </trkpt>
      <trkpt lat="44.87561" lon="1.7742">
        <ele>343.6</ele>
        <time>2022-05-24T09:48:51Z</time>
      </trkpt>
      <trkpt lat="44.8756" lon="1.77419">
        <ele>343.6</ele>
        <time>2022-05-24T09:48:52Z</time>
      </trkpt>
      <trkpt lat="44.87558" lon="1.77417">
        <ele>343.6</ele>
        <time>2022-05-24T09:48:53Z</time>
      </trkpt>
      <trkpt lat="44.87557" lon="1.77415">
        <ele>343.5</ele>
        <time>2022-05-24T09:48:54Z</time>
      </trkpt>
      <trkpt lat="44.87557" lon="1.77414">
        <ele>343.5</ele>
        <time>2022-05-24T09:48:55Z</time>
      </trkpt>
      <trkpt lat="44.87555" lon="1.77412">
        <ele>343.6</ele>
        <time>2022-05-24T09:48:56Z</time>
      </trkpt>
      <trkpt lat="44.87555" lon="1.77411">
        <ele>345.8</ele>
        <time>2022-05-24T09:48:57Z</time>
      </trkpt>
      <trkpt lat="44.87553" lon="1.7741">
        <ele>345.8</ele>
        <time>2022-05-24T09:48:58Z</time>
      </trkpt>
      <trkpt lat="44.87552" lon="1.77409">
        <ele>345.8</ele>
        <time>2022-05-24T09:48:59Z</time>
      </trkpt>
      <trkpt lat="44.87551" lon="1.77408">
        <ele>345.8</ele>
        <time>2022-05-24T09:49:00Z</time>
      </trkpt>
      <trkpt lat="44.87549" lon="1.77408">
        <ele>345.9</ele>
        <time>2022-05-24T09:49:01Z</time>
      </trkpt>
      <trkpt lat="44.87548" lon="1.77407">
        <ele>345.9</ele>
        <time>2022-05-24T09:49:02Z</time>
      </trkpt>
      <trkpt lat="44.87547" lon="1.77405">
        <ele>345.9</ele>
        <time>2022-05-24T09:49:03Z</time>
      </trkpt>
      <trkpt lat="44.87545" lon="1.77404">
        <ele>346</ele>
        <time>2022-05-24T09:49:04Z</time>
      </trkpt>
      <trkpt lat="44.87544" lon="1.77403">
        <ele>346</ele>
        <time>2022-05-24T09:49:05Z</time>
      </trkpt>
      <trkpt lat="44.87544" lon="1.77402">
        <ele>346</ele>
        <time>2022-05-24T09:49:06Z</time>
      </trkpt>
      <trkpt lat="44.87543" lon="1.774">
        <ele>346</ele>
        <time>2022-05-24T09:49:07Z</time>
      </trkpt>
      <trkpt lat="44.87543" lon="1.77398">
        <ele>346</ele>
        <time>2022-05-24T09:49:08Z</time>
      </trkpt>
      <trkpt lat="44.87543" lon="1.77398">
        <ele>346.1</ele>
        <time>2022-05-24T09:49:09Z</time>
      </trkpt>
      <trkpt lat="44.87543" lon="1.77397">
        <ele>346.1</ele>
        <time>2022-05-24T09:49:10Z</time>
      </trkpt>
      <trkpt lat="44.87543" lon="1.77396">
        <ele>346.1</ele>
        <time>2022-05-24T09:49:11Z</time>
      </trkpt>
      <trkpt lat="44.87544" lon="1.77395">
        <ele>346.1</ele>
        <time>2022-05-24T09:49:12Z</time>
      </trkpt>
      <trkpt lat="44.87544" lon="1.77395">
        <ele>348.3</ele>
        <time>2022-05-24T09:49:13Z</time>
      </trkpt>
      <trkpt lat="44.87544" lon="1.77393">
        <ele>348.3</ele>
        <time>2022-05-24T09:49:14Z</time>
      </trkpt>
      <trkpt lat="44.87545" lon="1.77392">
        <ele>348.3</ele>
        <time>2022-05-24T09:49:15Z</time>
      </trkpt>
      <trkpt lat="44.87546" lon="1.77391">
        <ele>348.3</ele>
        <time>2022-05-24T09:49:16Z</time>
      </trkpt>
      <trkpt lat="44.87547" lon="1.7739">
        <ele>348.2</ele>
        <time>2022-05-24T09:49:17Z</time>
      </trkpt>
      <trkpt lat="44.87548" lon="1.77389">
        <ele>348.2</ele>
        <time>2022-05-24T09:49:18Z</time>
      </trkpt>
      <trkpt lat="44.87548" lon="1.77389">
        <ele>348.2</ele>
        <time>2022-05-24T09:49:19Z</time>
      </trkpt>
      <trkpt lat="44.8755" lon="1.77389">
        <ele>348.2</ele>
        <time>2022-05-24T09:49:20Z</time>
      </trkpt>
      <trkpt lat="44.87552" lon="1.77388">
        <ele>348.3</ele>
        <time>2022-05-24T09:49:21Z</time>
      </trkpt>
      <trkpt lat="44.87553" lon="1.77388">
        <ele>348.3</ele>
        <time>2022-05-24T09:49:22Z</time>
      </trkpt>
      <trkpt lat="44.87555" lon="1.77387">
        <ele>348.3</ele>
        <time>2022-05-24T09:49:23Z</time>
      </trkpt>
      <trkpt lat="44.87556" lon="1.77386">
        <ele>348.3</ele>
        <time>2022-05-24T09:49:24Z</time>
      </trkpt>
      <trkpt lat="44.87558" lon="1.77384">
        <ele>348.3</ele>
        <time>2022-05-24T09:49:25Z</time>
      </trkpt>
      <trkpt lat="44.87559" lon="1.77383">
        <ele>348.1</ele>
        <time>2022-05-24T09:49:26Z</time>
      </trkpt>
      <trkpt lat="44.8756" lon="1.77382">
        <ele>348.2</ele>
        <time>2022-05-24T09:49:27Z</time>
      </trkpt>
      <trkpt lat="44.87561" lon="1.7738">
        <ele>348.2</ele>
        <time>2022-05-24T09:49:28Z</time>
      </trkpt>
      <trkpt lat="44.87562" lon="1.77377">
        <ele>349.9</ele>
        <time>2022-05-24T09:49:29Z</time>
      </trkpt>
      <trkpt lat="44.87562" lon="1.77375">
        <ele>349.9</ele>
        <time>2022-05-24T09:49:30Z</time>
      </trkpt>
      <trkpt lat="44.87562" lon="1.77373">
        <ele>349.9</ele>
        <time>2022-05-24T09:49:31Z</time>
      </trkpt>
      <trkpt lat="44.87562" lon="1.77371">
        <ele>349.9</ele>
        <time>2022-05-24T09:49:32Z</time>
      </trkpt>
      <trkpt lat="44.87562" lon="1.7737">
        <ele>349.9</ele>
        <time>2022-05-24T09:49:33Z</time>
      </trkpt>
      <trkpt lat="44.87563" lon="1.77368">
        <ele>349.9</ele>
        <time>2022-05-24T09:49:34Z</time>
      </trkpt>
      <trkpt lat="44.87563" lon="1.77367">
        <ele>349.9</ele>
        <time>2022-05-24T09:49:35Z</time>
      </trkpt>
      <trkpt lat="44.87564" lon="1.77366">
        <ele>349.9</ele>
        <time>2022-05-24T09:49:36Z</time>
      </trkpt>
      <trkpt lat="44.87564" lon="1.77365">
        <ele>349.9</ele>
        <time>2022-05-24T09:49:37Z</time>
      </trkpt>
      <trkpt lat="44.87563" lon="1.77363">
        <ele>350</ele>
        <time>2022-05-24T09:49:38Z</time>
      </trkpt>
      <trkpt lat="44.87563" lon="1.77361">
        <ele>351.2</ele>
        <time>2022-05-24T09:49:39Z</time>
      </trkpt>
      <trkpt lat="44.87562" lon="1.77359">
        <ele>351.2</ele>
        <time>2022-05-24T09:49:40Z</time>
      </trkpt>
      <trkpt lat="44.87562" lon="1.77357">
        <ele>351.3</ele>
        <time>2022-05-24T09:49:41Z</time>
      </trkpt>
      <trkpt lat="44.87562" lon="1.77353">
        <ele>351.3</ele>
        <time>2022-05-24T09:49:42Z</time>
      </trkpt>
      <trkpt lat="44.87562" lon="1.77352">
        <ele>351.3</ele>
        <time>2022-05-24T09:49:43Z</time>
      </trkpt>
      <trkpt lat="44.87562" lon="1.7735">
        <ele>351.3</ele>
        <time>2022-05-24T09:49:44Z</time>
      </trkpt>
      <trkpt lat="44.87563" lon="1.77345">
        <ele>351.3</ele>
        <time>2022-05-24T09:49:45Z</time>
      </trkpt>
      <trkpt lat="44.87563" lon="1.77343">
        <ele>351.3</ele>
        <time>2022-05-24T09:49:46Z</time>
      </trkpt>
      <trkpt lat="44.87564" lon="1.77339">
        <ele>352.1</ele>
        <time>2022-05-24T09:49:47Z</time>
      </trkpt>
      <trkpt lat="44.87565" lon="1.77337">
        <ele>352.1</ele>
        <time>2022-05-24T09:49:48Z</time>
      </trkpt>
      <trkpt lat="44.87565" lon="1.77333">
        <ele>352.1</ele>
        <time>2022-05-24T09:49:49Z</time>
      </trkpt>
      <trkpt lat="44.87565" lon="1.77331">
        <ele>352.2</ele>
        <time>2022-05-24T09:49:50Z</time>
      </trkpt>
      <trkpt lat="44.87565" lon="1.77327">
        <ele>352.2</ele>
        <time>2022-05-24T09:49:51Z</time>
      </trkpt>
      <trkpt lat="44.87565" lon="1.77325">
        <ele>353</ele>
        <time>2022-05-24T09:49:52Z</time>
      </trkpt>
      <trkpt lat="44.87566" lon="1.77321">
        <ele>353</ele>
        <time>2022-05-24T09:49:53Z</time>
      </trkpt>
      <trkpt lat="44.87566" lon="1.77319">
        <ele>353</ele>
        <time>2022-05-24T09:49:54Z</time>
      </trkpt>
      <trkpt lat="44.87566" lon="1.77313">
        <ele>353</ele>
        <time>2022-05-24T09:49:55Z</time>
      </trkpt>
      <trkpt lat="44.87566" lon="1.77311">
        <ele>353</ele>
        <time>2022-05-24T09:49:56Z</time>
      </trkpt>
      <trkpt lat="44.87565" lon="1.77307">
        <ele>353.9</ele>
        <time>2022-05-24T09:49:57Z</time>
      </trkpt>
      <trkpt lat="44.87565" lon="1.77301">
        <ele>353.9</ele>
        <time>2022-05-24T09:49:58Z</time>
      </trkpt>
      <trkpt lat="44.87565" lon="1.77299">
        <ele>353.9</ele>
        <time>2022-05-24T09:49:59Z</time>
      </trkpt>
      <trkpt lat="44.87565" lon="1.77294">
        <ele>353.9</ele>
        <time>2022-05-24T09:50:00Z</time>
      </trkpt>
      <trkpt lat="44.87565" lon="1.77289">
        <ele>354.5</ele>
        <time>2022-05-24T09:50:01Z</time>
      </trkpt>
      <trkpt lat="44.87564" lon="1.77283">
        <ele>354.6</ele>
        <time>2022-05-24T09:50:02Z</time>
      </trkpt>
      <trkpt lat="44.87563" lon="1.77279">
        <ele>354.6</ele>
        <time>2022-05-24T09:50:03Z</time>
      </trkpt>
      <trkpt lat="44.87563" lon="1.77274">
        <ele>355.1</ele>
        <time>2022-05-24T09:50:04Z</time>
      </trkpt>
      <trkpt lat="44.87561" lon="1.77269">
        <ele>355.1</ele>
        <time>2022-05-24T09:50:05Z</time>
      </trkpt>
      <trkpt lat="44.8756" lon="1.77266">
        <ele>355.1</ele>
        <time>2022-05-24T09:50:06Z</time>
      </trkpt>
      <trkpt lat="44.87559" lon="1.77262">
        <ele>355.1</ele>
        <time>2022-05-24T09:50:07Z</time>
      </trkpt>
      <trkpt lat="44.87558" lon="1.77257">
        <ele>355.5</ele>
        <time>2022-05-24T09:50:08Z</time>
      </trkpt>
      <trkpt lat="44.87558" lon="1.77256">
        <ele>355.9</ele>
        <time>2022-05-24T09:50:09Z</time>
      </trkpt>
      <trkpt lat="44.87557" lon="1.77252">
        <ele>355.9</ele>
        <time>2022-05-24T09:50:10Z</time>
      </trkpt>
      <trkpt lat="44.87557" lon="1.77247">
        <ele>355.9</ele>
        <time>2022-05-24T09:50:11Z</time>
      </trkpt>
      <trkpt lat="44.87557" lon="1.77243">
        <ele>355.9</ele>
        <time>2022-05-24T09:50:12Z</time>
      </trkpt>
      <trkpt lat="44.87557" lon="1.77238">
        <ele>356.4</ele>
        <time>2022-05-24T09:50:13Z</time>
      </trkpt>
      <trkpt lat="44.87556" lon="1.77237">
        <ele>356.4</ele>
        <time>2022-05-24T09:50:14Z</time>
      </trkpt>
      <trkpt lat="44.87555" lon="1.77232">
        <ele>356.4</ele>
        <time>2022-05-24T09:50:15Z</time>
      </trkpt>
      <trkpt lat="44.87555" lon="1.7723">
        <ele>356.5</ele>
        <time>2022-05-24T09:50:16Z</time>
      </trkpt>
      <trkpt lat="44.87554" lon="1.77225">
        <ele>356.5</ele>
        <time>2022-05-24T09:50:17Z</time>
      </trkpt>
      <trkpt lat="44.87554" lon="1.77224">
        <ele>356.5</ele>
        <time>2022-05-24T09:50:18Z</time>
      </trkpt>
      <trkpt lat="44.87554" lon="1.77219">
        <ele>357</ele>
        <time>2022-05-24T09:50:19Z</time>
      </trkpt>
      <trkpt lat="44.87554" lon="1.77215">
        <ele>357</ele>
        <time>2022-05-24T09:50:20Z</time>
      </trkpt>
      <trkpt lat="44.87555" lon="1.7721">
        <ele>357</ele>
        <time>2022-05-24T09:50:21Z</time>
      </trkpt>
      <trkpt lat="44.87555" lon="1.77205">
        <ele>357.4</ele>
        <time>2022-05-24T09:50:22Z</time>
      </trkpt>
      <trkpt lat="44.87555" lon="1.77201">
        <ele>357.4</ele>
        <time>2022-05-24T09:50:23Z</time>
      </trkpt>
      <trkpt lat="44.87555" lon="1.77196">
        <ele>357.4</ele>
        <time>2022-05-24T09:50:24Z</time>
      </trkpt>
      <trkpt lat="44.87555" lon="1.77191">
        <ele>357.4</ele>
        <time>2022-05-24T09:50:25Z</time>
      </trkpt>
      <trkpt lat="44.87556" lon="1.77186">
        <ele>357.7</ele>
        <time>2022-05-24T09:50:26Z</time>
      </trkpt>
      <trkpt lat="44.87557" lon="1.7718">
        <ele>357.7</ele>
        <time>2022-05-24T09:50:27Z</time>
      </trkpt>
      <trkpt lat="44.87559" lon="1.77174">
        <ele>356.9</ele>
        <time>2022-05-24T09:50:28Z</time>
      </trkpt>
      <trkpt lat="44.87561" lon="1.77167">
        <ele>357</ele>
        <time>2022-05-24T09:50:29Z</time>
      </trkpt>
      <trkpt lat="44.87563" lon="1.77162">
        <ele>357</ele>
        <time>2022-05-24T09:50:30Z</time>
      </trkpt>
      <trkpt lat="44.87564" lon="1.77157">
        <ele>357</ele>
        <time>2022-05-24T09:50:31Z</time>
      </trkpt>
      <trkpt lat="44.87564" lon="1.77151">
        <ele>357</ele>
        <time>2022-05-24T09:50:32Z</time>
      </trkpt>
      <trkpt lat="44.87563" lon="1.77145">
        <ele>357</ele>
        <time>2022-05-24T09:50:33Z</time>
      </trkpt>
      <trkpt lat="44.87561" lon="1.77139">
        <ele>357</ele>
        <time>2022-05-24T09:50:34Z</time>
      </trkpt>
      <trkpt lat="44.87558" lon="1.77132">
        <ele>358.1</ele>
        <time>2022-05-24T09:50:35Z</time>
      </trkpt>
      <trkpt lat="44.87555" lon="1.77125">
        <ele>358.1</ele>
        <time>2022-05-24T09:50:36Z</time>
      </trkpt>
      <trkpt lat="44.87554" lon="1.7712">
        <ele>358.1</ele>
        <time>2022-05-24T09:50:37Z</time>
      </trkpt>
      <trkpt lat="44.87553" lon="1.77113">
        <ele>358.1</ele>
        <time>2022-05-24T09:50:38Z</time>
      </trkpt>
      <trkpt lat="44.87551" lon="1.77107">
        <ele>358.1</ele>
        <time>2022-05-24T09:50:39Z</time>
      </trkpt>
      <trkpt lat="44.87549" lon="1.77102">
        <ele>358.4</ele>
        <time>2022-05-24T09:50:40Z</time>
      </trkpt>
      <trkpt lat="44.87547" lon="1.77098">
        <ele>358.4</ele>
        <time>2022-05-24T09:50:41Z</time>
      </trkpt>
      <trkpt lat="44.87545" lon="1.77094">
        <ele>359.8</ele>
        <time>2022-05-24T09:50:42Z</time>
      </trkpt>
      <trkpt lat="44.87544" lon="1.7709">
        <ele>359.8</ele>
        <time>2022-05-24T09:50:43Z</time>
      </trkpt>
      <trkpt lat="44.87542" lon="1.77086">
        <ele>360.4</ele>
        <time>2022-05-24T09:50:44Z</time>
      </trkpt>
      <trkpt lat="44.87541" lon="1.77085">
        <ele>360.5</ele>
        <time>2022-05-24T09:50:45Z</time>
      </trkpt>
      <trkpt lat="44.8754" lon="1.77081">
        <ele>360.5</ele>
        <time>2022-05-24T09:50:46Z</time>
      </trkpt>
      <trkpt lat="44.87539" lon="1.77076">
        <ele>360.5</ele>
        <time>2022-05-24T09:50:47Z</time>
      </trkpt>
      <trkpt lat="44.87538" lon="1.77072">
        <ele>360.5</ele>
        <time>2022-05-24T09:50:48Z</time>
      </trkpt>
      <trkpt lat="44.87537" lon="1.77067">
        <ele>361</ele>
        <time>2022-05-24T09:50:49Z</time>
      </trkpt>
      <trkpt lat="44.87537" lon="1.77064">
        <ele>361</ele>
        <time>2022-05-24T09:50:50Z</time>
      </trkpt>
      <trkpt lat="44.87537" lon="1.7706">
        <ele>361.1</ele>
        <time>2022-05-24T09:50:51Z</time>
      </trkpt>
      <trkpt lat="44.87537" lon="1.77054">
        <ele>361.1</ele>
        <time>2022-05-24T09:50:52Z</time>
      </trkpt>
      <trkpt lat="44.87537" lon="1.7705">
        <ele>361.4</ele>
        <time>2022-05-24T09:50:53Z</time>
      </trkpt>
      <trkpt lat="44.87536" lon="1.77046">
        <ele>361.4</ele>
        <time>2022-05-24T09:50:54Z</time>
      </trkpt>
      <trkpt lat="44.87535" lon="1.77041">
        <ele>361.4</ele>
        <time>2022-05-24T09:50:55Z</time>
      </trkpt>
      <trkpt lat="44.87534" lon="1.7704">
        <ele>361.4</ele>
        <time>2022-05-24T09:50:56Z</time>
      </trkpt>
      <trkpt lat="44.87532" lon="1.77036">
        <ele>363.2</ele>
        <time>2022-05-24T09:50:57Z</time>
      </trkpt>
      <trkpt lat="44.87531" lon="1.77035">
        <ele>363.2</ele>
        <time>2022-05-24T09:50:58Z</time>
      </trkpt>
      <trkpt lat="44.87529" lon="1.7703">
        <ele>363.3</ele>
        <time>2022-05-24T09:50:59Z</time>
      </trkpt>
      <trkpt lat="44.87528" lon="1.77029">
        <ele>363.3</ele>
        <time>2022-05-24T09:51:00Z</time>
      </trkpt>
      <trkpt lat="44.87526" lon="1.77025">
        <ele>363.3</ele>
        <time>2022-05-24T09:51:01Z</time>
      </trkpt>
      <trkpt lat="44.87526" lon="1.77024">
        <ele>363.3</ele>
        <time>2022-05-24T09:51:02Z</time>
      </trkpt>
      <trkpt lat="44.87524" lon="1.77021">
        <ele>363.3</ele>
        <time>2022-05-24T09:51:03Z</time>
      </trkpt>
      <trkpt lat="44.87523" lon="1.77019">
        <ele>363.3</ele>
        <time>2022-05-24T09:51:04Z</time>
      </trkpt>
      <trkpt lat="44.87521" lon="1.77015">
        <ele>365.4</ele>
        <time>2022-05-24T09:51:05Z</time>
      </trkpt>
      <trkpt lat="44.87521" lon="1.77013">
        <ele>365.4</ele>
        <time>2022-05-24T09:51:06Z</time>
      </trkpt>
      <trkpt lat="44.8752" lon="1.77011">
        <ele>365.4</ele>
        <time>2022-05-24T09:51:07Z</time>
      </trkpt>
      <trkpt lat="44.8752" lon="1.77009">
        <ele>365.4</ele>
        <time>2022-05-24T09:51:08Z</time>
      </trkpt>
      <trkpt lat="44.87518" lon="1.77005">
        <ele>365.4</ele>
        <time>2022-05-24T09:51:09Z</time>
      </trkpt>
      <trkpt lat="44.87518" lon="1.77004">
        <ele>365.4</ele>
        <time>2022-05-24T09:51:10Z</time>
      </trkpt>
      <trkpt lat="44.87515" lon="1.77">
        <ele>365.4</ele>
        <time>2022-05-24T09:51:11Z</time>
      </trkpt>
      <trkpt lat="44.87514" lon="1.76999">
        <ele>365.8</ele>
        <time>2022-05-24T09:51:12Z</time>
      </trkpt>
      <trkpt lat="44.87511" lon="1.76996">
        <ele>365.8</ele>
        <time>2022-05-24T09:51:13Z</time>
      </trkpt>
      <trkpt lat="44.87511" lon="1.76995">
        <ele>365.8</ele>
        <time>2022-05-24T09:51:14Z</time>
      </trkpt>
      <trkpt lat="44.87508" lon="1.76993">
        <ele>367.7</ele>
        <time>2022-05-24T09:51:15Z</time>
      </trkpt>
      <trkpt lat="44.87507" lon="1.76992">
        <ele>367.7</ele>
        <time>2022-05-24T09:51:16Z</time>
      </trkpt>
      <trkpt lat="44.87506" lon="1.76991">
        <ele>367.7</ele>
        <time>2022-05-24T09:51:17Z</time>
      </trkpt>
      <trkpt lat="44.87505" lon="1.76989">
        <ele>367.7</ele>
        <time>2022-05-24T09:51:18Z</time>
      </trkpt>
      <trkpt lat="44.87503" lon="1.76986">
        <ele>367.7</ele>
        <time>2022-05-24T09:51:19Z</time>
      </trkpt>
      <trkpt lat="44.87502" lon="1.76985">
        <ele>367.7</ele>
        <time>2022-05-24T09:51:20Z</time>
      </trkpt>
      <trkpt lat="44.875" lon="1.76982">
        <ele>367.7</ele>
        <time>2022-05-24T09:51:21Z</time>
      </trkpt>
      <trkpt lat="44.87499" lon="1.7698">
        <ele>367.7</ele>
        <time>2022-05-24T09:51:22Z</time>
      </trkpt>
      <trkpt lat="44.87497" lon="1.76977">
        <ele>367.7</ele>
        <time>2022-05-24T09:51:23Z</time>
      </trkpt>
      <trkpt lat="44.87497" lon="1.76976">
        <ele>369.5</ele>
        <time>2022-05-24T09:51:24Z</time>
      </trkpt>
      <trkpt lat="44.87495" lon="1.76973">
        <ele>369.5</ele>
        <time>2022-05-24T09:51:25Z</time>
      </trkpt>
      <trkpt lat="44.87494" lon="1.76971">
        <ele>369.6</ele>
        <time>2022-05-24T09:51:26Z</time>
      </trkpt>
      <trkpt lat="44.87493" lon="1.76968">
        <ele>369.6</ele>
        <time>2022-05-24T09:51:27Z</time>
      </trkpt>
      <trkpt lat="44.87493" lon="1.76962">
        <ele>369.5</ele>
        <time>2022-05-24T09:51:28Z</time>
      </trkpt>
      <trkpt lat="44.87493" lon="1.76961">
        <ele>369.5</ele>
        <time>2022-05-24T09:51:29Z</time>
      </trkpt>
      <trkpt lat="44.87492" lon="1.76956">
        <ele>369.5</ele>
        <time>2022-05-24T09:51:30Z</time>
      </trkpt>
      <trkpt lat="44.87491" lon="1.76953">
        <ele>369.5</ele>
        <time>2022-05-24T09:51:31Z</time>
      </trkpt>
      <trkpt lat="44.8749" lon="1.76947">
        <ele>369.7</ele>
        <time>2022-05-24T09:51:32Z</time>
      </trkpt>
      <trkpt lat="44.8749" lon="1.76945">
        <ele>369.7</ele>
        <time>2022-05-24T09:51:33Z</time>
      </trkpt>
      <trkpt lat="44.87489" lon="1.76941">
        <ele>369.7</ele>
        <time>2022-05-24T09:51:34Z</time>
      </trkpt>
      <trkpt lat="44.87488" lon="1.76938">
        <ele>369.7</ele>
        <time>2022-05-24T09:51:35Z</time>
      </trkpt>
      <trkpt lat="44.87488" lon="1.76932">
        <ele>369.7</ele>
        <time>2022-05-24T09:51:36Z</time>
      </trkpt>
      <trkpt lat="44.87488" lon="1.7693">
        <ele>370.1</ele>
        <time>2022-05-24T09:51:37Z</time>
      </trkpt>
      <trkpt lat="44.87487" lon="1.76925">
        <ele>370.1</ele>
        <time>2022-05-24T09:51:38Z</time>
      </trkpt>
      <trkpt lat="44.87487" lon="1.76923">
        <ele>370.1</ele>
        <time>2022-05-24T09:51:39Z</time>
      </trkpt>
      <trkpt lat="44.87487" lon="1.76919">
        <ele>370.2</ele>
        <time>2022-05-24T09:51:40Z</time>
      </trkpt>
      <trkpt lat="44.87487" lon="1.76914">
        <ele>370.5</ele>
        <time>2022-05-24T09:51:41Z</time>
      </trkpt>
      <trkpt lat="44.87487" lon="1.7691">
        <ele>370.5</ele>
        <time>2022-05-24T09:51:42Z</time>
      </trkpt>
      <trkpt lat="44.87487" lon="1.76905">
        <ele>370.5</ele>
        <time>2022-05-24T09:51:43Z</time>
      </trkpt>
      <trkpt lat="44.87487" lon="1.76901">
        <ele>370.6</ele>
        <time>2022-05-24T09:51:44Z</time>
      </trkpt>
      <trkpt lat="44.87487" lon="1.76897">
        <ele>370.6</ele>
        <time>2022-05-24T09:51:45Z</time>
      </trkpt>
      <trkpt lat="44.87487" lon="1.76893">
        <ele>370.7</ele>
        <time>2022-05-24T09:51:46Z</time>
      </trkpt>
      <trkpt lat="44.87486" lon="1.76889">
        <ele>370.7</ele>
        <time>2022-05-24T09:51:47Z</time>
      </trkpt>
      <trkpt lat="44.87486" lon="1.76887">
        <ele>370.7</ele>
        <time>2022-05-24T09:51:48Z</time>
      </trkpt>
      <trkpt lat="44.87485" lon="1.76882">
        <ele>370.8</ele>
        <time>2022-05-24T09:51:49Z</time>
      </trkpt>
      <trkpt lat="44.87485" lon="1.76881">
        <ele>370.8</ele>
        <time>2022-05-24T09:51:50Z</time>
      </trkpt>
      <trkpt lat="44.87484" lon="1.76877">
        <ele>371.8</ele>
        <time>2022-05-24T09:51:51Z</time>
      </trkpt>
      <trkpt lat="44.87484" lon="1.76873">
        <ele>371.8</ele>
        <time>2022-05-24T09:51:52Z</time>
      </trkpt>
      <trkpt lat="44.87483" lon="1.76869">
        <ele>371.8</ele>
        <time>2022-05-24T09:51:53Z</time>
      </trkpt>
      <trkpt lat="44.87483" lon="1.76864">
        <ele>371.8</ele>
        <time>2022-05-24T09:51:54Z</time>
      </trkpt>
      <trkpt lat="44.87483" lon="1.76863">
        <ele>371.4</ele>
        <time>2022-05-24T09:51:55Z</time>
      </trkpt>
      <trkpt lat="44.87482" lon="1.76859">
        <ele>371.4</ele>
        <time>2022-05-24T09:51:56Z</time>
      </trkpt>
      <trkpt lat="44.87482" lon="1.76857">
        <ele>371.4</ele>
        <time>2022-05-24T09:51:57Z</time>
      </trkpt>
      <trkpt lat="44.87483" lon="1.76853">
        <ele>371.5</ele>
        <time>2022-05-24T09:51:58Z</time>
      </trkpt>
      <trkpt lat="44.87483" lon="1.76848">
        <ele>371.5</ele>
        <time>2022-05-24T09:51:59Z</time>
      </trkpt>
      <trkpt lat="44.87484" lon="1.76844">
        <ele>371.2</ele>
        <time>2022-05-24T09:52:00Z</time>
      </trkpt>
      <trkpt lat="44.87485" lon="1.76839">
        <ele>370.6</ele>
        <time>2022-05-24T09:52:01Z</time>
      </trkpt>
      <trkpt lat="44.87486" lon="1.76835">
        <ele>370.6</ele>
        <time>2022-05-24T09:52:02Z</time>
      </trkpt>
      <trkpt lat="44.87487" lon="1.76831">
        <ele>370.6</ele>
        <time>2022-05-24T09:52:03Z</time>
      </trkpt>
      <trkpt lat="44.87488" lon="1.76828">
        <ele>370.6</ele>
        <time>2022-05-24T09:52:04Z</time>
      </trkpt>
      <trkpt lat="44.87489" lon="1.76824">
        <ele>370.7</ele>
        <time>2022-05-24T09:52:05Z</time>
      </trkpt>
      <trkpt lat="44.87489" lon="1.7682">
        <ele>370.7</ele>
        <time>2022-05-24T09:52:06Z</time>
      </trkpt>
      <trkpt lat="44.87489" lon="1.76815">
        <ele>370.7</ele>
        <time>2022-05-24T09:52:07Z</time>
      </trkpt>
      <trkpt lat="44.8749" lon="1.76813">
        <ele>370.7</ele>
        <time>2022-05-24T09:52:08Z</time>
      </trkpt>
      <trkpt lat="44.87491" lon="1.76804">
        <ele>370.9</ele>
        <time>2022-05-24T09:52:09Z</time>
      </trkpt>
      <trkpt lat="44.87492" lon="1.76797">
        <ele>370.9</ele>
        <time>2022-05-24T09:52:14Z</time>
      </trkpt>
      <trkpt lat="44.87493" lon="1.76791">
        <ele>371.3</ele>
        <time>2022-05-24T09:52:15Z</time>
      </trkpt>
      <trkpt lat="44.87493" lon="1.76785">
        <ele>371.3</ele>
        <time>2022-05-24T09:52:16Z</time>
      </trkpt>
      <trkpt lat="44.87494" lon="1.76779">
        <ele>371.3</ele>
        <time>2022-05-24T09:52:17Z</time>
      </trkpt>
      <trkpt lat="44.87495" lon="1.76775">
        <ele>371.8</ele>
        <time>2022-05-24T09:52:18Z</time>
      </trkpt>
      <trkpt lat="44.87495" lon="1.7677">
        <ele>371.8</ele>
        <time>2022-05-24T09:52:19Z</time>
      </trkpt>
      <trkpt lat="44.87495" lon="1.76766">
        <ele>371.8</ele>
        <time>2022-05-24T09:52:20Z</time>
      </trkpt>
      <trkpt lat="44.87495" lon="1.76761">
        <ele>371.8</ele>
        <time>2022-05-24T09:52:21Z</time>
      </trkpt>
      <trkpt lat="44.87496" lon="1.76756">
        <ele>372.3</ele>
        <time>2022-05-24T09:52:22Z</time>
      </trkpt>
      <trkpt lat="44.87498" lon="1.76747">
        <ele>372</ele>
        <time>2022-05-24T09:52:24Z</time>
      </trkpt>
      <trkpt lat="44.87499" lon="1.76742">
        <ele>372.5</ele>
        <time>2022-05-24T09:52:25Z</time>
      </trkpt>
      <trkpt lat="44.87501" lon="1.76738">
        <ele>372.5</ele>
        <time>2022-05-24T09:52:26Z</time>
      </trkpt>
      <trkpt lat="44.87504" lon="1.76734">
        <ele>372.5</ele>
        <time>2022-05-24T09:52:27Z</time>
      </trkpt>
      <trkpt lat="44.87507" lon="1.7673">
        <ele>372.5</ele>
        <time>2022-05-24T09:52:28Z</time>
      </trkpt>
      <trkpt lat="44.8751" lon="1.76726">
        <ele>372.2</ele>
        <time>2022-05-24T09:52:29Z</time>
      </trkpt>
      <trkpt lat="44.87512" lon="1.76722">
        <ele>372.8</ele>
        <time>2022-05-24T09:52:30Z</time>
      </trkpt>
      <trkpt lat="44.87515" lon="1.76719">
        <ele>372.8</ele>
        <time>2022-05-24T09:52:31Z</time>
      </trkpt>
      <trkpt lat="44.87518" lon="1.76715">
        <ele>372.8</ele>
        <time>2022-05-24T09:52:32Z</time>
      </trkpt>
      <trkpt lat="44.8752" lon="1.76711">
        <ele>372.8</ele>
        <time>2022-05-24T09:52:33Z</time>
      </trkpt>
      <trkpt lat="44.87522" lon="1.76708">
        <ele>373.1</ele>
        <time>2022-05-24T09:52:34Z</time>
      </trkpt>
      <trkpt lat="44.87524" lon="1.76704">
        <ele>373.1</ele>
        <time>2022-05-24T09:52:35Z</time>
      </trkpt>
      <trkpt lat="44.87526" lon="1.767">
        <ele>373.1</ele>
        <time>2022-05-24T09:52:36Z</time>
      </trkpt>
      <trkpt lat="44.87528" lon="1.76697">
        <ele>373.1</ele>
        <time>2022-05-24T09:52:37Z</time>
      </trkpt>
      <trkpt lat="44.87528" lon="1.76691">
        <ele>373.2</ele>
        <time>2022-05-24T09:52:38Z</time>
      </trkpt>
      <trkpt lat="44.87528" lon="1.7669">
        <ele>373.7</ele>
        <time>2022-05-24T09:52:39Z</time>
      </trkpt>
      <trkpt lat="44.87525" lon="1.76687">
        <ele>373.7</ele>
        <time>2022-05-24T09:52:40Z</time>
      </trkpt>
      <trkpt lat="44.8752" lon="1.76686">
        <ele>373.6</ele>
        <time>2022-05-24T09:52:41Z</time>
      </trkpt>
      <trkpt lat="44.87515" lon="1.76687">
        <ele>373.6</ele>
        <time>2022-05-24T09:52:42Z</time>
      </trkpt>
      <trkpt lat="44.8751" lon="1.76687">
        <ele>373.5</ele>
        <time>2022-05-24T09:52:43Z</time>
      </trkpt>
      <trkpt lat="44.87506" lon="1.76686">
        <ele>373.4</ele>
        <time>2022-05-24T09:52:44Z</time>
      </trkpt>
      <trkpt lat="44.87502" lon="1.76683">
        <ele>373.3</ele>
        <time>2022-05-24T09:52:45Z</time>
      </trkpt>
      <trkpt lat="44.87499" lon="1.76679">
        <ele>373.1</ele>
        <time>2022-05-24T09:52:46Z</time>
      </trkpt>
      <trkpt lat="44.87495" lon="1.76675">
        <ele>373</ele>
        <time>2022-05-24T09:52:47Z</time>
      </trkpt>
      <trkpt lat="44.87493" lon="1.76671">
        <ele>372.8</ele>
        <time>2022-05-24T09:52:48Z</time>
      </trkpt>
      <trkpt lat="44.8749" lon="1.76665">
        <ele>372.7</ele>
        <time>2022-05-24T09:52:49Z</time>
      </trkpt>
      <trkpt lat="44.87487" lon="1.76659">
        <ele>372.5</ele>
        <time>2022-05-24T09:52:50Z</time>
      </trkpt>
      <trkpt lat="44.87485" lon="1.76653">
        <ele>372.4</ele>
        <time>2022-05-24T09:52:51Z</time>
      </trkpt>
      <trkpt lat="44.87482" lon="1.76647">
        <ele>372.2</ele>
        <time>2022-05-24T09:52:52Z</time>
      </trkpt>
      <trkpt lat="44.8748" lon="1.76642">
        <ele>372.1</ele>
        <time>2022-05-24T09:52:53Z</time>
      </trkpt>
      <trkpt lat="44.87478" lon="1.76636">
        <ele>372</ele>
        <time>2022-05-24T09:52:54Z</time>
      </trkpt>
      <trkpt lat="44.87476" lon="1.76629">
        <ele>371.8</ele>
        <time>2022-05-24T09:52:55Z</time>
      </trkpt>
      <trkpt lat="44.87475" lon="1.76622">
        <ele>371.6</ele>
        <time>2022-05-24T09:52:56Z</time>
      </trkpt>
      <trkpt lat="44.87474" lon="1.76615">
        <ele>371.5</ele>
        <time>2022-05-24T09:52:57Z</time>
      </trkpt>
      <trkpt lat="44.87473" lon="1.76608">
        <ele>371.3</ele>
        <time>2022-05-24T09:52:58Z</time>
      </trkpt>
      <trkpt lat="44.87471" lon="1.76601">
        <ele>371.2</ele>
        <time>2022-05-24T09:52:59Z</time>
      </trkpt>
      <trkpt lat="44.8747" lon="1.76594">
        <ele>371.1</ele>
        <time>2022-05-24T09:53:00Z</time>
      </trkpt>
      <trkpt lat="44.87469" lon="1.76588">
        <ele>371</ele>
        <time>2022-05-24T09:53:01Z</time>
      </trkpt>
      <trkpt lat="44.87467" lon="1.76582">
        <ele>370.9</ele>
        <time>2022-05-24T09:53:02Z</time>
      </trkpt>
      <trkpt lat="44.87465" lon="1.76577">
        <ele>370.8</ele>
        <time>2022-05-24T09:53:03Z</time>
      </trkpt>
      <trkpt lat="44.87463" lon="1.76572">
        <ele>370.7</ele>
        <time>2022-05-24T09:53:04Z</time>
      </trkpt>
      <trkpt lat="44.8746" lon="1.76566">
        <ele>370.6</ele>
        <time>2022-05-24T09:53:05Z</time>
      </trkpt>
      <trkpt lat="44.87458" lon="1.7656">
        <ele>370.5</ele>
        <time>2022-05-24T09:53:06Z</time>
      </trkpt>
      <trkpt lat="44.87457" lon="1.76557">
        <ele>370.4</ele>
        <time>2022-05-24T09:53:07Z</time>
      </trkpt>
      <trkpt lat="44.87456" lon="1.76556">
        <ele>370.4</ele>
        <time>2022-05-24T09:53:08Z</time>
      </trkpt>
      <trkpt lat="44.87456" lon="1.76557">
        <ele>370.4</ele>
        <time>2022-05-24T09:53:09Z</time>
      </trkpt>
      <trkpt lat="44.87456" lon="1.76558">
        <ele>370.4</ele>
        <time>2022-05-24T09:53:10Z</time>
      </trkpt>
      <trkpt lat="44.87456" lon="1.76558">
        <ele>370.4</ele>
        <time>2022-05-24T09:53:11Z</time>
      </trkpt>
      <trkpt lat="44.87456" lon="1.76558">
        <ele>370.4</ele>
        <time>2022-05-24T09:53:12Z</time>
      </trkpt>
      <trkpt lat="44.87456" lon="1.76558">
        <ele>370.4</ele>
        <time>2022-05-24T09:53:13Z</time>
      </trkpt>
      <trkpt lat="44.87456" lon="1.76558">
        <ele>370.4</ele>
        <time>2022-05-24T09:53:14Z</time>
      </trkpt>
      <trkpt lat="44.87456" lon="1.76558">
        <ele>370.4</ele>
        <time>2022-05-24T09:53:15Z</time>
      </trkpt>
      <trkpt lat="44.87456" lon="1.76559">
        <ele>370.4</ele>
        <time>2022-05-24T09:53:16Z</time>
      </trkpt>
      <trkpt lat="44.87456" lon="1.76559">
        <ele>370.4</ele>
        <time>2022-05-24T09:53:17Z</time>
      </trkpt>
      <trkpt lat="44.87456" lon="1.76559">
        <ele>370.4</ele>
        <time>2022-05-24T09:53:18Z</time>
      </trkpt>
      <trkpt lat="44.87456" lon="1.76559">
        <ele>370.4</ele>
        <time>2022-05-24T09:53:19Z</time>
      </trkpt>
      <trkpt lat="44.87456" lon="1.76558">
        <ele>370.4</ele>
        <time>2022-05-24T09:53:20Z</time>
      </trkpt>
      <trkpt lat="44.87456" lon="1.76561">
        <ele>370.3</ele>
        <time>2022-05-24T09:54:56Z</time>
      </trkpt>
      <trkpt lat="44.87456" lon="1.76562">
        <ele>370.3</ele>
        <time>2022-05-24T09:54:57Z</time>
      </trkpt>
      <trkpt lat="44.87455" lon="1.76563">
        <ele>370.3</ele>
        <time>2022-05-24T09:54:58Z</time>
      </trkpt>
      <trkpt lat="44.87455" lon="1.76563">
        <ele>370.3</ele>
        <time>2022-05-24T09:54:59Z</time>
      </trkpt>
      <trkpt lat="44.87455" lon="1.76562">
        <ele>370.3</ele>
        <time>2022-05-24T09:55:00Z</time>
      </trkpt>
      <trkpt lat="44.87455" lon="1.76562">
        <ele>370.3</ele>
        <time>2022-05-24T09:55:01Z</time>
      </trkpt>
      <trkpt lat="44.87455" lon="1.76561">
        <ele>370.3</ele>
        <time>2022-05-24T09:55:02Z</time>
      </trkpt>
      <trkpt lat="44.87455" lon="1.76561">
        <ele>370.3</ele>
        <time>2022-05-24T09:55:03Z</time>
      </trkpt>
      <trkpt lat="44.87455" lon="1.7656">
        <ele>370.2</ele>
        <time>2022-05-24T09:55:04Z</time>
      </trkpt>
      <trkpt lat="44.87456" lon="1.76559">
        <ele>370.2</ele>
        <time>2022-05-24T09:55:05Z</time>
      </trkpt>
      <trkpt lat="44.87457" lon="1.76557">
        <ele>370.2</ele>
        <time>2022-05-24T09:55:06Z</time>
      </trkpt>
      <trkpt lat="44.87457" lon="1.76557">
        <ele>370.2</ele>
        <time>2022-05-24T09:55:07Z</time>
      </trkpt>
      <trkpt lat="44.87456" lon="1.76558">
        <ele>370.2</ele>
        <time>2022-05-24T09:55:08Z</time>
      </trkpt>
      <trkpt lat="44.87456" lon="1.76558">
        <ele>370.2</ele>
        <time>2022-05-24T09:55:09Z</time>
      </trkpt>
      <trkpt lat="44.87456" lon="1.76559">
        <ele>370.1</ele>
        <time>2022-05-24T09:55:10Z</time>
      </trkpt>
      <trkpt lat="44.87457" lon="1.76559">
        <ele>370.1</ele>
        <time>2022-05-24T09:55:11Z</time>
      </trkpt>
      <trkpt lat="44.87457" lon="1.7656">
        <ele>370.1</ele>
        <time>2022-05-24T09:55:12Z</time>
      </trkpt>
      <trkpt lat="44.87457" lon="1.76559">
        <ele>370.1</ele>
        <time>2022-05-24T09:55:13Z</time>
      </trkpt>
      <trkpt lat="44.87456" lon="1.7656">
        <ele>370.1</ele>
        <time>2022-05-24T09:55:14Z</time>
      </trkpt>
      <trkpt lat="44.87456" lon="1.76562">
        <ele>370</ele>
        <time>2022-05-24T09:55:15Z</time>
      </trkpt>
      <trkpt lat="44.87456" lon="1.76563">
        <ele>370</ele>
        <time>2022-05-24T09:55:16Z</time>
      </trkpt>
      <trkpt lat="44.87455" lon="1.76564">
        <ele>369.9</ele>
        <time>2022-05-24T09:55:17Z</time>
      </trkpt>
      <trkpt lat="44.87455" lon="1.76565">
        <ele>369.9</ele>
        <time>2022-05-24T09:55:18Z</time>
      </trkpt>
      <trkpt lat="44.87455" lon="1.76564">
        <ele>369.9</ele>
        <time>2022-05-24T09:55:19Z</time>
      </trkpt>
      <trkpt lat="44.87455" lon="1.76563">
        <ele>369.9</ele>
        <time>2022-05-24T09:55:20Z</time>
      </trkpt>
      <trkpt lat="44.87454" lon="1.76563">
        <ele>369.9</ele>
        <time>2022-05-24T09:55:21Z</time>
      </trkpt>
      <trkpt lat="44.87454" lon="1.76562">
        <ele>369.9</ele>
        <time>2022-05-24T09:55:22Z</time>
      </trkpt>
      <trkpt lat="44.87454" lon="1.76562">
        <ele>369.8</ele>
        <time>2022-05-24T09:55:26Z</time>
      </trkpt>
      <trkpt lat="44.87454" lon="1.76561">
        <ele>369.8</ele>
        <time>2022-05-24T09:55:27Z</time>
      </trkpt>
      <trkpt lat="44.87454" lon="1.76561">
        <ele>369.8</ele>
        <time>2022-05-24T09:55:28Z</time>
      </trkpt>
      <trkpt lat="44.87453" lon="1.7656">
        <ele>369.8</ele>
        <time>2022-05-24T09:55:29Z</time>
      </trkpt>
      <trkpt lat="44.87453" lon="1.7656">
        <ele>369.8</ele>
        <time>2022-05-24T09:55:30Z</time>
      </trkpt>
      <trkpt lat="44.87453" lon="1.7656">
        <ele>369.8</ele>
        <time>2022-05-24T09:55:31Z</time>
      </trkpt>
      <trkpt lat="44.87453" lon="1.76559">
        <ele>369.7</ele>
        <time>2022-05-24T09:55:32Z</time>
      </trkpt>
      <trkpt lat="44.87453" lon="1.76559">
        <ele>369.7</ele>
        <time>2022-05-24T09:55:33Z</time>
      </trkpt>
      <trkpt lat="44.87452" lon="1.76558">
        <ele>369.7</ele>
        <time>2022-05-24T09:55:34Z</time>
      </trkpt>
      <trkpt lat="44.87452" lon="1.76558">
        <ele>369.7</ele>
        <time>2022-05-24T09:55:35Z</time>
      </trkpt>
      <trkpt lat="44.87452" lon="1.76557">
        <ele>369.7</ele>
        <time>2022-05-24T09:55:36Z</time>
      </trkpt>
      <trkpt lat="44.87452" lon="1.76557">
        <ele>369.7</ele>
        <time>2022-05-24T09:55:37Z</time>
      </trkpt>
      <trkpt lat="44.87452" lon="1.76557">
        <ele>369.7</ele>
        <time>2022-05-24T09:55:55Z</time>
      </trkpt>
      <trkpt lat="44.87451" lon="1.76556">
        <ele>369.6</ele>
        <time>2022-05-24T09:55:56Z</time>
      </trkpt>
      <trkpt lat="44.8745" lon="1.7655">
        <ele>369.5</ele>
        <time>2022-05-24T09:55:57Z</time>
      </trkpt>
      <trkpt lat="44.87448" lon="1.76544">
        <ele>369.3</ele>
        <time>2022-05-24T09:55:58Z</time>
      </trkpt>
      <trkpt lat="44.87446" lon="1.76536">
        <ele>369</ele>
        <time>2022-05-24T09:55:59Z</time>
      </trkpt>
      <trkpt lat="44.87443" lon="1.76528">
        <ele>368.8</ele>
        <time>2022-05-24T09:56:00Z</time>
      </trkpt>
      <trkpt lat="44.87441" lon="1.76522">
        <ele>368.6</ele>
        <time>2022-05-24T09:56:01Z</time>
      </trkpt>
      <trkpt lat="44.87438" lon="1.76515">
        <ele>368.5</ele>
        <time>2022-05-24T09:56:02Z</time>
      </trkpt>
      <trkpt lat="44.87435" lon="1.76508">
        <ele>368.4</ele>
        <time>2022-05-24T09:56:03Z</time>
      </trkpt>
      <trkpt lat="44.87432" lon="1.76501">
        <ele>368.1</ele>
        <time>2022-05-24T09:56:04Z</time>
      </trkpt>
      <trkpt lat="44.87429" lon="1.76494">
        <ele>367.7</ele>
        <time>2022-05-24T09:56:05Z</time>
      </trkpt>
      <trkpt lat="44.87425" lon="1.76486">
        <ele>367.4</ele>
        <time>2022-05-24T09:56:06Z</time>
      </trkpt>
      <trkpt lat="44.87422" lon="1.76479">
        <ele>367</ele>
        <time>2022-05-24T09:56:07Z</time>
      </trkpt>
      <trkpt lat="44.87418" lon="1.76472">
        <ele>366.8</ele>
        <time>2022-05-24T09:56:08Z</time>
      </trkpt>
      <trkpt lat="44.87413" lon="1.76464">
        <ele>366.7</ele>
        <time>2022-05-24T09:56:09Z</time>
      </trkpt>
      <trkpt lat="44.87409" lon="1.76456">
        <ele>366.6</ele>
        <time>2022-05-24T09:56:10Z</time>
      </trkpt>
      <trkpt lat="44.87405" lon="1.76446">
        <ele>366.5</ele>
        <time>2022-05-24T09:56:11Z</time>
      </trkpt>
      <trkpt lat="44.874" lon="1.76439">
        <ele>366.4</ele>
        <time>2022-05-24T09:56:12Z</time>
      </trkpt>
      <trkpt lat="44.87396" lon="1.7643">
        <ele>366.3</ele>
        <time>2022-05-24T09:56:13Z</time>
      </trkpt>
      <trkpt lat="44.87392" lon="1.76423">
        <ele>366.3</ele>
        <time>2022-05-24T09:56:14Z</time>
      </trkpt>
      <trkpt lat="44.87389" lon="1.76416">
        <ele>366.3</ele>
        <time>2022-05-24T09:56:15Z</time>
      </trkpt>
      <trkpt lat="44.87385" lon="1.76409">
        <ele>366.2</ele>
        <time>2022-05-24T09:56:16Z</time>
      </trkpt>
      <trkpt lat="44.87381" lon="1.76403">
        <ele>366.2</ele>
        <time>2022-05-24T09:56:17Z</time>
      </trkpt>
      <trkpt lat="44.87378" lon="1.76395">
        <ele>366.1</ele>
        <time>2022-05-24T09:56:18Z</time>
      </trkpt>
      <trkpt lat="44.87374" lon="1.76389">
        <ele>366.1</ele>
        <time>2022-05-24T09:56:19Z</time>
      </trkpt>
      <trkpt lat="44.8737" lon="1.76383">
        <ele>366.1</ele>
        <time>2022-05-24T09:56:20Z</time>
      </trkpt>
      <trkpt lat="44.87367" lon="1.76376">
        <ele>366.1</ele>
        <time>2022-05-24T09:56:21Z</time>
      </trkpt>
      <trkpt lat="44.87364" lon="1.76367">
        <ele>366</ele>
        <time>2022-05-24T09:56:22Z</time>
      </trkpt>
      <trkpt lat="44.87362" lon="1.76358">
        <ele>365.9</ele>
        <time>2022-05-24T09:56:23Z</time>
      </trkpt>
      <trkpt lat="44.87361" lon="1.76351">
        <ele>365.9</ele>
        <time>2022-05-24T09:56:24Z</time>
      </trkpt>
      <trkpt lat="44.8736" lon="1.76343">
        <ele>365.8</ele>
        <time>2022-05-24T09:56:25Z</time>
      </trkpt>
      <trkpt lat="44.87361" lon="1.76335">
        <ele>365.8</ele>
        <time>2022-05-24T09:56:26Z</time>
      </trkpt>
      <trkpt lat="44.87361" lon="1.76327">
        <ele>365.8</ele>
        <time>2022-05-24T09:56:27Z</time>
      </trkpt>
      <trkpt lat="44.87361" lon="1.76318">
        <ele>365.7</ele>
        <time>2022-05-24T09:56:28Z</time>
      </trkpt>
      <trkpt lat="44.87361" lon="1.76311">
        <ele>365.7</ele>
        <time>2022-05-24T09:56:29Z</time>
      </trkpt>
      <trkpt lat="44.87361" lon="1.76302">
        <ele>365.6</ele>
        <time>2022-05-24T09:56:30Z</time>
      </trkpt>
      <trkpt lat="44.87361" lon="1.76294">
        <ele>365.5</ele>
        <time>2022-05-24T09:56:31Z</time>
      </trkpt>
      <trkpt lat="44.87361" lon="1.76286">
        <ele>365.3</ele>
        <time>2022-05-24T09:56:32Z</time>
      </trkpt>
      <trkpt lat="44.87361" lon="1.76277">
        <ele>365</ele>
        <time>2022-05-24T09:56:33Z</time>
      </trkpt>
      <trkpt lat="44.87361" lon="1.76269">
        <ele>364.6</ele>
        <time>2022-05-24T09:56:34Z</time>
      </trkpt>
      <trkpt lat="44.87361" lon="1.76261">
        <ele>364.1</ele>
        <time>2022-05-24T09:56:35Z</time>
      </trkpt>
      <trkpt lat="44.87362" lon="1.76252">
        <ele>363.3</ele>
        <time>2022-05-24T09:56:36Z</time>
      </trkpt>
      <trkpt lat="44.87362" lon="1.76242">
        <ele>362.4</ele>
        <time>2022-05-24T09:56:37Z</time>
      </trkpt>
      <trkpt lat="44.87362" lon="1.76231">
        <ele>361.8</ele>
        <time>2022-05-24T09:56:38Z</time>
      </trkpt>
      <trkpt lat="44.87361" lon="1.7622">
        <ele>361.4</ele>
        <time>2022-05-24T09:56:39Z</time>
      </trkpt>
      <trkpt lat="44.87357" lon="1.76211">
        <ele>361.1</ele>
        <time>2022-05-24T09:56:40Z</time>
      </trkpt>
      <trkpt lat="44.87353" lon="1.76202">
        <ele>360.9</ele>
        <time>2022-05-24T09:56:41Z</time>
      </trkpt>
      <trkpt lat="44.87349" lon="1.76192">
        <ele>360.7</ele>
        <time>2022-05-24T09:56:42Z</time>
      </trkpt>
      <trkpt lat="44.87347" lon="1.76181">
        <ele>360.6</ele>
        <time>2022-05-24T09:56:43Z</time>
      </trkpt>
      <trkpt lat="44.87345" lon="1.7617">
        <ele>360.5</ele>
        <time>2022-05-24T09:56:44Z</time>
      </trkpt>
      <trkpt lat="44.87343" lon="1.7616">
        <ele>360.6</ele>
        <time>2022-05-24T09:56:45Z</time>
      </trkpt>
      <trkpt lat="44.87342" lon="1.7615">
        <ele>360.7</ele>
        <time>2022-05-24T09:56:46Z</time>
      </trkpt>
      <trkpt lat="44.87342" lon="1.76139">
        <ele>360.8</ele>
        <time>2022-05-24T09:56:47Z</time>
      </trkpt>
      <trkpt lat="44.87341" lon="1.7613">
        <ele>361</ele>
        <time>2022-05-24T09:56:48Z</time>
      </trkpt>
      <trkpt lat="44.87341" lon="1.76121">
        <ele>361.2</ele>
        <time>2022-05-24T09:56:49Z</time>
      </trkpt>
      <trkpt lat="44.87342" lon="1.76111">
        <ele>361.5</ele>
        <time>2022-05-24T09:56:50Z</time>
      </trkpt>
      <trkpt lat="44.87342" lon="1.76102">
        <ele>361.7</ele>
        <time>2022-05-24T09:56:51Z</time>
      </trkpt>
      <trkpt lat="44.87342" lon="1.76093">
        <ele>362</ele>
        <time>2022-05-24T09:56:52Z</time>
      </trkpt>
      <trkpt lat="44.8734" lon="1.76084">
        <ele>362.2</ele>
        <time>2022-05-24T09:56:53Z</time>
      </trkpt>
      <trkpt lat="44.87339" lon="1.76076">
        <ele>362.4</ele>
        <time>2022-05-24T09:56:54Z</time>
      </trkpt>
      <trkpt lat="44.87338" lon="1.76068">
        <ele>362.6</ele>
        <time>2022-05-24T09:56:55Z</time>
      </trkpt>
      <trkpt lat="44.87336" lon="1.76061">
        <ele>362.7</ele>
        <time>2022-05-24T09:56:56Z</time>
      </trkpt>
      <trkpt lat="44.87334" lon="1.76054">
        <ele>362.9</ele>
        <time>2022-05-24T09:56:57Z</time>
      </trkpt>
      <trkpt lat="44.87333" lon="1.76046">
        <ele>363</ele>
        <time>2022-05-24T09:56:58Z</time>
      </trkpt>
      <trkpt lat="44.87332" lon="1.76039">
        <ele>363.1</ele>
        <time>2022-05-24T09:56:59Z</time>
      </trkpt>
      <trkpt lat="44.8733" lon="1.76032">
        <ele>363.1</ele>
        <time>2022-05-24T09:57:00Z</time>
      </trkpt>
      <trkpt lat="44.87329" lon="1.76025">
        <ele>363.2</ele>
        <time>2022-05-24T09:57:01Z</time>
      </trkpt>
      <trkpt lat="44.87328" lon="1.76018">
        <ele>363.2</ele>
        <time>2022-05-24T09:57:02Z</time>
      </trkpt>
      <trkpt lat="44.87326" lon="1.76009">
        <ele>363.3</ele>
        <time>2022-05-24T09:57:03Z</time>
      </trkpt>
      <trkpt lat="44.87325" lon="1.76001">
        <ele>363.2</ele>
        <time>2022-05-24T09:57:04Z</time>
      </trkpt>
      <trkpt lat="44.87324" lon="1.75993">
        <ele>363.2</ele>
        <time>2022-05-24T09:57:05Z</time>
      </trkpt>
      <trkpt lat="44.87324" lon="1.75984">
        <ele>363.1</ele>
        <time>2022-05-24T09:57:06Z</time>
      </trkpt>
      <trkpt lat="44.87323" lon="1.75975">
        <ele>363</ele>
        <time>2022-05-24T09:57:07Z</time>
      </trkpt>
      <trkpt lat="44.87322" lon="1.75967">
        <ele>363</ele>
        <time>2022-05-24T09:57:08Z</time>
      </trkpt>
      <trkpt lat="44.87321" lon="1.75959">
        <ele>362.9</ele>
        <time>2022-05-24T09:57:09Z</time>
      </trkpt>
      <trkpt lat="44.87319" lon="1.75951">
        <ele>362.9</ele>
        <time>2022-05-24T09:57:10Z</time>
      </trkpt>
      <trkpt lat="44.87319" lon="1.75943">
        <ele>362.9</ele>
        <time>2022-05-24T09:57:11Z</time>
      </trkpt>
      <trkpt lat="44.87319" lon="1.75934">
        <ele>362.9</ele>
        <time>2022-05-24T09:57:12Z</time>
      </trkpt>
      <trkpt lat="44.87321" lon="1.75928">
        <ele>362.8</ele>
        <time>2022-05-24T09:57:13Z</time>
      </trkpt>
      <trkpt lat="44.87324" lon="1.75923">
        <ele>362.6</ele>
        <time>2022-05-24T09:57:14Z</time>
      </trkpt>
      <trkpt lat="44.87328" lon="1.7592">
        <ele>362.4</ele>
        <time>2022-05-24T09:57:15Z</time>
      </trkpt>
      <trkpt lat="44.87333" lon="1.75921">
        <ele>362.1</ele>
        <time>2022-05-24T09:57:16Z</time>
      </trkpt>
      <trkpt lat="44.87338" lon="1.75923">
        <ele>361.8</ele>
        <time>2022-05-24T09:57:17Z</time>
      </trkpt>
      <trkpt lat="44.87344" lon="1.75925">
        <ele>361.5</ele>
        <time>2022-05-24T09:57:18Z</time>
      </trkpt>
      <trkpt lat="44.8735" lon="1.75928">
        <ele>361.1</ele>
        <time>2022-05-24T09:57:19Z</time>
      </trkpt>
      <trkpt lat="44.87355" lon="1.75933">
        <ele>360.6</ele>
        <time>2022-05-24T09:57:20Z</time>
      </trkpt>
      <trkpt lat="44.87359" lon="1.75939">
        <ele>360.2</ele>
        <time>2022-05-24T09:57:21Z</time>
      </trkpt>
      <trkpt lat="44.87364" lon="1.75946">
        <ele>359.6</ele>
        <time>2022-05-24T09:57:22Z</time>
      </trkpt>
      <trkpt lat="44.87368" lon="1.75952">
        <ele>358.9</ele>
        <time>2022-05-24T09:57:23Z</time>
      </trkpt>
      <trkpt lat="44.87373" lon="1.75959">
        <ele>358.1</ele>
        <time>2022-05-24T09:57:24Z</time>
      </trkpt>
      <trkpt lat="44.87377" lon="1.75966">
        <ele>357.4</ele>
        <time>2022-05-24T09:57:25Z</time>
      </trkpt>
      <trkpt lat="44.87381" lon="1.75973">
        <ele>356.8</ele>
        <time>2022-05-24T09:57:26Z</time>
      </trkpt>
      <trkpt lat="44.87386" lon="1.75979">
        <ele>356.2</ele>
        <time>2022-05-24T09:57:27Z</time>
      </trkpt>
      <trkpt lat="44.87392" lon="1.75985">
        <ele>355.6</ele>
        <time>2022-05-24T09:57:28Z</time>
      </trkpt>
      <trkpt lat="44.87398" lon="1.7599">
        <ele>355</ele>
        <time>2022-05-24T09:57:29Z</time>
      </trkpt>
      <trkpt lat="44.87404" lon="1.75996">
        <ele>354.6</ele>
        <time>2022-05-24T09:57:30Z</time>
      </trkpt>
      <trkpt lat="44.8741" lon="1.76001">
        <ele>354.2</ele>
        <time>2022-05-24T09:57:31Z</time>
      </trkpt>
      <trkpt lat="44.87416" lon="1.76005">
        <ele>354</ele>
        <time>2022-05-24T09:57:32Z</time>
      </trkpt>
      <trkpt lat="44.87421" lon="1.76011">
        <ele>353.7</ele>
        <time>2022-05-24T09:57:33Z</time>
      </trkpt>
      <trkpt lat="44.87427" lon="1.76015">
        <ele>353.5</ele>
        <time>2022-05-24T09:57:34Z</time>
      </trkpt>
      <trkpt lat="44.87432" lon="1.76022">
        <ele>353.4</ele>
        <time>2022-05-24T09:57:35Z</time>
      </trkpt>
      <trkpt lat="44.87439" lon="1.76025">
        <ele>353.2</ele>
        <time>2022-05-24T09:57:36Z</time>
      </trkpt>
      <trkpt lat="44.87444" lon="1.76027">
        <ele>353.1</ele>
        <time>2022-05-24T09:57:37Z</time>
      </trkpt>
      <trkpt lat="44.8745" lon="1.7603">
        <ele>353.1</ele>
        <time>2022-05-24T09:57:38Z</time>
      </trkpt>
      <trkpt lat="44.87455" lon="1.76032">
        <ele>353</ele>
        <time>2022-05-24T09:57:39Z</time>
      </trkpt>
      <trkpt lat="44.87461" lon="1.76034">
        <ele>353</ele>
        <time>2022-05-24T09:57:40Z</time>
      </trkpt>
      <trkpt lat="44.87467" lon="1.76035">
        <ele>353</ele>
        <time>2022-05-24T09:57:41Z</time>
      </trkpt>
      <trkpt lat="44.87473" lon="1.76036">
        <ele>352.9</ele>
        <time>2022-05-24T09:57:42Z</time>
      </trkpt>
      <trkpt lat="44.87479" lon="1.76039">
        <ele>352.9</ele>
        <time>2022-05-24T09:57:43Z</time>
      </trkpt>
      <trkpt lat="44.87485" lon="1.76039">
        <ele>352.8</ele>
        <time>2022-05-24T09:57:44Z</time>
      </trkpt>
      <trkpt lat="44.87491" lon="1.76039">
        <ele>352.8</ele>
        <time>2022-05-24T09:57:45Z</time>
      </trkpt>
      <trkpt lat="44.87497" lon="1.7604">
        <ele>352.7</ele>
        <time>2022-05-24T09:57:46Z</time>
      </trkpt>
      <trkpt lat="44.87503" lon="1.7604">
        <ele>352.6</ele>
        <time>2022-05-24T09:57:47Z</time>
      </trkpt>
      <trkpt lat="44.87509" lon="1.76042">
        <ele>352.5</ele>
        <time>2022-05-24T09:57:48Z</time>
      </trkpt>
      <trkpt lat="44.87515" lon="1.76043">
        <ele>352.4</ele>
        <time>2022-05-24T09:57:49Z</time>
      </trkpt>
      <trkpt lat="44.87521" lon="1.76044">
        <ele>352.4</ele>
        <time>2022-05-24T09:57:50Z</time>
      </trkpt>
      <trkpt lat="44.87527" lon="1.76044">
        <ele>352.3</ele>
        <time>2022-05-24T09:57:51Z</time>
      </trkpt>
      <trkpt lat="44.87533" lon="1.76043">
        <ele>352.2</ele>
        <time>2022-05-24T09:57:52Z</time>
      </trkpt>
      <trkpt lat="44.87539" lon="1.76043">
        <ele>352.2</ele>
        <time>2022-05-24T09:57:53Z</time>
      </trkpt>
      <trkpt lat="44.87545" lon="1.76043">
        <ele>352.1</ele>
        <time>2022-05-24T09:57:54Z</time>
      </trkpt>
      <trkpt lat="44.87551" lon="1.76045">
        <ele>352.1</ele>
        <time>2022-05-24T09:57:55Z</time>
      </trkpt>
      <trkpt lat="44.87557" lon="1.76045">
        <ele>352</ele>
        <time>2022-05-24T09:57:56Z</time>
      </trkpt>
      <trkpt lat="44.87563" lon="1.76045">
        <ele>352</ele>
        <time>2022-05-24T09:57:57Z</time>
      </trkpt>
      <trkpt lat="44.87569" lon="1.76046">
        <ele>351.9</ele>
        <time>2022-05-24T09:57:58Z</time>
      </trkpt>
      <trkpt lat="44.87574" lon="1.76047">
        <ele>351.9</ele>
        <time>2022-05-24T09:57:59Z</time>
      </trkpt>
      <trkpt lat="44.8758" lon="1.76048">
        <ele>351.8</ele>
        <time>2022-05-24T09:58:00Z</time>
      </trkpt>
      <trkpt lat="44.87585" lon="1.76049">
        <ele>351.7</ele>
        <time>2022-05-24T09:58:01Z</time>
      </trkpt>
      <trkpt lat="44.87591" lon="1.7605">
        <ele>351.6</ele>
        <time>2022-05-24T09:58:02Z</time>
      </trkpt>
      <trkpt lat="44.87596" lon="1.7605">
        <ele>351.5</ele>
        <time>2022-05-24T09:58:03Z</time>
      </trkpt>
      <trkpt lat="44.87601" lon="1.7605">
        <ele>351.4</ele>
        <time>2022-05-24T09:58:04Z</time>
      </trkpt>
      <trkpt lat="44.87606" lon="1.7605">
        <ele>351.2</ele>
        <time>2022-05-24T09:58:05Z</time>
      </trkpt>
      <trkpt lat="44.87612" lon="1.7605">
        <ele>351</ele>
        <time>2022-05-24T09:58:06Z</time>
      </trkpt>
      <trkpt lat="44.87617" lon="1.76052">
        <ele>350.8</ele>
        <time>2022-05-24T09:58:07Z</time>
      </trkpt>
      <trkpt lat="44.87623" lon="1.76054">
        <ele>350.5</ele>
        <time>2022-05-24T09:58:08Z</time>
      </trkpt>
      <trkpt lat="44.87628" lon="1.76057">
        <ele>350.1</ele>
        <time>2022-05-24T09:58:09Z</time>
      </trkpt>
      <trkpt lat="44.87634" lon="1.76059">
        <ele>349.8</ele>
        <time>2022-05-24T09:58:10Z</time>
      </trkpt>
      <trkpt lat="44.8764" lon="1.76062">
        <ele>349.3</ele>
        <time>2022-05-24T09:58:11Z</time>
      </trkpt>
      <trkpt lat="44.87647" lon="1.76065">
        <ele>348.7</ele>
        <time>2022-05-24T09:58:12Z</time>
      </trkpt>
      <trkpt lat="44.87653" lon="1.76067">
        <ele>348.1</ele>
        <time>2022-05-24T09:58:13Z</time>
      </trkpt>
      <trkpt lat="44.8766" lon="1.76068">
        <ele>347.4</ele>
        <time>2022-05-24T09:58:14Z</time>
      </trkpt>
      <trkpt lat="44.87665" lon="1.76069">
        <ele>346.8</ele>
        <time>2022-05-24T09:58:15Z</time>
      </trkpt>
      <trkpt lat="44.87672" lon="1.76073">
        <ele>346.1</ele>
        <time>2022-05-24T09:58:16Z</time>
      </trkpt>
      <trkpt lat="44.87678" lon="1.76077">
        <ele>345.3</ele>
        <time>2022-05-24T09:58:17Z</time>
      </trkpt>
      <trkpt lat="44.87685" lon="1.76081">
        <ele>344.6</ele>
        <time>2022-05-24T09:58:18Z</time>
      </trkpt>
      <trkpt lat="44.87691" lon="1.76085">
        <ele>343.8</ele>
        <time>2022-05-24T09:58:19Z</time>
      </trkpt>
      <trkpt lat="44.87695" lon="1.76089">
        <ele>343.2</ele>
        <time>2022-05-24T09:58:20Z</time>
      </trkpt>
      <trkpt lat="44.87699" lon="1.76094">
        <ele>342.7</ele>
        <time>2022-05-24T09:58:21Z</time>
      </trkpt>
      <trkpt lat="44.87703" lon="1.76097">
        <ele>342.2</ele>
        <time>2022-05-24T09:58:22Z</time>
      </trkpt>
      <trkpt lat="44.87708" lon="1.76102">
        <ele>341.6</ele>
        <time>2022-05-24T09:58:23Z</time>
      </trkpt>
      <trkpt lat="44.87714" lon="1.76106">
        <ele>341</ele>
        <time>2022-05-24T09:58:24Z</time>
      </trkpt>
      <trkpt lat="44.87719" lon="1.7611">
        <ele>340.3</ele>
        <time>2022-05-24T09:58:25Z</time>
      </trkpt>
      <trkpt lat="44.87723" lon="1.76115">
        <ele>339.5</ele>
        <time>2022-05-24T09:58:26Z</time>
      </trkpt>
      <trkpt lat="44.87726" lon="1.76122">
        <ele>338.6</ele>
        <time>2022-05-24T09:58:27Z</time>
      </trkpt>
      <trkpt lat="44.8773" lon="1.76128">
        <ele>337.7</ele>
        <time>2022-05-24T09:58:28Z</time>
      </trkpt>
      <trkpt lat="44.87734" lon="1.76133">
        <ele>336.7</ele>
        <time>2022-05-24T09:58:29Z</time>
      </trkpt>
      <trkpt lat="44.87739" lon="1.76137">
        <ele>335.9</ele>
        <time>2022-05-24T09:58:30Z</time>
      </trkpt>
      <trkpt lat="44.87743" lon="1.76141">
        <ele>335.2</ele>
        <time>2022-05-24T09:58:31Z</time>
      </trkpt>
      <trkpt lat="44.87746" lon="1.76146">
        <ele>334.6</ele>
        <time>2022-05-24T09:58:32Z</time>
      </trkpt>
      <trkpt lat="44.8775" lon="1.76151">
        <ele>334</ele>
        <time>2022-05-24T09:58:33Z</time>
      </trkpt>
      <trkpt lat="44.87754" lon="1.76155">
        <ele>333.6</ele>
        <time>2022-05-24T09:58:34Z</time>
      </trkpt>
      <trkpt lat="44.87758" lon="1.76162">
        <ele>333.2</ele>
        <time>2022-05-24T09:58:35Z</time>
      </trkpt>
      <trkpt lat="44.87761" lon="1.7617">
        <ele>333.1</ele>
        <time>2022-05-24T09:58:36Z</time>
      </trkpt>
      <trkpt lat="44.87765" lon="1.76178">
        <ele>333.1</ele>
        <time>2022-05-24T09:58:37Z</time>
      </trkpt>
      <trkpt lat="44.87768" lon="1.76186">
        <ele>333.3</ele>
        <time>2022-05-24T09:58:38Z</time>
      </trkpt>
      <trkpt lat="44.8777" lon="1.76193">
        <ele>333.6</ele>
        <time>2022-05-24T09:58:39Z</time>
      </trkpt>
      <trkpt lat="44.87772" lon="1.76199">
        <ele>333.9</ele>
        <time>2022-05-24T09:58:40Z</time>
      </trkpt>
      <trkpt lat="44.87774" lon="1.76205">
        <ele>334.2</ele>
        <time>2022-05-24T09:58:41Z</time>
      </trkpt>
      <trkpt lat="44.87777" lon="1.76209">
        <ele>334.4</ele>
        <time>2022-05-24T09:58:42Z</time>
      </trkpt>
      <trkpt lat="44.87779" lon="1.76212">
        <ele>334.6</ele>
        <time>2022-05-24T09:58:43Z</time>
      </trkpt>
      <trkpt lat="44.87783" lon="1.76215">
        <ele>334.9</ele>
        <time>2022-05-24T09:58:44Z</time>
      </trkpt>
      <trkpt lat="44.87787" lon="1.76218">
        <ele>335.1</ele>
        <time>2022-05-24T09:58:45Z</time>
      </trkpt>
      <trkpt lat="44.8779" lon="1.76221">
        <ele>335.3</ele>
        <time>2022-05-24T09:58:46Z</time>
      </trkpt>
      <trkpt lat="44.87794" lon="1.76225">
        <ele>335.5</ele>
        <time>2022-05-24T09:58:47Z</time>
      </trkpt>
      <trkpt lat="44.87798" lon="1.76229">
        <ele>335.7</ele>
        <time>2022-05-24T09:58:48Z</time>
      </trkpt>
      <trkpt lat="44.87802" lon="1.76231">
        <ele>335.8</ele>
        <time>2022-05-24T09:58:49Z</time>
      </trkpt>
      <trkpt lat="44.87807" lon="1.76234">
        <ele>335.9</ele>
        <time>2022-05-24T09:58:50Z</time>
      </trkpt>
      <trkpt lat="44.87811" lon="1.76235">
        <ele>336</ele>
        <time>2022-05-24T09:58:51Z</time>
      </trkpt>
      <trkpt lat="44.87815" lon="1.76237">
        <ele>336.1</ele>
        <time>2022-05-24T09:58:52Z</time>
      </trkpt>
      <trkpt lat="44.8782" lon="1.76238">
        <ele>336.2</ele>
        <time>2022-05-24T09:58:53Z</time>
      </trkpt>
      <trkpt lat="44.87825" lon="1.76238">
        <ele>336.3</ele>
        <time>2022-05-24T09:58:54Z</time>
      </trkpt>
      <trkpt lat="44.8783" lon="1.76239">
        <ele>336.4</ele>
        <time>2022-05-24T09:58:55Z</time>
      </trkpt>
      <trkpt lat="44.87835" lon="1.76241">
        <ele>336.6</ele>
        <time>2022-05-24T09:58:56Z</time>
      </trkpt>
      <trkpt lat="44.8784" lon="1.76242">
        <ele>336.8</ele>
        <time>2022-05-24T09:58:57Z</time>
      </trkpt>
      <trkpt lat="44.87847" lon="1.76246">
        <ele>337.1</ele>
        <time>2022-05-24T09:58:58Z</time>
      </trkpt>
      <trkpt lat="44.87852" lon="1.76248">
        <ele>337.3</ele>
        <time>2022-05-24T09:58:59Z</time>
      </trkpt>
      <trkpt lat="44.87857" lon="1.76251">
        <ele>337.7</ele>
        <time>2022-05-24T09:59:00Z</time>
      </trkpt>
      <trkpt lat="44.8786" lon="1.76254">
        <ele>338</ele>
        <time>2022-05-24T09:59:01Z</time>
      </trkpt>
      <trkpt lat="44.87862" lon="1.76257">
        <ele>338.3</ele>
        <time>2022-05-24T09:59:02Z</time>
      </trkpt>
      <trkpt lat="44.87864" lon="1.76261">
        <ele>338.6</ele>
        <time>2022-05-24T09:59:03Z</time>
      </trkpt>
      <trkpt lat="44.87867" lon="1.76264">
        <ele>338.9</ele>
        <time>2022-05-24T09:59:04Z</time>
      </trkpt>
      <trkpt lat="44.8787" lon="1.76266">
        <ele>339.2</ele>
        <time>2022-05-24T09:59:05Z</time>
      </trkpt>
      <trkpt lat="44.87872" lon="1.7627">
        <ele>339.6</ele>
        <time>2022-05-24T09:59:06Z</time>
      </trkpt>
      <trkpt lat="44.87875" lon="1.76272">
        <ele>339.9</ele>
        <time>2022-05-24T09:59:07Z</time>
      </trkpt>
      <trkpt lat="44.87879" lon="1.76275">
        <ele>340.3</ele>
        <time>2022-05-24T09:59:08Z</time>
      </trkpt>
      <trkpt lat="44.87881" lon="1.76277">
        <ele>340.6</ele>
        <time>2022-05-24T09:59:09Z</time>
      </trkpt>
      <trkpt lat="44.87884" lon="1.76279">
        <ele>340.9</ele>
        <time>2022-05-24T09:59:10Z</time>
      </trkpt>
      <trkpt lat="44.87885" lon="1.7628">
        <ele>341.1</ele>
        <time>2022-05-24T09:59:11Z</time>
      </trkpt>
      <trkpt lat="44.87887" lon="1.76282">
        <ele>341.4</ele>
        <time>2022-05-24T09:59:12Z</time>
      </trkpt>
      <trkpt lat="44.87888" lon="1.76283">
        <ele>341.5</ele>
        <time>2022-05-24T09:59:13Z</time>
      </trkpt>
      <trkpt lat="44.87889" lon="1.76287">
        <ele>341.9</ele>
        <time>2022-05-24T09:59:14Z</time>
      </trkpt>
      <trkpt lat="44.8789" lon="1.76289">
        <ele>342</ele>
        <time>2022-05-24T09:59:15Z</time>
      </trkpt>
      <trkpt lat="44.87892" lon="1.76292">
        <ele>342.3</ele>
        <time>2022-05-24T09:59:16Z</time>
      </trkpt>
      <trkpt lat="44.87892" lon="1.76294">
        <ele>342.4</ele>
        <time>2022-05-24T09:59:17Z</time>
      </trkpt>
      <trkpt lat="44.87893" lon="1.76295">
        <ele>342.6</ele>
        <time>2022-05-24T09:59:18Z</time>
      </trkpt>
      <trkpt lat="44.87895" lon="1.76296">
        <ele>342.8</ele>
        <time>2022-05-24T09:59:19Z</time>
      </trkpt>
      <trkpt lat="44.87898" lon="1.76298">
        <ele>343.1</ele>
        <time>2022-05-24T09:59:20Z</time>
      </trkpt>
      <trkpt lat="44.87899" lon="1.76298">
        <ele>343.2</ele>
        <time>2022-05-24T09:59:21Z</time>
      </trkpt>
      <trkpt lat="44.87902" lon="1.763">
        <ele>343.5</ele>
        <time>2022-05-24T09:59:22Z</time>
      </trkpt>
      <trkpt lat="44.87903" lon="1.763">
        <ele>343.6</ele>
        <time>2022-05-24T09:59:23Z</time>
      </trkpt>
      <trkpt lat="44.87907" lon="1.76302">
        <ele>344</ele>
        <time>2022-05-24T09:59:24Z</time>
      </trkpt>
      <trkpt lat="44.87908" lon="1.76302">
        <ele>344.1</ele>
        <time>2022-05-24T09:59:25Z</time>
      </trkpt>
      <trkpt lat="44.87911" lon="1.76304">
        <ele>344.4</ele>
        <time>2022-05-24T09:59:26Z</time>
      </trkpt>
      <trkpt lat="44.87913" lon="1.76305">
        <ele>344.5</ele>
        <time>2022-05-24T09:59:27Z</time>
      </trkpt>
      <trkpt lat="44.87915" lon="1.76307">
        <ele>344.8</ele>
        <time>2022-05-24T09:59:28Z</time>
      </trkpt>
      <trkpt lat="44.87919" lon="1.76309">
        <ele>345.1</ele>
        <time>2022-05-24T09:59:29Z</time>
      </trkpt>
      <trkpt lat="44.8792" lon="1.7631">
        <ele>345.2</ele>
        <time>2022-05-24T09:59:30Z</time>
      </trkpt>
      <trkpt lat="44.87922" lon="1.76312">
        <ele>345.4</ele>
        <time>2022-05-24T09:59:31Z</time>
      </trkpt>
      <trkpt lat="44.87923" lon="1.76313">
        <ele>345.5</ele>
        <time>2022-05-24T09:59:32Z</time>
      </trkpt>
      <trkpt lat="44.87924" lon="1.76317">
        <ele>345.8</ele>
        <time>2022-05-24T09:59:33Z</time>
      </trkpt>
      <trkpt lat="44.87924" lon="1.76319">
        <ele>345.9</ele>
        <time>2022-05-24T09:59:34Z</time>
      </trkpt>
      <trkpt lat="44.87924" lon="1.76323">
        <ele>346.2</ele>
        <time>2022-05-24T09:59:35Z</time>
      </trkpt>
      <trkpt lat="44.87924" lon="1.76324">
        <ele>346.3</ele>
        <time>2022-05-24T09:59:36Z</time>
      </trkpt>
      <trkpt lat="44.87923" lon="1.76328">
        <ele>346.6</ele>
        <time>2022-05-24T09:59:37Z</time>
      </trkpt>
      <trkpt lat="44.87922" lon="1.76329">
        <ele>346.7</ele>
        <time>2022-05-24T09:59:38Z</time>
      </trkpt>
      <trkpt lat="44.87921" lon="1.76334">
        <ele>347</ele>
        <time>2022-05-24T09:59:39Z</time>
      </trkpt>
      <trkpt lat="44.87921" lon="1.76336">
        <ele>347.1</ele>
        <time>2022-05-24T09:59:40Z</time>
      </trkpt>
      <trkpt lat="44.87921" lon="1.76339">
        <ele>347.3</ele>
        <time>2022-05-24T09:59:41Z</time>
      </trkpt>
      <trkpt lat="44.87921" lon="1.7634">
        <ele>347.4</ele>
        <time>2022-05-24T09:59:42Z</time>
      </trkpt>
      <trkpt lat="44.87921" lon="1.76342">
        <ele>347.5</ele>
        <time>2022-05-24T09:59:43Z</time>
      </trkpt>
      <trkpt lat="44.87921" lon="1.76345">
        <ele>347.6</ele>
        <time>2022-05-24T09:59:44Z</time>
      </trkpt>
      <trkpt lat="44.8792" lon="1.76349">
        <ele>347.9</ele>
        <time>2022-05-24T09:59:45Z</time>
      </trkpt>
      <trkpt lat="44.8792" lon="1.76351">
        <ele>347.9</ele>
        <time>2022-05-24T09:59:46Z</time>
      </trkpt>
      <trkpt lat="44.87919" lon="1.76355">
        <ele>348.2</ele>
        <time>2022-05-24T09:59:47Z</time>
      </trkpt>
      <trkpt lat="44.87918" lon="1.76356">
        <ele>348.3</ele>
        <time>2022-05-24T09:59:48Z</time>
      </trkpt>
      <trkpt lat="44.87918" lon="1.7636">
        <ele>348.5</ele>
        <time>2022-05-24T09:59:49Z</time>
      </trkpt>
      <trkpt lat="44.87918" lon="1.76362">
        <ele>348.5</ele>
        <time>2022-05-24T09:59:50Z</time>
      </trkpt>
      <trkpt lat="44.87918" lon="1.76364">
        <ele>348.7</ele>
        <time>2022-05-24T09:59:51Z</time>
      </trkpt>
      <trkpt lat="44.87918" lon="1.76367">
        <ele>348.8</ele>
        <time>2022-05-24T09:59:52Z</time>
      </trkpt>
      <trkpt lat="44.87917" lon="1.76371">
        <ele>349</ele>
        <time>2022-05-24T09:59:53Z</time>
      </trkpt>
      <trkpt lat="44.87916" lon="1.76373">
        <ele>349.1</ele>
        <time>2022-05-24T09:59:54Z</time>
      </trkpt>
      <trkpt lat="44.87915" lon="1.76378">
        <ele>349.4</ele>
        <time>2022-05-24T09:59:55Z</time>
      </trkpt>
      <trkpt lat="44.87915" lon="1.76379">
        <ele>349.5</ele>
        <time>2022-05-24T09:59:56Z</time>
      </trkpt>
      <trkpt lat="44.87915" lon="1.76384">
        <ele>349.7</ele>
        <time>2022-05-24T09:59:57Z</time>
      </trkpt>
      <trkpt lat="44.87915" lon="1.76385">
        <ele>349.7</ele>
        <time>2022-05-24T09:59:58Z</time>
      </trkpt>
      <trkpt lat="44.87916" lon="1.7639">
        <ele>350</ele>
        <time>2022-05-24T09:59:59Z</time>
      </trkpt>
      <trkpt lat="44.87917" lon="1.76391">
        <ele>350.1</ele>
        <time>2022-05-24T10:00:00Z</time>
      </trkpt>
      <trkpt lat="44.87921" lon="1.76393">
        <ele>350.3</ele>
        <time>2022-05-24T10:00:01Z</time>
      </trkpt>
      <trkpt lat="44.87922" lon="1.76393">
        <ele>350.3</ele>
        <time>2022-05-24T10:00:02Z</time>
      </trkpt>
      <trkpt lat="44.87926" lon="1.76392">
        <ele>350.6</ele>
        <time>2022-05-24T10:00:03Z</time>
      </trkpt>
      <trkpt lat="44.87927" lon="1.76391">
        <ele>350.7</ele>
        <time>2022-05-24T10:00:04Z</time>
      </trkpt>
      <trkpt lat="44.87931" lon="1.76391">
        <ele>350.8</ele>
        <time>2022-05-24T10:00:05Z</time>
      </trkpt>
      <trkpt lat="44.87932" lon="1.76391">
        <ele>350.9</ele>
        <time>2022-05-24T10:00:06Z</time>
      </trkpt>
      <trkpt lat="44.87936" lon="1.76391">
        <ele>351.1</ele>
        <time>2022-05-24T10:00:07Z</time>
      </trkpt>
      <trkpt lat="44.87937" lon="1.76391">
        <ele>351.1</ele>
        <time>2022-05-24T10:00:08Z</time>
      </trkpt>
      <trkpt lat="44.87941" lon="1.76391">
        <ele>351.3</ele>
        <time>2022-05-24T10:00:09Z</time>
      </trkpt>
      <trkpt lat="44.87943" lon="1.76391">
        <ele>351.3</ele>
        <time>2022-05-24T10:00:10Z</time>
      </trkpt>
      <trkpt lat="44.87945" lon="1.76391">
        <ele>351.4</ele>
        <time>2022-05-24T10:00:11Z</time>
      </trkpt>
      <trkpt lat="44.87948" lon="1.7639">
        <ele>351.5</ele>
        <time>2022-05-24T10:00:12Z</time>
      </trkpt>
      <trkpt lat="44.87951" lon="1.76389">
        <ele>351.6</ele>
        <time>2022-05-24T10:00:13Z</time>
      </trkpt>
      <trkpt lat="44.87953" lon="1.76387">
        <ele>351.7</ele>
        <time>2022-05-24T10:00:14Z</time>
      </trkpt>
      <trkpt lat="44.87957" lon="1.76386">
        <ele>351.9</ele>
        <time>2022-05-24T10:00:15Z</time>
      </trkpt>
      <trkpt lat="44.87959" lon="1.76385">
        <ele>351.9</ele>
        <time>2022-05-24T10:00:16Z</time>
      </trkpt>
      <trkpt lat="44.87961" lon="1.76385">
        <ele>352</ele>
        <time>2022-05-24T10:00:17Z</time>
      </trkpt>
      <trkpt lat="44.87964" lon="1.76384">
        <ele>352.1</ele>
        <time>2022-05-24T10:00:18Z</time>
      </trkpt>
      <trkpt lat="44.87967" lon="1.76385">
        <ele>352.2</ele>
        <time>2022-05-24T10:00:19Z</time>
      </trkpt>
      <trkpt lat="44.87971" lon="1.76386">
        <ele>352.4</ele>
        <time>2022-05-24T10:00:20Z</time>
      </trkpt>
      <trkpt lat="44.87974" lon="1.76388">
        <ele>352.5</ele>
        <time>2022-05-24T10:00:21Z</time>
      </trkpt>
      <trkpt lat="44.87977" lon="1.7639">
        <ele>352.6</ele>
        <time>2022-05-24T10:00:22Z</time>
      </trkpt>
      <trkpt lat="44.8798" lon="1.76392">
        <ele>352.8</ele>
        <time>2022-05-24T10:00:23Z</time>
      </trkpt>
      <trkpt lat="44.87983" lon="1.76394">
        <ele>352.9</ele>
        <time>2022-05-24T10:00:24Z</time>
      </trkpt>
      <trkpt lat="44.87987" lon="1.76396">
        <ele>353</ele>
        <time>2022-05-24T10:00:25Z</time>
      </trkpt>
      <trkpt lat="44.8799" lon="1.76397">
        <ele>353.1</ele>
        <time>2022-05-24T10:00:26Z</time>
      </trkpt>
      <trkpt lat="44.87993" lon="1.76398">
        <ele>353.2</ele>
        <time>2022-05-24T10:00:27Z</time>
      </trkpt>
      <trkpt lat="44.87996" lon="1.764">
        <ele>353.4</ele>
        <time>2022-05-24T10:00:28Z</time>
      </trkpt>
      <trkpt lat="44.88" lon="1.76401">
        <ele>353.5</ele>
        <time>2022-05-24T10:00:29Z</time>
      </trkpt>
      <trkpt lat="44.88003" lon="1.76403">
        <ele>353.6</ele>
        <time>2022-05-24T10:00:30Z</time>
      </trkpt>
      <trkpt lat="44.88006" lon="1.76404">
        <ele>353.7</ele>
        <time>2022-05-24T10:00:31Z</time>
      </trkpt>
      <trkpt lat="44.88009" lon="1.76405">
        <ele>353.8</ele>
        <time>2022-05-24T10:00:32Z</time>
      </trkpt>
      <trkpt lat="44.88013" lon="1.76407">
        <ele>353.9</ele>
        <time>2022-05-24T10:00:33Z</time>
      </trkpt>
      <trkpt lat="44.88016" lon="1.7641">
        <ele>354</ele>
        <time>2022-05-24T10:00:34Z</time>
      </trkpt>
      <trkpt lat="44.88019" lon="1.76411">
        <ele>354</ele>
        <time>2022-05-24T10:00:35Z</time>
      </trkpt>
      <trkpt lat="44.88022" lon="1.76413">
        <ele>354.1</ele>
        <time>2022-05-24T10:00:36Z</time>
      </trkpt>
      <trkpt lat="44.88025" lon="1.76415">
        <ele>354.1</ele>
        <time>2022-05-24T10:00:37Z</time>
      </trkpt>
      <trkpt lat="44.88029" lon="1.76417">
        <ele>354.1</ele>
        <time>2022-05-24T10:00:38Z</time>
      </trkpt>
      <trkpt lat="44.88032" lon="1.7642">
        <ele>354.2</ele>
        <time>2022-05-24T10:00:39Z</time>
      </trkpt>
      <trkpt lat="44.88035" lon="1.76422">
        <ele>354.1</ele>
        <time>2022-05-24T10:00:40Z</time>
      </trkpt>
      <trkpt lat="44.88038" lon="1.76425">
        <ele>354.1</ele>
        <time>2022-05-24T10:00:41Z</time>
      </trkpt>
      <trkpt lat="44.88041" lon="1.76427">
        <ele>354.1</ele>
        <time>2022-05-24T10:00:42Z</time>
      </trkpt>
      <trkpt lat="44.88045" lon="1.76429">
        <ele>354</ele>
        <time>2022-05-24T10:00:43Z</time>
      </trkpt>
      <trkpt lat="44.88048" lon="1.76432">
        <ele>353.9</ele>
        <time>2022-05-24T10:00:44Z</time>
      </trkpt>
      <trkpt lat="44.88052" lon="1.76434">
        <ele>353.7</ele>
        <time>2022-05-24T10:00:45Z</time>
      </trkpt>
      <trkpt lat="44.88055" lon="1.76437">
        <ele>353.6</ele>
        <time>2022-05-24T10:00:46Z</time>
      </trkpt>
      <trkpt lat="44.88058" lon="1.76439">
        <ele>353.4</ele>
        <time>2022-05-24T10:00:47Z</time>
      </trkpt>
      <trkpt lat="44.88063" lon="1.76441">
        <ele>353</ele>
        <time>2022-05-24T10:00:48Z</time>
      </trkpt>
      <trkpt lat="44.88067" lon="1.76446">
        <ele>352.7</ele>
        <time>2022-05-24T10:00:49Z</time>
      </trkpt>
      <trkpt lat="44.88071" lon="1.76449">
        <ele>352.3</ele>
        <time>2022-05-24T10:00:50Z</time>
      </trkpt>
      <trkpt lat="44.88076" lon="1.76451">
        <ele>352</ele>
        <time>2022-05-24T10:00:51Z</time>
      </trkpt>
      <trkpt lat="44.88081" lon="1.76452">
        <ele>351.7</ele>
        <time>2022-05-24T10:00:52Z</time>
      </trkpt>
      <trkpt lat="44.88087" lon="1.76454">
        <ele>351.4</ele>
        <time>2022-05-24T10:00:53Z</time>
      </trkpt>
      <trkpt lat="44.88094" lon="1.76451">
        <ele>351.1</ele>
        <time>2022-05-24T10:00:54Z</time>
      </trkpt>
      <trkpt lat="44.881" lon="1.76449">
        <ele>350.8</ele>
        <time>2022-05-24T10:00:55Z</time>
      </trkpt>
      <trkpt lat="44.88104" lon="1.76444">
        <ele>350.7</ele>
        <time>2022-05-24T10:00:56Z</time>
      </trkpt>
      <trkpt lat="44.88109" lon="1.76442">
        <ele>350.6</ele>
        <time>2022-05-24T10:00:57Z</time>
      </trkpt>
      <trkpt lat="44.88116" lon="1.76443">
        <ele>350.5</ele>
        <time>2022-05-24T10:00:58Z</time>
      </trkpt>
      <trkpt lat="44.88121" lon="1.76442">
        <ele>350.5</ele>
        <time>2022-05-24T10:00:59Z</time>
      </trkpt>
      <trkpt lat="44.88126" lon="1.76443">
        <ele>350.5</ele>
        <time>2022-05-24T10:01:00Z</time>
      </trkpt>
      <trkpt lat="44.88131" lon="1.76445">
        <ele>350.5</ele>
        <time>2022-05-24T10:01:01Z</time>
      </trkpt>
      <trkpt lat="44.88135" lon="1.76445">
        <ele>350.5</ele>
        <time>2022-05-24T10:01:02Z</time>
      </trkpt>
      <trkpt lat="44.8814" lon="1.76444">
        <ele>350.5</ele>
        <time>2022-05-24T10:01:03Z</time>
      </trkpt>
      <trkpt lat="44.88144" lon="1.76443">
        <ele>350.5</ele>
        <time>2022-05-24T10:01:04Z</time>
      </trkpt>
      <trkpt lat="44.8815" lon="1.76446">
        <ele>350.4</ele>
        <time>2022-05-24T10:01:05Z</time>
      </trkpt>
      <trkpt lat="44.88154" lon="1.76446">
        <ele>350.4</ele>
        <time>2022-05-24T10:01:06Z</time>
      </trkpt>
      <trkpt lat="44.88159" lon="1.76446">
        <ele>350.4</ele>
        <time>2022-05-24T10:01:07Z</time>
      </trkpt>
      <trkpt lat="44.88163" lon="1.76447">
        <ele>350.3</ele>
        <time>2022-05-24T10:01:08Z</time>
      </trkpt>
      <trkpt lat="44.88168" lon="1.7645">
        <ele>350.3</ele>
        <time>2022-05-24T10:01:09Z</time>
      </trkpt>
      <trkpt lat="44.88173" lon="1.76452">
        <ele>350.3</ele>
        <time>2022-05-24T10:01:10Z</time>
      </trkpt>
      <trkpt lat="44.88178" lon="1.76455">
        <ele>350.3</ele>
        <time>2022-05-24T10:01:11Z</time>
      </trkpt>
      <trkpt lat="44.88184" lon="1.76457">
        <ele>350.4</ele>
        <time>2022-05-24T10:01:12Z</time>
      </trkpt>
      <trkpt lat="44.88189" lon="1.76457">
        <ele>350.5</ele>
        <time>2022-05-24T10:01:13Z</time>
      </trkpt>
      <trkpt lat="44.88195" lon="1.76456">
        <ele>350.7</ele>
        <time>2022-05-24T10:01:14Z</time>
      </trkpt>
      <trkpt lat="44.882" lon="1.76457">
        <ele>350.9</ele>
        <time>2022-05-24T10:01:15Z</time>
      </trkpt>
      <trkpt lat="44.88205" lon="1.76457">
        <ele>351.1</ele>
        <time>2022-05-24T10:01:16Z</time>
      </trkpt>
      <trkpt lat="44.88209" lon="1.76456">
        <ele>351.3</ele>
        <time>2022-05-24T10:01:17Z</time>
      </trkpt>
      <trkpt lat="44.88213" lon="1.76456">
        <ele>351.5</ele>
        <time>2022-05-24T10:01:18Z</time>
      </trkpt>
      <trkpt lat="44.88218" lon="1.76457">
        <ele>351.6</ele>
        <time>2022-05-24T10:01:19Z</time>
      </trkpt>
      <trkpt lat="44.88223" lon="1.76458">
        <ele>351.8</ele>
        <time>2022-05-24T10:01:20Z</time>
      </trkpt>
      <trkpt lat="44.88227" lon="1.76458">
        <ele>352</ele>
        <time>2022-05-24T10:01:21Z</time>
      </trkpt>
      <trkpt lat="44.88231" lon="1.76457">
        <ele>352.1</ele>
        <time>2022-05-24T10:01:22Z</time>
      </trkpt>
      <trkpt lat="44.88235" lon="1.76456">
        <ele>352.3</ele>
        <time>2022-05-24T10:01:23Z</time>
      </trkpt>
      <trkpt lat="44.88238" lon="1.76454">
        <ele>352.4</ele>
        <time>2022-05-24T10:01:24Z</time>
      </trkpt>
      <trkpt lat="44.88243" lon="1.76452">
        <ele>352.6</ele>
        <time>2022-05-24T10:01:25Z</time>
      </trkpt>
      <trkpt lat="44.88247" lon="1.76451">
        <ele>352.8</ele>
        <time>2022-05-24T10:01:26Z</time>
      </trkpt>
      <trkpt lat="44.88251" lon="1.7645">
        <ele>352.9</ele>
        <time>2022-05-24T10:01:27Z</time>
      </trkpt>
      <trkpt lat="44.88255" lon="1.76449">
        <ele>353</ele>
        <time>2022-05-24T10:01:28Z</time>
      </trkpt>
      <trkpt lat="44.88259" lon="1.76448">
        <ele>353.1</ele>
        <time>2022-05-24T10:01:29Z</time>
      </trkpt>
      <trkpt lat="44.88263" lon="1.76447">
        <ele>353.1</ele>
        <time>2022-05-24T10:01:30Z</time>
      </trkpt>
      <trkpt lat="44.88267" lon="1.76446">
        <ele>353.2</ele>
        <time>2022-05-24T10:01:31Z</time>
      </trkpt>
      <trkpt lat="44.88271" lon="1.76446">
        <ele>353.2</ele>
        <time>2022-05-24T10:01:32Z</time>
      </trkpt>
      <trkpt lat="44.88276" lon="1.76448">
        <ele>353.3</ele>
        <time>2022-05-24T10:01:33Z</time>
      </trkpt>
      <trkpt lat="44.8828" lon="1.76448">
        <ele>353.3</ele>
        <time>2022-05-24T10:01:34Z</time>
      </trkpt>
      <trkpt lat="44.88286" lon="1.76448">
        <ele>353.4</ele>
        <time>2022-05-24T10:01:35Z</time>
      </trkpt>
      <trkpt lat="44.8829" lon="1.76446">
        <ele>353.4</ele>
        <time>2022-05-24T10:01:36Z</time>
      </trkpt>
      <trkpt lat="44.88295" lon="1.76442">
        <ele>353.5</ele>
        <time>2022-05-24T10:01:37Z</time>
      </trkpt>
      <trkpt lat="44.88299" lon="1.76438">
        <ele>353.5</ele>
        <time>2022-05-24T10:01:38Z</time>
      </trkpt>
      <trkpt lat="44.88302" lon="1.76434">
        <ele>353.5</ele>
        <time>2022-05-24T10:01:39Z</time>
      </trkpt>
      <trkpt lat="44.88305" lon="1.7643">
        <ele>353.5</ele>
        <time>2022-05-24T10:01:40Z</time>
      </trkpt>
      <trkpt lat="44.88309" lon="1.76426">
        <ele>353.5</ele>
        <time>2022-05-24T10:01:41Z</time>
      </trkpt>
      <trkpt lat="44.88312" lon="1.76422">
        <ele>353.5</ele>
        <time>2022-05-24T10:01:42Z</time>
      </trkpt>
      <trkpt lat="44.88316" lon="1.76418">
        <ele>353.5</ele>
        <time>2022-05-24T10:01:43Z</time>
      </trkpt>
      <trkpt lat="44.88318" lon="1.76413">
        <ele>353.4</ele>
        <time>2022-05-24T10:01:44Z</time>
      </trkpt>
      <trkpt lat="44.88322" lon="1.76408">
        <ele>353.3</ele>
        <time>2022-05-24T10:01:45Z</time>
      </trkpt>
      <trkpt lat="44.88325" lon="1.76405">
        <ele>353.2</ele>
        <time>2022-05-24T10:01:46Z</time>
      </trkpt>
      <trkpt lat="44.88329" lon="1.76403">
        <ele>353.1</ele>
        <time>2022-05-24T10:01:47Z</time>
      </trkpt>
      <trkpt lat="44.88333" lon="1.76405">
        <ele>352.9</ele>
        <time>2022-05-24T10:01:48Z</time>
      </trkpt>
      <trkpt lat="44.88336" lon="1.76408">
        <ele>352.7</ele>
        <time>2022-05-24T10:01:49Z</time>
      </trkpt>
      <trkpt lat="44.88338" lon="1.76412">
        <ele>352.4</ele>
        <time>2022-05-24T10:01:50Z</time>
      </trkpt>
      <trkpt lat="44.88338" lon="1.76413">
        <ele>352.3</ele>
        <time>2022-05-24T10:01:51Z</time>
      </trkpt>
      <trkpt lat="44.88338" lon="1.76418">
        <ele>352.1</ele>
        <time>2022-05-24T10:01:52Z</time>
      </trkpt>
      <trkpt lat="44.88339" lon="1.76423">
        <ele>351.8</ele>
        <time>2022-05-24T10:01:53Z</time>
      </trkpt>
      <trkpt lat="44.88339" lon="1.76429">
        <ele>351.5</ele>
        <time>2022-05-24T10:01:54Z</time>
      </trkpt>
      <trkpt lat="44.88338" lon="1.76438">
        <ele>351</ele>
        <time>2022-05-24T10:01:55Z</time>
      </trkpt>
      <trkpt lat="44.88337" lon="1.76445">
        <ele>350.6</ele>
        <time>2022-05-24T10:01:56Z</time>
      </trkpt>
      <trkpt lat="44.88335" lon="1.76453">
        <ele>350.1</ele>
        <time>2022-05-24T10:01:57Z</time>
      </trkpt>
      <trkpt lat="44.88334" lon="1.7646">
        <ele>349.7</ele>
        <time>2022-05-24T10:01:58Z</time>
      </trkpt>
      <trkpt lat="44.88333" lon="1.76467">
        <ele>349.3</ele>
        <time>2022-05-24T10:01:59Z</time>
      </trkpt>
      <trkpt lat="44.88333" lon="1.76471">
        <ele>348.9</ele>
        <time>2022-05-24T10:02:00Z</time>
      </trkpt>
      <trkpt lat="44.88332" lon="1.76477">
        <ele>348.5</ele>
        <time>2022-05-24T10:02:01Z</time>
      </trkpt>
      <trkpt lat="44.88332" lon="1.76483">
        <ele>348</ele>
        <time>2022-05-24T10:02:02Z</time>
      </trkpt>
      <trkpt lat="44.88329" lon="1.76491">
        <ele>347.3</ele>
        <time>2022-05-24T10:02:03Z</time>
      </trkpt>
      <trkpt lat="44.88328" lon="1.76499">
        <ele>346.6</ele>
        <time>2022-05-24T10:02:04Z</time>
      </trkpt>
      <trkpt lat="44.8833" lon="1.76506">
        <ele>345.9</ele>
        <time>2022-05-24T10:02:05Z</time>
      </trkpt>
      <trkpt lat="44.88333" lon="1.76515">
        <ele>344.9</ele>
        <time>2022-05-24T10:02:06Z</time>
      </trkpt>
      <trkpt lat="44.88338" lon="1.76523">
        <ele>344</ele>
        <time>2022-05-24T10:02:07Z</time>
      </trkpt>
      <trkpt lat="44.88342" lon="1.7653">
        <ele>343.2</ele>
        <time>2022-05-24T10:02:08Z</time>
      </trkpt>
      <trkpt lat="44.88346" lon="1.76537">
        <ele>342.6</ele>
        <time>2022-05-24T10:02:09Z</time>
      </trkpt>
      <trkpt lat="44.88351" lon="1.76545">
        <ele>341.7</ele>
        <time>2022-05-24T10:02:10Z</time>
      </trkpt>
      <trkpt lat="44.88355" lon="1.76552">
        <ele>341</ele>
        <time>2022-05-24T10:02:11Z</time>
      </trkpt>
      <trkpt lat="44.88359" lon="1.76559">
        <ele>340.3</ele>
        <time>2022-05-24T10:02:12Z</time>
      </trkpt>
      <trkpt lat="44.88363" lon="1.76565">
        <ele>339.6</ele>
        <time>2022-05-24T10:02:13Z</time>
      </trkpt>
      <trkpt lat="44.88366" lon="1.76571">
        <ele>338.9</ele>
        <time>2022-05-24T10:02:14Z</time>
      </trkpt>
      <trkpt lat="44.88368" lon="1.76577">
        <ele>338.3</ele>
        <time>2022-05-24T10:02:15Z</time>
      </trkpt>
      <trkpt lat="44.8837" lon="1.76585">
        <ele>337.5</ele>
        <time>2022-05-24T10:02:16Z</time>
      </trkpt>
      <trkpt lat="44.88371" lon="1.76592">
        <ele>336.7</ele>
        <time>2022-05-24T10:02:17Z</time>
      </trkpt>
      <trkpt lat="44.88373" lon="1.76599">
        <ele>335.9</ele>
        <time>2022-05-24T10:02:18Z</time>
      </trkpt>
      <trkpt lat="44.88375" lon="1.76607">
        <ele>335</ele>
        <time>2022-05-24T10:02:19Z</time>
      </trkpt>
      <trkpt lat="44.88379" lon="1.76615">
        <ele>334</ele>
        <time>2022-05-24T10:02:20Z</time>
      </trkpt>
      <trkpt lat="44.88384" lon="1.76622">
        <ele>333.1</ele>
        <time>2022-05-24T10:02:21Z</time>
      </trkpt>
      <trkpt lat="44.88388" lon="1.76629">
        <ele>332.2</ele>
        <time>2022-05-24T10:02:22Z</time>
      </trkpt>
      <trkpt lat="44.88392" lon="1.76636">
        <ele>331.4</ele>
        <time>2022-05-24T10:02:23Z</time>
      </trkpt>
      <trkpt lat="44.88395" lon="1.76645">
        <ele>330.5</ele>
        <time>2022-05-24T10:02:24Z</time>
      </trkpt>
      <trkpt lat="44.88398" lon="1.76654">
        <ele>329.6</ele>
        <time>2022-05-24T10:02:25Z</time>
      </trkpt>
      <trkpt lat="44.88401" lon="1.76662">
        <ele>328.7</ele>
        <time>2022-05-24T10:02:26Z</time>
      </trkpt>
      <trkpt lat="44.88404" lon="1.76671">
        <ele>327.9</ele>
        <time>2022-05-24T10:02:27Z</time>
      </trkpt>
      <trkpt lat="44.88408" lon="1.76679">
        <ele>327.2</ele>
        <time>2022-05-24T10:02:28Z</time>
      </trkpt>
      <trkpt lat="44.88412" lon="1.76686">
        <ele>326.5</ele>
        <time>2022-05-24T10:02:29Z</time>
      </trkpt>
      <trkpt lat="44.88416" lon="1.76694">
        <ele>325.8</ele>
        <time>2022-05-24T10:02:30Z</time>
      </trkpt>
      <trkpt lat="44.88421" lon="1.76704">
        <ele>325.2</ele>
        <time>2022-05-24T10:02:31Z</time>
      </trkpt>
      <trkpt lat="44.88426" lon="1.76713">
        <ele>324.6</ele>
        <time>2022-05-24T10:02:32Z</time>
      </trkpt>
      <trkpt lat="44.8843" lon="1.76723">
        <ele>324.2</ele>
        <time>2022-05-24T10:02:33Z</time>
      </trkpt>
      <trkpt lat="44.88435" lon="1.76733">
        <ele>323.8</ele>
        <time>2022-05-24T10:02:34Z</time>
      </trkpt>
      <trkpt lat="44.88439" lon="1.76742">
        <ele>323.5</ele>
        <time>2022-05-24T10:02:35Z</time>
      </trkpt>
      <trkpt lat="44.88444" lon="1.76752">
        <ele>323.2</ele>
        <time>2022-05-24T10:02:36Z</time>
      </trkpt>
      <trkpt lat="44.88448" lon="1.7676">
        <ele>323.1</ele>
        <time>2022-05-24T10:02:37Z</time>
      </trkpt>
      <trkpt lat="44.88452" lon="1.76768">
        <ele>323.1</ele>
        <time>2022-05-24T10:02:38Z</time>
      </trkpt>
      <trkpt lat="44.88455" lon="1.76776">
        <ele>323.2</ele>
        <time>2022-05-24T10:02:39Z</time>
      </trkpt>
      <trkpt lat="44.88459" lon="1.76784">
        <ele>323.3</ele>
        <time>2022-05-24T10:02:40Z</time>
      </trkpt>
      <trkpt lat="44.88462" lon="1.76792">
        <ele>323.4</ele>
        <time>2022-05-24T10:02:41Z</time>
      </trkpt>
      <trkpt lat="44.88465" lon="1.76798">
        <ele>323.5</ele>
        <time>2022-05-24T10:02:42Z</time>
      </trkpt>
      <trkpt lat="44.88468" lon="1.76803">
        <ele>323.7</ele>
        <time>2022-05-24T10:02:43Z</time>
      </trkpt>
      <trkpt lat="44.88471" lon="1.76809">
        <ele>323.9</ele>
        <time>2022-05-24T10:02:44Z</time>
      </trkpt>
      <trkpt lat="44.88474" lon="1.76815">
        <ele>324.2</ele>
        <time>2022-05-24T10:02:45Z</time>
      </trkpt>
      <trkpt lat="44.88477" lon="1.7682">
        <ele>324.5</ele>
        <time>2022-05-24T10:02:46Z</time>
      </trkpt>
      <trkpt lat="44.8848" lon="1.76823">
        <ele>324.6</ele>
        <time>2022-05-24T10:02:47Z</time>
      </trkpt>
      <trkpt lat="44.88483" lon="1.76827">
        <ele>324.8</ele>
        <time>2022-05-24T10:02:48Z</time>
      </trkpt>
      <trkpt lat="44.88486" lon="1.7683">
        <ele>325</ele>
        <time>2022-05-24T10:02:49Z</time>
      </trkpt>
      <trkpt lat="44.88489" lon="1.76834">
        <ele>325.2</ele>
        <time>2022-05-24T10:02:50Z</time>
      </trkpt>
      <trkpt lat="44.88492" lon="1.76838">
        <ele>325.4</ele>
        <time>2022-05-24T10:02:51Z</time>
      </trkpt>
      <trkpt lat="44.88496" lon="1.7684">
        <ele>325.6</ele>
        <time>2022-05-24T10:02:52Z</time>
      </trkpt>
      <trkpt lat="44.885" lon="1.76842">
        <ele>325.8</ele>
        <time>2022-05-24T10:02:53Z</time>
      </trkpt>
      <trkpt lat="44.88504" lon="1.76845">
        <ele>326</ele>
        <time>2022-05-24T10:02:54Z</time>
      </trkpt>
      <trkpt lat="44.88518" lon="1.76845">
        <ele>326.6</ele>
        <time>2022-05-24T10:02:59Z</time>
      </trkpt>
      <trkpt lat="44.88525" lon="1.76843">
        <ele>326.9</ele>
        <time>2022-05-24T10:03:00Z</time>
      </trkpt>
      <trkpt lat="44.88531" lon="1.76841">
        <ele>327.1</ele>
        <time>2022-05-24T10:03:01Z</time>
      </trkpt>
      <trkpt lat="44.88536" lon="1.7684">
        <ele>327.3</ele>
        <time>2022-05-24T10:03:02Z</time>
      </trkpt>
      <trkpt lat="44.88541" lon="1.7684">
        <ele>327.5</ele>
        <time>2022-05-24T10:03:03Z</time>
      </trkpt>
      <trkpt lat="44.88546" lon="1.7684">
        <ele>327.7</ele>
        <time>2022-05-24T10:03:04Z</time>
      </trkpt>
      <trkpt lat="44.8855" lon="1.76841">
        <ele>327.7</ele>
        <time>2022-05-24T10:03:05Z</time>
      </trkpt>
      <trkpt lat="44.88554" lon="1.7684">
        <ele>327.7</ele>
        <time>2022-05-24T10:03:06Z</time>
      </trkpt>
      <trkpt lat="44.88557" lon="1.76837">
        <ele>327.7</ele>
        <time>2022-05-24T10:03:07Z</time>
      </trkpt>
      <trkpt lat="44.8856" lon="1.76831">
        <ele>327.8</ele>
        <time>2022-05-24T10:03:08Z</time>
      </trkpt>
      <trkpt lat="44.88561" lon="1.76824">
        <ele>327.9</ele>
        <time>2022-05-24T10:03:09Z</time>
      </trkpt>
      <trkpt lat="44.88563" lon="1.76817">
        <ele>328</ele>
        <time>2022-05-24T10:03:10Z</time>
      </trkpt>
      <trkpt lat="44.88566" lon="1.7681">
        <ele>328.1</ele>
        <time>2022-05-24T10:03:11Z</time>
      </trkpt>
      <trkpt lat="44.88568" lon="1.76804">
        <ele>328.2</ele>
        <time>2022-05-24T10:03:12Z</time>
      </trkpt>
      <trkpt lat="44.8857" lon="1.76797">
        <ele>328.2</ele>
        <time>2022-05-24T10:03:13Z</time>
      </trkpt>
      <trkpt lat="44.88572" lon="1.76791">
        <ele>328.2</ele>
        <time>2022-05-24T10:03:14Z</time>
      </trkpt>
      <trkpt lat="44.88575" lon="1.76785">
        <ele>328.1</ele>
        <time>2022-05-24T10:03:15Z</time>
      </trkpt>
      <trkpt lat="44.88579" lon="1.76779">
        <ele>328.1</ele>
        <time>2022-05-24T10:03:16Z</time>
      </trkpt>
      <trkpt lat="44.88582" lon="1.76773">
        <ele>328</ele>
        <time>2022-05-24T10:03:17Z</time>
      </trkpt>
      <trkpt lat="44.88586" lon="1.76767">
        <ele>327.9</ele>
        <time>2022-05-24T10:03:18Z</time>
      </trkpt>
      <trkpt lat="44.8859" lon="1.7676">
        <ele>327.7</ele>
        <time>2022-05-24T10:03:19Z</time>
      </trkpt>
      <trkpt lat="44.88595" lon="1.76754">
        <ele>327.6</ele>
        <time>2022-05-24T10:03:20Z</time>
      </trkpt>
      <trkpt lat="44.88598" lon="1.76747">
        <ele>327.4</ele>
        <time>2022-05-24T10:03:21Z</time>
      </trkpt>
      <trkpt lat="44.886" lon="1.76739">
        <ele>327.3</ele>
        <time>2022-05-24T10:03:22Z</time>
      </trkpt>
      <trkpt lat="44.88603" lon="1.76732">
        <ele>327.1</ele>
        <time>2022-05-24T10:03:23Z</time>
      </trkpt>
      <trkpt lat="44.88604" lon="1.76725">
        <ele>326.9</ele>
        <time>2022-05-24T10:03:24Z</time>
      </trkpt>
      <trkpt lat="44.88605" lon="1.76717">
        <ele>326.7</ele>
        <time>2022-05-24T10:03:25Z</time>
      </trkpt>
      <trkpt lat="44.88606" lon="1.76711">
        <ele>326.5</ele>
        <time>2022-05-24T10:03:26Z</time>
      </trkpt>
      <trkpt lat="44.88609" lon="1.76703">
        <ele>326.2</ele>
        <time>2022-05-24T10:03:27Z</time>
      </trkpt>
      <trkpt lat="44.88612" lon="1.76696">
        <ele>325.9</ele>
        <time>2022-05-24T10:03:28Z</time>
      </trkpt>
      <trkpt lat="44.88616" lon="1.76687">
        <ele>325.4</ele>
        <time>2022-05-24T10:03:29Z</time>
      </trkpt>
      <trkpt lat="44.88619" lon="1.76679">
        <ele>325.1</ele>
        <time>2022-05-24T10:03:30Z</time>
      </trkpt>
      <trkpt lat="44.88622" lon="1.76671">
        <ele>324.6</ele>
        <time>2022-05-24T10:03:31Z</time>
      </trkpt>
      <trkpt lat="44.88625" lon="1.76662">
        <ele>324.1</ele>
        <time>2022-05-24T10:03:32Z</time>
      </trkpt>
      <trkpt lat="44.88628" lon="1.76651">
        <ele>323.4</ele>
        <time>2022-05-24T10:03:33Z</time>
      </trkpt>
      <trkpt lat="44.88633" lon="1.76632">
        <ele>322</ele>
        <time>2022-05-24T10:03:35Z</time>
      </trkpt>
      <trkpt lat="44.88634" lon="1.7662">
        <ele>321.2</ele>
        <time>2022-05-24T10:03:36Z</time>
      </trkpt>
      <trkpt lat="44.88636" lon="1.76608">
        <ele>320.4</ele>
        <time>2022-05-24T10:03:37Z</time>
      </trkpt>
      <trkpt lat="44.88638" lon="1.76596">
        <ele>319.6</ele>
        <time>2022-05-24T10:03:38Z</time>
      </trkpt>
      <trkpt lat="44.8864" lon="1.76584">
        <ele>318.8</ele>
        <time>2022-05-24T10:03:39Z</time>
      </trkpt>
      <trkpt lat="44.88643" lon="1.76571">
        <ele>317.9</ele>
        <time>2022-05-24T10:03:40Z</time>
      </trkpt>
      <trkpt lat="44.88645" lon="1.76557">
        <ele>317</ele>
        <time>2022-05-24T10:03:41Z</time>
      </trkpt>
      <trkpt lat="44.88646" lon="1.76543">
        <ele>316.1</ele>
        <time>2022-05-24T10:03:42Z</time>
      </trkpt>
      <trkpt lat="44.88648" lon="1.76529">
        <ele>315.2</ele>
        <time>2022-05-24T10:03:43Z</time>
      </trkpt>
      <trkpt lat="44.88649" lon="1.76513">
        <ele>314.3</ele>
        <time>2022-05-24T10:03:44Z</time>
      </trkpt>
      <trkpt lat="44.88651" lon="1.76497">
        <ele>313.5</ele>
        <time>2022-05-24T10:03:45Z</time>
      </trkpt>
      <trkpt lat="44.88653" lon="1.76482">
        <ele>312.8</ele>
        <time>2022-05-24T10:03:46Z</time>
      </trkpt>
      <trkpt lat="44.88655" lon="1.76467">
        <ele>312.1</ele>
        <time>2022-05-24T10:03:47Z</time>
      </trkpt>
      <trkpt lat="44.88658" lon="1.76452">
        <ele>311.5</ele>
        <time>2022-05-24T10:03:48Z</time>
      </trkpt>
      <trkpt lat="44.88661" lon="1.76438">
        <ele>311</ele>
        <time>2022-05-24T10:03:49Z</time>
      </trkpt>
      <trkpt lat="44.88664" lon="1.76424">
        <ele>310.5</ele>
        <time>2022-05-24T10:03:50Z</time>
      </trkpt>
      <trkpt lat="44.88665" lon="1.7641">
        <ele>310.1</ele>
        <time>2022-05-24T10:03:51Z</time>
      </trkpt>
      <trkpt lat="44.88666" lon="1.76395">
        <ele>309.8</ele>
        <time>2022-05-24T10:03:52Z</time>
      </trkpt>
      <trkpt lat="44.88665" lon="1.76381">
        <ele>309.5</ele>
        <time>2022-05-24T10:03:53Z</time>
      </trkpt>
      <trkpt lat="44.88665" lon="1.76367">
        <ele>309.4</ele>
        <time>2022-05-24T10:03:54Z</time>
      </trkpt>
      <trkpt lat="44.88666" lon="1.76354">
        <ele>309.2</ele>
        <time>2022-05-24T10:03:55Z</time>
      </trkpt>
      <trkpt lat="44.88668" lon="1.76341">
        <ele>309.1</ele>
        <time>2022-05-24T10:03:56Z</time>
      </trkpt>
      <trkpt lat="44.8867" lon="1.76328">
        <ele>309.1</ele>
        <time>2022-05-24T10:03:57Z</time>
      </trkpt>
      <trkpt lat="44.88671" lon="1.76316">
        <ele>309.1</ele>
        <time>2022-05-24T10:03:58Z</time>
      </trkpt>
      <trkpt lat="44.88673" lon="1.76305">
        <ele>309.2</ele>
        <time>2022-05-24T10:03:59Z</time>
      </trkpt>
      <trkpt lat="44.88675" lon="1.76295">
        <ele>309.3</ele>
        <time>2022-05-24T10:04:00Z</time>
      </trkpt>
      <trkpt lat="44.88676" lon="1.76285">
        <ele>309.4</ele>
        <time>2022-05-24T10:04:01Z</time>
      </trkpt>
      <trkpt lat="44.88678" lon="1.76275">
        <ele>309.6</ele>
        <time>2022-05-24T10:04:02Z</time>
      </trkpt>
      <trkpt lat="44.8868" lon="1.76265">
        <ele>309.7</ele>
        <time>2022-05-24T10:04:03Z</time>
      </trkpt>
      <trkpt lat="44.88683" lon="1.76255">
        <ele>310</ele>
        <time>2022-05-24T10:04:04Z</time>
      </trkpt>
      <trkpt lat="44.88686" lon="1.76245">
        <ele>310.2</ele>
        <time>2022-05-24T10:04:05Z</time>
      </trkpt>
      <trkpt lat="44.88689" lon="1.76235">
        <ele>310.5</ele>
        <time>2022-05-24T10:04:06Z</time>
      </trkpt>
      <trkpt lat="44.88693" lon="1.76226">
        <ele>310.8</ele>
        <time>2022-05-24T10:04:07Z</time>
      </trkpt>
      <trkpt lat="44.88696" lon="1.76217">
        <ele>311.1</ele>
        <time>2022-05-24T10:04:08Z</time>
      </trkpt>
      <trkpt lat="44.887" lon="1.76209">
        <ele>311.4</ele>
        <time>2022-05-24T10:04:09Z</time>
      </trkpt>
      <trkpt lat="44.88703" lon="1.76201">
        <ele>311.7</ele>
        <time>2022-05-24T10:04:10Z</time>
      </trkpt>
      <trkpt lat="44.88707" lon="1.76194">
        <ele>311.9</ele>
        <time>2022-05-24T10:04:11Z</time>
      </trkpt>
      <trkpt lat="44.8871" lon="1.76185">
        <ele>312.1</ele>
        <time>2022-05-24T10:04:12Z</time>
      </trkpt>
      <trkpt lat="44.88714" lon="1.76177">
        <ele>312.3</ele>
        <time>2022-05-24T10:04:13Z</time>
      </trkpt>
      <trkpt lat="44.88718" lon="1.7617">
        <ele>312.6</ele>
        <time>2022-05-24T10:04:14Z</time>
      </trkpt>
      <trkpt lat="44.88722" lon="1.76162">
        <ele>312.9</ele>
        <time>2022-05-24T10:04:15Z</time>
      </trkpt>
      <trkpt lat="44.88726" lon="1.76155">
        <ele>313.2</ele>
        <time>2022-05-24T10:04:16Z</time>
      </trkpt>
      <trkpt lat="44.88729" lon="1.76148">
        <ele>313.4</ele>
        <time>2022-05-24T10:04:17Z</time>
      </trkpt>
      <trkpt lat="44.88733" lon="1.76142">
        <ele>313.7</ele>
        <time>2022-05-24T10:04:18Z</time>
      </trkpt>
      <trkpt lat="44.88737" lon="1.76135">
        <ele>314</ele>
        <time>2022-05-24T10:04:19Z</time>
      </trkpt>
      <trkpt lat="44.88741" lon="1.76128">
        <ele>314.2</ele>
        <time>2022-05-24T10:04:20Z</time>
      </trkpt>
      <trkpt lat="44.88744" lon="1.76121">
        <ele>314.4</ele>
        <time>2022-05-24T10:04:21Z</time>
      </trkpt>
      <trkpt lat="44.88747" lon="1.76115">
        <ele>314.6</ele>
        <time>2022-05-24T10:04:22Z</time>
      </trkpt>
      <trkpt lat="44.8875" lon="1.76109">
        <ele>314.8</ele>
        <time>2022-05-24T10:04:23Z</time>
      </trkpt>
      <trkpt lat="44.88753" lon="1.76102">
        <ele>315</ele>
        <time>2022-05-24T10:04:24Z</time>
      </trkpt>
      <trkpt lat="44.88756" lon="1.76096">
        <ele>315.1</ele>
        <time>2022-05-24T10:04:25Z</time>
      </trkpt>
      <trkpt lat="44.8876" lon="1.76089">
        <ele>315.3</ele>
        <time>2022-05-24T10:04:26Z</time>
      </trkpt>
      <trkpt lat="44.88763" lon="1.76084">
        <ele>315.5</ele>
        <time>2022-05-24T10:04:27Z</time>
      </trkpt>
      <trkpt lat="44.88767" lon="1.76076">
        <ele>315.6</ele>
        <time>2022-05-24T10:04:28Z</time>
      </trkpt>
      <trkpt lat="44.88771" lon="1.76069">
        <ele>315.8</ele>
        <time>2022-05-24T10:04:29Z</time>
      </trkpt>
      <trkpt lat="44.88774" lon="1.76062">
        <ele>315.9</ele>
        <time>2022-05-24T10:04:30Z</time>
      </trkpt>
      <trkpt lat="44.88778" lon="1.76055">
        <ele>316</ele>
        <time>2022-05-24T10:04:31Z</time>
      </trkpt>
      <trkpt lat="44.88782" lon="1.76049">
        <ele>316.2</ele>
        <time>2022-05-24T10:04:32Z</time>
      </trkpt>
      <trkpt lat="44.88787" lon="1.76043">
        <ele>316.3</ele>
        <time>2022-05-24T10:04:33Z</time>
      </trkpt>
      <trkpt lat="44.88791" lon="1.76037">
        <ele>316.3</ele>
        <time>2022-05-24T10:04:34Z</time>
      </trkpt>
      <trkpt lat="44.88796" lon="1.76031">
        <ele>316.4</ele>
        <time>2022-05-24T10:04:35Z</time>
      </trkpt>
      <trkpt lat="44.88801" lon="1.76025">
        <ele>316.4</ele>
        <time>2022-05-24T10:04:36Z</time>
      </trkpt>
      <trkpt lat="44.88806" lon="1.76021">
        <ele>316.4</ele>
        <time>2022-05-24T10:04:37Z</time>
      </trkpt>
      <trkpt lat="44.88811" lon="1.76016">
        <ele>316.3</ele>
        <time>2022-05-24T10:04:38Z</time>
      </trkpt>
      <trkpt lat="44.88816" lon="1.7601">
        <ele>316.3</ele>
        <time>2022-05-24T10:04:39Z</time>
      </trkpt>
      <trkpt lat="44.88821" lon="1.76004">
        <ele>316.3</ele>
        <time>2022-05-24T10:04:40Z</time>
      </trkpt>
      <trkpt lat="44.88826" lon="1.75997">
        <ele>316.2</ele>
        <time>2022-05-24T10:04:41Z</time>
      </trkpt>
      <trkpt lat="44.88831" lon="1.7599">
        <ele>316.2</ele>
        <time>2022-05-24T10:04:42Z</time>
      </trkpt>
      <trkpt lat="44.88836" lon="1.75984">
        <ele>316.3</ele>
        <time>2022-05-24T10:04:43Z</time>
      </trkpt>
      <trkpt lat="44.8884" lon="1.75976">
        <ele>316.3</ele>
        <time>2022-05-24T10:04:44Z</time>
      </trkpt>
      <trkpt lat="44.88844" lon="1.75969">
        <ele>316.4</ele>
        <time>2022-05-24T10:04:45Z</time>
      </trkpt>
      <trkpt lat="44.88848" lon="1.75961">
        <ele>316.5</ele>
        <time>2022-05-24T10:04:46Z</time>
      </trkpt>
      <trkpt lat="44.8885" lon="1.75953">
        <ele>316.6</ele>
        <time>2022-05-24T10:04:47Z</time>
      </trkpt>
      <trkpt lat="44.88853" lon="1.75945">
        <ele>316.7</ele>
        <time>2022-05-24T10:04:48Z</time>
      </trkpt>
      <trkpt lat="44.88856" lon="1.75938">
        <ele>316.9</ele>
        <time>2022-05-24T10:04:49Z</time>
      </trkpt>
      <trkpt lat="44.88858" lon="1.7593">
        <ele>317</ele>
        <time>2022-05-24T10:04:50Z</time>
      </trkpt>
      <trkpt lat="44.8886" lon="1.75924">
        <ele>317.1</ele>
        <time>2022-05-24T10:04:51Z</time>
      </trkpt>
      <trkpt lat="44.88863" lon="1.75916">
        <ele>317.3</ele>
        <time>2022-05-24T10:04:52Z</time>
      </trkpt>
      <trkpt lat="44.88866" lon="1.75909">
        <ele>317.4</ele>
        <time>2022-05-24T10:04:53Z</time>
      </trkpt>
      <trkpt lat="44.88869" lon="1.75901">
        <ele>317.5</ele>
        <time>2022-05-24T10:04:54Z</time>
      </trkpt>
      <trkpt lat="44.88871" lon="1.75895">
        <ele>317.6</ele>
        <time>2022-05-24T10:04:55Z</time>
      </trkpt>
      <trkpt lat="44.88873" lon="1.75887">
        <ele>317.6</ele>
        <time>2022-05-24T10:04:56Z</time>
      </trkpt>
      <trkpt lat="44.88875" lon="1.7588">
        <ele>317.6</ele>
        <time>2022-05-24T10:04:57Z</time>
      </trkpt>
      <trkpt lat="44.88877" lon="1.75872">
        <ele>317.5</ele>
        <time>2022-05-24T10:04:58Z</time>
      </trkpt>
      <trkpt lat="44.8888" lon="1.75864">
        <ele>317.5</ele>
        <time>2022-05-24T10:04:59Z</time>
      </trkpt>
      <trkpt lat="44.88882" lon="1.75856">
        <ele>317.3</ele>
        <time>2022-05-24T10:05:00Z</time>
      </trkpt>
      <trkpt lat="44.88886" lon="1.75848">
        <ele>317.1</ele>
        <time>2022-05-24T10:05:01Z</time>
      </trkpt>
      <trkpt lat="44.8889" lon="1.7584">
        <ele>316.8</ele>
        <time>2022-05-24T10:05:02Z</time>
      </trkpt>
      <trkpt lat="44.88894" lon="1.75832">
        <ele>316.4</ele>
        <time>2022-05-24T10:05:03Z</time>
      </trkpt>
      <trkpt lat="44.88898" lon="1.75824">
        <ele>316.1</ele>
        <time>2022-05-24T10:05:04Z</time>
      </trkpt>
      <trkpt lat="44.88902" lon="1.75816">
        <ele>315.7</ele>
        <time>2022-05-24T10:05:05Z</time>
      </trkpt>
      <trkpt lat="44.88906" lon="1.75807">
        <ele>315.3</ele>
        <time>2022-05-24T10:05:06Z</time>
      </trkpt>
      <trkpt lat="44.88911" lon="1.75798">
        <ele>314.9</ele>
        <time>2022-05-24T10:05:07Z</time>
      </trkpt>
      <trkpt lat="44.88916" lon="1.75789">
        <ele>314.5</ele>
        <time>2022-05-24T10:05:08Z</time>
      </trkpt>
      <trkpt lat="44.8892" lon="1.7578">
        <ele>314</ele>
        <time>2022-05-24T10:05:09Z</time>
      </trkpt>
      <trkpt lat="44.88925" lon="1.75772">
        <ele>313.6</ele>
        <time>2022-05-24T10:05:10Z</time>
      </trkpt>
      <trkpt lat="44.8893" lon="1.75765">
        <ele>313.1</ele>
        <time>2022-05-24T10:05:11Z</time>
      </trkpt>
      <trkpt lat="44.88934" lon="1.75757">
        <ele>312.8</ele>
        <time>2022-05-24T10:05:12Z</time>
      </trkpt>
      <trkpt lat="44.88937" lon="1.75747">
        <ele>312.4</ele>
        <time>2022-05-24T10:05:13Z</time>
      </trkpt>
      <trkpt lat="44.88939" lon="1.75736">
        <ele>312.2</ele>
        <time>2022-05-24T10:05:14Z</time>
      </trkpt>
      <trkpt lat="44.8894" lon="1.75728">
        <ele>312.1</ele>
        <time>2022-05-24T10:05:15Z</time>
      </trkpt>
      <trkpt lat="44.8894" lon="1.75722">
        <ele>311.9</ele>
        <time>2022-05-24T10:05:16Z</time>
      </trkpt>
      <trkpt lat="44.88941" lon="1.75719">
        <ele>311.8</ele>
        <time>2022-05-24T10:05:17Z</time>
      </trkpt>
      <trkpt lat="44.88942" lon="1.75718">
        <ele>311.7</ele>
        <time>2022-05-24T10:05:18Z</time>
      </trkpt>
      <trkpt lat="44.88946" lon="1.75719">
        <ele>311.5</ele>
        <time>2022-05-24T10:05:19Z</time>
      </trkpt>
      <trkpt lat="44.88947" lon="1.75719">
        <ele>311.4</ele>
        <time>2022-05-24T10:05:20Z</time>
      </trkpt>
      <trkpt lat="44.88951" lon="1.7572">
        <ele>311.3</ele>
        <time>2022-05-24T10:05:21Z</time>
      </trkpt>
      <trkpt lat="44.88955" lon="1.75719">
        <ele>311.2</ele>
        <time>2022-05-24T10:05:22Z</time>
      </trkpt>
      <trkpt lat="44.88959" lon="1.75718">
        <ele>311</ele>
        <time>2022-05-24T10:05:23Z</time>
      </trkpt>
      <trkpt lat="44.88963" lon="1.75718">
        <ele>310.9</ele>
        <time>2022-05-24T10:05:24Z</time>
      </trkpt>
      <trkpt lat="44.88967" lon="1.75718">
        <ele>310.7</ele>
        <time>2022-05-24T10:05:25Z</time>
      </trkpt>
      <trkpt lat="44.88972" lon="1.75718">
        <ele>310.5</ele>
        <time>2022-05-24T10:05:26Z</time>
      </trkpt>
      <trkpt lat="44.88976" lon="1.75718">
        <ele>310.3</ele>
        <time>2022-05-24T10:05:27Z</time>
      </trkpt>
      <trkpt lat="44.88981" lon="1.75718">
        <ele>310.1</ele>
        <time>2022-05-24T10:05:28Z</time>
      </trkpt>
      <trkpt lat="44.88987" lon="1.75718">
        <ele>309.9</ele>
        <time>2022-05-24T10:05:29Z</time>
      </trkpt>
      <trkpt lat="44.88992" lon="1.75718">
        <ele>309.6</ele>
        <time>2022-05-24T10:05:30Z</time>
      </trkpt>
      <trkpt lat="44.88996" lon="1.75717">
        <ele>309.4</ele>
        <time>2022-05-24T10:05:31Z</time>
      </trkpt>
      <trkpt lat="44.89001" lon="1.75717">
        <ele>309.1</ele>
        <time>2022-05-24T10:05:32Z</time>
      </trkpt>
      <trkpt lat="44.89008" lon="1.75715">
        <ele>308.7</ele>
        <time>2022-05-24T10:05:33Z</time>
      </trkpt>
      <trkpt lat="44.89015" lon="1.75712">
        <ele>308.3</ele>
        <time>2022-05-24T10:05:34Z</time>
      </trkpt>
      <trkpt lat="44.89021" lon="1.75709">
        <ele>307.9</ele>
        <time>2022-05-24T10:05:35Z</time>
      </trkpt>
      <trkpt lat="44.89028" lon="1.75705">
        <ele>307.5</ele>
        <time>2022-05-24T10:05:36Z</time>
      </trkpt>
      <trkpt lat="44.8904" lon="1.75695">
        <ele>306.5</ele>
        <time>2022-05-24T10:05:38Z</time>
      </trkpt>
      <trkpt lat="44.89047" lon="1.7569">
        <ele>305.8</ele>
        <time>2022-05-24T10:05:39Z</time>
      </trkpt>
      <trkpt lat="44.89053" lon="1.75686">
        <ele>304.9</ele>
        <time>2022-05-24T10:05:40Z</time>
      </trkpt>
      <trkpt lat="44.89061" lon="1.75681">
        <ele>303.7</ele>
        <time>2022-05-24T10:05:43Z</time>
      </trkpt>
      <trkpt lat="44.89079" lon="1.75676">
        <ele>300.6</ele>
        <time>2022-05-24T10:05:44Z</time>
      </trkpt>
      <trkpt lat="44.89088" lon="1.75672">
        <ele>299.1</ele>
        <time>2022-05-24T10:05:45Z</time>
      </trkpt>
      <trkpt lat="44.89099" lon="1.7567">
        <ele>297.6</ele>
        <time>2022-05-24T10:05:46Z</time>
      </trkpt>
      <trkpt lat="44.89111" lon="1.75669">
        <ele>296.1</ele>
        <time>2022-05-24T10:05:47Z</time>
      </trkpt>
      <trkpt lat="44.89122" lon="1.75668">
        <ele>294.8</ele>
        <time>2022-05-24T10:05:48Z</time>
      </trkpt>
      <trkpt lat="44.89132" lon="1.75666">
        <ele>293.8</ele>
        <time>2022-05-24T10:05:49Z</time>
      </trkpt>
      <trkpt lat="44.89143" lon="1.75665">
        <ele>292.8</ele>
        <time>2022-05-24T10:05:50Z</time>
      </trkpt>
      <trkpt lat="44.89153" lon="1.75664">
        <ele>292</ele>
        <time>2022-05-24T10:05:51Z</time>
      </trkpt>
      <trkpt lat="44.89163" lon="1.75662">
        <ele>291.1</ele>
        <time>2022-05-24T10:05:52Z</time>
      </trkpt>
      <trkpt lat="44.89174" lon="1.7566">
        <ele>290.2</ele>
        <time>2022-05-24T10:05:53Z</time>
      </trkpt>
      <trkpt lat="44.89184" lon="1.75658">
        <ele>289.3</ele>
        <time>2022-05-24T10:05:54Z</time>
      </trkpt>
      <trkpt lat="44.89194" lon="1.75658">
        <ele>288.3</ele>
        <time>2022-05-24T10:05:55Z</time>
      </trkpt>
      <trkpt lat="44.89203" lon="1.75657">
        <ele>287.2</ele>
        <time>2022-05-24T10:05:56Z</time>
      </trkpt>
      <trkpt lat="44.89213" lon="1.75656">
        <ele>286.1</ele>
        <time>2022-05-24T10:05:57Z</time>
      </trkpt>
      <trkpt lat="44.89223" lon="1.75655">
        <ele>285</ele>
        <time>2022-05-24T10:05:58Z</time>
      </trkpt>
      <trkpt lat="44.89234" lon="1.75652">
        <ele>284.1</ele>
        <time>2022-05-24T10:05:59Z</time>
      </trkpt>
      <trkpt lat="44.89243" lon="1.7565">
        <ele>283.3</ele>
        <time>2022-05-24T10:06:00Z</time>
      </trkpt>
      <trkpt lat="44.89254" lon="1.75648">
        <ele>282.7</ele>
        <time>2022-05-24T10:06:01Z</time>
      </trkpt>
      <trkpt lat="44.89265" lon="1.75645">
        <ele>282.3</ele>
        <time>2022-05-24T10:06:02Z</time>
      </trkpt>
      <trkpt lat="44.89275" lon="1.75642">
        <ele>282.3</ele>
        <time>2022-05-24T10:06:03Z</time>
      </trkpt>
      <trkpt lat="44.89284" lon="1.75639">
        <ele>282.5</ele>
        <time>2022-05-24T10:06:04Z</time>
      </trkpt>
      <trkpt lat="44.89292" lon="1.75636">
        <ele>282.9</ele>
        <time>2022-05-24T10:06:05Z</time>
      </trkpt>
      <trkpt lat="44.893" lon="1.75636">
        <ele>283.5</ele>
        <time>2022-05-24T10:06:06Z</time>
      </trkpt>
      <trkpt lat="44.89307" lon="1.75636">
        <ele>284.1</ele>
        <time>2022-05-24T10:06:07Z</time>
      </trkpt>
      <trkpt lat="44.89313" lon="1.75636">
        <ele>284.8</ele>
        <time>2022-05-24T10:06:08Z</time>
      </trkpt>
      <trkpt lat="44.89319" lon="1.75635">
        <ele>285.3</ele>
        <time>2022-05-24T10:06:09Z</time>
      </trkpt>
      <trkpt lat="44.89323" lon="1.75635">
        <ele>285.9</ele>
        <time>2022-05-24T10:06:10Z</time>
      </trkpt>
      <trkpt lat="44.89327" lon="1.75637">
        <ele>286.4</ele>
        <time>2022-05-24T10:06:11Z</time>
      </trkpt>
      <trkpt lat="44.89331" lon="1.75639">
        <ele>286.8</ele>
        <time>2022-05-24T10:06:12Z</time>
      </trkpt>
      <trkpt lat="44.89334" lon="1.75641">
        <ele>287.3</ele>
        <time>2022-05-24T10:06:13Z</time>
      </trkpt>
      <trkpt lat="44.89337" lon="1.75643">
        <ele>287.6</ele>
        <time>2022-05-24T10:06:14Z</time>
      </trkpt>
      <trkpt lat="44.89341" lon="1.75644">
        <ele>287.9</ele>
        <time>2022-05-24T10:06:15Z</time>
      </trkpt>
      <trkpt lat="44.89344" lon="1.75647">
        <ele>288.3</ele>
        <time>2022-05-24T10:06:16Z</time>
      </trkpt>
      <trkpt lat="44.89348" lon="1.75649">
        <ele>288.6</ele>
        <time>2022-05-24T10:06:17Z</time>
      </trkpt>
      <trkpt lat="44.89352" lon="1.7565">
        <ele>288.9</ele>
        <time>2022-05-24T10:06:18Z</time>
      </trkpt>
      <trkpt lat="44.89355" lon="1.75651">
        <ele>289.2</ele>
        <time>2022-05-24T10:06:19Z</time>
      </trkpt>
      <trkpt lat="44.89359" lon="1.75651">
        <ele>289.5</ele>
        <time>2022-05-24T10:06:20Z</time>
      </trkpt>
      <trkpt lat="44.89361" lon="1.75651">
        <ele>289.7</ele>
        <time>2022-05-24T10:06:21Z</time>
      </trkpt>
      <trkpt lat="44.89364" lon="1.75651">
        <ele>289.9</ele>
        <time>2022-05-24T10:06:22Z</time>
      </trkpt>
      <trkpt lat="44.89367" lon="1.7565">
        <ele>290.2</ele>
        <time>2022-05-24T10:06:23Z</time>
      </trkpt>
      <trkpt lat="44.8937" lon="1.75648">
        <ele>290.4</ele>
        <time>2022-05-24T10:06:24Z</time>
      </trkpt>
      <trkpt lat="44.89373" lon="1.75645">
        <ele>290.7</ele>
        <time>2022-05-24T10:06:25Z</time>
      </trkpt>
      <trkpt lat="44.89376" lon="1.75641">
        <ele>290.9</ele>
        <time>2022-05-24T10:06:26Z</time>
      </trkpt>
      <trkpt lat="44.89378" lon="1.75637">
        <ele>291</ele>
        <time>2022-05-24T10:06:27Z</time>
      </trkpt>
      <trkpt lat="44.89379" lon="1.75632">
        <ele>291.2</ele>
        <time>2022-05-24T10:06:28Z</time>
      </trkpt>
      <trkpt lat="44.89379" lon="1.75626">
        <ele>291.3</ele>
        <time>2022-05-24T10:06:29Z</time>
      </trkpt>
      <trkpt lat="44.89378" lon="1.7562">
        <ele>291.3</ele>
        <time>2022-05-24T10:06:30Z</time>
      </trkpt>
      <trkpt lat="44.89378" lon="1.75614">
        <ele>291.3</ele>
        <time>2022-05-24T10:06:31Z</time>
      </trkpt>
      <trkpt lat="44.89377" lon="1.75608">
        <ele>291.3</ele>
        <time>2022-05-24T10:06:32Z</time>
      </trkpt>
      <trkpt lat="44.89376" lon="1.75601">
        <ele>291.2</ele>
        <time>2022-05-24T10:06:33Z</time>
      </trkpt>
      <trkpt lat="44.89376" lon="1.75594">
        <ele>291.2</ele>
        <time>2022-05-24T10:06:34Z</time>
      </trkpt>
      <trkpt lat="44.89376" lon="1.75587">
        <ele>291.1</ele>
        <time>2022-05-24T10:06:35Z</time>
      </trkpt>
      <trkpt lat="44.89376" lon="1.7558">
        <ele>291</ele>
        <time>2022-05-24T10:06:36Z</time>
      </trkpt>
      <trkpt lat="44.89377" lon="1.75572">
        <ele>290.9</ele>
        <time>2022-05-24T10:06:37Z</time>
      </trkpt>
      <trkpt lat="44.89377" lon="1.75565">
        <ele>290.7</ele>
        <time>2022-05-24T10:06:38Z</time>
      </trkpt>
      <trkpt lat="44.89377" lon="1.75557">
        <ele>290.5</ele>
        <time>2022-05-24T10:06:39Z</time>
      </trkpt>
      <trkpt lat="44.89376" lon="1.75549">
        <ele>290.2</ele>
        <time>2022-05-24T10:06:40Z</time>
      </trkpt>
      <trkpt lat="44.89375" lon="1.75541">
        <ele>290</ele>
        <time>2022-05-24T10:06:41Z</time>
      </trkpt>
      <trkpt lat="44.89374" lon="1.75533">
        <ele>289.7</ele>
        <time>2022-05-24T10:06:42Z</time>
      </trkpt>
      <trkpt lat="44.89372" lon="1.75524">
        <ele>289.3</ele>
        <time>2022-05-24T10:06:43Z</time>
      </trkpt>
      <trkpt lat="44.8937" lon="1.75516">
        <ele>289</ele>
        <time>2022-05-24T10:06:44Z</time>
      </trkpt>
      <trkpt lat="44.89369" lon="1.75507">
        <ele>288.6</ele>
        <time>2022-05-24T10:06:45Z</time>
      </trkpt>
      <trkpt lat="44.89368" lon="1.75497">
        <ele>288.3</ele>
        <time>2022-05-24T10:06:46Z</time>
      </trkpt>
      <trkpt lat="44.89367" lon="1.75488">
        <ele>288.1</ele>
        <time>2022-05-24T10:06:47Z</time>
      </trkpt>
      <trkpt lat="44.89368" lon="1.75481">
        <ele>287.9</ele>
        <time>2022-05-24T10:06:48Z</time>
      </trkpt>
      <trkpt lat="44.89369" lon="1.75474">
        <ele>287.8</ele>
        <time>2022-05-24T10:06:49Z</time>
      </trkpt>
      <trkpt lat="44.89372" lon="1.75469">
        <ele>287.8</ele>
        <time>2022-05-24T10:06:50Z</time>
      </trkpt>
      <trkpt lat="44.89376" lon="1.75465">
        <ele>287.9</ele>
        <time>2022-05-24T10:06:51Z</time>
      </trkpt>
      <trkpt lat="44.8938" lon="1.75466">
        <ele>287.9</ele>
        <time>2022-05-24T10:06:52Z</time>
      </trkpt>
      <trkpt lat="44.89384" lon="1.7547">
        <ele>288</ele>
        <time>2022-05-24T10:06:53Z</time>
      </trkpt>
      <trkpt lat="44.89387" lon="1.75473">
        <ele>288.1</ele>
        <time>2022-05-24T10:06:54Z</time>
      </trkpt>
      <trkpt lat="44.8939" lon="1.75476">
        <ele>288.2</ele>
        <time>2022-05-24T10:06:55Z</time>
      </trkpt>
      <trkpt lat="44.89394" lon="1.75477">
        <ele>288.3</ele>
        <time>2022-05-24T10:06:56Z</time>
      </trkpt>
      <trkpt lat="44.89397" lon="1.75479">
        <ele>288.4</ele>
        <time>2022-05-24T10:06:57Z</time>
      </trkpt>
      <trkpt lat="44.89401" lon="1.75479">
        <ele>288.5</ele>
        <time>2022-05-24T10:06:58Z</time>
      </trkpt>
      <trkpt lat="44.89405" lon="1.75479">
        <ele>288.6</ele>
        <time>2022-05-24T10:06:59Z</time>
      </trkpt>
      <trkpt lat="44.89408" lon="1.7548">
        <ele>288.7</ele>
        <time>2022-05-24T10:07:00Z</time>
      </trkpt>
      <trkpt lat="44.89412" lon="1.75482">
        <ele>288.7</ele>
        <time>2022-05-24T10:07:01Z</time>
      </trkpt>
      <trkpt lat="44.89416" lon="1.75483">
        <ele>288.8</ele>
        <time>2022-05-24T10:07:02Z</time>
      </trkpt>
      <trkpt lat="44.89419" lon="1.75484">
        <ele>288.9</ele>
        <time>2022-05-24T10:07:03Z</time>
      </trkpt>
      <trkpt lat="44.89423" lon="1.75485">
        <ele>288.9</ele>
        <time>2022-05-24T10:07:04Z</time>
      </trkpt>
      <trkpt lat="44.89426" lon="1.75486">
        <ele>289</ele>
        <time>2022-05-24T10:07:05Z</time>
      </trkpt>
      <trkpt lat="44.8943" lon="1.75486">
        <ele>289</ele>
        <time>2022-05-24T10:07:06Z</time>
      </trkpt>
      <trkpt lat="44.89433" lon="1.75487">
        <ele>289.1</ele>
        <time>2022-05-24T10:07:07Z</time>
      </trkpt>
      <trkpt lat="44.89437" lon="1.75487">
        <ele>289.1</ele>
        <time>2022-05-24T10:07:08Z</time>
      </trkpt>
      <trkpt lat="44.89441" lon="1.75487">
        <ele>289.2</ele>
        <time>2022-05-24T10:07:09Z</time>
      </trkpt>
      <trkpt lat="44.89444" lon="1.75487">
        <ele>289.2</ele>
        <time>2022-05-24T10:07:10Z</time>
      </trkpt>
      <trkpt lat="44.89447" lon="1.75487">
        <ele>289.2</ele>
        <time>2022-05-24T10:07:11Z</time>
      </trkpt>
      <trkpt lat="44.8945" lon="1.75487">
        <ele>289.3</ele>
        <time>2022-05-24T10:07:12Z</time>
      </trkpt>
      <trkpt lat="44.89454" lon="1.75488">
        <ele>289.3</ele>
        <time>2022-05-24T10:07:13Z</time>
      </trkpt>
      <trkpt lat="44.89457" lon="1.75489">
        <ele>289.3</ele>
        <time>2022-05-24T10:07:14Z</time>
      </trkpt>
      <trkpt lat="44.89461" lon="1.7549">
        <ele>289.4</ele>
        <time>2022-05-24T10:07:15Z</time>
      </trkpt>
      <trkpt lat="44.89464" lon="1.75491">
        <ele>289.4</ele>
        <time>2022-05-24T10:07:16Z</time>
      </trkpt>
      <trkpt lat="44.89468" lon="1.75492">
        <ele>289.4</ele>
        <time>2022-05-24T10:07:17Z</time>
      </trkpt>
      <trkpt lat="44.89471" lon="1.75493">
        <ele>289.4</ele>
        <time>2022-05-24T10:07:18Z</time>
      </trkpt>
      <trkpt lat="44.89475" lon="1.75494">
        <ele>289.4</ele>
        <time>2022-05-24T10:07:19Z</time>
      </trkpt>
      <trkpt lat="44.89478" lon="1.75495">
        <ele>289.4</ele>
        <time>2022-05-24T10:07:20Z</time>
      </trkpt>
      <trkpt lat="44.89482" lon="1.75497">
        <ele>289.4</ele>
        <time>2022-05-24T10:07:21Z</time>
      </trkpt>
      <trkpt lat="44.89486" lon="1.75497">
        <ele>289.4</ele>
        <time>2022-05-24T10:07:22Z</time>
      </trkpt>
      <trkpt lat="44.89489" lon="1.75497">
        <ele>289.3</ele>
        <time>2022-05-24T10:07:23Z</time>
      </trkpt>
      <trkpt lat="44.89492" lon="1.75497">
        <ele>289.3</ele>
        <time>2022-05-24T10:07:24Z</time>
      </trkpt>
      <trkpt lat="44.89496" lon="1.75498">
        <ele>289.2</ele>
        <time>2022-05-24T10:07:25Z</time>
      </trkpt>
      <trkpt lat="44.895" lon="1.75498">
        <ele>289.2</ele>
        <time>2022-05-24T10:07:26Z</time>
      </trkpt>
      <trkpt lat="44.89504" lon="1.75499">
        <ele>289.1</ele>
        <time>2022-05-24T10:07:27Z</time>
      </trkpt>
      <trkpt lat="44.89508" lon="1.75499">
        <ele>289</ele>
        <time>2022-05-24T10:07:28Z</time>
      </trkpt>
      <trkpt lat="44.89511" lon="1.75498">
        <ele>288.9</ele>
        <time>2022-05-24T10:07:29Z</time>
      </trkpt>
      <trkpt lat="44.89514" lon="1.75498">
        <ele>288.8</ele>
        <time>2022-05-24T10:07:30Z</time>
      </trkpt>
      <trkpt lat="44.89517" lon="1.75497">
        <ele>288.7</ele>
        <time>2022-05-24T10:07:31Z</time>
      </trkpt>
      <trkpt lat="44.89521" lon="1.75499">
        <ele>288.7</ele>
        <time>2022-05-24T10:07:32Z</time>
      </trkpt>
      <trkpt lat="44.89524" lon="1.75501">
        <ele>288.6</ele>
        <time>2022-05-24T10:07:33Z</time>
      </trkpt>
      <trkpt lat="44.89527" lon="1.75503">
        <ele>288.5</ele>
        <time>2022-05-24T10:07:34Z</time>
      </trkpt>
      <trkpt lat="44.89529" lon="1.75504">
        <ele>288.4</ele>
        <time>2022-05-24T10:07:35Z</time>
      </trkpt>
      <trkpt lat="44.89533" lon="1.75506">
        <ele>288.3</ele>
        <time>2022-05-24T10:07:36Z</time>
      </trkpt>
      <trkpt lat="44.89537" lon="1.7551">
        <ele>288.2</ele>
        <time>2022-05-24T10:07:37Z</time>
      </trkpt>
      <trkpt lat="44.8954" lon="1.75514">
        <ele>288</ele>
        <time>2022-05-24T10:07:38Z</time>
      </trkpt>
      <trkpt lat="44.89543" lon="1.75519">
        <ele>287.8</ele>
        <time>2022-05-24T10:07:39Z</time>
      </trkpt>
      <trkpt lat="44.89546" lon="1.75524">
        <ele>287.7</ele>
        <time>2022-05-24T10:07:40Z</time>
      </trkpt>
      <trkpt lat="44.89549" lon="1.75529">
        <ele>287.5</ele>
        <time>2022-05-24T10:07:41Z</time>
      </trkpt>
      <trkpt lat="44.89553" lon="1.75533">
        <ele>287.4</ele>
        <time>2022-05-24T10:07:42Z</time>
      </trkpt>
      <trkpt lat="44.89557" lon="1.75539">
        <ele>287.2</ele>
        <time>2022-05-24T10:07:43Z</time>
      </trkpt>
      <trkpt lat="44.89561" lon="1.75544">
        <ele>287</ele>
        <time>2022-05-24T10:07:44Z</time>
      </trkpt>
      <trkpt lat="44.89565" lon="1.75548">
        <ele>286.9</ele>
        <time>2022-05-24T10:07:45Z</time>
      </trkpt>
      <trkpt lat="44.89568" lon="1.75551">
        <ele>286.8</ele>
        <time>2022-05-24T10:07:46Z</time>
      </trkpt>
      <trkpt lat="44.89572" lon="1.75556">
        <ele>286.6</ele>
        <time>2022-05-24T10:07:47Z</time>
      </trkpt>
      <trkpt lat="44.89576" lon="1.75563">
        <ele>286.4</ele>
        <time>2022-05-24T10:07:48Z</time>
      </trkpt>
      <trkpt lat="44.89582" lon="1.75568">
        <ele>286.1</ele>
        <time>2022-05-24T10:07:49Z</time>
      </trkpt>
      <trkpt lat="44.89587" lon="1.75572">
        <ele>285.8</ele>
        <time>2022-05-24T10:07:50Z</time>
      </trkpt>
      <trkpt lat="44.89593" lon="1.75577">
        <ele>285.5</ele>
        <time>2022-05-24T10:07:51Z</time>
      </trkpt>
      <trkpt lat="44.89599" lon="1.75581">
        <ele>285.1</ele>
        <time>2022-05-24T10:07:52Z</time>
      </trkpt>
      <trkpt lat="44.89603" lon="1.75585">
        <ele>284.8</ele>
        <time>2022-05-24T10:07:53Z</time>
      </trkpt>
      <trkpt lat="44.89605" lon="1.7559">
        <ele>284.5</ele>
        <time>2022-05-24T10:07:54Z</time>
      </trkpt>
      <trkpt lat="44.89606" lon="1.75594">
        <ele>284.3</ele>
        <time>2022-05-24T10:07:55Z</time>
      </trkpt>
      <trkpt lat="44.89609" lon="1.75597">
        <ele>284.1</ele>
        <time>2022-05-24T10:07:56Z</time>
      </trkpt>
      <trkpt lat="44.8961" lon="1.75597">
        <ele>284</ele>
        <time>2022-05-24T10:07:57Z</time>
      </trkpt>
      <trkpt lat="44.89612" lon="1.75601">
        <ele>283.7</ele>
        <time>2022-05-24T10:07:58Z</time>
      </trkpt>
      <trkpt lat="44.89613" lon="1.75602">
        <ele>283.6</ele>
        <time>2022-05-24T10:07:59Z</time>
      </trkpt>
      <trkpt lat="44.89614" lon="1.75608">
        <ele>283.3</ele>
        <time>2022-05-24T10:08:00Z</time>
      </trkpt>
      <trkpt lat="44.89614" lon="1.7561">
        <ele>283.2</ele>
        <time>2022-05-24T10:08:01Z</time>
      </trkpt>
      <trkpt lat="44.89613" lon="1.75615">
        <ele>282.9</ele>
        <time>2022-05-24T10:08:02Z</time>
      </trkpt>
      <trkpt lat="44.89613" lon="1.75617">
        <ele>282.8</ele>
        <time>2022-05-24T10:08:03Z</time>
      </trkpt>
      <trkpt lat="44.89614" lon="1.75619">
        <ele>282.6</ele>
        <time>2022-05-24T10:08:04Z</time>
      </trkpt>
      <trkpt lat="44.89615" lon="1.75621">
        <ele>282.5</ele>
        <time>2022-05-24T10:08:05Z</time>
      </trkpt>
      <trkpt lat="44.89617" lon="1.75623">
        <ele>282.2</ele>
        <time>2022-05-24T10:08:06Z</time>
      </trkpt>
      <trkpt lat="44.89618" lon="1.75624">
        <ele>282.2</ele>
        <time>2022-05-24T10:08:07Z</time>
      </trkpt>
      <trkpt lat="44.8962" lon="1.75627">
        <ele>281.9</ele>
        <time>2022-05-24T10:08:08Z</time>
      </trkpt>
      <trkpt lat="44.8962" lon="1.75628">
        <ele>281.8</ele>
        <time>2022-05-24T10:08:09Z</time>
      </trkpt>
      <trkpt lat="44.89621" lon="1.75629">
        <ele>281.7</ele>
        <time>2022-05-24T10:08:10Z</time>
      </trkpt>
      <trkpt lat="44.89621" lon="1.75629">
        <ele>281.7</ele>
        <time>2022-05-24T10:08:11Z</time>
      </trkpt>
      <trkpt lat="44.89621" lon="1.75629">
        <ele>281.7</ele>
        <time>2022-05-24T10:08:12Z</time>
      </trkpt>
      <trkpt lat="44.89621" lon="1.75629">
        <ele>281.7</ele>
        <time>2022-05-24T10:08:13Z</time>
      </trkpt>
      <trkpt lat="44.89621" lon="1.75628">
        <ele>281.6</ele>
        <time>2022-05-24T10:08:14Z</time>
      </trkpt>
      <trkpt lat="44.89621" lon="1.75628">
        <ele>281.6</ele>
        <time>2022-05-24T10:08:15Z</time>
      </trkpt>
      <trkpt lat="44.89621" lon="1.75628">
        <ele>281.6</ele>
        <time>2022-05-24T10:08:16Z</time>
      </trkpt>
      <trkpt lat="44.89621" lon="1.75628">
        <ele>281.6</ele>
        <time>2022-05-24T10:08:17Z</time>
      </trkpt>
      <trkpt lat="44.89621" lon="1.75628">
        <ele>281.6</ele>
        <time>2022-05-24T10:08:18Z</time>
      </trkpt>
      <trkpt lat="44.89621" lon="1.75628">
        <ele>281.6</ele>
        <time>2022-05-24T10:08:19Z</time>
      </trkpt>
      <trkpt lat="44.89621" lon="1.75628">
        <ele>281.5</ele>
        <time>2022-05-24T10:08:20Z</time>
      </trkpt>
      <trkpt lat="44.89621" lon="1.75628">
        <ele>281.5</ele>
        <time>2022-05-24T10:08:21Z</time>
      </trkpt>
      <trkpt lat="44.89621" lon="1.75624">
        <ele>281.3</ele>
        <time>2022-05-24T10:09:48Z</time>
      </trkpt>
      <trkpt lat="44.8962" lon="1.75623">
        <ele>281.2</ele>
        <time>2022-05-24T10:09:49Z</time>
      </trkpt>
      <trkpt lat="44.8962" lon="1.75621">
        <ele>281.1</ele>
        <time>2022-05-24T10:09:50Z</time>
      </trkpt>
      <trkpt lat="44.89619" lon="1.7562">
        <ele>281</ele>
        <time>2022-05-24T10:09:51Z</time>
      </trkpt>
      <trkpt lat="44.89618" lon="1.7562">
        <ele>280.9</ele>
        <time>2022-05-24T10:09:52Z</time>
      </trkpt>
      <trkpt lat="44.89618" lon="1.7562">
        <ele>280.8</ele>
        <time>2022-05-24T10:09:53Z</time>
      </trkpt>
      <trkpt lat="44.89617" lon="1.7562">
        <ele>280.7</ele>
        <time>2022-05-24T10:09:54Z</time>
      </trkpt>
      <trkpt lat="44.89617" lon="1.7562">
        <ele>280.7</ele>
        <time>2022-05-24T10:09:55Z</time>
      </trkpt>
      <trkpt lat="44.89616" lon="1.7562">
        <ele>280.6</ele>
        <time>2022-05-24T10:09:56Z</time>
      </trkpt>
      <trkpt lat="44.89615" lon="1.75619">
        <ele>280.5</ele>
        <time>2022-05-24T10:09:57Z</time>
      </trkpt>
      <trkpt lat="44.89614" lon="1.75619">
        <ele>280.4</ele>
        <time>2022-05-24T10:09:58Z</time>
      </trkpt>
      <trkpt lat="44.89614" lon="1.75619">
        <ele>280.4</ele>
        <time>2022-05-24T10:09:59Z</time>
      </trkpt>
      <trkpt lat="44.89614" lon="1.75618">
        <ele>280.3</ele>
        <time>2022-05-24T10:10:00Z</time>
      </trkpt>
      <trkpt lat="44.89614" lon="1.75617">
        <ele>280.2</ele>
        <time>2022-05-24T10:10:01Z</time>
      </trkpt>
      <trkpt lat="44.89615" lon="1.75614">
        <ele>280.1</ele>
        <time>2022-05-24T10:10:02Z</time>
      </trkpt>
      <trkpt lat="44.89616" lon="1.75613">
        <ele>279.9</ele>
        <time>2022-05-24T10:10:03Z</time>
      </trkpt>
      <trkpt lat="44.89616" lon="1.75611">
        <ele>279.8</ele>
        <time>2022-05-24T10:10:04Z</time>
      </trkpt>
      <trkpt lat="44.89616" lon="1.7561">
        <ele>279.7</ele>
        <time>2022-05-24T10:10:05Z</time>
      </trkpt>
      <trkpt lat="44.89616" lon="1.75609">
        <ele>279.6</ele>
        <time>2022-05-24T10:10:06Z</time>
      </trkpt>
      <trkpt lat="44.89617" lon="1.75606">
        <ele>279.4</ele>
        <time>2022-05-24T10:10:07Z</time>
      </trkpt>
      <trkpt lat="44.89617" lon="1.75606">
        <ele>279.4</ele>
        <time>2022-05-24T10:10:08Z</time>
      </trkpt>
      <trkpt lat="44.89617" lon="1.75605">
        <ele>279.3</ele>
        <time>2022-05-24T10:10:09Z</time>
      </trkpt>
      <trkpt lat="44.89618" lon="1.75604">
        <ele>279.2</ele>
        <time>2022-05-24T10:10:10Z</time>
      </trkpt>
      <trkpt lat="44.89618" lon="1.75602">
        <ele>279.1</ele>
        <time>2022-05-24T10:10:11Z</time>
      </trkpt>
      <trkpt lat="44.89618" lon="1.75601">
        <ele>279</ele>
        <time>2022-05-24T10:10:12Z</time>
      </trkpt>
      <trkpt lat="44.89617" lon="1.756">
        <ele>278.9</ele>
        <time>2022-05-24T10:10:13Z</time>
      </trkpt>
      <trkpt lat="44.89616" lon="1.75599">
        <ele>278.8</ele>
        <time>2022-05-24T10:10:14Z</time>
      </trkpt>
      <trkpt lat="44.89616" lon="1.75599">
        <ele>278.7</ele>
        <time>2022-05-24T10:10:15Z</time>
      </trkpt>
      <trkpt lat="44.89615" lon="1.75598">
        <ele>278.7</ele>
        <time>2022-05-24T10:10:16Z</time>
      </trkpt>
      <trkpt lat="44.89614" lon="1.75598">
        <ele>278.5</ele>
        <time>2022-05-24T10:10:17Z</time>
      </trkpt>
      <trkpt lat="44.89613" lon="1.75599">
        <ele>278.4</ele>
        <time>2022-05-24T10:10:18Z</time>
      </trkpt>
      <trkpt lat="44.89613" lon="1.75599">
        <ele>278.4</ele>
        <time>2022-05-24T10:10:19Z</time>
      </trkpt>
      <trkpt lat="44.89612" lon="1.75599">
        <ele>278.3</ele>
        <time>2022-05-24T10:10:20Z</time>
      </trkpt>
      <trkpt lat="44.89612" lon="1.75598">
        <ele>278.3</ele>
        <time>2022-05-24T10:10:21Z</time>
      </trkpt>
      <trkpt lat="44.89611" lon="1.75598">
        <ele>278.2</ele>
        <time>2022-05-24T10:10:22Z</time>
      </trkpt>
      <trkpt lat="44.89611" lon="1.75597">
        <ele>278.1</ele>
        <time>2022-05-24T10:10:23Z</time>
      </trkpt>
      <trkpt lat="44.89609" lon="1.75595">
        <ele>277.9</ele>
        <time>2022-05-24T10:10:24Z</time>
      </trkpt>
      <trkpt lat="44.89609" lon="1.75594">
        <ele>277.8</ele>
        <time>2022-05-24T10:10:25Z</time>
      </trkpt>
      <trkpt lat="44.89608" lon="1.75595">
        <ele>277.7</ele>
        <time>2022-05-24T10:10:26Z</time>
      </trkpt>
      <trkpt lat="44.89608" lon="1.75597">
        <ele>277.5</ele>
        <time>2022-05-24T10:10:27Z</time>
      </trkpt>
      <trkpt lat="44.89608" lon="1.75598">
        <ele>277.4</ele>
        <time>2022-05-24T10:10:28Z</time>
      </trkpt>
      <trkpt lat="44.89609" lon="1.75599">
        <ele>277.3</ele>
        <time>2022-05-24T10:10:29Z</time>
      </trkpt>
      <trkpt lat="44.89609" lon="1.75601">
        <ele>277.2</ele>
        <time>2022-05-24T10:10:30Z</time>
      </trkpt>
      <trkpt lat="44.89609" lon="1.75605">
        <ele>276.7</ele>
        <time>2022-05-24T10:10:31Z</time>
      </trkpt>
      <trkpt lat="44.89609" lon="1.75607">
        <ele>276.6</ele>
        <time>2022-05-24T10:10:32Z</time>
      </trkpt>
      <trkpt lat="44.89608" lon="1.75612">
        <ele>276.1</ele>
        <time>2022-05-24T10:10:33Z</time>
      </trkpt>
      <trkpt lat="44.89608" lon="1.75613">
        <ele>275.9</ele>
        <time>2022-05-24T10:10:34Z</time>
      </trkpt>
      <trkpt lat="44.89608" lon="1.75618">
        <ele>275.4</ele>
        <time>2022-05-24T10:10:35Z</time>
      </trkpt>
      <trkpt lat="44.89608" lon="1.75619">
        <ele>275.3</ele>
        <time>2022-05-24T10:10:36Z</time>
      </trkpt>
      <trkpt lat="44.89606" lon="1.75622">
        <ele>274.9</ele>
        <time>2022-05-24T10:10:37Z</time>
      </trkpt>
      <trkpt lat="44.89606" lon="1.75623">
        <ele>274.8</ele>
        <time>2022-05-24T10:10:38Z</time>
      </trkpt>
      <trkpt lat="44.89603" lon="1.75624">
        <ele>274.4</ele>
        <time>2022-05-24T10:10:39Z</time>
      </trkpt>
      <trkpt lat="44.89599" lon="1.75625">
        <ele>275.8</ele>
        <time>2022-05-24T10:10:40Z</time>
      </trkpt>
      <trkpt lat="44.89594" lon="1.75626">
        <ele>275.8</ele>
        <time>2022-05-24T10:10:41Z</time>
      </trkpt>
      <trkpt lat="44.8959" lon="1.75626">
        <ele>275.7</ele>
        <time>2022-05-24T10:10:42Z</time>
      </trkpt>
      <trkpt lat="44.89585" lon="1.75627">
        <ele>273.2</ele>
        <time>2022-05-24T10:10:43Z</time>
      </trkpt>
      <trkpt lat="44.8958" lon="1.75628">
        <ele>273.1</ele>
        <time>2022-05-24T10:10:44Z</time>
      </trkpt>
      <trkpt lat="44.89575" lon="1.7563">
        <ele>274.7</ele>
        <time>2022-05-24T10:10:45Z</time>
      </trkpt>
      <trkpt lat="44.89571" lon="1.75632">
        <ele>274.7</ele>
        <time>2022-05-24T10:10:46Z</time>
      </trkpt>
      <trkpt lat="44.89567" lon="1.75634">
        <ele>274.7</ele>
        <time>2022-05-24T10:10:47Z</time>
      </trkpt>
      <trkpt lat="44.89562" lon="1.75637">
        <ele>275.7</ele>
        <time>2022-05-24T10:10:48Z</time>
      </trkpt>
      <trkpt lat="44.89557" lon="1.7564">
        <ele>275.7</ele>
        <time>2022-05-24T10:10:49Z</time>
      </trkpt>
      <trkpt lat="44.89552" lon="1.75643">
        <ele>276.1</ele>
        <time>2022-05-24T10:10:50Z</time>
      </trkpt>
      <trkpt lat="44.89546" lon="1.75647">
        <ele>271.6</ele>
        <time>2022-05-24T10:10:51Z</time>
      </trkpt>
      <trkpt lat="44.89541" lon="1.75651">
        <ele>271.6</ele>
        <time>2022-05-24T10:10:52Z</time>
      </trkpt>
      <trkpt lat="44.89534" lon="1.75654">
        <ele>271.8</ele>
        <time>2022-05-24T10:10:53Z</time>
      </trkpt>
      <trkpt lat="44.89529" lon="1.75659">
        <ele>271.8</ele>
        <time>2022-05-24T10:10:54Z</time>
      </trkpt>
      <trkpt lat="44.89522" lon="1.75664">
        <ele>267.3</ele>
        <time>2022-05-24T10:10:55Z</time>
      </trkpt>
      <trkpt lat="44.89515" lon="1.75669">
        <ele>267.3</ele>
        <time>2022-05-24T10:10:56Z</time>
      </trkpt>
      <trkpt lat="44.89508" lon="1.75673">
        <ele>267.2</ele>
        <time>2022-05-24T10:10:57Z</time>
      </trkpt>
      <trkpt lat="44.895" lon="1.75678">
        <ele>267.4</ele>
        <time>2022-05-24T10:10:58Z</time>
      </trkpt>
      <trkpt lat="44.89493" lon="1.75685">
        <ele>263.1</ele>
        <time>2022-05-24T10:10:59Z</time>
      </trkpt>
      <trkpt lat="44.89486" lon="1.75692">
        <ele>263.2</ele>
        <time>2022-05-24T10:11:00Z</time>
      </trkpt>
      <trkpt lat="44.8948" lon="1.75699">
        <ele>258.2</ele>
        <time>2022-05-24T10:11:01Z</time>
      </trkpt>
      <trkpt lat="44.89473" lon="1.75704">
        <ele>258.6</ele>
        <time>2022-05-24T10:11:02Z</time>
      </trkpt>
      <trkpt lat="44.89467" lon="1.75709">
        <ele>259.1</ele>
        <time>2022-05-24T10:11:03Z</time>
      </trkpt>
      <trkpt lat="44.8946" lon="1.75716">
        <ele>254.5</ele>
        <time>2022-05-24T10:11:04Z</time>
      </trkpt>
      <trkpt lat="44.89453" lon="1.75722">
        <ele>254.9</ele>
        <time>2022-05-24T10:11:05Z</time>
      </trkpt>
      <trkpt lat="44.89446" lon="1.75728">
        <ele>254.9</ele>
        <time>2022-05-24T10:11:06Z</time>
      </trkpt>
      <trkpt lat="44.89441" lon="1.75734">
        <ele>250</ele>
        <time>2022-05-24T10:11:07Z</time>
      </trkpt>
      <trkpt lat="44.89436" lon="1.7574">
        <ele>249.9</ele>
        <time>2022-05-24T10:11:08Z</time>
      </trkpt>
      <trkpt lat="44.89431" lon="1.75746">
        <ele>250.3</ele>
        <time>2022-05-24T10:11:09Z</time>
      </trkpt>
      <trkpt lat="44.89425" lon="1.7575">
        <ele>244.6</ele>
        <time>2022-05-24T10:11:10Z</time>
      </trkpt>
      <trkpt lat="44.8942" lon="1.75753">
        <ele>244.6</ele>
        <time>2022-05-24T10:11:11Z</time>
      </trkpt>
      <trkpt lat="44.89416" lon="1.75756">
        <ele>244.9</ele>
        <time>2022-05-24T10:11:12Z</time>
      </trkpt>
      <trkpt lat="44.89411" lon="1.75756">
        <ele>244.9</ele>
        <time>2022-05-24T10:11:13Z</time>
      </trkpt>
      <trkpt lat="44.89405" lon="1.75752">
        <ele>244.9</ele>
        <time>2022-05-24T10:11:14Z</time>
      </trkpt>
      <trkpt lat="44.89399" lon="1.75749">
        <ele>244.9</ele>
        <time>2022-05-24T10:11:15Z</time>
      </trkpt>
      <trkpt lat="44.89392" lon="1.75744">
        <ele>250.5</ele>
        <time>2022-05-24T10:11:16Z</time>
      </trkpt>
      <trkpt lat="44.89385" lon="1.7574">
        <ele>250.5</ele>
        <time>2022-05-24T10:11:17Z</time>
      </trkpt>
      <trkpt lat="44.89379" lon="1.75736">
        <ele>249.8</ele>
        <time>2022-05-24T10:11:18Z</time>
      </trkpt>
      <trkpt lat="44.89375" lon="1.75734">
        <ele>249.7</ele>
        <time>2022-05-24T10:11:19Z</time>
      </trkpt>
      <trkpt lat="44.89372" lon="1.75731">
        <ele>249.7</ele>
        <time>2022-05-24T10:11:20Z</time>
      </trkpt>
      <trkpt lat="44.89368" lon="1.7573">
        <ele>255</ele>
        <time>2022-05-24T10:11:21Z</time>
      </trkpt>
      <trkpt lat="44.89365" lon="1.75729">
        <ele>254.9</ele>
        <time>2022-05-24T10:11:22Z</time>
      </trkpt>
      <trkpt lat="44.8936" lon="1.75727">
        <ele>254.9</ele>
        <time>2022-05-24T10:11:23Z</time>
      </trkpt>
      <trkpt lat="44.89357" lon="1.75725">
        <ele>254.2</ele>
        <time>2022-05-24T10:11:24Z</time>
      </trkpt>
      <trkpt lat="44.89354" lon="1.75724">
        <ele>254.2</ele>
        <time>2022-05-24T10:11:25Z</time>
      </trkpt>
      <trkpt lat="44.89353" lon="1.75723">
        <ele>254.2</ele>
        <time>2022-05-24T10:11:26Z</time>
      </trkpt>
      <trkpt lat="44.89351" lon="1.75724">
        <ele>254.2</ele>
        <time>2022-05-24T10:11:27Z</time>
      </trkpt>
      <trkpt lat="44.89351" lon="1.75728">
        <ele>254.1</ele>
        <time>2022-05-24T10:11:28Z</time>
      </trkpt>
      <trkpt lat="44.89351" lon="1.7573">
        <ele>248</ele>
        <time>2022-05-24T10:11:29Z</time>
      </trkpt>
      <trkpt lat="44.89353" lon="1.75734">
        <ele>248</ele>
        <time>2022-05-24T10:11:30Z</time>
      </trkpt>
      <trkpt lat="44.89355" lon="1.75738">
        <ele>248</ele>
        <time>2022-05-24T10:11:31Z</time>
      </trkpt>
      <trkpt lat="44.89356" lon="1.75741">
        <ele>247.9</ele>
        <time>2022-05-24T10:11:32Z</time>
      </trkpt>
      <trkpt lat="44.89358" lon="1.75744">
        <ele>247.9</ele>
        <time>2022-05-24T10:11:33Z</time>
      </trkpt>
      <trkpt lat="44.8936" lon="1.75748">
        <ele>242.1</ele>
        <time>2022-05-24T10:11:34Z</time>
      </trkpt>
      <trkpt lat="44.89363" lon="1.75752">
        <ele>242.1</ele>
        <time>2022-05-24T10:11:35Z</time>
      </trkpt>
      <trkpt lat="44.89364" lon="1.75753">
        <ele>242.1</ele>
        <time>2022-05-24T10:11:36Z</time>
      </trkpt>
      <trkpt lat="44.89367" lon="1.75755">
        <ele>242</ele>
        <time>2022-05-24T10:11:37Z</time>
      </trkpt>
      <trkpt lat="44.89368" lon="1.75755">
        <ele>242</ele>
        <time>2022-05-24T10:11:38Z</time>
      </trkpt>
      <trkpt lat="44.8937" lon="1.75756">
        <ele>242</ele>
        <time>2022-05-24T10:11:39Z</time>
      </trkpt>
      <trkpt lat="44.89371" lon="1.75756">
        <ele>242.8</ele>
        <time>2022-05-24T10:11:40Z</time>
      </trkpt>
      <trkpt lat="44.89372" lon="1.75756">
        <ele>242.8</ele>
        <time>2022-05-24T10:11:41Z</time>
      </trkpt>
      <trkpt lat="44.89372" lon="1.75757">
        <ele>242.8</ele>
        <time>2022-05-24T10:11:42Z</time>
      </trkpt>
      <trkpt lat="44.89374" lon="1.75758">
        <ele>242.8</ele>
        <time>2022-05-24T10:11:43Z</time>
      </trkpt>
      <trkpt lat="44.89376" lon="1.7576">
        <ele>242.7</ele>
        <time>2022-05-24T10:11:44Z</time>
      </trkpt>
      <trkpt lat="44.89377" lon="1.75761">
        <ele>242.7</ele>
        <time>2022-05-24T10:11:45Z</time>
      </trkpt>
      <trkpt lat="44.8938" lon="1.75763">
        <ele>242.7</ele>
        <time>2022-05-24T10:11:46Z</time>
      </trkpt>
      <trkpt lat="44.89382" lon="1.75765">
        <ele>237.1</ele>
        <time>2022-05-24T10:11:47Z</time>
      </trkpt>
      <trkpt lat="44.89385" lon="1.75768">
        <ele>238</ele>
        <time>2022-05-24T10:11:48Z</time>
      </trkpt>
      <trkpt lat="44.89387" lon="1.75771">
        <ele>238</ele>
        <time>2022-05-24T10:11:49Z</time>
      </trkpt>
      <trkpt lat="44.89389" lon="1.75774">
        <ele>238</ele>
        <time>2022-05-24T10:11:50Z</time>
      </trkpt>
      <trkpt lat="44.89391" lon="1.75778">
        <ele>238</ele>
        <time>2022-05-24T10:11:51Z</time>
      </trkpt>
      <trkpt lat="44.89394" lon="1.75781">
        <ele>232.5</ele>
        <time>2022-05-24T10:11:52Z</time>
      </trkpt>
      <trkpt lat="44.89395" lon="1.75784">
        <ele>233</ele>
        <time>2022-05-24T10:11:53Z</time>
      </trkpt>
      <trkpt lat="44.89397" lon="1.75786">
        <ele>232.9</ele>
        <time>2022-05-24T10:11:54Z</time>
      </trkpt>
      <trkpt lat="44.89398" lon="1.75787">
        <ele>232.9</ele>
        <time>2022-05-24T10:11:55Z</time>
      </trkpt>
      <trkpt lat="44.89399" lon="1.75787">
        <ele>232.9</ele>
        <time>2022-05-24T10:11:56Z</time>
      </trkpt>
      <trkpt lat="44.894" lon="1.75788">
        <ele>232.9</ele>
        <time>2022-05-24T10:11:57Z</time>
      </trkpt>
      <trkpt lat="44.89401" lon="1.75788">
        <ele>232.8</ele>
        <time>2022-05-24T10:11:58Z</time>
      </trkpt>
      <trkpt lat="44.89401" lon="1.75788">
        <ele>232.8</ele>
        <time>2022-05-24T10:11:59Z</time>
      </trkpt>
      <trkpt lat="44.89402" lon="1.75788">
        <ele>232.8</ele>
        <time>2022-05-24T10:12:00Z</time>
      </trkpt>
      <trkpt lat="44.89402" lon="1.75789">
        <ele>232.8</ele>
        <time>2022-05-24T10:12:01Z</time>
      </trkpt>
      <trkpt lat="44.89403" lon="1.75789">
        <ele>232.7</ele>
        <time>2022-05-24T10:12:02Z</time>
      </trkpt>
      <trkpt lat="44.89403" lon="1.75789">
        <ele>232.7</ele>
        <time>2022-05-24T10:12:03Z</time>
      </trkpt>
      <trkpt lat="44.89404" lon="1.75789">
        <ele>232.7</ele>
        <time>2022-05-24T10:12:04Z</time>
      </trkpt>
      <trkpt lat="44.89405" lon="1.75789">
        <ele>232.6</ele>
        <time>2022-05-24T10:12:05Z</time>
      </trkpt>
      <trkpt lat="44.89405" lon="1.75789">
        <ele>232.6</ele>
        <time>2022-05-24T10:12:06Z</time>
      </trkpt>
      <trkpt lat="44.89406" lon="1.75789">
        <ele>232.6</ele>
        <time>2022-05-24T10:12:07Z</time>
      </trkpt>
      <trkpt lat="44.89406" lon="1.75789">
        <ele>232.6</ele>
        <time>2022-05-24T10:12:08Z</time>
      </trkpt>
      <trkpt lat="44.89407" lon="1.75789">
        <ele>232.5</ele>
        <time>2022-05-24T10:12:09Z</time>
      </trkpt>
      <trkpt lat="44.89407" lon="1.75789">
        <ele>232.6</ele>
        <time>2022-05-24T10:12:10Z</time>
      </trkpt>
      <trkpt lat="44.89411" lon="1.75791">
        <ele>232.5</ele>
        <time>2022-05-24T10:12:11Z</time>
      </trkpt>
      <trkpt lat="44.89415" lon="1.75793">
        <ele>232.5</ele>
        <time>2022-05-24T10:12:12Z</time>
      </trkpt>
      <trkpt lat="44.89419" lon="1.75795">
        <ele>232.4</ele>
        <time>2022-05-24T10:12:13Z</time>
      </trkpt>
      <trkpt lat="44.89422" lon="1.75798">
        <ele>232.3</ele>
        <time>2022-05-24T10:12:14Z</time>
      </trkpt>
      <trkpt lat="44.89424" lon="1.75802">
        <ele>227.9</ele>
        <time>2022-05-24T10:12:15Z</time>
      </trkpt>
      <trkpt lat="44.89427" lon="1.75807">
        <ele>227.9</ele>
        <time>2022-05-24T10:12:16Z</time>
      </trkpt>
      <trkpt lat="44.89429" lon="1.75813">
        <ele>227.8</ele>
        <time>2022-05-24T10:12:17Z</time>
      </trkpt>
      <trkpt lat="44.89431" lon="1.75819">
        <ele>224.3</ele>
        <time>2022-05-24T10:12:18Z</time>
      </trkpt>
      <trkpt lat="44.89433" lon="1.75824">
        <ele>224.5</ele>
        <time>2022-05-24T10:12:19Z</time>
      </trkpt>
      <trkpt lat="44.89436" lon="1.75828">
        <ele>224.4</ele>
        <time>2022-05-24T10:12:20Z</time>
      </trkpt>
      <trkpt lat="44.89439" lon="1.75833">
        <ele>220.9</ele>
        <time>2022-05-24T10:12:21Z</time>
      </trkpt>
      <trkpt lat="44.89442" lon="1.75837">
        <ele>220.8</ele>
        <time>2022-05-24T10:12:22Z</time>
      </trkpt>
      <trkpt lat="44.89445" lon="1.75842">
        <ele>220.7</ele>
        <time>2022-05-24T10:12:23Z</time>
      </trkpt>
      <trkpt lat="44.89449" lon="1.75846">
        <ele>220.7</ele>
        <time>2022-05-24T10:12:24Z</time>
      </trkpt>
      <trkpt lat="44.89453" lon="1.75852">
        <ele>217.5</ele>
        <time>2022-05-24T10:12:25Z</time>
      </trkpt>
      <trkpt lat="44.89456" lon="1.75856">
        <ele>217.4</ele>
        <time>2022-05-24T10:12:26Z</time>
      </trkpt>
      <trkpt lat="44.8946" lon="1.7586">
        <ele>217.4</ele>
        <time>2022-05-24T10:12:27Z</time>
      </trkpt>
      <trkpt lat="44.89464" lon="1.75865">
        <ele>217.4</ele>
        <time>2022-05-24T10:12:28Z</time>
      </trkpt>
      <trkpt lat="44.89467" lon="1.7587">
        <ele>213.9</ele>
        <time>2022-05-24T10:12:29Z</time>
      </trkpt>
      <trkpt lat="44.8947" lon="1.75876">
        <ele>213.9</ele>
        <time>2022-05-24T10:12:30Z</time>
      </trkpt>
      <trkpt lat="44.89474" lon="1.75881">
        <ele>213.9</ele>
        <time>2022-05-24T10:12:31Z</time>
      </trkpt>
      <trkpt lat="44.89477" lon="1.75886">
        <ele>210.1</ele>
        <time>2022-05-24T10:12:32Z</time>
      </trkpt>
      <trkpt lat="44.89479" lon="1.75893">
        <ele>210</ele>
        <time>2022-05-24T10:12:33Z</time>
      </trkpt>
      <trkpt lat="44.8948" lon="1.759">
        <ele>209.9</ele>
        <time>2022-05-24T10:12:34Z</time>
      </trkpt>
      <trkpt lat="44.89481" lon="1.75908">
        <ele>206.2</ele>
        <time>2022-05-24T10:12:35Z</time>
      </trkpt>
      <trkpt lat="44.89481" lon="1.75916">
        <ele>206.2</ele>
        <time>2022-05-24T10:12:36Z</time>
      </trkpt>
      <trkpt lat="44.89481" lon="1.75923">
        <ele>202.4</ele>
        <time>2022-05-24T10:12:37Z</time>
      </trkpt>
      <trkpt lat="44.8948" lon="1.7593">
        <ele>202.4</ele>
        <time>2022-05-24T10:12:38Z</time>
      </trkpt>
      <trkpt lat="44.8948" lon="1.75938">
        <ele>199.3</ele>
        <time>2022-05-24T10:12:39Z</time>
      </trkpt>
      <trkpt lat="44.89481" lon="1.75944">
        <ele>199.3</ele>
        <time>2022-05-24T10:12:40Z</time>
      </trkpt>
      <trkpt lat="44.89481" lon="1.7595">
        <ele>199.3</ele>
        <time>2022-05-24T10:12:41Z</time>
      </trkpt>
      <trkpt lat="44.89482" lon="1.75955">
        <ele>196.4</ele>
        <time>2022-05-24T10:12:42Z</time>
      </trkpt>
      <trkpt lat="44.89484" lon="1.75959">
        <ele>196.4</ele>
        <time>2022-05-24T10:12:43Z</time>
      </trkpt>
      <trkpt lat="44.89486" lon="1.75961">
        <ele>196.4</ele>
        <time>2022-05-24T10:12:44Z</time>
      </trkpt>
      <trkpt lat="44.8949" lon="1.75961">
        <ele>196.4</ele>
        <time>2022-05-24T10:12:45Z</time>
      </trkpt>
      <trkpt lat="44.89494" lon="1.75961">
        <ele>195.9</ele>
        <time>2022-05-24T10:12:46Z</time>
      </trkpt>
      <trkpt lat="44.89499" lon="1.75959">
        <ele>195.9</ele>
        <time>2022-05-24T10:12:47Z</time>
      </trkpt>
      <trkpt lat="44.89503" lon="1.75958">
        <ele>195.8</ele>
        <time>2022-05-24T10:12:48Z</time>
      </trkpt>
      <trkpt lat="44.89508" lon="1.75957">
        <ele>195.4</ele>
        <time>2022-05-24T10:12:49Z</time>
      </trkpt>
      <trkpt lat="44.89513" lon="1.75956">
        <ele>195.4</ele>
        <time>2022-05-24T10:12:50Z</time>
      </trkpt>
      <trkpt lat="44.89517" lon="1.75956">
        <ele>195</ele>
        <time>2022-05-24T10:12:51Z</time>
      </trkpt>
      <trkpt lat="44.89521" lon="1.75957">
        <ele>194.9</ele>
        <time>2022-05-24T10:12:52Z</time>
      </trkpt>
      <trkpt lat="44.89525" lon="1.75956">
        <ele>194.9</ele>
        <time>2022-05-24T10:12:53Z</time>
      </trkpt>
      <trkpt lat="44.89529" lon="1.75952">
        <ele>195.2</ele>
        <time>2022-05-24T10:12:54Z</time>
      </trkpt>
      <trkpt lat="44.89532" lon="1.75948">
        <ele>195.6</ele>
        <time>2022-05-24T10:12:55Z</time>
      </trkpt>
      <trkpt lat="44.89535" lon="1.75946">
        <ele>195.9</ele>
        <time>2022-05-24T10:12:56Z</time>
      </trkpt>
      <trkpt lat="44.89538" lon="1.75943">
        <ele>196.2</ele>
        <time>2022-05-24T10:12:57Z</time>
      </trkpt>
      <trkpt lat="44.89541" lon="1.75941">
        <ele>196.5</ele>
        <time>2022-05-24T10:12:58Z</time>
      </trkpt>
      <trkpt lat="44.89544" lon="1.75938">
        <ele>196.8</ele>
        <time>2022-05-24T10:12:59Z</time>
      </trkpt>
      <trkpt lat="44.89547" lon="1.75936">
        <ele>197.1</ele>
        <time>2022-05-24T10:13:00Z</time>
      </trkpt>
      <trkpt lat="44.8955" lon="1.75934">
        <ele>197.4</ele>
        <time>2022-05-24T10:13:01Z</time>
      </trkpt>
      <trkpt lat="44.89553" lon="1.75932">
        <ele>197.8</ele>
        <time>2022-05-24T10:13:02Z</time>
      </trkpt>
      <trkpt lat="44.89556" lon="1.75929">
        <ele>198.1</ele>
        <time>2022-05-24T10:13:03Z</time>
      </trkpt>
      <trkpt lat="44.89559" lon="1.75927">
        <ele>198.4</ele>
        <time>2022-05-24T10:13:04Z</time>
      </trkpt>
      <trkpt lat="44.89562" lon="1.75925">
        <ele>198.7</ele>
        <time>2022-05-24T10:13:05Z</time>
      </trkpt>
      <trkpt lat="44.89564" lon="1.75923">
        <ele>199</ele>
        <time>2022-05-24T10:13:06Z</time>
      </trkpt>
      <trkpt lat="44.89567" lon="1.75922">
        <ele>199.3</ele>
        <time>2022-05-24T10:13:07Z</time>
      </trkpt>
      <trkpt lat="44.8957" lon="1.7592">
        <ele>199.6</ele>
        <time>2022-05-24T10:13:08Z</time>
      </trkpt>
      <trkpt lat="44.89573" lon="1.75919">
        <ele>199.9</ele>
        <time>2022-05-24T10:13:09Z</time>
      </trkpt>
      <trkpt lat="44.89576" lon="1.75917">
        <ele>200.2</ele>
        <time>2022-05-24T10:13:10Z</time>
      </trkpt>
      <trkpt lat="44.89579" lon="1.75916">
        <ele>200.5</ele>
        <time>2022-05-24T10:13:11Z</time>
      </trkpt>
      <trkpt lat="44.89582" lon="1.75914">
        <ele>200.8</ele>
        <time>2022-05-24T10:13:12Z</time>
      </trkpt>
      <trkpt lat="44.89585" lon="1.75913">
        <ele>201.1</ele>
        <time>2022-05-24T10:13:13Z</time>
      </trkpt>
      <trkpt lat="44.89589" lon="1.75911">
        <ele>201.4</ele>
        <time>2022-05-24T10:13:14Z</time>
      </trkpt>
      <trkpt lat="44.89592" lon="1.7591">
        <ele>201.7</ele>
        <time>2022-05-24T10:13:15Z</time>
      </trkpt>
      <trkpt lat="44.89594" lon="1.75908">
        <ele>201.9</ele>
        <time>2022-05-24T10:13:16Z</time>
      </trkpt>
      <trkpt lat="44.89597" lon="1.75906">
        <ele>202.2</ele>
        <time>2022-05-24T10:13:17Z</time>
      </trkpt>
      <trkpt lat="44.896" lon="1.75904">
        <ele>202.5</ele>
        <time>2022-05-24T10:13:18Z</time>
      </trkpt>
      <trkpt lat="44.89603" lon="1.75902">
        <ele>202.8</ele>
        <time>2022-05-24T10:13:19Z</time>
      </trkpt>
      <trkpt lat="44.89606" lon="1.759">
        <ele>203</ele>
        <time>2022-05-24T10:13:20Z</time>
      </trkpt>
      <trkpt lat="44.89609" lon="1.75898">
        <ele>203.3</ele>
        <time>2022-05-24T10:13:21Z</time>
      </trkpt>
      <trkpt lat="44.89611" lon="1.75896">
        <ele>203.6</ele>
        <time>2022-05-24T10:13:22Z</time>
      </trkpt>
      <trkpt lat="44.89614" lon="1.75894">
        <ele>203.9</ele>
        <time>2022-05-24T10:13:23Z</time>
      </trkpt>
      <trkpt lat="44.89617" lon="1.75892">
        <ele>204.1</ele>
        <time>2022-05-24T10:13:24Z</time>
      </trkpt>
      <trkpt lat="44.89619" lon="1.7589">
        <ele>204.4</ele>
        <time>2022-05-24T10:13:25Z</time>
      </trkpt>
      <trkpt lat="44.89622" lon="1.75887">
        <ele>204.7</ele>
        <time>2022-05-24T10:13:26Z</time>
      </trkpt>
      <trkpt lat="44.89624" lon="1.75886">
        <ele>204.8</ele>
        <time>2022-05-24T10:13:27Z</time>
      </trkpt>
      <trkpt lat="44.89626" lon="1.75884">
        <ele>205.1</ele>
        <time>2022-05-24T10:13:28Z</time>
      </trkpt>
      <trkpt lat="44.89629" lon="1.75882">
        <ele>205.4</ele>
        <time>2022-05-24T10:13:29Z</time>
      </trkpt>
      <trkpt lat="44.89632" lon="1.7588">
        <ele>205.6</ele>
        <time>2022-05-24T10:13:30Z</time>
      </trkpt>
      <trkpt lat="44.89635" lon="1.75879">
        <ele>205.9</ele>
        <time>2022-05-24T10:13:31Z</time>
      </trkpt>
      <trkpt lat="44.89638" lon="1.75878">
        <ele>206.2</ele>
        <time>2022-05-24T10:13:32Z</time>
      </trkpt>
      <trkpt lat="44.89641" lon="1.75877">
        <ele>206.4</ele>
        <time>2022-05-24T10:13:33Z</time>
      </trkpt>
      <trkpt lat="44.89644" lon="1.75876">
        <ele>206.7</ele>
        <time>2022-05-24T10:13:34Z</time>
      </trkpt>
      <trkpt lat="44.89647" lon="1.75875">
        <ele>207</ele>
        <time>2022-05-24T10:13:35Z</time>
      </trkpt>
      <trkpt lat="44.8965" lon="1.75874">
        <ele>207.2</ele>
        <time>2022-05-24T10:13:36Z</time>
      </trkpt>
      <trkpt lat="44.89653" lon="1.75873">
        <ele>207.5</ele>
        <time>2022-05-24T10:13:37Z</time>
      </trkpt>
      <trkpt lat="44.89656" lon="1.75872">
        <ele>207.7</ele>
        <time>2022-05-24T10:13:38Z</time>
      </trkpt>
      <trkpt lat="44.89659" lon="1.75872">
        <ele>208</ele>
        <time>2022-05-24T10:13:39Z</time>
      </trkpt>
      <trkpt lat="44.89662" lon="1.75871">
        <ele>208.2</ele>
        <time>2022-05-24T10:13:40Z</time>
      </trkpt>
      <trkpt lat="44.89665" lon="1.7587">
        <ele>208.4</ele>
        <time>2022-05-24T10:13:41Z</time>
      </trkpt>
      <trkpt lat="44.89667" lon="1.7587">
        <ele>208.6</ele>
        <time>2022-05-24T10:13:42Z</time>
      </trkpt>
      <trkpt lat="44.8967" lon="1.75869">
        <ele>208.9</ele>
        <time>2022-05-24T10:13:43Z</time>
      </trkpt>
      <trkpt lat="44.89673" lon="1.75868">
        <ele>209.1</ele>
        <time>2022-05-24T10:13:44Z</time>
      </trkpt>
      <trkpt lat="44.89676" lon="1.75867">
        <ele>209.3</ele>
        <time>2022-05-24T10:13:45Z</time>
      </trkpt>
      <trkpt lat="44.89679" lon="1.75867">
        <ele>209.5</ele>
        <time>2022-05-24T10:13:46Z</time>
      </trkpt>
      <trkpt lat="44.89682" lon="1.75866">
        <ele>209.7</ele>
        <time>2022-05-24T10:13:47Z</time>
      </trkpt>
      <trkpt lat="44.89685" lon="1.75865">
        <ele>209.9</ele>
        <time>2022-05-24T10:13:48Z</time>
      </trkpt>
      <trkpt lat="44.89688" lon="1.75863">
        <ele>210.2</ele>
        <time>2022-05-24T10:13:49Z</time>
      </trkpt>
      <trkpt lat="44.8969" lon="1.75863">
        <ele>210.3</ele>
        <time>2022-05-24T10:13:50Z</time>
      </trkpt>
      <trkpt lat="44.89693" lon="1.75861">
        <ele>210.6</ele>
        <time>2022-05-24T10:13:51Z</time>
      </trkpt>
      <trkpt lat="44.89694" lon="1.7586">
        <ele>210.7</ele>
        <time>2022-05-24T10:13:52Z</time>
      </trkpt>
      <trkpt lat="44.89697" lon="1.75858">
        <ele>210.9</ele>
        <time>2022-05-24T10:13:53Z</time>
      </trkpt>
      <trkpt lat="44.89699" lon="1.75856">
        <ele>211.1</ele>
        <time>2022-05-24T10:13:54Z</time>
      </trkpt>
      <trkpt lat="44.89703" lon="1.75854">
        <ele>211.4</ele>
        <time>2022-05-24T10:13:55Z</time>
      </trkpt>
      <trkpt lat="44.89704" lon="1.75854">
        <ele>211.5</ele>
        <time>2022-05-24T10:13:56Z</time>
      </trkpt>
      <trkpt lat="44.89707" lon="1.75852">
        <ele>211.8</ele>
        <time>2022-05-24T10:13:57Z</time>
      </trkpt>
      <trkpt lat="44.89709" lon="1.75851">
        <ele>212</ele>
        <time>2022-05-24T10:13:58Z</time>
      </trkpt>
      <trkpt lat="44.89712" lon="1.7585">
        <ele>212.3</ele>
        <time>2022-05-24T10:13:59Z</time>
      </trkpt>
      <trkpt lat="44.89715" lon="1.75848">
        <ele>212.5</ele>
        <time>2022-05-24T10:14:00Z</time>
      </trkpt>
      <trkpt lat="44.89718" lon="1.75847">
        <ele>212.8</ele>
        <time>2022-05-24T10:14:01Z</time>
      </trkpt>
      <trkpt lat="44.8972" lon="1.75846">
        <ele>213.1</ele>
        <time>2022-05-24T10:14:02Z</time>
      </trkpt>
      <trkpt lat="44.89723" lon="1.75844">
        <ele>213.4</ele>
        <time>2022-05-24T10:14:03Z</time>
      </trkpt>
      <trkpt lat="44.89726" lon="1.75843">
        <ele>213.7</ele>
        <time>2022-05-24T10:14:04Z</time>
      </trkpt>
      <trkpt lat="44.89737" lon="1.75835">
        <ele>215</ele>
        <time>2022-05-24T10:14:09Z</time>
      </trkpt>
      <trkpt lat="44.89745" lon="1.7583">
        <ele>215.9</ele>
        <time>2022-05-24T10:14:11Z</time>
      </trkpt>
      <trkpt lat="44.89748" lon="1.75828">
        <ele>216.3</ele>
        <time>2022-05-24T10:14:12Z</time>
      </trkpt>
      <trkpt lat="44.89751" lon="1.75826">
        <ele>216.6</ele>
        <time>2022-05-24T10:14:13Z</time>
      </trkpt>
      <trkpt lat="44.89754" lon="1.75824">
        <ele>216.9</ele>
        <time>2022-05-24T10:14:14Z</time>
      </trkpt>
      <trkpt lat="44.89757" lon="1.75822">
        <ele>217.2</ele>
        <time>2022-05-24T10:14:15Z</time>
      </trkpt>
      <trkpt lat="44.8976" lon="1.75819">
        <ele>217.6</ele>
        <time>2022-05-24T10:14:16Z</time>
      </trkpt>
      <trkpt lat="44.89761" lon="1.75818">
        <ele>217.7</ele>
        <time>2022-05-24T10:14:17Z</time>
      </trkpt>
      <trkpt lat="44.89763" lon="1.75815">
        <ele>218</ele>
        <time>2022-05-24T10:14:18Z</time>
      </trkpt>
      <trkpt lat="44.89765" lon="1.75812">
        <ele>218.3</ele>
        <time>2022-05-24T10:14:19Z</time>
      </trkpt>
      <trkpt lat="44.89767" lon="1.75808">
        <ele>218.7</ele>
        <time>2022-05-24T10:14:20Z</time>
      </trkpt>
      <trkpt lat="44.89769" lon="1.75805">
        <ele>219</ele>
        <time>2022-05-24T10:14:21Z</time>
      </trkpt>
      <trkpt lat="44.89771" lon="1.75801">
        <ele>219.2</ele>
        <time>2022-05-24T10:14:22Z</time>
      </trkpt>
      <trkpt lat="44.89772" lon="1.75798">
        <ele>219.5</ele>
        <time>2022-05-24T10:14:23Z</time>
      </trkpt>
      <trkpt lat="44.89773" lon="1.75794">
        <ele>219.8</ele>
        <time>2022-05-24T10:14:24Z</time>
      </trkpt>
      <trkpt lat="44.89775" lon="1.75791">
        <ele>220</ele>
        <time>2022-05-24T10:14:25Z</time>
      </trkpt>
      <trkpt lat="44.89777" lon="1.75786">
        <ele>220.3</ele>
        <time>2022-05-24T10:14:26Z</time>
      </trkpt>
      <trkpt lat="44.89777" lon="1.75785">
        <ele>220.5</ele>
        <time>2022-05-24T10:14:27Z</time>
      </trkpt>
      <trkpt lat="44.89779" lon="1.7578">
        <ele>220.8</ele>
        <time>2022-05-24T10:14:28Z</time>
      </trkpt>
      <trkpt lat="44.89779" lon="1.75778">
        <ele>220.9</ele>
        <time>2022-05-24T10:14:29Z</time>
      </trkpt>
      <trkpt lat="44.89781" lon="1.75775">
        <ele>221.1</ele>
        <time>2022-05-24T10:14:30Z</time>
      </trkpt>
      <trkpt lat="44.89782" lon="1.75769">
        <ele>221.4</ele>
        <time>2022-05-24T10:14:31Z</time>
      </trkpt>
      <trkpt lat="44.89782" lon="1.75768">
        <ele>221.5</ele>
        <time>2022-05-24T10:14:32Z</time>
      </trkpt>
      <trkpt lat="44.89783" lon="1.75763">
        <ele>221.8</ele>
        <time>2022-05-24T10:14:33Z</time>
      </trkpt>
      <trkpt lat="44.89784" lon="1.75761">
        <ele>221.9</ele>
        <time>2022-05-24T10:14:34Z</time>
      </trkpt>
      <trkpt lat="44.89785" lon="1.75756">
        <ele>222.2</ele>
        <time>2022-05-24T10:14:35Z</time>
      </trkpt>
      <trkpt lat="44.89785" lon="1.75754">
        <ele>222.2</ele>
        <time>2022-05-24T10:14:36Z</time>
      </trkpt>
      <trkpt lat="44.89786" lon="1.7575">
        <ele>222.4</ele>
        <time>2022-05-24T10:14:37Z</time>
      </trkpt>
      <trkpt lat="44.89787" lon="1.75746">
        <ele>222.6</ele>
        <time>2022-05-24T10:14:38Z</time>
      </trkpt>
      <trkpt lat="44.89788" lon="1.75742">
        <ele>222.9</ele>
        <time>2022-05-24T10:14:39Z</time>
      </trkpt>
      <trkpt lat="44.89789" lon="1.75739">
        <ele>223.1</ele>
        <time>2022-05-24T10:14:40Z</time>
      </trkpt>
      <trkpt lat="44.8979" lon="1.75735">
        <ele>223.3</ele>
        <time>2022-05-24T10:14:41Z</time>
      </trkpt>
      <trkpt lat="44.89791" lon="1.75729">
        <ele>223.6</ele>
        <time>2022-05-24T10:14:42Z</time>
      </trkpt>
      <trkpt lat="44.89791" lon="1.75728">
        <ele>223.7</ele>
        <time>2022-05-24T10:14:43Z</time>
      </trkpt>
      <trkpt lat="44.89792" lon="1.75724">
        <ele>224</ele>
        <time>2022-05-24T10:14:44Z</time>
      </trkpt>
      <trkpt lat="44.89793" lon="1.75719">
        <ele>224.3</ele>
        <time>2022-05-24T10:14:45Z</time>
      </trkpt>
      <trkpt lat="44.89793" lon="1.75717">
        <ele>224.4</ele>
        <time>2022-05-24T10:14:46Z</time>
      </trkpt>
      <trkpt lat="44.89794" lon="1.75711">
        <ele>224.7</ele>
        <time>2022-05-24T10:14:47Z</time>
      </trkpt>
      <trkpt lat="44.89794" lon="1.75709">
        <ele>224.9</ele>
        <time>2022-05-24T10:14:48Z</time>
      </trkpt>
      <trkpt lat="44.89795" lon="1.75706">
        <ele>225.1</ele>
        <time>2022-05-24T10:14:49Z</time>
      </trkpt>
      <trkpt lat="44.89795" lon="1.757">
        <ele>225.5</ele>
        <time>2022-05-24T10:14:50Z</time>
      </trkpt>
      <trkpt lat="44.89796" lon="1.75698">
        <ele>225.6</ele>
        <time>2022-05-24T10:14:51Z</time>
      </trkpt>
      <trkpt lat="44.89797" lon="1.75693">
        <ele>226</ele>
        <time>2022-05-24T10:14:52Z</time>
      </trkpt>
      <trkpt lat="44.89797" lon="1.75691">
        <ele>226.1</ele>
        <time>2022-05-24T10:14:53Z</time>
      </trkpt>
      <trkpt lat="44.89797" lon="1.75687">
        <ele>226.3</ele>
        <time>2022-05-24T10:14:54Z</time>
      </trkpt>
      <trkpt lat="44.89798" lon="1.75683">
        <ele>226.6</ele>
        <time>2022-05-24T10:14:55Z</time>
      </trkpt>
      <trkpt lat="44.89798" lon="1.75677">
        <ele>226.9</ele>
        <time>2022-05-24T10:14:56Z</time>
      </trkpt>
      <trkpt lat="44.89798" lon="1.75675">
        <ele>227</ele>
        <time>2022-05-24T10:14:57Z</time>
      </trkpt>
      <trkpt lat="44.89798" lon="1.75668">
        <ele>227.4</ele>
        <time>2022-05-24T10:14:59Z</time>
      </trkpt>
      <trkpt lat="44.89798" lon="1.75664">
        <ele>227.7</ele>
        <time>2022-05-24T10:15:00Z</time>
      </trkpt>
      <trkpt lat="44.89797" lon="1.7566">
        <ele>227.9</ele>
        <time>2022-05-24T10:15:01Z</time>
      </trkpt>
      <trkpt lat="44.89797" lon="1.75656">
        <ele>228.1</ele>
        <time>2022-05-24T10:15:02Z</time>
      </trkpt>
      <trkpt lat="44.89796" lon="1.7565">
        <ele>228.4</ele>
        <time>2022-05-24T10:15:03Z</time>
      </trkpt>
      <trkpt lat="44.89796" lon="1.75649">
        <ele>228.5</ele>
        <time>2022-05-24T10:15:04Z</time>
      </trkpt>
      <trkpt lat="44.89796" lon="1.75644">
        <ele>228.7</ele>
        <time>2022-05-24T10:15:05Z</time>
      </trkpt>
      <trkpt lat="44.89795" lon="1.7564">
        <ele>229</ele>
        <time>2022-05-24T10:15:06Z</time>
      </trkpt>
      <trkpt lat="44.89794" lon="1.75636">
        <ele>229.2</ele>
        <time>2022-05-24T10:15:07Z</time>
      </trkpt>
      <trkpt lat="44.89794" lon="1.75632">
        <ele>229.4</ele>
        <time>2022-05-24T10:15:08Z</time>
      </trkpt>
      <trkpt lat="44.89793" lon="1.75627">
        <ele>229.7</ele>
        <time>2022-05-24T10:15:09Z</time>
      </trkpt>
      <trkpt lat="44.89793" lon="1.75623">
        <ele>229.9</ele>
        <time>2022-05-24T10:15:10Z</time>
      </trkpt>
      <trkpt lat="44.89792" lon="1.75619">
        <ele>230.1</ele>
        <time>2022-05-24T10:15:11Z</time>
      </trkpt>
      <trkpt lat="44.89791" lon="1.75615">
        <ele>230.3</ele>
        <time>2022-05-24T10:15:12Z</time>
      </trkpt>
      <trkpt lat="44.89791" lon="1.7561">
        <ele>230.6</ele>
        <time>2022-05-24T10:15:13Z</time>
      </trkpt>
      <trkpt lat="44.8979" lon="1.75606">
        <ele>230.8</ele>
        <time>2022-05-24T10:15:14Z</time>
      </trkpt>
      <trkpt lat="44.89789" lon="1.75602">
        <ele>231.1</ele>
        <time>2022-05-24T10:15:15Z</time>
      </trkpt>
      <trkpt lat="44.89788" lon="1.75597">
        <ele>231.3</ele>
        <time>2022-05-24T10:15:16Z</time>
      </trkpt>
      <trkpt lat="44.89788" lon="1.75593">
        <ele>231.5</ele>
        <time>2022-05-24T10:15:17Z</time>
      </trkpt>
      <trkpt lat="44.89787" lon="1.75589">
        <ele>231.8</ele>
        <time>2022-05-24T10:15:18Z</time>
      </trkpt>
      <trkpt lat="44.89786" lon="1.75584">
        <ele>232</ele>
        <time>2022-05-24T10:15:19Z</time>
      </trkpt>
      <trkpt lat="44.89785" lon="1.7558">
        <ele>232.2</ele>
        <time>2022-05-24T10:15:20Z</time>
      </trkpt>
      <trkpt lat="44.89785" lon="1.75576">
        <ele>232.5</ele>
        <time>2022-05-24T10:15:21Z</time>
      </trkpt>
      <trkpt lat="44.89784" lon="1.75572">
        <ele>232.7</ele>
        <time>2022-05-24T10:15:22Z</time>
      </trkpt>
      <trkpt lat="44.89783" lon="1.75568">
        <ele>232.9</ele>
        <time>2022-05-24T10:15:23Z</time>
      </trkpt>
      <trkpt lat="44.89782" lon="1.75565">
        <ele>233.2</ele>
        <time>2022-05-24T10:15:24Z</time>
      </trkpt>
      <trkpt lat="44.89781" lon="1.75561">
        <ele>233.4</ele>
        <time>2022-05-24T10:15:25Z</time>
      </trkpt>
      <trkpt lat="44.8978" lon="1.75557">
        <ele>233.6</ele>
        <time>2022-05-24T10:15:26Z</time>
      </trkpt>
      <trkpt lat="44.89779" lon="1.75553">
        <ele>233.9</ele>
        <time>2022-05-24T10:15:27Z</time>
      </trkpt>
      <trkpt lat="44.89778" lon="1.75549">
        <ele>234.1</ele>
        <time>2022-05-24T10:15:28Z</time>
      </trkpt>
      <trkpt lat="44.89778" lon="1.75545">
        <ele>234.2</ele>
        <time>2022-05-24T10:15:29Z</time>
      </trkpt>
      <trkpt lat="44.89778" lon="1.7554">
        <ele>233.9</ele>
        <time>2022-05-24T10:15:30Z</time>
      </trkpt>
      <trkpt lat="44.89778" lon="1.75536">
        <ele>233.6</ele>
        <time>2022-05-24T10:15:31Z</time>
      </trkpt>
      <trkpt lat="44.89778" lon="1.75532">
        <ele>233.4</ele>
        <time>2022-05-24T10:15:32Z</time>
      </trkpt>
      <trkpt lat="44.89778" lon="1.75528">
        <ele>233.1</ele>
        <time>2022-05-24T10:15:33Z</time>
      </trkpt>
      <trkpt lat="44.89779" lon="1.75522">
        <ele>232.7</ele>
        <time>2022-05-24T10:15:34Z</time>
      </trkpt>
      <trkpt lat="44.8978" lon="1.75515">
        <ele>232.2</ele>
        <time>2022-05-24T10:15:35Z</time>
      </trkpt>
      <trkpt lat="44.89782" lon="1.75506">
        <ele>231.6</ele>
        <time>2022-05-24T10:15:36Z</time>
      </trkpt>
      <trkpt lat="44.89784" lon="1.75497">
        <ele>230.9</ele>
        <time>2022-05-24T10:15:37Z</time>
      </trkpt>
      <trkpt lat="44.89787" lon="1.75487">
        <ele>230.2</ele>
        <time>2022-05-24T10:15:38Z</time>
      </trkpt>
      <trkpt lat="44.8979" lon="1.75478">
        <ele>229.6</ele>
        <time>2022-05-24T10:15:39Z</time>
      </trkpt>
      <trkpt lat="44.89793" lon="1.75471">
        <ele>229.1</ele>
        <time>2022-05-24T10:15:40Z</time>
      </trkpt>
      <trkpt lat="44.89797" lon="1.75465">
        <ele>228.6</ele>
        <time>2022-05-24T10:15:41Z</time>
      </trkpt>
      <trkpt lat="44.89801" lon="1.75461">
        <ele>228.1</ele>
        <time>2022-05-24T10:15:42Z</time>
      </trkpt>
      <trkpt lat="44.89805" lon="1.75457">
        <ele>227.6</ele>
        <time>2022-05-24T10:15:43Z</time>
      </trkpt>
      <trkpt lat="44.89811" lon="1.75455">
        <ele>227</ele>
        <time>2022-05-24T10:15:44Z</time>
      </trkpt>
      <trkpt lat="44.89817" lon="1.75453">
        <ele>226.3</ele>
        <time>2022-05-24T10:15:45Z</time>
      </trkpt>
      <trkpt lat="44.89823" lon="1.7545">
        <ele>225.6</ele>
        <time>2022-05-24T10:15:46Z</time>
      </trkpt>
      <trkpt lat="44.89829" lon="1.75445">
        <ele>224.9</ele>
        <time>2022-05-24T10:15:47Z</time>
      </trkpt>
      <trkpt lat="44.89834" lon="1.75439">
        <ele>224.4</ele>
        <time>2022-05-24T10:15:48Z</time>
      </trkpt>
      <trkpt lat="44.89839" lon="1.75431">
        <ele>224</ele>
        <time>2022-05-24T10:15:49Z</time>
      </trkpt>
      <trkpt lat="44.89843" lon="1.75421">
        <ele>223.7</ele>
        <time>2022-05-24T10:15:50Z</time>
      </trkpt>
      <trkpt lat="44.89845" lon="1.75412">
        <ele>223.5</ele>
        <time>2022-05-24T10:15:51Z</time>
      </trkpt>
      <trkpt lat="44.89848" lon="1.75402">
        <ele>223.2</ele>
        <time>2022-05-24T10:15:52Z</time>
      </trkpt>
      <trkpt lat="44.8985" lon="1.75393">
        <ele>223.1</ele>
        <time>2022-05-24T10:15:53Z</time>
      </trkpt>
      <trkpt lat="44.89852" lon="1.75383">
        <ele>223</ele>
        <time>2022-05-24T10:15:54Z</time>
      </trkpt>
      <trkpt lat="44.89854" lon="1.75374">
        <ele>222.9</ele>
        <time>2022-05-24T10:15:55Z</time>
      </trkpt>
      <trkpt lat="44.89854" lon="1.75366">
        <ele>222.9</ele>
        <time>2022-05-24T10:15:56Z</time>
      </trkpt>
      <trkpt lat="44.89854" lon="1.75359">
        <ele>222.8</ele>
        <time>2022-05-24T10:15:57Z</time>
      </trkpt>
      <trkpt lat="44.89854" lon="1.75351">
        <ele>222.7</ele>
        <time>2022-05-24T10:15:58Z</time>
      </trkpt>
      <trkpt lat="44.89853" lon="1.75343">
        <ele>222.6</ele>
        <time>2022-05-24T10:15:59Z</time>
      </trkpt>
      <trkpt lat="44.8985" lon="1.75335">
        <ele>222.5</ele>
        <time>2022-05-24T10:16:00Z</time>
      </trkpt>
      <trkpt lat="44.89848" lon="1.75327">
        <ele>222.4</ele>
        <time>2022-05-24T10:16:01Z</time>
      </trkpt>
      <trkpt lat="44.89846" lon="1.75321">
        <ele>222.3</ele>
        <time>2022-05-24T10:16:02Z</time>
      </trkpt>
      <trkpt lat="44.89845" lon="1.75316">
        <ele>222.2</ele>
        <time>2022-05-24T10:16:03Z</time>
      </trkpt>
      <trkpt lat="44.89845" lon="1.75311">
        <ele>221.9</ele>
        <time>2022-05-24T10:16:04Z</time>
      </trkpt>
      <trkpt lat="44.89846" lon="1.75307">
        <ele>221.2</ele>
        <time>2022-05-24T10:16:05Z</time>
      </trkpt>
      <trkpt lat="44.89847" lon="1.75302">
        <ele>220.4</ele>
        <time>2022-05-24T10:16:06Z</time>
      </trkpt>
      <trkpt lat="44.89846" lon="1.753">
        <ele>220.1</ele>
        <time>2022-05-24T10:16:07Z</time>
      </trkpt>
      <trkpt lat="44.89846" lon="1.75296">
        <ele>219.4</ele>
        <time>2022-05-24T10:16:08Z</time>
      </trkpt>
      <trkpt lat="44.89847" lon="1.7529">
        <ele>218.6</ele>
        <time>2022-05-24T10:16:09Z</time>
      </trkpt>
      <trkpt lat="44.89848" lon="1.75284">
        <ele>217.6</ele>
        <time>2022-05-24T10:16:10Z</time>
      </trkpt>
      <trkpt lat="44.89849" lon="1.7528">
        <ele>216.8</ele>
        <time>2022-05-24T10:16:11Z</time>
      </trkpt>
      <trkpt lat="44.89853" lon="1.75276">
        <ele>215.7</ele>
        <time>2022-05-24T10:16:12Z</time>
      </trkpt>
      <trkpt lat="44.89857" lon="1.75272">
        <ele>214.7</ele>
        <time>2022-05-24T10:16:13Z</time>
      </trkpt>
      <trkpt lat="44.89863" lon="1.75271">
        <ele>213.5</ele>
        <time>2022-05-24T10:16:14Z</time>
      </trkpt>
      <trkpt lat="44.89868" lon="1.75271">
        <ele>212.3</ele>
        <time>2022-05-24T10:16:15Z</time>
      </trkpt>
      <trkpt lat="44.89872" lon="1.75271">
        <ele>211.5</ele>
        <time>2022-05-24T10:16:16Z</time>
      </trkpt>
      <trkpt lat="44.89876" lon="1.75273">
        <ele>210.6</ele>
        <time>2022-05-24T10:16:17Z</time>
      </trkpt>
      <trkpt lat="44.8988" lon="1.75272">
        <ele>209.5</ele>
        <time>2022-05-24T10:16:18Z</time>
      </trkpt>
      <trkpt lat="44.89885" lon="1.75268">
        <ele>208.3</ele>
        <time>2022-05-24T10:16:19Z</time>
      </trkpt>
      <trkpt lat="44.89891" lon="1.75263">
        <ele>206.8</ele>
        <time>2022-05-24T10:16:20Z</time>
      </trkpt>
      <trkpt lat="44.89897" lon="1.75258">
        <ele>205.2</ele>
        <time>2022-05-24T10:16:21Z</time>
      </trkpt>
      <trkpt lat="44.89902" lon="1.75254">
        <ele>204</ele>
        <time>2022-05-24T10:16:22Z</time>
      </trkpt>
      <trkpt lat="44.89907" lon="1.75251">
        <ele>202.7</ele>
        <time>2022-05-24T10:16:23Z</time>
      </trkpt>
      <trkpt lat="44.89914" lon="1.75254">
        <ele>201</ele>
        <time>2022-05-24T10:16:24Z</time>
      </trkpt>
      <trkpt lat="44.89921" lon="1.75256">
        <ele>199.5</ele>
        <time>2022-05-24T10:16:25Z</time>
      </trkpt>
      <trkpt lat="44.89925" lon="1.75259">
        <ele>198.4</ele>
        <time>2022-05-24T10:16:26Z</time>
      </trkpt>
      <trkpt lat="44.89929" lon="1.75261">
        <ele>197.6</ele>
        <time>2022-05-24T10:16:27Z</time>
      </trkpt>
      <trkpt lat="44.89932" lon="1.75264">
        <ele>196.7</ele>
        <time>2022-05-24T10:16:28Z</time>
      </trkpt>
      <trkpt lat="44.89935" lon="1.75268">
        <ele>195.9</ele>
        <time>2022-05-24T10:16:29Z</time>
      </trkpt>
      <trkpt lat="44.89938" lon="1.75268">
        <ele>195.2</ele>
        <time>2022-05-24T10:16:30Z</time>
      </trkpt>
      <trkpt lat="44.89939" lon="1.75268">
        <ele>194.9</ele>
        <time>2022-05-24T10:16:31Z</time>
      </trkpt>
      <trkpt lat="44.89942" lon="1.7527">
        <ele>194.1</ele>
        <time>2022-05-24T10:16:32Z</time>
      </trkpt>
      <trkpt lat="44.89944" lon="1.75271">
        <ele>193.7</ele>
        <time>2022-05-24T10:16:33Z</time>
      </trkpt>
      <trkpt lat="44.89948" lon="1.75275">
        <ele>192.7</ele>
        <time>2022-05-24T10:16:34Z</time>
      </trkpt>
      <trkpt lat="44.89951" lon="1.75278">
        <ele>191.8</ele>
        <time>2022-05-24T10:16:35Z</time>
      </trkpt>
      <trkpt lat="44.89955" lon="1.75282">
        <ele>190.6</ele>
        <time>2022-05-24T10:16:36Z</time>
      </trkpt>
      <trkpt lat="44.8996" lon="1.75286">
        <ele>189.5</ele>
        <time>2022-05-24T10:16:37Z</time>
      </trkpt>
      <trkpt lat="44.89964" lon="1.75289">
        <ele>188.4</ele>
        <time>2022-05-24T10:16:38Z</time>
      </trkpt>
      <trkpt lat="44.89968" lon="1.75291">
        <ele>187.5</ele>
        <time>2022-05-24T10:16:39Z</time>
      </trkpt>
      <trkpt lat="44.89971" lon="1.75295">
        <ele>186.6</ele>
        <time>2022-05-24T10:16:40Z</time>
      </trkpt>
      <trkpt lat="44.89975" lon="1.75299">
        <ele>185.6</ele>
        <time>2022-05-24T10:16:41Z</time>
      </trkpt>
      <trkpt lat="44.89978" lon="1.75304">
        <ele>184.6</ele>
        <time>2022-05-24T10:16:42Z</time>
      </trkpt>
      <trkpt lat="44.8998" lon="1.75308">
        <ele>183.6</ele>
        <time>2022-05-24T10:16:43Z</time>
      </trkpt>
      <trkpt lat="44.89982" lon="1.75312">
        <ele>183</ele>
        <time>2022-05-24T10:16:44Z</time>
      </trkpt>
      <trkpt lat="44.89985" lon="1.75313">
        <ele>182.4</ele>
        <time>2022-05-24T10:16:45Z</time>
      </trkpt>
      <trkpt lat="44.89986" lon="1.75313">
        <ele>182.1</ele>
        <time>2022-05-24T10:16:46Z</time>
      </trkpt>
      <trkpt lat="44.89989" lon="1.7531">
        <ele>181.4</ele>
        <time>2022-05-24T10:16:47Z</time>
      </trkpt>
      <trkpt lat="44.89992" lon="1.75306">
        <ele>180.4</ele>
        <time>2022-05-24T10:16:48Z</time>
      </trkpt>
      <trkpt lat="44.89996" lon="1.75301">
        <ele>179.3</ele>
        <time>2022-05-24T10:16:49Z</time>
      </trkpt>
      <trkpt lat="44.89998" lon="1.75295">
        <ele>178.2</ele>
        <time>2022-05-24T10:16:50Z</time>
      </trkpt>
      <trkpt lat="44.90001" lon="1.7529">
        <ele>177.1</ele>
        <time>2022-05-24T10:16:51Z</time>
      </trkpt>
      <trkpt lat="44.90003" lon="1.75285">
        <ele>176.2</ele>
        <time>2022-05-24T10:16:52Z</time>
      </trkpt>
      <trkpt lat="44.90005" lon="1.75281">
        <ele>175.4</ele>
        <time>2022-05-24T10:16:53Z</time>
      </trkpt>
      <trkpt lat="44.90006" lon="1.75279">
        <ele>175.2</ele>
        <time>2022-05-24T10:16:54Z</time>
      </trkpt>
      <trkpt lat="44.90007" lon="1.75278">
        <ele>174.8</ele>
        <time>2022-05-24T10:16:55Z</time>
      </trkpt>
      <trkpt lat="44.90008" lon="1.75277">
        <ele>174.6</ele>
        <time>2022-05-24T10:16:56Z</time>
      </trkpt>
      <trkpt lat="44.90008" lon="1.75277">
        <ele>174.6</ele>
        <time>2022-05-24T10:16:57Z</time>
      </trkpt>
      <trkpt lat="44.90008" lon="1.75277">
        <ele>174.5</ele>
        <time>2022-05-24T10:16:58Z</time>
      </trkpt>
      <trkpt lat="44.90008" lon="1.75277">
        <ele>174.5</ele>
        <time>2022-05-24T10:16:59Z</time>
      </trkpt>
      <trkpt lat="44.90008" lon="1.75277">
        <ele>174.5</ele>
        <time>2022-05-24T10:17:00Z</time>
      </trkpt>
      <trkpt lat="44.90008" lon="1.75277">
        <ele>174.4</ele>
        <time>2022-05-24T10:17:01Z</time>
      </trkpt>
      <trkpt lat="44.90008" lon="1.75277">
        <ele>174.4</ele>
        <time>2022-05-24T10:17:02Z</time>
      </trkpt>
      <trkpt lat="44.90008" lon="1.75277">
        <ele>174.3</ele>
        <time>2022-05-24T10:17:03Z</time>
      </trkpt>
      <trkpt lat="44.90008" lon="1.75278">
        <ele>174.2</ele>
        <time>2022-05-24T10:17:04Z</time>
      </trkpt>
      <trkpt lat="44.90009" lon="1.75277">
        <ele>174</ele>
        <time>2022-05-24T10:17:05Z</time>
      </trkpt>
      <trkpt lat="44.90009" lon="1.75277">
        <ele>173.9</ele>
        <time>2022-05-24T10:17:06Z</time>
      </trkpt>
      <trkpt lat="44.9001" lon="1.75276">
        <ele>173.9</ele>
        <time>2022-05-24T10:17:07Z</time>
      </trkpt>
      <trkpt lat="44.9001" lon="1.75276">
        <ele>173.8</ele>
        <time>2022-05-24T10:17:08Z</time>
      </trkpt>
      <trkpt lat="44.9001" lon="1.75276">
        <ele>173.7</ele>
        <time>2022-05-24T10:17:09Z</time>
      </trkpt>
      <trkpt lat="44.9001" lon="1.75275">
        <ele>173.6</ele>
        <time>2022-05-24T10:17:10Z</time>
      </trkpt>
      <trkpt lat="44.9001" lon="1.75275">
        <ele>173.5</ele>
        <time>2022-05-24T10:17:11Z</time>
      </trkpt>
      <trkpt lat="44.90011" lon="1.75274">
        <ele>173.5</ele>
        <time>2022-05-24T10:17:12Z</time>
      </trkpt>
      <trkpt lat="44.90011" lon="1.75274">
        <ele>173.3</ele>
        <time>2022-05-24T10:17:13Z</time>
      </trkpt>
      <trkpt lat="44.90013" lon="1.75269">
        <ele>172.3</ele>
        <time>2022-05-24T10:17:14Z</time>
      </trkpt>
      <trkpt lat="44.90014" lon="1.75266">
        <ele>171.9</ele>
        <time>2022-05-24T10:17:15Z</time>
      </trkpt>
      <trkpt lat="44.90018" lon="1.75259">
        <ele>170.6</ele>
        <time>2022-05-24T10:17:16Z</time>
      </trkpt>
      <trkpt lat="44.90021" lon="1.75252">
        <ele>169.3</ele>
        <time>2022-05-24T10:17:17Z</time>
      </trkpt>
      <trkpt lat="44.90024" lon="1.75246">
        <ele>168</ele>
        <time>2022-05-24T10:17:18Z</time>
      </trkpt>
      <trkpt lat="44.90026" lon="1.75238">
        <ele>166.8</ele>
        <time>2022-05-24T10:17:19Z</time>
      </trkpt>
      <trkpt lat="44.90027" lon="1.75232">
        <ele>165.8</ele>
        <time>2022-05-24T10:17:20Z</time>
      </trkpt>
      <trkpt lat="44.90027" lon="1.75228">
        <ele>165</ele>
        <time>2022-05-24T10:17:21Z</time>
      </trkpt>
      <trkpt lat="44.90025" lon="1.75223">
        <ele>164.2</ele>
        <time>2022-05-24T10:17:22Z</time>
      </trkpt>
      <trkpt lat="44.90022" lon="1.75219">
        <ele>163.4</ele>
        <time>2022-05-24T10:17:23Z</time>
      </trkpt>
      <trkpt lat="44.9002" lon="1.75216">
        <ele>162.7</ele>
        <time>2022-05-24T10:17:24Z</time>
      </trkpt>
      <trkpt lat="44.90018" lon="1.75213">
        <ele>162</ele>
        <time>2022-05-24T10:17:25Z</time>
      </trkpt>
      <trkpt lat="44.90016" lon="1.7521">
        <ele>161.4</ele>
        <time>2022-05-24T10:17:26Z</time>
      </trkpt>
      <trkpt lat="44.90015" lon="1.75206">
        <ele>160.7</ele>
        <time>2022-05-24T10:17:27Z</time>
      </trkpt>
      <trkpt lat="44.90015" lon="1.75202">
        <ele>160.1</ele>
        <time>2022-05-24T10:17:28Z</time>
      </trkpt>
      <trkpt lat="44.90016" lon="1.75197">
        <ele>159.3</ele>
        <time>2022-05-24T10:17:29Z</time>
      </trkpt>
      <trkpt lat="44.90016" lon="1.75196">
        <ele>159.1</ele>
        <time>2022-05-24T10:17:30Z</time>
      </trkpt>
      <trkpt lat="44.9002" lon="1.75193">
        <ele>158.3</ele>
        <time>2022-05-24T10:17:31Z</time>
      </trkpt>
      <trkpt lat="44.90027" lon="1.75197">
        <ele>156.5</ele>
        <time>2022-05-24T10:17:32Z</time>
      </trkpt>
      <trkpt lat="44.90034" lon="1.75202">
        <ele>154.8</ele>
        <time>2022-05-24T10:17:33Z</time>
      </trkpt>
      <trkpt lat="44.90041" lon="1.75209">
        <ele>153</ele>
        <time>2022-05-24T10:17:34Z</time>
      </trkpt>
      <trkpt lat="44.90047" lon="1.75215">
        <ele>151.2</ele>
        <time>2022-05-24T10:17:35Z</time>
      </trkpt>
      <trkpt lat="44.90053" lon="1.75222">
        <ele>149.5</ele>
        <time>2022-05-24T10:17:36Z</time>
      </trkpt>
      <trkpt lat="44.90059" lon="1.7523">
        <ele>147.7</ele>
        <time>2022-05-24T10:17:37Z</time>
      </trkpt>
      <trkpt lat="44.90064" lon="1.75235">
        <ele>146.3</ele>
        <time>2022-05-24T10:17:38Z</time>
      </trkpt>
      <trkpt lat="44.9007" lon="1.75241">
        <ele>144.8</ele>
        <time>2022-05-24T10:17:39Z</time>
      </trkpt>
      <trkpt lat="44.90074" lon="1.75246">
        <ele>143.5</ele>
        <time>2022-05-24T10:17:40Z</time>
      </trkpt>
      <trkpt lat="44.9008" lon="1.7525">
        <ele>142.1</ele>
        <time>2022-05-24T10:17:41Z</time>
      </trkpt>
      <trkpt lat="44.90084" lon="1.75256">
        <ele>140.8</ele>
        <time>2022-05-24T10:17:42Z</time>
      </trkpt>
      <trkpt lat="44.90089" lon="1.75262">
        <ele>139.4</ele>
        <time>2022-05-24T10:17:43Z</time>
      </trkpt>
      <trkpt lat="44.90093" lon="1.75267">
        <ele>138.1</ele>
        <time>2022-05-24T10:17:44Z</time>
      </trkpt>
      <trkpt lat="44.90098" lon="1.75269">
        <ele>137</ele>
        <time>2022-05-24T10:17:45Z</time>
      </trkpt>
      <trkpt lat="44.90102" lon="1.75266">
        <ele>136.1</ele>
        <time>2022-05-24T10:17:46Z</time>
      </trkpt>
      <trkpt lat="44.90104" lon="1.75264">
        <ele>135.4</ele>
        <time>2022-05-24T10:17:47Z</time>
      </trkpt>
      <trkpt lat="44.90106" lon="1.7526">
        <ele>134.6</ele>
        <time>2022-05-24T10:17:48Z</time>
      </trkpt>
      <trkpt lat="44.90107" lon="1.75256">
        <ele>133.9</ele>
        <time>2022-05-24T10:17:49Z</time>
      </trkpt>
      <trkpt lat="44.90109" lon="1.75252">
        <ele>133.2</ele>
        <time>2022-05-24T10:17:50Z</time>
      </trkpt>
      <trkpt lat="44.90112" lon="1.75251">
        <ele>132.5</ele>
        <time>2022-05-24T10:17:51Z</time>
      </trkpt>
      <trkpt lat="44.90117" lon="1.75251">
        <ele>131.6</ele>
        <time>2022-05-24T10:17:52Z</time>
      </trkpt>
      <trkpt lat="44.9012" lon="1.7525">
        <ele>129.6</ele>
        <time>2022-05-24T10:17:53Z</time>
      </trkpt>
      <trkpt lat="44.90122" lon="1.75249">
        <ele>129.9</ele>
        <time>2022-05-24T10:17:54Z</time>
      </trkpt>
      <trkpt lat="44.90122" lon="1.75247">
        <ele>130.1</ele>
        <time>2022-05-24T10:17:55Z</time>
      </trkpt>
      <trkpt lat="44.90122" lon="1.75243">
        <ele>130.5</ele>
        <time>2022-05-24T10:17:56Z</time>
      </trkpt>
      <trkpt lat="44.90122" lon="1.75242">
        <ele>130.7</ele>
        <time>2022-05-24T10:17:57Z</time>
      </trkpt>
      <trkpt lat="44.9012" lon="1.75237">
        <ele>131.1</ele>
        <time>2022-05-24T10:17:58Z</time>
      </trkpt>
      <trkpt lat="44.9012" lon="1.75236">
        <ele>131.3</ele>
        <time>2022-05-24T10:17:59Z</time>
      </trkpt>
      <trkpt lat="44.90118" lon="1.75233">
        <ele>131.8</ele>
        <time>2022-05-24T10:18:00Z</time>
      </trkpt>
      <trkpt lat="44.90115" lon="1.7523">
        <ele>132.2</ele>
        <time>2022-05-24T10:18:01Z</time>
      </trkpt>
      <trkpt lat="44.90114" lon="1.75226">
        <ele>132.7</ele>
        <time>2022-05-24T10:18:02Z</time>
      </trkpt>
      <trkpt lat="44.90113" lon="1.75222">
        <ele>133.2</ele>
        <time>2022-05-24T10:18:03Z</time>
      </trkpt>
      <trkpt lat="44.90112" lon="1.75217">
        <ele>133.7</ele>
        <time>2022-05-24T10:18:04Z</time>
      </trkpt>
      <trkpt lat="44.90111" lon="1.75211">
        <ele>134.3</ele>
        <time>2022-05-24T10:18:05Z</time>
      </trkpt>
      <trkpt lat="44.9011" lon="1.75207">
        <ele>134.8</ele>
        <time>2022-05-24T10:18:06Z</time>
      </trkpt>
      <trkpt lat="44.90109" lon="1.75202">
        <ele>135.3</ele>
        <time>2022-05-24T10:18:07Z</time>
      </trkpt>
      <trkpt lat="44.90108" lon="1.75197">
        <ele>135.8</ele>
        <time>2022-05-24T10:18:08Z</time>
      </trkpt>
      <trkpt lat="44.90106" lon="1.75191">
        <ele>136.5</ele>
        <time>2022-05-24T10:18:09Z</time>
      </trkpt>
      <trkpt lat="44.90105" lon="1.75186">
        <ele>137</ele>
        <time>2022-05-24T10:18:10Z</time>
      </trkpt>
      <trkpt lat="44.90104" lon="1.7518">
        <ele>137.6</ele>
        <time>2022-05-24T10:18:11Z</time>
      </trkpt>
      <trkpt lat="44.90103" lon="1.75175">
        <ele>138.2</ele>
        <time>2022-05-24T10:18:12Z</time>
      </trkpt>
      <trkpt lat="44.90102" lon="1.75169">
        <ele>138.9</ele>
        <time>2022-05-24T10:18:13Z</time>
      </trkpt>
      <trkpt lat="44.90101" lon="1.75164">
        <ele>139.4</ele>
        <time>2022-05-24T10:18:14Z</time>
      </trkpt>
      <trkpt lat="44.901" lon="1.75158">
        <ele>140</ele>
        <time>2022-05-24T10:18:15Z</time>
      </trkpt>
      <trkpt lat="44.90098" lon="1.75153">
        <ele>140.6</ele>
        <time>2022-05-24T10:18:16Z</time>
      </trkpt>
      <trkpt lat="44.90096" lon="1.75149">
        <ele>141.2</ele>
        <time>2022-05-24T10:18:17Z</time>
      </trkpt>
      <trkpt lat="44.90095" lon="1.75144">
        <ele>141.7</ele>
        <time>2022-05-24T10:18:18Z</time>
      </trkpt>
      <trkpt lat="44.90093" lon="1.7514">
        <ele>142.2</ele>
        <time>2022-05-24T10:18:19Z</time>
      </trkpt>
      <trkpt lat="44.90091" lon="1.75136">
        <ele>142.7</ele>
        <time>2022-05-24T10:18:20Z</time>
      </trkpt>
      <trkpt lat="44.90089" lon="1.75132">
        <ele>143.2</ele>
        <time>2022-05-24T10:18:21Z</time>
      </trkpt>
      <trkpt lat="44.90088" lon="1.75131">
        <ele>143.3</ele>
        <time>2022-05-24T10:18:22Z</time>
      </trkpt>
      <trkpt lat="44.90088" lon="1.75125">
        <ele>144</ele>
        <time>2022-05-24T10:18:23Z</time>
      </trkpt>
      <trkpt lat="44.90088" lon="1.75122">
        <ele>144.2</ele>
        <time>2022-05-24T10:18:24Z</time>
      </trkpt>
      <trkpt lat="44.90089" lon="1.75117">
        <ele>144.8</ele>
        <time>2022-05-24T10:18:25Z</time>
      </trkpt>
      <trkpt lat="44.90091" lon="1.75112">
        <ele>145.4</ele>
        <time>2022-05-24T10:18:26Z</time>
      </trkpt>
      <trkpt lat="44.90092" lon="1.75107">
        <ele>145.9</ele>
        <time>2022-05-24T10:18:27Z</time>
      </trkpt>
      <trkpt lat="44.90094" lon="1.75104">
        <ele>146.3</ele>
        <time>2022-05-24T10:18:28Z</time>
      </trkpt>
      <trkpt lat="44.90095" lon="1.751">
        <ele>146.8</ele>
        <time>2022-05-24T10:18:29Z</time>
      </trkpt>
      <trkpt lat="44.90095" lon="1.75099">
        <ele>146.9</ele>
        <time>2022-05-24T10:18:30Z</time>
      </trkpt>
      <trkpt lat="44.90096" lon="1.75097">
        <ele>147.1</ele>
        <time>2022-05-24T10:18:31Z</time>
      </trkpt>
      <trkpt lat="44.90096" lon="1.75096">
        <ele>147.2</ele>
        <time>2022-05-24T10:18:32Z</time>
      </trkpt>
      <trkpt lat="44.90097" lon="1.75095">
        <ele>147.4</ele>
        <time>2022-05-24T10:18:33Z</time>
      </trkpt>
      <trkpt lat="44.90097" lon="1.75093">
        <ele>147.6</ele>
        <time>2022-05-24T10:18:34Z</time>
      </trkpt>
      <trkpt lat="44.90097" lon="1.75091">
        <ele>147.8</ele>
        <time>2022-05-24T10:18:35Z</time>
      </trkpt>
      <trkpt lat="44.90098" lon="1.75087">
        <ele>148.2</ele>
        <time>2022-05-24T10:18:36Z</time>
      </trkpt>
      <trkpt lat="44.90099" lon="1.75086">
        <ele>148.4</ele>
        <time>2022-05-24T10:18:37Z</time>
      </trkpt>
      <trkpt lat="44.901" lon="1.75084">
        <ele>148.6</ele>
        <time>2022-05-24T10:18:38Z</time>
      </trkpt>
      <trkpt lat="44.901" lon="1.75082">
        <ele>148.8</ele>
        <time>2022-05-24T10:18:39Z</time>
      </trkpt>
      <trkpt lat="44.90101" lon="1.7508">
        <ele>149.1</ele>
        <time>2022-05-24T10:18:40Z</time>
      </trkpt>
      <trkpt lat="44.90101" lon="1.75078">
        <ele>149.3</ele>
        <time>2022-05-24T10:18:41Z</time>
      </trkpt>
      <trkpt lat="44.90102" lon="1.75076">
        <ele>149.5</ele>
        <time>2022-05-24T10:18:42Z</time>
      </trkpt>
      <trkpt lat="44.90103" lon="1.75074">
        <ele>149.8</ele>
        <time>2022-05-24T10:18:43Z</time>
      </trkpt>
      <trkpt lat="44.90104" lon="1.7507">
        <ele>150.2</ele>
        <time>2022-05-24T10:18:44Z</time>
      </trkpt>
      <trkpt lat="44.90105" lon="1.75069">
        <ele>150.3</ele>
        <time>2022-05-24T10:18:45Z</time>
      </trkpt>
      <trkpt lat="44.90105" lon="1.75067">
        <ele>150.6</ele>
        <time>2022-05-24T10:18:46Z</time>
      </trkpt>
      <trkpt lat="44.90106" lon="1.75065">
        <ele>150.8</ele>
        <time>2022-05-24T10:18:47Z</time>
      </trkpt>
      <trkpt lat="44.90107" lon="1.75062">
        <ele>151.1</ele>
        <time>2022-05-24T10:18:48Z</time>
      </trkpt>
      <trkpt lat="44.90107" lon="1.7506">
        <ele>151.3</ele>
        <time>2022-05-24T10:18:49Z</time>
      </trkpt>
      <trkpt lat="44.90108" lon="1.75058">
        <ele>151.6</ele>
        <time>2022-05-24T10:18:50Z</time>
      </trkpt>
      <trkpt lat="44.90109" lon="1.75056">
        <ele>151.8</ele>
        <time>2022-05-24T10:18:51Z</time>
      </trkpt>
      <trkpt lat="44.9011" lon="1.75053">
        <ele>152.1</ele>
        <time>2022-05-24T10:18:52Z</time>
      </trkpt>
      <trkpt lat="44.9011" lon="1.75052">
        <ele>152.2</ele>
        <time>2022-05-24T10:18:53Z</time>
      </trkpt>
      <trkpt lat="44.9011" lon="1.75051">
        <ele>152.4</ele>
        <time>2022-05-24T10:18:54Z</time>
      </trkpt>
      <trkpt lat="44.9011" lon="1.75049">
        <ele>152.6</ele>
        <time>2022-05-24T10:18:55Z</time>
      </trkpt>
      <trkpt lat="44.9011" lon="1.75047">
        <ele>152.8</ele>
        <time>2022-05-24T10:18:56Z</time>
      </trkpt>
      <trkpt lat="44.9011" lon="1.75045">
        <ele>153</ele>
        <time>2022-05-24T10:18:57Z</time>
      </trkpt>
      <trkpt lat="44.90111" lon="1.75043">
        <ele>153.2</ele>
        <time>2022-05-24T10:18:58Z</time>
      </trkpt>
      <trkpt lat="44.90111" lon="1.75041">
        <ele>153.4</ele>
        <time>2022-05-24T10:18:59Z</time>
      </trkpt>
      <trkpt lat="44.90111" lon="1.7504">
        <ele>153.5</ele>
        <time>2022-05-24T10:19:00Z</time>
      </trkpt>
      <trkpt lat="44.90112" lon="1.75039">
        <ele>153.7</ele>
        <time>2022-05-24T10:19:01Z</time>
      </trkpt>
      <trkpt lat="44.90113" lon="1.75037">
        <ele>153.9</ele>
        <time>2022-05-24T10:19:02Z</time>
      </trkpt>
      <trkpt lat="44.90113" lon="1.75035">
        <ele>154.1</ele>
        <time>2022-05-24T10:19:03Z</time>
      </trkpt>
      <trkpt lat="44.90114" lon="1.75033">
        <ele>154.4</ele>
        <time>2022-05-24T10:19:04Z</time>
      </trkpt>
      <trkpt lat="44.90115" lon="1.75031">
        <ele>154.6</ele>
        <time>2022-05-24T10:19:05Z</time>
      </trkpt>
      <trkpt lat="44.90116" lon="1.75029">
        <ele>154.9</ele>
        <time>2022-05-24T10:19:06Z</time>
      </trkpt>
      <trkpt lat="44.90117" lon="1.75027">
        <ele>155.1</ele>
        <time>2022-05-24T10:19:07Z</time>
      </trkpt>
      <trkpt lat="44.90118" lon="1.75025">
        <ele>155.4</ele>
        <time>2022-05-24T10:19:08Z</time>
      </trkpt>
      <trkpt lat="44.90119" lon="1.75023">
        <ele>155.7</ele>
        <time>2022-05-24T10:19:09Z</time>
      </trkpt>
      <trkpt lat="44.9012" lon="1.75021">
        <ele>155.9</ele>
        <time>2022-05-24T10:19:10Z</time>
      </trkpt>
      <trkpt lat="44.90121" lon="1.75019">
        <ele>156.1</ele>
        <time>2022-05-24T10:19:11Z</time>
      </trkpt>
      <trkpt lat="44.90121" lon="1.75017">
        <ele>156.3</ele>
        <time>2022-05-24T10:19:12Z</time>
      </trkpt>
      <trkpt lat="44.90122" lon="1.75015">
        <ele>156.6</ele>
        <time>2022-05-24T10:19:13Z</time>
      </trkpt>
      <trkpt lat="44.90122" lon="1.75013">
        <ele>156.8</ele>
        <time>2022-05-24T10:19:14Z</time>
      </trkpt>
      <trkpt lat="44.90123" lon="1.75012">
        <ele>157</ele>
        <time>2022-05-24T10:19:15Z</time>
      </trkpt>
      <trkpt lat="44.90124" lon="1.7501">
        <ele>157.2</ele>
        <time>2022-05-24T10:19:16Z</time>
      </trkpt>
      <trkpt lat="44.90124" lon="1.75008">
        <ele>157.4</ele>
        <time>2022-05-24T10:19:17Z</time>
      </trkpt>
      <trkpt lat="44.90125" lon="1.75006">
        <ele>157.7</ele>
        <time>2022-05-24T10:19:18Z</time>
      </trkpt>
      <trkpt lat="44.90126" lon="1.75005">
        <ele>157.8</ele>
        <time>2022-05-24T10:19:19Z</time>
      </trkpt>
      <trkpt lat="44.90126" lon="1.75004">
        <ele>157.9</ele>
        <time>2022-05-24T10:19:20Z</time>
      </trkpt>
      <trkpt lat="44.90127" lon="1.75002">
        <ele>158.2</ele>
        <time>2022-05-24T10:19:21Z</time>
      </trkpt>
      <trkpt lat="44.90128" lon="1.75">
        <ele>158.4</ele>
        <time>2022-05-24T10:19:22Z</time>
      </trkpt>
      <trkpt lat="44.90128" lon="1.74998">
        <ele>158.6</ele>
        <time>2022-05-24T10:19:23Z</time>
      </trkpt>
      <trkpt lat="44.90129" lon="1.74997">
        <ele>158.7</ele>
        <time>2022-05-24T10:19:24Z</time>
      </trkpt>
      <trkpt lat="44.90129" lon="1.74996">
        <ele>158.9</ele>
        <time>2022-05-24T10:19:25Z</time>
      </trkpt>
      <trkpt lat="44.90129" lon="1.74995">
        <ele>159</ele>
        <time>2022-05-24T10:19:26Z</time>
      </trkpt>
      <trkpt lat="44.9013" lon="1.74993">
        <ele>159.1</ele>
        <time>2022-05-24T10:19:27Z</time>
      </trkpt>
      <trkpt lat="44.9013" lon="1.74991">
        <ele>159.4</ele>
        <time>2022-05-24T10:19:28Z</time>
      </trkpt>
      <trkpt lat="44.9013" lon="1.74987">
        <ele>159.8</ele>
        <time>2022-05-24T10:19:29Z</time>
      </trkpt>
      <trkpt lat="44.9013" lon="1.74986">
        <ele>159.9</ele>
        <time>2022-05-24T10:19:30Z</time>
      </trkpt>
      <trkpt lat="44.9013" lon="1.74984">
        <ele>160.1</ele>
        <time>2022-05-24T10:19:31Z</time>
      </trkpt>
      <trkpt lat="44.90131" lon="1.74982">
        <ele>160.3</ele>
        <time>2022-05-24T10:19:32Z</time>
      </trkpt>
      <trkpt lat="44.90131" lon="1.74979">
        <ele>160.7</ele>
        <time>2022-05-24T10:19:33Z</time>
      </trkpt>
      <trkpt lat="44.90131" lon="1.74977">
        <ele>160.8</ele>
        <time>2022-05-24T10:19:34Z</time>
      </trkpt>
      <trkpt lat="44.90131" lon="1.74976">
        <ele>160.9</ele>
        <time>2022-05-24T10:19:35Z</time>
      </trkpt>
      <trkpt lat="44.90131" lon="1.74974">
        <ele>161.1</ele>
        <time>2022-05-24T10:19:36Z</time>
      </trkpt>
      <trkpt lat="44.90132" lon="1.74973">
        <ele>161.2</ele>
        <time>2022-05-24T10:19:37Z</time>
      </trkpt>
      <trkpt lat="44.90132" lon="1.74972">
        <ele>161.4</ele>
        <time>2022-05-24T10:19:38Z</time>
      </trkpt>
      <trkpt lat="44.90133" lon="1.74972">
        <ele>161.5</ele>
        <time>2022-05-24T10:19:39Z</time>
      </trkpt>
      <trkpt lat="44.90133" lon="1.74971">
        <ele>161.6</ele>
        <time>2022-05-24T10:19:40Z</time>
      </trkpt>
      <trkpt lat="44.90134" lon="1.74971">
        <ele>161.7</ele>
        <time>2022-05-24T10:19:41Z</time>
      </trkpt>
      <trkpt lat="44.90134" lon="1.74969">
        <ele>161.8</ele>
        <time>2022-05-24T10:19:42Z</time>
      </trkpt>
      <trkpt lat="44.90135" lon="1.74967">
        <ele>162</ele>
        <time>2022-05-24T10:19:43Z</time>
      </trkpt>
      <trkpt lat="44.90135" lon="1.74965">
        <ele>162.2</ele>
        <time>2022-05-24T10:19:44Z</time>
      </trkpt>
      <trkpt lat="44.90135" lon="1.74964">
        <ele>162.4</ele>
        <time>2022-05-24T10:19:45Z</time>
      </trkpt>
      <trkpt lat="44.90135" lon="1.74962">
        <ele>162.6</ele>
        <time>2022-05-24T10:19:46Z</time>
      </trkpt>
      <trkpt lat="44.90135" lon="1.74961">
        <ele>162.7</ele>
        <time>2022-05-24T10:19:47Z</time>
      </trkpt>
      <trkpt lat="44.90134" lon="1.74959">
        <ele>162.9</ele>
        <time>2022-05-24T10:19:48Z</time>
      </trkpt>
      <trkpt lat="44.90134" lon="1.74958">
        <ele>163.1</ele>
        <time>2022-05-24T10:19:49Z</time>
      </trkpt>
      <trkpt lat="44.90133" lon="1.74958">
        <ele>163.2</ele>
        <time>2022-05-24T10:19:50Z</time>
      </trkpt>
      <trkpt lat="44.90132" lon="1.74957">
        <ele>163.4</ele>
        <time>2022-05-24T10:19:51Z</time>
      </trkpt>
      <trkpt lat="44.90129" lon="1.74957">
        <ele>163.8</ele>
        <time>2022-05-24T10:19:52Z</time>
      </trkpt>
      <trkpt lat="44.90128" lon="1.74957">
        <ele>164</ele>
        <time>2022-05-24T10:19:53Z</time>
      </trkpt>
      <trkpt lat="44.90126" lon="1.74957">
        <ele>164.2</ele>
        <time>2022-05-24T10:19:54Z</time>
      </trkpt>
      <trkpt lat="44.90125" lon="1.74958">
        <ele>164.4</ele>
        <time>2022-05-24T10:19:55Z</time>
      </trkpt>
      <trkpt lat="44.90124" lon="1.74959">
        <ele>164.5</ele>
        <time>2022-05-24T10:19:56Z</time>
      </trkpt>
      <trkpt lat="44.90125" lon="1.7496">
        <ele>164.6</ele>
        <time>2022-05-24T10:19:57Z</time>
      </trkpt>
      <trkpt lat="44.90124" lon="1.74961">
        <ele>164.8</ele>
        <time>2022-05-24T10:19:58Z</time>
      </trkpt>
      <trkpt lat="44.90123" lon="1.74962">
        <ele>164.9</ele>
        <time>2022-05-24T10:19:59Z</time>
      </trkpt>
      <trkpt lat="44.90122" lon="1.74963">
        <ele>165.2</ele>
        <time>2022-05-24T10:20:00Z</time>
      </trkpt>
      <trkpt lat="44.90121" lon="1.74963">
        <ele>165.3</ele>
        <time>2022-05-24T10:20:01Z</time>
      </trkpt>
      <trkpt lat="44.9012" lon="1.74964">
        <ele>165.4</ele>
        <time>2022-05-24T10:20:02Z</time>
      </trkpt>
      <trkpt lat="44.90119" lon="1.74964">
        <ele>165.5</ele>
        <time>2022-05-24T10:20:03Z</time>
      </trkpt>
      <trkpt lat="44.90118" lon="1.74964">
        <ele>165.8</ele>
        <time>2022-05-24T10:20:04Z</time>
      </trkpt>
      <trkpt lat="44.90117" lon="1.74964">
        <ele>165.9</ele>
        <time>2022-05-24T10:20:05Z</time>
      </trkpt>
      <trkpt lat="44.90116" lon="1.74965">
        <ele>166.1</ele>
        <time>2022-05-24T10:20:06Z</time>
      </trkpt>
      <trkpt lat="44.90115" lon="1.74966">
        <ele>166.2</ele>
        <time>2022-05-24T10:20:07Z</time>
      </trkpt>
      <trkpt lat="44.90114" lon="1.74967">
        <ele>166.4</ele>
        <time>2022-05-24T10:20:08Z</time>
      </trkpt>
      <trkpt lat="44.90114" lon="1.74969">
        <ele>166.6</ele>
        <time>2022-05-24T10:20:09Z</time>
      </trkpt>
      <trkpt lat="44.90113" lon="1.7497">
        <ele>166.7</ele>
        <time>2022-05-24T10:20:10Z</time>
      </trkpt>
      <trkpt lat="44.90112" lon="1.74971">
        <ele>166.9</ele>
        <time>2022-05-24T10:20:11Z</time>
      </trkpt>
      <trkpt lat="44.90112" lon="1.74972">
        <ele>167</ele>
        <time>2022-05-24T10:20:12Z</time>
      </trkpt>
      <trkpt lat="44.90111" lon="1.74973">
        <ele>167.2</ele>
        <time>2022-05-24T10:20:13Z</time>
      </trkpt>
      <trkpt lat="44.9011" lon="1.74973">
        <ele>167.4</ele>
        <time>2022-05-24T10:20:14Z</time>
      </trkpt>
      <trkpt lat="44.90108" lon="1.74975">
        <ele>167.7</ele>
        <time>2022-05-24T10:20:15Z</time>
      </trkpt>
      <trkpt lat="44.90107" lon="1.74976">
        <ele>167.8</ele>
        <time>2022-05-24T10:20:16Z</time>
      </trkpt>
      <trkpt lat="44.90106" lon="1.74977">
        <ele>167.9</ele>
        <time>2022-05-24T10:20:17Z</time>
      </trkpt>
      <trkpt lat="44.90105" lon="1.74978">
        <ele>168.2</ele>
        <time>2022-05-24T10:20:18Z</time>
      </trkpt>
      <trkpt lat="44.90104" lon="1.7498">
        <ele>168.4</ele>
        <time>2022-05-24T10:20:19Z</time>
      </trkpt>
      <trkpt lat="44.90102" lon="1.74981">
        <ele>168.7</ele>
        <time>2022-05-24T10:20:20Z</time>
      </trkpt>
      <trkpt lat="44.90102" lon="1.74982">
        <ele>168.8</ele>
        <time>2022-05-24T10:20:21Z</time>
      </trkpt>
      <trkpt lat="44.90101" lon="1.74982">
        <ele>168.9</ele>
        <time>2022-05-24T10:20:22Z</time>
      </trkpt>
      <trkpt lat="44.901" lon="1.74984">
        <ele>169.2</ele>
        <time>2022-05-24T10:20:23Z</time>
      </trkpt>
      <trkpt lat="44.90099" lon="1.74985">
        <ele>169.4</ele>
        <time>2022-05-24T10:20:24Z</time>
      </trkpt>
      <trkpt lat="44.90098" lon="1.74986">
        <ele>169.5</ele>
        <time>2022-05-24T10:20:25Z</time>
      </trkpt>
      <trkpt lat="44.90097" lon="1.74987">
        <ele>169.7</ele>
        <time>2022-05-24T10:20:26Z</time>
      </trkpt>
      <trkpt lat="44.90096" lon="1.74988">
        <ele>169.9</ele>
        <time>2022-05-24T10:20:27Z</time>
      </trkpt>
      <trkpt lat="44.90095" lon="1.74989">
        <ele>170</ele>
        <time>2022-05-24T10:20:28Z</time>
      </trkpt>
      <trkpt lat="44.90094" lon="1.7499">
        <ele>170.3</ele>
        <time>2022-05-24T10:20:29Z</time>
      </trkpt>
      <trkpt lat="44.90093" lon="1.7499">
        <ele>170.4</ele>
        <time>2022-05-24T10:20:30Z</time>
      </trkpt>
      <trkpt lat="44.90092" lon="1.74991">
        <ele>170.5</ele>
        <time>2022-05-24T10:20:31Z</time>
      </trkpt>
      <trkpt lat="44.9009" lon="1.74992">
        <ele>170.9</ele>
        <time>2022-05-24T10:20:32Z</time>
      </trkpt>
      <trkpt lat="44.90089" lon="1.74993">
        <ele>171</ele>
        <time>2022-05-24T10:20:33Z</time>
      </trkpt>
      <trkpt lat="44.90088" lon="1.74994">
        <ele>171.2</ele>
        <time>2022-05-24T10:20:34Z</time>
      </trkpt>
      <trkpt lat="44.90086" lon="1.74995">
        <ele>171.6</ele>
        <time>2022-05-24T10:20:35Z</time>
      </trkpt>
      <trkpt lat="44.90084" lon="1.74995">
        <ele>171.8</ele>
        <time>2022-05-24T10:20:36Z</time>
      </trkpt>
      <trkpt lat="44.90083" lon="1.74996">
        <ele>171.9</ele>
        <time>2022-05-24T10:20:37Z</time>
      </trkpt>
      <trkpt lat="44.90082" lon="1.74997">
        <ele>172.2</ele>
        <time>2022-05-24T10:20:38Z</time>
      </trkpt>
      <trkpt lat="44.9008" lon="1.74997">
        <ele>172.4</ele>
        <time>2022-05-24T10:20:39Z</time>
      </trkpt>
      <trkpt lat="44.90079" lon="1.74997">
        <ele>172.6</ele>
        <time>2022-05-24T10:20:40Z</time>
      </trkpt>
      <trkpt lat="44.90078" lon="1.74996">
        <ele>172.8</ele>
        <time>2022-05-24T10:20:41Z</time>
      </trkpt>
      <trkpt lat="44.90076" lon="1.74996">
        <ele>173</ele>
        <time>2022-05-24T10:20:42Z</time>
      </trkpt>
      <trkpt lat="44.90074" lon="1.74996">
        <ele>173.4</ele>
        <time>2022-05-24T10:20:43Z</time>
      </trkpt>
      <trkpt lat="44.90073" lon="1.74997">
        <ele>173.5</ele>
        <time>2022-05-24T10:20:44Z</time>
      </trkpt>
      <trkpt lat="44.90072" lon="1.74997">
        <ele>173.6</ele>
        <time>2022-05-24T10:20:45Z</time>
      </trkpt>
      <trkpt lat="44.9007" lon="1.74997">
        <ele>174</ele>
        <time>2022-05-24T10:20:46Z</time>
      </trkpt>
      <trkpt lat="44.90068" lon="1.74997">
        <ele>174.2</ele>
        <time>2022-05-24T10:20:47Z</time>
      </trkpt>
      <trkpt lat="44.90065" lon="1.74996">
        <ele>174.6</ele>
        <time>2022-05-24T10:20:48Z</time>
      </trkpt>
      <trkpt lat="44.90065" lon="1.74996">
        <ele>174.8</ele>
        <time>2022-05-24T10:20:49Z</time>
      </trkpt>
      <trkpt lat="44.90063" lon="1.74994">
        <ele>175.1</ele>
        <time>2022-05-24T10:20:50Z</time>
      </trkpt>
      <trkpt lat="44.90062" lon="1.74994">
        <ele>175.2</ele>
        <time>2022-05-24T10:20:51Z</time>
      </trkpt>
      <trkpt lat="44.90061" lon="1.74993">
        <ele>175.4</ele>
        <time>2022-05-24T10:20:52Z</time>
      </trkpt>
      <trkpt lat="44.9006" lon="1.74991">
        <ele>175.6</ele>
        <time>2022-05-24T10:20:53Z</time>
      </trkpt>
      <trkpt lat="44.90059" lon="1.7499">
        <ele>175.8</ele>
        <time>2022-05-24T10:20:54Z</time>
      </trkpt>
      <trkpt lat="44.90057" lon="1.74989">
        <ele>176.1</ele>
        <time>2022-05-24T10:20:55Z</time>
      </trkpt>
      <trkpt lat="44.90057" lon="1.74988">
        <ele>176.2</ele>
        <time>2022-05-24T10:20:56Z</time>
      </trkpt>
      <trkpt lat="44.90056" lon="1.74988">
        <ele>176.3</ele>
        <time>2022-05-24T10:20:57Z</time>
      </trkpt>
      <trkpt lat="44.90054" lon="1.74988">
        <ele>176.5</ele>
        <time>2022-05-24T10:20:58Z</time>
      </trkpt>
      <trkpt lat="44.90053" lon="1.74989">
        <ele>176.8</ele>
        <time>2022-05-24T10:20:59Z</time>
      </trkpt>
      <trkpt lat="44.90051" lon="1.74989">
        <ele>177</ele>
        <time>2022-05-24T10:21:00Z</time>
      </trkpt>
      <trkpt lat="44.9005" lon="1.74988">
        <ele>177.2</ele>
        <time>2022-05-24T10:21:01Z</time>
      </trkpt>
      <trkpt lat="44.90049" lon="1.74988">
        <ele>177.4</ele>
        <time>2022-05-24T10:21:02Z</time>
      </trkpt>
      <trkpt lat="44.90048" lon="1.74988">
        <ele>177.5</ele>
        <time>2022-05-24T10:21:03Z</time>
      </trkpt>
      <trkpt lat="44.90047" lon="1.74987">
        <ele>177.7</ele>
        <time>2022-05-24T10:21:04Z</time>
      </trkpt>
      <trkpt lat="44.90046" lon="1.74986">
        <ele>177.9</ele>
        <time>2022-05-24T10:21:05Z</time>
      </trkpt>
      <trkpt lat="44.90045" lon="1.74985">
        <ele>178</ele>
        <time>2022-05-24T10:21:06Z</time>
      </trkpt>
      <trkpt lat="44.90044" lon="1.74984">
        <ele>178.2</ele>
        <time>2022-05-24T10:21:07Z</time>
      </trkpt>
      <trkpt lat="44.90043" lon="1.74982">
        <ele>178.5</ele>
        <time>2022-05-24T10:21:08Z</time>
      </trkpt>
      <trkpt lat="44.90042" lon="1.74981">
        <ele>178.7</ele>
        <time>2022-05-24T10:21:09Z</time>
      </trkpt>
      <trkpt lat="44.90041" lon="1.7498">
        <ele>178.8</ele>
        <time>2022-05-24T10:21:10Z</time>
      </trkpt>
      <trkpt lat="44.90041" lon="1.74978">
        <ele>179</ele>
        <time>2022-05-24T10:21:11Z</time>
      </trkpt>
      <trkpt lat="44.90041" lon="1.74977">
        <ele>179.1</ele>
        <time>2022-05-24T10:21:12Z</time>
      </trkpt>
      <trkpt lat="44.9004" lon="1.74976">
        <ele>179.2</ele>
        <time>2022-05-24T10:21:13Z</time>
      </trkpt>
      <trkpt lat="44.9004" lon="1.74976">
        <ele>179.3</ele>
        <time>2022-05-24T10:21:14Z</time>
      </trkpt>
      <trkpt lat="44.90039" lon="1.74975">
        <ele>179.4</ele>
        <time>2022-05-24T10:21:15Z</time>
      </trkpt>
      <trkpt lat="44.90039" lon="1.74975">
        <ele>179.5</ele>
        <time>2022-05-24T10:21:16Z</time>
      </trkpt>
      <trkpt lat="44.90039" lon="1.74974">
        <ele>179.6</ele>
        <time>2022-05-24T10:21:17Z</time>
      </trkpt>
      <trkpt lat="44.90039" lon="1.74973">
        <ele>179.6</ele>
        <time>2022-05-24T10:21:18Z</time>
      </trkpt>
      <trkpt lat="44.90039" lon="1.74973">
        <ele>179.6</ele>
        <time>2022-05-24T10:21:19Z</time>
      </trkpt>
      <trkpt lat="44.90038" lon="1.74973">
        <ele>179.8</ele>
        <time>2022-05-24T10:21:20Z</time>
      </trkpt>
      <trkpt lat="44.90037" lon="1.74971">
        <ele>179.9</ele>
        <time>2022-05-24T10:21:21Z</time>
      </trkpt>
      <trkpt lat="44.90037" lon="1.7497">
        <ele>180.1</ele>
        <time>2022-05-24T10:21:22Z</time>
      </trkpt>
      <trkpt lat="44.90036" lon="1.74969">
        <ele>180.2</ele>
        <time>2022-05-24T10:21:23Z</time>
      </trkpt>
      <trkpt lat="44.90036" lon="1.74968">
        <ele>180.3</ele>
        <time>2022-05-24T10:21:24Z</time>
      </trkpt>
      <trkpt lat="44.90036" lon="1.74967">
        <ele>180.4</ele>
        <time>2022-05-24T10:21:25Z</time>
      </trkpt>
      <trkpt lat="44.90036" lon="1.74966">
        <ele>180.5</ele>
        <time>2022-05-24T10:21:26Z</time>
      </trkpt>
      <trkpt lat="44.90035" lon="1.74965">
        <ele>180.7</ele>
        <time>2022-05-24T10:21:27Z</time>
      </trkpt>
      <trkpt lat="44.90034" lon="1.74963">
        <ele>180.9</ele>
        <time>2022-05-24T10:21:28Z</time>
      </trkpt>
      <trkpt lat="44.90034" lon="1.74962">
        <ele>181.1</ele>
        <time>2022-05-24T10:21:29Z</time>
      </trkpt>
      <trkpt lat="44.90034" lon="1.7496">
        <ele>181.2</ele>
        <time>2022-05-24T10:21:30Z</time>
      </trkpt>
      <trkpt lat="44.90033" lon="1.74959">
        <ele>181.3</ele>
        <time>2022-05-24T10:21:31Z</time>
      </trkpt>
      <trkpt lat="44.90033" lon="1.74958">
        <ele>181.5</ele>
        <time>2022-05-24T10:21:32Z</time>
      </trkpt>
      <trkpt lat="44.90032" lon="1.74957">
        <ele>181.6</ele>
        <time>2022-05-24T10:21:33Z</time>
      </trkpt>
      <trkpt lat="44.90032" lon="1.74956">
        <ele>181.7</ele>
        <time>2022-05-24T10:21:34Z</time>
      </trkpt>
      <trkpt lat="44.90031" lon="1.74956">
        <ele>181.8</ele>
        <time>2022-05-24T10:21:35Z</time>
      </trkpt>
      <trkpt lat="44.90031" lon="1.74956">
        <ele>181.9</ele>
        <time>2022-05-24T10:21:36Z</time>
      </trkpt>
      <trkpt lat="44.9003" lon="1.74955">
        <ele>181.9</ele>
        <time>2022-05-24T10:21:37Z</time>
      </trkpt>
      <trkpt lat="44.9003" lon="1.74955">
        <ele>182</ele>
        <time>2022-05-24T10:21:38Z</time>
      </trkpt>
      <trkpt lat="44.90029" lon="1.74954">
        <ele>182.1</ele>
        <time>2022-05-24T10:21:39Z</time>
      </trkpt>
      <trkpt lat="44.90029" lon="1.74954">
        <ele>182.2</ele>
        <time>2022-05-24T10:21:40Z</time>
      </trkpt>
      <trkpt lat="44.90029" lon="1.74953">
        <ele>182.2</ele>
        <time>2022-05-24T10:21:41Z</time>
      </trkpt>
      <trkpt lat="44.90029" lon="1.74952">
        <ele>182.3</ele>
        <time>2022-05-24T10:21:42Z</time>
      </trkpt>
      <trkpt lat="44.90028" lon="1.74952">
        <ele>182.4</ele>
        <time>2022-05-24T10:21:43Z</time>
      </trkpt>
      <trkpt lat="44.90028" lon="1.74951">
        <ele>182.5</ele>
        <time>2022-05-24T10:21:44Z</time>
      </trkpt>
      <trkpt lat="44.90029" lon="1.7495">
        <ele>182.6</ele>
        <time>2022-05-24T10:21:45Z</time>
      </trkpt>
      <trkpt lat="44.9003" lon="1.7495">
        <ele>182.7</ele>
        <time>2022-05-24T10:21:46Z</time>
      </trkpt>
      <trkpt lat="44.9003" lon="1.74949">
        <ele>182.9</ele>
        <time>2022-05-24T10:21:47Z</time>
      </trkpt>
      <trkpt lat="44.90031" lon="1.74948">
        <ele>183</ele>
        <time>2022-05-24T10:21:48Z</time>
      </trkpt>
      <trkpt lat="44.90032" lon="1.74947">
        <ele>183.1</ele>
        <time>2022-05-24T10:21:49Z</time>
      </trkpt>
      <trkpt lat="44.90032" lon="1.74946">
        <ele>183.2</ele>
        <time>2022-05-24T10:21:50Z</time>
      </trkpt>
      <trkpt lat="44.90033" lon="1.74946">
        <ele>183.3</ele>
        <time>2022-05-24T10:21:51Z</time>
      </trkpt>
      <trkpt lat="44.90034" lon="1.74946">
        <ele>183.5</ele>
        <time>2022-05-24T10:21:52Z</time>
      </trkpt>
      <trkpt lat="44.90035" lon="1.74945">
        <ele>183.7</ele>
        <time>2022-05-24T10:21:53Z</time>
      </trkpt>
      <trkpt lat="44.90036" lon="1.74945">
        <ele>183.8</ele>
        <time>2022-05-24T10:21:54Z</time>
      </trkpt>
      <trkpt lat="44.90037" lon="1.74946">
        <ele>184</ele>
        <time>2022-05-24T10:21:55Z</time>
      </trkpt>
      <trkpt lat="44.90037" lon="1.74946">
        <ele>184</ele>
        <time>2022-05-24T10:21:56Z</time>
      </trkpt>
      <trkpt lat="44.90038" lon="1.74946">
        <ele>184.1</ele>
        <time>2022-05-24T10:21:57Z</time>
      </trkpt>
      <trkpt lat="44.90039" lon="1.74946">
        <ele>184.3</ele>
        <time>2022-05-24T10:21:58Z</time>
      </trkpt>
      <trkpt lat="44.9004" lon="1.74946">
        <ele>184.4</ele>
        <time>2022-05-24T10:21:59Z</time>
      </trkpt>
      <trkpt lat="44.90041" lon="1.74945">
        <ele>184.6</ele>
        <time>2022-05-24T10:22:00Z</time>
      </trkpt>
      <trkpt lat="44.90042" lon="1.74945">
        <ele>184.8</ele>
        <time>2022-05-24T10:22:01Z</time>
      </trkpt>
      <trkpt lat="44.90044" lon="1.74944">
        <ele>185.1</ele>
        <time>2022-05-24T10:22:02Z</time>
      </trkpt>
      <trkpt lat="44.90045" lon="1.74944">
        <ele>185.2</ele>
        <time>2022-05-24T10:22:03Z</time>
      </trkpt>
      <trkpt lat="44.90046" lon="1.74943">
        <ele>185.3</ele>
        <time>2022-05-24T10:22:04Z</time>
      </trkpt>
      <trkpt lat="44.90048" lon="1.74942">
        <ele>185.6</ele>
        <time>2022-05-24T10:22:05Z</time>
      </trkpt>
      <trkpt lat="44.90049" lon="1.74942">
        <ele>185.8</ele>
        <time>2022-05-24T10:22:06Z</time>
      </trkpt>
      <trkpt lat="44.9005" lon="1.74942">
        <ele>185.9</ele>
        <time>2022-05-24T10:22:07Z</time>
      </trkpt>
      <trkpt lat="44.90051" lon="1.74941">
        <ele>186.1</ele>
        <time>2022-05-24T10:22:08Z</time>
      </trkpt>
      <trkpt lat="44.90053" lon="1.7494">
        <ele>186.4</ele>
        <time>2022-05-24T10:22:09Z</time>
      </trkpt>
      <trkpt lat="44.90054" lon="1.7494">
        <ele>186.6</ele>
        <time>2022-05-24T10:22:10Z</time>
      </trkpt>
      <trkpt lat="44.90056" lon="1.74939">
        <ele>186.8</ele>
        <time>2022-05-24T10:22:11Z</time>
      </trkpt>
      <trkpt lat="44.90058" lon="1.74939">
        <ele>187.1</ele>
        <time>2022-05-24T10:22:12Z</time>
      </trkpt>
      <trkpt lat="44.90058" lon="1.74938">
        <ele>187.2</ele>
        <time>2022-05-24T10:22:13Z</time>
      </trkpt>
      <trkpt lat="44.90059" lon="1.74938">
        <ele>187.3</ele>
        <time>2022-05-24T10:22:14Z</time>
      </trkpt>
      <trkpt lat="44.9006" lon="1.74938">
        <ele>187.5</ele>
        <time>2022-05-24T10:22:15Z</time>
      </trkpt>
      <trkpt lat="44.90061" lon="1.74937">
        <ele>187.6</ele>
        <time>2022-05-24T10:22:16Z</time>
      </trkpt>
      <trkpt lat="44.90062" lon="1.74936">
        <ele>187.8</ele>
        <time>2022-05-24T10:22:17Z</time>
      </trkpt>
      <trkpt lat="44.90064" lon="1.74934">
        <ele>188.1</ele>
        <time>2022-05-24T10:22:18Z</time>
      </trkpt>
      <trkpt lat="44.90065" lon="1.74933">
        <ele>188.3</ele>
        <time>2022-05-24T10:22:19Z</time>
      </trkpt>
      <trkpt lat="44.90065" lon="1.74933">
        <ele>188.4</ele>
        <time>2022-05-24T10:22:20Z</time>
      </trkpt>
      <trkpt lat="44.90066" lon="1.74931">
        <ele>188.6</ele>
        <time>2022-05-24T10:22:21Z</time>
      </trkpt>
      <trkpt lat="44.90067" lon="1.7493">
        <ele>188.8</ele>
        <time>2022-05-24T10:22:22Z</time>
      </trkpt>
      <trkpt lat="44.90068" lon="1.74928">
        <ele>189.1</ele>
        <time>2022-05-24T10:22:23Z</time>
      </trkpt>
      <trkpt lat="44.90069" lon="1.74927">
        <ele>189.2</ele>
        <time>2022-05-24T10:22:24Z</time>
      </trkpt>
      <trkpt lat="44.9007" lon="1.74925">
        <ele>189.4</ele>
        <time>2022-05-24T10:22:25Z</time>
      </trkpt>
      <trkpt lat="44.90071" lon="1.74924">
        <ele>189.7</ele>
        <time>2022-05-24T10:22:26Z</time>
      </trkpt>
      <trkpt lat="44.90072" lon="1.74923">
        <ele>189.9</ele>
        <time>2022-05-24T10:22:27Z</time>
      </trkpt>
      <trkpt lat="44.90073" lon="1.74921">
        <ele>190.1</ele>
        <time>2022-05-24T10:22:28Z</time>
      </trkpt>
      <trkpt lat="44.90074" lon="1.7492">
        <ele>190.3</ele>
        <time>2022-05-24T10:22:29Z</time>
      </trkpt>
      <trkpt lat="44.90075" lon="1.74919">
        <ele>190.4</ele>
        <time>2022-05-24T10:22:30Z</time>
      </trkpt>
      <trkpt lat="44.90076" lon="1.74918">
        <ele>190.5</ele>
        <time>2022-05-24T10:22:31Z</time>
      </trkpt>
      <trkpt lat="44.90077" lon="1.74916">
        <ele>190.9</ele>
        <time>2022-05-24T10:22:32Z</time>
      </trkpt>
      <trkpt lat="44.90078" lon="1.74915">
        <ele>191</ele>
        <time>2022-05-24T10:22:33Z</time>
      </trkpt>
      <trkpt lat="44.90078" lon="1.74914">
        <ele>191.2</ele>
        <time>2022-05-24T10:22:34Z</time>
      </trkpt>
      <trkpt lat="44.9008" lon="1.74912">
        <ele>191.4</ele>
        <time>2022-05-24T10:22:35Z</time>
      </trkpt>
      <trkpt lat="44.90081" lon="1.74911">
        <ele>191.6</ele>
        <time>2022-05-24T10:22:36Z</time>
      </trkpt>
      <trkpt lat="44.90083" lon="1.74909">
        <ele>191.9</ele>
        <time>2022-05-24T10:22:37Z</time>
      </trkpt>
      <trkpt lat="44.90083" lon="1.74909">
        <ele>192.1</ele>
        <time>2022-05-24T10:22:38Z</time>
      </trkpt>
      <trkpt lat="44.90084" lon="1.74908">
        <ele>192.2</ele>
        <time>2022-05-24T10:22:39Z</time>
      </trkpt>
      <trkpt lat="44.90085" lon="1.74907">
        <ele>192.4</ele>
        <time>2022-05-24T10:22:40Z</time>
      </trkpt>
      <trkpt lat="44.90086" lon="1.74906">
        <ele>192.5</ele>
        <time>2022-05-24T10:22:41Z</time>
      </trkpt>
      <trkpt lat="44.90086" lon="1.74904">
        <ele>192.7</ele>
        <time>2022-05-24T10:22:42Z</time>
      </trkpt>
      <trkpt lat="44.90088" lon="1.74903">
        <ele>193</ele>
        <time>2022-05-24T10:22:43Z</time>
      </trkpt>
      <trkpt lat="44.90089" lon="1.74901">
        <ele>193.2</ele>
        <time>2022-05-24T10:22:44Z</time>
      </trkpt>
      <trkpt lat="44.90091" lon="1.74899">
        <ele>193.6</ele>
        <time>2022-05-24T10:22:45Z</time>
      </trkpt>
      <trkpt lat="44.90092" lon="1.74898">
        <ele>193.7</ele>
        <time>2022-05-24T10:22:46Z</time>
      </trkpt>
      <trkpt lat="44.90092" lon="1.74897">
        <ele>193.8</ele>
        <time>2022-05-24T10:22:47Z</time>
      </trkpt>
      <trkpt lat="44.90094" lon="1.74895">
        <ele>194.2</ele>
        <time>2022-05-24T10:22:48Z</time>
      </trkpt>
      <trkpt lat="44.90095" lon="1.74894">
        <ele>194.4</ele>
        <time>2022-05-24T10:22:49Z</time>
      </trkpt>
      <trkpt lat="44.90098" lon="1.74892">
        <ele>194.8</ele>
        <time>2022-05-24T10:22:50Z</time>
      </trkpt>
      <trkpt lat="44.90099" lon="1.74891">
        <ele>195</ele>
        <time>2022-05-24T10:22:51Z</time>
      </trkpt>
      <trkpt lat="44.90101" lon="1.74888">
        <ele>195.5</ele>
        <time>2022-05-24T10:22:52Z</time>
      </trkpt>
      <trkpt lat="44.90102" lon="1.74887">
        <ele>195.6</ele>
        <time>2022-05-24T10:22:53Z</time>
      </trkpt>
      <trkpt lat="44.90103" lon="1.74885">
        <ele>195.9</ele>
        <time>2022-05-24T10:22:54Z</time>
      </trkpt>
      <trkpt lat="44.90104" lon="1.74884">
        <ele>196.1</ele>
        <time>2022-05-24T10:22:55Z</time>
      </trkpt>
      <trkpt lat="44.90105" lon="1.74883">
        <ele>196.3</ele>
        <time>2022-05-24T10:22:56Z</time>
      </trkpt>
      <trkpt lat="44.90106" lon="1.74882">
        <ele>196.5</ele>
        <time>2022-05-24T10:22:57Z</time>
      </trkpt>
      <trkpt lat="44.90107" lon="1.74881">
        <ele>196.6</ele>
        <time>2022-05-24T10:22:58Z</time>
      </trkpt>
      <trkpt lat="44.90107" lon="1.7488">
        <ele>196.7</ele>
        <time>2022-05-24T10:22:59Z</time>
      </trkpt>
      <trkpt lat="44.90108" lon="1.74879">
        <ele>196.9</ele>
        <time>2022-05-24T10:23:00Z</time>
      </trkpt>
      <trkpt lat="44.90109" lon="1.74877">
        <ele>197</ele>
        <time>2022-05-24T10:23:01Z</time>
      </trkpt>
      <trkpt lat="44.90109" lon="1.74876">
        <ele>197.2</ele>
        <time>2022-05-24T10:23:02Z</time>
      </trkpt>
      <trkpt lat="44.9011" lon="1.74874">
        <ele>197.4</ele>
        <time>2022-05-24T10:23:03Z</time>
      </trkpt>
      <trkpt lat="44.90111" lon="1.74871">
        <ele>197.7</ele>
        <time>2022-05-24T10:23:04Z</time>
      </trkpt>
      <trkpt lat="44.90111" lon="1.74869">
        <ele>198</ele>
        <time>2022-05-24T10:23:05Z</time>
      </trkpt>
      <trkpt lat="44.90112" lon="1.74868">
        <ele>198.2</ele>
        <time>2022-05-24T10:23:06Z</time>
      </trkpt>
      <trkpt lat="44.90113" lon="1.74867">
        <ele>198.3</ele>
        <time>2022-05-24T10:23:07Z</time>
      </trkpt>
      <trkpt lat="44.90115" lon="1.74866">
        <ele>198.6</ele>
        <time>2022-05-24T10:23:08Z</time>
      </trkpt>
      <trkpt lat="44.90116" lon="1.74864">
        <ele>198.9</ele>
        <time>2022-05-24T10:23:09Z</time>
      </trkpt>
      <trkpt lat="44.90118" lon="1.7486">
        <ele>199.3</ele>
        <time>2022-05-24T10:23:10Z</time>
      </trkpt>
      <trkpt lat="44.90118" lon="1.74859">
        <ele>199.4</ele>
        <time>2022-05-24T10:23:11Z</time>
      </trkpt>
      <trkpt lat="44.90119" lon="1.74857">
        <ele>199.7</ele>
        <time>2022-05-24T10:23:12Z</time>
      </trkpt>
      <trkpt lat="44.90119" lon="1.74856">
        <ele>199.8</ele>
        <time>2022-05-24T10:23:13Z</time>
      </trkpt>
      <trkpt lat="44.9012" lon="1.74855">
        <ele>199.9</ele>
        <time>2022-05-24T10:23:14Z</time>
      </trkpt>
      <trkpt lat="44.90121" lon="1.74852">
        <ele>200.3</ele>
        <time>2022-05-24T10:23:15Z</time>
      </trkpt>
      <trkpt lat="44.90121" lon="1.74851">
        <ele>200.4</ele>
        <time>2022-05-24T10:23:16Z</time>
      </trkpt>
      <trkpt lat="44.90122" lon="1.7485">
        <ele>200.6</ele>
        <time>2022-05-24T10:23:17Z</time>
      </trkpt>
      <trkpt lat="44.90123" lon="1.74845">
        <ele>201.1</ele>
        <time>2022-05-24T10:23:18Z</time>
      </trkpt>
      <trkpt lat="44.90124" lon="1.74843">
        <ele>201.3</ele>
        <time>2022-05-24T10:23:19Z</time>
      </trkpt>
      <trkpt lat="44.90125" lon="1.7484">
        <ele>201.7</ele>
        <time>2022-05-24T10:23:20Z</time>
      </trkpt>
      <trkpt lat="44.90126" lon="1.74838">
        <ele>201.9</ele>
        <time>2022-05-24T10:23:21Z</time>
      </trkpt>
      <trkpt lat="44.90126" lon="1.74836">
        <ele>202.1</ele>
        <time>2022-05-24T10:23:22Z</time>
      </trkpt>
      <trkpt lat="44.90127" lon="1.74834">
        <ele>202.4</ele>
        <time>2022-05-24T10:23:23Z</time>
      </trkpt>
      <trkpt lat="44.90128" lon="1.74832">
        <ele>202.6</ele>
        <time>2022-05-24T10:23:24Z</time>
      </trkpt>
      <trkpt lat="44.90129" lon="1.7483">
        <ele>202.9</ele>
        <time>2022-05-24T10:23:25Z</time>
      </trkpt>
      <trkpt lat="44.9013" lon="1.74828">
        <ele>203.1</ele>
        <time>2022-05-24T10:23:26Z</time>
      </trkpt>
      <trkpt lat="44.9013" lon="1.74827">
        <ele>203.3</ele>
        <time>2022-05-24T10:23:27Z</time>
      </trkpt>
      <trkpt lat="44.90131" lon="1.74824">
        <ele>203.5</ele>
        <time>2022-05-24T10:23:28Z</time>
      </trkpt>
      <trkpt lat="44.90132" lon="1.74822">
        <ele>203.8</ele>
        <time>2022-05-24T10:23:29Z</time>
      </trkpt>
      <trkpt lat="44.90131" lon="1.7482">
        <ele>204</ele>
        <time>2022-05-24T10:23:30Z</time>
      </trkpt>
      <trkpt lat="44.90131" lon="1.74817">
        <ele>204.3</ele>
        <time>2022-05-24T10:23:31Z</time>
      </trkpt>
      <trkpt lat="44.90131" lon="1.74815">
        <ele>204.5</ele>
        <time>2022-05-24T10:23:32Z</time>
      </trkpt>
      <trkpt lat="44.90131" lon="1.74813">
        <ele>204.7</ele>
        <time>2022-05-24T10:23:33Z</time>
      </trkpt>
      <trkpt lat="44.90131" lon="1.74812">
        <ele>204.9</ele>
        <time>2022-05-24T10:23:34Z</time>
      </trkpt>
      <trkpt lat="44.90132" lon="1.7481">
        <ele>205</ele>
        <time>2022-05-24T10:23:35Z</time>
      </trkpt>
      <trkpt lat="44.90132" lon="1.74809">
        <ele>205.2</ele>
        <time>2022-05-24T10:23:36Z</time>
      </trkpt>
      <trkpt lat="44.90132" lon="1.74806">
        <ele>205.5</ele>
        <time>2022-05-24T10:23:37Z</time>
      </trkpt>
      <trkpt lat="44.90132" lon="1.74804">
        <ele>205.6</ele>
        <time>2022-05-24T10:23:38Z</time>
      </trkpt>
      <trkpt lat="44.90132" lon="1.74803">
        <ele>205.8</ele>
        <time>2022-05-24T10:23:39Z</time>
      </trkpt>
      <trkpt lat="44.90132" lon="1.74801">
        <ele>206</ele>
        <time>2022-05-24T10:23:40Z</time>
      </trkpt>
      <trkpt lat="44.90133" lon="1.74799">
        <ele>206.2</ele>
        <time>2022-05-24T10:23:41Z</time>
      </trkpt>
      <trkpt lat="44.90133" lon="1.74797">
        <ele>206.5</ele>
        <time>2022-05-24T10:23:42Z</time>
      </trkpt>
      <trkpt lat="44.90134" lon="1.74794">
        <ele>206.7</ele>
        <time>2022-05-24T10:23:43Z</time>
      </trkpt>
      <trkpt lat="44.90135" lon="1.74791">
        <ele>207.1</ele>
        <time>2022-05-24T10:23:44Z</time>
      </trkpt>
      <trkpt lat="44.90135" lon="1.7479">
        <ele>207.2</ele>
        <time>2022-05-24T10:23:45Z</time>
      </trkpt>
      <trkpt lat="44.90135" lon="1.74789">
        <ele>207.3</ele>
        <time>2022-05-24T10:23:46Z</time>
      </trkpt>
      <trkpt lat="44.90136" lon="1.74787">
        <ele>207.6</ele>
        <time>2022-05-24T10:23:47Z</time>
      </trkpt>
      <trkpt lat="44.90137" lon="1.74785">
        <ele>207.8</ele>
        <time>2022-05-24T10:23:48Z</time>
      </trkpt>
      <trkpt lat="44.90137" lon="1.74783">
        <ele>208</ele>
        <time>2022-05-24T10:23:49Z</time>
      </trkpt>
      <trkpt lat="44.90138" lon="1.74781">
        <ele>208.3</ele>
        <time>2022-05-24T10:23:50Z</time>
      </trkpt>
      <trkpt lat="44.90138" lon="1.74779">
        <ele>208.4</ele>
        <time>2022-05-24T10:23:51Z</time>
      </trkpt>
      <trkpt lat="44.90138" lon="1.74778">
        <ele>208.6</ele>
        <time>2022-05-24T10:23:52Z</time>
      </trkpt>
      <trkpt lat="44.90139" lon="1.74776">
        <ele>208.7</ele>
        <time>2022-05-24T10:23:53Z</time>
      </trkpt>
      <trkpt lat="44.90139" lon="1.74774">
        <ele>209.1</ele>
        <time>2022-05-24T10:23:54Z</time>
      </trkpt>
      <trkpt lat="44.9014" lon="1.74772">
        <ele>209.2</ele>
        <time>2022-05-24T10:23:55Z</time>
      </trkpt>
      <trkpt lat="44.9014" lon="1.74771">
        <ele>209.3</ele>
        <time>2022-05-24T10:23:56Z</time>
      </trkpt>
      <trkpt lat="44.9014" lon="1.7477">
        <ele>209.5</ele>
        <time>2022-05-24T10:23:57Z</time>
      </trkpt>
      <trkpt lat="44.90141" lon="1.74768">
        <ele>209.7</ele>
        <time>2022-05-24T10:23:58Z</time>
      </trkpt>
      <trkpt lat="44.90142" lon="1.74766">
        <ele>209.9</ele>
        <time>2022-05-24T10:23:59Z</time>
      </trkpt>
      <trkpt lat="44.90142" lon="1.74764">
        <ele>210.1</ele>
        <time>2022-05-24T10:24:00Z</time>
      </trkpt>
      <trkpt lat="44.90142" lon="1.74762">
        <ele>210.4</ele>
        <time>2022-05-24T10:24:01Z</time>
      </trkpt>
      <trkpt lat="44.90143" lon="1.7476">
        <ele>210.6</ele>
        <time>2022-05-24T10:24:02Z</time>
      </trkpt>
      <trkpt lat="44.90143" lon="1.74758">
        <ele>210.8</ele>
        <time>2022-05-24T10:24:03Z</time>
      </trkpt>
      <trkpt lat="44.90143" lon="1.74755">
        <ele>211</ele>
        <time>2022-05-24T10:24:04Z</time>
      </trkpt>
      <trkpt lat="44.90144" lon="1.74753">
        <ele>211.3</ele>
        <time>2022-05-24T10:24:05Z</time>
      </trkpt>
      <trkpt lat="44.90145" lon="1.74751">
        <ele>211.5</ele>
        <time>2022-05-24T10:24:06Z</time>
      </trkpt>
      <trkpt lat="44.90145" lon="1.74749">
        <ele>211.7</ele>
        <time>2022-05-24T10:24:07Z</time>
      </trkpt>
      <trkpt lat="44.90145" lon="1.74748">
        <ele>211.9</ele>
        <time>2022-05-24T10:24:08Z</time>
      </trkpt>
      <trkpt lat="44.90146" lon="1.74746">
        <ele>212.1</ele>
        <time>2022-05-24T10:24:09Z</time>
      </trkpt>
      <trkpt lat="44.90146" lon="1.74745">
        <ele>212.3</ele>
        <time>2022-05-24T10:24:10Z</time>
      </trkpt>
      <trkpt lat="44.90147" lon="1.74743">
        <ele>212.5</ele>
        <time>2022-05-24T10:24:11Z</time>
      </trkpt>
      <trkpt lat="44.90149" lon="1.74739">
        <ele>213</ele>
        <time>2022-05-24T10:24:12Z</time>
      </trkpt>
      <trkpt lat="44.90149" lon="1.74738">
        <ele>213.1</ele>
        <time>2022-05-24T10:24:13Z</time>
      </trkpt>
      <trkpt lat="44.90151" lon="1.74733">
        <ele>213.7</ele>
        <time>2022-05-24T10:24:14Z</time>
      </trkpt>
      <trkpt lat="44.90151" lon="1.74732">
        <ele>213.8</ele>
        <time>2022-05-24T10:24:15Z</time>
      </trkpt>
      <trkpt lat="44.90153" lon="1.74728">
        <ele>214.3</ele>
        <time>2022-05-24T10:24:16Z</time>
      </trkpt>
      <trkpt lat="44.90154" lon="1.74726">
        <ele>214.5</ele>
        <time>2022-05-24T10:24:17Z</time>
      </trkpt>
      <trkpt lat="44.90155" lon="1.74724">
        <ele>214.7</ele>
        <time>2022-05-24T10:24:18Z</time>
      </trkpt>
      <trkpt lat="44.90155" lon="1.74722">
        <ele>215</ele>
        <time>2022-05-24T10:24:19Z</time>
      </trkpt>
      <trkpt lat="44.90156" lon="1.74719">
        <ele>215.4</ele>
        <time>2022-05-24T10:24:20Z</time>
      </trkpt>
      <trkpt lat="44.90157" lon="1.74718">
        <ele>215.5</ele>
        <time>2022-05-24T10:24:21Z</time>
      </trkpt>
      <trkpt lat="44.90157" lon="1.74716">
        <ele>215.7</ele>
        <time>2022-05-24T10:24:22Z</time>
      </trkpt>
      <trkpt lat="44.90157" lon="1.74713">
        <ele>216</ele>
        <time>2022-05-24T10:24:23Z</time>
      </trkpt>
      <trkpt lat="44.90158" lon="1.74709">
        <ele>216.4</ele>
        <time>2022-05-24T10:24:24Z</time>
      </trkpt>
      <trkpt lat="44.90158" lon="1.74708">
        <ele>216.6</ele>
        <time>2022-05-24T10:24:25Z</time>
      </trkpt>
      <trkpt lat="44.90159" lon="1.74704">
        <ele>217</ele>
        <time>2022-05-24T10:24:26Z</time>
      </trkpt>
      <trkpt lat="44.90159" lon="1.74702">
        <ele>217.2</ele>
        <time>2022-05-24T10:24:27Z</time>
      </trkpt>
      <trkpt lat="44.9016" lon="1.74698">
        <ele>217.6</ele>
        <time>2022-05-24T10:24:28Z</time>
      </trkpt>
      <trkpt lat="44.9016" lon="1.74697">
        <ele>217.8</ele>
        <time>2022-05-24T10:24:29Z</time>
      </trkpt>
      <trkpt lat="44.90161" lon="1.74692">
        <ele>218.2</ele>
        <time>2022-05-24T10:24:30Z</time>
      </trkpt>
      <trkpt lat="44.90161" lon="1.74691">
        <ele>218.4</ele>
        <time>2022-05-24T10:24:31Z</time>
      </trkpt>
      <trkpt lat="44.90161" lon="1.74686">
        <ele>218.9</ele>
        <time>2022-05-24T10:24:32Z</time>
      </trkpt>
      <trkpt lat="44.90161" lon="1.74685">
        <ele>219</ele>
        <time>2022-05-24T10:24:33Z</time>
      </trkpt>
      <trkpt lat="44.90162" lon="1.7468">
        <ele>219.6</ele>
        <time>2022-05-24T10:24:34Z</time>
      </trkpt>
      <trkpt lat="44.90162" lon="1.74678">
        <ele>219.8</ele>
        <time>2022-05-24T10:24:35Z</time>
      </trkpt>
      <trkpt lat="44.90164" lon="1.74673">
        <ele>220.3</ele>
        <time>2022-05-24T10:24:36Z</time>
      </trkpt>
      <trkpt lat="44.90164" lon="1.74671">
        <ele>220.5</ele>
        <time>2022-05-24T10:24:37Z</time>
      </trkpt>
      <trkpt lat="44.90165" lon="1.74667">
        <ele>221</ele>
        <time>2022-05-24T10:24:38Z</time>
      </trkpt>
      <trkpt lat="44.90165" lon="1.74665">
        <ele>221.2</ele>
        <time>2022-05-24T10:24:39Z</time>
      </trkpt>
      <trkpt lat="44.90165" lon="1.74661">
        <ele>221.6</ele>
        <time>2022-05-24T10:24:40Z</time>
      </trkpt>
      <trkpt lat="44.90165" lon="1.74659">
        <ele>221.8</ele>
        <time>2022-05-24T10:24:41Z</time>
      </trkpt>
      <trkpt lat="44.90166" lon="1.74654">
        <ele>222.3</ele>
        <time>2022-05-24T10:24:42Z</time>
      </trkpt>
      <trkpt lat="44.90166" lon="1.74652">
        <ele>222.5</ele>
        <time>2022-05-24T10:24:43Z</time>
      </trkpt>
      <trkpt lat="44.90166" lon="1.74648">
        <ele>223</ele>
        <time>2022-05-24T10:24:44Z</time>
      </trkpt>
      <trkpt lat="44.90166" lon="1.74646">
        <ele>223.2</ele>
        <time>2022-05-24T10:24:45Z</time>
      </trkpt>
      <trkpt lat="44.90166" lon="1.74641">
        <ele>223.7</ele>
        <time>2022-05-24T10:24:46Z</time>
      </trkpt>
      <trkpt lat="44.90166" lon="1.74639">
        <ele>223.9</ele>
        <time>2022-05-24T10:24:47Z</time>
      </trkpt>
      <trkpt lat="44.90166" lon="1.74635">
        <ele>224.3</ele>
        <time>2022-05-24T10:24:48Z</time>
      </trkpt>
      <trkpt lat="44.90166" lon="1.74631">
        <ele>224.7</ele>
        <time>2022-05-24T10:24:49Z</time>
      </trkpt>
      <trkpt lat="44.90167" lon="1.74627">
        <ele>225.2</ele>
        <time>2022-05-24T10:24:50Z</time>
      </trkpt>
      <trkpt lat="44.90167" lon="1.74623">
        <ele>225.6</ele>
        <time>2022-05-24T10:24:51Z</time>
      </trkpt>
      <trkpt lat="44.90167" lon="1.74619">
        <ele>226.1</ele>
        <time>2022-05-24T10:24:52Z</time>
      </trkpt>
      <trkpt lat="44.90167" lon="1.74615">
        <ele>226.5</ele>
        <time>2022-05-24T10:24:53Z</time>
      </trkpt>
      <trkpt lat="44.90167" lon="1.74611">
        <ele>226.9</ele>
        <time>2022-05-24T10:24:54Z</time>
      </trkpt>
      <trkpt lat="44.90167" lon="1.74605">
        <ele>227.5</ele>
        <time>2022-05-24T10:24:55Z</time>
      </trkpt>
      <trkpt lat="44.90167" lon="1.74603">
        <ele>227.7</ele>
        <time>2022-05-24T10:24:56Z</time>
      </trkpt>
      <trkpt lat="44.90166" lon="1.74598">
        <ele>228.2</ele>
        <time>2022-05-24T10:24:57Z</time>
      </trkpt>
      <trkpt lat="44.90166" lon="1.74597">
        <ele>228.4</ele>
        <time>2022-05-24T10:24:58Z</time>
      </trkpt>
      <trkpt lat="44.90165" lon="1.74593">
        <ele>228.8</ele>
        <time>2022-05-24T10:24:59Z</time>
      </trkpt>
      <trkpt lat="44.90164" lon="1.74592">
        <ele>229</ele>
        <time>2022-05-24T10:25:00Z</time>
      </trkpt>
      <trkpt lat="44.90164" lon="1.74587">
        <ele>229.4</ele>
        <time>2022-05-24T10:25:01Z</time>
      </trkpt>
      <trkpt lat="44.90163" lon="1.74586">
        <ele>229.6</ele>
        <time>2022-05-24T10:25:02Z</time>
      </trkpt>
      <trkpt lat="44.90163" lon="1.74583">
        <ele>229.8</ele>
        <time>2022-05-24T10:25:03Z</time>
      </trkpt>
      <trkpt lat="44.90163" lon="1.74581">
        <ele>230.1</ele>
        <time>2022-05-24T10:25:04Z</time>
      </trkpt>
      <trkpt lat="44.90163" lon="1.74578">
        <ele>230.4</ele>
        <time>2022-05-24T10:25:05Z</time>
      </trkpt>
      <trkpt lat="44.90163" lon="1.74576">
        <ele>230.7</ele>
        <time>2022-05-24T10:25:06Z</time>
      </trkpt>
      <trkpt lat="44.90163" lon="1.74574">
        <ele>230.9</ele>
        <time>2022-05-24T10:25:07Z</time>
      </trkpt>
      <trkpt lat="44.90163" lon="1.74572">
        <ele>231.2</ele>
        <time>2022-05-24T10:25:08Z</time>
      </trkpt>
      <trkpt lat="44.90162" lon="1.74568">
        <ele>231.6</ele>
        <time>2022-05-24T10:25:09Z</time>
      </trkpt>
      <trkpt lat="44.90162" lon="1.74567">
        <ele>231.7</ele>
        <time>2022-05-24T10:25:10Z</time>
      </trkpt>
      <trkpt lat="44.90161" lon="1.74562">
        <ele>232.2</ele>
        <time>2022-05-24T10:25:11Z</time>
      </trkpt>
      <trkpt lat="44.90161" lon="1.74561">
        <ele>232.3</ele>
        <time>2022-05-24T10:25:12Z</time>
      </trkpt>
      <trkpt lat="44.9016" lon="1.74559">
        <ele>232.5</ele>
        <time>2022-05-24T10:25:13Z</time>
      </trkpt>
      <trkpt lat="44.9016" lon="1.74556">
        <ele>232.8</ele>
        <time>2022-05-24T10:25:14Z</time>
      </trkpt>
      <trkpt lat="44.90159" lon="1.74554">
        <ele>233.1</ele>
        <time>2022-05-24T10:25:15Z</time>
      </trkpt>
      <trkpt lat="44.90159" lon="1.74552">
        <ele>233.3</ele>
        <time>2022-05-24T10:25:16Z</time>
      </trkpt>
      <trkpt lat="44.90159" lon="1.7455">
        <ele>233.5</ele>
        <time>2022-05-24T10:25:17Z</time>
      </trkpt>
      <trkpt lat="44.90158" lon="1.74548">
        <ele>233.7</ele>
        <time>2022-05-24T10:25:18Z</time>
      </trkpt>
      <trkpt lat="44.90158" lon="1.74546">
        <ele>234</ele>
        <time>2022-05-24T10:25:19Z</time>
      </trkpt>
      <trkpt lat="44.90157" lon="1.74543">
        <ele>234.3</ele>
        <time>2022-05-24T10:25:20Z</time>
      </trkpt>
      <trkpt lat="44.90157" lon="1.74541">
        <ele>234.5</ele>
        <time>2022-05-24T10:25:21Z</time>
      </trkpt>
      <trkpt lat="44.90157" lon="1.74539">
        <ele>234.7</ele>
        <time>2022-05-24T10:25:22Z</time>
      </trkpt>
      <trkpt lat="44.90156" lon="1.74537">
        <ele>235</ele>
        <time>2022-05-24T10:25:23Z</time>
      </trkpt>
      <trkpt lat="44.90156" lon="1.74534">
        <ele>235.2</ele>
        <time>2022-05-24T10:25:24Z</time>
      </trkpt>
      <trkpt lat="44.90155" lon="1.74532">
        <ele>235.4</ele>
        <time>2022-05-24T10:25:25Z</time>
      </trkpt>
      <trkpt lat="44.90155" lon="1.74531">
        <ele>235.6</ele>
        <time>2022-05-24T10:25:26Z</time>
      </trkpt>
      <trkpt lat="44.90154" lon="1.74529">
        <ele>235.9</ele>
        <time>2022-05-24T10:25:27Z</time>
      </trkpt>
      <trkpt lat="44.90154" lon="1.74526">
        <ele>236.1</ele>
        <time>2022-05-24T10:25:28Z</time>
      </trkpt>
      <trkpt lat="44.90154" lon="1.74523">
        <ele>236.4</ele>
        <time>2022-05-24T10:25:29Z</time>
      </trkpt>
      <trkpt lat="44.90153" lon="1.74522">
        <ele>236.6</ele>
        <time>2022-05-24T10:25:30Z</time>
      </trkpt>
      <trkpt lat="44.90153" lon="1.74521">
        <ele>236.7</ele>
        <time>2022-05-24T10:25:31Z</time>
      </trkpt>
      <trkpt lat="44.90152" lon="1.74519">
        <ele>236.9</ele>
        <time>2022-05-24T10:25:32Z</time>
      </trkpt>
      <trkpt lat="44.90151" lon="1.74518">
        <ele>237.1</ele>
        <time>2022-05-24T10:25:33Z</time>
      </trkpt>
      <trkpt lat="44.90151" lon="1.74517">
        <ele>237.2</ele>
        <time>2022-05-24T10:25:34Z</time>
      </trkpt>
      <trkpt lat="44.90151" lon="1.74515">
        <ele>237.4</ele>
        <time>2022-05-24T10:25:35Z</time>
      </trkpt>
      <trkpt lat="44.90151" lon="1.74514">
        <ele>237.5</ele>
        <time>2022-05-24T10:25:36Z</time>
      </trkpt>
      <trkpt lat="44.9015" lon="1.74512">
        <ele>237.7</ele>
        <time>2022-05-24T10:25:37Z</time>
      </trkpt>
      <trkpt lat="44.9015" lon="1.7451">
        <ele>237.9</ele>
        <time>2022-05-24T10:25:38Z</time>
      </trkpt>
      <trkpt lat="44.9015" lon="1.74508">
        <ele>238.1</ele>
        <time>2022-05-24T10:25:39Z</time>
      </trkpt>
      <trkpt lat="44.9015" lon="1.74506">
        <ele>238.4</ele>
        <time>2022-05-24T10:25:40Z</time>
      </trkpt>
      <trkpt lat="44.9015" lon="1.74503">
        <ele>238.6</ele>
        <time>2022-05-24T10:25:41Z</time>
      </trkpt>
      <trkpt lat="44.9015" lon="1.74501">
        <ele>238.8</ele>
        <time>2022-05-24T10:25:42Z</time>
      </trkpt>
      <trkpt lat="44.9015" lon="1.74499">
        <ele>239.1</ele>
        <time>2022-05-24T10:25:43Z</time>
      </trkpt>
      <trkpt lat="44.9015" lon="1.74497">
        <ele>239.3</ele>
        <time>2022-05-24T10:25:44Z</time>
      </trkpt>
      <trkpt lat="44.9015" lon="1.74495">
        <ele>239.5</ele>
        <time>2022-05-24T10:25:45Z</time>
      </trkpt>
      <trkpt lat="44.90149" lon="1.74493">
        <ele>239.8</ele>
        <time>2022-05-24T10:25:46Z</time>
      </trkpt>
      <trkpt lat="44.90149" lon="1.7449">
        <ele>240.1</ele>
        <time>2022-05-24T10:25:47Z</time>
      </trkpt>
      <trkpt lat="44.90149" lon="1.74488">
        <ele>240.3</ele>
        <time>2022-05-24T10:25:48Z</time>
      </trkpt>
      <trkpt lat="44.90149" lon="1.74486">
        <ele>240.5</ele>
        <time>2022-05-24T10:25:49Z</time>
      </trkpt>
      <trkpt lat="44.90149" lon="1.74484">
        <ele>240.7</ele>
        <time>2022-05-24T10:25:50Z</time>
      </trkpt>
      <trkpt lat="44.9015" lon="1.74482">
        <ele>241</ele>
        <time>2022-05-24T10:25:51Z</time>
      </trkpt>
      <trkpt lat="44.90152" lon="1.74478">
        <ele>241.5</ele>
        <time>2022-05-24T10:25:52Z</time>
      </trkpt>
      <trkpt lat="44.90153" lon="1.74476">
        <ele>241.7</ele>
        <time>2022-05-24T10:25:53Z</time>
      </trkpt>
      <trkpt lat="44.90154" lon="1.74475">
        <ele>241.9</ele>
        <time>2022-05-24T10:25:54Z</time>
      </trkpt>
      <trkpt lat="44.90156" lon="1.74474">
        <ele>242.2</ele>
        <time>2022-05-24T10:25:55Z</time>
      </trkpt>
      <trkpt lat="44.90159" lon="1.74473">
        <ele>242.6</ele>
        <time>2022-05-24T10:25:56Z</time>
      </trkpt>
      <trkpt lat="44.9016" lon="1.74473">
        <ele>242.7</ele>
        <time>2022-05-24T10:25:57Z</time>
      </trkpt>
      <trkpt lat="44.90163" lon="1.74472">
        <ele>243.3</ele>
        <time>2022-05-24T10:25:58Z</time>
      </trkpt>
      <trkpt lat="44.90165" lon="1.74472">
        <ele>243.5</ele>
        <time>2022-05-24T10:25:59Z</time>
      </trkpt>
      <trkpt lat="44.90168" lon="1.7447">
        <ele>244</ele>
        <time>2022-05-24T10:26:00Z</time>
      </trkpt>
      <trkpt lat="44.90169" lon="1.74469">
        <ele>244.2</ele>
        <time>2022-05-24T10:26:01Z</time>
      </trkpt>
      <trkpt lat="44.90172" lon="1.74467">
        <ele>244.7</ele>
        <time>2022-05-24T10:26:02Z</time>
      </trkpt>
      <trkpt lat="44.90173" lon="1.74467">
        <ele>244.9</ele>
        <time>2022-05-24T10:26:03Z</time>
      </trkpt>
      <trkpt lat="44.90174" lon="1.74466">
        <ele>245.1</ele>
        <time>2022-05-24T10:26:04Z</time>
      </trkpt>
      <trkpt lat="44.90176" lon="1.74465">
        <ele>245.3</ele>
        <time>2022-05-24T10:26:05Z</time>
      </trkpt>
      <trkpt lat="44.90177" lon="1.74464">
        <ele>245.5</ele>
        <time>2022-05-24T10:26:06Z</time>
      </trkpt>
      <trkpt lat="44.90178" lon="1.74463">
        <ele>245.8</ele>
        <time>2022-05-24T10:26:07Z</time>
      </trkpt>
      <trkpt lat="44.9018" lon="1.74461">
        <ele>246</ele>
        <time>2022-05-24T10:26:08Z</time>
      </trkpt>
      <trkpt lat="44.90181" lon="1.74459">
        <ele>246.3</ele>
        <time>2022-05-24T10:26:09Z</time>
      </trkpt>
      <trkpt lat="44.90182" lon="1.74457">
        <ele>246.5</ele>
        <time>2022-05-24T10:26:10Z</time>
      </trkpt>
      <trkpt lat="44.90182" lon="1.74456">
        <ele>246.7</ele>
        <time>2022-05-24T10:26:11Z</time>
      </trkpt>
      <trkpt lat="44.90183" lon="1.74454">
        <ele>246.9</ele>
        <time>2022-05-24T10:26:12Z</time>
      </trkpt>
      <trkpt lat="44.90183" lon="1.74451">
        <ele>247.2</ele>
        <time>2022-05-24T10:26:13Z</time>
      </trkpt>
      <trkpt lat="44.90184" lon="1.74447">
        <ele>247.6</ele>
        <time>2022-05-24T10:26:14Z</time>
      </trkpt>
      <trkpt lat="44.90184" lon="1.74446">
        <ele>247.8</ele>
        <time>2022-05-24T10:26:15Z</time>
      </trkpt>
      <trkpt lat="44.90184" lon="1.74443">
        <ele>248</ele>
        <time>2022-05-24T10:26:16Z</time>
      </trkpt>
      <trkpt lat="44.90183" lon="1.74441">
        <ele>248.3</ele>
        <time>2022-05-24T10:26:17Z</time>
      </trkpt>
      <trkpt lat="44.90183" lon="1.74439">
        <ele>248.5</ele>
        <time>2022-05-24T10:26:18Z</time>
      </trkpt>
      <trkpt lat="44.90183" lon="1.74437">
        <ele>248.7</ele>
        <time>2022-05-24T10:26:19Z</time>
      </trkpt>
      <trkpt lat="44.90183" lon="1.74433">
        <ele>249.1</ele>
        <time>2022-05-24T10:26:20Z</time>
      </trkpt>
      <trkpt lat="44.90182" lon="1.74432">
        <ele>249.2</ele>
        <time>2022-05-24T10:26:21Z</time>
      </trkpt>
      <trkpt lat="44.90182" lon="1.7443">
        <ele>249.5</ele>
        <time>2022-05-24T10:26:22Z</time>
      </trkpt>
      <trkpt lat="44.90182" lon="1.74427">
        <ele>249.7</ele>
        <time>2022-05-24T10:26:23Z</time>
      </trkpt>
      <trkpt lat="44.90182" lon="1.74425">
        <ele>250</ele>
        <time>2022-05-24T10:26:24Z</time>
      </trkpt>
      <trkpt lat="44.90182" lon="1.74423">
        <ele>250.2</ele>
        <time>2022-05-24T10:26:25Z</time>
      </trkpt>
      <trkpt lat="44.90182" lon="1.74418">
        <ele>250.7</ele>
        <time>2022-05-24T10:26:26Z</time>
      </trkpt>
      <trkpt lat="44.90182" lon="1.74417">
        <ele>250.8</ele>
        <time>2022-05-24T10:26:27Z</time>
      </trkpt>
      <trkpt lat="44.90183" lon="1.74415">
        <ele>251.1</ele>
        <time>2022-05-24T10:26:28Z</time>
      </trkpt>
      <trkpt lat="44.90183" lon="1.74413">
        <ele>251.3</ele>
        <time>2022-05-24T10:26:29Z</time>
      </trkpt>
      <trkpt lat="44.90183" lon="1.74411">
        <ele>251.4</ele>
        <time>2022-05-24T10:26:30Z</time>
      </trkpt>
      <trkpt lat="44.90182" lon="1.7441">
        <ele>251.6</ele>
        <time>2022-05-24T10:26:31Z</time>
      </trkpt>
      <trkpt lat="44.90182" lon="1.74408">
        <ele>251.8</ele>
        <time>2022-05-24T10:26:32Z</time>
      </trkpt>
      <trkpt lat="44.90182" lon="1.74406">
        <ele>252</ele>
        <time>2022-05-24T10:26:33Z</time>
      </trkpt>
      <trkpt lat="44.90181" lon="1.74404">
        <ele>252.2</ele>
        <time>2022-05-24T10:26:34Z</time>
      </trkpt>
      <trkpt lat="44.90181" lon="1.74402">
        <ele>252.4</ele>
        <time>2022-05-24T10:26:35Z</time>
      </trkpt>
      <trkpt lat="44.90181" lon="1.744">
        <ele>252.6</ele>
        <time>2022-05-24T10:26:36Z</time>
      </trkpt>
      <trkpt lat="44.90181" lon="1.74398">
        <ele>252.9</ele>
        <time>2022-05-24T10:26:37Z</time>
      </trkpt>
      <trkpt lat="44.90181" lon="1.74395">
        <ele>253.1</ele>
        <time>2022-05-24T10:26:38Z</time>
      </trkpt>
      <trkpt lat="44.90181" lon="1.74393">
        <ele>253.3</ele>
        <time>2022-05-24T10:26:39Z</time>
      </trkpt>
      <trkpt lat="44.90181" lon="1.74391">
        <ele>253.5</ele>
        <time>2022-05-24T10:26:40Z</time>
      </trkpt>
      <trkpt lat="44.9018" lon="1.7439">
        <ele>253.7</ele>
        <time>2022-05-24T10:26:41Z</time>
      </trkpt>
      <trkpt lat="44.9018" lon="1.74389">
        <ele>253.9</ele>
        <time>2022-05-24T10:26:42Z</time>
      </trkpt>
      <trkpt lat="44.9018" lon="1.74388">
        <ele>254</ele>
        <time>2022-05-24T10:26:43Z</time>
      </trkpt>
      <trkpt lat="44.90179" lon="1.74386">
        <ele>254.1</ele>
        <time>2022-05-24T10:26:44Z</time>
      </trkpt>
      <trkpt lat="44.90179" lon="1.74385">
        <ele>254.3</ele>
        <time>2022-05-24T10:26:45Z</time>
      </trkpt>
      <trkpt lat="44.90179" lon="1.74384">
        <ele>254.4</ele>
        <time>2022-05-24T10:26:46Z</time>
      </trkpt>
      <trkpt lat="44.90178" lon="1.74383">
        <ele>254.5</ele>
        <time>2022-05-24T10:26:47Z</time>
      </trkpt>
      <trkpt lat="44.90178" lon="1.74381">
        <ele>254.7</ele>
        <time>2022-05-24T10:26:48Z</time>
      </trkpt>
      <trkpt lat="44.90177" lon="1.74381">
        <ele>254.8</ele>
        <time>2022-05-24T10:26:49Z</time>
      </trkpt>
      <trkpt lat="44.90177" lon="1.7438">
        <ele>254.9</ele>
        <time>2022-05-24T10:26:50Z</time>
      </trkpt>
      <trkpt lat="44.90175" lon="1.74378">
        <ele>255.1</ele>
        <time>2022-05-24T10:26:51Z</time>
      </trkpt>
      <trkpt lat="44.90175" lon="1.74378">
        <ele>255.3</ele>
        <time>2022-05-24T10:26:52Z</time>
      </trkpt>
      <trkpt lat="44.90174" lon="1.74377">
        <ele>255.4</ele>
        <time>2022-05-24T10:26:53Z</time>
      </trkpt>
      <trkpt lat="44.90173" lon="1.74377">
        <ele>255.5</ele>
        <time>2022-05-24T10:26:54Z</time>
      </trkpt>
      <trkpt lat="44.90172" lon="1.74376">
        <ele>255.7</ele>
        <time>2022-05-24T10:26:55Z</time>
      </trkpt>
      <trkpt lat="44.90171" lon="1.74375">
        <ele>256</ele>
        <time>2022-05-24T10:26:56Z</time>
      </trkpt>
      <trkpt lat="44.90169" lon="1.74374">
        <ele>256.2</ele>
        <time>2022-05-24T10:26:57Z</time>
      </trkpt>
      <trkpt lat="44.90168" lon="1.74373">
        <ele>256.4</ele>
        <time>2022-05-24T10:26:58Z</time>
      </trkpt>
      <trkpt lat="44.90168" lon="1.74372">
        <ele>256.5</ele>
        <time>2022-05-24T10:26:59Z</time>
      </trkpt>
      <trkpt lat="44.90168" lon="1.74372">
        <ele>256.5</ele>
        <time>2022-05-24T10:27:00Z</time>
      </trkpt>
      <trkpt lat="44.90167" lon="1.74372">
        <ele>256.5</ele>
        <time>2022-05-24T10:27:01Z</time>
      </trkpt>
      <trkpt lat="44.90167" lon="1.74371">
        <ele>256.6</ele>
        <time>2022-05-24T10:27:02Z</time>
      </trkpt>
      <trkpt lat="44.90167" lon="1.74371">
        <ele>256.6</ele>
        <time>2022-05-24T10:27:03Z</time>
      </trkpt>
      <trkpt lat="44.90167" lon="1.74371">
        <ele>256.7</ele>
        <time>2022-05-24T10:27:04Z</time>
      </trkpt>
      <trkpt lat="44.90167" lon="1.7437">
        <ele>256.7</ele>
        <time>2022-05-24T10:27:05Z</time>
      </trkpt>
      <trkpt lat="44.90167" lon="1.7437">
        <ele>256.7</ele>
        <time>2022-05-24T10:27:06Z</time>
      </trkpt>
      <trkpt lat="44.90166" lon="1.7437">
        <ele>256.8</ele>
        <time>2022-05-24T10:27:07Z</time>
      </trkpt>
      <trkpt lat="44.90166" lon="1.7437">
        <ele>256.8</ele>
        <time>2022-05-24T10:27:08Z</time>
      </trkpt>
      <trkpt lat="44.90166" lon="1.74369">
        <ele>256.8</ele>
        <time>2022-05-24T10:27:09Z</time>
      </trkpt>
      <trkpt lat="44.90166" lon="1.74369">
        <ele>256.9</ele>
        <time>2022-05-24T10:27:10Z</time>
      </trkpt>
      <trkpt lat="44.90166" lon="1.74369">
        <ele>256.9</ele>
        <time>2022-05-24T10:27:11Z</time>
      </trkpt>
      <trkpt lat="44.90166" lon="1.74368">
        <ele>257</ele>
        <time>2022-05-24T10:27:12Z</time>
      </trkpt>
      <trkpt lat="44.90166" lon="1.74368">
        <ele>257</ele>
        <time>2022-05-24T10:27:13Z</time>
      </trkpt>
      <trkpt lat="44.90165" lon="1.74368">
        <ele>257</ele>
        <time>2022-05-24T10:27:14Z</time>
      </trkpt>
      <trkpt lat="44.90165" lon="1.74368">
        <ele>257.1</ele>
        <time>2022-05-24T10:27:15Z</time>
      </trkpt>
      <trkpt lat="44.90165" lon="1.74367">
        <ele>257.1</ele>
        <time>2022-05-24T10:27:16Z</time>
      </trkpt>
      <trkpt lat="44.90165" lon="1.74367">
        <ele>257.1</ele>
        <time>2022-05-24T10:27:17Z</time>
      </trkpt>
      <trkpt lat="44.90165" lon="1.74367">
        <ele>257.2</ele>
        <time>2022-05-24T10:27:18Z</time>
      </trkpt>
      <trkpt lat="44.90165" lon="1.74366">
        <ele>257.2</ele>
        <time>2022-05-24T10:27:19Z</time>
      </trkpt>
      <trkpt lat="44.90164" lon="1.74366">
        <ele>257.3</ele>
        <time>2022-05-24T10:27:20Z</time>
      </trkpt>
      <trkpt lat="44.90164" lon="1.74366">
        <ele>257.3</ele>
        <time>2022-05-24T10:27:25Z</time>
      </trkpt>
      <trkpt lat="44.90164" lon="1.74366">
        <ele>257.3</ele>
        <time>2022-05-24T10:27:26Z</time>
      </trkpt>
      <trkpt lat="44.90164" lon="1.74365">
        <ele>257.4</ele>
        <time>2022-05-24T10:27:27Z</time>
      </trkpt>
      <trkpt lat="44.90164" lon="1.74365">
        <ele>257.4</ele>
        <time>2022-05-24T10:27:28Z</time>
      </trkpt>
      <trkpt lat="44.90164" lon="1.74365">
        <ele>257.5</ele>
        <time>2022-05-24T10:27:29Z</time>
      </trkpt>
      <trkpt lat="44.90163" lon="1.74364">
        <ele>257.6</ele>
        <time>2022-05-24T10:27:30Z</time>
      </trkpt>
      <trkpt lat="44.90162" lon="1.74362">
        <ele>257.9</ele>
        <time>2022-05-24T10:27:31Z</time>
      </trkpt>
      <trkpt lat="44.9016" lon="1.74361">
        <ele>258.1</ele>
        <time>2022-05-24T10:27:32Z</time>
      </trkpt>
      <trkpt lat="44.90159" lon="1.7436">
        <ele>258.3</ele>
        <time>2022-05-24T10:27:33Z</time>
      </trkpt>
      <trkpt lat="44.90158" lon="1.7436">
        <ele>258.5</ele>
        <time>2022-05-24T10:27:34Z</time>
      </trkpt>
      <trkpt lat="44.90156" lon="1.74359">
        <ele>258.7</ele>
        <time>2022-05-24T10:27:35Z</time>
      </trkpt>
      <trkpt lat="44.90155" lon="1.74359">
        <ele>258.9</ele>
        <time>2022-05-24T10:27:36Z</time>
      </trkpt>
      <trkpt lat="44.90153" lon="1.74358">
        <ele>259.2</ele>
        <time>2022-05-24T10:27:37Z</time>
      </trkpt>
      <trkpt lat="44.90151" lon="1.74358">
        <ele>259.6</ele>
        <time>2022-05-24T10:27:38Z</time>
      </trkpt>
      <trkpt lat="44.9015" lon="1.74358">
        <ele>259.7</ele>
        <time>2022-05-24T10:27:39Z</time>
      </trkpt>
      <trkpt lat="44.90148" lon="1.74357">
        <ele>260</ele>
        <time>2022-05-24T10:27:40Z</time>
      </trkpt>
      <trkpt lat="44.90146" lon="1.74357">
        <ele>260.2</ele>
        <time>2022-05-24T10:27:41Z</time>
      </trkpt>
      <trkpt lat="44.90145" lon="1.74357">
        <ele>260.4</ele>
        <time>2022-05-24T10:27:42Z</time>
      </trkpt>
      <trkpt lat="44.90144" lon="1.74357">
        <ele>260.6</ele>
        <time>2022-05-24T10:27:43Z</time>
      </trkpt>
      <trkpt lat="44.90141" lon="1.74356">
        <ele>260.9</ele>
        <time>2022-05-24T10:27:44Z</time>
      </trkpt>
      <trkpt lat="44.90141" lon="1.74356">
        <ele>261.1</ele>
        <time>2022-05-24T10:27:45Z</time>
      </trkpt>
      <trkpt lat="44.9014" lon="1.74355">
        <ele>261.2</ele>
        <time>2022-05-24T10:27:46Z</time>
      </trkpt>
      <trkpt lat="44.90139" lon="1.74355">
        <ele>261.4</ele>
        <time>2022-05-24T10:27:47Z</time>
      </trkpt>
      <trkpt lat="44.90138" lon="1.74354">
        <ele>261.5</ele>
        <time>2022-05-24T10:27:48Z</time>
      </trkpt>
      <trkpt lat="44.90137" lon="1.74353">
        <ele>261.7</ele>
        <time>2022-05-24T10:27:49Z</time>
      </trkpt>
      <trkpt lat="44.90136" lon="1.74353">
        <ele>261.8</ele>
        <time>2022-05-24T10:27:50Z</time>
      </trkpt>
      <trkpt lat="44.90135" lon="1.74353">
        <ele>261.9</ele>
        <time>2022-05-24T10:27:51Z</time>
      </trkpt>
      <trkpt lat="44.90135" lon="1.74353">
        <ele>262</ele>
        <time>2022-05-24T10:27:52Z</time>
      </trkpt>
      <trkpt lat="44.90134" lon="1.74352">
        <ele>262.1</ele>
        <time>2022-05-24T10:27:53Z</time>
      </trkpt>
      <trkpt lat="44.90134" lon="1.74351">
        <ele>262.2</ele>
        <time>2022-05-24T10:27:54Z</time>
      </trkpt>
      <trkpt lat="44.90133" lon="1.74351">
        <ele>262.3</ele>
        <time>2022-05-24T10:27:55Z</time>
      </trkpt>
      <trkpt lat="44.90133" lon="1.7435">
        <ele>262.4</ele>
        <time>2022-05-24T10:27:56Z</time>
      </trkpt>
      <trkpt lat="44.90132" lon="1.7435">
        <ele>262.5</ele>
        <time>2022-05-24T10:27:57Z</time>
      </trkpt>
      <trkpt lat="44.90132" lon="1.74349">
        <ele>262.6</ele>
        <time>2022-05-24T10:27:58Z</time>
      </trkpt>
      <trkpt lat="44.90131" lon="1.74349">
        <ele>262.7</ele>
        <time>2022-05-24T10:27:59Z</time>
      </trkpt>
      <trkpt lat="44.9013" lon="1.74348">
        <ele>262.8</ele>
        <time>2022-05-24T10:28:00Z</time>
      </trkpt>
      <trkpt lat="44.9013" lon="1.74347">
        <ele>263</ele>
        <time>2022-05-24T10:28:01Z</time>
      </trkpt>
      <trkpt lat="44.90129" lon="1.74347">
        <ele>263.1</ele>
        <time>2022-05-24T10:28:02Z</time>
      </trkpt>
      <trkpt lat="44.90128" lon="1.74346">
        <ele>263.2</ele>
        <time>2022-05-24T10:28:03Z</time>
      </trkpt>
      <trkpt lat="44.90128" lon="1.74345">
        <ele>263.3</ele>
        <time>2022-05-24T10:28:04Z</time>
      </trkpt>
      <trkpt lat="44.90127" lon="1.74345">
        <ele>263.4</ele>
        <time>2022-05-24T10:28:05Z</time>
      </trkpt>
      <trkpt lat="44.90126" lon="1.74344">
        <ele>263.5</ele>
        <time>2022-05-24T10:28:06Z</time>
      </trkpt>
      <trkpt lat="44.90126" lon="1.74343">
        <ele>263.6</ele>
        <time>2022-05-24T10:28:07Z</time>
      </trkpt>
      <trkpt lat="44.90125" lon="1.74343">
        <ele>263.7</ele>
        <time>2022-05-24T10:28:08Z</time>
      </trkpt>
      <trkpt lat="44.90125" lon="1.74342">
        <ele>263.8</ele>
        <time>2022-05-24T10:28:09Z</time>
      </trkpt>
      <trkpt lat="44.90125" lon="1.74342">
        <ele>263.9</ele>
        <time>2022-05-24T10:28:10Z</time>
      </trkpt>
      <trkpt lat="44.90124" lon="1.74342">
        <ele>263.9</ele>
        <time>2022-05-24T10:28:11Z</time>
      </trkpt>
      <trkpt lat="44.90124" lon="1.74343">
        <ele>264</ele>
        <time>2022-05-24T10:28:12Z</time>
      </trkpt>
      <trkpt lat="44.90124" lon="1.74343">
        <ele>264</ele>
        <time>2022-05-24T10:28:13Z</time>
      </trkpt>
      <trkpt lat="44.90124" lon="1.74343">
        <ele>264</ele>
        <time>2022-05-24T10:28:14Z</time>
      </trkpt>
      <trkpt lat="44.90124" lon="1.74344">
        <ele>264.1</ele>
        <time>2022-05-24T10:28:15Z</time>
      </trkpt>
      <trkpt lat="44.90124" lon="1.74343">
        <ele>264.1</ele>
        <time>2022-05-24T10:28:16Z</time>
      </trkpt>
      <trkpt lat="44.90122" lon="1.74341">
        <ele>264.4</ele>
        <time>2022-05-24T10:28:17Z</time>
      </trkpt>
      <trkpt lat="44.90122" lon="1.7434">
        <ele>264.6</ele>
        <time>2022-05-24T10:28:18Z</time>
      </trkpt>
      <trkpt lat="44.90121" lon="1.74339">
        <ele>264.7</ele>
        <time>2022-05-24T10:28:19Z</time>
      </trkpt>
      <trkpt lat="44.9012" lon="1.74336">
        <ele>265</ele>
        <time>2022-05-24T10:28:20Z</time>
      </trkpt>
      <trkpt lat="44.90119" lon="1.74334">
        <ele>265.3</ele>
        <time>2022-05-24T10:28:21Z</time>
      </trkpt>
      <trkpt lat="44.90118" lon="1.74332">
        <ele>265.5</ele>
        <time>2022-05-24T10:28:22Z</time>
      </trkpt>
      <trkpt lat="44.90117" lon="1.7433">
        <ele>265.8</ele>
        <time>2022-05-24T10:28:23Z</time>
      </trkpt>
      <trkpt lat="44.90116" lon="1.74328">
        <ele>266</ele>
        <time>2022-05-24T10:28:24Z</time>
      </trkpt>
      <trkpt lat="44.90115" lon="1.74327">
        <ele>266.3</ele>
        <time>2022-05-24T10:28:25Z</time>
      </trkpt>
      <trkpt lat="44.90114" lon="1.74325">
        <ele>266.5</ele>
        <time>2022-05-24T10:28:26Z</time>
      </trkpt>
      <trkpt lat="44.90113" lon="1.74324">
        <ele>266.7</ele>
        <time>2022-05-24T10:28:27Z</time>
      </trkpt>
      <trkpt lat="44.90112" lon="1.74322">
        <ele>266.9</ele>
        <time>2022-05-24T10:28:28Z</time>
      </trkpt>
      <trkpt lat="44.90111" lon="1.74321">
        <ele>267.1</ele>
        <time>2022-05-24T10:28:29Z</time>
      </trkpt>
      <trkpt lat="44.90111" lon="1.74319">
        <ele>267.3</ele>
        <time>2022-05-24T10:28:30Z</time>
      </trkpt>
      <trkpt lat="44.90108" lon="1.74316">
        <ele>267.7</ele>
        <time>2022-05-24T10:28:34Z</time>
      </trkpt>
      <trkpt lat="44.90106" lon="1.74309">
        <ele>267.3</ele>
        <time>2022-05-24T10:28:36Z</time>
      </trkpt>
      <trkpt lat="44.90106" lon="1.74305">
        <ele>267</ele>
        <time>2022-05-24T10:28:37Z</time>
      </trkpt>
      <trkpt lat="44.90108" lon="1.743">
        <ele>266.6</ele>
        <time>2022-05-24T10:28:38Z</time>
      </trkpt>
      <trkpt lat="44.9011" lon="1.74295">
        <ele>266.2</ele>
        <time>2022-05-24T10:28:39Z</time>
      </trkpt>
      <trkpt lat="44.9011" lon="1.74286">
        <ele>265.5</ele>
        <time>2022-05-24T10:28:40Z</time>
      </trkpt>
      <trkpt lat="44.90109" lon="1.74279">
        <ele>265</ele>
        <time>2022-05-24T10:28:41Z</time>
      </trkpt>
      <trkpt lat="44.90109" lon="1.74269">
        <ele>264.3</ele>
        <time>2022-05-24T10:28:42Z</time>
      </trkpt>
      <trkpt lat="44.90108" lon="1.74261">
        <ele>263.7</ele>
        <time>2022-05-24T10:28:43Z</time>
      </trkpt>
      <trkpt lat="44.90108" lon="1.74252">
        <ele>263.2</ele>
        <time>2022-05-24T10:28:44Z</time>
      </trkpt>
      <trkpt lat="44.90108" lon="1.74243">
        <ele>262.6</ele>
        <time>2022-05-24T10:28:45Z</time>
      </trkpt>
      <trkpt lat="44.9011" lon="1.74233">
        <ele>262.1</ele>
        <time>2022-05-24T10:28:46Z</time>
      </trkpt>
      <trkpt lat="44.90113" lon="1.74223">
        <ele>261.5</ele>
        <time>2022-05-24T10:28:47Z</time>
      </trkpt>
      <trkpt lat="44.90116" lon="1.74214">
        <ele>261</ele>
        <time>2022-05-24T10:28:48Z</time>
      </trkpt>
      <trkpt lat="44.90121" lon="1.74205">
        <ele>260.5</ele>
        <time>2022-05-24T10:28:49Z</time>
      </trkpt>
      <trkpt lat="44.90127" lon="1.74195">
        <ele>259.9</ele>
        <time>2022-05-24T10:28:50Z</time>
      </trkpt>
      <trkpt lat="44.90133" lon="1.74187">
        <ele>259.2</ele>
        <time>2022-05-24T10:28:51Z</time>
      </trkpt>
      <trkpt lat="44.90139" lon="1.74179">
        <ele>258.6</ele>
        <time>2022-05-24T10:28:52Z</time>
      </trkpt>
      <trkpt lat="44.90144" lon="1.74173">
        <ele>257.9</ele>
        <time>2022-05-24T10:28:53Z</time>
      </trkpt>
      <trkpt lat="44.90149" lon="1.74165">
        <ele>257.2</ele>
        <time>2022-05-24T10:28:54Z</time>
      </trkpt>
      <trkpt lat="44.90153" lon="1.74155">
        <ele>256.4</ele>
        <time>2022-05-24T10:28:55Z</time>
      </trkpt>
      <trkpt lat="44.90158" lon="1.74144">
        <ele>255.6</ele>
        <time>2022-05-24T10:28:56Z</time>
      </trkpt>
      <trkpt lat="44.9016" lon="1.74133">
        <ele>254.8</ele>
        <time>2022-05-24T10:28:57Z</time>
      </trkpt>
      <trkpt lat="44.90161" lon="1.74122">
        <ele>254.1</ele>
        <time>2022-05-24T10:28:58Z</time>
      </trkpt>
      <trkpt lat="44.9016" lon="1.74109">
        <ele>253.3</ele>
        <time>2022-05-24T10:28:59Z</time>
      </trkpt>
      <trkpt lat="44.90158" lon="1.74098">
        <ele>252.5</ele>
        <time>2022-05-24T10:29:00Z</time>
      </trkpt>
      <trkpt lat="44.90155" lon="1.74085">
        <ele>251.8</ele>
        <time>2022-05-24T10:29:01Z</time>
      </trkpt>
      <trkpt lat="44.90151" lon="1.74073">
        <ele>251.2</ele>
        <time>2022-05-24T10:29:02Z</time>
      </trkpt>
      <trkpt lat="44.90149" lon="1.74058">
        <ele>250.6</ele>
        <time>2022-05-24T10:29:03Z</time>
      </trkpt>
      <trkpt lat="44.90143" lon="1.74047">
        <ele>250</ele>
        <time>2022-05-24T10:29:04Z</time>
      </trkpt>
      <trkpt lat="44.90138" lon="1.74036">
        <ele>249.4</ele>
        <time>2022-05-24T10:29:05Z</time>
      </trkpt>
      <trkpt lat="44.90134" lon="1.74024">
        <ele>248.8</ele>
        <time>2022-05-24T10:29:06Z</time>
      </trkpt>
      <trkpt lat="44.90131" lon="1.74011">
        <ele>248.1</ele>
        <time>2022-05-24T10:29:07Z</time>
      </trkpt>
      <trkpt lat="44.90128" lon="1.73996">
        <ele>247.3</ele>
        <time>2022-05-24T10:29:08Z</time>
      </trkpt>
      <trkpt lat="44.90127" lon="1.73981">
        <ele>246.6</ele>
        <time>2022-05-24T10:29:09Z</time>
      </trkpt>
      <trkpt lat="44.90128" lon="1.73966">
        <ele>245.9</ele>
        <time>2022-05-24T10:29:10Z</time>
      </trkpt>
      <trkpt lat="44.90131" lon="1.73952">
        <ele>245.1</ele>
        <time>2022-05-24T10:29:11Z</time>
      </trkpt>
      <trkpt lat="44.90133" lon="1.73939">
        <ele>244.4</ele>
        <time>2022-05-24T10:29:12Z</time>
      </trkpt>
      <trkpt lat="44.90138" lon="1.73926">
        <ele>243.7</ele>
        <time>2022-05-24T10:29:13Z</time>
      </trkpt>
      <trkpt lat="44.90142" lon="1.73916">
        <ele>243.1</ele>
        <time>2022-05-24T10:29:14Z</time>
      </trkpt>
      <trkpt lat="44.90148" lon="1.73904">
        <ele>242.4</ele>
        <time>2022-05-24T10:29:15Z</time>
      </trkpt>
      <trkpt lat="44.90155" lon="1.73891">
        <ele>241.7</ele>
        <time>2022-05-24T10:29:16Z</time>
      </trkpt>
      <trkpt lat="44.90162" lon="1.73878">
        <ele>241</ele>
        <time>2022-05-24T10:29:17Z</time>
      </trkpt>
      <trkpt lat="44.9017" lon="1.73866">
        <ele>240.2</ele>
        <time>2022-05-24T10:29:18Z</time>
      </trkpt>
      <trkpt lat="44.90178" lon="1.73855">
        <ele>239.5</ele>
        <time>2022-05-24T10:29:19Z</time>
      </trkpt>
      <trkpt lat="44.90186" lon="1.73847">
        <ele>238.9</ele>
        <time>2022-05-24T10:29:20Z</time>
      </trkpt>
      <trkpt lat="44.90194" lon="1.73839">
        <ele>238.3</ele>
        <time>2022-05-24T10:29:21Z</time>
      </trkpt>
      <trkpt lat="44.90201" lon="1.73831">
        <ele>237.7</ele>
        <time>2022-05-24T10:29:22Z</time>
      </trkpt>
      <trkpt lat="44.9021" lon="1.73821">
        <ele>236.9</ele>
        <time>2022-05-24T10:29:23Z</time>
      </trkpt>
      <trkpt lat="44.90219" lon="1.73812">
        <ele>236</ele>
        <time>2022-05-24T10:29:24Z</time>
      </trkpt>
      <trkpt lat="44.90227" lon="1.73802">
        <ele>235.1</ele>
        <time>2022-05-24T10:29:25Z</time>
      </trkpt>
      <trkpt lat="44.90235" lon="1.7379">
        <ele>234.5</ele>
        <time>2022-05-24T10:29:26Z</time>
      </trkpt>
      <trkpt lat="44.90242" lon="1.73779">
        <ele>233.6</ele>
        <time>2022-05-24T10:29:27Z</time>
      </trkpt>
      <trkpt lat="44.90249" lon="1.73767">
        <ele>232.5</ele>
        <time>2022-05-24T10:29:28Z</time>
      </trkpt>
      <trkpt lat="44.90254" lon="1.73754">
        <ele>231.5</ele>
        <time>2022-05-24T10:29:29Z</time>
      </trkpt>
      <trkpt lat="44.90261" lon="1.73743">
        <ele>230.5</ele>
        <time>2022-05-24T10:29:30Z</time>
      </trkpt>
      <trkpt lat="44.90268" lon="1.73734">
        <ele>229.4</ele>
        <time>2022-05-24T10:29:31Z</time>
      </trkpt>
      <trkpt lat="44.90276" lon="1.73728">
        <ele>228.7</ele>
        <time>2022-05-24T10:29:32Z</time>
      </trkpt>
      <trkpt lat="44.90286" lon="1.73722">
        <ele>228</ele>
        <time>2022-05-24T10:29:33Z</time>
      </trkpt>
      <trkpt lat="44.90295" lon="1.73718">
        <ele>227.3</ele>
        <time>2022-05-24T10:29:34Z</time>
      </trkpt>
      <trkpt lat="44.90305" lon="1.73715">
        <ele>226.6</ele>
        <time>2022-05-24T10:29:35Z</time>
      </trkpt>
      <trkpt lat="44.90315" lon="1.73713">
        <ele>225.9</ele>
        <time>2022-05-24T10:29:36Z</time>
      </trkpt>
      <trkpt lat="44.90325" lon="1.73712">
        <ele>225.1</ele>
        <time>2022-05-24T10:29:37Z</time>
      </trkpt>
      <trkpt lat="44.90335" lon="1.7371">
        <ele>224.2</ele>
        <time>2022-05-24T10:29:38Z</time>
      </trkpt>
      <trkpt lat="44.90346" lon="1.73707">
        <ele>223.3</ele>
        <time>2022-05-24T10:29:39Z</time>
      </trkpt>
      <trkpt lat="44.90357" lon="1.73705">
        <ele>222.4</ele>
        <time>2022-05-24T10:29:40Z</time>
      </trkpt>
      <trkpt lat="44.90367" lon="1.73704">
        <ele>221.5</ele>
        <time>2022-05-24T10:29:41Z</time>
      </trkpt>
      <trkpt lat="44.90378" lon="1.737">
        <ele>220.6</ele>
        <time>2022-05-24T10:29:42Z</time>
      </trkpt>
      <trkpt lat="44.90387" lon="1.73696">
        <ele>219.8</ele>
        <time>2022-05-24T10:29:43Z</time>
      </trkpt>
      <trkpt lat="44.90396" lon="1.73693">
        <ele>219.1</ele>
        <time>2022-05-24T10:29:44Z</time>
      </trkpt>
      <trkpt lat="44.90404" lon="1.7369">
        <ele>218.4</ele>
        <time>2022-05-24T10:29:45Z</time>
      </trkpt>
      <trkpt lat="44.90411" lon="1.73687">
        <ele>217.8</ele>
        <time>2022-05-24T10:29:46Z</time>
      </trkpt>
      <trkpt lat="44.90418" lon="1.73686">
        <ele>217.2</ele>
        <time>2022-05-24T10:29:47Z</time>
      </trkpt>
      <trkpt lat="44.90424" lon="1.73685">
        <ele>216.7</ele>
        <time>2022-05-24T10:29:48Z</time>
      </trkpt>
      <trkpt lat="44.9043" lon="1.73686">
        <ele>216.2</ele>
        <time>2022-05-24T10:29:49Z</time>
      </trkpt>
      <trkpt lat="44.90437" lon="1.73687">
        <ele>215.5</ele>
        <time>2022-05-24T10:29:50Z</time>
      </trkpt>
      <trkpt lat="44.90446" lon="1.73688">
        <ele>214.7</ele>
        <time>2022-05-24T10:29:51Z</time>
      </trkpt>
      <trkpt lat="44.90454" lon="1.73686">
        <ele>213.9</ele>
        <time>2022-05-24T10:29:52Z</time>
      </trkpt>
      <trkpt lat="44.90462" lon="1.73683">
        <ele>213.2</ele>
        <time>2022-05-24T10:29:53Z</time>
      </trkpt>
      <trkpt lat="44.9047" lon="1.7368">
        <ele>212.6</ele>
        <time>2022-05-24T10:29:54Z</time>
      </trkpt>
      <trkpt lat="44.90478" lon="1.73681">
        <ele>212</ele>
        <time>2022-05-24T10:29:55Z</time>
      </trkpt>
      <trkpt lat="44.90486" lon="1.73685">
        <ele>211.4</ele>
        <time>2022-05-24T10:29:56Z</time>
      </trkpt>
      <trkpt lat="44.90493" lon="1.73691">
        <ele>210.7</ele>
        <time>2022-05-24T10:29:57Z</time>
      </trkpt>
      <trkpt lat="44.90498" lon="1.73696">
        <ele>210.1</ele>
        <time>2022-05-24T10:29:58Z</time>
      </trkpt>
      <trkpt lat="44.90503" lon="1.737">
        <ele>209.5</ele>
        <time>2022-05-24T10:29:59Z</time>
      </trkpt>
      <trkpt lat="44.90507" lon="1.73703">
        <ele>208.9</ele>
        <time>2022-05-24T10:30:00Z</time>
      </trkpt>
      <trkpt lat="44.90509" lon="1.73708">
        <ele>208.5</ele>
        <time>2022-05-24T10:30:01Z</time>
      </trkpt>
      <trkpt lat="44.90512" lon="1.73714">
        <ele>207.8</ele>
        <time>2022-05-24T10:30:02Z</time>
      </trkpt>
      <trkpt lat="44.90517" lon="1.73721">
        <ele>206.7</ele>
        <time>2022-05-24T10:30:03Z</time>
      </trkpt>
      <trkpt lat="44.90524" lon="1.73726">
        <ele>205.6</ele>
        <time>2022-05-24T10:30:04Z</time>
      </trkpt>
      <trkpt lat="44.90532" lon="1.73728">
        <ele>204.5</ele>
        <time>2022-05-24T10:30:05Z</time>
      </trkpt>
      <trkpt lat="44.90539" lon="1.73727">
        <ele>203.6</ele>
        <time>2022-05-24T10:30:06Z</time>
      </trkpt>
      <trkpt lat="44.90546" lon="1.73724">
        <ele>202.9</ele>
        <time>2022-05-24T10:30:07Z</time>
      </trkpt>
      <trkpt lat="44.90552" lon="1.73721">
        <ele>202.3</ele>
        <time>2022-05-24T10:30:08Z</time>
      </trkpt>
      <trkpt lat="44.90559" lon="1.73717">
        <ele>201.8</ele>
        <time>2022-05-24T10:30:09Z</time>
      </trkpt>
      <trkpt lat="44.90567" lon="1.73714">
        <ele>201.3</ele>
        <time>2022-05-24T10:30:10Z</time>
      </trkpt>
      <trkpt lat="44.90573" lon="1.7371">
        <ele>200.9</ele>
        <time>2022-05-24T10:30:11Z</time>
      </trkpt>
      <trkpt lat="44.9058" lon="1.73705">
        <ele>200.6</ele>
        <time>2022-05-24T10:30:12Z</time>
      </trkpt>
      <trkpt lat="44.90586" lon="1.73702">
        <ele>200.4</ele>
        <time>2022-05-24T10:30:13Z</time>
      </trkpt>
      <trkpt lat="44.90592" lon="1.73698">
        <ele>200.4</ele>
        <time>2022-05-24T10:30:14Z</time>
      </trkpt>
      <trkpt lat="44.90598" lon="1.73694">
        <ele>200.4</ele>
        <time>2022-05-24T10:30:15Z</time>
      </trkpt>
      <trkpt lat="44.90603" lon="1.7369">
        <ele>200.6</ele>
        <time>2022-05-24T10:30:16Z</time>
      </trkpt>
      <trkpt lat="44.9061" lon="1.73688">
        <ele>200.7</ele>
        <time>2022-05-24T10:30:17Z</time>
      </trkpt>
      <trkpt lat="44.90613" lon="1.7369">
        <ele>200.8</ele>
        <time>2022-05-24T10:30:18Z</time>
      </trkpt>
      <trkpt lat="44.90616" lon="1.73692">
        <ele>200.8</ele>
        <time>2022-05-24T10:30:19Z</time>
      </trkpt>
      <trkpt lat="44.90621" lon="1.73692">
        <ele>200.7</ele>
        <time>2022-05-24T10:30:20Z</time>
      </trkpt>
      <trkpt lat="44.90623" lon="1.73691">
        <ele>200.7</ele>
        <time>2022-05-24T10:30:21Z</time>
      </trkpt>
      <trkpt lat="44.90627" lon="1.7369">
        <ele>200.5</ele>
        <time>2022-05-24T10:30:22Z</time>
      </trkpt>
      <trkpt lat="44.90631" lon="1.73689">
        <ele>200.3</ele>
        <time>2022-05-24T10:30:23Z</time>
      </trkpt>
      <trkpt lat="44.90637" lon="1.7369">
        <ele>199.8</ele>
        <time>2022-05-24T10:30:24Z</time>
      </trkpt>
      <trkpt lat="44.90643" lon="1.73692">
        <ele>199.2</ele>
        <time>2022-05-24T10:30:25Z</time>
      </trkpt>
      <trkpt lat="44.90651" lon="1.73695">
        <ele>198.4</ele>
        <time>2022-05-24T10:30:26Z</time>
      </trkpt>
      <trkpt lat="44.90659" lon="1.73694">
        <ele>197.3</ele>
        <time>2022-05-24T10:30:27Z</time>
      </trkpt>
      <trkpt lat="44.90667" lon="1.73696">
        <ele>196.2</ele>
        <time>2022-05-24T10:30:28Z</time>
      </trkpt>
      <trkpt lat="44.90676" lon="1.73698">
        <ele>195</ele>
        <time>2022-05-24T10:30:29Z</time>
      </trkpt>
      <trkpt lat="44.90687" lon="1.73702">
        <ele>193.6</ele>
        <time>2022-05-24T10:30:30Z</time>
      </trkpt>
      <trkpt lat="44.90698" lon="1.73706">
        <ele>192.6</ele>
        <time>2022-05-24T10:30:31Z</time>
      </trkpt>
      <trkpt lat="44.90708" lon="1.73708">
        <ele>192</ele>
        <time>2022-05-24T10:30:32Z</time>
      </trkpt>
      <trkpt lat="44.90716" lon="1.73707">
        <ele>191.6</ele>
        <time>2022-05-24T10:30:33Z</time>
      </trkpt>
      <trkpt lat="44.90725" lon="1.73708">
        <ele>191.2</ele>
        <time>2022-05-24T10:30:34Z</time>
      </trkpt>
      <trkpt lat="44.90733" lon="1.73708">
        <ele>190.8</ele>
        <time>2022-05-24T10:30:35Z</time>
      </trkpt>
      <trkpt lat="44.9074" lon="1.73708">
        <ele>190.3</ele>
        <time>2022-05-24T10:30:36Z</time>
      </trkpt>
      <trkpt lat="44.90748" lon="1.73708">
        <ele>189.6</ele>
        <time>2022-05-24T10:30:37Z</time>
      </trkpt>
      <trkpt lat="44.90754" lon="1.73709">
        <ele>189</ele>
        <time>2022-05-24T10:30:38Z</time>
      </trkpt>
      <trkpt lat="44.90761" lon="1.73709">
        <ele>188.3</ele>
        <time>2022-05-24T10:30:39Z</time>
      </trkpt>
      <trkpt lat="44.90767" lon="1.73706">
        <ele>187.5</ele>
        <time>2022-05-24T10:30:40Z</time>
      </trkpt>
      <trkpt lat="44.90773" lon="1.73703">
        <ele>186.6</ele>
        <time>2022-05-24T10:30:41Z</time>
      </trkpt>
      <trkpt lat="44.90779" lon="1.73702">
        <ele>185.8</ele>
        <time>2022-05-24T10:30:42Z</time>
      </trkpt>
      <trkpt lat="44.90784" lon="1.73701">
        <ele>185</ele>
        <time>2022-05-24T10:30:43Z</time>
      </trkpt>
      <trkpt lat="44.90789" lon="1.737">
        <ele>184.2</ele>
        <time>2022-05-24T10:30:44Z</time>
      </trkpt>
      <trkpt lat="44.90793" lon="1.73696">
        <ele>183.4</ele>
        <time>2022-05-24T10:30:45Z</time>
      </trkpt>
      <trkpt lat="44.90798" lon="1.73692">
        <ele>182.5</ele>
        <time>2022-05-24T10:30:46Z</time>
      </trkpt>
      <trkpt lat="44.90803" lon="1.73689">
        <ele>181.5</ele>
        <time>2022-05-24T10:30:47Z</time>
      </trkpt>
      <trkpt lat="44.90809" lon="1.73687">
        <ele>180.2</ele>
        <time>2022-05-24T10:30:48Z</time>
      </trkpt>
      <trkpt lat="44.90815" lon="1.73688">
        <ele>178.9</ele>
        <time>2022-05-24T10:30:49Z</time>
      </trkpt>
      <trkpt lat="44.90821" lon="1.73692">
        <ele>177.4</ele>
        <time>2022-05-24T10:30:50Z</time>
      </trkpt>
      <trkpt lat="44.90825" lon="1.73693">
        <ele>176.3</ele>
        <time>2022-05-24T10:30:51Z</time>
      </trkpt>
      <trkpt lat="44.9083" lon="1.73696">
        <ele>175</ele>
        <time>2022-05-24T10:30:52Z</time>
      </trkpt>
      <trkpt lat="44.90836" lon="1.737">
        <ele>173.5</ele>
        <time>2022-05-24T10:30:53Z</time>
      </trkpt>
      <trkpt lat="44.90842" lon="1.73703">
        <ele>172.2</ele>
        <time>2022-05-24T10:30:54Z</time>
      </trkpt>
      <trkpt lat="44.90849" lon="1.73707">
        <ele>171</ele>
        <time>2022-05-24T10:30:55Z</time>
      </trkpt>
      <trkpt lat="44.90854" lon="1.7371">
        <ele>170.1</ele>
        <time>2022-05-24T10:30:56Z</time>
      </trkpt>
      <trkpt lat="44.90859" lon="1.73713">
        <ele>169.3</ele>
        <time>2022-05-24T10:30:57Z</time>
      </trkpt>
      <trkpt lat="44.90866" lon="1.73716">
        <ele>168.2</ele>
        <time>2022-05-24T10:30:58Z</time>
      </trkpt>
      <trkpt lat="44.90875" lon="1.73718">
        <ele>166.8</ele>
        <time>2022-05-24T10:30:59Z</time>
      </trkpt>
      <trkpt lat="44.90884" lon="1.7372">
        <ele>165.5</ele>
        <time>2022-05-24T10:31:00Z</time>
      </trkpt>
      <trkpt lat="44.90893" lon="1.73723">
        <ele>164.3</ele>
        <time>2022-05-24T10:31:01Z</time>
      </trkpt>
      <trkpt lat="44.90901" lon="1.73725">
        <ele>163.2</ele>
        <time>2022-05-24T10:31:02Z</time>
      </trkpt>
      <trkpt lat="44.9091" lon="1.73725">
        <ele>162.1</ele>
        <time>2022-05-24T10:31:03Z</time>
      </trkpt>
      <trkpt lat="44.90918" lon="1.73727">
        <ele>161.2</ele>
        <time>2022-05-24T10:31:04Z</time>
      </trkpt>
      <trkpt lat="44.90925" lon="1.73728">
        <ele>160.5</ele>
        <time>2022-05-24T10:31:05Z</time>
      </trkpt>
      <trkpt lat="44.90933" lon="1.73732">
        <ele>159.8</ele>
        <time>2022-05-24T10:31:06Z</time>
      </trkpt>
      <trkpt lat="44.90942" lon="1.73737">
        <ele>159</ele>
        <time>2022-05-24T10:31:07Z</time>
      </trkpt>
      <trkpt lat="44.90951" lon="1.7374">
        <ele>158.4</ele>
        <time>2022-05-24T10:31:08Z</time>
      </trkpt>
      <trkpt lat="44.9096" lon="1.73747">
        <ele>157.6</ele>
        <time>2022-05-24T10:31:09Z</time>
      </trkpt>
      <trkpt lat="44.90967" lon="1.73751">
        <ele>156.8</ele>
        <time>2022-05-24T10:31:10Z</time>
      </trkpt>
      <trkpt lat="44.90974" lon="1.7375">
        <ele>156.2</ele>
        <time>2022-05-24T10:31:11Z</time>
      </trkpt>
      <trkpt lat="44.9098" lon="1.7375">
        <ele>155.6</ele>
        <time>2022-05-24T10:31:12Z</time>
      </trkpt>
      <trkpt lat="44.90985" lon="1.73751">
        <ele>155.1</ele>
        <time>2022-05-24T10:31:13Z</time>
      </trkpt>
      <trkpt lat="44.90989" lon="1.73751">
        <ele>154.5</ele>
        <time>2022-05-24T10:31:14Z</time>
      </trkpt>
      <trkpt lat="44.90994" lon="1.73752">
        <ele>153.9</ele>
        <time>2022-05-24T10:31:15Z</time>
      </trkpt>
      <trkpt lat="44.90998" lon="1.73752">
        <ele>153.3</ele>
        <time>2022-05-24T10:31:16Z</time>
      </trkpt>
      <trkpt lat="44.91001" lon="1.73752">
        <ele>152.8</ele>
        <time>2022-05-24T10:31:17Z</time>
      </trkpt>
      <trkpt lat="44.91005" lon="1.7375">
        <ele>152.1</ele>
        <time>2022-05-24T10:31:18Z</time>
      </trkpt>
      <trkpt lat="44.91009" lon="1.73748">
        <ele>151.6</ele>
        <time>2022-05-24T10:31:19Z</time>
      </trkpt>
      <trkpt lat="44.91012" lon="1.73743">
        <ele>150.8</ele>
        <time>2022-05-24T10:31:20Z</time>
      </trkpt>
      <trkpt lat="44.91015" lon="1.73738">
        <ele>150</ele>
        <time>2022-05-24T10:31:21Z</time>
      </trkpt>
      <trkpt lat="44.91019" lon="1.73733">
        <ele>149.1</ele>
        <time>2022-05-24T10:31:22Z</time>
      </trkpt>
      <trkpt lat="44.91025" lon="1.73733">
        <ele>148.1</ele>
        <time>2022-05-24T10:31:23Z</time>
      </trkpt>
      <trkpt lat="44.91031" lon="1.73736">
        <ele>146.9</ele>
        <time>2022-05-24T10:31:24Z</time>
      </trkpt>
      <trkpt lat="44.91038" lon="1.73739">
        <ele>145.7</ele>
        <time>2022-05-24T10:31:25Z</time>
      </trkpt>
      <trkpt lat="44.91044" lon="1.73742">
        <ele>144.7</ele>
        <time>2022-05-24T10:31:26Z</time>
      </trkpt>
      <trkpt lat="44.91051" lon="1.73745">
        <ele>143.8</ele>
        <time>2022-05-24T10:31:27Z</time>
      </trkpt>
      <trkpt lat="44.91059" lon="1.73749">
        <ele>142.8</ele>
        <time>2022-05-24T10:31:28Z</time>
      </trkpt>
      <trkpt lat="44.91067" lon="1.73751">
        <ele>141.8</ele>
        <time>2022-05-24T10:31:29Z</time>
      </trkpt>
      <trkpt lat="44.91077" lon="1.73755">
        <ele>140.8</ele>
        <time>2022-05-24T10:31:30Z</time>
      </trkpt>
      <trkpt lat="44.91086" lon="1.73756">
        <ele>140</ele>
        <time>2022-05-24T10:31:31Z</time>
      </trkpt>
      <trkpt lat="44.91095" lon="1.7376">
        <ele>139.3</ele>
        <time>2022-05-24T10:31:32Z</time>
      </trkpt>
      <trkpt lat="44.91103" lon="1.73762">
        <ele>138.7</ele>
        <time>2022-05-24T10:31:33Z</time>
      </trkpt>
      <trkpt lat="44.91111" lon="1.73764">
        <ele>138.2</ele>
        <time>2022-05-24T10:31:34Z</time>
      </trkpt>
      <trkpt lat="44.91119" lon="1.73766">
        <ele>137.6</ele>
        <time>2022-05-24T10:31:35Z</time>
      </trkpt>
      <trkpt lat="44.91127" lon="1.7377">
        <ele>137.1</ele>
        <time>2022-05-24T10:31:36Z</time>
      </trkpt>
      <trkpt lat="44.91134" lon="1.73774">
        <ele>136.7</ele>
        <time>2022-05-24T10:31:37Z</time>
      </trkpt>
      <trkpt lat="44.91141" lon="1.73779">
        <ele>136.2</ele>
        <time>2022-05-24T10:31:38Z</time>
      </trkpt>
      <trkpt lat="44.91148" lon="1.73783">
        <ele>135.8</ele>
        <time>2022-05-24T10:31:39Z</time>
      </trkpt>
      <trkpt lat="44.91155" lon="1.73788">
        <ele>135.3</ele>
        <time>2022-05-24T10:31:40Z</time>
      </trkpt>
      <trkpt lat="44.91162" lon="1.73793">
        <ele>134.9</ele>
        <time>2022-05-24T10:31:41Z</time>
      </trkpt>
      <trkpt lat="44.91169" lon="1.73798">
        <ele>134.4</ele>
        <time>2022-05-24T10:31:42Z</time>
      </trkpt>
      <trkpt lat="44.91176" lon="1.73804">
        <ele>133.9</ele>
        <time>2022-05-24T10:31:43Z</time>
      </trkpt>
      <trkpt lat="44.91184" lon="1.7381">
        <ele>133.5</ele>
        <time>2022-05-24T10:31:44Z</time>
      </trkpt>
      <trkpt lat="44.91191" lon="1.73816">
        <ele>133.1</ele>
        <time>2022-05-24T10:31:45Z</time>
      </trkpt>
      <trkpt lat="44.91196" lon="1.73823">
        <ele>132.7</ele>
        <time>2022-05-24T10:31:46Z</time>
      </trkpt>
      <trkpt lat="44.91198" lon="1.73831">
        <ele>132.4</ele>
        <time>2022-05-24T10:31:47Z</time>
      </trkpt>
      <trkpt lat="44.91198" lon="1.73839">
        <ele>132.1</ele>
        <time>2022-05-24T10:31:48Z</time>
      </trkpt>
      <trkpt lat="44.91196" lon="1.73848">
        <ele>131.8</ele>
        <time>2022-05-24T10:31:49Z</time>
      </trkpt>
      <trkpt lat="44.91195" lon="1.73857">
        <ele>131.6</ele>
        <time>2022-05-24T10:31:50Z</time>
      </trkpt>
      <trkpt lat="44.91193" lon="1.73865">
        <ele>131.3</ele>
        <time>2022-05-24T10:31:51Z</time>
      </trkpt>
      <trkpt lat="44.91192" lon="1.73872">
        <ele>131.1</ele>
        <time>2022-05-24T10:31:52Z</time>
      </trkpt>
      <trkpt lat="44.91193" lon="1.73877">
        <ele>130.9</ele>
        <time>2022-05-24T10:31:53Z</time>
      </trkpt>
      <trkpt lat="44.91197" lon="1.73881">
        <ele>130.5</ele>
        <time>2022-05-24T10:31:54Z</time>
      </trkpt>
      <trkpt lat="44.91201" lon="1.73882">
        <ele>130.2</ele>
        <time>2022-05-24T10:31:55Z</time>
      </trkpt>
      <trkpt lat="44.91207" lon="1.73882">
        <ele>129.8</ele>
        <time>2022-05-24T10:31:56Z</time>
      </trkpt>
      <trkpt lat="44.91218" lon="1.7388">
        <ele>129.1</ele>
        <time>2022-05-24T10:31:58Z</time>
      </trkpt>
      <trkpt lat="44.91225" lon="1.73879">
        <ele>128.7</ele>
        <time>2022-05-24T10:31:59Z</time>
      </trkpt>
      <trkpt lat="44.91231" lon="1.73878">
        <ele>128.4</ele>
        <time>2022-05-24T10:32:00Z</time>
      </trkpt>
      <trkpt lat="44.91238" lon="1.73877">
        <ele>128.1</ele>
        <time>2022-05-24T10:32:01Z</time>
      </trkpt>
      <trkpt lat="44.91245" lon="1.73876">
        <ele>127.8</ele>
        <time>2022-05-24T10:32:02Z</time>
      </trkpt>
      <trkpt lat="44.91253" lon="1.73875">
        <ele>127.5</ele>
        <time>2022-05-24T10:32:03Z</time>
      </trkpt>
      <trkpt lat="44.9126" lon="1.73872">
        <ele>127.4</ele>
        <time>2022-05-24T10:32:04Z</time>
      </trkpt>
      <trkpt lat="44.91266" lon="1.73872">
        <ele>127.3</ele>
        <time>2022-05-24T10:32:05Z</time>
      </trkpt>
      <trkpt lat="44.9127" lon="1.73873">
        <ele>127.2</ele>
        <time>2022-05-24T10:32:06Z</time>
      </trkpt>
      <trkpt lat="44.91274" lon="1.73875">
        <ele>127.1</ele>
        <time>2022-05-24T10:32:07Z</time>
      </trkpt>
      <trkpt lat="44.91275" lon="1.73876">
        <ele>127.1</ele>
        <time>2022-05-24T10:32:08Z</time>
      </trkpt>
      <trkpt lat="44.91278" lon="1.73875">
        <ele>127</ele>
        <time>2022-05-24T10:32:09Z</time>
      </trkpt>
      <trkpt lat="44.91283" lon="1.73874">
        <ele>126.9</ele>
        <time>2022-05-24T10:32:10Z</time>
      </trkpt>
      <trkpt lat="44.91287" lon="1.73872">
        <ele>126.7</ele>
        <time>2022-05-24T10:32:11Z</time>
      </trkpt>
      <trkpt lat="44.91292" lon="1.7387">
        <ele>126.6</ele>
        <time>2022-05-24T10:32:12Z</time>
      </trkpt>
      <trkpt lat="44.91297" lon="1.73868">
        <ele>126.5</ele>
        <time>2022-05-24T10:32:13Z</time>
      </trkpt>
      <trkpt lat="44.91303" lon="1.73864">
        <ele>126.3</ele>
        <time>2022-05-24T10:32:14Z</time>
      </trkpt>
      <trkpt lat="44.91308" lon="1.7386">
        <ele>126.2</ele>
        <time>2022-05-24T10:32:15Z</time>
      </trkpt>
      <trkpt lat="44.91312" lon="1.73857">
        <ele>126</ele>
        <time>2022-05-24T10:32:16Z</time>
      </trkpt>
      <trkpt lat="44.91317" lon="1.73853">
        <ele>125.8</ele>
        <time>2022-05-24T10:32:17Z</time>
      </trkpt>
      <trkpt lat="44.91322" lon="1.73849">
        <ele>125.6</ele>
        <time>2022-05-24T10:32:18Z</time>
      </trkpt>
      <trkpt lat="44.91327" lon="1.73846">
        <ele>125.5</ele>
        <time>2022-05-24T10:32:19Z</time>
      </trkpt>
      <trkpt lat="44.91332" lon="1.73843">
        <ele>125.3</ele>
        <time>2022-05-24T10:32:20Z</time>
      </trkpt>
      <trkpt lat="44.91337" lon="1.73841">
        <ele>125.2</ele>
        <time>2022-05-24T10:32:21Z</time>
      </trkpt>
      <trkpt lat="44.91343" lon="1.73843">
        <ele>125.1</ele>
        <time>2022-05-24T10:32:22Z</time>
      </trkpt>
      <trkpt lat="44.91346" lon="1.73845">
        <ele>124.7</ele>
        <time>2022-05-24T10:32:23Z</time>
      </trkpt>
      <trkpt lat="44.91348" lon="1.73847">
        <ele>124.6</ele>
        <time>2022-05-24T10:32:24Z</time>
      </trkpt>
      <trkpt lat="44.91352" lon="1.73851">
        <ele>124.4</ele>
        <time>2022-05-24T10:32:25Z</time>
      </trkpt>
      <trkpt lat="44.91355" lon="1.73855">
        <ele>124.3</ele>
        <time>2022-05-24T10:32:26Z</time>
      </trkpt>
      <trkpt lat="44.91358" lon="1.73859">
        <ele>124.2</ele>
        <time>2022-05-24T10:32:27Z</time>
      </trkpt>
      <trkpt lat="44.91363" lon="1.73867">
        <ele>124</ele>
        <time>2022-05-24T10:32:28Z</time>
      </trkpt>
      <trkpt lat="44.91368" lon="1.73872">
        <ele>124</ele>
        <time>2022-05-24T10:32:29Z</time>
      </trkpt>
      <trkpt lat="44.91372" lon="1.73878">
        <ele>123.9</ele>
        <time>2022-05-24T10:32:30Z</time>
      </trkpt>
      <trkpt lat="44.91375" lon="1.73884">
        <ele>123.8</ele>
        <time>2022-05-24T10:32:31Z</time>
      </trkpt>
      <trkpt lat="44.91379" lon="1.73889">
        <ele>123.7</ele>
        <time>2022-05-24T10:32:32Z</time>
      </trkpt>
      <trkpt lat="44.91381" lon="1.73897">
        <ele>123.6</ele>
        <time>2022-05-24T10:32:33Z</time>
      </trkpt>
      <trkpt lat="44.91382" lon="1.73904">
        <ele>123.5</ele>
        <time>2022-05-24T10:32:34Z</time>
      </trkpt>
      <trkpt lat="44.91385" lon="1.73912">
        <ele>123.4</ele>
        <time>2022-05-24T10:32:35Z</time>
      </trkpt>
      <trkpt lat="44.91387" lon="1.7392">
        <ele>123.3</ele>
        <time>2022-05-24T10:32:36Z</time>
      </trkpt>
      <trkpt lat="44.91389" lon="1.73929">
        <ele>123.2</ele>
        <time>2022-05-24T10:32:37Z</time>
      </trkpt>
      <trkpt lat="44.91391" lon="1.73936">
        <ele>123.1</ele>
        <time>2022-05-24T10:32:38Z</time>
      </trkpt>
      <trkpt lat="44.91394" lon="1.73943">
        <ele>123</ele>
        <time>2022-05-24T10:32:39Z</time>
      </trkpt>
      <trkpt lat="44.91396" lon="1.7395">
        <ele>122.9</ele>
        <time>2022-05-24T10:32:40Z</time>
      </trkpt>
      <trkpt lat="44.91398" lon="1.73959">
        <ele>122.9</ele>
        <time>2022-05-24T10:32:41Z</time>
      </trkpt>
      <trkpt lat="44.914" lon="1.73967">
        <ele>122.8</ele>
        <time>2022-05-24T10:32:42Z</time>
      </trkpt>
      <trkpt lat="44.91401" lon="1.73974">
        <ele>122.8</ele>
        <time>2022-05-24T10:32:43Z</time>
      </trkpt>
      <trkpt lat="44.91403" lon="1.73982">
        <ele>122.7</ele>
        <time>2022-05-24T10:32:44Z</time>
      </trkpt>
      <trkpt lat="44.91405" lon="1.7399">
        <ele>122.7</ele>
        <time>2022-05-24T10:32:45Z</time>
      </trkpt>
      <trkpt lat="44.91407" lon="1.73998">
        <ele>122.7</ele>
        <time>2022-05-24T10:32:46Z</time>
      </trkpt>
      <trkpt lat="44.91409" lon="1.74006">
        <ele>122.7</ele>
        <time>2022-05-24T10:32:47Z</time>
      </trkpt>
      <trkpt lat="44.91411" lon="1.74015">
        <ele>122.7</ele>
        <time>2022-05-24T10:32:48Z</time>
      </trkpt>
      <trkpt lat="44.91413" lon="1.74024">
        <ele>122.7</ele>
        <time>2022-05-24T10:32:49Z</time>
      </trkpt>
      <trkpt lat="44.91415" lon="1.74032">
        <ele>122.7</ele>
        <time>2022-05-24T10:32:50Z</time>
      </trkpt>
      <trkpt lat="44.91417" lon="1.7404">
        <ele>122.7</ele>
        <time>2022-05-24T10:32:51Z</time>
      </trkpt>
      <trkpt lat="44.91419" lon="1.74048">
        <ele>122.7</ele>
        <time>2022-05-24T10:32:52Z</time>
      </trkpt>
      <trkpt lat="44.91422" lon="1.74056">
        <ele>122.7</ele>
        <time>2022-05-24T10:32:53Z</time>
      </trkpt>
      <trkpt lat="44.91424" lon="1.74064">
        <ele>122.7</ele>
        <time>2022-05-24T10:32:54Z</time>
      </trkpt>
      <trkpt lat="44.91427" lon="1.74072">
        <ele>122.7</ele>
        <time>2022-05-24T10:32:55Z</time>
      </trkpt>
      <trkpt lat="44.91429" lon="1.74081">
        <ele>122.8</ele>
        <time>2022-05-24T10:32:56Z</time>
      </trkpt>
      <trkpt lat="44.91432" lon="1.74089">
        <ele>122.9</ele>
        <time>2022-05-24T10:32:57Z</time>
      </trkpt>
      <trkpt lat="44.91434" lon="1.74097">
        <ele>123</ele>
        <time>2022-05-24T10:32:58Z</time>
      </trkpt>
      <trkpt lat="44.91436" lon="1.74105">
        <ele>123.1</ele>
        <time>2022-05-24T10:32:59Z</time>
      </trkpt>
      <trkpt lat="44.91437" lon="1.74113">
        <ele>123.2</ele>
        <time>2022-05-24T10:33:00Z</time>
      </trkpt>
      <trkpt lat="44.91439" lon="1.74121">
        <ele>123.3</ele>
        <time>2022-05-24T10:33:01Z</time>
      </trkpt>
      <trkpt lat="44.91441" lon="1.74129">
        <ele>123.4</ele>
        <time>2022-05-24T10:33:02Z</time>
      </trkpt>
      <trkpt lat="44.91443" lon="1.74136">
        <ele>123.6</ele>
        <time>2022-05-24T10:33:03Z</time>
      </trkpt>
      <trkpt lat="44.91445" lon="1.74143">
        <ele>123.7</ele>
        <time>2022-05-24T10:33:04Z</time>
      </trkpt>
      <trkpt lat="44.91448" lon="1.74152">
        <ele>123.9</ele>
        <time>2022-05-24T10:33:05Z</time>
      </trkpt>
      <trkpt lat="44.91451" lon="1.74161">
        <ele>124.1</ele>
        <time>2022-05-24T10:33:06Z</time>
      </trkpt>
      <trkpt lat="44.91453" lon="1.74169">
        <ele>124.2</ele>
        <time>2022-05-24T10:33:07Z</time>
      </trkpt>
      <trkpt lat="44.91455" lon="1.74176">
        <ele>124.4</ele>
        <time>2022-05-24T10:33:08Z</time>
      </trkpt>
      <trkpt lat="44.91458" lon="1.74184">
        <ele>124.6</ele>
        <time>2022-05-24T10:33:09Z</time>
      </trkpt>
      <trkpt lat="44.91459" lon="1.7419">
        <ele>124.8</ele>
        <time>2022-05-24T10:33:10Z</time>
      </trkpt>
      <trkpt lat="44.91462" lon="1.74197">
        <ele>124.9</ele>
        <time>2022-05-24T10:33:11Z</time>
      </trkpt>
      <trkpt lat="44.91463" lon="1.74205">
        <ele>125</ele>
        <time>2022-05-24T10:33:12Z</time>
      </trkpt>
      <trkpt lat="44.91465" lon="1.74212">
        <ele>125.1</ele>
        <time>2022-05-24T10:33:13Z</time>
      </trkpt>
      <trkpt lat="44.91468" lon="1.74216">
        <ele>125.2</ele>
        <time>2022-05-24T10:33:14Z</time>
      </trkpt>
      <trkpt lat="44.91469" lon="1.74223">
        <ele>125.2</ele>
        <time>2022-05-24T10:33:15Z</time>
      </trkpt>
      <trkpt lat="44.91471" lon="1.7423">
        <ele>125.3</ele>
        <time>2022-05-24T10:33:16Z</time>
      </trkpt>
      <trkpt lat="44.91472" lon="1.74238">
        <ele>125.4</ele>
        <time>2022-05-24T10:33:17Z</time>
      </trkpt>
      <trkpt lat="44.91475" lon="1.74244">
        <ele>125.5</ele>
        <time>2022-05-24T10:33:18Z</time>
      </trkpt>
      <trkpt lat="44.91477" lon="1.74251">
        <ele>125.6</ele>
        <time>2022-05-24T10:33:19Z</time>
      </trkpt>
      <trkpt lat="44.9148" lon="1.74257">
        <ele>125.8</ele>
        <time>2022-05-24T10:33:20Z</time>
      </trkpt>
      <trkpt lat="44.91483" lon="1.74265">
        <ele>125.9</ele>
        <time>2022-05-24T10:33:21Z</time>
      </trkpt>
      <trkpt lat="44.91484" lon="1.74273">
        <ele>126.1</ele>
        <time>2022-05-24T10:33:22Z</time>
      </trkpt>
      <trkpt lat="44.91486" lon="1.7428">
        <ele>126.2</ele>
        <time>2022-05-24T10:33:23Z</time>
      </trkpt>
      <trkpt lat="44.91488" lon="1.74286">
        <ele>126.3</ele>
        <time>2022-05-24T10:33:24Z</time>
      </trkpt>
      <trkpt lat="44.91489" lon="1.74292">
        <ele>126.4</ele>
        <time>2022-05-24T10:33:25Z</time>
      </trkpt>
      <trkpt lat="44.91491" lon="1.74298">
        <ele>126.5</ele>
        <time>2022-05-24T10:33:26Z</time>
      </trkpt>
      <trkpt lat="44.91494" lon="1.74306">
        <ele>126.6</ele>
        <time>2022-05-24T10:33:27Z</time>
      </trkpt>
      <trkpt lat="44.91496" lon="1.74313">
        <ele>126.7</ele>
        <time>2022-05-24T10:33:28Z</time>
      </trkpt>
      <trkpt lat="44.91498" lon="1.74321">
        <ele>126.7</ele>
        <time>2022-05-24T10:33:29Z</time>
      </trkpt>
      <trkpt lat="44.915" lon="1.74329">
        <ele>126.7</ele>
        <time>2022-05-24T10:33:30Z</time>
      </trkpt>
      <trkpt lat="44.91503" lon="1.74336">
        <ele>126.8</ele>
        <time>2022-05-24T10:33:31Z</time>
      </trkpt>
      <trkpt lat="44.91505" lon="1.74345">
        <ele>126.8</ele>
        <time>2022-05-24T10:33:32Z</time>
      </trkpt>
      <trkpt lat="44.91507" lon="1.74353">
        <ele>126.8</ele>
        <time>2022-05-24T10:33:33Z</time>
      </trkpt>
      <trkpt lat="44.9151" lon="1.74362">
        <ele>126.8</ele>
        <time>2022-05-24T10:33:34Z</time>
      </trkpt>
      <trkpt lat="44.91512" lon="1.74369">
        <ele>126.8</ele>
        <time>2022-05-24T10:33:35Z</time>
      </trkpt>
      <trkpt lat="44.91514" lon="1.74377">
        <ele>126.8</ele>
        <time>2022-05-24T10:33:36Z</time>
      </trkpt>
      <trkpt lat="44.91516" lon="1.74387">
        <ele>126.8</ele>
        <time>2022-05-24T10:33:37Z</time>
      </trkpt>
      <trkpt lat="44.91518" lon="1.74395">
        <ele>126.8</ele>
        <time>2022-05-24T10:33:38Z</time>
      </trkpt>
      <trkpt lat="44.91521" lon="1.74402">
        <ele>126.8</ele>
        <time>2022-05-24T10:33:39Z</time>
      </trkpt>
      <trkpt lat="44.91523" lon="1.7441">
        <ele>126.8</ele>
        <time>2022-05-24T10:33:40Z</time>
      </trkpt>
      <trkpt lat="44.91526" lon="1.74418">
        <ele>126.7</ele>
        <time>2022-05-24T10:33:41Z</time>
      </trkpt>
      <trkpt lat="44.91528" lon="1.74426">
        <ele>126.7</ele>
        <time>2022-05-24T10:33:42Z</time>
      </trkpt>
      <trkpt lat="44.9153" lon="1.74434">
        <ele>126.6</ele>
        <time>2022-05-24T10:33:43Z</time>
      </trkpt>
      <trkpt lat="44.91532" lon="1.74442">
        <ele>126.6</ele>
        <time>2022-05-24T10:33:44Z</time>
      </trkpt>
      <trkpt lat="44.91533" lon="1.74452">
        <ele>126.5</ele>
        <time>2022-05-24T10:33:45Z</time>
      </trkpt>
      <trkpt lat="44.91535" lon="1.7446">
        <ele>126.4</ele>
        <time>2022-05-24T10:33:46Z</time>
      </trkpt>
      <trkpt lat="44.91538" lon="1.74469">
        <ele>126.4</ele>
        <time>2022-05-24T10:33:47Z</time>
      </trkpt>
      <trkpt lat="44.91541" lon="1.74477">
        <ele>126.3</ele>
        <time>2022-05-24T10:33:48Z</time>
      </trkpt>
      <trkpt lat="44.91542" lon="1.74487">
        <ele>126.3</ele>
        <time>2022-05-24T10:33:49Z</time>
      </trkpt>
      <trkpt lat="44.91545" lon="1.74496">
        <ele>126.2</ele>
        <time>2022-05-24T10:33:50Z</time>
      </trkpt>
      <trkpt lat="44.91548" lon="1.74504">
        <ele>126.1</ele>
        <time>2022-05-24T10:33:51Z</time>
      </trkpt>
      <trkpt lat="44.9155" lon="1.74513">
        <ele>126</ele>
        <time>2022-05-24T10:33:52Z</time>
      </trkpt>
      <trkpt lat="44.91552" lon="1.74521">
        <ele>125.9</ele>
        <time>2022-05-24T10:33:53Z</time>
      </trkpt>
      <trkpt lat="44.91555" lon="1.74528">
        <ele>125.8</ele>
        <time>2022-05-24T10:33:54Z</time>
      </trkpt>
      <trkpt lat="44.91559" lon="1.74535">
        <ele>125.7</ele>
        <time>2022-05-24T10:33:55Z</time>
      </trkpt>
      <trkpt lat="44.91563" lon="1.74541">
        <ele>125.6</ele>
        <time>2022-05-24T10:33:56Z</time>
      </trkpt>
      <trkpt lat="44.91569" lon="1.74547">
        <ele>125.5</ele>
        <time>2022-05-24T10:33:57Z</time>
      </trkpt>
      <trkpt lat="44.91574" lon="1.74553">
        <ele>125.5</ele>
        <time>2022-05-24T10:33:58Z</time>
      </trkpt>
      <trkpt lat="44.91578" lon="1.7456">
        <ele>125.4</ele>
        <time>2022-05-24T10:33:59Z</time>
      </trkpt>
      <trkpt lat="44.9158" lon="1.74569">
        <ele>125.3</ele>
        <time>2022-05-24T10:34:00Z</time>
      </trkpt>
      <trkpt lat="44.9158" lon="1.74577">
        <ele>125.2</ele>
        <time>2022-05-24T10:34:01Z</time>
      </trkpt>
      <trkpt lat="44.91579" lon="1.74586">
        <ele>125.2</ele>
        <time>2022-05-24T10:34:02Z</time>
      </trkpt>
      <trkpt lat="44.91578" lon="1.74594">
        <ele>125.2</ele>
        <time>2022-05-24T10:34:03Z</time>
      </trkpt>
      <trkpt lat="44.91579" lon="1.74604">
        <ele>125.2</ele>
        <time>2022-05-24T10:34:04Z</time>
      </trkpt>
      <trkpt lat="44.9158" lon="1.74613">
        <ele>125.1</ele>
        <time>2022-05-24T10:34:05Z</time>
      </trkpt>
      <trkpt lat="44.91581" lon="1.74622">
        <ele>125.1</ele>
        <time>2022-05-24T10:34:06Z</time>
      </trkpt>
      <trkpt lat="44.91582" lon="1.7463">
        <ele>125</ele>
        <time>2022-05-24T10:34:07Z</time>
      </trkpt>
      <trkpt lat="44.91583" lon="1.74639">
        <ele>125</ele>
        <time>2022-05-24T10:34:08Z</time>
      </trkpt>
      <trkpt lat="44.91583" lon="1.74649">
        <ele>124.9</ele>
        <time>2022-05-24T10:34:09Z</time>
      </trkpt>
      <trkpt lat="44.91583" lon="1.74658">
        <ele>124.9</ele>
        <time>2022-05-24T10:34:10Z</time>
      </trkpt>
      <trkpt lat="44.91581" lon="1.74668">
        <ele>124.9</ele>
        <time>2022-05-24T10:34:11Z</time>
      </trkpt>
      <trkpt lat="44.91579" lon="1.74677">
        <ele>124.9</ele>
        <time>2022-05-24T10:34:12Z</time>
      </trkpt>
      <trkpt lat="44.91576" lon="1.74685">
        <ele>124.9</ele>
        <time>2022-05-24T10:34:13Z</time>
      </trkpt>
      <trkpt lat="44.91572" lon="1.74693">
        <ele>124.9</ele>
        <time>2022-05-24T10:34:14Z</time>
      </trkpt>
      <trkpt lat="44.91568" lon="1.747">
        <ele>125</ele>
        <time>2022-05-24T10:34:15Z</time>
      </trkpt>
      <trkpt lat="44.91563" lon="1.74707">
        <ele>125</ele>
        <time>2022-05-24T10:34:16Z</time>
      </trkpt>
      <trkpt lat="44.91559" lon="1.74714">
        <ele>125</ele>
        <time>2022-05-24T10:34:17Z</time>
      </trkpt>
      <trkpt lat="44.91555" lon="1.74721">
        <ele>125</ele>
        <time>2022-05-24T10:34:18Z</time>
      </trkpt>
      <trkpt lat="44.91551" lon="1.74728">
        <ele>125</ele>
        <time>2022-05-24T10:34:19Z</time>
      </trkpt>
      <trkpt lat="44.91546" lon="1.74736">
        <ele>125.1</ele>
        <time>2022-05-24T10:34:20Z</time>
      </trkpt>
      <trkpt lat="44.91542" lon="1.74743">
        <ele>125.1</ele>
        <time>2022-05-24T10:34:21Z</time>
      </trkpt>
      <trkpt lat="44.91538" lon="1.7475">
        <ele>125.1</ele>
        <time>2022-05-24T10:34:22Z</time>
      </trkpt>
      <trkpt lat="44.91534" lon="1.74758">
        <ele>125.1</ele>
        <time>2022-05-24T10:34:23Z</time>
      </trkpt>
      <trkpt lat="44.91529" lon="1.74765">
        <ele>125.1</ele>
        <time>2022-05-24T10:34:24Z</time>
      </trkpt>
      <trkpt lat="44.91524" lon="1.74772">
        <ele>125.1</ele>
        <time>2022-05-24T10:34:25Z</time>
      </trkpt>
      <trkpt lat="44.9152" lon="1.7478">
        <ele>125.1</ele>
        <time>2022-05-24T10:34:26Z</time>
      </trkpt>
      <trkpt lat="44.91515" lon="1.74788">
        <ele>125.1</ele>
        <time>2022-05-24T10:34:27Z</time>
      </trkpt>
      <trkpt lat="44.9151" lon="1.74795">
        <ele>125</ele>
        <time>2022-05-24T10:34:28Z</time>
      </trkpt>
      <trkpt lat="44.91506" lon="1.74803">
        <ele>125</ele>
        <time>2022-05-24T10:34:29Z</time>
      </trkpt>
      <trkpt lat="44.91502" lon="1.74811">
        <ele>125</ele>
        <time>2022-05-24T10:34:30Z</time>
      </trkpt>
      <trkpt lat="44.91498" lon="1.74819">
        <ele>124.9</ele>
        <time>2022-05-24T10:34:31Z</time>
      </trkpt>
      <trkpt lat="44.91493" lon="1.74828">
        <ele>124.9</ele>
        <time>2022-05-24T10:34:32Z</time>
      </trkpt>
      <trkpt lat="44.91489" lon="1.74836">
        <ele>124.9</ele>
        <time>2022-05-24T10:34:33Z</time>
      </trkpt>
      <trkpt lat="44.91485" lon="1.74844">
        <ele>124.8</ele>
        <time>2022-05-24T10:34:34Z</time>
      </trkpt>
      <trkpt lat="44.91482" lon="1.74853">
        <ele>124.8</ele>
        <time>2022-05-24T10:34:35Z</time>
      </trkpt>
      <trkpt lat="44.91479" lon="1.74862">
        <ele>124.8</ele>
        <time>2022-05-24T10:34:36Z</time>
      </trkpt>
      <trkpt lat="44.91475" lon="1.74871">
        <ele>124.8</ele>
        <time>2022-05-24T10:34:37Z</time>
      </trkpt>
      <trkpt lat="44.91471" lon="1.7488">
        <ele>124.8</ele>
        <time>2022-05-24T10:34:38Z</time>
      </trkpt>
      <trkpt lat="44.91467" lon="1.74889">
        <ele>124.8</ele>
        <time>2022-05-24T10:34:39Z</time>
      </trkpt>
      <trkpt lat="44.91463" lon="1.74897">
        <ele>124.9</ele>
        <time>2022-05-24T10:34:40Z</time>
      </trkpt>
      <trkpt lat="44.91459" lon="1.74906">
        <ele>124.9</ele>
        <time>2022-05-24T10:34:41Z</time>
      </trkpt>
      <trkpt lat="44.91455" lon="1.74915">
        <ele>124.9</ele>
        <time>2022-05-24T10:34:42Z</time>
      </trkpt>
      <trkpt lat="44.9145" lon="1.74923">
        <ele>124.9</ele>
        <time>2022-05-24T10:34:43Z</time>
      </trkpt>
      <trkpt lat="44.91447" lon="1.74932">
        <ele>124.8</ele>
        <time>2022-05-24T10:34:44Z</time>
      </trkpt>
      <trkpt lat="44.91443" lon="1.7494">
        <ele>124.8</ele>
        <time>2022-05-24T10:34:45Z</time>
      </trkpt>
      <trkpt lat="44.91439" lon="1.74948">
        <ele>124.8</ele>
        <time>2022-05-24T10:34:46Z</time>
      </trkpt>
      <trkpt lat="44.91436" lon="1.74956">
        <ele>124.7</ele>
        <time>2022-05-24T10:34:47Z</time>
      </trkpt>
      <trkpt lat="44.91431" lon="1.74964">
        <ele>124.7</ele>
        <time>2022-05-24T10:34:48Z</time>
      </trkpt>
      <trkpt lat="44.91427" lon="1.74973">
        <ele>124.7</ele>
        <time>2022-05-24T10:34:49Z</time>
      </trkpt>
      <trkpt lat="44.91423" lon="1.74981">
        <ele>124.7</ele>
        <time>2022-05-24T10:34:50Z</time>
      </trkpt>
      <trkpt lat="44.91419" lon="1.74989">
        <ele>124.7</ele>
        <time>2022-05-24T10:34:51Z</time>
      </trkpt>
      <trkpt lat="44.91415" lon="1.74998">
        <ele>124.7</ele>
        <time>2022-05-24T10:34:52Z</time>
      </trkpt>
      <trkpt lat="44.91411" lon="1.75006">
        <ele>124.7</ele>
        <time>2022-05-24T10:34:53Z</time>
      </trkpt>
      <trkpt lat="44.91408" lon="1.75014">
        <ele>124.8</ele>
        <time>2022-05-24T10:34:54Z</time>
      </trkpt>
      <trkpt lat="44.91404" lon="1.75022">
        <ele>124.8</ele>
        <time>2022-05-24T10:34:55Z</time>
      </trkpt>
      <trkpt lat="44.914" lon="1.7503">
        <ele>124.9</ele>
        <time>2022-05-24T10:34:56Z</time>
      </trkpt>
      <trkpt lat="44.91397" lon="1.75038">
        <ele>124.9</ele>
        <time>2022-05-24T10:34:57Z</time>
      </trkpt>
      <trkpt lat="44.91394" lon="1.75046">
        <ele>125</ele>
        <time>2022-05-24T10:34:58Z</time>
      </trkpt>
      <trkpt lat="44.91391" lon="1.75054">
        <ele>125</ele>
        <time>2022-05-24T10:34:59Z</time>
      </trkpt>
      <trkpt lat="44.91387" lon="1.75062">
        <ele>125</ele>
        <time>2022-05-24T10:35:00Z</time>
      </trkpt>
      <trkpt lat="44.91383" lon="1.7507">
        <ele>125.1</ele>
        <time>2022-05-24T10:35:01Z</time>
      </trkpt>
      <trkpt lat="44.9138" lon="1.75077">
        <ele>125.1</ele>
        <time>2022-05-24T10:35:02Z</time>
      </trkpt>
      <trkpt lat="44.91377" lon="1.75085">
        <ele>125.1</ele>
        <time>2022-05-24T10:35:03Z</time>
      </trkpt>
      <trkpt lat="44.91374" lon="1.75093">
        <ele>125.2</ele>
        <time>2022-05-24T10:35:04Z</time>
      </trkpt>
      <trkpt lat="44.9137" lon="1.75101">
        <ele>125.2</ele>
        <time>2022-05-24T10:35:05Z</time>
      </trkpt>
      <trkpt lat="44.91366" lon="1.75108">
        <ele>125.2</ele>
        <time>2022-05-24T10:35:06Z</time>
      </trkpt>
      <trkpt lat="44.91363" lon="1.75117">
        <ele>125.3</ele>
        <time>2022-05-24T10:35:07Z</time>
      </trkpt>
      <trkpt lat="44.9136" lon="1.75125">
        <ele>125.3</ele>
        <time>2022-05-24T10:35:08Z</time>
      </trkpt>
      <trkpt lat="44.91358" lon="1.75132">
        <ele>125.3</ele>
        <time>2022-05-24T10:35:09Z</time>
      </trkpt>
      <trkpt lat="44.91356" lon="1.75141">
        <ele>125.3</ele>
        <time>2022-05-24T10:35:10Z</time>
      </trkpt>
      <trkpt lat="44.91354" lon="1.75149">
        <ele>125.4</ele>
        <time>2022-05-24T10:35:11Z</time>
      </trkpt>
      <trkpt lat="44.91351" lon="1.75158">
        <ele>125.4</ele>
        <time>2022-05-24T10:35:12Z</time>
      </trkpt>
      <trkpt lat="44.91349" lon="1.75166">
        <ele>125.4</ele>
        <time>2022-05-24T10:35:13Z</time>
      </trkpt>
      <trkpt lat="44.91347" lon="1.75174">
        <ele>125.4</ele>
        <time>2022-05-24T10:35:14Z</time>
      </trkpt>
      <trkpt lat="44.91344" lon="1.75182">
        <ele>125.4</ele>
        <time>2022-05-24T10:35:15Z</time>
      </trkpt>
      <trkpt lat="44.91342" lon="1.75192">
        <ele>125.4</ele>
        <time>2022-05-24T10:35:16Z</time>
      </trkpt>
      <trkpt lat="44.91342" lon="1.75201">
        <ele>125.4</ele>
        <time>2022-05-24T10:35:17Z</time>
      </trkpt>
      <trkpt lat="44.9134" lon="1.7521">
        <ele>125.4</ele>
        <time>2022-05-24T10:35:18Z</time>
      </trkpt>
      <trkpt lat="44.91339" lon="1.75218">
        <ele>125.4</ele>
        <time>2022-05-24T10:35:19Z</time>
      </trkpt>
      <trkpt lat="44.91337" lon="1.75227">
        <ele>125.4</ele>
        <time>2022-05-24T10:35:20Z</time>
      </trkpt>
      <trkpt lat="44.91336" lon="1.75236">
        <ele>125.4</ele>
        <time>2022-05-24T10:35:21Z</time>
      </trkpt>
      <trkpt lat="44.91335" lon="1.75246">
        <ele>125.4</ele>
        <time>2022-05-24T10:35:22Z</time>
      </trkpt>
      <trkpt lat="44.91334" lon="1.75256">
        <ele>125.5</ele>
        <time>2022-05-24T10:35:23Z</time>
      </trkpt>
      <trkpt lat="44.91333" lon="1.75265">
        <ele>125.5</ele>
        <time>2022-05-24T10:35:24Z</time>
      </trkpt>
      <trkpt lat="44.91333" lon="1.75274">
        <ele>125.5</ele>
        <time>2022-05-24T10:35:25Z</time>
      </trkpt>
      <trkpt lat="44.91332" lon="1.75283">
        <ele>125.6</ele>
        <time>2022-05-24T10:35:26Z</time>
      </trkpt>
      <trkpt lat="44.91331" lon="1.75292">
        <ele>125.6</ele>
        <time>2022-05-24T10:35:27Z</time>
      </trkpt>
      <trkpt lat="44.91329" lon="1.753">
        <ele>125.6</ele>
        <time>2022-05-24T10:35:28Z</time>
      </trkpt>
      <trkpt lat="44.91328" lon="1.75309">
        <ele>125.5</ele>
        <time>2022-05-24T10:35:29Z</time>
      </trkpt>
      <trkpt lat="44.91327" lon="1.75317">
        <ele>125.5</ele>
        <time>2022-05-24T10:35:30Z</time>
      </trkpt>
      <trkpt lat="44.91326" lon="1.75327">
        <ele>125.5</ele>
        <time>2022-05-24T10:35:31Z</time>
      </trkpt>
      <trkpt lat="44.91325" lon="1.75336">
        <ele>125.4</ele>
        <time>2022-05-24T10:35:32Z</time>
      </trkpt>
      <trkpt lat="44.91325" lon="1.75345">
        <ele>125.4</ele>
        <time>2022-05-24T10:35:33Z</time>
      </trkpt>
      <trkpt lat="44.91325" lon="1.75355">
        <ele>125.4</ele>
        <time>2022-05-24T10:35:34Z</time>
      </trkpt>
      <trkpt lat="44.91324" lon="1.75364">
        <ele>125.4</ele>
        <time>2022-05-24T10:35:35Z</time>
      </trkpt>
      <trkpt lat="44.91323" lon="1.75373">
        <ele>125.4</ele>
        <time>2022-05-24T10:35:36Z</time>
      </trkpt>
      <trkpt lat="44.91322" lon="1.75382">
        <ele>125.4</ele>
        <time>2022-05-24T10:35:37Z</time>
      </trkpt>
      <trkpt lat="44.91321" lon="1.75391">
        <ele>125.4</ele>
        <time>2022-05-24T10:35:38Z</time>
      </trkpt>
      <trkpt lat="44.9132" lon="1.754">
        <ele>125.4</ele>
        <time>2022-05-24T10:35:39Z</time>
      </trkpt>
      <trkpt lat="44.91318" lon="1.75409">
        <ele>125.4</ele>
        <time>2022-05-24T10:35:40Z</time>
      </trkpt>
      <trkpt lat="44.91317" lon="1.75418">
        <ele>125.4</ele>
        <time>2022-05-24T10:35:41Z</time>
      </trkpt>
      <trkpt lat="44.91316" lon="1.75427">
        <ele>125.4</ele>
        <time>2022-05-24T10:35:42Z</time>
      </trkpt>
      <trkpt lat="44.91314" lon="1.75436">
        <ele>125.4</ele>
        <time>2022-05-24T10:35:43Z</time>
      </trkpt>
      <trkpt lat="44.91313" lon="1.75445">
        <ele>125.4</ele>
        <time>2022-05-24T10:35:44Z</time>
      </trkpt>
      <trkpt lat="44.91311" lon="1.75454">
        <ele>125.4</ele>
        <time>2022-05-24T10:35:45Z</time>
      </trkpt>
      <trkpt lat="44.91309" lon="1.75463">
        <ele>125.4</ele>
        <time>2022-05-24T10:35:46Z</time>
      </trkpt>
      <trkpt lat="44.91307" lon="1.75472">
        <ele>125.4</ele>
        <time>2022-05-24T10:35:47Z</time>
      </trkpt>
      <trkpt lat="44.91306" lon="1.75481">
        <ele>125.4</ele>
        <time>2022-05-24T10:35:48Z</time>
      </trkpt>
      <trkpt lat="44.91304" lon="1.7549">
        <ele>125.4</ele>
        <time>2022-05-24T10:35:49Z</time>
      </trkpt>
      <trkpt lat="44.91302" lon="1.75499">
        <ele>125.4</ele>
        <time>2022-05-24T10:35:50Z</time>
      </trkpt>
      <trkpt lat="44.913" lon="1.75508">
        <ele>125.4</ele>
        <time>2022-05-24T10:35:51Z</time>
      </trkpt>
      <trkpt lat="44.91298" lon="1.75517">
        <ele>125.4</ele>
        <time>2022-05-24T10:35:52Z</time>
      </trkpt>
      <trkpt lat="44.91296" lon="1.75526">
        <ele>125.4</ele>
        <time>2022-05-24T10:35:53Z</time>
      </trkpt>
      <trkpt lat="44.91295" lon="1.75535">
        <ele>125.4</ele>
        <time>2022-05-24T10:35:54Z</time>
      </trkpt>
      <trkpt lat="44.91293" lon="1.75544">
        <ele>125.4</ele>
        <time>2022-05-24T10:35:55Z</time>
      </trkpt>
      <trkpt lat="44.91291" lon="1.75553">
        <ele>125.5</ele>
        <time>2022-05-24T10:35:56Z</time>
      </trkpt>
      <trkpt lat="44.9129" lon="1.75562">
        <ele>125.5</ele>
        <time>2022-05-24T10:35:57Z</time>
      </trkpt>
      <trkpt lat="44.91289" lon="1.75571">
        <ele>125.5</ele>
        <time>2022-05-24T10:35:58Z</time>
      </trkpt>
      <trkpt lat="44.91287" lon="1.7558">
        <ele>125.5</ele>
        <time>2022-05-24T10:35:59Z</time>
      </trkpt>
      <trkpt lat="44.91285" lon="1.75589">
        <ele>125.5</ele>
        <time>2022-05-24T10:36:00Z</time>
      </trkpt>
      <trkpt lat="44.91282" lon="1.75598">
        <ele>125.5</ele>
        <time>2022-05-24T10:36:01Z</time>
      </trkpt>
      <trkpt lat="44.9128" lon="1.75607">
        <ele>125.5</ele>
        <time>2022-05-24T10:36:02Z</time>
      </trkpt>
      <trkpt lat="44.91278" lon="1.75617">
        <ele>125.6</ele>
        <time>2022-05-24T10:36:03Z</time>
      </trkpt>
      <trkpt lat="44.91276" lon="1.75625">
        <ele>125.6</ele>
        <time>2022-05-24T10:36:04Z</time>
      </trkpt>
      <trkpt lat="44.91274" lon="1.75634">
        <ele>125.6</ele>
        <time>2022-05-24T10:36:05Z</time>
      </trkpt>
      <trkpt lat="44.91271" lon="1.75642">
        <ele>125.6</ele>
        <time>2022-05-24T10:36:06Z</time>
      </trkpt>
      <trkpt lat="44.91269" lon="1.75651">
        <ele>125.6</ele>
        <time>2022-05-24T10:36:07Z</time>
      </trkpt>
      <trkpt lat="44.91266" lon="1.75659">
        <ele>125.7</ele>
        <time>2022-05-24T10:36:08Z</time>
      </trkpt>
      <trkpt lat="44.91263" lon="1.75667">
        <ele>125.7</ele>
        <time>2022-05-24T10:36:09Z</time>
      </trkpt>
      <trkpt lat="44.9126" lon="1.75675">
        <ele>125.7</ele>
        <time>2022-05-24T10:36:10Z</time>
      </trkpt>
      <trkpt lat="44.91256" lon="1.75684">
        <ele>125.7</ele>
        <time>2022-05-24T10:36:11Z</time>
      </trkpt>
      <trkpt lat="44.91252" lon="1.75691">
        <ele>125.7</ele>
        <time>2022-05-24T10:36:12Z</time>
      </trkpt>
      <trkpt lat="44.91248" lon="1.75699">
        <ele>125.7</ele>
        <time>2022-05-24T10:36:13Z</time>
      </trkpt>
      <trkpt lat="44.91242" lon="1.75705">
        <ele>125.8</ele>
        <time>2022-05-24T10:36:14Z</time>
      </trkpt>
      <trkpt lat="44.91237" lon="1.75711">
        <ele>125.8</ele>
        <time>2022-05-24T10:36:15Z</time>
      </trkpt>
      <trkpt lat="44.91233" lon="1.75718">
        <ele>125.8</ele>
        <time>2022-05-24T10:36:16Z</time>
      </trkpt>
      <trkpt lat="44.91228" lon="1.75726">
        <ele>125.8</ele>
        <time>2022-05-24T10:36:17Z</time>
      </trkpt>
      <trkpt lat="44.91224" lon="1.75734">
        <ele>125.8</ele>
        <time>2022-05-24T10:36:18Z</time>
      </trkpt>
      <trkpt lat="44.9122" lon="1.7574">
        <ele>125.8</ele>
        <time>2022-05-24T10:36:19Z</time>
      </trkpt>
      <trkpt lat="44.91216" lon="1.75747">
        <ele>125.8</ele>
        <time>2022-05-24T10:36:20Z</time>
      </trkpt>
      <trkpt lat="44.91211" lon="1.75754">
        <ele>125.7</ele>
        <time>2022-05-24T10:36:21Z</time>
      </trkpt>
      <trkpt lat="44.91207" lon="1.7576">
        <ele>125.7</ele>
        <time>2022-05-24T10:36:22Z</time>
      </trkpt>
      <trkpt lat="44.91202" lon="1.75767">
        <ele>125.7</ele>
        <time>2022-05-24T10:36:23Z</time>
      </trkpt>
      <trkpt lat="44.91198" lon="1.75775">
        <ele>125.6</ele>
        <time>2022-05-24T10:36:24Z</time>
      </trkpt>
      <trkpt lat="44.91192" lon="1.75783">
        <ele>125.6</ele>
        <time>2022-05-24T10:36:25Z</time>
      </trkpt>
      <trkpt lat="44.91187" lon="1.7579">
        <ele>125.6</ele>
        <time>2022-05-24T10:36:26Z</time>
      </trkpt>
      <trkpt lat="44.91183" lon="1.75798">
        <ele>125.6</ele>
        <time>2022-05-24T10:36:27Z</time>
      </trkpt>
      <trkpt lat="44.91179" lon="1.75807">
        <ele>125.6</ele>
        <time>2022-05-24T10:36:28Z</time>
      </trkpt>
      <trkpt lat="44.91175" lon="1.75815">
        <ele>125.6</ele>
        <time>2022-05-24T10:36:29Z</time>
      </trkpt>
      <trkpt lat="44.91171" lon="1.75823">
        <ele>125.6</ele>
        <time>2022-05-24T10:36:30Z</time>
      </trkpt>
      <trkpt lat="44.91166" lon="1.75832">
        <ele>125.6</ele>
        <time>2022-05-24T10:36:31Z</time>
      </trkpt>
      <trkpt lat="44.91162" lon="1.7584">
        <ele>125.5</ele>
        <time>2022-05-24T10:36:32Z</time>
      </trkpt>
      <trkpt lat="44.91159" lon="1.75849">
        <ele>125.5</ele>
        <time>2022-05-24T10:36:33Z</time>
      </trkpt>
      <trkpt lat="44.91156" lon="1.75858">
        <ele>125.5</ele>
        <time>2022-05-24T10:36:34Z</time>
      </trkpt>
      <trkpt lat="44.91155" lon="1.75868">
        <ele>125.4</ele>
        <time>2022-05-24T10:36:35Z</time>
      </trkpt>
      <trkpt lat="44.91152" lon="1.75878">
        <ele>125.4</ele>
        <time>2022-05-24T10:36:36Z</time>
      </trkpt>
      <trkpt lat="44.9115" lon="1.75887">
        <ele>125.4</ele>
        <time>2022-05-24T10:36:37Z</time>
      </trkpt>
      <trkpt lat="44.91148" lon="1.75896">
        <ele>125.5</ele>
        <time>2022-05-24T10:36:38Z</time>
      </trkpt>
      <trkpt lat="44.91145" lon="1.75905">
        <ele>125.5</ele>
        <time>2022-05-24T10:36:39Z</time>
      </trkpt>
      <trkpt lat="44.91143" lon="1.75915">
        <ele>125.5</ele>
        <time>2022-05-24T10:36:40Z</time>
      </trkpt>
      <trkpt lat="44.9114" lon="1.75924">
        <ele>125.6</ele>
        <time>2022-05-24T10:36:41Z</time>
      </trkpt>
      <trkpt lat="44.91138" lon="1.75933">
        <ele>125.6</ele>
        <time>2022-05-24T10:36:42Z</time>
      </trkpt>
      <trkpt lat="44.91136" lon="1.75942">
        <ele>125.6</ele>
        <time>2022-05-24T10:36:43Z</time>
      </trkpt>
      <trkpt lat="44.91134" lon="1.75952">
        <ele>125.7</ele>
        <time>2022-05-24T10:36:44Z</time>
      </trkpt>
      <trkpt lat="44.91133" lon="1.75961">
        <ele>125.7</ele>
        <time>2022-05-24T10:36:45Z</time>
      </trkpt>
      <trkpt lat="44.91132" lon="1.7597">
        <ele>125.7</ele>
        <time>2022-05-24T10:36:46Z</time>
      </trkpt>
      <trkpt lat="44.91132" lon="1.75979">
        <ele>125.8</ele>
        <time>2022-05-24T10:36:47Z</time>
      </trkpt>
      <trkpt lat="44.91131" lon="1.75989">
        <ele>125.8</ele>
        <time>2022-05-24T10:36:48Z</time>
      </trkpt>
      <trkpt lat="44.91131" lon="1.75998">
        <ele>125.9</ele>
        <time>2022-05-24T10:36:49Z</time>
      </trkpt>
      <trkpt lat="44.91131" lon="1.76008">
        <ele>125.9</ele>
        <time>2022-05-24T10:36:50Z</time>
      </trkpt>
      <trkpt lat="44.91131" lon="1.76017">
        <ele>125.9</ele>
        <time>2022-05-24T10:36:51Z</time>
      </trkpt>
      <trkpt lat="44.9113" lon="1.76027">
        <ele>126</ele>
        <time>2022-05-24T10:36:52Z</time>
      </trkpt>
      <trkpt lat="44.91129" lon="1.76036">
        <ele>126</ele>
        <time>2022-05-24T10:36:53Z</time>
      </trkpt>
      <trkpt lat="44.91129" lon="1.76045">
        <ele>126.1</ele>
        <time>2022-05-24T10:36:54Z</time>
      </trkpt>
      <trkpt lat="44.91127" lon="1.76054">
        <ele>126.1</ele>
        <time>2022-05-24T10:36:55Z</time>
      </trkpt>
      <trkpt lat="44.91125" lon="1.76063">
        <ele>126.1</ele>
        <time>2022-05-24T10:36:56Z</time>
      </trkpt>
      <trkpt lat="44.91124" lon="1.76073">
        <ele>126.2</ele>
        <time>2022-05-24T10:36:57Z</time>
      </trkpt>
      <trkpt lat="44.91123" lon="1.76083">
        <ele>126.2</ele>
        <time>2022-05-24T10:36:58Z</time>
      </trkpt>
      <trkpt lat="44.91122" lon="1.76092">
        <ele>126.2</ele>
        <time>2022-05-24T10:36:59Z</time>
      </trkpt>
      <trkpt lat="44.9112" lon="1.76102">
        <ele>126.2</ele>
        <time>2022-05-24T10:37:00Z</time>
      </trkpt>
      <trkpt lat="44.91118" lon="1.76112">
        <ele>126.2</ele>
        <time>2022-05-24T10:37:01Z</time>
      </trkpt>
      <trkpt lat="44.91116" lon="1.76121">
        <ele>126.2</ele>
        <time>2022-05-24T10:37:02Z</time>
      </trkpt>
      <trkpt lat="44.91114" lon="1.7613">
        <ele>126.2</ele>
        <time>2022-05-24T10:37:03Z</time>
      </trkpt>
      <trkpt lat="44.91113" lon="1.7614">
        <ele>126.3</ele>
        <time>2022-05-24T10:37:04Z</time>
      </trkpt>
      <trkpt lat="44.91111" lon="1.76149">
        <ele>126.3</ele>
        <time>2022-05-24T10:37:05Z</time>
      </trkpt>
      <trkpt lat="44.91109" lon="1.76159">
        <ele>126.3</ele>
        <time>2022-05-24T10:37:06Z</time>
      </trkpt>
      <trkpt lat="44.91107" lon="1.76169">
        <ele>126.3</ele>
        <time>2022-05-24T10:37:07Z</time>
      </trkpt>
      <trkpt lat="44.91105" lon="1.76178">
        <ele>126.3</ele>
        <time>2022-05-24T10:37:08Z</time>
      </trkpt>
      <trkpt lat="44.91103" lon="1.76188">
        <ele>126.3</ele>
        <time>2022-05-24T10:37:09Z</time>
      </trkpt>
      <trkpt lat="44.91101" lon="1.76198">
        <ele>126.3</ele>
        <time>2022-05-24T10:37:10Z</time>
      </trkpt>
      <trkpt lat="44.91099" lon="1.76208">
        <ele>126.4</ele>
        <time>2022-05-24T10:37:11Z</time>
      </trkpt>
      <trkpt lat="44.91097" lon="1.76218">
        <ele>126.4</ele>
        <time>2022-05-24T10:37:12Z</time>
      </trkpt>
      <trkpt lat="44.91096" lon="1.76228">
        <ele>126.4</ele>
        <time>2022-05-24T10:37:13Z</time>
      </trkpt>
      <trkpt lat="44.91093" lon="1.76236">
        <ele>126.4</ele>
        <time>2022-05-24T10:37:14Z</time>
      </trkpt>
      <trkpt lat="44.91091" lon="1.76244">
        <ele>126.4</ele>
        <time>2022-05-24T10:37:15Z</time>
      </trkpt>
      <trkpt lat="44.91088" lon="1.76253">
        <ele>126.5</ele>
        <time>2022-05-24T10:37:16Z</time>
      </trkpt>
      <trkpt lat="44.91086" lon="1.76263">
        <ele>126.5</ele>
        <time>2022-05-24T10:37:17Z</time>
      </trkpt>
      <trkpt lat="44.91084" lon="1.76272">
        <ele>126.5</ele>
        <time>2022-05-24T10:37:18Z</time>
      </trkpt>
      <trkpt lat="44.91082" lon="1.76283">
        <ele>126.5</ele>
        <time>2022-05-24T10:37:19Z</time>
      </trkpt>
      <trkpt lat="44.9108" lon="1.76292">
        <ele>126.6</ele>
        <time>2022-05-24T10:37:20Z</time>
      </trkpt>
      <trkpt lat="44.91078" lon="1.76301">
        <ele>126.6</ele>
        <time>2022-05-24T10:37:21Z</time>
      </trkpt>
      <trkpt lat="44.91075" lon="1.7631">
        <ele>126.6</ele>
        <time>2022-05-24T10:37:22Z</time>
      </trkpt>
      <trkpt lat="44.91073" lon="1.76319">
        <ele>126.7</ele>
        <time>2022-05-24T10:37:23Z</time>
      </trkpt>
      <trkpt lat="44.91071" lon="1.76328">
        <ele>126.7</ele>
        <time>2022-05-24T10:37:24Z</time>
      </trkpt>
      <trkpt lat="44.91069" lon="1.76337">
        <ele>126.8</ele>
        <time>2022-05-24T10:37:25Z</time>
      </trkpt>
      <trkpt lat="44.91067" lon="1.76346">
        <ele>126.9</ele>
        <time>2022-05-24T10:37:26Z</time>
      </trkpt>
      <trkpt lat="44.91065" lon="1.76354">
        <ele>126.9</ele>
        <time>2022-05-24T10:37:27Z</time>
      </trkpt>
      <trkpt lat="44.91063" lon="1.76363">
        <ele>127</ele>
        <time>2022-05-24T10:37:28Z</time>
      </trkpt>
      <trkpt lat="44.9106" lon="1.76371">
        <ele>127</ele>
        <time>2022-05-24T10:37:29Z</time>
      </trkpt>
      <trkpt lat="44.91057" lon="1.7638">
        <ele>127.1</ele>
        <time>2022-05-24T10:37:30Z</time>
      </trkpt>
      <trkpt lat="44.91053" lon="1.76387">
        <ele>127.1</ele>
        <time>2022-05-24T10:37:31Z</time>
      </trkpt>
      <trkpt lat="44.9105" lon="1.76395">
        <ele>127.1</ele>
        <time>2022-05-24T10:37:32Z</time>
      </trkpt>
      <trkpt lat="44.91048" lon="1.76403">
        <ele>127.2</ele>
        <time>2022-05-24T10:37:33Z</time>
      </trkpt>
      <trkpt lat="44.91045" lon="1.76412">
        <ele>127.2</ele>
        <time>2022-05-24T10:37:34Z</time>
      </trkpt>
      <trkpt lat="44.91043" lon="1.7642">
        <ele>127.2</ele>
        <time>2022-05-24T10:37:35Z</time>
      </trkpt>
      <trkpt lat="44.91041" lon="1.76429">
        <ele>127.2</ele>
        <time>2022-05-24T10:37:36Z</time>
      </trkpt>
      <trkpt lat="44.91038" lon="1.76438">
        <ele>127.2</ele>
        <time>2022-05-24T10:37:37Z</time>
      </trkpt>
      <trkpt lat="44.91035" lon="1.76446">
        <ele>127.2</ele>
        <time>2022-05-24T10:37:38Z</time>
      </trkpt>
      <trkpt lat="44.91033" lon="1.76455">
        <ele>127.3</ele>
        <time>2022-05-24T10:37:39Z</time>
      </trkpt>
      <trkpt lat="44.9103" lon="1.76463">
        <ele>127.3</ele>
        <time>2022-05-24T10:37:40Z</time>
      </trkpt>
      <trkpt lat="44.91028" lon="1.76472">
        <ele>127.3</ele>
        <time>2022-05-24T10:37:41Z</time>
      </trkpt>
      <trkpt lat="44.91025" lon="1.76481">
        <ele>127.3</ele>
        <time>2022-05-24T10:37:42Z</time>
      </trkpt>
      <trkpt lat="44.91022" lon="1.76488">
        <ele>127.3</ele>
        <time>2022-05-24T10:37:43Z</time>
      </trkpt>
      <trkpt lat="44.9102" lon="1.76496">
        <ele>127.3</ele>
        <time>2022-05-24T10:37:44Z</time>
      </trkpt>
      <trkpt lat="44.91017" lon="1.76505">
        <ele>127.3</ele>
        <time>2022-05-24T10:37:45Z</time>
      </trkpt>
      <trkpt lat="44.91012" lon="1.76512">
        <ele>127.3</ele>
        <time>2022-05-24T10:37:46Z</time>
      </trkpt>
      <trkpt lat="44.91008" lon="1.76519">
        <ele>127.3</ele>
        <time>2022-05-24T10:37:47Z</time>
      </trkpt>
      <trkpt lat="44.91004" lon="1.76528">
        <ele>127.3</ele>
        <time>2022-05-24T10:37:48Z</time>
      </trkpt>
      <trkpt lat="44.91" lon="1.76536">
        <ele>127.3</ele>
        <time>2022-05-24T10:37:49Z</time>
      </trkpt>
      <trkpt lat="44.90997" lon="1.76545">
        <ele>127.2</ele>
        <time>2022-05-24T10:37:50Z</time>
      </trkpt>
      <trkpt lat="44.90994" lon="1.76552">
        <ele>127.2</ele>
        <time>2022-05-24T10:37:51Z</time>
      </trkpt>
      <trkpt lat="44.9099" lon="1.7656">
        <ele>127.2</ele>
        <time>2022-05-24T10:37:52Z</time>
      </trkpt>
      <trkpt lat="44.90987" lon="1.76567">
        <ele>127.2</ele>
        <time>2022-05-24T10:37:53Z</time>
      </trkpt>
      <trkpt lat="44.90984" lon="1.76575">
        <ele>127.2</ele>
        <time>2022-05-24T10:37:54Z</time>
      </trkpt>
      <trkpt lat="44.90981" lon="1.76582">
        <ele>127.1</ele>
        <time>2022-05-24T10:37:55Z</time>
      </trkpt>
      <trkpt lat="44.90978" lon="1.76591">
        <ele>127.1</ele>
        <time>2022-05-24T10:37:56Z</time>
      </trkpt>
      <trkpt lat="44.90975" lon="1.766">
        <ele>127.1</ele>
        <time>2022-05-24T10:37:57Z</time>
      </trkpt>
      <trkpt lat="44.90973" lon="1.76609">
        <ele>127.1</ele>
        <time>2022-05-24T10:37:58Z</time>
      </trkpt>
      <trkpt lat="44.90971" lon="1.76618">
        <ele>127.1</ele>
        <time>2022-05-24T10:37:59Z</time>
      </trkpt>
      <trkpt lat="44.9097" lon="1.76629">
        <ele>127.1</ele>
        <time>2022-05-24T10:38:00Z</time>
      </trkpt>
      <trkpt lat="44.9097" lon="1.76638">
        <ele>127.1</ele>
        <time>2022-05-24T10:38:01Z</time>
      </trkpt>
      <trkpt lat="44.90972" lon="1.76648">
        <ele>127.1</ele>
        <time>2022-05-24T10:38:02Z</time>
      </trkpt>
      <trkpt lat="44.90973" lon="1.76657">
        <ele>127.1</ele>
        <time>2022-05-24T10:38:03Z</time>
      </trkpt>
      <trkpt lat="44.90975" lon="1.76666">
        <ele>127.1</ele>
        <time>2022-05-24T10:38:04Z</time>
      </trkpt>
      <trkpt lat="44.90976" lon="1.76675">
        <ele>127.1</ele>
        <time>2022-05-24T10:38:05Z</time>
      </trkpt>
      <trkpt lat="44.90978" lon="1.76684">
        <ele>127.1</ele>
        <time>2022-05-24T10:38:06Z</time>
      </trkpt>
      <trkpt lat="44.90979" lon="1.76693">
        <ele>127.1</ele>
        <time>2022-05-24T10:38:07Z</time>
      </trkpt>
      <trkpt lat="44.90981" lon="1.76703">
        <ele>127.1</ele>
        <time>2022-05-24T10:38:08Z</time>
      </trkpt>
      <trkpt lat="44.90983" lon="1.76713">
        <ele>127.1</ele>
        <time>2022-05-24T10:38:09Z</time>
      </trkpt>
      <trkpt lat="44.90986" lon="1.76722">
        <ele>127.1</ele>
        <time>2022-05-24T10:38:10Z</time>
      </trkpt>
      <trkpt lat="44.90988" lon="1.7673">
        <ele>127.1</ele>
        <time>2022-05-24T10:38:11Z</time>
      </trkpt>
      <trkpt lat="44.90989" lon="1.7674">
        <ele>127.1</ele>
        <time>2022-05-24T10:38:12Z</time>
      </trkpt>
      <trkpt lat="44.90991" lon="1.76749">
        <ele>127</ele>
        <time>2022-05-24T10:38:13Z</time>
      </trkpt>
      <trkpt lat="44.90993" lon="1.76758">
        <ele>127</ele>
        <time>2022-05-24T10:38:14Z</time>
      </trkpt>
      <trkpt lat="44.90995" lon="1.76767">
        <ele>127</ele>
        <time>2022-05-24T10:38:15Z</time>
      </trkpt>
      <trkpt lat="44.90997" lon="1.76776">
        <ele>127</ele>
        <time>2022-05-24T10:38:16Z</time>
      </trkpt>
      <trkpt lat="44.90999" lon="1.76784">
        <ele>127</ele>
        <time>2022-05-24T10:38:17Z</time>
      </trkpt>
      <trkpt lat="44.91002" lon="1.76794">
        <ele>127</ele>
        <time>2022-05-24T10:38:18Z</time>
      </trkpt>
      <trkpt lat="44.91004" lon="1.76803">
        <ele>127</ele>
        <time>2022-05-24T10:38:19Z</time>
      </trkpt>
      <trkpt lat="44.91005" lon="1.76812">
        <ele>126.9</ele>
        <time>2022-05-24T10:38:20Z</time>
      </trkpt>
      <trkpt lat="44.91007" lon="1.76821">
        <ele>126.9</ele>
        <time>2022-05-24T10:38:21Z</time>
      </trkpt>
      <trkpt lat="44.91009" lon="1.7683">
        <ele>126.9</ele>
        <time>2022-05-24T10:38:22Z</time>
      </trkpt>
      <trkpt lat="44.91011" lon="1.7684">
        <ele>126.9</ele>
        <time>2022-05-24T10:38:23Z</time>
      </trkpt>
      <trkpt lat="44.91013" lon="1.76849">
        <ele>126.9</ele>
        <time>2022-05-24T10:38:24Z</time>
      </trkpt>
      <trkpt lat="44.91014" lon="1.76858">
        <ele>126.9</ele>
        <time>2022-05-24T10:38:25Z</time>
      </trkpt>
      <trkpt lat="44.91016" lon="1.76867">
        <ele>126.9</ele>
        <time>2022-05-24T10:38:26Z</time>
      </trkpt>
      <trkpt lat="44.91018" lon="1.76876">
        <ele>126.9</ele>
        <time>2022-05-24T10:38:27Z</time>
      </trkpt>
      <trkpt lat="44.91019" lon="1.76885">
        <ele>126.9</ele>
        <time>2022-05-24T10:38:28Z</time>
      </trkpt>
      <trkpt lat="44.91021" lon="1.76893">
        <ele>126.9</ele>
        <time>2022-05-24T10:38:29Z</time>
      </trkpt>
      <trkpt lat="44.91022" lon="1.76902">
        <ele>126.9</ele>
        <time>2022-05-24T10:38:30Z</time>
      </trkpt>
      <trkpt lat="44.91023" lon="1.76911">
        <ele>126.9</ele>
        <time>2022-05-24T10:38:31Z</time>
      </trkpt>
      <trkpt lat="44.91025" lon="1.7692">
        <ele>126.9</ele>
        <time>2022-05-24T10:38:32Z</time>
      </trkpt>
      <trkpt lat="44.91027" lon="1.76929">
        <ele>126.9</ele>
        <time>2022-05-24T10:38:33Z</time>
      </trkpt>
      <trkpt lat="44.91028" lon="1.76938">
        <ele>126.9</ele>
        <time>2022-05-24T10:38:34Z</time>
      </trkpt>
      <trkpt lat="44.9103" lon="1.76947">
        <ele>126.9</ele>
        <time>2022-05-24T10:38:35Z</time>
      </trkpt>
      <trkpt lat="44.91031" lon="1.76956">
        <ele>126.9</ele>
        <time>2022-05-24T10:38:36Z</time>
      </trkpt>
      <trkpt lat="44.91032" lon="1.76966">
        <ele>126.9</ele>
        <time>2022-05-24T10:38:37Z</time>
      </trkpt>
      <trkpt lat="44.91033" lon="1.76974">
        <ele>126.9</ele>
        <time>2022-05-24T10:38:38Z</time>
      </trkpt>
      <trkpt lat="44.91034" lon="1.76983">
        <ele>126.9</ele>
        <time>2022-05-24T10:38:39Z</time>
      </trkpt>
      <trkpt lat="44.91035" lon="1.76992">
        <ele>126.9</ele>
        <time>2022-05-24T10:38:40Z</time>
      </trkpt>
      <trkpt lat="44.91035" lon="1.77001">
        <ele>126.9</ele>
        <time>2022-05-24T10:38:41Z</time>
      </trkpt>
      <trkpt lat="44.91035" lon="1.7701">
        <ele>126.9</ele>
        <time>2022-05-24T10:38:42Z</time>
      </trkpt>
      <trkpt lat="44.91035" lon="1.77019">
        <ele>126.9</ele>
        <time>2022-05-24T10:38:43Z</time>
      </trkpt>
      <trkpt lat="44.91036" lon="1.77028">
        <ele>126.9</ele>
        <time>2022-05-24T10:38:44Z</time>
      </trkpt>
      <trkpt lat="44.91037" lon="1.77038">
        <ele>126.9</ele>
        <time>2022-05-24T10:38:45Z</time>
      </trkpt>
      <trkpt lat="44.91038" lon="1.77047">
        <ele>127</ele>
        <time>2022-05-24T10:38:46Z</time>
      </trkpt>
      <trkpt lat="44.91039" lon="1.77056">
        <ele>127</ele>
        <time>2022-05-24T10:38:47Z</time>
      </trkpt>
      <trkpt lat="44.9104" lon="1.77065">
        <ele>127</ele>
        <time>2022-05-24T10:38:48Z</time>
      </trkpt>
      <trkpt lat="44.91041" lon="1.77075">
        <ele>127</ele>
        <time>2022-05-24T10:38:49Z</time>
      </trkpt>
      <trkpt lat="44.91042" lon="1.77084">
        <ele>127</ele>
        <time>2022-05-24T10:38:50Z</time>
      </trkpt>
      <trkpt lat="44.91043" lon="1.77094">
        <ele>127</ele>
        <time>2022-05-24T10:38:51Z</time>
      </trkpt>
      <trkpt lat="44.91043" lon="1.77103">
        <ele>127</ele>
        <time>2022-05-24T10:38:52Z</time>
      </trkpt>
      <trkpt lat="44.91044" lon="1.77112">
        <ele>127</ele>
        <time>2022-05-24T10:38:53Z</time>
      </trkpt>
      <trkpt lat="44.91045" lon="1.7712">
        <ele>127.1</ele>
        <time>2022-05-24T10:38:54Z</time>
      </trkpt>
      <trkpt lat="44.91046" lon="1.7713">
        <ele>127.1</ele>
        <time>2022-05-24T10:38:55Z</time>
      </trkpt>
      <trkpt lat="44.91046" lon="1.77139">
        <ele>127.1</ele>
        <time>2022-05-24T10:38:56Z</time>
      </trkpt>
      <trkpt lat="44.91047" lon="1.77148">
        <ele>127.1</ele>
        <time>2022-05-24T10:38:57Z</time>
      </trkpt>
      <trkpt lat="44.91048" lon="1.77157">
        <ele>127.1</ele>
        <time>2022-05-24T10:38:58Z</time>
      </trkpt>
      <trkpt lat="44.91049" lon="1.77167">
        <ele>127.1</ele>
        <time>2022-05-24T10:38:59Z</time>
      </trkpt>
      <trkpt lat="44.91051" lon="1.77176">
        <ele>127.1</ele>
        <time>2022-05-24T10:39:00Z</time>
      </trkpt>
      <trkpt lat="44.91052" lon="1.77186">
        <ele>127.2</ele>
        <time>2022-05-24T10:39:01Z</time>
      </trkpt>
      <trkpt lat="44.91053" lon="1.77195">
        <ele>127.2</ele>
        <time>2022-05-24T10:39:02Z</time>
      </trkpt>
      <trkpt lat="44.91054" lon="1.77204">
        <ele>127.2</ele>
        <time>2022-05-24T10:39:03Z</time>
      </trkpt>
      <trkpt lat="44.91056" lon="1.77213">
        <ele>127.2</ele>
        <time>2022-05-24T10:39:04Z</time>
      </trkpt>
      <trkpt lat="44.91057" lon="1.77223">
        <ele>127.2</ele>
        <time>2022-05-24T10:39:05Z</time>
      </trkpt>
      <trkpt lat="44.91059" lon="1.77233">
        <ele>127.2</ele>
        <time>2022-05-24T10:39:06Z</time>
      </trkpt>
      <trkpt lat="44.91061" lon="1.77242">
        <ele>127.2</ele>
        <time>2022-05-24T10:39:07Z</time>
      </trkpt>
      <trkpt lat="44.91062" lon="1.77251">
        <ele>127.2</ele>
        <time>2022-05-24T10:39:08Z</time>
      </trkpt>
      <trkpt lat="44.91064" lon="1.7726">
        <ele>127.2</ele>
        <time>2022-05-24T10:39:09Z</time>
      </trkpt>
      <trkpt lat="44.91065" lon="1.7727">
        <ele>127.2</ele>
        <time>2022-05-24T10:39:10Z</time>
      </trkpt>
      <trkpt lat="44.91067" lon="1.7728">
        <ele>127.2</ele>
        <time>2022-05-24T10:39:11Z</time>
      </trkpt>
      <trkpt lat="44.91069" lon="1.7729">
        <ele>127.2</ele>
        <time>2022-05-24T10:39:12Z</time>
      </trkpt>
      <trkpt lat="44.91071" lon="1.77299">
        <ele>127.2</ele>
        <time>2022-05-24T10:39:13Z</time>
      </trkpt>
      <trkpt lat="44.91072" lon="1.77308">
        <ele>127.2</ele>
        <time>2022-05-24T10:39:14Z</time>
      </trkpt>
      <trkpt lat="44.91073" lon="1.77316">
        <ele>127.2</ele>
        <time>2022-05-24T10:39:15Z</time>
      </trkpt>
      <trkpt lat="44.91075" lon="1.77326">
        <ele>127.3</ele>
        <time>2022-05-24T10:39:16Z</time>
      </trkpt>
      <trkpt lat="44.91077" lon="1.77335">
        <ele>127.3</ele>
        <time>2022-05-24T10:39:17Z</time>
      </trkpt>
      <trkpt lat="44.91079" lon="1.77344">
        <ele>127.3</ele>
        <time>2022-05-24T10:39:18Z</time>
      </trkpt>
      <trkpt lat="44.91081" lon="1.77353">
        <ele>127.4</ele>
        <time>2022-05-24T10:39:19Z</time>
      </trkpt>
      <trkpt lat="44.91083" lon="1.77363">
        <ele>127.4</ele>
        <time>2022-05-24T10:39:20Z</time>
      </trkpt>
      <trkpt lat="44.91085" lon="1.77372">
        <ele>127.5</ele>
        <time>2022-05-24T10:39:21Z</time>
      </trkpt>
      <trkpt lat="44.91087" lon="1.77381">
        <ele>127.5</ele>
        <time>2022-05-24T10:39:22Z</time>
      </trkpt>
      <trkpt lat="44.9109" lon="1.7739">
        <ele>127.5</ele>
        <time>2022-05-24T10:39:23Z</time>
      </trkpt>
      <trkpt lat="44.91093" lon="1.77398">
        <ele>127.5</ele>
        <time>2022-05-24T10:39:24Z</time>
      </trkpt>
      <trkpt lat="44.91095" lon="1.77406">
        <ele>127.5</ele>
        <time>2022-05-24T10:39:25Z</time>
      </trkpt>
      <trkpt lat="44.91099" lon="1.77415">
        <ele>127.4</ele>
        <time>2022-05-24T10:39:26Z</time>
      </trkpt>
      <trkpt lat="44.91102" lon="1.77423">
        <ele>127.4</ele>
        <time>2022-05-24T10:39:27Z</time>
      </trkpt>
      <trkpt lat="44.91105" lon="1.77431">
        <ele>127.4</ele>
        <time>2022-05-24T10:39:28Z</time>
      </trkpt>
      <trkpt lat="44.91108" lon="1.77439">
        <ele>127.4</ele>
        <time>2022-05-24T10:39:29Z</time>
      </trkpt>
      <trkpt lat="44.91111" lon="1.77449">
        <ele>127.4</ele>
        <time>2022-05-24T10:39:30Z</time>
      </trkpt>
      <trkpt lat="44.91115" lon="1.77457">
        <ele>127.4</ele>
        <time>2022-05-24T10:39:31Z</time>
      </trkpt>
      <trkpt lat="44.91119" lon="1.77465">
        <ele>127.5</ele>
        <time>2022-05-24T10:39:32Z</time>
      </trkpt>
      <trkpt lat="44.91123" lon="1.77473">
        <ele>127.5</ele>
        <time>2022-05-24T10:39:33Z</time>
      </trkpt>
      <trkpt lat="44.91126" lon="1.77481">
        <ele>127.5</ele>
        <time>2022-05-24T10:39:34Z</time>
      </trkpt>
      <trkpt lat="44.9113" lon="1.77488">
        <ele>127.6</ele>
        <time>2022-05-24T10:39:35Z</time>
      </trkpt>
      <trkpt lat="44.91133" lon="1.77496">
        <ele>127.6</ele>
        <time>2022-05-24T10:39:36Z</time>
      </trkpt>
      <trkpt lat="44.91136" lon="1.77504">
        <ele>127.6</ele>
        <time>2022-05-24T10:39:37Z</time>
      </trkpt>
      <trkpt lat="44.9114" lon="1.77512">
        <ele>127.7</ele>
        <time>2022-05-24T10:39:38Z</time>
      </trkpt>
      <trkpt lat="44.91144" lon="1.7752">
        <ele>127.8</ele>
        <time>2022-05-24T10:39:39Z</time>
      </trkpt>
      <trkpt lat="44.91148" lon="1.77527">
        <ele>127.9</ele>
        <time>2022-05-24T10:39:40Z</time>
      </trkpt>
      <trkpt lat="44.91152" lon="1.77534">
        <ele>127.9</ele>
        <time>2022-05-24T10:39:41Z</time>
      </trkpt>
      <trkpt lat="44.91155" lon="1.77541">
        <ele>128</ele>
        <time>2022-05-24T10:39:42Z</time>
      </trkpt>
      <trkpt lat="44.91159" lon="1.77549">
        <ele>128.1</ele>
        <time>2022-05-24T10:39:43Z</time>
      </trkpt>
      <trkpt lat="44.91163" lon="1.77556">
        <ele>128.2</ele>
        <time>2022-05-24T10:39:44Z</time>
      </trkpt>
      <trkpt lat="44.91167" lon="1.77562">
        <ele>128.2</ele>
        <time>2022-05-24T10:39:45Z</time>
      </trkpt>
      <trkpt lat="44.91171" lon="1.7757">
        <ele>128.2</ele>
        <time>2022-05-24T10:39:46Z</time>
      </trkpt>
      <trkpt lat="44.91175" lon="1.77577">
        <ele>128.3</ele>
        <time>2022-05-24T10:39:47Z</time>
      </trkpt>
      <trkpt lat="44.91179" lon="1.77584">
        <ele>128.4</ele>
        <time>2022-05-24T10:39:48Z</time>
      </trkpt>
      <trkpt lat="44.91182" lon="1.77591">
        <ele>128.4</ele>
        <time>2022-05-24T10:39:49Z</time>
      </trkpt>
      <trkpt lat="44.91186" lon="1.77598">
        <ele>128.5</ele>
        <time>2022-05-24T10:39:50Z</time>
      </trkpt>
      <trkpt lat="44.91189" lon="1.77605">
        <ele>128.6</ele>
        <time>2022-05-24T10:39:51Z</time>
      </trkpt>
      <trkpt lat="44.91193" lon="1.77612">
        <ele>128.6</ele>
        <time>2022-05-24T10:39:52Z</time>
      </trkpt>
      <trkpt lat="44.91196" lon="1.7762">
        <ele>128.7</ele>
        <time>2022-05-24T10:39:53Z</time>
      </trkpt>
      <trkpt lat="44.91199" lon="1.77629">
        <ele>128.7</ele>
        <time>2022-05-24T10:39:54Z</time>
      </trkpt>
      <trkpt lat="44.91202" lon="1.77639">
        <ele>128.8</ele>
        <time>2022-05-24T10:39:55Z</time>
      </trkpt>
      <trkpt lat="44.91205" lon="1.77648">
        <ele>128.8</ele>
        <time>2022-05-24T10:39:56Z</time>
      </trkpt>
      <trkpt lat="44.91208" lon="1.77657">
        <ele>128.8</ele>
        <time>2022-05-24T10:39:57Z</time>
      </trkpt>
      <trkpt lat="44.9121" lon="1.77664">
        <ele>128.8</ele>
        <time>2022-05-24T10:39:58Z</time>
      </trkpt>
      <trkpt lat="44.91213" lon="1.77671">
        <ele>128.8</ele>
        <time>2022-05-24T10:39:59Z</time>
      </trkpt>
      <trkpt lat="44.91216" lon="1.77679">
        <ele>128.9</ele>
        <time>2022-05-24T10:40:00Z</time>
      </trkpt>
      <trkpt lat="44.91219" lon="1.77688">
        <ele>128.9</ele>
        <time>2022-05-24T10:40:01Z</time>
      </trkpt>
      <trkpt lat="44.91221" lon="1.77696">
        <ele>128.9</ele>
        <time>2022-05-24T10:40:02Z</time>
      </trkpt>
      <trkpt lat="44.91224" lon="1.77703">
        <ele>129</ele>
        <time>2022-05-24T10:40:03Z</time>
      </trkpt>
      <trkpt lat="44.91226" lon="1.77711">
        <ele>129</ele>
        <time>2022-05-24T10:40:04Z</time>
      </trkpt>
      <trkpt lat="44.91228" lon="1.77719">
        <ele>129</ele>
        <time>2022-05-24T10:40:05Z</time>
      </trkpt>
      <trkpt lat="44.91231" lon="1.77727">
        <ele>129</ele>
        <time>2022-05-24T10:40:06Z</time>
      </trkpt>
      <trkpt lat="44.91232" lon="1.77736">
        <ele>129</ele>
        <time>2022-05-24T10:40:07Z</time>
      </trkpt>
      <trkpt lat="44.91234" lon="1.77745">
        <ele>129</ele>
        <time>2022-05-24T10:40:08Z</time>
      </trkpt>
      <trkpt lat="44.91233" lon="1.77753">
        <ele>129.1</ele>
        <time>2022-05-24T10:40:09Z</time>
      </trkpt>
      <trkpt lat="44.91234" lon="1.77761">
        <ele>129.1</ele>
        <time>2022-05-24T10:40:10Z</time>
      </trkpt>
      <trkpt lat="44.91234" lon="1.7777">
        <ele>129.1</ele>
        <time>2022-05-24T10:40:11Z</time>
      </trkpt>
      <trkpt lat="44.91235" lon="1.77779">
        <ele>129.1</ele>
        <time>2022-05-24T10:40:12Z</time>
      </trkpt>
      <trkpt lat="44.91236" lon="1.77788">
        <ele>129.1</ele>
        <time>2022-05-24T10:40:13Z</time>
      </trkpt>
      <trkpt lat="44.91238" lon="1.77795">
        <ele>129.2</ele>
        <time>2022-05-24T10:40:14Z</time>
      </trkpt>
      <trkpt lat="44.9124" lon="1.77804">
        <ele>129.2</ele>
        <time>2022-05-24T10:40:15Z</time>
      </trkpt>
      <trkpt lat="44.91243" lon="1.7781">
        <ele>129.3</ele>
        <time>2022-05-24T10:40:16Z</time>
      </trkpt>
      <trkpt lat="44.91247" lon="1.77816">
        <ele>129.3</ele>
        <time>2022-05-24T10:40:17Z</time>
      </trkpt>
      <trkpt lat="44.9125" lon="1.7782">
        <ele>129.4</ele>
        <time>2022-05-24T10:40:18Z</time>
      </trkpt>
      <trkpt lat="44.91252" lon="1.77823">
        <ele>129.4</ele>
        <time>2022-05-24T10:40:19Z</time>
      </trkpt>
      <trkpt lat="44.91255" lon="1.77826">
        <ele>129.4</ele>
        <time>2022-05-24T10:40:20Z</time>
      </trkpt>
      <trkpt lat="44.91258" lon="1.77829">
        <ele>129.5</ele>
        <time>2022-05-24T10:40:21Z</time>
      </trkpt>
      <trkpt lat="44.9126" lon="1.77832">
        <ele>129.5</ele>
        <time>2022-05-24T10:40:22Z</time>
      </trkpt>
      <trkpt lat="44.91263" lon="1.77837">
        <ele>129.5</ele>
        <time>2022-05-24T10:40:23Z</time>
      </trkpt>
      <trkpt lat="44.91266" lon="1.77842">
        <ele>129.4</ele>
        <time>2022-05-24T10:40:24Z</time>
      </trkpt>
      <trkpt lat="44.91269" lon="1.77847">
        <ele>129.4</ele>
        <time>2022-05-24T10:40:25Z</time>
      </trkpt>
      <trkpt lat="44.91273" lon="1.77852">
        <ele>129.3</ele>
        <time>2022-05-24T10:40:26Z</time>
      </trkpt>
      <trkpt lat="44.91277" lon="1.77857">
        <ele>129.2</ele>
        <time>2022-05-24T10:40:27Z</time>
      </trkpt>
      <trkpt lat="44.91281" lon="1.77863">
        <ele>129.1</ele>
        <time>2022-05-24T10:40:28Z</time>
      </trkpt>
      <trkpt lat="44.91285" lon="1.77869">
        <ele>128.9</ele>
        <time>2022-05-24T10:40:29Z</time>
      </trkpt>
      <trkpt lat="44.91289" lon="1.77878">
        <ele>128.6</ele>
        <time>2022-05-24T10:40:30Z</time>
      </trkpt>
      <trkpt lat="44.91293" lon="1.77888">
        <ele>128.4</ele>
        <time>2022-05-24T10:40:31Z</time>
      </trkpt>
      <trkpt lat="44.91296" lon="1.77897">
        <ele>128.2</ele>
        <time>2022-05-24T10:40:32Z</time>
      </trkpt>
      <trkpt lat="44.91299" lon="1.77905">
        <ele>128</ele>
        <time>2022-05-24T10:40:33Z</time>
      </trkpt>
      <trkpt lat="44.91302" lon="1.77912">
        <ele>127.9</ele>
        <time>2022-05-24T10:40:34Z</time>
      </trkpt>
      <trkpt lat="44.91306" lon="1.77919">
        <ele>127.9</ele>
        <time>2022-05-24T10:40:35Z</time>
      </trkpt>
      <trkpt lat="44.91309" lon="1.77927">
        <ele>127.9</ele>
        <time>2022-05-24T10:40:36Z</time>
      </trkpt>
      <trkpt lat="44.91312" lon="1.77935">
        <ele>127.9</ele>
        <time>2022-05-24T10:40:37Z</time>
      </trkpt>
      <trkpt lat="44.91315" lon="1.77943">
        <ele>127.9</ele>
        <time>2022-05-24T10:40:38Z</time>
      </trkpt>
      <trkpt lat="44.91318" lon="1.77951">
        <ele>127.9</ele>
        <time>2022-05-24T10:40:39Z</time>
      </trkpt>
      <trkpt lat="44.91321" lon="1.77959">
        <ele>127.9</ele>
        <time>2022-05-24T10:40:40Z</time>
      </trkpt>
      <trkpt lat="44.91323" lon="1.77966">
        <ele>127.9</ele>
        <time>2022-05-24T10:40:41Z</time>
      </trkpt>
      <trkpt lat="44.91326" lon="1.77974">
        <ele>127.9</ele>
        <time>2022-05-24T10:40:42Z</time>
      </trkpt>
      <trkpt lat="44.91329" lon="1.77982">
        <ele>127.9</ele>
        <time>2022-05-24T10:40:43Z</time>
      </trkpt>
      <trkpt lat="44.91332" lon="1.7799">
        <ele>127.9</ele>
        <time>2022-05-24T10:40:44Z</time>
      </trkpt>
      <trkpt lat="44.91335" lon="1.77998">
        <ele>127.9</ele>
        <time>2022-05-24T10:40:45Z</time>
      </trkpt>
      <trkpt lat="44.91339" lon="1.78006">
        <ele>127.9</ele>
        <time>2022-05-24T10:40:46Z</time>
      </trkpt>
      <trkpt lat="44.91342" lon="1.78014">
        <ele>127.9</ele>
        <time>2022-05-24T10:40:47Z</time>
      </trkpt>
      <trkpt lat="44.91344" lon="1.78023">
        <ele>127.9</ele>
        <time>2022-05-24T10:40:48Z</time>
      </trkpt>
      <trkpt lat="44.91347" lon="1.7803">
        <ele>128</ele>
        <time>2022-05-24T10:40:49Z</time>
      </trkpt>
      <trkpt lat="44.9135" lon="1.78037">
        <ele>128</ele>
        <time>2022-05-24T10:40:50Z</time>
      </trkpt>
      <trkpt lat="44.91353" lon="1.78044">
        <ele>128</ele>
        <time>2022-05-24T10:40:51Z</time>
      </trkpt>
      <trkpt lat="44.91357" lon="1.7805">
        <ele>128</ele>
        <time>2022-05-24T10:40:52Z</time>
      </trkpt>
      <trkpt lat="44.9136" lon="1.78058">
        <ele>128</ele>
        <time>2022-05-24T10:40:53Z</time>
      </trkpt>
      <trkpt lat="44.91363" lon="1.78065">
        <ele>128</ele>
        <time>2022-05-24T10:40:54Z</time>
      </trkpt>
      <trkpt lat="44.91366" lon="1.78072">
        <ele>128</ele>
        <time>2022-05-24T10:40:55Z</time>
      </trkpt>
      <trkpt lat="44.91368" lon="1.7808">
        <ele>128</ele>
        <time>2022-05-24T10:40:56Z</time>
      </trkpt>
      <trkpt lat="44.91372" lon="1.78087">
        <ele>128.1</ele>
        <time>2022-05-24T10:40:57Z</time>
      </trkpt>
      <trkpt lat="44.91375" lon="1.78094">
        <ele>128.1</ele>
        <time>2022-05-24T10:40:58Z</time>
      </trkpt>
      <trkpt lat="44.91378" lon="1.78102">
        <ele>128.1</ele>
        <time>2022-05-24T10:40:59Z</time>
      </trkpt>
      <trkpt lat="44.91382" lon="1.78109">
        <ele>128.2</ele>
        <time>2022-05-24T10:41:00Z</time>
      </trkpt>
      <trkpt lat="44.91385" lon="1.78117">
        <ele>128.2</ele>
        <time>2022-05-24T10:41:01Z</time>
      </trkpt>
      <trkpt lat="44.91389" lon="1.78123">
        <ele>128.2</ele>
        <time>2022-05-24T10:41:02Z</time>
      </trkpt>
      <trkpt lat="44.91392" lon="1.7813">
        <ele>128.2</ele>
        <time>2022-05-24T10:41:03Z</time>
      </trkpt>
      <trkpt lat="44.91395" lon="1.78137">
        <ele>128.2</ele>
        <time>2022-05-24T10:41:04Z</time>
      </trkpt>
      <trkpt lat="44.91399" lon="1.78143">
        <ele>128.2</ele>
        <time>2022-05-24T10:41:05Z</time>
      </trkpt>
      <trkpt lat="44.91402" lon="1.78152">
        <ele>128.2</ele>
        <time>2022-05-24T10:41:06Z</time>
      </trkpt>
      <trkpt lat="44.91405" lon="1.78161">
        <ele>128.2</ele>
        <time>2022-05-24T10:41:07Z</time>
      </trkpt>
      <trkpt lat="44.91409" lon="1.78168">
        <ele>128.2</ele>
        <time>2022-05-24T10:41:08Z</time>
      </trkpt>
      <trkpt lat="44.91413" lon="1.78175">
        <ele>128.3</ele>
        <time>2022-05-24T10:41:09Z</time>
      </trkpt>
      <trkpt lat="44.91416" lon="1.78184">
        <ele>128.3</ele>
        <time>2022-05-24T10:41:10Z</time>
      </trkpt>
      <trkpt lat="44.9142" lon="1.78191">
        <ele>128.3</ele>
        <time>2022-05-24T10:41:11Z</time>
      </trkpt>
      <trkpt lat="44.91423" lon="1.78199">
        <ele>128.3</ele>
        <time>2022-05-24T10:41:12Z</time>
      </trkpt>
      <trkpt lat="44.91426" lon="1.78206">
        <ele>128.3</ele>
        <time>2022-05-24T10:41:13Z</time>
      </trkpt>
      <trkpt lat="44.9143" lon="1.78213">
        <ele>128.3</ele>
        <time>2022-05-24T10:41:14Z</time>
      </trkpt>
      <trkpt lat="44.91433" lon="1.78221">
        <ele>128.3</ele>
        <time>2022-05-24T10:41:15Z</time>
      </trkpt>
      <trkpt lat="44.91437" lon="1.78227">
        <ele>128.3</ele>
        <time>2022-05-24T10:41:16Z</time>
      </trkpt>
      <trkpt lat="44.9144" lon="1.78234">
        <ele>128.4</ele>
        <time>2022-05-24T10:41:17Z</time>
      </trkpt>
      <trkpt lat="44.91443" lon="1.78242">
        <ele>128.4</ele>
        <time>2022-05-24T10:41:18Z</time>
      </trkpt>
      <trkpt lat="44.91446" lon="1.7825">
        <ele>128.4</ele>
        <time>2022-05-24T10:41:19Z</time>
      </trkpt>
      <trkpt lat="44.91449" lon="1.7826">
        <ele>128.4</ele>
        <time>2022-05-24T10:41:20Z</time>
      </trkpt>
      <trkpt lat="44.91452" lon="1.78267">
        <ele>128.4</ele>
        <time>2022-05-24T10:41:21Z</time>
      </trkpt>
      <trkpt lat="44.91455" lon="1.78275">
        <ele>128.4</ele>
        <time>2022-05-24T10:41:22Z</time>
      </trkpt>
      <trkpt lat="44.91459" lon="1.78282">
        <ele>128.4</ele>
        <time>2022-05-24T10:41:23Z</time>
      </trkpt>
      <trkpt lat="44.91463" lon="1.7829">
        <ele>128.4</ele>
        <time>2022-05-24T10:41:24Z</time>
      </trkpt>
      <trkpt lat="44.91466" lon="1.78297">
        <ele>128.3</ele>
        <time>2022-05-24T10:41:25Z</time>
      </trkpt>
      <trkpt lat="44.9147" lon="1.78305">
        <ele>128.3</ele>
        <time>2022-05-24T10:41:26Z</time>
      </trkpt>
      <trkpt lat="44.91474" lon="1.78311">
        <ele>128.3</ele>
        <time>2022-05-24T10:41:27Z</time>
      </trkpt>
      <trkpt lat="44.91478" lon="1.78317">
        <ele>128.3</ele>
        <time>2022-05-24T10:41:28Z</time>
      </trkpt>
      <trkpt lat="44.91481" lon="1.78325">
        <ele>128.4</ele>
        <time>2022-05-24T10:41:29Z</time>
      </trkpt>
      <trkpt lat="44.91485" lon="1.78332">
        <ele>128.4</ele>
        <time>2022-05-24T10:41:30Z</time>
      </trkpt>
      <trkpt lat="44.91489" lon="1.7834">
        <ele>128.4</ele>
        <time>2022-05-24T10:41:31Z</time>
      </trkpt>
      <trkpt lat="44.91493" lon="1.78347">
        <ele>128.4</ele>
        <time>2022-05-24T10:41:32Z</time>
      </trkpt>
      <trkpt lat="44.91496" lon="1.78354">
        <ele>128.4</ele>
        <time>2022-05-24T10:41:33Z</time>
      </trkpt>
      <trkpt lat="44.915" lon="1.78363">
        <ele>128.4</ele>
        <time>2022-05-24T10:41:34Z</time>
      </trkpt>
      <trkpt lat="44.91503" lon="1.7837">
        <ele>128.5</ele>
        <time>2022-05-24T10:41:35Z</time>
      </trkpt>
      <trkpt lat="44.91506" lon="1.78378">
        <ele>128.5</ele>
        <time>2022-05-24T10:41:36Z</time>
      </trkpt>
      <trkpt lat="44.9151" lon="1.78385">
        <ele>128.5</ele>
        <time>2022-05-24T10:41:37Z</time>
      </trkpt>
      <trkpt lat="44.91514" lon="1.78391">
        <ele>128.6</ele>
        <time>2022-05-24T10:41:38Z</time>
      </trkpt>
      <trkpt lat="44.91519" lon="1.784">
        <ele>128.7</ele>
        <time>2022-05-24T10:41:39Z</time>
      </trkpt>
      <trkpt lat="44.91523" lon="1.78408">
        <ele>128.7</ele>
        <time>2022-05-24T10:41:40Z</time>
      </trkpt>
      <trkpt lat="44.91527" lon="1.78416">
        <ele>128.7</ele>
        <time>2022-05-24T10:41:41Z</time>
      </trkpt>
      <trkpt lat="44.91531" lon="1.78423">
        <ele>128.8</ele>
        <time>2022-05-24T10:41:42Z</time>
      </trkpt>
      <trkpt lat="44.91535" lon="1.78429">
        <ele>128.8</ele>
        <time>2022-05-24T10:41:43Z</time>
      </trkpt>
      <trkpt lat="44.91539" lon="1.78435">
        <ele>128.9</ele>
        <time>2022-05-24T10:41:44Z</time>
      </trkpt>
      <trkpt lat="44.91543" lon="1.78442">
        <ele>129</ele>
        <time>2022-05-24T10:41:45Z</time>
      </trkpt>
      <trkpt lat="44.91546" lon="1.78449">
        <ele>129</ele>
        <time>2022-05-24T10:41:46Z</time>
      </trkpt>
      <trkpt lat="44.9155" lon="1.78455">
        <ele>129.1</ele>
        <time>2022-05-24T10:41:47Z</time>
      </trkpt>
      <trkpt lat="44.91554" lon="1.78464">
        <ele>129.2</ele>
        <time>2022-05-24T10:41:48Z</time>
      </trkpt>
      <trkpt lat="44.91558" lon="1.78471">
        <ele>129.4</ele>
        <time>2022-05-24T10:41:49Z</time>
      </trkpt>
      <trkpt lat="44.91562" lon="1.78477">
        <ele>129.5</ele>
        <time>2022-05-24T10:41:50Z</time>
      </trkpt>
      <trkpt lat="44.91565" lon="1.78483">
        <ele>129.6</ele>
        <time>2022-05-24T10:41:51Z</time>
      </trkpt>
      <trkpt lat="44.91569" lon="1.78489">
        <ele>129.8</ele>
        <time>2022-05-24T10:41:52Z</time>
      </trkpt>
      <trkpt lat="44.91572" lon="1.78495">
        <ele>130</ele>
        <time>2022-05-24T10:41:53Z</time>
      </trkpt>
      <trkpt lat="44.91575" lon="1.78502">
        <ele>130.2</ele>
        <time>2022-05-24T10:41:54Z</time>
      </trkpt>
      <trkpt lat="44.91578" lon="1.78508">
        <ele>130.4</ele>
        <time>2022-05-24T10:41:55Z</time>
      </trkpt>
      <trkpt lat="44.91581" lon="1.78514">
        <ele>130.7</ele>
        <time>2022-05-24T10:41:56Z</time>
      </trkpt>
      <trkpt lat="44.91584" lon="1.7852">
        <ele>130.9</ele>
        <time>2022-05-24T10:41:57Z</time>
      </trkpt>
      <trkpt lat="44.91587" lon="1.78526">
        <ele>131.2</ele>
        <time>2022-05-24T10:41:58Z</time>
      </trkpt>
      <trkpt lat="44.9159" lon="1.78531">
        <ele>131.3</ele>
        <time>2022-05-24T10:41:59Z</time>
      </trkpt>
      <trkpt lat="44.91593" lon="1.78536">
        <ele>131.4</ele>
        <time>2022-05-24T10:42:00Z</time>
      </trkpt>
      <trkpt lat="44.91595" lon="1.78541">
        <ele>131.4</ele>
        <time>2022-05-24T10:42:01Z</time>
      </trkpt>
      <trkpt lat="44.91598" lon="1.78547">
        <ele>131.8</ele>
        <time>2022-05-24T10:42:02Z</time>
      </trkpt>
      <trkpt lat="44.916" lon="1.78553">
        <ele>132.1</ele>
        <time>2022-05-24T10:42:03Z</time>
      </trkpt>
      <trkpt lat="44.91603" lon="1.78558">
        <ele>132.5</ele>
        <time>2022-05-24T10:42:04Z</time>
      </trkpt>
      <trkpt lat="44.91605" lon="1.78563">
        <ele>132.8</ele>
        <time>2022-05-24T10:42:05Z</time>
      </trkpt>
      <trkpt lat="44.91607" lon="1.78567">
        <ele>133.1</ele>
        <time>2022-05-24T10:42:06Z</time>
      </trkpt>
      <trkpt lat="44.9161" lon="1.78571">
        <ele>133.5</ele>
        <time>2022-05-24T10:42:07Z</time>
      </trkpt>
      <trkpt lat="44.91611" lon="1.78574">
        <ele>133.8</ele>
        <time>2022-05-24T10:42:08Z</time>
      </trkpt>
      <trkpt lat="44.91613" lon="1.78579">
        <ele>134.1</ele>
        <time>2022-05-24T10:42:09Z</time>
      </trkpt>
      <trkpt lat="44.91615" lon="1.78584">
        <ele>134.5</ele>
        <time>2022-05-24T10:42:10Z</time>
      </trkpt>
      <trkpt lat="44.91617" lon="1.7859">
        <ele>134.9</ele>
        <time>2022-05-24T10:42:11Z</time>
      </trkpt>
      <trkpt lat="44.91618" lon="1.78596">
        <ele>135.2</ele>
        <time>2022-05-24T10:42:12Z</time>
      </trkpt>
      <trkpt lat="44.91619" lon="1.78602">
        <ele>135.4</ele>
        <time>2022-05-24T10:42:13Z</time>
      </trkpt>
      <trkpt lat="44.9162" lon="1.78607">
        <ele>135.7</ele>
        <time>2022-05-24T10:42:14Z</time>
      </trkpt>
      <trkpt lat="44.9162" lon="1.78612">
        <ele>135.9</ele>
        <time>2022-05-24T10:42:15Z</time>
      </trkpt>
      <trkpt lat="44.9162" lon="1.78618">
        <ele>136.2</ele>
        <time>2022-05-24T10:42:16Z</time>
      </trkpt>
      <trkpt lat="44.9162" lon="1.78623">
        <ele>136.5</ele>
        <time>2022-05-24T10:42:17Z</time>
      </trkpt>
      <trkpt lat="44.9162" lon="1.78629">
        <ele>136.7</ele>
        <time>2022-05-24T10:42:18Z</time>
      </trkpt>
      <trkpt lat="44.91619" lon="1.78635">
        <ele>137</ele>
        <time>2022-05-24T10:42:19Z</time>
      </trkpt>
      <trkpt lat="44.91618" lon="1.7864">
        <ele>137.3</ele>
        <time>2022-05-24T10:42:20Z</time>
      </trkpt>
      <trkpt lat="44.91617" lon="1.78645">
        <ele>137.5</ele>
        <time>2022-05-24T10:42:21Z</time>
      </trkpt>
      <trkpt lat="44.91616" lon="1.78649">
        <ele>137.7</ele>
        <time>2022-05-24T10:42:22Z</time>
      </trkpt>
      <trkpt lat="44.91615" lon="1.78654">
        <ele>138</ele>
        <time>2022-05-24T10:42:23Z</time>
      </trkpt>
      <trkpt lat="44.91613" lon="1.78658">
        <ele>138.2</ele>
        <time>2022-05-24T10:42:24Z</time>
      </trkpt>
      <trkpt lat="44.91612" lon="1.78663">
        <ele>138.4</ele>
        <time>2022-05-24T10:42:25Z</time>
      </trkpt>
      <trkpt lat="44.9161" lon="1.78667">
        <ele>138.6</ele>
        <time>2022-05-24T10:42:26Z</time>
      </trkpt>
      <trkpt lat="44.91608" lon="1.78672">
        <ele>138.8</ele>
        <time>2022-05-24T10:42:27Z</time>
      </trkpt>
      <trkpt lat="44.91607" lon="1.78677">
        <ele>139</ele>
        <time>2022-05-24T10:42:28Z</time>
      </trkpt>
      <trkpt lat="44.91606" lon="1.78682">
        <ele>139.3</ele>
        <time>2022-05-24T10:42:29Z</time>
      </trkpt>
      <trkpt lat="44.91604" lon="1.78688">
        <ele>139.5</ele>
        <time>2022-05-24T10:42:30Z</time>
      </trkpt>
      <trkpt lat="44.91603" lon="1.78694">
        <ele>139.7</ele>
        <time>2022-05-24T10:42:31Z</time>
      </trkpt>
      <trkpt lat="44.91602" lon="1.78699">
        <ele>139.9</ele>
        <time>2022-05-24T10:42:32Z</time>
      </trkpt>
      <trkpt lat="44.91601" lon="1.78705">
        <ele>140.2</ele>
        <time>2022-05-24T10:42:33Z</time>
      </trkpt>
      <trkpt lat="44.916" lon="1.7871">
        <ele>140.4</ele>
        <time>2022-05-24T10:42:34Z</time>
      </trkpt>
      <trkpt lat="44.916" lon="1.78715">
        <ele>140.6</ele>
        <time>2022-05-24T10:42:35Z</time>
      </trkpt>
      <trkpt lat="44.91599" lon="1.78721">
        <ele>140.8</ele>
        <time>2022-05-24T10:42:36Z</time>
      </trkpt>
      <trkpt lat="44.91598" lon="1.78726">
        <ele>141</ele>
        <time>2022-05-24T10:42:37Z</time>
      </trkpt>
      <trkpt lat="44.91598" lon="1.78732">
        <ele>141.2</ele>
        <time>2022-05-24T10:42:38Z</time>
      </trkpt>
      <trkpt lat="44.91597" lon="1.78738">
        <ele>141.4</ele>
        <time>2022-05-24T10:42:39Z</time>
      </trkpt>
      <trkpt lat="44.91597" lon="1.78744">
        <ele>141.6</ele>
        <time>2022-05-24T10:42:40Z</time>
      </trkpt>
      <trkpt lat="44.91597" lon="1.7875">
        <ele>141.7</ele>
        <time>2022-05-24T10:42:41Z</time>
      </trkpt>
      <trkpt lat="44.91598" lon="1.78755">
        <ele>141.8</ele>
        <time>2022-05-24T10:42:42Z</time>
      </trkpt>
      <trkpt lat="44.91598" lon="1.78761">
        <ele>142</ele>
        <time>2022-05-24T10:42:43Z</time>
      </trkpt>
      <trkpt lat="44.91598" lon="1.78767">
        <ele>142.1</ele>
        <time>2022-05-24T10:42:44Z</time>
      </trkpt>
      <trkpt lat="44.91598" lon="1.78773">
        <ele>142.2</ele>
        <time>2022-05-24T10:42:45Z</time>
      </trkpt>
      <trkpt lat="44.91598" lon="1.78778">
        <ele>142.3</ele>
        <time>2022-05-24T10:42:46Z</time>
      </trkpt>
      <trkpt lat="44.91598" lon="1.78785">
        <ele>142.4</ele>
        <time>2022-05-24T10:42:47Z</time>
      </trkpt>
      <trkpt lat="44.91599" lon="1.78791">
        <ele>142.5</ele>
        <time>2022-05-24T10:42:48Z</time>
      </trkpt>
      <trkpt lat="44.91599" lon="1.78798">
        <ele>142.6</ele>
        <time>2022-05-24T10:42:49Z</time>
      </trkpt>
      <trkpt lat="44.91599" lon="1.78805">
        <ele>142.8</ele>
        <time>2022-05-24T10:42:50Z</time>
      </trkpt>
      <trkpt lat="44.91599" lon="1.78813">
        <ele>142.9</ele>
        <time>2022-05-24T10:42:51Z</time>
      </trkpt>
      <trkpt lat="44.91599" lon="1.7882">
        <ele>143</ele>
        <time>2022-05-24T10:42:52Z</time>
      </trkpt>
      <trkpt lat="44.91599" lon="1.78828">
        <ele>143</ele>
        <time>2022-05-24T10:42:53Z</time>
      </trkpt>
      <trkpt lat="44.91599" lon="1.78835">
        <ele>143.1</ele>
        <time>2022-05-24T10:42:54Z</time>
      </trkpt>
      <trkpt lat="44.91599" lon="1.78842">
        <ele>143.1</ele>
        <time>2022-05-24T10:42:55Z</time>
      </trkpt>
      <trkpt lat="44.91599" lon="1.78849">
        <ele>143.2</ele>
        <time>2022-05-24T10:42:56Z</time>
      </trkpt>
      <trkpt lat="44.916" lon="1.78855">
        <ele>143.2</ele>
        <time>2022-05-24T10:42:57Z</time>
      </trkpt>
      <trkpt lat="44.916" lon="1.78862">
        <ele>143.3</ele>
        <time>2022-05-24T10:42:58Z</time>
      </trkpt>
      <trkpt lat="44.91599" lon="1.78869">
        <ele>143.3</ele>
        <time>2022-05-24T10:42:59Z</time>
      </trkpt>
      <trkpt lat="44.91599" lon="1.78876">
        <ele>143.4</ele>
        <time>2022-05-24T10:43:00Z</time>
      </trkpt>
      <trkpt lat="44.916" lon="1.78883">
        <ele>143.4</ele>
        <time>2022-05-24T10:43:01Z</time>
      </trkpt>
      <trkpt lat="44.91601" lon="1.7889">
        <ele>143.5</ele>
        <time>2022-05-24T10:43:02Z</time>
      </trkpt>
      <trkpt lat="44.91602" lon="1.78897">
        <ele>143.5</ele>
        <time>2022-05-24T10:43:03Z</time>
      </trkpt>
      <trkpt lat="44.91603" lon="1.78903">
        <ele>143.5</ele>
        <time>2022-05-24T10:43:04Z</time>
      </trkpt>
      <trkpt lat="44.91605" lon="1.78911">
        <ele>143.5</ele>
        <time>2022-05-24T10:43:05Z</time>
      </trkpt>
      <trkpt lat="44.91606" lon="1.78918">
        <ele>143.4</ele>
        <time>2022-05-24T10:43:06Z</time>
      </trkpt>
      <trkpt lat="44.91608" lon="1.78925">
        <ele>143.4</ele>
        <time>2022-05-24T10:43:07Z</time>
      </trkpt>
      <trkpt lat="44.9161" lon="1.78932">
        <ele>143.3</ele>
        <time>2022-05-24T10:43:08Z</time>
      </trkpt>
      <trkpt lat="44.91612" lon="1.7894">
        <ele>143.3</ele>
        <time>2022-05-24T10:43:09Z</time>
      </trkpt>
      <trkpt lat="44.91614" lon="1.78947">
        <ele>143.2</ele>
        <time>2022-05-24T10:43:10Z</time>
      </trkpt>
      <trkpt lat="44.91617" lon="1.78956">
        <ele>143.1</ele>
        <time>2022-05-24T10:43:11Z</time>
      </trkpt>
      <trkpt lat="44.91619" lon="1.78964">
        <ele>143</ele>
        <time>2022-05-24T10:43:12Z</time>
      </trkpt>
      <trkpt lat="44.91621" lon="1.78974">
        <ele>142.9</ele>
        <time>2022-05-24T10:43:13Z</time>
      </trkpt>
      <trkpt lat="44.91624" lon="1.78982">
        <ele>142.8</ele>
        <time>2022-05-24T10:43:14Z</time>
      </trkpt>
      <trkpt lat="44.91626" lon="1.7899">
        <ele>142.6</ele>
        <time>2022-05-24T10:43:15Z</time>
      </trkpt>
      <trkpt lat="44.91628" lon="1.78998">
        <ele>142.5</ele>
        <time>2022-05-24T10:43:16Z</time>
      </trkpt>
      <trkpt lat="44.9163" lon="1.79007">
        <ele>142.4</ele>
        <time>2022-05-24T10:43:17Z</time>
      </trkpt>
      <trkpt lat="44.91632" lon="1.79016">
        <ele>142.2</ele>
        <time>2022-05-24T10:43:18Z</time>
      </trkpt>
      <trkpt lat="44.91635" lon="1.79025">
        <ele>142</ele>
        <time>2022-05-24T10:43:19Z</time>
      </trkpt>
      <trkpt lat="44.91638" lon="1.79033">
        <ele>141.9</ele>
        <time>2022-05-24T10:43:20Z</time>
      </trkpt>
      <trkpt lat="44.9164" lon="1.79041">
        <ele>141.7</ele>
        <time>2022-05-24T10:43:21Z</time>
      </trkpt>
      <trkpt lat="44.91643" lon="1.79049">
        <ele>141.5</ele>
        <time>2022-05-24T10:43:22Z</time>
      </trkpt>
      <trkpt lat="44.91647" lon="1.79057">
        <ele>141.4</ele>
        <time>2022-05-24T10:43:23Z</time>
      </trkpt>
      <trkpt lat="44.91652" lon="1.79064">
        <ele>141.2</ele>
        <time>2022-05-24T10:43:24Z</time>
      </trkpt>
      <trkpt lat="44.91658" lon="1.7907">
        <ele>141</ele>
        <time>2022-05-24T10:43:25Z</time>
      </trkpt>
      <trkpt lat="44.91663" lon="1.79077">
        <ele>140.8</ele>
        <time>2022-05-24T10:43:26Z</time>
      </trkpt>
      <trkpt lat="44.91669" lon="1.79082">
        <ele>140.6</ele>
        <time>2022-05-24T10:43:27Z</time>
      </trkpt>
      <trkpt lat="44.91675" lon="1.79087">
        <ele>140.4</ele>
        <time>2022-05-24T10:43:28Z</time>
      </trkpt>
      <trkpt lat="44.91681" lon="1.79092">
        <ele>140.3</ele>
        <time>2022-05-24T10:43:29Z</time>
      </trkpt>
      <trkpt lat="44.91688" lon="1.79096">
        <ele>140.2</ele>
        <time>2022-05-24T10:43:30Z</time>
      </trkpt>
      <trkpt lat="44.91693" lon="1.79101">
        <ele>139.9</ele>
        <time>2022-05-24T10:43:31Z</time>
      </trkpt>
      <trkpt lat="44.91697" lon="1.79107">
        <ele>139.6</ele>
        <time>2022-05-24T10:43:32Z</time>
      </trkpt>
      <trkpt lat="44.91703" lon="1.79118">
        <ele>139.2</ele>
        <time>2022-05-24T10:43:33Z</time>
      </trkpt>
      <trkpt lat="44.91706" lon="1.79128">
        <ele>138.9</ele>
        <time>2022-05-24T10:43:34Z</time>
      </trkpt>
      <trkpt lat="44.91709" lon="1.79137">
        <ele>138.7</ele>
        <time>2022-05-24T10:43:35Z</time>
      </trkpt>
      <trkpt lat="44.91711" lon="1.79146">
        <ele>138.5</ele>
        <time>2022-05-24T10:43:36Z</time>
      </trkpt>
      <trkpt lat="44.91714" lon="1.79155">
        <ele>138.3</ele>
        <time>2022-05-24T10:43:37Z</time>
      </trkpt>
      <trkpt lat="44.91717" lon="1.79163">
        <ele>138.1</ele>
        <time>2022-05-24T10:43:38Z</time>
      </trkpt>
      <trkpt lat="44.91717" lon="1.79172">
        <ele>137.5</ele>
        <time>2022-05-24T10:43:39Z</time>
      </trkpt>
      <trkpt lat="44.91713" lon="1.79179">
        <ele>137</ele>
        <time>2022-05-24T10:43:40Z</time>
      </trkpt>
      <trkpt lat="44.91708" lon="1.79186">
        <ele>136.4</ele>
        <time>2022-05-24T10:43:41Z</time>
      </trkpt>
      <trkpt lat="44.91702" lon="1.79193">
        <ele>135.7</ele>
        <time>2022-05-24T10:43:42Z</time>
      </trkpt>
      <trkpt lat="44.91697" lon="1.79201">
        <ele>135</ele>
        <time>2022-05-24T10:43:43Z</time>
      </trkpt>
      <trkpt lat="44.9169" lon="1.79209">
        <ele>134.3</ele>
        <time>2022-05-24T10:43:44Z</time>
      </trkpt>
      <trkpt lat="44.9168" lon="1.79223">
        <ele>133.7</ele>
        <time>2022-05-24T10:43:49Z</time>
      </trkpt>
      <trkpt lat="44.91647" lon="1.79251">
        <ele>133.2</ele>
        <time>2022-05-24T10:43:50Z</time>
      </trkpt>
      <trkpt lat="44.91642" lon="1.79255">
        <ele>133.2</ele>
        <time>2022-05-24T10:43:51Z</time>
      </trkpt>
      <trkpt lat="44.91635" lon="1.79262">
        <ele>133.1</ele>
        <time>2022-05-24T10:43:52Z</time>
      </trkpt>
      <trkpt lat="44.91629" lon="1.79269">
        <ele>133</ele>
        <time>2022-05-24T10:43:53Z</time>
      </trkpt>
      <trkpt lat="44.91623" lon="1.79275">
        <ele>132.9</ele>
        <time>2022-05-24T10:43:54Z</time>
      </trkpt>
      <trkpt lat="44.91617" lon="1.79283">
        <ele>132.9</ele>
        <time>2022-05-24T10:43:55Z</time>
      </trkpt>
      <trkpt lat="44.91611" lon="1.7929">
        <ele>132.8</ele>
        <time>2022-05-24T10:43:56Z</time>
      </trkpt>
      <trkpt lat="44.91605" lon="1.79296">
        <ele>132.8</ele>
        <time>2022-05-24T10:43:57Z</time>
      </trkpt>
      <trkpt lat="44.916" lon="1.79303">
        <ele>132.8</ele>
        <time>2022-05-24T10:43:58Z</time>
      </trkpt>
      <trkpt lat="44.91594" lon="1.79308">
        <ele>132.8</ele>
        <time>2022-05-24T10:43:59Z</time>
      </trkpt>
      <trkpt lat="44.91588" lon="1.79313">
        <ele>132.7</ele>
        <time>2022-05-24T10:44:00Z</time>
      </trkpt>
      <trkpt lat="44.91582" lon="1.79318">
        <ele>132.7</ele>
        <time>2022-05-24T10:44:01Z</time>
      </trkpt>
      <trkpt lat="44.91577" lon="1.79323">
        <ele>132.7</ele>
        <time>2022-05-24T10:44:02Z</time>
      </trkpt>
      <trkpt lat="44.91571" lon="1.79329">
        <ele>132.7</ele>
        <time>2022-05-24T10:44:03Z</time>
      </trkpt>
      <trkpt lat="44.91566" lon="1.79334">
        <ele>132.7</ele>
        <time>2022-05-24T10:44:04Z</time>
      </trkpt>
      <trkpt lat="44.91561" lon="1.7934">
        <ele>132.6</ele>
        <time>2022-05-24T10:44:05Z</time>
      </trkpt>
      <trkpt lat="44.91556" lon="1.79346">
        <ele>132.5</ele>
        <time>2022-05-24T10:44:06Z</time>
      </trkpt>
      <trkpt lat="44.9155" lon="1.79351">
        <ele>132.4</ele>
        <time>2022-05-24T10:44:07Z</time>
      </trkpt>
      <trkpt lat="44.91544" lon="1.79355">
        <ele>132.2</ele>
        <time>2022-05-24T10:44:08Z</time>
      </trkpt>
      <trkpt lat="44.91537" lon="1.79359">
        <ele>132</ele>
        <time>2022-05-24T10:44:09Z</time>
      </trkpt>
      <trkpt lat="44.91531" lon="1.79363">
        <ele>131.9</ele>
        <time>2022-05-24T10:44:10Z</time>
      </trkpt>
      <trkpt lat="44.91525" lon="1.79367">
        <ele>131.7</ele>
        <time>2022-05-24T10:44:11Z</time>
      </trkpt>
      <trkpt lat="44.91519" lon="1.79372">
        <ele>131.6</ele>
        <time>2022-05-24T10:44:12Z</time>
      </trkpt>
      <trkpt lat="44.91513" lon="1.79378">
        <ele>131.5</ele>
        <time>2022-05-24T10:44:13Z</time>
      </trkpt>
      <trkpt lat="44.91508" lon="1.79383">
        <ele>131.5</ele>
        <time>2022-05-24T10:44:14Z</time>
      </trkpt>
      <trkpt lat="44.91502" lon="1.79388">
        <ele>131.4</ele>
        <time>2022-05-24T10:44:15Z</time>
      </trkpt>
      <trkpt lat="44.91497" lon="1.79392">
        <ele>131.3</ele>
        <time>2022-05-24T10:44:16Z</time>
      </trkpt>
      <trkpt lat="44.91492" lon="1.79397">
        <ele>131.1</ele>
        <time>2022-05-24T10:44:17Z</time>
      </trkpt>
      <trkpt lat="44.91486" lon="1.79402">
        <ele>131</ele>
        <time>2022-05-24T10:44:18Z</time>
      </trkpt>
      <trkpt lat="44.91481" lon="1.79407">
        <ele>130.9</ele>
        <time>2022-05-24T10:44:19Z</time>
      </trkpt>
      <trkpt lat="44.91475" lon="1.79412">
        <ele>130.8</ele>
        <time>2022-05-24T10:44:20Z</time>
      </trkpt>
      <trkpt lat="44.91467" lon="1.79417">
        <ele>130.6</ele>
        <time>2022-05-24T10:44:21Z</time>
      </trkpt>
      <trkpt lat="44.91461" lon="1.79422">
        <ele>130.5</ele>
        <time>2022-05-24T10:44:22Z</time>
      </trkpt>
      <trkpt lat="44.91456" lon="1.79426">
        <ele>130.5</ele>
        <time>2022-05-24T10:44:23Z</time>
      </trkpt>
      <trkpt lat="44.91452" lon="1.79429">
        <ele>130.4</ele>
        <time>2022-05-24T10:44:24Z</time>
      </trkpt>
      <trkpt lat="44.91448" lon="1.79431">
        <ele>130.4</ele>
        <time>2022-05-24T10:44:25Z</time>
      </trkpt>
      <trkpt lat="44.91446" lon="1.79431">
        <ele>130.4</ele>
        <time>2022-05-24T10:44:26Z</time>
      </trkpt>
      <trkpt lat="44.91445" lon="1.79431">
        <ele>130.4</ele>
        <time>2022-05-24T10:44:27Z</time>
      </trkpt>
      <trkpt lat="44.91445" lon="1.79431">
        <ele>130.4</ele>
        <time>2022-05-24T10:44:28Z</time>
      </trkpt>
      <trkpt lat="44.91446" lon="1.79431">
        <ele>130.4</ele>
        <time>2022-05-24T10:44:29Z</time>
      </trkpt>
      <trkpt lat="44.91446" lon="1.7943">
        <ele>130.4</ele>
        <time>2022-05-24T10:44:30Z</time>
      </trkpt>
      <trkpt lat="44.91446" lon="1.7943">
        <ele>130.4</ele>
        <time>2022-05-24T10:44:31Z</time>
      </trkpt>
      <trkpt lat="44.91446" lon="1.7943">
        <ele>130.4</ele>
        <time>2022-05-24T10:44:32Z</time>
      </trkpt>
      <trkpt lat="44.91447" lon="1.7943">
        <ele>130.4</ele>
        <time>2022-05-24T10:44:33Z</time>
      </trkpt>
      <trkpt lat="44.91447" lon="1.7943">
        <ele>130.4</ele>
        <time>2022-05-24T10:44:34Z</time>
      </trkpt>
      <trkpt lat="44.91447" lon="1.7943">
        <ele>130.4</ele>
        <time>2022-05-24T10:44:35Z</time>
      </trkpt>
      <trkpt lat="44.91447" lon="1.7943">
        <ele>130.4</ele>
        <time>2022-05-24T10:44:36Z</time>
      </trkpt>
      <trkpt lat="44.91447" lon="1.7943">
        <ele>130.4</ele>
        <time>2022-05-24T10:44:37Z</time>
      </trkpt>
      <trkpt lat="44.91447" lon="1.79429">
        <ele>130.4</ele>
        <time>2022-05-24T10:44:38Z</time>
      </trkpt>
      <trkpt lat="44.91447" lon="1.79429">
        <ele>130.4</ele>
        <time>2022-05-24T10:44:39Z</time>
      </trkpt>
      <trkpt lat="44.91447" lon="1.79429">
        <ele>130.4</ele>
        <time>2022-05-24T10:44:40Z</time>
      </trkpt>
      <trkpt lat="44.91447" lon="1.7943">
        <ele>130.4</ele>
        <time>2022-05-24T10:44:42Z</time>
      </trkpt>
    </trkseg>
  </trk>
</gpx>